<?xml version="1.0" encoding="UTF-8" standalone="no" ?>
<gpx xmlns="http://www.topografix.com/GPX/1/1" xmlns:xsi="http://www.w3.org/2001/XMLSchema-instance" xsi:schemaLocation="http://www.topografix.com/GPX/1/1 http://www.topografix.com/GPX/1/1/gpx.xsd" version="1.1" creator="VisuGPX - https://www.visugpx.com">
  <metadata>
    <name>ADAMELLO ULTRA TRAIL 2018</name>
    <desc><![CDATA[ADAMELLO ULTRA TRAIL 2018. RUTA QUE ES POT FER TAMBE PER ETAPES]]></desc>
  </metadata>
  <trk>
    <name><![CDATA[ADAMELLO ULTRA TRAIL 2018]]></name>
    <trkseg>
      <trkpt lat="46.24034" lon="10.39769">
        <ele>1074.032</ele>
        <time>2018-09-13T08:17:45Z</time>
      </trkpt>
      <trkpt lat="46.24036" lon="10.39776">
        <ele>1073.392</ele>
        <time>2018-09-13T08:18:05Z</time>
      </trkpt>
      <trkpt lat="46.24039" lon="10.3979">
        <ele>1073.311</ele>
        <time>2018-09-13T08:18:25Z</time>
      </trkpt>
      <trkpt lat="46.2404" lon="10.39795">
        <ele>1073.408</ele>
        <time>2018-09-13T08:18:45Z</time>
      </trkpt>
      <trkpt lat="46.24042" lon="10.39804">
        <ele>1073.575</ele>
        <time>2018-09-13T08:19:05Z</time>
      </trkpt>
      <trkpt lat="46.24047" lon="10.39832">
        <ele>1075.021</ele>
        <time>2018-09-13T08:19:25Z</time>
      </trkpt>
      <trkpt lat="46.2405" lon="10.39842">
        <ele>1075.778</ele>
        <time>2018-09-13T08:19:45Z</time>
      </trkpt>
      <trkpt lat="46.2405" lon="10.39844">
        <ele>1075.891</ele>
        <time>2018-09-13T08:20:05Z</time>
      </trkpt>
      <trkpt lat="46.2405" lon="10.39844">
        <ele>1075.894</ele>
        <time>2018-09-13T08:20:25Z</time>
      </trkpt>
      <trkpt lat="46.24054" lon="10.39858">
        <ele>1076.787</ele>
        <time>2018-09-13T08:20:45Z</time>
      </trkpt>
      <trkpt lat="46.24058" lon="10.39866">
        <ele>1077.625</ele>
        <time>2018-09-13T08:21:05Z</time>
      </trkpt>
      <trkpt lat="46.24062" lon="10.39875">
        <ele>1078.762</ele>
        <time>2018-09-13T08:21:25Z</time>
      </trkpt>
      <trkpt lat="46.24064" lon="10.39878">
        <ele>1079.267</ele>
        <time>2018-09-13T08:21:45Z</time>
      </trkpt>
      <trkpt lat="46.24077" lon="10.39894">
        <ele>1082.181</ele>
        <time>2018-09-13T08:22:05Z</time>
      </trkpt>
      <trkpt lat="46.2408" lon="10.3992">
        <ele>1084.319</ele>
        <time>2018-09-13T08:22:25Z</time>
      </trkpt>
      <trkpt lat="46.24083" lon="10.39945">
        <ele>1085.908</ele>
        <time>2018-09-13T08:22:45Z</time>
      </trkpt>
      <trkpt lat="46.24089" lon="10.39968">
        <ele>1087.438</ele>
        <time>2018-09-13T08:23:05Z</time>
      </trkpt>
      <trkpt lat="46.24089" lon="10.39968">
        <ele>1087.494</ele>
        <time>2018-09-13T08:23:25Z</time>
      </trkpt>
      <trkpt lat="46.24089" lon="10.3997">
        <ele>1087.581</ele>
        <time>2018-09-13T08:23:45Z</time>
      </trkpt>
      <trkpt lat="46.24096" lon="10.39994">
        <ele>1089.034</ele>
        <time>2018-09-13T08:24:05Z</time>
      </trkpt>
      <trkpt lat="46.24099" lon="10.40004">
        <ele>1089.987</ele>
        <time>2018-09-13T08:24:25Z</time>
      </trkpt>
      <trkpt lat="46.2411" lon="10.4004">
        <ele>1092.85</ele>
        <time>2018-09-13T08:24:45Z</time>
      </trkpt>
      <trkpt lat="46.24104" lon="10.40138">
        <ele>1088.628</ele>
        <time>2018-09-13T08:25:05Z</time>
      </trkpt>
      <trkpt lat="46.24104" lon="10.40153">
        <ele>1088.115</ele>
        <time>2018-09-13T08:25:25Z</time>
      </trkpt>
      <trkpt lat="46.24104" lon="10.40176">
        <ele>1087.676</ele>
        <time>2018-09-13T08:25:45Z</time>
      </trkpt>
      <trkpt lat="46.24104" lon="10.40177">
        <ele>1087.59</ele>
        <time>2018-09-13T08:26:05Z</time>
      </trkpt>
      <trkpt lat="46.24105" lon="10.40193">
        <ele>1087.719</ele>
        <time>2018-09-13T08:26:25Z</time>
      </trkpt>
      <trkpt lat="46.24109" lon="10.40211">
        <ele>1087.908</ele>
        <time>2018-09-13T08:26:45Z</time>
      </trkpt>
      <trkpt lat="46.24113" lon="10.40232">
        <ele>1088.029</ele>
        <time>2018-09-13T08:27:05Z</time>
      </trkpt>
      <trkpt lat="46.24114" lon="10.40251">
        <ele>1087.635</ele>
        <time>2018-09-13T08:27:25Z</time>
      </trkpt>
      <trkpt lat="46.24112" lon="10.40277">
        <ele>1086.252</ele>
        <time>2018-09-13T08:27:45Z</time>
      </trkpt>
      <trkpt lat="46.24112" lon="10.40277">
        <ele>1086.225</ele>
        <time>2018-09-13T08:28:05Z</time>
      </trkpt>
      <trkpt lat="46.24112" lon="10.40287">
        <ele>1085.878</ele>
        <time>2018-09-13T08:28:25Z</time>
      </trkpt>
      <trkpt lat="46.24108" lon="10.40326">
        <ele>1085.011</ele>
        <time>2018-09-13T08:28:45Z</time>
      </trkpt>
      <trkpt lat="46.24109" lon="10.4034">
        <ele>1085.129</ele>
        <time>2018-09-13T08:29:05Z</time>
      </trkpt>
      <trkpt lat="46.24112" lon="10.40389">
        <ele>1084.226</ele>
        <time>2018-09-13T08:29:25Z</time>
      </trkpt>
      <trkpt lat="46.24116" lon="10.40407">
        <ele>1084.573</ele>
        <time>2018-09-13T08:29:45Z</time>
      </trkpt>
      <trkpt lat="46.24128" lon="10.40463">
        <ele>1086.485</ele>
        <time>2018-09-13T08:30:05Z</time>
      </trkpt>
      <trkpt lat="46.24129" lon="10.40469">
        <ele>1086.513</ele>
        <time>2018-09-13T08:30:25Z</time>
      </trkpt>
      <trkpt lat="46.24138" lon="10.40522">
        <ele>1087.008</ele>
        <time>2018-09-13T08:30:45Z</time>
      </trkpt>
      <trkpt lat="46.24139" lon="10.4053">
        <ele>1087.039</ele>
        <time>2018-09-13T08:31:05Z</time>
      </trkpt>
      <trkpt lat="46.24142" lon="10.40551">
        <ele>1087.165</ele>
        <time>2018-09-13T08:31:25Z</time>
      </trkpt>
      <trkpt lat="46.24151" lon="10.40636">
        <ele>1087.662</ele>
        <time>2018-09-13T08:31:45Z</time>
      </trkpt>
      <trkpt lat="46.24158" lon="10.40683">
        <ele>1088.535</ele>
        <time>2018-09-13T08:32:05Z</time>
      </trkpt>
      <trkpt lat="46.24158" lon="10.40683">
        <ele>1088.568</ele>
        <time>2018-09-13T08:32:25Z</time>
      </trkpt>
      <trkpt lat="46.24176" lon="10.40798">
        <ele>1089.861</ele>
        <time>2018-09-13T08:32:45Z</time>
      </trkpt>
      <trkpt lat="46.24176" lon="10.40802">
        <ele>1089.789</ele>
        <time>2018-09-13T08:33:05Z</time>
      </trkpt>
      <trkpt lat="46.2418" lon="10.40871">
        <ele>1094.726</ele>
        <time>2018-09-13T08:33:25Z</time>
      </trkpt>
      <trkpt lat="46.24178" lon="10.4092">
        <ele>1096.053</ele>
        <time>2018-09-13T08:33:45Z</time>
      </trkpt>
      <trkpt lat="46.24178" lon="10.4092">
        <ele>1096.004</ele>
        <time>2018-09-13T08:34:05Z</time>
      </trkpt>
      <trkpt lat="46.24176" lon="10.40941">
        <ele>1097.514</ele>
        <time>2018-09-13T08:34:25Z</time>
      </trkpt>
      <trkpt lat="46.24168" lon="10.40972">
        <ele>1097.508</ele>
        <time>2018-09-13T08:34:45Z</time>
      </trkpt>
      <trkpt lat="46.24167" lon="10.40977">
        <ele>1097.277</ele>
        <time>2018-09-13T08:35:05Z</time>
      </trkpt>
      <trkpt lat="46.24152" lon="10.40999">
        <ele>1096.383</ele>
        <time>2018-09-13T08:35:25Z</time>
      </trkpt>
      <trkpt lat="46.24152" lon="10.41021">
        <ele>1095.51</ele>
        <time>2018-09-13T08:35:45Z</time>
      </trkpt>
      <trkpt lat="46.24158" lon="10.41062">
        <ele>1095.033</ele>
        <time>2018-09-13T08:36:05Z</time>
      </trkpt>
      <trkpt lat="46.24159" lon="10.41077">
        <ele>1094.686</ele>
        <time>2018-09-13T08:36:25Z</time>
      </trkpt>
      <trkpt lat="46.2416" lon="10.41083">
        <ele>1094.599</ele>
        <time>2018-09-13T08:36:45Z</time>
      </trkpt>
      <trkpt lat="46.2416" lon="10.41089">
        <ele>1094.427</ele>
        <time>2018-09-13T08:37:05Z</time>
      </trkpt>
      <trkpt lat="46.24163" lon="10.41111">
        <ele>1094.214</ele>
        <time>2018-09-13T08:37:25Z</time>
      </trkpt>
      <trkpt lat="46.24188" lon="10.41142">
        <ele>1099.184</ele>
        <time>2018-09-13T08:37:45Z</time>
      </trkpt>
      <trkpt lat="46.24191" lon="10.41146">
        <ele>1099.707</ele>
        <time>2018-09-13T08:38:05Z</time>
      </trkpt>
      <trkpt lat="46.24196" lon="10.41153">
        <ele>1100.717</ele>
        <time>2018-09-13T08:38:25Z</time>
      </trkpt>
      <trkpt lat="46.24205" lon="10.41169">
        <ele>1102.908</ele>
        <time>2018-09-13T08:38:45Z</time>
      </trkpt>
      <trkpt lat="46.24223" lon="10.41196">
        <ele>1107.92</ele>
        <time>2018-09-13T08:39:05Z</time>
      </trkpt>
      <trkpt lat="46.24242" lon="10.41223">
        <ele>1112.176</ele>
        <time>2018-09-13T08:39:25Z</time>
      </trkpt>
      <trkpt lat="46.24249" lon="10.41234">
        <ele>1113.653</ele>
        <time>2018-09-13T08:39:45Z</time>
      </trkpt>
      <trkpt lat="46.24263" lon="10.41259">
        <ele>1116.456</ele>
        <time>2018-09-13T08:40:05Z</time>
      </trkpt>
      <trkpt lat="46.24265" lon="10.41263">
        <ele>1116.939</ele>
        <time>2018-09-13T08:40:25Z</time>
      </trkpt>
      <trkpt lat="46.24277" lon="10.41286">
        <ele>1119.222</ele>
        <time>2018-09-13T08:40:45Z</time>
      </trkpt>
      <trkpt lat="46.24284" lon="10.413">
        <ele>1119.72</ele>
        <time>2018-09-13T08:41:05Z</time>
      </trkpt>
      <trkpt lat="46.24288" lon="10.41309">
        <ele>1120.267</ele>
        <time>2018-09-13T08:41:25Z</time>
      </trkpt>
      <trkpt lat="46.24298" lon="10.41332">
        <ele>1122.142</ele>
        <time>2018-09-13T08:41:45Z</time>
      </trkpt>
      <trkpt lat="46.24304" lon="10.41345">
        <ele>1123.122</ele>
        <time>2018-09-13T08:42:05Z</time>
      </trkpt>
      <trkpt lat="46.24325" lon="10.41389">
        <ele>1127.514</ele>
        <time>2018-09-13T08:42:25Z</time>
      </trkpt>
      <trkpt lat="46.24338" lon="10.41388">
        <ele>1131.608</ele>
        <time>2018-09-13T08:42:45Z</time>
      </trkpt>
      <trkpt lat="46.24361" lon="10.41355">
        <ele>1138.736</ele>
        <time>2018-09-13T08:43:05Z</time>
      </trkpt>
      <trkpt lat="46.24387" lon="10.41315">
        <ele>1148.832</ele>
        <time>2018-09-13T08:43:25Z</time>
      </trkpt>
      <trkpt lat="46.24387" lon="10.41315">
        <ele>1148.899</ele>
        <time>2018-09-13T08:43:45Z</time>
      </trkpt>
      <trkpt lat="46.24405" lon="10.41298">
        <ele>1160.482</ele>
        <time>2018-09-13T08:44:05Z</time>
      </trkpt>
      <trkpt lat="46.24417" lon="10.41313">
        <ele>1165.815</ele>
        <time>2018-09-13T08:44:25Z</time>
      </trkpt>
      <trkpt lat="46.24428" lon="10.41326">
        <ele>1170.588</ele>
        <time>2018-09-13T08:44:45Z</time>
      </trkpt>
      <trkpt lat="46.24434" lon="10.41333">
        <ele>1172.086</ele>
        <time>2018-09-13T08:45:05Z</time>
      </trkpt>
      <trkpt lat="46.24443" lon="10.41349">
        <ele>1173.773</ele>
        <time>2018-09-13T08:45:25Z</time>
      </trkpt>
      <trkpt lat="46.24446" lon="10.41355">
        <ele>1174.516</ele>
        <time>2018-09-13T08:45:45Z</time>
      </trkpt>
      <trkpt lat="46.24454" lon="10.41372">
        <ele>1176.476</ele>
        <time>2018-09-13T08:46:05Z</time>
      </trkpt>
      <trkpt lat="46.24458" lon="10.41386">
        <ele>1176.013</ele>
        <time>2018-09-13T08:46:25Z</time>
      </trkpt>
      <trkpt lat="46.2447" lon="10.4141">
        <ele>1183.008</ele>
        <time>2018-09-13T08:46:45Z</time>
      </trkpt>
      <trkpt lat="46.24483" lon="10.41424">
        <ele>1190.223</ele>
        <time>2018-09-13T08:47:05Z</time>
      </trkpt>
      <trkpt lat="46.24496" lon="10.41424">
        <ele>1194.929</ele>
        <time>2018-09-13T08:47:25Z</time>
      </trkpt>
      <trkpt lat="46.24512" lon="10.41425">
        <ele>1201.716</ele>
        <time>2018-09-13T08:47:45Z</time>
      </trkpt>
      <trkpt lat="46.24518" lon="10.41426">
        <ele>1204.149</ele>
        <time>2018-09-13T08:48:05Z</time>
      </trkpt>
      <trkpt lat="46.24538" lon="10.41419">
        <ele>1212.932</ele>
        <time>2018-09-13T08:48:25Z</time>
      </trkpt>
      <trkpt lat="46.24547" lon="10.41414">
        <ele>1218.315</ele>
        <time>2018-09-13T08:48:45Z</time>
      </trkpt>
      <trkpt lat="46.24548" lon="10.41413">
        <ele>1219.393</ele>
        <time>2018-09-13T08:49:05Z</time>
      </trkpt>
      <trkpt lat="46.24571" lon="10.41402">
        <ele>1230.21</ele>
        <time>2018-09-13T08:49:25Z</time>
      </trkpt>
      <trkpt lat="46.2458" lon="10.41401">
        <ele>1233.711</ele>
        <time>2018-09-13T08:49:45Z</time>
      </trkpt>
      <trkpt lat="46.2459" lon="10.41401">
        <ele>1236.821</ele>
        <time>2018-09-13T08:50:05Z</time>
      </trkpt>
      <trkpt lat="46.24599" lon="10.41395">
        <ele>1240.603</ele>
        <time>2018-09-13T08:50:25Z</time>
      </trkpt>
      <trkpt lat="46.24615" lon="10.41391">
        <ele>1245.608</ele>
        <time>2018-09-13T08:50:45Z</time>
      </trkpt>
      <trkpt lat="46.24629" lon="10.41388">
        <ele>1248.383</ele>
        <time>2018-09-13T08:51:05Z</time>
      </trkpt>
      <trkpt lat="46.24647" lon="10.41388">
        <ele>1251.319</ele>
        <time>2018-09-13T08:51:25Z</time>
      </trkpt>
      <trkpt lat="46.24657" lon="10.41386">
        <ele>1253.136</ele>
        <time>2018-09-13T08:51:45Z</time>
      </trkpt>
      <trkpt lat="46.24676" lon="10.41378">
        <ele>1259.919</ele>
        <time>2018-09-13T08:52:05Z</time>
      </trkpt>
      <trkpt lat="46.24688" lon="10.4137">
        <ele>1265.222</ele>
        <time>2018-09-13T08:52:25Z</time>
      </trkpt>
      <trkpt lat="46.24693" lon="10.41356">
        <ele>1268.255</ele>
        <time>2018-09-13T08:52:45Z</time>
      </trkpt>
      <trkpt lat="46.24692" lon="10.41353">
        <ele>1268.253</ele>
        <time>2018-09-13T08:53:05Z</time>
      </trkpt>
      <trkpt lat="46.24688" lon="10.41344">
        <ele>1268.39</ele>
        <time>2018-09-13T08:53:25Z</time>
      </trkpt>
      <trkpt lat="46.24677" lon="10.41327">
        <ele>1268.059</ele>
        <time>2018-09-13T08:53:45Z</time>
      </trkpt>
      <trkpt lat="46.24667" lon="10.41311">
        <ele>1268.603</ele>
        <time>2018-09-13T08:54:05Z</time>
      </trkpt>
      <trkpt lat="46.24663" lon="10.41304">
        <ele>1269.523</ele>
        <time>2018-09-13T08:54:25Z</time>
      </trkpt>
      <trkpt lat="46.24656" lon="10.41292">
        <ele>1270.508</ele>
        <time>2018-09-13T08:54:45Z</time>
      </trkpt>
      <trkpt lat="46.24647" lon="10.41286">
        <ele>1269.817</ele>
        <time>2018-09-13T08:55:05Z</time>
      </trkpt>
      <trkpt lat="46.24642" lon="10.41284">
        <ele>1268.633</ele>
        <time>2018-09-13T08:55:25Z</time>
      </trkpt>
      <trkpt lat="46.24623" lon="10.41267">
        <ele>1271.63</ele>
        <time>2018-09-13T08:55:45Z</time>
      </trkpt>
      <trkpt lat="46.24608" lon="10.41237">
        <ele>1277.023</ele>
        <time>2018-09-13T08:56:05Z</time>
      </trkpt>
      <trkpt lat="46.24605" lon="10.41213">
        <ele>1279.176</ele>
        <time>2018-09-13T08:56:25Z</time>
      </trkpt>
      <trkpt lat="46.24603" lon="10.41189">
        <ele>1280.629</ele>
        <time>2018-09-13T08:56:45Z</time>
      </trkpt>
      <trkpt lat="46.24604" lon="10.41166">
        <ele>1282.267</ele>
        <time>2018-09-13T08:57:05Z</time>
      </trkpt>
      <trkpt lat="46.24645" lon="10.41108">
        <ele>1285.414</ele>
        <time>2018-09-13T08:57:25Z</time>
      </trkpt>
      <trkpt lat="46.24673" lon="10.41104">
        <ele>1296.798</ele>
        <time>2018-09-13T08:57:45Z</time>
      </trkpt>
      <trkpt lat="46.24689" lon="10.41105">
        <ele>1299.115</ele>
        <time>2018-09-13T08:58:05Z</time>
      </trkpt>
      <trkpt lat="46.24699" lon="10.41099">
        <ele>1300.926</ele>
        <time>2018-09-13T08:58:25Z</time>
      </trkpt>
      <trkpt lat="46.24706" lon="10.41096">
        <ele>1302.208</ele>
        <time>2018-09-13T08:58:45Z</time>
      </trkpt>
      <trkpt lat="46.24716" lon="10.4109">
        <ele>1303.691</ele>
        <time>2018-09-13T08:59:05Z</time>
      </trkpt>
      <trkpt lat="46.24713" lon="10.41072">
        <ele>1311.187</ele>
        <time>2018-09-13T08:59:25Z</time>
      </trkpt>
      <trkpt lat="46.24714" lon="10.41069">
        <ele>1313.444</ele>
        <time>2018-09-13T08:59:45Z</time>
      </trkpt>
      <trkpt lat="46.24713" lon="10.41068">
        <ele>1314.177</ele>
        <time>2018-09-13T09:00:05Z</time>
      </trkpt>
      <trkpt lat="46.24697" lon="10.41051">
        <ele>1321.62</ele>
        <time>2018-09-13T09:00:25Z</time>
      </trkpt>
      <trkpt lat="46.24695" lon="10.41044">
        <ele>1324.663</ele>
        <time>2018-09-13T09:00:45Z</time>
      </trkpt>
      <trkpt lat="46.24691" lon="10.41032">
        <ele>1327.721</ele>
        <time>2018-09-13T09:01:05Z</time>
      </trkpt>
      <trkpt lat="46.24683" lon="10.41023">
        <ele>1327.018</ele>
        <time>2018-09-13T09:01:25Z</time>
      </trkpt>
      <trkpt lat="46.24672" lon="10.4101">
        <ele>1326.258</ele>
        <time>2018-09-13T09:01:45Z</time>
      </trkpt>
      <trkpt lat="46.24657" lon="10.40989">
        <ele>1327.252</ele>
        <time>2018-09-13T09:02:05Z</time>
      </trkpt>
      <trkpt lat="46.24625" lon="10.40963">
        <ele>1320.117</ele>
        <time>2018-09-13T09:02:25Z</time>
      </trkpt>
      <trkpt lat="46.24611" lon="10.4095">
        <ele>1316.308</ele>
        <time>2018-09-13T09:02:45Z</time>
      </trkpt>
      <trkpt lat="46.24607" lon="10.40942">
        <ele>1316.397</ele>
        <time>2018-09-13T09:03:05Z</time>
      </trkpt>
      <trkpt lat="46.24604" lon="10.40933">
        <ele>1314.763</ele>
        <time>2018-09-13T09:03:25Z</time>
      </trkpt>
      <trkpt lat="46.24601" lon="10.40927">
        <ele>1313.59</ele>
        <time>2018-09-13T09:03:45Z</time>
      </trkpt>
      <trkpt lat="46.246" lon="10.40921">
        <ele>1313.413</ele>
        <time>2018-09-13T09:04:05Z</time>
      </trkpt>
      <trkpt lat="46.24599" lon="10.40913">
        <ele>1312.676</ele>
        <time>2018-09-13T09:04:25Z</time>
      </trkpt>
      <trkpt lat="46.24601" lon="10.40891">
        <ele>1313.419</ele>
        <time>2018-09-13T09:04:45Z</time>
      </trkpt>
      <trkpt lat="46.24602" lon="10.40882">
        <ele>1315.337</ele>
        <time>2018-09-13T09:05:05Z</time>
      </trkpt>
      <trkpt lat="46.24602" lon="10.40881">
        <ele>1315.934</ele>
        <time>2018-09-13T09:05:25Z</time>
      </trkpt>
      <trkpt lat="46.24602" lon="10.40872">
        <ele>1317.947</ele>
        <time>2018-09-13T09:05:45Z</time>
      </trkpt>
      <trkpt lat="46.24602" lon="10.40857">
        <ele>1321.829</ele>
        <time>2018-09-13T09:06:05Z</time>
      </trkpt>
      <trkpt lat="46.24602" lon="10.40848">
        <ele>1324.821</ele>
        <time>2018-09-13T09:06:25Z</time>
      </trkpt>
      <trkpt lat="46.24601" lon="10.40842">
        <ele>1326.308</ele>
        <time>2018-09-13T09:06:45Z</time>
      </trkpt>
      <trkpt lat="46.24601" lon="10.4084">
        <ele>1326.996</ele>
        <time>2018-09-13T09:07:05Z</time>
      </trkpt>
      <trkpt lat="46.24601" lon="10.40839">
        <ele>1327.032</ele>
        <time>2018-09-13T09:07:25Z</time>
      </trkpt>
      <trkpt lat="46.24597" lon="10.4083">
        <ele>1328.349</ele>
        <time>2018-09-13T09:07:45Z</time>
      </trkpt>
      <trkpt lat="46.24594" lon="10.40815">
        <ele>1330.182</ele>
        <time>2018-09-13T09:08:05Z</time>
      </trkpt>
      <trkpt lat="46.24592" lon="10.40812">
        <ele>1329.865</ele>
        <time>2018-09-13T09:08:25Z</time>
      </trkpt>
      <trkpt lat="46.2459" lon="10.40807">
        <ele>1330.268</ele>
        <time>2018-09-13T09:08:45Z</time>
      </trkpt>
      <trkpt lat="46.24588" lon="10.40802">
        <ele>1329.896</ele>
        <time>2018-09-13T09:09:05Z</time>
      </trkpt>
      <trkpt lat="46.24583" lon="10.40778">
        <ele>1328.793</ele>
        <time>2018-09-13T09:09:25Z</time>
      </trkpt>
      <trkpt lat="46.2458" lon="10.40762">
        <ele>1328.361</ele>
        <time>2018-09-13T09:09:45Z</time>
      </trkpt>
      <trkpt lat="46.24577" lon="10.40745">
        <ele>1328.121</ele>
        <time>2018-09-13T09:10:05Z</time>
      </trkpt>
      <trkpt lat="46.24575" lon="10.4072">
        <ele>1329.213</ele>
        <time>2018-09-13T09:10:25Z</time>
      </trkpt>
      <trkpt lat="46.24574" lon="10.40714">
        <ele>1329.608</ele>
        <time>2018-09-13T09:10:45Z</time>
      </trkpt>
      <trkpt lat="46.24573" lon="10.40704">
        <ele>1330.368</ele>
        <time>2018-09-13T09:11:05Z</time>
      </trkpt>
      <trkpt lat="46.24573" lon="10.40698">
        <ele>1330.734</ele>
        <time>2018-09-13T09:11:25Z</time>
      </trkpt>
      <trkpt lat="46.24572" lon="10.40691">
        <ele>1331.031</ele>
        <time>2018-09-13T09:11:45Z</time>
      </trkpt>
      <trkpt lat="46.24572" lon="10.40687">
        <ele>1331.064</ele>
        <time>2018-09-13T09:12:05Z</time>
      </trkpt>
      <trkpt lat="46.24568" lon="10.40673">
        <ele>1328.677</ele>
        <time>2018-09-13T09:12:25Z</time>
      </trkpt>
      <trkpt lat="46.24566" lon="10.40669">
        <ele>1327.01</ele>
        <time>2018-09-13T09:12:45Z</time>
      </trkpt>
      <trkpt lat="46.24561" lon="10.40658">
        <ele>1323.638</ele>
        <time>2018-09-13T09:13:05Z</time>
      </trkpt>
      <trkpt lat="46.24554" lon="10.40639">
        <ele>1320.065</ele>
        <time>2018-09-13T09:13:25Z</time>
      </trkpt>
      <trkpt lat="46.24548" lon="10.40612">
        <ele>1319.473</ele>
        <time>2018-09-13T09:13:45Z</time>
      </trkpt>
      <trkpt lat="46.24547" lon="10.40603">
        <ele>1319.585</ele>
        <time>2018-09-13T09:14:05Z</time>
      </trkpt>
      <trkpt lat="46.24543" lon="10.40589">
        <ele>1318.113</ele>
        <time>2018-09-13T09:14:25Z</time>
      </trkpt>
      <trkpt lat="46.24542" lon="10.40585">
        <ele>1317.808</ele>
        <time>2018-09-13T09:14:45Z</time>
      </trkpt>
      <trkpt lat="46.24541" lon="10.40573">
        <ele>1317.239</ele>
        <time>2018-09-13T09:15:05Z</time>
      </trkpt>
      <trkpt lat="46.2454" lon="10.40562">
        <ele>1317.025</ele>
        <time>2018-09-13T09:15:25Z</time>
      </trkpt>
      <trkpt lat="46.24538" lon="10.40538">
        <ele>1316.452</ele>
        <time>2018-09-13T09:15:45Z</time>
      </trkpt>
      <trkpt lat="46.24537" lon="10.40526">
        <ele>1316.785</ele>
        <time>2018-09-13T09:16:05Z</time>
      </trkpt>
      <trkpt lat="46.24537" lon="10.40522">
        <ele>1316.688</ele>
        <time>2018-09-13T09:16:25Z</time>
      </trkpt>
      <trkpt lat="46.24537" lon="10.40514">
        <ele>1317.171</ele>
        <time>2018-09-13T09:16:45Z</time>
      </trkpt>
      <trkpt lat="46.24536" lon="10.40508">
        <ele>1317.359</ele>
        <time>2018-09-13T09:17:05Z</time>
      </trkpt>
      <trkpt lat="46.24535" lon="10.40484">
        <ele>1317.786</ele>
        <time>2018-09-13T09:17:25Z</time>
      </trkpt>
      <trkpt lat="46.24534" lon="10.40474">
        <ele>1317.839</ele>
        <time>2018-09-13T09:17:45Z</time>
      </trkpt>
      <trkpt lat="46.24534" lon="10.40456">
        <ele>1318.201</ele>
        <time>2018-09-13T09:18:05Z</time>
      </trkpt>
      <trkpt lat="46.24534" lon="10.40454">
        <ele>1318.321</ele>
        <time>2018-09-13T09:18:25Z</time>
      </trkpt>
      <trkpt lat="46.24534" lon="10.40444">
        <ele>1318.708</ele>
        <time>2018-09-13T09:18:45Z</time>
      </trkpt>
      <trkpt lat="46.24535" lon="10.40423">
        <ele>1317.765</ele>
        <time>2018-09-13T09:19:05Z</time>
      </trkpt>
      <trkpt lat="46.24534" lon="10.40402">
        <ele>1316.951</ele>
        <time>2018-09-13T09:19:25Z</time>
      </trkpt>
      <trkpt lat="46.24534" lon="10.40382">
        <ele>1316.438</ele>
        <time>2018-09-13T09:19:45Z</time>
      </trkpt>
      <trkpt lat="46.24535" lon="10.40371">
        <ele>1315.011</ele>
        <time>2018-09-13T09:20:05Z</time>
      </trkpt>
      <trkpt lat="46.24536" lon="10.40347">
        <ele>1311.364</ele>
        <time>2018-09-13T09:20:25Z</time>
      </trkpt>
      <trkpt lat="46.24537" lon="10.40338">
        <ele>1310.537</ele>
        <time>2018-09-13T09:20:45Z</time>
      </trkpt>
      <trkpt lat="46.24538" lon="10.40318">
        <ele>1307.675</ele>
        <time>2018-09-13T09:21:05Z</time>
      </trkpt>
      <trkpt lat="46.2454" lon="10.40309">
        <ele>1307.522</ele>
        <time>2018-09-13T09:21:25Z</time>
      </trkpt>
      <trkpt lat="46.24542" lon="10.40296">
        <ele>1307.198</ele>
        <time>2018-09-13T09:21:45Z</time>
      </trkpt>
      <trkpt lat="46.24544" lon="10.40283">
        <ele>1306.215</ele>
        <time>2018-09-13T09:22:05Z</time>
      </trkpt>
      <trkpt lat="46.24544" lon="10.40279">
        <ele>1305.926</ele>
        <time>2018-09-13T09:22:25Z</time>
      </trkpt>
      <trkpt lat="46.24546" lon="10.40272">
        <ele>1306.008</ele>
        <time>2018-09-13T09:22:45Z</time>
      </trkpt>
      <trkpt lat="46.2455" lon="10.40251">
        <ele>1304.211</ele>
        <time>2018-09-13T09:23:05Z</time>
      </trkpt>
      <trkpt lat="46.24554" lon="10.4024">
        <ele>1304.017</ele>
        <time>2018-09-13T09:23:25Z</time>
      </trkpt>
      <trkpt lat="46.24558" lon="10.4023">
        <ele>1304.464</ele>
        <time>2018-09-13T09:23:45Z</time>
      </trkpt>
      <trkpt lat="46.24563" lon="10.40219">
        <ele>1307.267</ele>
        <time>2018-09-13T09:24:05Z</time>
      </trkpt>
      <trkpt lat="46.24565" lon="10.40209">
        <ele>1308.86</ele>
        <time>2018-09-13T09:24:25Z</time>
      </trkpt>
      <trkpt lat="46.24567" lon="10.40204">
        <ele>1310.053</ele>
        <time>2018-09-13T09:24:45Z</time>
      </trkpt>
      <trkpt lat="46.24575" lon="10.40175">
        <ele>1312.051</ele>
        <time>2018-09-13T09:25:05Z</time>
      </trkpt>
      <trkpt lat="46.24577" lon="10.40168">
        <ele>1312.028</ele>
        <time>2018-09-13T09:25:25Z</time>
      </trkpt>
      <trkpt lat="46.24586" lon="10.40136">
        <ele>1313.647</ele>
        <time>2018-09-13T09:25:45Z</time>
      </trkpt>
      <trkpt lat="46.24589" lon="10.40127">
        <ele>1314.629</ele>
        <time>2018-09-13T09:26:05Z</time>
      </trkpt>
      <trkpt lat="46.24609" lon="10.40067">
        <ele>1316.421</ele>
        <time>2018-09-13T09:26:25Z</time>
      </trkpt>
      <trkpt lat="46.24613" lon="10.40054">
        <ele>1315.908</ele>
        <time>2018-09-13T09:26:45Z</time>
      </trkpt>
      <trkpt lat="46.24619" lon="10.40043">
        <ele>1316.976</ele>
        <time>2018-09-13T09:27:05Z</time>
      </trkpt>
      <trkpt lat="46.24621" lon="10.40039">
        <ele>1317.092</ele>
        <time>2018-09-13T09:27:25Z</time>
      </trkpt>
      <trkpt lat="46.24628" lon="10.4003">
        <ele>1318.919</ele>
        <time>2018-09-13T09:27:45Z</time>
      </trkpt>
      <trkpt lat="46.24634" lon="10.40011">
        <ele>1316.022</ele>
        <time>2018-09-13T09:28:05Z</time>
      </trkpt>
      <trkpt lat="46.24635" lon="10.40009">
        <ele>1315.785</ele>
        <time>2018-09-13T09:28:25Z</time>
      </trkpt>
      <trkpt lat="46.24643" lon="10.39995">
        <ele>1314.468</ele>
        <time>2018-09-13T09:28:45Z</time>
      </trkpt>
      <trkpt lat="46.24645" lon="10.39992">
        <ele>1314.066</ele>
        <time>2018-09-13T09:29:05Z</time>
      </trkpt>
      <trkpt lat="46.24646" lon="10.39989">
        <ele>1313.793</ele>
        <time>2018-09-13T09:29:25Z</time>
      </trkpt>
      <trkpt lat="46.24656" lon="10.39974">
        <ele>1312.228</ele>
        <time>2018-09-13T09:29:45Z</time>
      </trkpt>
      <trkpt lat="46.24658" lon="10.39971">
        <ele>1312.089</ele>
        <time>2018-09-13T09:30:05Z</time>
      </trkpt>
      <trkpt lat="46.24662" lon="10.39964">
        <ele>1311.217</ele>
        <time>2018-09-13T09:30:25Z</time>
      </trkpt>
      <trkpt lat="46.2467" lon="10.39954">
        <ele>1310.708</ele>
        <time>2018-09-13T09:30:45Z</time>
      </trkpt>
      <trkpt lat="46.24674" lon="10.39946">
        <ele>1309.634</ele>
        <time>2018-09-13T09:31:05Z</time>
      </trkpt>
      <trkpt lat="46.24684" lon="10.39933">
        <ele>1311.81</ele>
        <time>2018-09-13T09:31:25Z</time>
      </trkpt>
      <trkpt lat="46.24701" lon="10.39913">
        <ele>1316.337</ele>
        <time>2018-09-13T09:31:45Z</time>
      </trkpt>
      <trkpt lat="46.24709" lon="10.39901">
        <ele>1318.83</ele>
        <time>2018-09-13T09:32:05Z</time>
      </trkpt>
      <trkpt lat="46.24714" lon="10.39893">
        <ele>1320.313</ele>
        <time>2018-09-13T09:32:25Z</time>
      </trkpt>
      <trkpt lat="46.24723" lon="10.39882">
        <ele>1322.896</ele>
        <time>2018-09-13T09:32:45Z</time>
      </trkpt>
      <trkpt lat="46.24726" lon="10.39877">
        <ele>1322.214</ele>
        <time>2018-09-13T09:33:05Z</time>
      </trkpt>
      <trkpt lat="46.24732" lon="10.39868">
        <ele>1321.021</ele>
        <time>2018-09-13T09:33:25Z</time>
      </trkpt>
      <trkpt lat="46.24733" lon="10.39867">
        <ele>1320.887</ele>
        <time>2018-09-13T09:33:45Z</time>
      </trkpt>
      <trkpt lat="46.24747" lon="10.39849">
        <ele>1319.542</ele>
        <time>2018-09-13T09:34:05Z</time>
      </trkpt>
      <trkpt lat="46.24754" lon="10.39837">
        <ele>1319.226</ele>
        <time>2018-09-13T09:34:25Z</time>
      </trkpt>
      <trkpt lat="46.24764" lon="10.39829">
        <ele>1319.908</ele>
        <time>2018-09-13T09:34:45Z</time>
      </trkpt>
      <trkpt lat="46.24768" lon="10.39823">
        <ele>1319.41</ele>
        <time>2018-09-13T09:35:05Z</time>
      </trkpt>
      <trkpt lat="46.24777" lon="10.39814">
        <ele>1319.966</ele>
        <time>2018-09-13T09:35:25Z</time>
      </trkpt>
      <trkpt lat="46.24785" lon="10.39807">
        <ele>1321.553</ele>
        <time>2018-09-13T09:35:45Z</time>
      </trkpt>
      <trkpt lat="46.24791" lon="10.39801">
        <ele>1323.196</ele>
        <time>2018-09-13T09:36:05Z</time>
      </trkpt>
      <trkpt lat="46.24799" lon="10.39792">
        <ele>1324.649</ele>
        <time>2018-09-13T09:36:25Z</time>
      </trkpt>
      <trkpt lat="46.24806" lon="10.39782">
        <ele>1325.042</ele>
        <time>2018-09-13T09:36:45Z</time>
      </trkpt>
      <trkpt lat="46.24816" lon="10.39763">
        <ele>1321.83</ele>
        <time>2018-09-13T09:37:05Z</time>
      </trkpt>
      <trkpt lat="46.24817" lon="10.39762">
        <ele>1321.677</ele>
        <time>2018-09-13T09:37:25Z</time>
      </trkpt>
      <trkpt lat="46.24822" lon="10.39752">
        <ele>1319.876</ele>
        <time>2018-09-13T09:37:45Z</time>
      </trkpt>
      <trkpt lat="46.24823" lon="10.39751">
        <ele>1319.99</ele>
        <time>2018-09-13T09:38:05Z</time>
      </trkpt>
      <trkpt lat="46.24843" lon="10.39736">
        <ele>1321.919</ele>
        <time>2018-09-13T09:38:25Z</time>
      </trkpt>
      <trkpt lat="46.24862" lon="10.39734">
        <ele>1325.508</ele>
        <time>2018-09-13T09:38:45Z</time>
      </trkpt>
      <trkpt lat="46.24872" lon="10.39733">
        <ele>1329.079</ele>
        <time>2018-09-13T09:39:05Z</time>
      </trkpt>
      <trkpt lat="46.24878" lon="10.39729">
        <ele>1330.045</ele>
        <time>2018-09-13T09:39:25Z</time>
      </trkpt>
      <trkpt lat="46.24887" lon="10.39727">
        <ele>1332.462</ele>
        <time>2018-09-13T09:39:45Z</time>
      </trkpt>
      <trkpt lat="46.24891" lon="10.39725">
        <ele>1333.895</ele>
        <time>2018-09-13T09:40:05Z</time>
      </trkpt>
      <trkpt lat="46.24896" lon="10.39723">
        <ele>1335.888</ele>
        <time>2018-09-13T09:40:25Z</time>
      </trkpt>
      <trkpt lat="46.249" lon="10.3972">
        <ele>1337.141</ele>
        <time>2018-09-13T09:40:45Z</time>
      </trkpt>
      <trkpt lat="46.24906" lon="10.39716">
        <ele>1338.639</ele>
        <time>2018-09-13T09:41:05Z</time>
      </trkpt>
      <trkpt lat="46.24913" lon="10.39711">
        <ele>1339.686</ele>
        <time>2018-09-13T09:41:25Z</time>
      </trkpt>
      <trkpt lat="46.24917" lon="10.39706">
        <ele>1338.566</ele>
        <time>2018-09-13T09:41:45Z</time>
      </trkpt>
      <trkpt lat="46.2492" lon="10.39703">
        <ele>1337.729</ele>
        <time>2018-09-13T09:42:05Z</time>
      </trkpt>
      <trkpt lat="46.24925" lon="10.39693">
        <ele>1334.921</ele>
        <time>2018-09-13T09:42:25Z</time>
      </trkpt>
      <trkpt lat="46.24929" lon="10.39683">
        <ele>1331.108</ele>
        <time>2018-09-13T09:42:45Z</time>
      </trkpt>
      <trkpt lat="46.24933" lon="10.39674">
        <ele>1326.888</ele>
        <time>2018-09-13T09:43:05Z</time>
      </trkpt>
      <trkpt lat="46.24938" lon="10.39667">
        <ele>1323.954</ele>
        <time>2018-09-13T09:43:25Z</time>
      </trkpt>
      <trkpt lat="46.24946" lon="10.39667">
        <ele>1326.521</ele>
        <time>2018-09-13T09:43:45Z</time>
      </trkpt>
      <trkpt lat="46.24954" lon="10.39664">
        <ele>1329.474</ele>
        <time>2018-09-13T09:44:05Z</time>
      </trkpt>
      <trkpt lat="46.2497" lon="10.39658">
        <ele>1334.827</ele>
        <time>2018-09-13T09:44:25Z</time>
      </trkpt>
      <trkpt lat="46.24972" lon="10.39656">
        <ele>1334.84</ele>
        <time>2018-09-13T09:44:45Z</time>
      </trkpt>
      <trkpt lat="46.24977" lon="10.39654">
        <ele>1336.028</ele>
        <time>2018-09-13T09:45:05Z</time>
      </trkpt>
      <trkpt lat="46.24981" lon="10.3965">
        <ele>1335.635</ele>
        <time>2018-09-13T09:45:25Z</time>
      </trkpt>
      <trkpt lat="46.24986" lon="10.39646">
        <ele>1336.655</ele>
        <time>2018-09-13T09:45:45Z</time>
      </trkpt>
      <trkpt lat="46.24996" lon="10.39637">
        <ele>1337.507</ele>
        <time>2018-09-13T09:46:05Z</time>
      </trkpt>
      <trkpt lat="46.25005" lon="10.39631">
        <ele>1338.417</ele>
        <time>2018-09-13T09:46:25Z</time>
      </trkpt>
      <trkpt lat="46.25012" lon="10.39626">
        <ele>1339.308</ele>
        <time>2018-09-13T09:46:45Z</time>
      </trkpt>
      <trkpt lat="46.25018" lon="10.39621">
        <ele>1341.037</ele>
        <time>2018-09-13T09:47:05Z</time>
      </trkpt>
      <trkpt lat="46.25025" lon="10.39619">
        <ele>1344.593</ele>
        <time>2018-09-13T09:47:25Z</time>
      </trkpt>
      <trkpt lat="46.25038" lon="10.39616">
        <ele>1346.76</ele>
        <time>2018-09-13T09:47:45Z</time>
      </trkpt>
      <trkpt lat="46.25047" lon="10.39612">
        <ele>1346.693</ele>
        <time>2018-09-13T09:48:05Z</time>
      </trkpt>
      <trkpt lat="46.25055" lon="10.39611">
        <ele>1347.076</ele>
        <time>2018-09-13T09:48:25Z</time>
      </trkpt>
      <trkpt lat="46.25061" lon="10.39611">
        <ele>1349.729</ele>
        <time>2018-09-13T09:48:45Z</time>
      </trkpt>
      <trkpt lat="46.25072" lon="10.39609">
        <ele>1355.547</ele>
        <time>2018-09-13T09:49:05Z</time>
      </trkpt>
      <trkpt lat="46.25087" lon="10.39613">
        <ele>1363.264</ele>
        <time>2018-09-13T09:49:25Z</time>
      </trkpt>
      <trkpt lat="46.25093" lon="10.39614">
        <ele>1364.585</ele>
        <time>2018-09-13T09:49:45Z</time>
      </trkpt>
      <trkpt lat="46.25099" lon="10.39606">
        <ele>1364.689</ele>
        <time>2018-09-13T09:50:05Z</time>
      </trkpt>
      <trkpt lat="46.25098" lon="10.3959">
        <ele>1361.717</ele>
        <time>2018-09-13T09:50:25Z</time>
      </trkpt>
      <trkpt lat="46.25095" lon="10.39583">
        <ele>1359.708</ele>
        <time>2018-09-13T09:50:45Z</time>
      </trkpt>
      <trkpt lat="46.25089" lon="10.39569">
        <ele>1355.21</ele>
        <time>2018-09-13T09:51:05Z</time>
      </trkpt>
      <trkpt lat="46.25086" lon="10.39547">
        <ele>1351.526</ele>
        <time>2018-09-13T09:51:25Z</time>
      </trkpt>
      <trkpt lat="46.25085" lon="10.3954">
        <ele>1350.693</ele>
        <time>2018-09-13T09:51:45Z</time>
      </trkpt>
      <trkpt lat="46.25087" lon="10.3953">
        <ele>1349.966</ele>
        <time>2018-09-13T09:52:05Z</time>
      </trkpt>
      <trkpt lat="46.25093" lon="10.39515">
        <ele>1348.199</ele>
        <time>2018-09-13T09:52:25Z</time>
      </trkpt>
      <trkpt lat="46.25098" lon="10.39504">
        <ele>1347.452</ele>
        <time>2018-09-13T09:52:45Z</time>
      </trkpt>
      <trkpt lat="46.25105" lon="10.39494">
        <ele>1347.46</ele>
        <time>2018-09-13T09:53:05Z</time>
      </trkpt>
      <trkpt lat="46.2512" lon="10.39475">
        <ele>1348.657</ele>
        <time>2018-09-13T09:53:25Z</time>
      </trkpt>
      <trkpt lat="46.25123" lon="10.3947">
        <ele>1348.773</ele>
        <time>2018-09-13T09:53:45Z</time>
      </trkpt>
      <trkpt lat="46.25134" lon="10.39459">
        <ele>1349.685</ele>
        <time>2018-09-13T09:54:05Z</time>
      </trkpt>
      <trkpt lat="46.25146" lon="10.39451">
        <ele>1351.813</ele>
        <time>2018-09-13T09:54:25Z</time>
      </trkpt>
      <trkpt lat="46.25166" lon="10.39424">
        <ele>1351.808</ele>
        <time>2018-09-13T09:54:45Z</time>
      </trkpt>
      <trkpt lat="46.25177" lon="10.39417">
        <ele>1352.319</ele>
        <time>2018-09-13T09:55:05Z</time>
      </trkpt>
      <trkpt lat="46.25202" lon="10.39401">
        <ele>1354.535</ele>
        <time>2018-09-13T09:55:25Z</time>
      </trkpt>
      <trkpt lat="46.25248" lon="10.39371">
        <ele>1357.842</ele>
        <time>2018-09-13T09:55:45Z</time>
      </trkpt>
      <trkpt lat="46.25261" lon="10.39364">
        <ele>1359.435</ele>
        <time>2018-09-13T09:56:05Z</time>
      </trkpt>
      <trkpt lat="46.25269" lon="10.39358">
        <ele>1360.178</ele>
        <time>2018-09-13T09:56:25Z</time>
      </trkpt>
      <trkpt lat="46.25277" lon="10.39354">
        <ele>1361.151</ele>
        <time>2018-09-13T09:56:45Z</time>
      </trkpt>
      <trkpt lat="46.25288" lon="10.39348">
        <ele>1362.069</ele>
        <time>2018-09-13T09:57:05Z</time>
      </trkpt>
      <trkpt lat="46.25296" lon="10.3934">
        <ele>1361.746</ele>
        <time>2018-09-13T09:57:25Z</time>
      </trkpt>
      <trkpt lat="46.25306" lon="10.39329">
        <ele>1361.286</ele>
        <time>2018-09-13T09:57:45Z</time>
      </trkpt>
      <trkpt lat="46.25308" lon="10.39327">
        <ele>1361.06</ele>
        <time>2018-09-13T09:58:05Z</time>
      </trkpt>
      <trkpt lat="46.25323" lon="10.39338">
        <ele>1365.526</ele>
        <time>2018-09-13T09:58:25Z</time>
      </trkpt>
      <trkpt lat="46.25325" lon="10.3934">
        <ele>1366.108</ele>
        <time>2018-09-13T09:58:45Z</time>
      </trkpt>
      <trkpt lat="46.25326" lon="10.3934">
        <ele>1366.25</ele>
        <time>2018-09-13T09:59:05Z</time>
      </trkpt>
      <trkpt lat="46.25334" lon="10.39344">
        <ele>1368.326</ele>
        <time>2018-09-13T09:59:25Z</time>
      </trkpt>
      <trkpt lat="46.25338" lon="10.39345">
        <ele>1369.513</ele>
        <time>2018-09-13T09:59:45Z</time>
      </trkpt>
      <trkpt lat="46.25358" lon="10.39346">
        <ele>1374.586</ele>
        <time>2018-09-13T10:00:05Z</time>
      </trkpt>
      <trkpt lat="46.25365" lon="10.39347">
        <ele>1376.829</ele>
        <time>2018-09-13T10:00:25Z</time>
      </trkpt>
      <trkpt lat="46.25375" lon="10.39345">
        <ele>1379.862</ele>
        <time>2018-09-13T10:00:45Z</time>
      </trkpt>
      <trkpt lat="46.25377" lon="10.39345">
        <ele>1380.26</ele>
        <time>2018-09-13T10:01:05Z</time>
      </trkpt>
      <trkpt lat="46.25391" lon="10.39341">
        <ele>1383.417</ele>
        <time>2018-09-13T10:01:25Z</time>
      </trkpt>
      <trkpt lat="46.25397" lon="10.39339">
        <ele>1383.651</ele>
        <time>2018-09-13T10:01:45Z</time>
      </trkpt>
      <trkpt lat="46.25417" lon="10.39325">
        <ele>1382.901</ele>
        <time>2018-09-13T10:02:05Z</time>
      </trkpt>
      <trkpt lat="46.25418" lon="10.39324">
        <ele>1382.911</ele>
        <time>2018-09-13T10:02:25Z</time>
      </trkpt>
      <trkpt lat="46.25444" lon="10.39313">
        <ele>1384.008</ele>
        <time>2018-09-13T10:02:45Z</time>
      </trkpt>
      <trkpt lat="46.25446" lon="10.39312">
        <ele>1384.197</ele>
        <time>2018-09-13T10:03:05Z</time>
      </trkpt>
      <trkpt lat="46.25452" lon="10.39312">
        <ele>1385.283</ele>
        <time>2018-09-13T10:03:25Z</time>
      </trkpt>
      <trkpt lat="46.2546" lon="10.39309">
        <ele>1385.73</ele>
        <time>2018-09-13T10:03:45Z</time>
      </trkpt>
      <trkpt lat="46.25469" lon="10.39303">
        <ele>1385.733</ele>
        <time>2018-09-13T10:04:05Z</time>
      </trkpt>
      <trkpt lat="46.25475" lon="10.39299">
        <ele>1385.476</ele>
        <time>2018-09-13T10:04:25Z</time>
      </trkpt>
      <trkpt lat="46.25478" lon="10.39298">
        <ele>1385.739</ele>
        <time>2018-09-13T10:04:45Z</time>
      </trkpt>
      <trkpt lat="46.25493" lon="10.39294">
        <ele>1387.247</ele>
        <time>2018-09-13T10:05:05Z</time>
      </trkpt>
      <trkpt lat="46.25503" lon="10.39292">
        <ele>1388.524</ele>
        <time>2018-09-13T10:05:25Z</time>
      </trkpt>
      <trkpt lat="46.2552" lon="10.3929">
        <ele>1390.053</ele>
        <time>2018-09-13T10:05:45Z</time>
      </trkpt>
      <trkpt lat="46.25523" lon="10.3929">
        <ele>1390.304</ele>
        <time>2018-09-13T10:06:05Z</time>
      </trkpt>
      <trkpt lat="46.25529" lon="10.39289">
        <ele>1390.814</ele>
        <time>2018-09-13T10:06:25Z</time>
      </trkpt>
      <trkpt lat="46.25532" lon="10.39289">
        <ele>1390.908</ele>
        <time>2018-09-13T10:06:45Z</time>
      </trkpt>
      <trkpt lat="46.2554" lon="10.39285">
        <ele>1390.737</ele>
        <time>2018-09-13T10:07:05Z</time>
      </trkpt>
      <trkpt lat="46.25597" lon="10.39266">
        <ele>1396.933</ele>
        <time>2018-09-13T10:07:25Z</time>
      </trkpt>
      <trkpt lat="46.25601" lon="10.39266">
        <ele>1398.11</ele>
        <time>2018-09-13T10:07:45Z</time>
      </trkpt>
      <trkpt lat="46.25618" lon="10.39266">
        <ele>1401.933</ele>
        <time>2018-09-13T10:08:05Z</time>
      </trkpt>
      <trkpt lat="46.2562" lon="10.39266">
        <ele>1402.266</ele>
        <time>2018-09-13T10:08:25Z</time>
      </trkpt>
      <trkpt lat="46.25631" lon="10.39266">
        <ele>1403.689</ele>
        <time>2018-09-13T10:08:45Z</time>
      </trkpt>
      <trkpt lat="46.25639" lon="10.39266">
        <ele>1404.587</ele>
        <time>2018-09-13T10:09:05Z</time>
      </trkpt>
      <trkpt lat="46.25648" lon="10.39262">
        <ele>1404.424</ele>
        <time>2018-09-13T10:09:25Z</time>
      </trkpt>
      <trkpt lat="46.25656" lon="10.39262">
        <ele>1405.235</ele>
        <time>2018-09-13T10:09:45Z</time>
      </trkpt>
      <trkpt lat="46.25662" lon="10.39259">
        <ele>1404.786</ele>
        <time>2018-09-13T10:10:05Z</time>
      </trkpt>
      <trkpt lat="46.25678" lon="10.39255">
        <ele>1406.414</ele>
        <time>2018-09-13T10:10:25Z</time>
      </trkpt>
      <trkpt lat="46.25681" lon="10.39254">
        <ele>1406.808</ele>
        <time>2018-09-13T10:10:45Z</time>
      </trkpt>
      <trkpt lat="46.25683" lon="10.39253">
        <ele>1406.835</ele>
        <time>2018-09-13T10:11:05Z</time>
      </trkpt>
      <trkpt lat="46.25689" lon="10.3925">
        <ele>1406.821</ele>
        <time>2018-09-13T10:11:25Z</time>
      </trkpt>
      <trkpt lat="46.25707" lon="10.39243">
        <ele>1408.218</ele>
        <time>2018-09-13T10:11:45Z</time>
      </trkpt>
      <trkpt lat="46.25728" lon="10.39238">
        <ele>1410.631</ele>
        <time>2018-09-13T10:12:05Z</time>
      </trkpt>
      <trkpt lat="46.25741" lon="10.39237">
        <ele>1413.384</ele>
        <time>2018-09-13T10:12:25Z</time>
      </trkpt>
      <trkpt lat="46.25753" lon="10.39235">
        <ele>1415.197</ele>
        <time>2018-09-13T10:12:45Z</time>
      </trkpt>
      <trkpt lat="46.25754" lon="10.39235">
        <ele>1415.255</ele>
        <time>2018-09-13T10:13:05Z</time>
      </trkpt>
      <trkpt lat="46.25791" lon="10.39228">
        <ele>1420.782</ele>
        <time>2018-09-13T10:13:25Z</time>
      </trkpt>
      <trkpt lat="46.25803" lon="10.39223">
        <ele>1421.884</ele>
        <time>2018-09-13T10:13:45Z</time>
      </trkpt>
      <trkpt lat="46.25827" lon="10.39219">
        <ele>1426.007</ele>
        <time>2018-09-13T10:14:05Z</time>
      </trkpt>
      <trkpt lat="46.25835" lon="10.39217">
        <ele>1427.417</ele>
        <time>2018-09-13T10:14:25Z</time>
      </trkpt>
      <trkpt lat="46.25841" lon="10.39216">
        <ele>1428.308</ele>
        <time>2018-09-13T10:14:45Z</time>
      </trkpt>
      <trkpt lat="46.25849" lon="10.39213">
        <ele>1429.69</ele>
        <time>2018-09-13T10:15:05Z</time>
      </trkpt>
      <trkpt lat="46.25856" lon="10.39212">
        <ele>1431.336</ele>
        <time>2018-09-13T10:15:25Z</time>
      </trkpt>
      <trkpt lat="46.25865" lon="10.39212">
        <ele>1433.613</ele>
        <time>2018-09-13T10:15:45Z</time>
      </trkpt>
      <trkpt lat="46.25874" lon="10.39212">
        <ele>1435.356</ele>
        <time>2018-09-13T10:16:05Z</time>
      </trkpt>
      <trkpt lat="46.25884" lon="10.39213">
        <ele>1437.449</ele>
        <time>2018-09-13T10:16:25Z</time>
      </trkpt>
      <trkpt lat="46.25892" lon="10.39212">
        <ele>1438.782</ele>
        <time>2018-09-13T10:16:45Z</time>
      </trkpt>
      <trkpt lat="46.25905" lon="10.39212">
        <ele>1440.66</ele>
        <time>2018-09-13T10:17:05Z</time>
      </trkpt>
      <trkpt lat="46.25912" lon="10.39211">
        <ele>1441.257</ele>
        <time>2018-09-13T10:17:25Z</time>
      </trkpt>
      <trkpt lat="46.25921" lon="10.39215">
        <ele>1443.876</ele>
        <time>2018-09-13T10:17:45Z</time>
      </trkpt>
      <trkpt lat="46.25937" lon="10.39218">
        <ele>1448.79</ele>
        <time>2018-09-13T10:18:05Z</time>
      </trkpt>
      <trkpt lat="46.25939" lon="10.39219">
        <ele>1449.519</ele>
        <time>2018-09-13T10:18:25Z</time>
      </trkpt>
      <trkpt lat="46.25945" lon="10.39223">
        <ele>1452.308</ele>
        <time>2018-09-13T10:18:45Z</time>
      </trkpt>
      <trkpt lat="46.25954" lon="10.39223">
        <ele>1453.699</ele>
        <time>2018-09-13T10:19:05Z</time>
      </trkpt>
      <trkpt lat="46.25963" lon="10.39223">
        <ele>1454.915</ele>
        <time>2018-09-13T10:19:25Z</time>
      </trkpt>
      <trkpt lat="46.25972" lon="10.39221">
        <ele>1455.782</ele>
        <time>2018-09-13T10:19:45Z</time>
      </trkpt>
      <trkpt lat="46.2598" lon="10.39221">
        <ele>1456.595</ele>
        <time>2018-09-13T10:20:05Z</time>
      </trkpt>
      <trkpt lat="46.25988" lon="10.39222">
        <ele>1458.048</ele>
        <time>2018-09-13T10:20:25Z</time>
      </trkpt>
      <trkpt lat="46.25995" lon="10.39225">
        <ele>1460.331</ele>
        <time>2018-09-13T10:20:45Z</time>
      </trkpt>
      <trkpt lat="46.26003" lon="10.3923">
        <ele>1463.299</ele>
        <time>2018-09-13T10:21:05Z</time>
      </trkpt>
      <trkpt lat="46.26009" lon="10.3923">
        <ele>1464.016</ele>
        <time>2018-09-13T10:21:25Z</time>
      </trkpt>
      <trkpt lat="46.26014" lon="10.39234">
        <ele>1466.268</ele>
        <time>2018-09-13T10:21:45Z</time>
      </trkpt>
      <trkpt lat="46.26022" lon="10.39239">
        <ele>1469.042</ele>
        <time>2018-09-13T10:22:05Z</time>
      </trkpt>
      <trkpt lat="46.26028" lon="10.39239">
        <ele>1470.126</ele>
        <time>2018-09-13T10:22:25Z</time>
      </trkpt>
      <trkpt lat="46.26031" lon="10.39241">
        <ele>1471.308</ele>
        <time>2018-09-13T10:22:45Z</time>
      </trkpt>
      <trkpt lat="46.26032" lon="10.39243">
        <ele>1472.188</ele>
        <time>2018-09-13T10:23:05Z</time>
      </trkpt>
      <trkpt lat="46.26045" lon="10.39246">
        <ele>1475.764</ele>
        <time>2018-09-13T10:23:25Z</time>
      </trkpt>
      <trkpt lat="46.26049" lon="10.39247">
        <ele>1476.851</ele>
        <time>2018-09-13T10:23:45Z</time>
      </trkpt>
      <trkpt lat="46.26051" lon="10.39248">
        <ele>1477.214</ele>
        <time>2018-09-13T10:24:05Z</time>
      </trkpt>
      <trkpt lat="46.2606" lon="10.39248">
        <ele>1479.197</ele>
        <time>2018-09-13T10:24:25Z</time>
      </trkpt>
      <trkpt lat="46.26069" lon="10.39247">
        <ele>1481.72</ele>
        <time>2018-09-13T10:24:45Z</time>
      </trkpt>
      <trkpt lat="46.26077" lon="10.39247">
        <ele>1483.938</ele>
        <time>2018-09-13T10:25:05Z</time>
      </trkpt>
      <trkpt lat="46.26089" lon="10.3925">
        <ele>1488.135</ele>
        <time>2018-09-13T10:25:25Z</time>
      </trkpt>
      <trkpt lat="46.26096" lon="10.39249">
        <ele>1489.425</ele>
        <time>2018-09-13T10:25:45Z</time>
      </trkpt>
      <trkpt lat="46.26102" lon="10.3925">
        <ele>1491.826</ele>
        <time>2018-09-13T10:26:05Z</time>
      </trkpt>
      <trkpt lat="46.26121" lon="10.39257">
        <ele>1497.708</ele>
        <time>2018-09-13T10:26:25Z</time>
      </trkpt>
      <trkpt lat="46.26125" lon="10.39258">
        <ele>1498.408</ele>
        <time>2018-09-13T10:26:45Z</time>
      </trkpt>
      <trkpt lat="46.26135" lon="10.39259">
        <ele>1499.754</ele>
        <time>2018-09-13T10:27:05Z</time>
      </trkpt>
      <trkpt lat="46.26142" lon="10.39259">
        <ele>1499.86</ele>
        <time>2018-09-13T10:27:25Z</time>
      </trkpt>
      <trkpt lat="46.26144" lon="10.39258">
        <ele>1499.767</ele>
        <time>2018-09-13T10:27:45Z</time>
      </trkpt>
      <trkpt lat="46.26153" lon="10.39259">
        <ele>1500.02</ele>
        <time>2018-09-13T10:28:05Z</time>
      </trkpt>
      <trkpt lat="46.26163" lon="10.3926">
        <ele>1500.893</ele>
        <time>2018-09-13T10:28:25Z</time>
      </trkpt>
      <trkpt lat="46.26171" lon="10.3926">
        <ele>1501.256</ele>
        <time>2018-09-13T10:28:45Z</time>
      </trkpt>
      <trkpt lat="46.2618" lon="10.39264">
        <ele>1503.154</ele>
        <time>2018-09-13T10:29:05Z</time>
      </trkpt>
      <trkpt lat="46.26194" lon="10.39272">
        <ele>1506.541</ele>
        <time>2018-09-13T10:29:25Z</time>
      </trkpt>
      <trkpt lat="46.262" lon="10.39279">
        <ele>1511.047</ele>
        <time>2018-09-13T10:29:45Z</time>
      </trkpt>
      <trkpt lat="46.26206" lon="10.39285">
        <ele>1514.529</ele>
        <time>2018-09-13T10:30:05Z</time>
      </trkpt>
      <trkpt lat="46.26215" lon="10.39293">
        <ele>1519.221</ele>
        <time>2018-09-13T10:30:25Z</time>
      </trkpt>
      <trkpt lat="46.26226" lon="10.39296">
        <ele>1523.208</ele>
        <time>2018-09-13T10:30:45Z</time>
      </trkpt>
      <trkpt lat="46.26235" lon="10.39302">
        <ele>1527.716</ele>
        <time>2018-09-13T10:31:05Z</time>
      </trkpt>
      <trkpt lat="46.26245" lon="10.39304">
        <ele>1531.422</ele>
        <time>2018-09-13T10:31:25Z</time>
      </trkpt>
      <trkpt lat="46.26255" lon="10.39305">
        <ele>1535.149</ele>
        <time>2018-09-13T10:31:45Z</time>
      </trkpt>
      <trkpt lat="46.26258" lon="10.39305">
        <ele>1537.182</ele>
        <time>2018-09-13T10:32:05Z</time>
      </trkpt>
      <trkpt lat="46.26265" lon="10.39307">
        <ele>1540.875</ele>
        <time>2018-09-13T10:32:25Z</time>
      </trkpt>
      <trkpt lat="46.26269" lon="10.39307">
        <ele>1542.978</ele>
        <time>2018-09-13T10:32:45Z</time>
      </trkpt>
      <trkpt lat="46.26263" lon="10.3932">
        <ele>1542.726</ele>
        <time>2018-09-13T10:33:05Z</time>
      </trkpt>
      <trkpt lat="46.26255" lon="10.39335">
        <ele>1541.973</ele>
        <time>2018-09-13T10:33:25Z</time>
      </trkpt>
      <trkpt lat="46.26251" lon="10.39343">
        <ele>1541.385</ele>
        <time>2018-09-13T10:33:45Z</time>
      </trkpt>
      <trkpt lat="46.26226" lon="10.3936">
        <ele>1539.389</ele>
        <time>2018-09-13T10:34:05Z</time>
      </trkpt>
      <trkpt lat="46.26206" lon="10.3936">
        <ele>1539.217</ele>
        <time>2018-09-13T10:34:25Z</time>
      </trkpt>
      <trkpt lat="46.2618" lon="10.39368">
        <ele>1543.508</ele>
        <time>2018-09-13T10:34:45Z</time>
      </trkpt>
      <trkpt lat="46.26164" lon="10.39375">
        <ele>1546.63</ele>
        <time>2018-09-13T10:35:05Z</time>
      </trkpt>
      <trkpt lat="46.26159" lon="10.39377">
        <ele>1547.056</ele>
        <time>2018-09-13T10:35:25Z</time>
      </trkpt>
      <trkpt lat="46.26158" lon="10.39377">
        <ele>1547.173</ele>
        <time>2018-09-13T10:35:45Z</time>
      </trkpt>
      <trkpt lat="46.26148" lon="10.39383">
        <ele>1548.146</ele>
        <time>2018-09-13T10:36:05Z</time>
      </trkpt>
      <trkpt lat="46.26133" lon="10.39394">
        <ele>1550.579</ele>
        <time>2018-09-13T10:36:25Z</time>
      </trkpt>
      <trkpt lat="46.26124" lon="10.394">
        <ele>1552.552</ele>
        <time>2018-09-13T10:36:45Z</time>
      </trkpt>
      <trkpt lat="46.26103" lon="10.39413">
        <ele>1555.74</ele>
        <time>2018-09-13T10:37:05Z</time>
      </trkpt>
      <trkpt lat="46.2609" lon="10.39429">
        <ele>1562.417</ele>
        <time>2018-09-13T10:37:25Z</time>
      </trkpt>
      <trkpt lat="46.26082" lon="10.39434">
        <ele>1564.583</ele>
        <time>2018-09-13T10:37:45Z</time>
      </trkpt>
      <trkpt lat="46.26057" lon="10.39441">
        <ele>1564.725</ele>
        <time>2018-09-13T10:38:05Z</time>
      </trkpt>
      <trkpt lat="46.26019" lon="10.39451">
        <ele>1565.317</ele>
        <time>2018-09-13T10:38:25Z</time>
      </trkpt>
      <trkpt lat="46.25996" lon="10.39458">
        <ele>1569.108</ele>
        <time>2018-09-13T10:38:45Z</time>
      </trkpt>
      <trkpt lat="46.25988" lon="10.39469">
        <ele>1575.36</ele>
        <time>2018-09-13T10:39:05Z</time>
      </trkpt>
      <trkpt lat="46.25977" lon="10.39484">
        <ele>1582.776</ele>
        <time>2018-09-13T10:39:25Z</time>
      </trkpt>
      <trkpt lat="46.25953" lon="10.39496">
        <ele>1587.083</ele>
        <time>2018-09-13T10:39:45Z</time>
      </trkpt>
      <trkpt lat="46.25948" lon="10.39501">
        <ele>1588.916</ele>
        <time>2018-09-13T10:40:05Z</time>
      </trkpt>
      <trkpt lat="46.25941" lon="10.39504">
        <ele>1589.849</ele>
        <time>2018-09-13T10:40:25Z</time>
      </trkpt>
      <trkpt lat="46.25923" lon="10.39505">
        <ele>1588.882</ele>
        <time>2018-09-13T10:40:45Z</time>
      </trkpt>
      <trkpt lat="46.25918" lon="10.39506">
        <ele>1589.25</ele>
        <time>2018-09-13T10:41:05Z</time>
      </trkpt>
      <trkpt lat="46.25908" lon="10.39516">
        <ele>1595.477</ele>
        <time>2018-09-13T10:41:25Z</time>
      </trkpt>
      <trkpt lat="46.25899" lon="10.39523">
        <ele>1602.063</ele>
        <time>2018-09-13T10:41:45Z</time>
      </trkpt>
      <trkpt lat="46.25885" lon="10.39535">
        <ele>1610.644</ele>
        <time>2018-09-13T10:42:05Z</time>
      </trkpt>
      <trkpt lat="46.25876" lon="10.39545">
        <ele>1613.718</ele>
        <time>2018-09-13T10:42:25Z</time>
      </trkpt>
      <trkpt lat="46.25868" lon="10.39553">
        <ele>1614.808</ele>
        <time>2018-09-13T10:42:45Z</time>
      </trkpt>
      <trkpt lat="46.25858" lon="10.39566">
        <ele>1617.278</ele>
        <time>2018-09-13T10:43:05Z</time>
      </trkpt>
      <trkpt lat="46.25848" lon="10.39578">
        <ele>1619.424</ele>
        <time>2018-09-13T10:43:25Z</time>
      </trkpt>
      <trkpt lat="46.25837" lon="10.39589">
        <ele>1619.841</ele>
        <time>2018-09-13T10:43:45Z</time>
      </trkpt>
      <trkpt lat="46.25822" lon="10.39607">
        <ele>1621.644</ele>
        <time>2018-09-13T10:44:05Z</time>
      </trkpt>
      <trkpt lat="46.25812" lon="10.39622">
        <ele>1626.617</ele>
        <time>2018-09-13T10:44:25Z</time>
      </trkpt>
      <trkpt lat="46.25809" lon="10.39625">
        <ele>1628.01</ele>
        <time>2018-09-13T10:44:45Z</time>
      </trkpt>
      <trkpt lat="46.25803" lon="10.39635">
        <ele>1631.468</ele>
        <time>2018-09-13T10:45:05Z</time>
      </trkpt>
      <trkpt lat="46.25796" lon="10.39644">
        <ele>1633.515</ele>
        <time>2018-09-13T10:45:25Z</time>
      </trkpt>
      <trkpt lat="46.25787" lon="10.39653">
        <ele>1634.397</ele>
        <time>2018-09-13T10:45:45Z</time>
      </trkpt>
      <trkpt lat="46.25787" lon="10.39653">
        <ele>1634.323</ele>
        <time>2018-09-13T10:46:05Z</time>
      </trkpt>
      <trkpt lat="46.25786" lon="10.39654">
        <ele>1634.325</ele>
        <time>2018-09-13T10:46:25Z</time>
      </trkpt>
      <trkpt lat="46.25784" lon="10.39655">
        <ele>1634.208</ele>
        <time>2018-09-13T10:46:45Z</time>
      </trkpt>
      <trkpt lat="46.25782" lon="10.39656">
        <ele>1633.761</ele>
        <time>2018-09-13T10:47:05Z</time>
      </trkpt>
      <trkpt lat="46.2578" lon="10.39658">
        <ele>1633.827</ele>
        <time>2018-09-13T10:47:25Z</time>
      </trkpt>
      <trkpt lat="46.25781" lon="10.3966">
        <ele>1634.964</ele>
        <time>2018-09-13T10:47:45Z</time>
      </trkpt>
      <trkpt lat="46.25782" lon="10.39661">
        <ele>1635.427</ele>
        <time>2018-09-13T10:48:05Z</time>
      </trkpt>
      <trkpt lat="46.25783" lon="10.39662">
        <ele>1636.17</ele>
        <time>2018-09-13T10:48:25Z</time>
      </trkpt>
      <trkpt lat="46.25785" lon="10.3966">
        <ele>1636.053</ele>
        <time>2018-09-13T10:48:45Z</time>
      </trkpt>
      <trkpt lat="46.25785" lon="10.3966">
        <ele>1636.061</ele>
        <time>2018-09-13T10:49:05Z</time>
      </trkpt>
      <trkpt lat="46.25787" lon="10.39659">
        <ele>1636.738</ele>
        <time>2018-09-13T10:49:25Z</time>
      </trkpt>
      <trkpt lat="46.25788" lon="10.39659">
        <ele>1636.832</ele>
        <time>2018-09-13T10:49:45Z</time>
      </trkpt>
      <trkpt lat="46.25789" lon="10.39659">
        <ele>1637.492</ele>
        <time>2018-09-13T10:50:05Z</time>
      </trkpt>
      <trkpt lat="46.25792" lon="10.3966">
        <ele>1638.311</ele>
        <time>2018-09-13T10:50:25Z</time>
      </trkpt>
      <trkpt lat="46.25794" lon="10.3966">
        <ele>1639.508</ele>
        <time>2018-09-13T10:50:45Z</time>
      </trkpt>
      <trkpt lat="46.25796" lon="10.39659">
        <ele>1639.415</ele>
        <time>2018-09-13T10:51:05Z</time>
      </trkpt>
      <trkpt lat="46.25798" lon="10.39659">
        <ele>1640.361</ele>
        <time>2018-09-13T10:51:25Z</time>
      </trkpt>
      <trkpt lat="46.25801" lon="10.3966">
        <ele>1641.388</ele>
        <time>2018-09-13T10:51:45Z</time>
      </trkpt>
      <trkpt lat="46.25803" lon="10.3966">
        <ele>1642.281</ele>
        <time>2018-09-13T10:52:05Z</time>
      </trkpt>
      <trkpt lat="46.25804" lon="10.39658">
        <ele>1641.974</ele>
        <time>2018-09-13T10:52:25Z</time>
      </trkpt>
      <trkpt lat="46.25807" lon="10.39659">
        <ele>1642.887</ele>
        <time>2018-09-13T10:52:45Z</time>
      </trkpt>
      <trkpt lat="46.25808" lon="10.39658">
        <ele>1643.395</ele>
        <time>2018-09-13T10:53:05Z</time>
      </trkpt>
      <trkpt lat="46.25811" lon="10.39659">
        <ele>1644.512</ele>
        <time>2018-09-13T10:53:25Z</time>
      </trkpt>
      <trkpt lat="46.25809" lon="10.39661">
        <ele>1644.849</ele>
        <time>2018-09-13T10:53:45Z</time>
      </trkpt>
      <trkpt lat="46.25808" lon="10.39664">
        <ele>1645.502</ele>
        <time>2018-09-13T10:54:05Z</time>
      </trkpt>
      <trkpt lat="46.25806" lon="10.39664">
        <ele>1645.022</ele>
        <time>2018-09-13T10:54:25Z</time>
      </trkpt>
      <trkpt lat="46.25804" lon="10.39666">
        <ele>1645.108</ele>
        <time>2018-09-13T10:54:45Z</time>
      </trkpt>
      <trkpt lat="46.25803" lon="10.39668">
        <ele>1645.336</ele>
        <time>2018-09-13T10:55:05Z</time>
      </trkpt>
      <trkpt lat="46.25801" lon="10.39669">
        <ele>1645.382</ele>
        <time>2018-09-13T10:55:25Z</time>
      </trkpt>
      <trkpt lat="46.25799" lon="10.39672">
        <ele>1645.429</ele>
        <time>2018-09-13T10:55:45Z</time>
      </trkpt>
      <trkpt lat="46.25797" lon="10.39673">
        <ele>1645.392</ele>
        <time>2018-09-13T10:56:05Z</time>
      </trkpt>
      <trkpt lat="46.25795" lon="10.39674">
        <ele>1645.075</ele>
        <time>2018-09-13T10:56:25Z</time>
      </trkpt>
      <trkpt lat="46.25793" lon="10.39675">
        <ele>1644.578</ele>
        <time>2018-09-13T10:56:45Z</time>
      </trkpt>
      <trkpt lat="46.25792" lon="10.39676">
        <ele>1644.286</ele>
        <time>2018-09-13T10:57:05Z</time>
      </trkpt>
      <trkpt lat="46.2579" lon="10.39677">
        <ele>1644.143</ele>
        <time>2018-09-13T10:57:25Z</time>
      </trkpt>
      <trkpt lat="46.25789" lon="10.39683">
        <ele>1646.069</ele>
        <time>2018-09-13T10:57:45Z</time>
      </trkpt>
      <trkpt lat="46.25787" lon="10.39685">
        <ele>1645.904</ele>
        <time>2018-09-13T10:58:05Z</time>
      </trkpt>
      <trkpt lat="46.25785" lon="10.39687">
        <ele>1646.124</ele>
        <time>2018-09-13T10:58:25Z</time>
      </trkpt>
      <trkpt lat="46.25784" lon="10.3969">
        <ele>1646.708</ele>
        <time>2018-09-13T10:58:45Z</time>
      </trkpt>
      <trkpt lat="46.25783" lon="10.39694">
        <ele>1647.338</ele>
        <time>2018-09-13T10:59:05Z</time>
      </trkpt>
      <trkpt lat="46.25782" lon="10.39697">
        <ele>1648.284</ele>
        <time>2018-09-13T10:59:25Z</time>
      </trkpt>
      <trkpt lat="46.25781" lon="10.39699">
        <ele>1648.921</ele>
        <time>2018-09-13T10:59:45Z</time>
      </trkpt>
      <trkpt lat="46.2578" lon="10.39702">
        <ele>1649.844</ele>
        <time>2018-09-13T11:00:05Z</time>
      </trkpt>
      <trkpt lat="46.25779" lon="10.39705">
        <ele>1650.617</ele>
        <time>2018-09-13T11:00:25Z</time>
      </trkpt>
      <trkpt lat="46.25779" lon="10.39708">
        <ele>1651.81</ele>
        <time>2018-09-13T11:00:45Z</time>
      </trkpt>
      <trkpt lat="46.25779" lon="10.39712">
        <ele>1653.078</ele>
        <time>2018-09-13T11:01:05Z</time>
      </trkpt>
      <trkpt lat="46.25778" lon="10.39715">
        <ele>1654.355</ele>
        <time>2018-09-13T11:01:25Z</time>
      </trkpt>
      <trkpt lat="46.25777" lon="10.39718">
        <ele>1655.072</ele>
        <time>2018-09-13T11:01:45Z</time>
      </trkpt>
      <trkpt lat="46.25777" lon="10.39721">
        <ele>1656.213</ele>
        <time>2018-09-13T11:02:05Z</time>
      </trkpt>
      <trkpt lat="46.25776" lon="10.39724">
        <ele>1657.114</ele>
        <time>2018-09-13T11:02:25Z</time>
      </trkpt>
      <trkpt lat="46.25776" lon="10.39726">
        <ele>1658.108</ele>
        <time>2018-09-13T11:02:45Z</time>
      </trkpt>
      <trkpt lat="46.25776" lon="10.39729">
        <ele>1659.299</ele>
        <time>2018-09-13T11:03:05Z</time>
      </trkpt>
      <trkpt lat="46.25778" lon="10.39731">
        <ele>1660.595</ele>
        <time>2018-09-13T11:03:25Z</time>
      </trkpt>
      <trkpt lat="46.2578" lon="10.39731">
        <ele>1660.952</ele>
        <time>2018-09-13T11:03:45Z</time>
      </trkpt>
      <trkpt lat="46.25781" lon="10.39728">
        <ele>1660.515</ele>
        <time>2018-09-13T11:04:05Z</time>
      </trkpt>
      <trkpt lat="46.25783" lon="10.39727">
        <ele>1660.628</ele>
        <time>2018-09-13T11:04:25Z</time>
      </trkpt>
      <trkpt lat="46.25784" lon="10.39729">
        <ele>1662.011</ele>
        <time>2018-09-13T11:04:45Z</time>
      </trkpt>
      <trkpt lat="46.25783" lon="10.39732">
        <ele>1662.619</ele>
        <time>2018-09-13T11:05:05Z</time>
      </trkpt>
      <trkpt lat="46.25781" lon="10.39734">
        <ele>1663.026</ele>
        <time>2018-09-13T11:05:25Z</time>
      </trkpt>
      <trkpt lat="46.2578" lon="10.39738">
        <ele>1663.863</ele>
        <time>2018-09-13T11:05:45Z</time>
      </trkpt>
      <trkpt lat="46.25779" lon="10.3974">
        <ele>1664.444</ele>
        <time>2018-09-13T11:06:05Z</time>
      </trkpt>
      <trkpt lat="46.25778" lon="10.39742">
        <ele>1664.918</ele>
        <time>2018-09-13T11:06:25Z</time>
      </trkpt>
      <trkpt lat="46.25777" lon="10.39746">
        <ele>1665.908</ele>
        <time>2018-09-13T11:06:45Z</time>
      </trkpt>
      <trkpt lat="46.25775" lon="10.39749">
        <ele>1667.028</ele>
        <time>2018-09-13T11:07:05Z</time>
      </trkpt>
      <trkpt lat="46.25773" lon="10.39751">
        <ele>1667.414</ele>
        <time>2018-09-13T11:07:25Z</time>
      </trkpt>
      <trkpt lat="46.25772" lon="10.39753">
        <ele>1667.711</ele>
        <time>2018-09-13T11:07:45Z</time>
      </trkpt>
      <trkpt lat="46.25772" lon="10.39756">
        <ele>1668.924</ele>
        <time>2018-09-13T11:08:05Z</time>
      </trkpt>
      <trkpt lat="46.2577" lon="10.39758">
        <ele>1669.467</ele>
        <time>2018-09-13T11:08:25Z</time>
      </trkpt>
      <trkpt lat="46.25769" lon="10.3976">
        <ele>1669.63</ele>
        <time>2018-09-13T11:08:45Z</time>
      </trkpt>
      <trkpt lat="46.25767" lon="10.39761">
        <ele>1669.848</ele>
        <time>2018-09-13T11:09:05Z</time>
      </trkpt>
      <trkpt lat="46.25764" lon="10.39763">
        <ele>1669.815</ele>
        <time>2018-09-13T11:09:25Z</time>
      </trkpt>
      <trkpt lat="46.25762" lon="10.39763">
        <ele>1669.636</ele>
        <time>2018-09-13T11:09:45Z</time>
      </trkpt>
      <trkpt lat="46.2576" lon="10.39764">
        <ele>1669.317</ele>
        <time>2018-09-13T11:10:05Z</time>
      </trkpt>
      <trkpt lat="46.25758" lon="10.39765">
        <ele>1669.118</ele>
        <time>2018-09-13T11:10:25Z</time>
      </trkpt>
      <trkpt lat="46.25756" lon="10.39767">
        <ele>1669.408</ele>
        <time>2018-09-13T11:10:45Z</time>
      </trkpt>
      <trkpt lat="46.25755" lon="10.39768">
        <ele>1669.625</ele>
        <time>2018-09-13T11:11:05Z</time>
      </trkpt>
      <trkpt lat="46.25754" lon="10.39771">
        <ele>1670.391</ele>
        <time>2018-09-13T11:11:25Z</time>
      </trkpt>
      <trkpt lat="46.25751" lon="10.39771">
        <ele>1669.838</ele>
        <time>2018-09-13T11:11:45Z</time>
      </trkpt>
      <trkpt lat="46.2575" lon="10.39772">
        <ele>1669.861</ele>
        <time>2018-09-13T11:12:05Z</time>
      </trkpt>
      <trkpt lat="46.25747" lon="10.39775">
        <ele>1670.274</ele>
        <time>2018-09-13T11:12:25Z</time>
      </trkpt>
      <trkpt lat="46.25746" lon="10.39777">
        <ele>1670.427</ele>
        <time>2018-09-13T11:12:45Z</time>
      </trkpt>
      <trkpt lat="46.25745" lon="10.39778">
        <ele>1670.645</ele>
        <time>2018-09-13T11:13:05Z</time>
      </trkpt>
      <trkpt lat="46.25744" lon="10.39779">
        <ele>1670.852</ele>
        <time>2018-09-13T11:13:25Z</time>
      </trkpt>
      <trkpt lat="46.25742" lon="10.39781">
        <ele>1671.342</ele>
        <time>2018-09-13T11:13:45Z</time>
      </trkpt>
      <trkpt lat="46.25743" lon="10.39784">
        <ele>1672.822</ele>
        <time>2018-09-13T11:14:05Z</time>
      </trkpt>
      <trkpt lat="46.25746" lon="10.39783">
        <ele>1673.214</ele>
        <time>2018-09-13T11:14:25Z</time>
      </trkpt>
      <trkpt lat="46.25748" lon="10.39783">
        <ele>1673.908</ele>
        <time>2018-09-13T11:14:45Z</time>
      </trkpt>
      <trkpt lat="46.2575" lon="10.39784">
        <ele>1674.546</ele>
        <time>2018-09-13T11:15:05Z</time>
      </trkpt>
      <trkpt lat="46.25752" lon="10.39784">
        <ele>1675.072</ele>
        <time>2018-09-13T11:15:25Z</time>
      </trkpt>
      <trkpt lat="46.25754" lon="10.39784">
        <ele>1675.359</ele>
        <time>2018-09-13T11:15:45Z</time>
      </trkpt>
      <trkpt lat="46.25757" lon="10.39784">
        <ele>1676.592</ele>
        <time>2018-09-13T11:16:05Z</time>
      </trkpt>
      <trkpt lat="46.25759" lon="10.39785">
        <ele>1677.095</ele>
        <time>2018-09-13T11:16:25Z</time>
      </trkpt>
      <trkpt lat="46.25759" lon="10.39785">
        <ele>1677.388</ele>
        <time>2018-09-13T11:16:45Z</time>
      </trkpt>
      <trkpt lat="46.25761" lon="10.39786">
        <ele>1678.076</ele>
        <time>2018-09-13T11:17:05Z</time>
      </trkpt>
      <trkpt lat="46.25764" lon="10.39786">
        <ele>1678.673</ele>
        <time>2018-09-13T11:17:25Z</time>
      </trkpt>
      <trkpt lat="46.25766" lon="10.39786">
        <ele>1679.188</ele>
        <time>2018-09-13T11:17:45Z</time>
      </trkpt>
      <trkpt lat="46.25769" lon="10.39785">
        <ele>1679.624</ele>
        <time>2018-09-13T11:18:05Z</time>
      </trkpt>
      <trkpt lat="46.25771" lon="10.39785">
        <ele>1679.926</ele>
        <time>2018-09-13T11:18:25Z</time>
      </trkpt>
      <trkpt lat="46.25773" lon="10.39785">
        <ele>1680.308</ele>
        <time>2018-09-13T11:18:45Z</time>
      </trkpt>
      <trkpt lat="46.25775" lon="10.39787">
        <ele>1681.45</ele>
        <time>2018-09-13T11:19:05Z</time>
      </trkpt>
      <trkpt lat="46.25776" lon="10.39789">
        <ele>1682.576</ele>
        <time>2018-09-13T11:19:25Z</time>
      </trkpt>
      <trkpt lat="46.25772" lon="10.39791">
        <ele>1682.223</ele>
        <time>2018-09-13T11:19:45Z</time>
      </trkpt>
      <trkpt lat="46.2577" lon="10.39793">
        <ele>1682.796</ele>
        <time>2018-09-13T11:20:05Z</time>
      </trkpt>
      <trkpt lat="46.25768" lon="10.39795">
        <ele>1682.919</ele>
        <time>2018-09-13T11:20:25Z</time>
      </trkpt>
      <trkpt lat="46.25766" lon="10.39796">
        <ele>1683.152</ele>
        <time>2018-09-13T11:20:45Z</time>
      </trkpt>
      <trkpt lat="46.25764" lon="10.39798">
        <ele>1683.36</ele>
        <time>2018-09-13T11:21:05Z</time>
      </trkpt>
      <trkpt lat="46.25762" lon="10.39799">
        <ele>1683.397</ele>
        <time>2018-09-13T11:21:25Z</time>
      </trkpt>
      <trkpt lat="46.25761" lon="10.398">
        <ele>1683.865</ele>
        <time>2018-09-13T11:21:45Z</time>
      </trkpt>
      <trkpt lat="46.25759" lon="10.398">
        <ele>1683.368</ele>
        <time>2018-09-13T11:22:05Z</time>
      </trkpt>
      <trkpt lat="46.25756" lon="10.39802">
        <ele>1683.314</ele>
        <time>2018-09-13T11:22:25Z</time>
      </trkpt>
      <trkpt lat="46.25754" lon="10.39801">
        <ele>1682.808</ele>
        <time>2018-09-13T11:22:45Z</time>
      </trkpt>
      <trkpt lat="46.25752" lon="10.39802">
        <ele>1682.728</ele>
        <time>2018-09-13T11:23:05Z</time>
      </trkpt>
      <trkpt lat="46.2575" lon="10.39803">
        <ele>1682.684</ele>
        <time>2018-09-13T11:23:25Z</time>
      </trkpt>
      <trkpt lat="46.25748" lon="10.39804">
        <ele>1682.771</ele>
        <time>2018-09-13T11:23:45Z</time>
      </trkpt>
      <trkpt lat="46.25743" lon="10.39805">
        <ele>1682.554</ele>
        <time>2018-09-13T11:24:05Z</time>
      </trkpt>
      <trkpt lat="46.25742" lon="10.39807">
        <ele>1683.567</ele>
        <time>2018-09-13T11:24:25Z</time>
      </trkpt>
      <trkpt lat="46.25741" lon="10.3981">
        <ele>1684.68</ele>
        <time>2018-09-13T11:24:45Z</time>
      </trkpt>
      <trkpt lat="46.25738" lon="10.39811">
        <ele>1684.828</ele>
        <time>2018-09-13T11:25:05Z</time>
      </trkpt>
      <trkpt lat="46.25736" lon="10.39811">
        <ele>1684.445</ele>
        <time>2018-09-13T11:25:25Z</time>
      </trkpt>
      <trkpt lat="46.25734" lon="10.39812">
        <ele>1684.474</ele>
        <time>2018-09-13T11:25:45Z</time>
      </trkpt>
      <trkpt lat="46.25732" lon="10.39812">
        <ele>1684.356</ele>
        <time>2018-09-13T11:26:05Z</time>
      </trkpt>
      <trkpt lat="46.25729" lon="10.39812">
        <ele>1684.021</ele>
        <time>2018-09-13T11:26:25Z</time>
      </trkpt>
      <trkpt lat="46.25731" lon="10.39814">
        <ele>1684.708</ele>
        <time>2018-09-13T11:26:45Z</time>
      </trkpt>
      <trkpt lat="46.25729" lon="10.39816">
        <ele>1685.749</ele>
        <time>2018-09-13T11:27:05Z</time>
      </trkpt>
      <trkpt lat="46.25729" lon="10.3982">
        <ele>1687.235</ele>
        <time>2018-09-13T11:27:25Z</time>
      </trkpt>
      <trkpt lat="46.25728" lon="10.39822">
        <ele>1688.452</ele>
        <time>2018-09-13T11:27:45Z</time>
      </trkpt>
      <trkpt lat="46.25727" lon="10.39825">
        <ele>1689.595</ele>
        <time>2018-09-13T11:28:05Z</time>
      </trkpt>
      <trkpt lat="46.25726" lon="10.39828">
        <ele>1690.848</ele>
        <time>2018-09-13T11:28:25Z</time>
      </trkpt>
      <trkpt lat="46.25725" lon="10.3983">
        <ele>1691.741</ele>
        <time>2018-09-13T11:28:45Z</time>
      </trkpt>
      <trkpt lat="46.25724" lon="10.39833">
        <ele>1692.819</ele>
        <time>2018-09-13T11:29:05Z</time>
      </trkpt>
      <trkpt lat="46.25723" lon="10.39835">
        <ele>1693.856</ele>
        <time>2018-09-13T11:29:25Z</time>
      </trkpt>
      <trkpt lat="46.2572" lon="10.39838">
        <ele>1694.717</ele>
        <time>2018-09-13T11:29:45Z</time>
      </trkpt>
      <trkpt lat="46.25719" lon="10.3984">
        <ele>1695.487</ele>
        <time>2018-09-13T11:30:05Z</time>
      </trkpt>
      <trkpt lat="46.25719" lon="10.39844">
        <ele>1696.715</ele>
        <time>2018-09-13T11:30:25Z</time>
      </trkpt>
      <trkpt lat="46.25718" lon="10.39846">
        <ele>1697.908</ele>
        <time>2018-09-13T11:30:45Z</time>
      </trkpt>
      <trkpt lat="46.25717" lon="10.39849">
        <ele>1699.093</ele>
        <time>2018-09-13T11:31:05Z</time>
      </trkpt>
      <trkpt lat="46.25715" lon="10.3985">
        <ele>1698.929</ele>
        <time>2018-09-13T11:31:25Z</time>
      </trkpt>
      <trkpt lat="46.25713" lon="10.39853">
        <ele>1699.896</ele>
        <time>2018-09-13T11:31:45Z</time>
      </trkpt>
      <trkpt lat="46.25711" lon="10.39855">
        <ele>1700.769</ele>
        <time>2018-09-13T11:32:05Z</time>
      </trkpt>
      <trkpt lat="46.2571" lon="10.39859">
        <ele>1702.182</ele>
        <time>2018-09-13T11:32:25Z</time>
      </trkpt>
      <trkpt lat="46.25708" lon="10.39861">
        <ele>1702.965</ele>
        <time>2018-09-13T11:32:45Z</time>
      </trkpt>
      <trkpt lat="46.25708" lon="10.39864">
        <ele>1704.123</ele>
        <time>2018-09-13T11:33:05Z</time>
      </trkpt>
      <trkpt lat="46.25708" lon="10.39867">
        <ele>1705.24</ele>
        <time>2018-09-13T11:33:25Z</time>
      </trkpt>
      <trkpt lat="46.25708" lon="10.39871">
        <ele>1706.555</ele>
        <time>2018-09-13T11:33:45Z</time>
      </trkpt>
      <trkpt lat="46.25707" lon="10.39873">
        <ele>1707.307</ele>
        <time>2018-09-13T11:34:05Z</time>
      </trkpt>
      <trkpt lat="46.25708" lon="10.39877">
        <ele>1708.917</ele>
        <time>2018-09-13T11:34:25Z</time>
      </trkpt>
      <trkpt lat="46.25708" lon="10.3988">
        <ele>1710.108</ele>
        <time>2018-09-13T11:34:45Z</time>
      </trkpt>
      <trkpt lat="46.2571" lon="10.39882">
        <ele>1711.617</ele>
        <time>2018-09-13T11:35:05Z</time>
      </trkpt>
      <trkpt lat="46.25712" lon="10.39885">
        <ele>1713.213</ele>
        <time>2018-09-13T11:35:25Z</time>
      </trkpt>
      <trkpt lat="46.25713" lon="10.39887">
        <ele>1714.81</ele>
        <time>2018-09-13T11:35:45Z</time>
      </trkpt>
      <trkpt lat="46.25715" lon="10.39889">
        <ele>1716.033</ele>
        <time>2018-09-13T11:36:05Z</time>
      </trkpt>
      <trkpt lat="46.25716" lon="10.39892">
        <ele>1717.036</ele>
        <time>2018-09-13T11:36:25Z</time>
      </trkpt>
      <trkpt lat="46.25716" lon="10.39894">
        <ele>1717.969</ele>
        <time>2018-09-13T11:36:45Z</time>
      </trkpt>
      <trkpt lat="46.25717" lon="10.39897">
        <ele>1719.127</ele>
        <time>2018-09-13T11:37:05Z</time>
      </trkpt>
      <trkpt lat="46.2572" lon="10.399">
        <ele>1720.854</ele>
        <time>2018-09-13T11:37:25Z</time>
      </trkpt>
      <trkpt lat="46.2572" lon="10.39903">
        <ele>1722.163</ele>
        <time>2018-09-13T11:37:45Z</time>
      </trkpt>
      <trkpt lat="46.25721" lon="10.39905">
        <ele>1723.244</ele>
        <time>2018-09-13T11:38:05Z</time>
      </trkpt>
      <trkpt lat="46.25723" lon="10.39908">
        <ele>1724.618</ele>
        <time>2018-09-13T11:38:25Z</time>
      </trkpt>
      <trkpt lat="46.25724" lon="10.39911">
        <ele>1725.708</ele>
        <time>2018-09-13T11:38:45Z</time>
      </trkpt>
      <trkpt lat="46.25725" lon="10.39914">
        <ele>1726.928</ele>
        <time>2018-09-13T11:39:05Z</time>
      </trkpt>
      <trkpt lat="46.25726" lon="10.39917">
        <ele>1727.944</ele>
        <time>2018-09-13T11:39:25Z</time>
      </trkpt>
      <trkpt lat="46.25728" lon="10.39919">
        <ele>1728.551</ele>
        <time>2018-09-13T11:39:45Z</time>
      </trkpt>
      <trkpt lat="46.25728" lon="10.39922">
        <ele>1729.114</ele>
        <time>2018-09-13T11:40:05Z</time>
      </trkpt>
      <trkpt lat="46.25729" lon="10.39925">
        <ele>1729.717</ele>
        <time>2018-09-13T11:40:25Z</time>
      </trkpt>
      <trkpt lat="46.25729" lon="10.39927">
        <ele>1729.89</ele>
        <time>2018-09-13T11:40:45Z</time>
      </trkpt>
      <trkpt lat="46.2573" lon="10.39931">
        <ele>1730.958</ele>
        <time>2018-09-13T11:41:05Z</time>
      </trkpt>
      <trkpt lat="46.25731" lon="10.39934">
        <ele>1731.765</ele>
        <time>2018-09-13T11:41:25Z</time>
      </trkpt>
      <trkpt lat="46.25732" lon="10.39936">
        <ele>1732.885</ele>
        <time>2018-09-13T11:41:45Z</time>
      </trkpt>
      <trkpt lat="46.25733" lon="10.3994">
        <ele>1734.089</ele>
        <time>2018-09-13T11:42:05Z</time>
      </trkpt>
      <trkpt lat="46.25733" lon="10.39942">
        <ele>1734.417</ele>
        <time>2018-09-13T11:42:25Z</time>
      </trkpt>
      <trkpt lat="46.25734" lon="10.39945">
        <ele>1735.508</ele>
        <time>2018-09-13T11:42:45Z</time>
      </trkpt>
      <trkpt lat="46.25736" lon="10.39944">
        <ele>1737.29</ele>
        <time>2018-09-13T11:43:05Z</time>
      </trkpt>
      <trkpt lat="46.25736" lon="10.39941">
        <ele>1736.776</ele>
        <time>2018-09-13T11:43:25Z</time>
      </trkpt>
      <trkpt lat="46.25737" lon="10.39938">
        <ele>1736.533</ele>
        <time>2018-09-13T11:43:45Z</time>
      </trkpt>
      <trkpt lat="46.25739" lon="10.39936">
        <ele>1736.976</ele>
        <time>2018-09-13T11:44:05Z</time>
      </trkpt>
      <trkpt lat="46.2574" lon="10.39933">
        <ele>1736.729</ele>
        <time>2018-09-13T11:44:25Z</time>
      </trkpt>
      <trkpt lat="46.25741" lon="10.3993">
        <ele>1736.192</ele>
        <time>2018-09-13T11:44:45Z</time>
      </trkpt>
      <trkpt lat="46.25742" lon="10.39928">
        <ele>1735.83</ele>
        <time>2018-09-13T11:45:05Z</time>
      </trkpt>
      <trkpt lat="46.25742" lon="10.39923">
        <ele>1734.217</ele>
        <time>2018-09-13T11:45:25Z</time>
      </trkpt>
      <trkpt lat="46.25741" lon="10.3992">
        <ele>1733.024</ele>
        <time>2018-09-13T11:45:45Z</time>
      </trkpt>
      <trkpt lat="46.25742" lon="10.39917">
        <ele>1732.104</ele>
        <time>2018-09-13T11:46:05Z</time>
      </trkpt>
      <trkpt lat="46.25742" lon="10.39914">
        <ele>1731.114</ele>
        <time>2018-09-13T11:46:25Z</time>
      </trkpt>
      <trkpt lat="46.25743" lon="10.39911">
        <ele>1730.408</ele>
        <time>2018-09-13T11:46:45Z</time>
      </trkpt>
      <trkpt lat="46.25744" lon="10.39909">
        <ele>1730.014</ele>
        <time>2018-09-13T11:47:05Z</time>
      </trkpt>
      <trkpt lat="46.25745" lon="10.39905">
        <ele>1729.02</ele>
        <time>2018-09-13T11:47:25Z</time>
      </trkpt>
      <trkpt lat="46.25747" lon="10.39903">
        <ele>1728.747</ele>
        <time>2018-09-13T11:47:45Z</time>
      </trkpt>
      <trkpt lat="46.25748" lon="10.399">
        <ele>1728.14</ele>
        <time>2018-09-13T11:48:05Z</time>
      </trkpt>
      <trkpt lat="46.2575" lon="10.39898">
        <ele>1727.953</ele>
        <time>2018-09-13T11:48:25Z</time>
      </trkpt>
      <trkpt lat="46.25752" lon="10.39897">
        <ele>1728.036</ele>
        <time>2018-09-13T11:48:45Z</time>
      </trkpt>
      <trkpt lat="46.25755" lon="10.39896">
        <ele>1728.134</ele>
        <time>2018-09-13T11:49:05Z</time>
      </trkpt>
      <trkpt lat="46.25756" lon="10.39894">
        <ele>1727.611</ele>
        <time>2018-09-13T11:49:25Z</time>
      </trkpt>
      <trkpt lat="46.25758" lon="10.39893">
        <ele>1727.415</ele>
        <time>2018-09-13T11:49:45Z</time>
      </trkpt>
      <trkpt lat="46.2576" lon="10.39893">
        <ele>1727.765</ele>
        <time>2018-09-13T11:50:05Z</time>
      </trkpt>
      <trkpt lat="46.25762" lon="10.39893">
        <ele>1728.111</ele>
        <time>2018-09-13T11:50:25Z</time>
      </trkpt>
      <trkpt lat="46.25763" lon="10.39896">
        <ele>1729.608</ele>
        <time>2018-09-13T11:50:45Z</time>
      </trkpt>
      <trkpt lat="46.25762" lon="10.39899">
        <ele>1730.613</ele>
        <time>2018-09-13T11:51:05Z</time>
      </trkpt>
      <trkpt lat="46.25761" lon="10.39902">
        <ele>1731.769</ele>
        <time>2018-09-13T11:51:25Z</time>
      </trkpt>
      <trkpt lat="46.25761" lon="10.39905">
        <ele>1733.046</ele>
        <time>2018-09-13T11:51:45Z</time>
      </trkpt>
      <trkpt lat="46.25761" lon="10.39907">
        <ele>1734.169</ele>
        <time>2018-09-13T11:52:05Z</time>
      </trkpt>
      <trkpt lat="46.25761" lon="10.39911">
        <ele>1735.692</ele>
        <time>2018-09-13T11:52:25Z</time>
      </trkpt>
      <trkpt lat="46.25761" lon="10.39914">
        <ele>1737.125</ele>
        <time>2018-09-13T11:52:45Z</time>
      </trkpt>
      <trkpt lat="46.25762" lon="10.39916">
        <ele>1738.463</ele>
        <time>2018-09-13T11:53:05Z</time>
      </trkpt>
      <trkpt lat="46.25761" lon="10.39919">
        <ele>1739.34</ele>
        <time>2018-09-13T11:53:25Z</time>
      </trkpt>
      <trkpt lat="46.2576" lon="10.39922">
        <ele>1740.473</ele>
        <time>2018-09-13T11:53:45Z</time>
      </trkpt>
      <trkpt lat="46.25761" lon="10.39925">
        <ele>1742.185</ele>
        <time>2018-09-13T11:54:05Z</time>
      </trkpt>
      <trkpt lat="46.25762" lon="10.39928">
        <ele>1743.713</ele>
        <time>2018-09-13T11:54:25Z</time>
      </trkpt>
      <trkpt lat="46.25763" lon="10.3993">
        <ele>1745.108</ele>
        <time>2018-09-13T11:54:45Z</time>
      </trkpt>
      <trkpt lat="46.25763" lon="10.39933">
        <ele>1746.669</ele>
        <time>2018-09-13T11:55:05Z</time>
      </trkpt>
      <trkpt lat="46.25762" lon="10.39936">
        <ele>1747.325</ele>
        <time>2018-09-13T11:55:25Z</time>
      </trkpt>
      <trkpt lat="46.25763" lon="10.39938">
        <ele>1749.072</ele>
        <time>2018-09-13T11:55:45Z</time>
      </trkpt>
      <trkpt lat="46.25764" lon="10.39941">
        <ele>1750.495</ele>
        <time>2018-09-13T11:56:05Z</time>
      </trkpt>
      <trkpt lat="46.25765" lon="10.39944">
        <ele>1752.128</ele>
        <time>2018-09-13T11:56:25Z</time>
      </trkpt>
      <trkpt lat="46.25765" lon="10.39947">
        <ele>1752.241</ele>
        <time>2018-09-13T11:56:45Z</time>
      </trkpt>
      <trkpt lat="46.25766" lon="10.3995">
        <ele>1752.539</ele>
        <time>2018-09-13T11:57:05Z</time>
      </trkpt>
      <trkpt lat="46.25768" lon="10.39953">
        <ele>1753.266</ele>
        <time>2018-09-13T11:57:25Z</time>
      </trkpt>
      <trkpt lat="46.2577" lon="10.3995">
        <ele>1753.775</ele>
        <time>2018-09-13T11:57:45Z</time>
      </trkpt>
      <trkpt lat="46.2577" lon="10.39947">
        <ele>1753.628</ele>
        <time>2018-09-13T11:58:05Z</time>
      </trkpt>
      <trkpt lat="46.25771" lon="10.39944">
        <ele>1753.92</ele>
        <time>2018-09-13T11:58:25Z</time>
      </trkpt>
      <trkpt lat="46.25772" lon="10.39941">
        <ele>1752.808</ele>
        <time>2018-09-13T11:58:45Z</time>
      </trkpt>
      <trkpt lat="46.25773" lon="10.39939">
        <ele>1752.129</ele>
        <time>2018-09-13T11:59:05Z</time>
      </trkpt>
      <trkpt lat="46.25774" lon="10.39936">
        <ele>1751.315</ele>
        <time>2018-09-13T11:59:25Z</time>
      </trkpt>
      <trkpt lat="46.25776" lon="10.39934">
        <ele>1750.972</ele>
        <time>2018-09-13T11:59:45Z</time>
      </trkpt>
      <trkpt lat="46.25777" lon="10.39931">
        <ele>1750.535</ele>
        <time>2018-09-13T12:00:05Z</time>
      </trkpt>
      <trkpt lat="46.25777" lon="10.39928">
        <ele>1749.488</ele>
        <time>2018-09-13T12:00:25Z</time>
      </trkpt>
      <trkpt lat="46.25779" lon="10.39926">
        <ele>1748.981</ele>
        <time>2018-09-13T12:00:45Z</time>
      </trkpt>
      <trkpt lat="46.2578" lon="10.39924">
        <ele>1748.479</ele>
        <time>2018-09-13T12:01:05Z</time>
      </trkpt>
      <trkpt lat="46.25782" lon="10.39924">
        <ele>1748.996</ele>
        <time>2018-09-13T12:01:25Z</time>
      </trkpt>
      <trkpt lat="46.25784" lon="10.39922">
        <ele>1748.633</ele>
        <time>2018-09-13T12:01:45Z</time>
      </trkpt>
      <trkpt lat="46.25786" lon="10.3992">
        <ele>1748.323</ele>
        <time>2018-09-13T12:02:05Z</time>
      </trkpt>
      <trkpt lat="46.25787" lon="10.39918">
        <ele>1747.815</ele>
        <time>2018-09-13T12:02:25Z</time>
      </trkpt>
      <trkpt lat="46.25789" lon="10.39917">
        <ele>1747.808</ele>
        <time>2018-09-13T12:02:45Z</time>
      </trkpt>
      <trkpt lat="46.25791" lon="10.39917">
        <ele>1748.625</ele>
        <time>2018-09-13T12:03:05Z</time>
      </trkpt>
      <trkpt lat="46.25794" lon="10.39918">
        <ele>1749.771</ele>
        <time>2018-09-13T12:03:25Z</time>
      </trkpt>
      <trkpt lat="46.25796" lon="10.39919">
        <ele>1750.598</ele>
        <time>2018-09-13T12:03:45Z</time>
      </trkpt>
      <trkpt lat="46.25796" lon="10.39921">
        <ele>1751.791</ele>
        <time>2018-09-13T12:04:05Z</time>
      </trkpt>
      <trkpt lat="46.25796" lon="10.39924">
        <ele>1752.754</ele>
        <time>2018-09-13T12:04:25Z</time>
      </trkpt>
      <trkpt lat="46.25794" lon="10.39926">
        <ele>1753.347</ele>
        <time>2018-09-13T12:04:45Z</time>
      </trkpt>
      <trkpt lat="46.25794" lon="10.39929">
        <ele>1754.215</ele>
        <time>2018-09-13T12:05:05Z</time>
      </trkpt>
      <trkpt lat="46.25793" lon="10.39932">
        <ele>1755.442</ele>
        <time>2018-09-13T12:05:25Z</time>
      </trkpt>
      <trkpt lat="46.25791" lon="10.39934">
        <ele>1755.833</ele>
        <time>2018-09-13T12:05:45Z</time>
      </trkpt>
      <trkpt lat="46.25791" lon="10.39937">
        <ele>1757.023</ele>
        <time>2018-09-13T12:06:05Z</time>
      </trkpt>
      <trkpt lat="46.25791" lon="10.3994">
        <ele>1758.315</ele>
        <time>2018-09-13T12:06:25Z</time>
      </trkpt>
      <trkpt lat="46.2579" lon="10.39943">
        <ele>1759.108</ele>
        <time>2018-09-13T12:06:45Z</time>
      </trkpt>
      <trkpt lat="46.2579" lon="10.39946">
        <ele>1760.025</ele>
        <time>2018-09-13T12:07:05Z</time>
      </trkpt>
      <trkpt lat="46.25789" lon="10.39949">
        <ele>1760.481</ele>
        <time>2018-09-13T12:07:25Z</time>
      </trkpt>
      <trkpt lat="46.25789" lon="10.39951">
        <ele>1760.988</ele>
        <time>2018-09-13T12:07:45Z</time>
      </trkpt>
      <trkpt lat="46.25789" lon="10.39955">
        <ele>1761.711</ele>
        <time>2018-09-13T12:08:05Z</time>
      </trkpt>
      <trkpt lat="46.25791" lon="10.39957">
        <ele>1763.144</ele>
        <time>2018-09-13T12:08:25Z</time>
      </trkpt>
      <trkpt lat="46.25792" lon="10.3996">
        <ele>1764.227</ele>
        <time>2018-09-13T12:08:45Z</time>
      </trkpt>
      <trkpt lat="46.25793" lon="10.39964">
        <ele>1765.625</ele>
        <time>2018-09-13T12:09:05Z</time>
      </trkpt>
      <trkpt lat="46.25793" lon="10.39967">
        <ele>1766.232</ele>
        <time>2018-09-13T12:09:25Z</time>
      </trkpt>
      <trkpt lat="46.25795" lon="10.3997">
        <ele>1767.953</ele>
        <time>2018-09-13T12:09:45Z</time>
      </trkpt>
      <trkpt lat="46.25796" lon="10.39972">
        <ele>1769.104</ele>
        <time>2018-09-13T12:10:05Z</time>
      </trkpt>
      <trkpt lat="46.25798" lon="10.39975">
        <ele>1770.614</ele>
        <time>2018-09-13T12:10:25Z</time>
      </trkpt>
      <trkpt lat="46.25799" lon="10.39979">
        <ele>1772.008</ele>
        <time>2018-09-13T12:10:45Z</time>
      </trkpt>
      <trkpt lat="46.258" lon="10.39981">
        <ele>1772.967</ele>
        <time>2018-09-13T12:11:05Z</time>
      </trkpt>
      <trkpt lat="46.25802" lon="10.39976">
        <ele>1773.473</ele>
        <time>2018-09-13T12:11:25Z</time>
      </trkpt>
      <trkpt lat="46.25807" lon="10.39971">
        <ele>1774.82</ele>
        <time>2018-09-13T12:11:45Z</time>
      </trkpt>
      <trkpt lat="46.25815" lon="10.39961">
        <ele>1774.643</ele>
        <time>2018-09-13T12:12:05Z</time>
      </trkpt>
      <trkpt lat="46.25813" lon="10.39973">
        <ele>1778.596</ele>
        <time>2018-09-13T12:12:25Z</time>
      </trkpt>
      <trkpt lat="46.25814" lon="10.39998">
        <ele>1786.529</ele>
        <time>2018-09-13T12:12:45Z</time>
      </trkpt>
      <trkpt lat="46.25817" lon="10.39994">
        <ele>1786.847</ele>
        <time>2018-09-13T12:13:05Z</time>
      </trkpt>
      <trkpt lat="46.25819" lon="10.3999">
        <ele>1786.924</ele>
        <time>2018-09-13T12:13:25Z</time>
      </trkpt>
      <trkpt lat="46.25821" lon="10.39987">
        <ele>1786.829</ele>
        <time>2018-09-13T12:13:45Z</time>
      </trkpt>
      <trkpt lat="46.25839" lon="10.39971">
        <ele>1787</ele>
        <time>2018-09-13T12:14:05Z</time>
      </trkpt>
      <trkpt lat="46.25836" lon="10.39984">
        <ele>1792.42</ele>
        <time>2018-09-13T12:14:25Z</time>
      </trkpt>
      <trkpt lat="46.2583" lon="10.40006">
        <ele>1798.408</ele>
        <time>2018-09-13T12:14:45Z</time>
      </trkpt>
      <trkpt lat="46.25838" lon="10.40015">
        <ele>1803.354</ele>
        <time>2018-09-13T12:15:05Z</time>
      </trkpt>
      <trkpt lat="46.25843" lon="10.40013">
        <ele>1803.88</ele>
        <time>2018-09-13T12:15:25Z</time>
      </trkpt>
      <trkpt lat="46.25849" lon="10.4001">
        <ele>1804.237</ele>
        <time>2018-09-13T12:15:45Z</time>
      </trkpt>
      <trkpt lat="46.25856" lon="10.40006">
        <ele>1804.79</ele>
        <time>2018-09-13T12:16:05Z</time>
      </trkpt>
      <trkpt lat="46.25858" lon="10.40005">
        <ele>1804.853</ele>
        <time>2018-09-13T12:16:25Z</time>
      </trkpt>
      <trkpt lat="46.25861" lon="10.40003">
        <ele>1804.966</ele>
        <time>2018-09-13T12:16:45Z</time>
      </trkpt>
      <trkpt lat="46.25868" lon="10.4">
        <ele>1804.934</ele>
        <time>2018-09-13T12:17:05Z</time>
      </trkpt>
      <trkpt lat="46.25886" lon="10.39997">
        <ele>1806.761</ele>
        <time>2018-09-13T12:17:25Z</time>
      </trkpt>
      <trkpt lat="46.25887" lon="10.39997">
        <ele>1806.669</ele>
        <time>2018-09-13T12:17:45Z</time>
      </trkpt>
      <trkpt lat="46.25931" lon="10.39966">
        <ele>1808.104</ele>
        <time>2018-09-13T12:18:05Z</time>
      </trkpt>
      <trkpt lat="46.25918" lon="10.39989">
        <ele>1812.424</ele>
        <time>2018-09-13T12:18:25Z</time>
      </trkpt>
      <trkpt lat="46.25916" lon="10.39992">
        <ele>1812.708</ele>
        <time>2018-09-13T12:18:45Z</time>
      </trkpt>
      <trkpt lat="46.25911" lon="10.39998">
        <ele>1813.268</ele>
        <time>2018-09-13T12:19:05Z</time>
      </trkpt>
      <trkpt lat="46.25909" lon="10.40002">
        <ele>1813.544</ele>
        <time>2018-09-13T12:19:25Z</time>
      </trkpt>
      <trkpt lat="46.2591" lon="10.40005">
        <ele>1814.631</ele>
        <time>2018-09-13T12:19:45Z</time>
      </trkpt>
      <trkpt lat="46.25911" lon="10.40008">
        <ele>1815.754</ele>
        <time>2018-09-13T12:20:05Z</time>
      </trkpt>
      <trkpt lat="46.25909" lon="10.4001">
        <ele>1816.027</ele>
        <time>2018-09-13T12:20:25Z</time>
      </trkpt>
      <trkpt lat="46.25908" lon="10.40012">
        <ele>1816.18</ele>
        <time>2018-09-13T12:20:45Z</time>
      </trkpt>
      <trkpt lat="46.25907" lon="10.40015">
        <ele>1816.978</ele>
        <time>2018-09-13T12:21:05Z</time>
      </trkpt>
      <trkpt lat="46.25906" lon="10.40019">
        <ele>1817.845</ele>
        <time>2018-09-13T12:21:25Z</time>
      </trkpt>
      <trkpt lat="46.25905" lon="10.40019">
        <ele>1817.536</ele>
        <time>2018-09-13T12:21:45Z</time>
      </trkpt>
      <trkpt lat="46.25904" lon="10.40022">
        <ele>1818.517</ele>
        <time>2018-09-13T12:22:05Z</time>
      </trkpt>
      <trkpt lat="46.25903" lon="10.40025">
        <ele>1819.218</ele>
        <time>2018-09-13T12:22:25Z</time>
      </trkpt>
      <trkpt lat="46.25902" lon="10.40026">
        <ele>1819.408</ele>
        <time>2018-09-13T12:22:45Z</time>
      </trkpt>
      <trkpt lat="46.25903" lon="10.4003">
        <ele>1820.655</ele>
        <time>2018-09-13T12:23:05Z</time>
      </trkpt>
      <trkpt lat="46.25902" lon="10.40032">
        <ele>1821.061</ele>
        <time>2018-09-13T12:23:25Z</time>
      </trkpt>
      <trkpt lat="46.25901" lon="10.40035">
        <ele>1821.998</ele>
        <time>2018-09-13T12:23:45Z</time>
      </trkpt>
      <trkpt lat="46.259" lon="10.40036">
        <ele>1822.341</ele>
        <time>2018-09-13T12:24:05Z</time>
      </trkpt>
      <trkpt lat="46.25898" lon="10.40036">
        <ele>1821.814</ele>
        <time>2018-09-13T12:24:25Z</time>
      </trkpt>
      <trkpt lat="46.25896" lon="10.40037">
        <ele>1822.027</ele>
        <time>2018-09-13T12:24:45Z</time>
      </trkpt>
      <trkpt lat="46.2589" lon="10.40036">
        <ele>1820.555</ele>
        <time>2018-09-13T12:25:05Z</time>
      </trkpt>
      <trkpt lat="46.2589" lon="10.40038">
        <ele>1821.582</ele>
        <time>2018-09-13T12:25:25Z</time>
      </trkpt>
      <trkpt lat="46.25889" lon="10.40039">
        <ele>1821.632</ele>
        <time>2018-09-13T12:25:45Z</time>
      </trkpt>
      <trkpt lat="46.25889" lon="10.40041">
        <ele>1822.492</ele>
        <time>2018-09-13T12:26:05Z</time>
      </trkpt>
      <trkpt lat="46.25891" lon="10.40045">
        <ele>1823.711</ele>
        <time>2018-09-13T12:26:25Z</time>
      </trkpt>
      <trkpt lat="46.25889" lon="10.40047">
        <ele>1824.208</ele>
        <time>2018-09-13T12:26:45Z</time>
      </trkpt>
      <trkpt lat="46.25887" lon="10.40049">
        <ele>1824.655</ele>
        <time>2018-09-13T12:27:05Z</time>
      </trkpt>
      <trkpt lat="46.25886" lon="10.40051">
        <ele>1824.931</ele>
        <time>2018-09-13T12:27:25Z</time>
      </trkpt>
      <trkpt lat="46.25887" lon="10.40054">
        <ele>1826.088</ele>
        <time>2018-09-13T12:27:45Z</time>
      </trkpt>
      <trkpt lat="46.25885" lon="10.40057">
        <ele>1826.741</ele>
        <time>2018-09-13T12:28:05Z</time>
      </trkpt>
      <trkpt lat="46.25884" lon="10.40059">
        <ele>1827.184</ele>
        <time>2018-09-13T12:28:25Z</time>
      </trkpt>
      <trkpt lat="46.25883" lon="10.40062">
        <ele>1827.997</ele>
        <time>2018-09-13T12:28:45Z</time>
      </trkpt>
      <trkpt lat="46.25882" lon="10.40065">
        <ele>1828.885</ele>
        <time>2018-09-13T12:29:05Z</time>
      </trkpt>
      <trkpt lat="46.2588" lon="10.40067">
        <ele>1829.032</ele>
        <time>2018-09-13T12:29:25Z</time>
      </trkpt>
      <trkpt lat="46.2588" lon="10.4007">
        <ele>1829.948</ele>
        <time>2018-09-13T12:29:45Z</time>
      </trkpt>
      <trkpt lat="46.25878" lon="10.40072">
        <ele>1830.361</ele>
        <time>2018-09-13T12:30:05Z</time>
      </trkpt>
      <trkpt lat="46.25874" lon="10.40072">
        <ele>1829.117</ele>
        <time>2018-09-13T12:30:25Z</time>
      </trkpt>
      <trkpt lat="46.25873" lon="10.40074">
        <ele>1829.608</ele>
        <time>2018-09-13T12:30:45Z</time>
      </trkpt>
      <trkpt lat="46.25872" lon="10.40077">
        <ele>1830.116</ele>
        <time>2018-09-13T12:31:05Z</time>
      </trkpt>
      <trkpt lat="46.2587" lon="10.40079">
        <ele>1830.372</ele>
        <time>2018-09-13T12:31:25Z</time>
      </trkpt>
      <trkpt lat="46.25868" lon="10.40081">
        <ele>1830.159</ele>
        <time>2018-09-13T12:31:45Z</time>
      </trkpt>
      <trkpt lat="46.25867" lon="10.40085">
        <ele>1831.082</ele>
        <time>2018-09-13T12:32:05Z</time>
      </trkpt>
      <trkpt lat="46.25866" lon="10.40087">
        <ele>1831.665</ele>
        <time>2018-09-13T12:32:25Z</time>
      </trkpt>
      <trkpt lat="46.25866" lon="10.40089">
        <ele>1832.148</ele>
        <time>2018-09-13T12:32:45Z</time>
      </trkpt>
      <trkpt lat="46.25865" lon="10.40092">
        <ele>1832.876</ele>
        <time>2018-09-13T12:33:05Z</time>
      </trkpt>
      <trkpt lat="46.25863" lon="10.40107">
        <ele>1837.463</ele>
        <time>2018-09-13T12:33:25Z</time>
      </trkpt>
      <trkpt lat="46.25862" lon="10.4013">
        <ele>1843.089</ele>
        <time>2018-09-13T12:33:45Z</time>
      </trkpt>
      <trkpt lat="46.25868" lon="10.40126">
        <ele>1844.106</ele>
        <time>2018-09-13T12:34:05Z</time>
      </trkpt>
      <trkpt lat="46.25869" lon="10.4014">
        <ele>1848.426</ele>
        <time>2018-09-13T12:34:25Z</time>
      </trkpt>
      <trkpt lat="46.25869" lon="10.40141">
        <ele>1848.608</ele>
        <time>2018-09-13T12:34:45Z</time>
      </trkpt>
      <trkpt lat="46.25868" lon="10.4015">
        <ele>1850.36</ele>
        <time>2018-09-13T12:35:05Z</time>
      </trkpt>
      <trkpt lat="46.25868" lon="10.40154">
        <ele>1851.126</ele>
        <time>2018-09-13T12:35:25Z</time>
      </trkpt>
      <trkpt lat="46.25866" lon="10.40159">
        <ele>1851.553</ele>
        <time>2018-09-13T12:35:45Z</time>
      </trkpt>
      <trkpt lat="46.25863" lon="10.40168">
        <ele>1852.146</ele>
        <time>2018-09-13T12:36:05Z</time>
      </trkpt>
      <trkpt lat="46.25854" lon="10.40194">
        <ele>1850.859</ele>
        <time>2018-09-13T12:36:25Z</time>
      </trkpt>
      <trkpt lat="46.25853" lon="10.40207">
        <ele>1851.542</ele>
        <time>2018-09-13T12:36:45Z</time>
      </trkpt>
      <trkpt lat="46.25853" lon="10.40208">
        <ele>1851.78</ele>
        <time>2018-09-13T12:37:05Z</time>
      </trkpt>
      <trkpt lat="46.25855" lon="10.40208">
        <ele>1852.857</ele>
        <time>2018-09-13T12:37:25Z</time>
      </trkpt>
      <trkpt lat="46.25858" lon="10.40207">
        <ele>1854.891</ele>
        <time>2018-09-13T12:37:45Z</time>
      </trkpt>
      <trkpt lat="46.25858" lon="10.40207">
        <ele>1855.281</ele>
        <time>2018-09-13T12:38:05Z</time>
      </trkpt>
      <trkpt lat="46.25859" lon="10.40202">
        <ele>1855.219</ele>
        <time>2018-09-13T12:38:25Z</time>
      </trkpt>
      <trkpt lat="46.25859" lon="10.40201">
        <ele>1855.208</ele>
        <time>2018-09-13T12:38:45Z</time>
      </trkpt>
      <trkpt lat="46.2586" lon="10.40199">
        <ele>1855.471</ele>
        <time>2018-09-13T12:39:05Z</time>
      </trkpt>
      <trkpt lat="46.2586" lon="10.40198">
        <ele>1855.597</ele>
        <time>2018-09-13T12:39:25Z</time>
      </trkpt>
      <trkpt lat="46.25864" lon="10.40191">
        <ele>1857.224</ele>
        <time>2018-09-13T12:39:45Z</time>
      </trkpt>
      <trkpt lat="46.25867" lon="10.40189">
        <ele>1858.137</ele>
        <time>2018-09-13T12:40:05Z</time>
      </trkpt>
      <trkpt lat="46.25869" lon="10.40185">
        <ele>1858.65</ele>
        <time>2018-09-13T12:40:25Z</time>
      </trkpt>
      <trkpt lat="46.2587" lon="10.40183">
        <ele>1858.763</ele>
        <time>2018-09-13T12:40:45Z</time>
      </trkpt>
      <trkpt lat="46.25872" lon="10.40182">
        <ele>1859.651</ele>
        <time>2018-09-13T12:41:05Z</time>
      </trkpt>
      <trkpt lat="46.25873" lon="10.4018">
        <ele>1859.898</ele>
        <time>2018-09-13T12:41:25Z</time>
      </trkpt>
      <trkpt lat="46.25873" lon="10.40176">
        <ele>1858.978</ele>
        <time>2018-09-13T12:41:45Z</time>
      </trkpt>
      <trkpt lat="46.25875" lon="10.40174">
        <ele>1859.533</ele>
        <time>2018-09-13T12:42:05Z</time>
      </trkpt>
      <trkpt lat="46.25876" lon="10.40172">
        <ele>1859.426</ele>
        <time>2018-09-13T12:42:25Z</time>
      </trkpt>
      <trkpt lat="46.25879" lon="10.40172">
        <ele>1860.608</ele>
        <time>2018-09-13T12:42:45Z</time>
      </trkpt>
      <trkpt lat="46.25881" lon="10.4017">
        <ele>1861.389</ele>
        <time>2018-09-13T12:43:05Z</time>
      </trkpt>
      <trkpt lat="46.25884" lon="10.4017">
        <ele>1862.745</ele>
        <time>2018-09-13T12:43:25Z</time>
      </trkpt>
      <trkpt lat="46.25884" lon="10.40168">
        <ele>1862.032</ele>
        <time>2018-09-13T12:43:45Z</time>
      </trkpt>
      <trkpt lat="46.25886" lon="10.40166">
        <ele>1862.255</ele>
        <time>2018-09-13T12:44:05Z</time>
      </trkpt>
      <trkpt lat="46.25886" lon="10.40163">
        <ele>1861.538</ele>
        <time>2018-09-13T12:44:25Z</time>
      </trkpt>
      <trkpt lat="46.25888" lon="10.40159">
        <ele>1861.271</ele>
        <time>2018-09-13T12:44:45Z</time>
      </trkpt>
      <trkpt lat="46.25887" lon="10.40156">
        <ele>1860.269</ele>
        <time>2018-09-13T12:45:05Z</time>
      </trkpt>
      <trkpt lat="46.25888" lon="10.40153">
        <ele>1859.996</ele>
        <time>2018-09-13T12:45:25Z</time>
      </trkpt>
      <trkpt lat="46.25888" lon="10.40151">
        <ele>1859.142</ele>
        <time>2018-09-13T12:45:45Z</time>
      </trkpt>
      <trkpt lat="46.25889" lon="10.40147">
        <ele>1858.122</ele>
        <time>2018-09-13T12:46:05Z</time>
      </trkpt>
      <trkpt lat="46.2589" lon="10.40144">
        <ele>1857.914</ele>
        <time>2018-09-13T12:46:25Z</time>
      </trkpt>
      <trkpt lat="46.2589" lon="10.40142">
        <ele>1857.208</ele>
        <time>2018-09-13T12:46:45Z</time>
      </trkpt>
      <trkpt lat="46.25889" lon="10.40138">
        <ele>1855.616</ele>
        <time>2018-09-13T12:47:05Z</time>
      </trkpt>
      <trkpt lat="46.2589" lon="10.40136">
        <ele>1855.372</ele>
        <time>2018-09-13T12:47:25Z</time>
      </trkpt>
      <trkpt lat="46.25894" lon="10.4013">
        <ele>1854.659</ele>
        <time>2018-09-13T12:47:45Z</time>
      </trkpt>
      <trkpt lat="46.25897" lon="10.40125">
        <ele>1854.042</ele>
        <time>2018-09-13T12:48:05Z</time>
      </trkpt>
      <trkpt lat="46.25908" lon="10.40109">
        <ele>1851.195</ele>
        <time>2018-09-13T12:48:25Z</time>
      </trkpt>
      <trkpt lat="46.25911" lon="10.40106">
        <ele>1850.348</ele>
        <time>2018-09-13T12:48:45Z</time>
      </trkpt>
      <trkpt lat="46.2591" lon="10.4011">
        <ele>1851.816</ele>
        <time>2018-09-13T12:49:05Z</time>
      </trkpt>
      <trkpt lat="46.25906" lon="10.40129">
        <ele>1858.213</ele>
        <time>2018-09-13T12:49:25Z</time>
      </trkpt>
      <trkpt lat="46.25905" lon="10.40132">
        <ele>1859.059</ele>
        <time>2018-09-13T12:49:45Z</time>
      </trkpt>
      <trkpt lat="46.25904" lon="10.40145">
        <ele>1863.403</ele>
        <time>2018-09-13T12:50:05Z</time>
      </trkpt>
      <trkpt lat="46.25903" lon="10.40161">
        <ele>1867.823</ele>
        <time>2018-09-13T12:50:25Z</time>
      </trkpt>
      <trkpt lat="46.25903" lon="10.40178">
        <ele>1872.808</ele>
        <time>2018-09-13T12:50:45Z</time>
      </trkpt>
      <trkpt lat="46.25901" lon="10.40198">
        <ele>1878.097</ele>
        <time>2018-09-13T12:51:05Z</time>
      </trkpt>
      <trkpt lat="46.25902" lon="10.40215">
        <ele>1882.313</ele>
        <time>2018-09-13T12:51:25Z</time>
      </trkpt>
      <trkpt lat="46.25904" lon="10.40231">
        <ele>1887.05</ele>
        <time>2018-09-13T12:51:45Z</time>
      </trkpt>
      <trkpt lat="46.25907" lon="10.40242">
        <ele>1890.583</ele>
        <time>2018-09-13T12:52:05Z</time>
      </trkpt>
      <trkpt lat="46.25909" lon="10.40255">
        <ele>1894.466</ele>
        <time>2018-09-13T12:52:25Z</time>
      </trkpt>
      <trkpt lat="46.25911" lon="10.40268">
        <ele>1898.279</ele>
        <time>2018-09-13T12:52:45Z</time>
      </trkpt>
      <trkpt lat="46.25913" lon="10.40281">
        <ele>1901.777</ele>
        <time>2018-09-13T12:53:05Z</time>
      </trkpt>
      <trkpt lat="46.25911" lon="10.40298">
        <ele>1903.014</ele>
        <time>2018-09-13T12:53:25Z</time>
      </trkpt>
      <trkpt lat="46.25914" lon="10.40294">
        <ele>1904.387</ele>
        <time>2018-09-13T12:53:45Z</time>
      </trkpt>
      <trkpt lat="46.25919" lon="10.40288">
        <ele>1906.342</ele>
        <time>2018-09-13T12:54:05Z</time>
      </trkpt>
      <trkpt lat="46.25921" lon="10.40283">
        <ele>1907.126</ele>
        <time>2018-09-13T12:54:25Z</time>
      </trkpt>
      <trkpt lat="46.25932" lon="10.40261">
        <ele>1907.908</ele>
        <time>2018-09-13T12:54:45Z</time>
      </trkpt>
      <trkpt lat="46.25936" lon="10.40249">
        <ele>1907.32</ele>
        <time>2018-09-13T12:55:05Z</time>
      </trkpt>
      <trkpt lat="46.2594" lon="10.4024">
        <ele>1907.576</ele>
        <time>2018-09-13T12:55:25Z</time>
      </trkpt>
      <trkpt lat="46.25958" lon="10.40218">
        <ele>1908.873</ele>
        <time>2018-09-13T12:55:45Z</time>
      </trkpt>
      <trkpt lat="46.25958" lon="10.40224">
        <ele>1910.296</ele>
        <time>2018-09-13T12:56:05Z</time>
      </trkpt>
      <trkpt lat="46.25956" lon="10.40236">
        <ele>1912.729</ele>
        <time>2018-09-13T12:56:25Z</time>
      </trkpt>
      <trkpt lat="46.25955" lon="10.40259">
        <ele>1918.242</ele>
        <time>2018-09-13T12:56:45Z</time>
      </trkpt>
      <trkpt lat="46.25955" lon="10.40275">
        <ele>1922.39</ele>
        <time>2018-09-13T12:57:05Z</time>
      </trkpt>
      <trkpt lat="46.25956" lon="10.40288">
        <ele>1925.997</ele>
        <time>2018-09-13T12:57:25Z</time>
      </trkpt>
      <trkpt lat="46.25958" lon="10.40296">
        <ele>1928.296</ele>
        <time>2018-09-13T12:57:45Z</time>
      </trkpt>
      <trkpt lat="46.2596" lon="10.40308">
        <ele>1931.731</ele>
        <time>2018-09-13T12:58:05Z</time>
      </trkpt>
      <trkpt lat="46.2596" lon="10.40318">
        <ele>1934.624</ele>
        <time>2018-09-13T12:58:25Z</time>
      </trkpt>
      <trkpt lat="46.2596" lon="10.40327">
        <ele>1936.708</ele>
        <time>2018-09-13T12:58:45Z</time>
      </trkpt>
      <trkpt lat="46.2596" lon="10.40328">
        <ele>1937.251</ele>
        <time>2018-09-13T12:59:05Z</time>
      </trkpt>
      <trkpt lat="46.25959" lon="10.40339">
        <ele>1938.547</ele>
        <time>2018-09-13T12:59:25Z</time>
      </trkpt>
      <trkpt lat="46.25959" lon="10.40349">
        <ele>1939.834</ele>
        <time>2018-09-13T12:59:45Z</time>
      </trkpt>
      <trkpt lat="46.25958" lon="10.40369">
        <ele>1943.347</ele>
        <time>2018-09-13T13:00:05Z</time>
      </trkpt>
      <trkpt lat="46.25957" lon="10.40377">
        <ele>1944.39</ele>
        <time>2018-09-13T13:00:25Z</time>
      </trkpt>
      <trkpt lat="46.25961" lon="10.40373">
        <ele>1945.673</ele>
        <time>2018-09-13T13:00:45Z</time>
      </trkpt>
      <trkpt lat="46.25965" lon="10.40369">
        <ele>1947.041</ele>
        <time>2018-09-13T13:01:05Z</time>
      </trkpt>
      <trkpt lat="46.25971" lon="10.40354">
        <ele>1948.328</ele>
        <time>2018-09-13T13:01:25Z</time>
      </trkpt>
      <trkpt lat="46.25975" lon="10.40348">
        <ele>1949.672</ele>
        <time>2018-09-13T13:01:45Z</time>
      </trkpt>
      <trkpt lat="46.25981" lon="10.40341">
        <ele>1951.013</ele>
        <time>2018-09-13T13:02:05Z</time>
      </trkpt>
      <trkpt lat="46.25984" lon="10.40333">
        <ele>1951.214</ele>
        <time>2018-09-13T13:02:25Z</time>
      </trkpt>
      <trkpt lat="46.25986" lon="10.4033">
        <ele>1950.708</ele>
        <time>2018-09-13T13:02:45Z</time>
      </trkpt>
      <trkpt lat="46.2599" lon="10.40324">
        <ele>1950.029</ele>
        <time>2018-09-13T13:03:05Z</time>
      </trkpt>
      <trkpt lat="46.25993" lon="10.40318">
        <ele>1949.545</ele>
        <time>2018-09-13T13:03:25Z</time>
      </trkpt>
      <trkpt lat="46.25993" lon="10.40317">
        <ele>1949.552</ele>
        <time>2018-09-13T13:03:45Z</time>
      </trkpt>
      <trkpt lat="46.26" lon="10.40309">
        <ele>1950.185</ele>
        <time>2018-09-13T13:04:05Z</time>
      </trkpt>
      <trkpt lat="46.26002" lon="10.40307">
        <ele>1949.898</ele>
        <time>2018-09-13T13:04:25Z</time>
      </trkpt>
      <trkpt lat="46.26003" lon="10.40307">
        <ele>1949.741</ele>
        <time>2018-09-13T13:04:45Z</time>
      </trkpt>
      <trkpt lat="46.26005" lon="10.40305">
        <ele>1949.459</ele>
        <time>2018-09-13T13:05:05Z</time>
      </trkpt>
      <trkpt lat="46.26011" lon="10.403">
        <ele>1948.336</ele>
        <time>2018-09-13T13:05:25Z</time>
      </trkpt>
      <trkpt lat="46.26021" lon="10.40299">
        <ele>1949.554</ele>
        <time>2018-09-13T13:05:45Z</time>
      </trkpt>
      <trkpt lat="46.26034" lon="10.40294">
        <ele>1949.856</ele>
        <time>2018-09-13T13:06:05Z</time>
      </trkpt>
      <trkpt lat="46.26041" lon="10.40291">
        <ele>1949.911</ele>
        <time>2018-09-13T13:06:25Z</time>
      </trkpt>
      <trkpt lat="46.26052" lon="10.40291">
        <ele>1951.808</ele>
        <time>2018-09-13T13:06:45Z</time>
      </trkpt>
      <trkpt lat="46.26051" lon="10.40294">
        <ele>1952.817</ele>
        <time>2018-09-13T13:07:05Z</time>
      </trkpt>
      <trkpt lat="46.26046" lon="10.40306">
        <ele>1957.043</ele>
        <time>2018-09-13T13:07:25Z</time>
      </trkpt>
      <trkpt lat="46.26035" lon="10.40351">
        <ele>1972.99</ele>
        <time>2018-09-13T13:07:45Z</time>
      </trkpt>
      <trkpt lat="46.26031" lon="10.4037">
        <ele>1978.163</ele>
        <time>2018-09-13T13:08:05Z</time>
      </trkpt>
      <trkpt lat="46.26028" lon="10.40387">
        <ele>1980.676</ele>
        <time>2018-09-13T13:08:25Z</time>
      </trkpt>
      <trkpt lat="46.26037" lon="10.40383">
        <ele>1982.679</ele>
        <time>2018-09-13T13:08:45Z</time>
      </trkpt>
      <trkpt lat="46.26037" lon="10.40385">
        <ele>1983.167</ele>
        <time>2018-09-13T13:09:05Z</time>
      </trkpt>
      <trkpt lat="46.26038" lon="10.40388">
        <ele>1983.934</ele>
        <time>2018-09-13T13:09:25Z</time>
      </trkpt>
      <trkpt lat="46.26037" lon="10.40391">
        <ele>1984.713</ele>
        <time>2018-09-13T13:09:45Z</time>
      </trkpt>
      <trkpt lat="46.26037" lon="10.40394">
        <ele>1985.843</ele>
        <time>2018-09-13T13:10:05Z</time>
      </trkpt>
      <trkpt lat="46.26037" lon="10.40397">
        <ele>1986.607</ele>
        <time>2018-09-13T13:10:25Z</time>
      </trkpt>
      <trkpt lat="46.26037" lon="10.404">
        <ele>1987.708</ele>
        <time>2018-09-13T13:10:45Z</time>
      </trkpt>
      <trkpt lat="46.26036" lon="10.40404">
        <ele>1988.723</ele>
        <time>2018-09-13T13:11:05Z</time>
      </trkpt>
      <trkpt lat="46.26036" lon="10.40407">
        <ele>1989.449</ele>
        <time>2018-09-13T13:11:25Z</time>
      </trkpt>
      <trkpt lat="46.26036" lon="10.40407">
        <ele>1989.516</ele>
        <time>2018-09-13T13:11:45Z</time>
      </trkpt>
      <trkpt lat="46.26032" lon="10.40421">
        <ele>1992.649</ele>
        <time>2018-09-13T13:12:05Z</time>
      </trkpt>
      <trkpt lat="46.26027" lon="10.40439">
        <ele>1993.752</ele>
        <time>2018-09-13T13:12:25Z</time>
      </trkpt>
      <trkpt lat="46.26023" lon="10.40458">
        <ele>1996.955</ele>
        <time>2018-09-13T13:12:45Z</time>
      </trkpt>
      <trkpt lat="46.26014" lon="10.4048">
        <ele>1999.043</ele>
        <time>2018-09-13T13:13:05Z</time>
      </trkpt>
      <trkpt lat="46.26008" lon="10.40492">
        <ele>1999.12</ele>
        <time>2018-09-13T13:13:25Z</time>
      </trkpt>
      <trkpt lat="46.26" lon="10.40509">
        <ele>1999.892</ele>
        <time>2018-09-13T13:13:45Z</time>
      </trkpt>
      <trkpt lat="46.25999" lon="10.40511">
        <ele>1999.973</ele>
        <time>2018-09-13T13:14:05Z</time>
      </trkpt>
      <trkpt lat="46.25996" lon="10.4052">
        <ele>2000.32</ele>
        <time>2018-09-13T13:14:25Z</time>
      </trkpt>
      <trkpt lat="46.26024" lon="10.40511">
        <ele>2010.808</ele>
        <time>2018-09-13T13:14:45Z</time>
      </trkpt>
      <trkpt lat="46.26027" lon="10.40509">
        <ele>2011.761</ele>
        <time>2018-09-13T13:15:05Z</time>
      </trkpt>
      <trkpt lat="46.26044" lon="10.405">
        <ele>2016.967</ele>
        <time>2018-09-13T13:15:25Z</time>
      </trkpt>
      <trkpt lat="46.2606" lon="10.40491">
        <ele>2020.694</ele>
        <time>2018-09-13T13:15:45Z</time>
      </trkpt>
      <trkpt lat="46.26113" lon="10.40468">
        <ele>2029.757</ele>
        <time>2018-09-13T13:16:05Z</time>
      </trkpt>
      <trkpt lat="46.26116" lon="10.4047">
        <ele>2030.23</ele>
        <time>2018-09-13T13:16:25Z</time>
      </trkpt>
      <trkpt lat="46.26118" lon="10.40469">
        <ele>2030.423</ele>
        <time>2018-09-13T13:16:45Z</time>
      </trkpt>
      <trkpt lat="46.26165" lon="10.40457">
        <ele>2035.581</ele>
        <time>2018-09-13T13:17:05Z</time>
      </trkpt>
      <trkpt lat="46.26174" lon="10.40456">
        <ele>2036.678</ele>
        <time>2018-09-13T13:17:25Z</time>
      </trkpt>
      <trkpt lat="46.26205" lon="10.40455">
        <ele>2039.931</ele>
        <time>2018-09-13T13:17:45Z</time>
      </trkpt>
      <trkpt lat="46.26258" lon="10.40468">
        <ele>2046.361</ele>
        <time>2018-09-13T13:18:05Z</time>
      </trkpt>
      <trkpt lat="46.26252" lon="10.40477">
        <ele>2049.107</ele>
        <time>2018-09-13T13:18:25Z</time>
      </trkpt>
      <trkpt lat="46.26236" lon="10.40498">
        <ele>2057.108</ele>
        <time>2018-09-13T13:18:45Z</time>
      </trkpt>
      <trkpt lat="46.2623" lon="10.40507">
        <ele>2059.945</ele>
        <time>2018-09-13T13:19:05Z</time>
      </trkpt>
      <trkpt lat="46.26216" lon="10.40527">
        <ele>2063.531</ele>
        <time>2018-09-13T13:19:25Z</time>
      </trkpt>
      <trkpt lat="46.26218" lon="10.40527">
        <ele>2064.388</ele>
        <time>2018-09-13T13:19:45Z</time>
      </trkpt>
      <trkpt lat="46.26237" lon="10.40528">
        <ele>2068.241</ele>
        <time>2018-09-13T13:20:05Z</time>
      </trkpt>
      <trkpt lat="46.2627" lon="10.40532">
        <ele>2075.364</ele>
        <time>2018-09-13T13:20:25Z</time>
      </trkpt>
      <trkpt lat="46.26273" lon="10.40532">
        <ele>2076.147</ele>
        <time>2018-09-13T13:20:45Z</time>
      </trkpt>
      <trkpt lat="46.26288" lon="10.40533">
        <ele>2078.955</ele>
        <time>2018-09-13T13:21:05Z</time>
      </trkpt>
      <trkpt lat="46.26304" lon="10.40537">
        <ele>2082.552</ele>
        <time>2018-09-13T13:21:25Z</time>
      </trkpt>
      <trkpt lat="46.26344" lon="10.40548">
        <ele>2093.311</ele>
        <time>2018-09-13T13:21:45Z</time>
      </trkpt>
      <trkpt lat="46.26393" lon="10.40563">
        <ele>2103.121</ele>
        <time>2018-09-13T13:22:05Z</time>
      </trkpt>
      <trkpt lat="46.26437" lon="10.4058">
        <ele>2107.203</ele>
        <time>2018-09-13T13:22:25Z</time>
      </trkpt>
      <trkpt lat="46.26459" lon="10.4059">
        <ele>2108.408</ele>
        <time>2018-09-13T13:22:45Z</time>
      </trkpt>
      <trkpt lat="46.26472" lon="10.40628">
        <ele>2114.383</ele>
        <time>2018-09-13T13:23:05Z</time>
      </trkpt>
      <trkpt lat="46.2649" lon="10.40685">
        <ele>2122.629</ele>
        <time>2018-09-13T13:23:25Z</time>
      </trkpt>
      <trkpt lat="46.265" lon="10.40722">
        <ele>2129.616</ele>
        <time>2018-09-13T13:23:45Z</time>
      </trkpt>
      <trkpt lat="46.26507" lon="10.40738">
        <ele>2131.819</ele>
        <time>2018-09-13T13:24:05Z</time>
      </trkpt>
      <trkpt lat="46.26484" lon="10.40753">
        <ele>2145.232</ele>
        <time>2018-09-13T13:24:25Z</time>
      </trkpt>
      <trkpt lat="46.26466" lon="10.40773">
        <ele>2154.015</ele>
        <time>2018-09-13T13:24:45Z</time>
      </trkpt>
      <trkpt lat="46.26462" lon="10.40777">
        <ele>2155.043</ele>
        <time>2018-09-13T13:25:05Z</time>
      </trkpt>
      <trkpt lat="46.26455" lon="10.40785">
        <ele>2156.83</ele>
        <time>2018-09-13T13:25:25Z</time>
      </trkpt>
      <trkpt lat="46.26483" lon="10.40797">
        <ele>2159.496</ele>
        <time>2018-09-13T13:25:45Z</time>
      </trkpt>
      <trkpt lat="46.26537" lon="10.40855">
        <ele>2172.431</ele>
        <time>2018-09-13T13:26:05Z</time>
      </trkpt>
      <trkpt lat="46.26572" lon="10.40883">
        <ele>2180.024</ele>
        <time>2018-09-13T13:26:25Z</time>
      </trkpt>
      <trkpt lat="46.26589" lon="10.40894">
        <ele>2182.908</ele>
        <time>2018-09-13T13:26:45Z</time>
      </trkpt>
      <trkpt lat="46.26603" lon="10.40898">
        <ele>2183.141</ele>
        <time>2018-09-13T13:27:05Z</time>
      </trkpt>
      <trkpt lat="46.26607" lon="10.409">
        <ele>2184.197</ele>
        <time>2018-09-13T13:27:25Z</time>
      </trkpt>
      <trkpt lat="46.26611" lon="10.40902">
        <ele>2184.994</ele>
        <time>2018-09-13T13:27:45Z</time>
      </trkpt>
      <trkpt lat="46.26634" lon="10.40926">
        <ele>2194.027</ele>
        <time>2018-09-13T13:28:05Z</time>
      </trkpt>
      <trkpt lat="46.26658" lon="10.40952">
        <ele>2207.91</ele>
        <time>2018-09-13T13:28:25Z</time>
      </trkpt>
      <trkpt lat="46.26663" lon="10.40954">
        <ele>2209.553</ele>
        <time>2018-09-13T13:28:45Z</time>
      </trkpt>
      <trkpt lat="46.26665" lon="10.40956">
        <ele>2210.521</ele>
        <time>2018-09-13T13:29:05Z</time>
      </trkpt>
      <trkpt lat="46.26676" lon="10.40964">
        <ele>2215.088</ele>
        <time>2018-09-13T13:29:25Z</time>
      </trkpt>
      <trkpt lat="46.26694" lon="10.40969">
        <ele>2218.631</ele>
        <time>2018-09-13T13:29:45Z</time>
      </trkpt>
      <trkpt lat="46.26705" lon="10.40973">
        <ele>2218.761</ele>
        <time>2018-09-13T13:30:05Z</time>
      </trkpt>
      <trkpt lat="46.2671" lon="10.40975">
        <ele>2219.407</ele>
        <time>2018-09-13T13:30:25Z</time>
      </trkpt>
      <trkpt lat="46.26684" lon="10.41001">
        <ele>2237.808</ele>
        <time>2018-09-13T13:30:45Z</time>
      </trkpt>
      <trkpt lat="46.26658" lon="10.41018">
        <ele>2249.285</ele>
        <time>2018-09-13T13:31:05Z</time>
      </trkpt>
      <trkpt lat="46.26633" lon="10.41028">
        <ele>2253.081</ele>
        <time>2018-09-13T13:31:25Z</time>
      </trkpt>
      <trkpt lat="46.26615" lon="10.41061">
        <ele>2269.448</ele>
        <time>2018-09-13T13:31:45Z</time>
      </trkpt>
      <trkpt lat="46.26688" lon="10.41055">
        <ele>2278.031</ele>
        <time>2018-09-13T13:32:05Z</time>
      </trkpt>
      <trkpt lat="46.2671" lon="10.41059">
        <ele>2278.924</ele>
        <time>2018-09-13T13:32:25Z</time>
      </trkpt>
      <trkpt lat="46.26719" lon="10.41066">
        <ele>2280.737</ele>
        <time>2018-09-13T13:32:45Z</time>
      </trkpt>
      <trkpt lat="46.26758" lon="10.41099">
        <ele>2287.785</ele>
        <time>2018-09-13T13:33:05Z</time>
      </trkpt>
      <trkpt lat="46.26807" lon="10.41123">
        <ele>2297.882</ele>
        <time>2018-09-13T13:33:25Z</time>
      </trkpt>
      <trkpt lat="46.26819" lon="10.4113">
        <ele>2302.198</ele>
        <time>2018-09-13T13:33:45Z</time>
      </trkpt>
      <trkpt lat="46.26863" lon="10.41164">
        <ele>2318.015</ele>
        <time>2018-09-13T13:34:05Z</time>
      </trkpt>
      <trkpt lat="46.26867" lon="10.41169">
        <ele>2319.226</ele>
        <time>2018-09-13T13:34:25Z</time>
      </trkpt>
      <trkpt lat="46.26904" lon="10.41223">
        <ele>2345.508</ele>
        <time>2018-09-13T13:34:45Z</time>
      </trkpt>
      <trkpt lat="46.26922" lon="10.41245">
        <ele>2362.121</ele>
        <time>2018-09-13T13:35:05Z</time>
      </trkpt>
      <trkpt lat="46.26954" lon="10.4125">
        <ele>2383.227</ele>
        <time>2018-09-13T13:35:25Z</time>
      </trkpt>
      <trkpt lat="46.2699" lon="10.41238">
        <ele>2378.734</ele>
        <time>2018-09-13T13:35:45Z</time>
      </trkpt>
      <trkpt lat="46.27008" lon="10.41238">
        <ele>2376.097</ele>
        <time>2018-09-13T13:36:05Z</time>
      </trkpt>
      <trkpt lat="46.27024" lon="10.41259">
        <ele>2384.01</ele>
        <time>2018-09-13T13:36:25Z</time>
      </trkpt>
      <trkpt lat="46.27041" lon="10.41288">
        <ele>2394.713</ele>
        <time>2018-09-13T13:36:45Z</time>
      </trkpt>
      <trkpt lat="46.27046" lon="10.41311">
        <ele>2404.081</ele>
        <time>2018-09-13T13:37:05Z</time>
      </trkpt>
      <trkpt lat="46.27007" lon="10.41297">
        <ele>2402.848</ele>
        <time>2018-09-13T13:37:25Z</time>
      </trkpt>
      <trkpt lat="46.26986" lon="10.41326">
        <ele>2415.538</ele>
        <time>2018-09-13T13:37:45Z</time>
      </trkpt>
      <trkpt lat="46.26963" lon="10.41338">
        <ele>2418.17</ele>
        <time>2018-09-13T13:38:05Z</time>
      </trkpt>
      <trkpt lat="46.26931" lon="10.41355">
        <ele>2416.617</ele>
        <time>2018-09-13T13:38:25Z</time>
      </trkpt>
      <trkpt lat="46.26912" lon="10.41366">
        <ele>2416.408</ele>
        <time>2018-09-13T13:38:45Z</time>
      </trkpt>
      <trkpt lat="46.26911" lon="10.41367">
        <ele>2416.575</ele>
        <time>2018-09-13T13:39:05Z</time>
      </trkpt>
      <trkpt lat="46.26905" lon="10.4137">
        <ele>2417.121</ele>
        <time>2018-09-13T13:39:25Z</time>
      </trkpt>
      <trkpt lat="46.26883" lon="10.41369">
        <ele>2415.148</ele>
        <time>2018-09-13T13:39:45Z</time>
      </trkpt>
      <trkpt lat="46.2686" lon="10.41384">
        <ele>2422.781</ele>
        <time>2018-09-13T13:40:05Z</time>
      </trkpt>
      <trkpt lat="46.26845" lon="10.41394">
        <ele>2424.454</ele>
        <time>2018-09-13T13:40:25Z</time>
      </trkpt>
      <trkpt lat="46.26888" lon="10.41392">
        <ele>2422.847</ele>
        <time>2018-09-13T13:40:45Z</time>
      </trkpt>
      <trkpt lat="46.26926" lon="10.41416">
        <ele>2435.135</ele>
        <time>2018-09-13T13:41:05Z</time>
      </trkpt>
      <trkpt lat="46.27018" lon="10.41442">
        <ele>2455.182</ele>
        <time>2018-09-13T13:41:25Z</time>
      </trkpt>
      <trkpt lat="46.27027" lon="10.41447">
        <ele>2456.317</ele>
        <time>2018-09-13T13:41:45Z</time>
      </trkpt>
      <trkpt lat="46.27034" lon="10.41449">
        <ele>2457.587</ele>
        <time>2018-09-13T13:42:05Z</time>
      </trkpt>
      <trkpt lat="46.27084" lon="10.41476">
        <ele>2463.915</ele>
        <time>2018-09-13T13:42:25Z</time>
      </trkpt>
      <trkpt lat="46.27118" lon="10.41503">
        <ele>2461.408</ele>
        <time>2018-09-13T13:42:45Z</time>
      </trkpt>
      <trkpt lat="46.27143" lon="10.41575">
        <ele>2474.483</ele>
        <time>2018-09-13T13:43:05Z</time>
      </trkpt>
      <trkpt lat="46.27175" lon="10.41608">
        <ele>2485.879</ele>
        <time>2018-09-13T13:43:25Z</time>
      </trkpt>
      <trkpt lat="46.2721" lon="10.41631">
        <ele>2495.186</ele>
        <time>2018-09-13T13:43:45Z</time>
      </trkpt>
      <trkpt lat="46.27243" lon="10.41636">
        <ele>2496.859</ele>
        <time>2018-09-13T13:44:05Z</time>
      </trkpt>
      <trkpt lat="46.2728" lon="10.41656">
        <ele>2501.112</ele>
        <time>2018-09-13T13:44:25Z</time>
      </trkpt>
      <trkpt lat="46.27313" lon="10.41685">
        <ele>2491.235</ele>
        <time>2018-09-13T13:44:45Z</time>
      </trkpt>
      <trkpt lat="46.27322" lon="10.41716">
        <ele>2495.173</ele>
        <time>2018-09-13T13:45:05Z</time>
      </trkpt>
      <trkpt lat="46.27339" lon="10.41752">
        <ele>2496.38</ele>
        <time>2018-09-13T13:45:25Z</time>
      </trkpt>
      <trkpt lat="46.27338" lon="10.41776">
        <ele>2500.365</ele>
        <time>2018-09-13T13:45:45Z</time>
      </trkpt>
      <trkpt lat="46.27341" lon="10.41778">
        <ele>2499.568</ele>
        <time>2018-09-13T13:46:05Z</time>
      </trkpt>
      <trkpt lat="46.27368" lon="10.41802">
        <ele>2496.314</ele>
        <time>2018-09-13T13:46:25Z</time>
      </trkpt>
      <trkpt lat="46.27372" lon="10.41804">
        <ele>2495.308</ele>
        <time>2018-09-13T13:46:45Z</time>
      </trkpt>
      <trkpt lat="46.27394" lon="10.41814">
        <ele>2491.118</ele>
        <time>2018-09-13T13:47:05Z</time>
      </trkpt>
      <trkpt lat="46.27401" lon="10.41817">
        <ele>2489.984</ele>
        <time>2018-09-13T13:47:25Z</time>
      </trkpt>
      <trkpt lat="46.27412" lon="10.41822">
        <ele>2488.851</ele>
        <time>2018-09-13T13:47:45Z</time>
      </trkpt>
      <trkpt lat="46.27413" lon="10.41822">
        <ele>2488.754</ele>
        <time>2018-09-13T13:48:05Z</time>
      </trkpt>
      <trkpt lat="46.27424" lon="10.4183">
        <ele>2490.167</ele>
        <time>2018-09-13T13:48:25Z</time>
      </trkpt>
      <trkpt lat="46.27446" lon="10.41839">
        <ele>2490.39</ele>
        <time>2018-09-13T13:48:45Z</time>
      </trkpt>
      <trkpt lat="46.27457" lon="10.41844">
        <ele>2491.748</ele>
        <time>2018-09-13T13:49:05Z</time>
      </trkpt>
      <trkpt lat="46.27466" lon="10.41844">
        <ele>2491.395</ele>
        <time>2018-09-13T13:49:25Z</time>
      </trkpt>
      <trkpt lat="46.27489" lon="10.41843">
        <ele>2492.461</ele>
        <time>2018-09-13T13:49:45Z</time>
      </trkpt>
      <trkpt lat="46.27491" lon="10.41845">
        <ele>2493.221</ele>
        <time>2018-09-13T13:50:05Z</time>
      </trkpt>
      <trkpt lat="46.27519" lon="10.41861">
        <ele>2500.013</ele>
        <time>2018-09-13T13:50:25Z</time>
      </trkpt>
      <trkpt lat="46.27541" lon="10.41874">
        <ele>2499.608</ele>
        <time>2018-09-13T13:50:45Z</time>
      </trkpt>
      <trkpt lat="46.27582" lon="10.41882">
        <ele>2504.548</ele>
        <time>2018-09-13T13:51:05Z</time>
      </trkpt>
      <trkpt lat="46.27589" lon="10.41893">
        <ele>2511.174</ele>
        <time>2018-09-13T13:51:25Z</time>
      </trkpt>
      <trkpt lat="46.27601" lon="10.41905">
        <ele>2519.791</ele>
        <time>2018-09-13T13:51:45Z</time>
      </trkpt>
      <trkpt lat="46.27621" lon="10.41923">
        <ele>2526.334</ele>
        <time>2018-09-13T13:52:05Z</time>
      </trkpt>
      <trkpt lat="46.27634" lon="10.41936">
        <ele>2526.197</ele>
        <time>2018-09-13T13:52:25Z</time>
      </trkpt>
      <trkpt lat="46.27635" lon="10.41936">
        <ele>2526.14</ele>
        <time>2018-09-13T13:52:45Z</time>
      </trkpt>
      <trkpt lat="46.27638" lon="10.41938">
        <ele>2526.558</ele>
        <time>2018-09-13T13:53:05Z</time>
      </trkpt>
      <trkpt lat="46.27648" lon="10.41945">
        <ele>2533.545</ele>
        <time>2018-09-13T13:53:25Z</time>
      </trkpt>
      <trkpt lat="46.27663" lon="10.4196">
        <ele>2534.421</ele>
        <time>2018-09-13T13:53:45Z</time>
      </trkpt>
      <trkpt lat="46.27673" lon="10.41987">
        <ele>2527.141</ele>
        <time>2018-09-13T13:54:05Z</time>
      </trkpt>
      <trkpt lat="46.27676" lon="10.42027">
        <ele>2520.305</ele>
        <time>2018-09-13T13:54:25Z</time>
      </trkpt>
      <trkpt lat="46.27676" lon="10.42028">
        <ele>2520.208</ele>
        <time>2018-09-13T13:54:45Z</time>
      </trkpt>
      <trkpt lat="46.27668" lon="10.42045">
        <ele>2518.154</ele>
        <time>2018-09-13T13:55:05Z</time>
      </trkpt>
      <trkpt lat="46.27653" lon="10.42064">
        <ele>2513.58</ele>
        <time>2018-09-13T13:55:25Z</time>
      </trkpt>
      <trkpt lat="46.27649" lon="10.42076">
        <ele>2512.997</ele>
        <time>2018-09-13T13:55:45Z</time>
      </trkpt>
      <trkpt lat="46.27648" lon="10.42079">
        <ele>2512.84</ele>
        <time>2018-09-13T13:56:05Z</time>
      </trkpt>
      <trkpt lat="46.27647" lon="10.42095">
        <ele>2514.383</ele>
        <time>2018-09-13T13:56:25Z</time>
      </trkpt>
      <trkpt lat="46.27647" lon="10.42113">
        <ele>2516.296</ele>
        <time>2018-09-13T13:56:45Z</time>
      </trkpt>
      <trkpt lat="46.27643" lon="10.42142">
        <ele>2518.544</ele>
        <time>2018-09-13T13:57:05Z</time>
      </trkpt>
      <trkpt lat="46.27645" lon="10.42165">
        <ele>2522.481</ele>
        <time>2018-09-13T13:57:25Z</time>
      </trkpt>
      <trkpt lat="46.27647" lon="10.42192">
        <ele>2527.249</ele>
        <time>2018-09-13T13:57:45Z</time>
      </trkpt>
      <trkpt lat="46.27647" lon="10.42206">
        <ele>2530.202</ele>
        <time>2018-09-13T13:58:05Z</time>
      </trkpt>
      <trkpt lat="46.2765" lon="10.42222">
        <ele>2535.022</ele>
        <time>2018-09-13T13:58:25Z</time>
      </trkpt>
      <trkpt lat="46.2765" lon="10.42238">
        <ele>2536.208</ele>
        <time>2018-09-13T13:58:45Z</time>
      </trkpt>
      <trkpt lat="46.27648" lon="10.42247">
        <ele>2535.766</ele>
        <time>2018-09-13T13:59:05Z</time>
      </trkpt>
      <trkpt lat="46.27645" lon="10.42257">
        <ele>2535.382</ele>
        <time>2018-09-13T13:59:25Z</time>
      </trkpt>
      <trkpt lat="46.27637" lon="10.42268">
        <ele>2531.649</ele>
        <time>2018-09-13T13:59:45Z</time>
      </trkpt>
      <trkpt lat="46.27629" lon="10.42276">
        <ele>2527.492</ele>
        <time>2018-09-13T14:00:05Z</time>
      </trkpt>
      <trkpt lat="46.27625" lon="10.42292">
        <ele>2526.625</ele>
        <time>2018-09-13T14:00:25Z</time>
      </trkpt>
      <trkpt lat="46.27615" lon="10.42317">
        <ele>2515.278</ele>
        <time>2018-09-13T14:00:45Z</time>
      </trkpt>
      <trkpt lat="46.27601" lon="10.42343">
        <ele>2495.126</ele>
        <time>2018-09-13T14:01:05Z</time>
      </trkpt>
      <trkpt lat="46.276" lon="10.42347">
        <ele>2495.283</ele>
        <time>2018-09-13T14:01:25Z</time>
      </trkpt>
      <trkpt lat="46.27593" lon="10.42367">
        <ele>2494.771</ele>
        <time>2018-09-13T14:01:45Z</time>
      </trkpt>
      <trkpt lat="46.27592" lon="10.42371">
        <ele>2495.141</ele>
        <time>2018-09-13T14:02:05Z</time>
      </trkpt>
      <trkpt lat="46.27592" lon="10.42386">
        <ele>2499.215</ele>
        <time>2018-09-13T14:02:25Z</time>
      </trkpt>
      <trkpt lat="46.27591" lon="10.42408">
        <ele>2501.008</ele>
        <time>2018-09-13T14:02:45Z</time>
      </trkpt>
      <trkpt lat="46.2759" lon="10.42427">
        <ele>2503.449</ele>
        <time>2018-09-13T14:03:05Z</time>
      </trkpt>
      <trkpt lat="46.27585" lon="10.42444">
        <ele>2502.035</ele>
        <time>2018-09-13T14:03:25Z</time>
      </trkpt>
      <trkpt lat="46.27585" lon="10.42479">
        <ele>2515.052</ele>
        <time>2018-09-13T14:03:45Z</time>
      </trkpt>
      <trkpt lat="46.27585" lon="10.42484">
        <ele>2516.985</ele>
        <time>2018-09-13T14:04:05Z</time>
      </trkpt>
      <trkpt lat="46.27575" lon="10.42499">
        <ele>2516.218</ele>
        <time>2018-09-13T14:04:25Z</time>
      </trkpt>
      <trkpt lat="46.27573" lon="10.42503">
        <ele>2516.111</ele>
        <time>2018-09-13T14:04:45Z</time>
      </trkpt>
      <trkpt lat="46.27573" lon="10.42514">
        <ele>2518.979</ele>
        <time>2018-09-13T14:05:05Z</time>
      </trkpt>
      <trkpt lat="46.27572" lon="10.42524">
        <ele>2521.266</ele>
        <time>2018-09-13T14:05:25Z</time>
      </trkpt>
      <trkpt lat="46.27571" lon="10.42528">
        <ele>2521.792</ele>
        <time>2018-09-13T14:05:45Z</time>
      </trkpt>
      <trkpt lat="46.27571" lon="10.42537">
        <ele>2523.673</ele>
        <time>2018-09-13T14:06:05Z</time>
      </trkpt>
      <trkpt lat="46.27567" lon="10.42542">
        <ele>2523.52</ele>
        <time>2018-09-13T14:06:25Z</time>
      </trkpt>
      <trkpt lat="46.27565" lon="10.42547">
        <ele>2524.408</ele>
        <time>2018-09-13T14:06:45Z</time>
      </trkpt>
      <trkpt lat="46.27556" lon="10.42567">
        <ele>2526.291</ele>
        <time>2018-09-13T14:07:05Z</time>
      </trkpt>
      <trkpt lat="46.27551" lon="10.42578">
        <ele>2525.957</ele>
        <time>2018-09-13T14:07:25Z</time>
      </trkpt>
      <trkpt lat="46.27549" lon="10.4259">
        <ele>2527.334</ele>
        <time>2018-09-13T14:07:45Z</time>
      </trkpt>
      <trkpt lat="46.27549" lon="10.42603">
        <ele>2528.987</ele>
        <time>2018-09-13T14:08:05Z</time>
      </trkpt>
      <trkpt lat="46.27556" lon="10.42629">
        <ele>2533.07</ele>
        <time>2018-09-13T14:08:25Z</time>
      </trkpt>
      <trkpt lat="46.27572" lon="10.42653">
        <ele>2537.893</ele>
        <time>2018-09-13T14:08:45Z</time>
      </trkpt>
      <trkpt lat="46.27576" lon="10.4266">
        <ele>2539.211</ele>
        <time>2018-09-13T14:09:05Z</time>
      </trkpt>
      <trkpt lat="46.27587" lon="10.4268">
        <ele>2544.848</ele>
        <time>2018-09-13T14:09:25Z</time>
      </trkpt>
      <trkpt lat="46.27592" lon="10.42699">
        <ele>2549.069</ele>
        <time>2018-09-13T14:09:45Z</time>
      </trkpt>
      <trkpt lat="46.27595" lon="10.42724">
        <ele>2552.204</ele>
        <time>2018-09-13T14:10:05Z</time>
      </trkpt>
      <trkpt lat="46.27596" lon="10.42741">
        <ele>2555.024</ele>
        <time>2018-09-13T14:10:25Z</time>
      </trkpt>
      <trkpt lat="46.27594" lon="10.42763">
        <ele>2558.208</ele>
        <time>2018-09-13T14:10:45Z</time>
      </trkpt>
      <trkpt lat="46.27588" lon="10.42782">
        <ele>2561.148</ele>
        <time>2018-09-13T14:11:05Z</time>
      </trkpt>
      <trkpt lat="46.2758" lon="10.42791">
        <ele>2561.254</ele>
        <time>2018-09-13T14:11:25Z</time>
      </trkpt>
      <trkpt lat="46.27559" lon="10.42812">
        <ele>2563.171</ele>
        <time>2018-09-13T14:11:45Z</time>
      </trkpt>
      <trkpt lat="46.27548" lon="10.42814">
        <ele>2561.084</ele>
        <time>2018-09-13T14:12:05Z</time>
      </trkpt>
      <trkpt lat="46.27541" lon="10.42813">
        <ele>2558.917</ele>
        <time>2018-09-13T14:12:25Z</time>
      </trkpt>
      <trkpt lat="46.27535" lon="10.42812">
        <ele>2557.39</ele>
        <time>2018-09-13T14:12:45Z</time>
      </trkpt>
      <trkpt lat="46.27534" lon="10.42812">
        <ele>2556.858</ele>
        <time>2018-09-13T14:13:05Z</time>
      </trkpt>
      <trkpt lat="46.27525" lon="10.4281">
        <ele>2554.565</ele>
        <time>2018-09-13T14:13:25Z</time>
      </trkpt>
      <trkpt lat="46.27522" lon="10.42807">
        <ele>2553.551</ele>
        <time>2018-09-13T14:13:45Z</time>
      </trkpt>
      <trkpt lat="46.27517" lon="10.42803">
        <ele>2552.301</ele>
        <time>2018-09-13T14:14:05Z</time>
      </trkpt>
      <trkpt lat="46.27511" lon="10.42805">
        <ele>2552.011</ele>
        <time>2018-09-13T14:14:25Z</time>
      </trkpt>
      <trkpt lat="46.27509" lon="10.4281">
        <ele>2552.208</ele>
        <time>2018-09-13T14:14:45Z</time>
      </trkpt>
      <trkpt lat="46.27507" lon="10.42815">
        <ele>2552.217</ele>
        <time>2018-09-13T14:15:05Z</time>
      </trkpt>
      <trkpt lat="46.27507" lon="10.42816">
        <ele>2552.233</ele>
        <time>2018-09-13T14:15:25Z</time>
      </trkpt>
      <trkpt lat="46.27499" lon="10.42815">
        <ele>2550.74</ele>
        <time>2018-09-13T14:15:45Z</time>
      </trkpt>
      <trkpt lat="46.27505" lon="10.42821">
        <ele>2552.243</ele>
        <time>2018-09-13T14:16:05Z</time>
      </trkpt>
      <trkpt lat="46.27505" lon="10.42823">
        <ele>2552.246</ele>
        <time>2018-09-13T14:16:25Z</time>
      </trkpt>
      <trkpt lat="46.2751" lon="10.42829">
        <ele>2553.739</ele>
        <time>2018-09-13T14:16:45Z</time>
      </trkpt>
      <trkpt lat="46.27514" lon="10.4283">
        <ele>2555.217</ele>
        <time>2018-09-13T14:17:05Z</time>
      </trkpt>
      <trkpt lat="46.27517" lon="10.42831">
        <ele>2556.134</ele>
        <time>2018-09-13T14:17:25Z</time>
      </trkpt>
      <trkpt lat="46.27524" lon="10.42836">
        <ele>2558.883</ele>
        <time>2018-09-13T14:17:45Z</time>
      </trkpt>
      <trkpt lat="46.27529" lon="10.42845">
        <ele>2561.325</ele>
        <time>2018-09-13T14:18:05Z</time>
      </trkpt>
      <trkpt lat="46.27533" lon="10.42856">
        <ele>2563.817</ele>
        <time>2018-09-13T14:18:25Z</time>
      </trkpt>
      <trkpt lat="46.27538" lon="10.42861">
        <ele>2567.308</ele>
        <time>2018-09-13T14:18:45Z</time>
      </trkpt>
      <trkpt lat="46.27537" lon="10.42866">
        <ele>2565.86</ele>
        <time>2018-09-13T14:19:05Z</time>
      </trkpt>
      <trkpt lat="46.27537" lon="10.42867">
        <ele>2565.846</ele>
        <time>2018-09-13T14:19:25Z</time>
      </trkpt>
      <trkpt lat="46.27537" lon="10.42869">
        <ele>2565.493</ele>
        <time>2018-09-13T14:19:45Z</time>
      </trkpt>
      <trkpt lat="46.27536" lon="10.42876">
        <ele>2564.246</ele>
        <time>2018-09-13T14:20:05Z</time>
      </trkpt>
      <trkpt lat="46.27538" lon="10.42882">
        <ele>2564.199</ele>
        <time>2018-09-13T14:20:25Z</time>
      </trkpt>
      <trkpt lat="46.27541" lon="10.42887">
        <ele>2565.952</ele>
        <time>2018-09-13T14:20:45Z</time>
      </trkpt>
      <trkpt lat="46.27543" lon="10.42889">
        <ele>2566.84</ele>
        <time>2018-09-13T14:21:05Z</time>
      </trkpt>
      <trkpt lat="46.27544" lon="10.4289">
        <ele>2567.317</ele>
        <time>2018-09-13T14:21:25Z</time>
      </trkpt>
      <trkpt lat="46.27547" lon="10.42896">
        <ele>2568.171</ele>
        <time>2018-09-13T14:21:45Z</time>
      </trkpt>
      <trkpt lat="46.27548" lon="10.42899">
        <ele>2568.141</ele>
        <time>2018-09-13T14:22:05Z</time>
      </trkpt>
      <trkpt lat="46.27545" lon="10.42903">
        <ele>2565.215</ele>
        <time>2018-09-13T14:22:25Z</time>
      </trkpt>
      <trkpt lat="46.27546" lon="10.4291">
        <ele>2564.308</ele>
        <time>2018-09-13T14:22:45Z</time>
      </trkpt>
      <trkpt lat="46.27532" lon="10.42893">
        <ele>2558.859</ele>
        <time>2018-09-13T14:23:05Z</time>
      </trkpt>
      <trkpt lat="46.27528" lon="10.42888">
        <ele>2557.235</ele>
        <time>2018-09-13T14:23:25Z</time>
      </trkpt>
      <trkpt lat="46.27528" lon="10.42904">
        <ele>2554.532</ele>
        <time>2018-09-13T14:23:45Z</time>
      </trkpt>
      <trkpt lat="46.27528" lon="10.42911">
        <ele>2553.325</ele>
        <time>2018-09-13T14:24:05Z</time>
      </trkpt>
      <trkpt lat="46.27528" lon="10.42912">
        <ele>2553.128</ele>
        <time>2018-09-13T14:24:25Z</time>
      </trkpt>
      <trkpt lat="46.27527" lon="10.42914">
        <ele>2552.241</ele>
        <time>2018-09-13T14:24:45Z</time>
      </trkpt>
      <trkpt lat="46.27527" lon="10.42915">
        <ele>2551.739</ele>
        <time>2018-09-13T14:25:05Z</time>
      </trkpt>
      <trkpt lat="46.27522" lon="10.42912">
        <ele>2549.716</ele>
        <time>2018-09-13T14:25:25Z</time>
      </trkpt>
      <trkpt lat="46.2752" lon="10.4291">
        <ele>2548.975</ele>
        <time>2018-09-13T14:25:45Z</time>
      </trkpt>
      <trkpt lat="46.27517" lon="10.42908">
        <ele>2548.028</ele>
        <time>2018-09-13T14:26:05Z</time>
      </trkpt>
      <trkpt lat="46.27514" lon="10.42909">
        <ele>2545.82</ele>
        <time>2018-09-13T14:26:25Z</time>
      </trkpt>
      <trkpt lat="46.27514" lon="10.42912">
        <ele>2545.308</ele>
        <time>2018-09-13T14:26:45Z</time>
      </trkpt>
      <trkpt lat="46.27512" lon="10.42911">
        <ele>2544.639</ele>
        <time>2018-09-13T14:27:05Z</time>
      </trkpt>
      <trkpt lat="46.27514" lon="10.42918">
        <ele>2544.115</ele>
        <time>2018-09-13T14:27:25Z</time>
      </trkpt>
      <trkpt lat="46.27514" lon="10.42919">
        <ele>2544.072</ele>
        <time>2018-09-13T14:27:45Z</time>
      </trkpt>
      <trkpt lat="46.27514" lon="10.42921">
        <ele>2544.085</ele>
        <time>2018-09-13T14:28:05Z</time>
      </trkpt>
      <trkpt lat="46.2752" lon="10.42946">
        <ele>2543.098</ele>
        <time>2018-09-13T14:28:25Z</time>
      </trkpt>
      <trkpt lat="46.27519" lon="10.42954">
        <ele>2541.341</ele>
        <time>2018-09-13T14:28:45Z</time>
      </trkpt>
      <trkpt lat="46.27518" lon="10.42965">
        <ele>2538.779</ele>
        <time>2018-09-13T14:29:05Z</time>
      </trkpt>
      <trkpt lat="46.27516" lon="10.42974">
        <ele>2536.066</ele>
        <time>2018-09-13T14:29:25Z</time>
      </trkpt>
      <trkpt lat="46.27513" lon="10.42986">
        <ele>2532.715</ele>
        <time>2018-09-13T14:29:45Z</time>
      </trkpt>
      <trkpt lat="46.27514" lon="10.42995">
        <ele>2532.265</ele>
        <time>2018-09-13T14:30:05Z</time>
      </trkpt>
      <trkpt lat="46.27519" lon="10.43002">
        <ele>2533.411</ele>
        <time>2018-09-13T14:30:25Z</time>
      </trkpt>
      <trkpt lat="46.27523" lon="10.43011">
        <ele>2534.108</ele>
        <time>2018-09-13T14:30:45Z</time>
      </trkpt>
      <trkpt lat="46.27527" lon="10.4302">
        <ele>2533.913</ele>
        <time>2018-09-13T14:31:05Z</time>
      </trkpt>
      <trkpt lat="46.27531" lon="10.43033">
        <ele>2534.289</ele>
        <time>2018-09-13T14:31:25Z</time>
      </trkpt>
      <trkpt lat="46.27534" lon="10.43045">
        <ele>2534.786</ele>
        <time>2018-09-13T14:31:45Z</time>
      </trkpt>
      <trkpt lat="46.27533" lon="10.43045">
        <ele>2534.739</ele>
        <time>2018-09-13T14:32:05Z</time>
      </trkpt>
      <trkpt lat="46.27526" lon="10.43045">
        <ele>2531.932</ele>
        <time>2018-09-13T14:32:25Z</time>
      </trkpt>
      <trkpt lat="46.27522" lon="10.43043">
        <ele>2530.465</ele>
        <time>2018-09-13T14:32:45Z</time>
      </trkpt>
      <trkpt lat="46.27516" lon="10.43038">
        <ele>2528.413</ele>
        <time>2018-09-13T14:33:05Z</time>
      </trkpt>
      <trkpt lat="46.2751" lon="10.43035">
        <ele>2526.58</ele>
        <time>2018-09-13T14:33:25Z</time>
      </trkpt>
      <trkpt lat="46.27501" lon="10.43031">
        <ele>2523.462</ele>
        <time>2018-09-13T14:33:45Z</time>
      </trkpt>
      <trkpt lat="46.27494" lon="10.43026">
        <ele>2521.683</ele>
        <time>2018-09-13T14:34:05Z</time>
      </trkpt>
      <trkpt lat="46.27481" lon="10.43015">
        <ele>2518.611</ele>
        <time>2018-09-13T14:34:25Z</time>
      </trkpt>
      <trkpt lat="46.2747" lon="10.43001">
        <ele>2515.308</ele>
        <time>2018-09-13T14:34:45Z</time>
      </trkpt>
      <trkpt lat="46.27465" lon="10.42989">
        <ele>2513.728</ele>
        <time>2018-09-13T14:35:05Z</time>
      </trkpt>
      <trkpt lat="46.27455" lon="10.42985">
        <ele>2509.914</ele>
        <time>2018-09-13T14:35:25Z</time>
      </trkpt>
      <trkpt lat="46.27454" lon="10.42984">
        <ele>2509.441</ele>
        <time>2018-09-13T14:35:45Z</time>
      </trkpt>
      <trkpt lat="46.2745" lon="10.42979">
        <ele>2507.584</ele>
        <time>2018-09-13T14:36:05Z</time>
      </trkpt>
      <trkpt lat="46.27441" lon="10.42967">
        <ele>2503.117</ele>
        <time>2018-09-13T14:36:25Z</time>
      </trkpt>
      <trkpt lat="46.27438" lon="10.42962">
        <ele>2501.14</ele>
        <time>2018-09-13T14:36:45Z</time>
      </trkpt>
      <trkpt lat="46.27432" lon="10.42943">
        <ele>2497.158</ele>
        <time>2018-09-13T14:37:05Z</time>
      </trkpt>
      <trkpt lat="46.27432" lon="10.42942">
        <ele>2497.095</ele>
        <time>2018-09-13T14:37:25Z</time>
      </trkpt>
      <trkpt lat="46.27429" lon="10.42926">
        <ele>2495.295</ele>
        <time>2018-09-13T14:37:45Z</time>
      </trkpt>
      <trkpt lat="46.27415" lon="10.42909">
        <ele>2488.849</ele>
        <time>2018-09-13T14:38:05Z</time>
      </trkpt>
      <trkpt lat="46.27408" lon="10.42913">
        <ele>2484.323</ele>
        <time>2018-09-13T14:38:25Z</time>
      </trkpt>
      <trkpt lat="46.27402" lon="10.42913">
        <ele>2481.308</ele>
        <time>2018-09-13T14:38:45Z</time>
      </trkpt>
      <trkpt lat="46.27392" lon="10.42912">
        <ele>2476.051</ele>
        <time>2018-09-13T14:39:05Z</time>
      </trkpt>
      <trkpt lat="46.2739" lon="10.42912">
        <ele>2475.257</ele>
        <time>2018-09-13T14:39:25Z</time>
      </trkpt>
      <trkpt lat="46.27387" lon="10.4291">
        <ele>2473.814</ele>
        <time>2018-09-13T14:39:45Z</time>
      </trkpt>
      <trkpt lat="46.27378" lon="10.42906">
        <ele>2470.777</ele>
        <time>2018-09-13T14:40:05Z</time>
      </trkpt>
      <trkpt lat="46.27365" lon="10.42903">
        <ele>2466.17</ele>
        <time>2018-09-13T14:40:25Z</time>
      </trkpt>
      <trkpt lat="46.27364" lon="10.42904">
        <ele>2465.383</ele>
        <time>2018-09-13T14:40:45Z</time>
      </trkpt>
      <trkpt lat="46.27354" lon="10.42906">
        <ele>2461.531</ele>
        <time>2018-09-13T14:41:05Z</time>
      </trkpt>
      <trkpt lat="46.27339" lon="10.42915">
        <ele>2454.348</ele>
        <time>2018-09-13T14:41:25Z</time>
      </trkpt>
      <trkpt lat="46.27329" lon="10.4292">
        <ele>2449.529</ele>
        <time>2018-09-13T14:41:45Z</time>
      </trkpt>
      <trkpt lat="46.27318" lon="10.42932">
        <ele>2442.2</ele>
        <time>2018-09-13T14:42:05Z</time>
      </trkpt>
      <trkpt lat="46.27315" lon="10.42937">
        <ele>2439.82</ele>
        <time>2018-09-13T14:42:25Z</time>
      </trkpt>
      <trkpt lat="46.27312" lon="10.42944">
        <ele>2436.408</ele>
        <time>2018-09-13T14:42:45Z</time>
      </trkpt>
      <trkpt lat="46.2731" lon="10.42946">
        <ele>2435.364</ele>
        <time>2018-09-13T14:43:05Z</time>
      </trkpt>
      <trkpt lat="46.27304" lon="10.42946">
        <ele>2431.16</ele>
        <time>2018-09-13T14:43:25Z</time>
      </trkpt>
      <trkpt lat="46.27298" lon="10.42942">
        <ele>2428.727</ele>
        <time>2018-09-13T14:43:45Z</time>
      </trkpt>
      <trkpt lat="46.27297" lon="10.42939">
        <ele>2428.61</ele>
        <time>2018-09-13T14:44:05Z</time>
      </trkpt>
      <trkpt lat="46.27296" lon="10.42939">
        <ele>2428.343</ele>
        <time>2018-09-13T14:44:25Z</time>
      </trkpt>
      <trkpt lat="46.27288" lon="10.42913">
        <ele>2427.466</ele>
        <time>2018-09-13T14:44:45Z</time>
      </trkpt>
      <trkpt lat="46.27275" lon="10.42896">
        <ele>2425.264</ele>
        <time>2018-09-13T14:45:05Z</time>
      </trkpt>
      <trkpt lat="46.27265" lon="10.42884">
        <ele>2425.921</ele>
        <time>2018-09-13T14:45:25Z</time>
      </trkpt>
      <trkpt lat="46.27259" lon="10.42878">
        <ele>2426.583</ele>
        <time>2018-09-13T14:45:45Z</time>
      </trkpt>
      <trkpt lat="46.27254" lon="10.42877">
        <ele>2425.225</ele>
        <time>2018-09-13T14:46:05Z</time>
      </trkpt>
      <trkpt lat="46.27247" lon="10.42878">
        <ele>2421.917</ele>
        <time>2018-09-13T14:46:25Z</time>
      </trkpt>
      <trkpt lat="46.2724" lon="10.42887">
        <ele>2415.008</ele>
        <time>2018-09-13T14:46:45Z</time>
      </trkpt>
      <trkpt lat="46.27227" lon="10.42903">
        <ele>2403.74</ele>
        <time>2018-09-13T14:47:05Z</time>
      </trkpt>
      <trkpt lat="46.27213" lon="10.42908">
        <ele>2396.886</ele>
        <time>2018-09-13T14:47:25Z</time>
      </trkpt>
      <trkpt lat="46.27201" lon="10.42908">
        <ele>2393.073</ele>
        <time>2018-09-13T14:47:45Z</time>
      </trkpt>
      <trkpt lat="46.27192" lon="10.42906">
        <ele>2391.016</ele>
        <time>2018-09-13T14:48:05Z</time>
      </trkpt>
      <trkpt lat="46.2718" lon="10.42911">
        <ele>2387.599</ele>
        <time>2018-09-13T14:48:25Z</time>
      </trkpt>
      <trkpt lat="46.27154" lon="10.42916">
        <ele>2380.932</ele>
        <time>2018-09-13T14:48:45Z</time>
      </trkpt>
      <trkpt lat="46.27141" lon="10.42924">
        <ele>2376.53</ele>
        <time>2018-09-13T14:49:05Z</time>
      </trkpt>
      <trkpt lat="46.27112" lon="10.42947">
        <ele>2368.577</ele>
        <time>2018-09-13T14:49:25Z</time>
      </trkpt>
      <trkpt lat="46.27092" lon="10.42959">
        <ele>2363.573</ele>
        <time>2018-09-13T14:49:45Z</time>
      </trkpt>
      <trkpt lat="46.27083" lon="10.42969">
        <ele>2359.885</ele>
        <time>2018-09-13T14:50:05Z</time>
      </trkpt>
      <trkpt lat="46.27072" lon="10.42975">
        <ele>2357.013</ele>
        <time>2018-09-13T14:50:25Z</time>
      </trkpt>
      <trkpt lat="46.2707" lon="10.42975">
        <ele>2356.708</ele>
        <time>2018-09-13T14:50:45Z</time>
      </trkpt>
      <trkpt lat="46.27062" lon="10.42977">
        <ele>2355.479</ele>
        <time>2018-09-13T14:51:05Z</time>
      </trkpt>
      <trkpt lat="46.27057" lon="10.42984">
        <ele>2353.185</ele>
        <time>2018-09-13T14:51:25Z</time>
      </trkpt>
      <trkpt lat="46.27057" lon="10.42984">
        <ele>2353.142</ele>
        <time>2018-09-13T14:51:45Z</time>
      </trkpt>
      <trkpt lat="46.27045" lon="10.42999">
        <ele>2348.135</ele>
        <time>2018-09-13T14:52:05Z</time>
      </trkpt>
      <trkpt lat="46.27028" lon="10.43007">
        <ele>2344.538</ele>
        <time>2018-09-13T14:52:25Z</time>
      </trkpt>
      <trkpt lat="46.27016" lon="10.43016">
        <ele>2340.721</ele>
        <time>2018-09-13T14:52:45Z</time>
      </trkpt>
      <trkpt lat="46.27004" lon="10.43026">
        <ele>2336.289</ele>
        <time>2018-09-13T14:53:05Z</time>
      </trkpt>
      <trkpt lat="46.26998" lon="10.43035">
        <ele>2332.116</ele>
        <time>2018-09-13T14:53:25Z</time>
      </trkpt>
      <trkpt lat="46.26987" lon="10.43042">
        <ele>2326.226</ele>
        <time>2018-09-13T14:53:45Z</time>
      </trkpt>
      <trkpt lat="46.26981" lon="10.43049">
        <ele>2322.047</ele>
        <time>2018-09-13T14:54:05Z</time>
      </trkpt>
      <trkpt lat="46.26976" lon="10.43043">
        <ele>2321.411</ele>
        <time>2018-09-13T14:54:25Z</time>
      </trkpt>
      <trkpt lat="46.26974" lon="10.43043">
        <ele>2320.808</ele>
        <time>2018-09-13T14:54:45Z</time>
      </trkpt>
      <trkpt lat="46.26964" lon="10.43042">
        <ele>2318.134</ele>
        <time>2018-09-13T14:55:05Z</time>
      </trkpt>
      <trkpt lat="46.26951" lon="10.43045">
        <ele>2313.75</ele>
        <time>2018-09-13T14:55:25Z</time>
      </trkpt>
      <trkpt lat="46.26943" lon="10.43054">
        <ele>2308.917</ele>
        <time>2018-09-13T14:55:45Z</time>
      </trkpt>
      <trkpt lat="46.26938" lon="10.4306">
        <ele>2305.68</ele>
        <time>2018-09-13T14:56:05Z</time>
      </trkpt>
      <trkpt lat="46.26928" lon="10.43073">
        <ele>2296.923</ele>
        <time>2018-09-13T14:56:25Z</time>
      </trkpt>
      <trkpt lat="46.26926" lon="10.43074">
        <ele>2295.786</ele>
        <time>2018-09-13T14:56:45Z</time>
      </trkpt>
      <trkpt lat="46.26919" lon="10.43077">
        <ele>2291.544</ele>
        <time>2018-09-13T14:57:05Z</time>
      </trkpt>
      <trkpt lat="46.26917" lon="10.43078">
        <ele>2290.361</ele>
        <time>2018-09-13T14:57:25Z</time>
      </trkpt>
      <trkpt lat="46.26904" lon="10.43091">
        <ele>2280.085</ele>
        <time>2018-09-13T14:57:45Z</time>
      </trkpt>
      <trkpt lat="46.26888" lon="10.43113">
        <ele>2267.889</ele>
        <time>2018-09-13T14:58:05Z</time>
      </trkpt>
      <trkpt lat="46.2687" lon="10.43123">
        <ele>2257.717</ele>
        <time>2018-09-13T14:58:25Z</time>
      </trkpt>
      <trkpt lat="46.2686" lon="10.43128">
        <ele>2252.308</ele>
        <time>2018-09-13T14:58:45Z</time>
      </trkpt>
      <trkpt lat="46.26858" lon="10.43139">
        <ele>2248.41</ele>
        <time>2018-09-13T14:59:05Z</time>
      </trkpt>
      <trkpt lat="46.26851" lon="10.43145">
        <ele>2246.226</ele>
        <time>2018-09-13T14:59:25Z</time>
      </trkpt>
      <trkpt lat="46.26842" lon="10.43146">
        <ele>2244.663</ele>
        <time>2018-09-13T14:59:45Z</time>
      </trkpt>
      <trkpt lat="46.26835" lon="10.43145">
        <ele>2243.986</ele>
        <time>2018-09-13T15:00:05Z</time>
      </trkpt>
      <trkpt lat="46.26833" lon="10.43144">
        <ele>2243.739</ele>
        <time>2018-09-13T15:00:25Z</time>
      </trkpt>
      <trkpt lat="46.26828" lon="10.43147">
        <ele>2242.922</ele>
        <time>2018-09-13T15:00:45Z</time>
      </trkpt>
      <trkpt lat="46.26818" lon="10.43144">
        <ele>2243.13</ele>
        <time>2018-09-13T15:01:05Z</time>
      </trkpt>
      <trkpt lat="46.26812" lon="10.43161">
        <ele>2238.857</ele>
        <time>2018-09-13T15:01:25Z</time>
      </trkpt>
      <trkpt lat="46.26809" lon="10.43168">
        <ele>2236.952</ele>
        <time>2018-09-13T15:01:45Z</time>
      </trkpt>
      <trkpt lat="46.26801" lon="10.43199">
        <ele>2228.353</ele>
        <time>2018-09-13T15:02:05Z</time>
      </trkpt>
      <trkpt lat="46.26801" lon="10.432">
        <ele>2228.008</ele>
        <time>2018-09-13T15:02:25Z</time>
      </trkpt>
      <trkpt lat="46.26795" lon="10.43212">
        <ele>2224.608</ele>
        <time>2018-09-13T15:02:45Z</time>
      </trkpt>
      <trkpt lat="46.26791" lon="10.43227">
        <ele>2220.987</ele>
        <time>2018-09-13T15:03:05Z</time>
      </trkpt>
      <trkpt lat="46.26781" lon="10.43237">
        <ele>2218.553</ele>
        <time>2018-09-13T15:03:25Z</time>
      </trkpt>
      <trkpt lat="46.26773" lon="10.43242">
        <ele>2217.24</ele>
        <time>2018-09-13T15:03:45Z</time>
      </trkpt>
      <trkpt lat="46.26766" lon="10.43257">
        <ele>2214.163</ele>
        <time>2018-09-13T15:04:05Z</time>
      </trkpt>
      <trkpt lat="46.26759" lon="10.43263">
        <ele>2212.986</ele>
        <time>2018-09-13T15:04:25Z</time>
      </trkpt>
      <trkpt lat="46.26754" lon="10.43264">
        <ele>2212.539</ele>
        <time>2018-09-13T15:04:45Z</time>
      </trkpt>
      <trkpt lat="46.26749" lon="10.43272">
        <ele>2210.987</ele>
        <time>2018-09-13T15:05:05Z</time>
      </trkpt>
      <trkpt lat="46.26748" lon="10.43275">
        <ele>2210.334</ele>
        <time>2018-09-13T15:05:25Z</time>
      </trkpt>
      <trkpt lat="46.26748" lon="10.43277">
        <ele>2209.995</ele>
        <time>2018-09-13T15:05:45Z</time>
      </trkpt>
      <trkpt lat="46.26746" lon="10.43284">
        <ele>2208.649</ele>
        <time>2018-09-13T15:06:05Z</time>
      </trkpt>
      <trkpt lat="46.26745" lon="10.43292">
        <ele>2207.223</ele>
        <time>2018-09-13T15:06:25Z</time>
      </trkpt>
      <trkpt lat="46.26745" lon="10.43293">
        <ele>2207.008</ele>
        <time>2018-09-13T15:06:45Z</time>
      </trkpt>
      <trkpt lat="46.26746" lon="10.43296">
        <ele>2206.631</ele>
        <time>2018-09-13T15:07:05Z</time>
      </trkpt>
      <trkpt lat="46.2675" lon="10.43301">
        <ele>2205.827</ele>
        <time>2018-09-13T15:07:25Z</time>
      </trkpt>
      <trkpt lat="46.26753" lon="10.43306">
        <ele>2204.894</ele>
        <time>2018-09-13T15:07:45Z</time>
      </trkpt>
      <trkpt lat="46.26754" lon="10.43307">
        <ele>2204.747</ele>
        <time>2018-09-13T15:08:05Z</time>
      </trkpt>
      <trkpt lat="46.26756" lon="10.43308">
        <ele>2204.59</ele>
        <time>2018-09-13T15:08:25Z</time>
      </trkpt>
      <trkpt lat="46.26758" lon="10.4331">
        <ele>2204.133</ele>
        <time>2018-09-13T15:08:45Z</time>
      </trkpt>
      <trkpt lat="46.2676" lon="10.43311">
        <ele>2204.041</ele>
        <time>2018-09-13T15:09:05Z</time>
      </trkpt>
      <trkpt lat="46.26762" lon="10.43312">
        <ele>2203.778</ele>
        <time>2018-09-13T15:09:25Z</time>
      </trkpt>
      <trkpt lat="46.26764" lon="10.43312">
        <ele>2203.798</ele>
        <time>2018-09-13T15:09:45Z</time>
      </trkpt>
      <trkpt lat="46.26766" lon="10.43312">
        <ele>2203.715</ele>
        <time>2018-09-13T15:10:05Z</time>
      </trkpt>
      <trkpt lat="46.26766" lon="10.43312">
        <ele>2203.726</ele>
        <time>2018-09-13T15:10:25Z</time>
      </trkpt>
      <trkpt lat="46.26768" lon="10.43311">
        <ele>2203.808</ele>
        <time>2018-09-13T15:10:45Z</time>
      </trkpt>
      <trkpt lat="46.2677" lon="10.43311">
        <ele>2203.951</ele>
        <time>2018-09-13T15:11:05Z</time>
      </trkpt>
      <trkpt lat="46.26772" lon="10.4331">
        <ele>2204.057</ele>
        <time>2018-09-13T15:11:25Z</time>
      </trkpt>
      <trkpt lat="46.26774" lon="10.4331">
        <ele>2204.014</ele>
        <time>2018-09-13T15:11:45Z</time>
      </trkpt>
      <trkpt lat="46.26776" lon="10.4331">
        <ele>2204.177</ele>
        <time>2018-09-13T15:12:05Z</time>
      </trkpt>
      <trkpt lat="46.26779" lon="10.43309">
        <ele>2204.17</ele>
        <time>2018-09-13T15:12:25Z</time>
      </trkpt>
      <trkpt lat="46.26781" lon="10.43308">
        <ele>2204.213</ele>
        <time>2018-09-13T15:12:45Z</time>
      </trkpt>
      <trkpt lat="46.26783" lon="10.43308">
        <ele>2203.941</ele>
        <time>2018-09-13T15:13:05Z</time>
      </trkpt>
      <trkpt lat="46.26786" lon="10.43308">
        <ele>2203.758</ele>
        <time>2018-09-13T15:13:25Z</time>
      </trkpt>
      <trkpt lat="46.26788" lon="10.43308">
        <ele>2203.588</ele>
        <time>2018-09-13T15:13:45Z</time>
      </trkpt>
      <trkpt lat="46.2679" lon="10.43308">
        <ele>2203.324</ele>
        <time>2018-09-13T15:14:05Z</time>
      </trkpt>
      <trkpt lat="46.26792" lon="10.43308">
        <ele>2203.126</ele>
        <time>2018-09-13T15:14:25Z</time>
      </trkpt>
      <trkpt lat="46.26794" lon="10.43308">
        <ele>2202.708</ele>
        <time>2018-09-13T15:14:45Z</time>
      </trkpt>
      <trkpt lat="46.26796" lon="10.43309">
        <ele>2202.44</ele>
        <time>2018-09-13T15:15:05Z</time>
      </trkpt>
      <trkpt lat="46.26799" lon="10.4331">
        <ele>2202.136</ele>
        <time>2018-09-13T15:15:25Z</time>
      </trkpt>
      <trkpt lat="46.26801" lon="10.4331">
        <ele>2201.843</ele>
        <time>2018-09-13T15:15:45Z</time>
      </trkpt>
      <trkpt lat="46.26802" lon="10.4331">
        <ele>2201.636</ele>
        <time>2018-09-13T15:16:05Z</time>
      </trkpt>
      <trkpt lat="46.26805" lon="10.43311">
        <ele>2201.359</ele>
        <time>2018-09-13T15:16:25Z</time>
      </trkpt>
      <trkpt lat="46.26807" lon="10.43311">
        <ele>2201.222</ele>
        <time>2018-09-13T15:16:45Z</time>
      </trkpt>
      <trkpt lat="46.26833" lon="10.43303">
        <ele>2200.79</ele>
        <time>2018-09-13T15:17:05Z</time>
      </trkpt>
      <trkpt lat="46.26839" lon="10.43302">
        <ele>2202.987</ele>
        <time>2018-09-13T15:17:25Z</time>
      </trkpt>
      <trkpt lat="46.26847" lon="10.43305">
        <ele>2204.441</ele>
        <time>2018-09-13T15:17:45Z</time>
      </trkpt>
      <trkpt lat="46.2685" lon="10.43326">
        <ele>2201.681</ele>
        <time>2018-09-13T15:18:05Z</time>
      </trkpt>
      <trkpt lat="46.26862" lon="10.43353">
        <ele>2200.709</ele>
        <time>2018-09-13T15:18:25Z</time>
      </trkpt>
      <trkpt lat="46.26864" lon="10.4336">
        <ele>2201.608</ele>
        <time>2018-09-13T15:18:45Z</time>
      </trkpt>
      <trkpt lat="46.26865" lon="10.43361">
        <ele>2201.796</ele>
        <time>2018-09-13T15:19:05Z</time>
      </trkpt>
      <trkpt lat="46.26867" lon="10.43365">
        <ele>2202.332</ele>
        <time>2018-09-13T15:19:25Z</time>
      </trkpt>
      <trkpt lat="46.2687" lon="10.43378">
        <ele>2202.319</ele>
        <time>2018-09-13T15:19:45Z</time>
      </trkpt>
      <trkpt lat="46.26872" lon="10.43389">
        <ele>2202.122</ele>
        <time>2018-09-13T15:20:05Z</time>
      </trkpt>
      <trkpt lat="46.2687" lon="10.43399">
        <ele>2201.095</ele>
        <time>2018-09-13T15:20:25Z</time>
      </trkpt>
      <trkpt lat="46.26869" lon="10.43405">
        <ele>2200.218</ele>
        <time>2018-09-13T15:20:45Z</time>
      </trkpt>
      <trkpt lat="46.26872" lon="10.43431">
        <ele>2199.896</ele>
        <time>2018-09-13T15:21:05Z</time>
      </trkpt>
      <trkpt lat="46.26878" lon="10.43448">
        <ele>2200.923</ele>
        <time>2018-09-13T15:21:25Z</time>
      </trkpt>
      <trkpt lat="46.26879" lon="10.4345">
        <ele>2201.315</ele>
        <time>2018-09-13T15:21:45Z</time>
      </trkpt>
      <trkpt lat="46.2688" lon="10.43454">
        <ele>2201.965</ele>
        <time>2018-09-13T15:22:05Z</time>
      </trkpt>
      <trkpt lat="46.2688" lon="10.43456">
        <ele>2202.311</ele>
        <time>2018-09-13T15:22:25Z</time>
      </trkpt>
      <trkpt lat="46.26881" lon="10.43459">
        <ele>2202.708</ele>
        <time>2018-09-13T15:22:45Z</time>
      </trkpt>
      <trkpt lat="46.26881" lon="10.43462">
        <ele>2202.943</ele>
        <time>2018-09-13T15:23:05Z</time>
      </trkpt>
      <trkpt lat="46.2688" lon="10.43466">
        <ele>2203.149</ele>
        <time>2018-09-13T15:23:25Z</time>
      </trkpt>
      <trkpt lat="46.2688" lon="10.43467">
        <ele>2203.066</ele>
        <time>2018-09-13T15:23:45Z</time>
      </trkpt>
      <trkpt lat="46.26879" lon="10.43468">
        <ele>2202.919</ele>
        <time>2018-09-13T15:24:05Z</time>
      </trkpt>
      <trkpt lat="46.26879" lon="10.43471">
        <ele>2202.892</ele>
        <time>2018-09-13T15:24:25Z</time>
      </trkpt>
      <trkpt lat="46.26878" lon="10.43474">
        <ele>2202.765</ele>
        <time>2018-09-13T15:24:45Z</time>
      </trkpt>
      <trkpt lat="46.26878" lon="10.43476">
        <ele>2202.683</ele>
        <time>2018-09-13T15:25:05Z</time>
      </trkpt>
      <trkpt lat="46.26877" lon="10.4348">
        <ele>2202.73</ele>
        <time>2018-09-13T15:25:25Z</time>
      </trkpt>
      <trkpt lat="46.26878" lon="10.43483">
        <ele>2203.096</ele>
        <time>2018-09-13T15:25:45Z</time>
      </trkpt>
      <trkpt lat="46.26878" lon="10.43486">
        <ele>2203.431</ele>
        <time>2018-09-13T15:26:05Z</time>
      </trkpt>
      <trkpt lat="46.26879" lon="10.43489">
        <ele>2203.924</ele>
        <time>2018-09-13T15:26:25Z</time>
      </trkpt>
      <trkpt lat="46.2688" lon="10.43491">
        <ele>2204.508</ele>
        <time>2018-09-13T15:26:45Z</time>
      </trkpt>
      <trkpt lat="46.26881" lon="10.43494">
        <ele>2205.011</ele>
        <time>2018-09-13T15:27:05Z</time>
      </trkpt>
      <trkpt lat="46.26881" lon="10.43497">
        <ele>2205.347</ele>
        <time>2018-09-13T15:27:25Z</time>
      </trkpt>
      <trkpt lat="46.26882" lon="10.43501">
        <ele>2205.744</ele>
        <time>2018-09-13T15:27:45Z</time>
      </trkpt>
      <trkpt lat="46.26882" lon="10.43504">
        <ele>2206.027</ele>
        <time>2018-09-13T15:28:05Z</time>
      </trkpt>
      <trkpt lat="46.26883" lon="10.43507">
        <ele>2206.69</ele>
        <time>2018-09-13T15:28:25Z</time>
      </trkpt>
      <trkpt lat="46.26883" lon="10.43511">
        <ele>2206.563</ele>
        <time>2018-09-13T15:28:45Z</time>
      </trkpt>
      <trkpt lat="46.26882" lon="10.43513">
        <ele>2206.451</ele>
        <time>2018-09-13T15:29:05Z</time>
      </trkpt>
      <trkpt lat="46.26882" lon="10.43517">
        <ele>2206.558</ele>
        <time>2018-09-13T15:29:25Z</time>
      </trkpt>
      <trkpt lat="46.26882" lon="10.43519">
        <ele>2206.845</ele>
        <time>2018-09-13T15:29:45Z</time>
      </trkpt>
      <trkpt lat="46.26883" lon="10.43522">
        <ele>2207.247</ele>
        <time>2018-09-13T15:30:05Z</time>
      </trkpt>
      <trkpt lat="46.26883" lon="10.43525">
        <ele>2207.511</ele>
        <time>2018-09-13T15:30:25Z</time>
      </trkpt>
      <trkpt lat="46.26884" lon="10.43528">
        <ele>2208.008</ele>
        <time>2018-09-13T15:30:45Z</time>
      </trkpt>
      <trkpt lat="46.26884" lon="10.43531">
        <ele>2208.426</ele>
        <time>2018-09-13T15:31:05Z</time>
      </trkpt>
      <trkpt lat="46.26884" lon="10.43534">
        <ele>2208.922</ele>
        <time>2018-09-13T15:31:25Z</time>
      </trkpt>
      <trkpt lat="46.26885" lon="10.43537">
        <ele>2209.479</ele>
        <time>2018-09-13T15:31:45Z</time>
      </trkpt>
      <trkpt lat="46.26885" lon="10.4354">
        <ele>2210.122</ele>
        <time>2018-09-13T15:32:05Z</time>
      </trkpt>
      <trkpt lat="46.26886" lon="10.43543">
        <ele>2210.795</ele>
        <time>2018-09-13T15:32:25Z</time>
      </trkpt>
      <trkpt lat="46.26886" lon="10.43546">
        <ele>2211.098</ele>
        <time>2018-09-13T15:32:45Z</time>
      </trkpt>
      <trkpt lat="46.26886" lon="10.43549">
        <ele>2211.356</ele>
        <time>2018-09-13T15:33:05Z</time>
      </trkpt>
      <trkpt lat="46.26886" lon="10.43552">
        <ele>2211.693</ele>
        <time>2018-09-13T15:33:25Z</time>
      </trkpt>
      <trkpt lat="46.26886" lon="10.43555">
        <ele>2211.729</ele>
        <time>2018-09-13T15:33:45Z</time>
      </trkpt>
      <trkpt lat="46.26886" lon="10.43558">
        <ele>2212.3</ele>
        <time>2018-09-13T15:34:05Z</time>
      </trkpt>
      <trkpt lat="46.26886" lon="10.43562">
        <ele>2212.52</ele>
        <time>2018-09-13T15:34:25Z</time>
      </trkpt>
      <trkpt lat="46.26886" lon="10.43565">
        <ele>2212.808</ele>
        <time>2018-09-13T15:34:45Z</time>
      </trkpt>
      <trkpt lat="46.26887" lon="10.43568">
        <ele>2213.374</ele>
        <time>2018-09-13T15:35:05Z</time>
      </trkpt>
      <trkpt lat="46.26886" lon="10.43571">
        <ele>2213.24</ele>
        <time>2018-09-13T15:35:25Z</time>
      </trkpt>
      <trkpt lat="46.26886" lon="10.43574">
        <ele>2213.497</ele>
        <time>2018-09-13T15:35:45Z</time>
      </trkpt>
      <trkpt lat="46.26886" lon="10.43577">
        <ele>2213.54</ele>
        <time>2018-09-13T15:36:05Z</time>
      </trkpt>
      <trkpt lat="46.26886" lon="10.4358">
        <ele>2213.623</ele>
        <time>2018-09-13T15:36:25Z</time>
      </trkpt>
      <trkpt lat="46.26886" lon="10.43583">
        <ele>2213.586</ele>
        <time>2018-09-13T15:36:45Z</time>
      </trkpt>
      <trkpt lat="46.26886" lon="10.43585">
        <ele>2214.034</ele>
        <time>2018-09-13T15:37:05Z</time>
      </trkpt>
      <trkpt lat="46.26886" lon="10.43588">
        <ele>2214.261</ele>
        <time>2018-09-13T15:37:25Z</time>
      </trkpt>
      <trkpt lat="46.26886" lon="10.43591">
        <ele>2214.279</ele>
        <time>2018-09-13T15:37:45Z</time>
      </trkpt>
      <trkpt lat="46.26886" lon="10.43594">
        <ele>2214.505</ele>
        <time>2018-09-13T15:38:05Z</time>
      </trkpt>
      <trkpt lat="46.26887" lon="10.43597">
        <ele>2215.525</ele>
        <time>2018-09-13T15:38:25Z</time>
      </trkpt>
      <trkpt lat="46.26886" lon="10.436">
        <ele>2215.108</ele>
        <time>2018-09-13T15:38:45Z</time>
      </trkpt>
      <trkpt lat="46.26886" lon="10.43603">
        <ele>2214.889</ele>
        <time>2018-09-13T15:39:05Z</time>
      </trkpt>
      <trkpt lat="46.26886" lon="10.43606">
        <ele>2214.945</ele>
        <time>2018-09-13T15:39:25Z</time>
      </trkpt>
      <trkpt lat="46.26884" lon="10.43608">
        <ele>2214.252</ele>
        <time>2018-09-13T15:39:45Z</time>
      </trkpt>
      <trkpt lat="46.26883" lon="10.43611">
        <ele>2213.535</ele>
        <time>2018-09-13T15:40:05Z</time>
      </trkpt>
      <trkpt lat="46.26884" lon="10.43614">
        <ele>2214.488</ele>
        <time>2018-09-13T15:40:25Z</time>
      </trkpt>
      <trkpt lat="46.26884" lon="10.43617">
        <ele>2214.881</ele>
        <time>2018-09-13T15:40:45Z</time>
      </trkpt>
      <trkpt lat="46.26884" lon="10.43619">
        <ele>2214.699</ele>
        <time>2018-09-13T15:41:05Z</time>
      </trkpt>
      <trkpt lat="46.26884" lon="10.43622">
        <ele>2215.096</ele>
        <time>2018-09-13T15:41:25Z</time>
      </trkpt>
      <trkpt lat="46.26883" lon="10.43625">
        <ele>2214.987</ele>
        <time>2018-09-13T15:41:45Z</time>
      </trkpt>
      <trkpt lat="46.26882" lon="10.43628">
        <ele>2214.642</ele>
        <time>2018-09-13T15:42:05Z</time>
      </trkpt>
      <trkpt lat="46.26882" lon="10.43631">
        <ele>2214.226</ele>
        <time>2018-09-13T15:42:25Z</time>
      </trkpt>
      <trkpt lat="46.2688" lon="10.43634">
        <ele>2213.708</ele>
        <time>2018-09-13T15:42:45Z</time>
      </trkpt>
      <trkpt lat="46.2688" lon="10.43637">
        <ele>2213.51</ele>
        <time>2018-09-13T15:43:05Z</time>
      </trkpt>
      <trkpt lat="46.26879" lon="10.4364">
        <ele>2213.516</ele>
        <time>2018-09-13T15:43:25Z</time>
      </trkpt>
      <trkpt lat="46.26879" lon="10.43642">
        <ele>2213.133</ele>
        <time>2018-09-13T15:43:45Z</time>
      </trkpt>
      <trkpt lat="46.26878" lon="10.43645">
        <ele>2212.696</ele>
        <time>2018-09-13T15:44:05Z</time>
      </trkpt>
      <trkpt lat="46.26877" lon="10.43648">
        <ele>2212.149</ele>
        <time>2018-09-13T15:44:25Z</time>
      </trkpt>
      <trkpt lat="46.26876" lon="10.43651">
        <ele>2211.762</ele>
        <time>2018-09-13T15:44:45Z</time>
      </trkpt>
      <trkpt lat="46.26876" lon="10.43654">
        <ele>2211.57</ele>
        <time>2018-09-13T15:45:05Z</time>
      </trkpt>
      <trkpt lat="46.26875" lon="10.43656">
        <ele>2211.127</ele>
        <time>2018-09-13T15:45:25Z</time>
      </trkpt>
      <trkpt lat="46.26874" lon="10.43659">
        <ele>2210.638</ele>
        <time>2018-09-13T15:45:45Z</time>
      </trkpt>
      <trkpt lat="46.26873" lon="10.43661">
        <ele>2209.77</ele>
        <time>2018-09-13T15:46:05Z</time>
      </trkpt>
      <trkpt lat="46.26872" lon="10.43664">
        <ele>2209.017</ele>
        <time>2018-09-13T15:46:25Z</time>
      </trkpt>
      <trkpt lat="46.26871" lon="10.43667">
        <ele>2208.508</ele>
        <time>2018-09-13T15:46:45Z</time>
      </trkpt>
      <trkpt lat="46.2687" lon="10.43669">
        <ele>2208.555</ele>
        <time>2018-09-13T15:47:05Z</time>
      </trkpt>
      <trkpt lat="46.26868" lon="10.43672">
        <ele>2208.181</ele>
        <time>2018-09-13T15:47:25Z</time>
      </trkpt>
      <trkpt lat="46.26867" lon="10.43675">
        <ele>2208.168</ele>
        <time>2018-09-13T15:47:45Z</time>
      </trkpt>
      <trkpt lat="46.26866" lon="10.43678">
        <ele>2207.961</ele>
        <time>2018-09-13T15:48:05Z</time>
      </trkpt>
      <trkpt lat="46.26866" lon="10.4368">
        <ele>2208.124</ele>
        <time>2018-09-13T15:48:25Z</time>
      </trkpt>
      <trkpt lat="46.26864" lon="10.43684">
        <ele>2208.237</ele>
        <time>2018-09-13T15:48:45Z</time>
      </trkpt>
      <trkpt lat="46.26863" lon="10.43687">
        <ele>2208.225</ele>
        <time>2018-09-13T15:49:05Z</time>
      </trkpt>
      <trkpt lat="46.26863" lon="10.4369">
        <ele>2208.612</ele>
        <time>2018-09-13T15:49:25Z</time>
      </trkpt>
      <trkpt lat="46.26862" lon="10.43692">
        <ele>2209.121</ele>
        <time>2018-09-13T15:49:45Z</time>
      </trkpt>
      <trkpt lat="46.26862" lon="10.43695">
        <ele>2209.441</ele>
        <time>2018-09-13T15:50:05Z</time>
      </trkpt>
      <trkpt lat="46.26861" lon="10.43698">
        <ele>2209.305</ele>
        <time>2018-09-13T15:50:25Z</time>
      </trkpt>
      <trkpt lat="46.26861" lon="10.43701">
        <ele>2209.508</ele>
        <time>2018-09-13T15:50:45Z</time>
      </trkpt>
      <trkpt lat="46.26862" lon="10.43704">
        <ele>2209.824</ele>
        <time>2018-09-13T15:51:05Z</time>
      </trkpt>
      <trkpt lat="46.26862" lon="10.43706">
        <ele>2210.27</ele>
        <time>2018-09-13T15:51:25Z</time>
      </trkpt>
      <trkpt lat="46.26862" lon="10.43709">
        <ele>2210.637</ele>
        <time>2018-09-13T15:51:45Z</time>
      </trkpt>
      <trkpt lat="46.26863" lon="10.43712">
        <ele>2211.02</ele>
        <time>2018-09-13T15:52:05Z</time>
      </trkpt>
      <trkpt lat="46.26863" lon="10.43715">
        <ele>2211.523</ele>
        <time>2018-09-13T15:52:25Z</time>
      </trkpt>
      <trkpt lat="46.26865" lon="10.43718">
        <ele>2212.676</ele>
        <time>2018-09-13T15:52:45Z</time>
      </trkpt>
      <trkpt lat="46.26866" lon="10.43721">
        <ele>2213.234</ele>
        <time>2018-09-13T15:53:05Z</time>
      </trkpt>
      <trkpt lat="46.26867" lon="10.43724">
        <ele>2213.741</ele>
        <time>2018-09-13T15:53:25Z</time>
      </trkpt>
      <trkpt lat="46.26868" lon="10.43726">
        <ele>2213.979</ele>
        <time>2018-09-13T15:53:45Z</time>
      </trkpt>
      <trkpt lat="46.26869" lon="10.43728">
        <ele>2214.205</ele>
        <time>2018-09-13T15:54:05Z</time>
      </trkpt>
      <trkpt lat="46.26871" lon="10.4373">
        <ele>2214.625</ele>
        <time>2018-09-13T15:54:25Z</time>
      </trkpt>
      <trkpt lat="46.26872" lon="10.43732">
        <ele>2215.008</ele>
        <time>2018-09-13T15:54:45Z</time>
      </trkpt>
      <trkpt lat="46.26873" lon="10.43734">
        <ele>2215.389</ele>
        <time>2018-09-13T15:55:05Z</time>
      </trkpt>
      <trkpt lat="46.26874" lon="10.43736">
        <ele>2215.885</ele>
        <time>2018-09-13T15:55:25Z</time>
      </trkpt>
      <trkpt lat="46.26876" lon="10.43738">
        <ele>2216.462</ele>
        <time>2018-09-13T15:55:45Z</time>
      </trkpt>
      <trkpt lat="46.26878" lon="10.4374">
        <ele>2217.295</ele>
        <time>2018-09-13T15:56:05Z</time>
      </trkpt>
      <trkpt lat="46.26879" lon="10.43741">
        <ele>2218.068</ele>
        <time>2018-09-13T15:56:25Z</time>
      </trkpt>
      <trkpt lat="46.26881" lon="10.43743">
        <ele>2218.731</ele>
        <time>2018-09-13T15:56:45Z</time>
      </trkpt>
      <trkpt lat="46.26882" lon="10.43745">
        <ele>2219.579</ele>
        <time>2018-09-13T15:57:05Z</time>
      </trkpt>
      <trkpt lat="46.26884" lon="10.43746">
        <ele>2220.256</ele>
        <time>2018-09-13T15:57:25Z</time>
      </trkpt>
      <trkpt lat="46.26886" lon="10.43748">
        <ele>2221.519</ele>
        <time>2018-09-13T15:57:45Z</time>
      </trkpt>
      <trkpt lat="46.26888" lon="10.4375">
        <ele>2222.409</ele>
        <time>2018-09-13T15:58:05Z</time>
      </trkpt>
      <trkpt lat="46.2689" lon="10.43753">
        <ele>2223.219</ele>
        <time>2018-09-13T15:58:25Z</time>
      </trkpt>
      <trkpt lat="46.26892" lon="10.43755">
        <ele>2223.908</ele>
        <time>2018-09-13T15:58:45Z</time>
      </trkpt>
      <trkpt lat="46.26893" lon="10.43758">
        <ele>2224.653</ele>
        <time>2018-09-13T15:59:05Z</time>
      </trkpt>
      <trkpt lat="46.26894" lon="10.43759">
        <ele>2224.899</ele>
        <time>2018-09-13T15:59:25Z</time>
      </trkpt>
      <trkpt lat="46.26895" lon="10.43761">
        <ele>2225.296</ele>
        <time>2018-09-13T15:59:45Z</time>
      </trkpt>
      <trkpt lat="46.26897" lon="10.43764">
        <ele>2225.669</ele>
        <time>2018-09-13T16:00:05Z</time>
      </trkpt>
      <trkpt lat="46.26898" lon="10.43766">
        <ele>2226.072</ele>
        <time>2018-09-13T16:00:25Z</time>
      </trkpt>
      <trkpt lat="46.26899" lon="10.43768">
        <ele>2226.225</ele>
        <time>2018-09-13T16:00:45Z</time>
      </trkpt>
      <trkpt lat="46.269" lon="10.43772">
        <ele>2226.493</ele>
        <time>2018-09-13T16:01:05Z</time>
      </trkpt>
      <trkpt lat="46.26901" lon="10.43774">
        <ele>2226.73</ele>
        <time>2018-09-13T16:01:25Z</time>
      </trkpt>
      <trkpt lat="46.26902" lon="10.43777">
        <ele>2227.087</ele>
        <time>2018-09-13T16:01:45Z</time>
      </trkpt>
      <trkpt lat="46.26903" lon="10.4378">
        <ele>2227.342</ele>
        <time>2018-09-13T16:02:05Z</time>
      </trkpt>
      <trkpt lat="46.26904" lon="10.43781">
        <ele>2227.826</ele>
        <time>2018-09-13T16:02:25Z</time>
      </trkpt>
      <trkpt lat="46.26905" lon="10.43785">
        <ele>2228.308</ele>
        <time>2018-09-13T16:02:45Z</time>
      </trkpt>
      <trkpt lat="46.26907" lon="10.43788">
        <ele>2228.98</ele>
        <time>2018-09-13T16:03:05Z</time>
      </trkpt>
      <trkpt lat="46.26908" lon="10.4379">
        <ele>2229.356</ele>
        <time>2018-09-13T16:03:25Z</time>
      </trkpt>
      <trkpt lat="46.26909" lon="10.43792">
        <ele>2229.823</ele>
        <time>2018-09-13T16:03:45Z</time>
      </trkpt>
      <trkpt lat="46.26911" lon="10.43795">
        <ele>2230.656</ele>
        <time>2018-09-13T16:04:05Z</time>
      </trkpt>
      <trkpt lat="46.26912" lon="10.43797">
        <ele>2231.239</ele>
        <time>2018-09-13T16:04:25Z</time>
      </trkpt>
      <trkpt lat="46.26913" lon="10.43799">
        <ele>2231.412</ele>
        <time>2018-09-13T16:04:45Z</time>
      </trkpt>
      <trkpt lat="46.26914" lon="10.43802">
        <ele>2231.67</ele>
        <time>2018-09-13T16:05:05Z</time>
      </trkpt>
      <trkpt lat="46.26915" lon="10.43805">
        <ele>2231.857</ele>
        <time>2018-09-13T16:05:25Z</time>
      </trkpt>
      <trkpt lat="46.26915" lon="10.43807">
        <ele>2231.946</ele>
        <time>2018-09-13T16:05:45Z</time>
      </trkpt>
      <trkpt lat="46.26916" lon="10.4381">
        <ele>2232.088</ele>
        <time>2018-09-13T16:06:05Z</time>
      </trkpt>
      <trkpt lat="46.26916" lon="10.43812">
        <ele>2232.116</ele>
        <time>2018-09-13T16:06:25Z</time>
      </trkpt>
      <trkpt lat="46.26917" lon="10.43815">
        <ele>2232.008</ele>
        <time>2018-09-13T16:06:45Z</time>
      </trkpt>
      <trkpt lat="46.26918" lon="10.43818">
        <ele>2232.046</ele>
        <time>2018-09-13T16:07:05Z</time>
      </trkpt>
      <trkpt lat="46.26918" lon="10.43821">
        <ele>2231.762</ele>
        <time>2018-09-13T16:07:25Z</time>
      </trkpt>
      <trkpt lat="46.26918" lon="10.43823">
        <ele>2231.519</ele>
        <time>2018-09-13T16:07:45Z</time>
      </trkpt>
      <trkpt lat="46.26919" lon="10.43826">
        <ele>2231.332</ele>
        <time>2018-09-13T16:08:05Z</time>
      </trkpt>
      <trkpt lat="46.26919" lon="10.43829">
        <ele>2231.185</ele>
        <time>2018-09-13T16:08:25Z</time>
      </trkpt>
      <trkpt lat="46.26919" lon="10.43832">
        <ele>2230.928</ele>
        <time>2018-09-13T16:08:45Z</time>
      </trkpt>
      <trkpt lat="46.2692" lon="10.43835">
        <ele>2230.756</ele>
        <time>2018-09-13T16:09:05Z</time>
      </trkpt>
      <trkpt lat="46.26921" lon="10.43838">
        <ele>2230.643</ele>
        <time>2018-09-13T16:09:25Z</time>
      </trkpt>
      <trkpt lat="46.26921" lon="10.43841">
        <ele>2230.383</ele>
        <time>2018-09-13T16:09:45Z</time>
      </trkpt>
      <trkpt lat="46.26921" lon="10.43843">
        <ele>2230.125</ele>
        <time>2018-09-13T16:10:05Z</time>
      </trkpt>
      <trkpt lat="46.26922" lon="10.43847">
        <ele>2229.817</ele>
        <time>2018-09-13T16:10:25Z</time>
      </trkpt>
      <trkpt lat="46.26922" lon="10.4385">
        <ele>2229.708</ele>
        <time>2018-09-13T16:10:45Z</time>
      </trkpt>
      <trkpt lat="46.26923" lon="10.43853">
        <ele>2229.66</ele>
        <time>2018-09-13T16:11:05Z</time>
      </trkpt>
      <trkpt lat="46.26923" lon="10.43856">
        <ele>2229.466</ele>
        <time>2018-09-13T16:11:25Z</time>
      </trkpt>
      <trkpt lat="46.26924" lon="10.43859">
        <ele>2229.393</ele>
        <time>2018-09-13T16:11:45Z</time>
      </trkpt>
      <trkpt lat="46.26925" lon="10.43861">
        <ele>2229.266</ele>
        <time>2018-09-13T16:12:05Z</time>
      </trkpt>
      <trkpt lat="46.26925" lon="10.43864">
        <ele>2229.229</ele>
        <time>2018-09-13T16:12:25Z</time>
      </trkpt>
      <trkpt lat="46.26926" lon="10.43867">
        <ele>2229.222</ele>
        <time>2018-09-13T16:12:45Z</time>
      </trkpt>
      <trkpt lat="46.26927" lon="10.43869">
        <ele>2229.32</ele>
        <time>2018-09-13T16:13:05Z</time>
      </trkpt>
      <trkpt lat="46.26939" lon="10.43886">
        <ele>2230.327</ele>
        <time>2018-09-13T16:13:25Z</time>
      </trkpt>
      <trkpt lat="46.2694" lon="10.43886">
        <ele>2230.438</ele>
        <time>2018-09-13T16:13:45Z</time>
      </trkpt>
      <trkpt lat="46.26942" lon="10.43888">
        <ele>2230.67</ele>
        <time>2018-09-13T16:14:05Z</time>
      </trkpt>
      <trkpt lat="46.26944" lon="10.43889">
        <ele>2230.817</ele>
        <time>2018-09-13T16:14:25Z</time>
      </trkpt>
      <trkpt lat="46.26946" lon="10.4389">
        <ele>2231.508</ele>
        <time>2018-09-13T16:14:45Z</time>
      </trkpt>
      <trkpt lat="46.26947" lon="10.43892">
        <ele>2232.085</ele>
        <time>2018-09-13T16:15:05Z</time>
      </trkpt>
      <trkpt lat="46.26948" lon="10.43894">
        <ele>2232.831</ele>
        <time>2018-09-13T16:15:25Z</time>
      </trkpt>
      <trkpt lat="46.2695" lon="10.43895">
        <ele>2233.948</ele>
        <time>2018-09-13T16:15:45Z</time>
      </trkpt>
      <trkpt lat="46.26953" lon="10.43897">
        <ele>2235.591</ele>
        <time>2018-09-13T16:16:05Z</time>
      </trkpt>
      <trkpt lat="46.26954" lon="10.43898">
        <ele>2236.344</ele>
        <time>2018-09-13T16:16:25Z</time>
      </trkpt>
      <trkpt lat="46.26955" lon="10.43901">
        <ele>2236.977</ele>
        <time>2018-09-13T16:16:45Z</time>
      </trkpt>
      <trkpt lat="46.26957" lon="10.43903">
        <ele>2237.535</ele>
        <time>2018-09-13T16:17:05Z</time>
      </trkpt>
      <trkpt lat="46.26958" lon="10.43905">
        <ele>2238.152</ele>
        <time>2018-09-13T16:17:25Z</time>
      </trkpt>
      <trkpt lat="46.26959" lon="10.43908">
        <ele>2238.556</ele>
        <time>2018-09-13T16:17:45Z</time>
      </trkpt>
      <trkpt lat="46.2696" lon="10.43911">
        <ele>2238.959</ele>
        <time>2018-09-13T16:18:05Z</time>
      </trkpt>
      <trkpt lat="46.26961" lon="10.43913">
        <ele>2239.314</ele>
        <time>2018-09-13T16:18:25Z</time>
      </trkpt>
      <trkpt lat="46.26962" lon="10.43916">
        <ele>2239.408</ele>
        <time>2018-09-13T16:18:45Z</time>
      </trkpt>
      <trkpt lat="46.26963" lon="10.43919">
        <ele>2239.917</ele>
        <time>2018-09-13T16:19:05Z</time>
      </trkpt>
      <trkpt lat="46.26964" lon="10.43922">
        <ele>2240.363</ele>
        <time>2018-09-13T16:19:25Z</time>
      </trkpt>
      <trkpt lat="46.26965" lon="10.43924">
        <ele>2240.99</ele>
        <time>2018-09-13T16:19:45Z</time>
      </trkpt>
      <trkpt lat="46.26966" lon="10.43927">
        <ele>2241.133</ele>
        <time>2018-09-13T16:20:05Z</time>
      </trkpt>
      <trkpt lat="46.26967" lon="10.4393">
        <ele>2241.426</ele>
        <time>2018-09-13T16:20:25Z</time>
      </trkpt>
      <trkpt lat="46.26968" lon="10.43933">
        <ele>2241.569</ele>
        <time>2018-09-13T16:20:45Z</time>
      </trkpt>
      <trkpt lat="46.26968" lon="10.43936">
        <ele>2241.627</ele>
        <time>2018-09-13T16:21:05Z</time>
      </trkpt>
      <trkpt lat="46.26969" lon="10.43939">
        <ele>2241.634</ele>
        <time>2018-09-13T16:21:25Z</time>
      </trkpt>
      <trkpt lat="46.26969" lon="10.43942">
        <ele>2241.536</ele>
        <time>2018-09-13T16:21:45Z</time>
      </trkpt>
      <trkpt lat="46.2697" lon="10.43944">
        <ele>2241.517</ele>
        <time>2018-09-13T16:22:05Z</time>
      </trkpt>
      <trkpt lat="46.26971" lon="10.43947">
        <ele>2241.518</ele>
        <time>2018-09-13T16:22:25Z</time>
      </trkpt>
      <trkpt lat="46.26972" lon="10.4395">
        <ele>2241.708</ele>
        <time>2018-09-13T16:22:45Z</time>
      </trkpt>
      <trkpt lat="46.26972" lon="10.43953">
        <ele>2241.615</ele>
        <time>2018-09-13T16:23:05Z</time>
      </trkpt>
      <trkpt lat="46.26973" lon="10.43956">
        <ele>2241.681</ele>
        <time>2018-09-13T16:23:25Z</time>
      </trkpt>
      <trkpt lat="46.26973" lon="10.43959">
        <ele>2241.688</ele>
        <time>2018-09-13T16:23:45Z</time>
      </trkpt>
      <trkpt lat="46.26974" lon="10.43961">
        <ele>2241.671</ele>
        <time>2018-09-13T16:24:05Z</time>
      </trkpt>
      <trkpt lat="46.26975" lon="10.43964">
        <ele>2241.784</ele>
        <time>2018-09-13T16:24:25Z</time>
      </trkpt>
      <trkpt lat="46.26976" lon="10.43967">
        <ele>2241.967</ele>
        <time>2018-09-13T16:24:45Z</time>
      </trkpt>
      <trkpt lat="46.26977" lon="10.4397">
        <ele>2241.965</ele>
        <time>2018-09-13T16:25:05Z</time>
      </trkpt>
      <trkpt lat="46.26977" lon="10.43973">
        <ele>2241.932</ele>
        <time>2018-09-13T16:25:25Z</time>
      </trkpt>
      <trkpt lat="46.26978" lon="10.43976">
        <ele>2242.154</ele>
        <time>2018-09-13T16:25:45Z</time>
      </trkpt>
      <trkpt lat="46.26978" lon="10.4398">
        <ele>2242.056</ele>
        <time>2018-09-13T16:26:05Z</time>
      </trkpt>
      <trkpt lat="46.26978" lon="10.43983">
        <ele>2242.011</ele>
        <time>2018-09-13T16:26:25Z</time>
      </trkpt>
      <trkpt lat="46.26978" lon="10.43986">
        <ele>2242.008</ele>
        <time>2018-09-13T16:26:45Z</time>
      </trkpt>
      <trkpt lat="46.26978" lon="10.43989">
        <ele>2241.867</ele>
        <time>2018-09-13T16:27:05Z</time>
      </trkpt>
      <trkpt lat="46.26978" lon="10.43992">
        <ele>2241.853</ele>
        <time>2018-09-13T16:27:25Z</time>
      </trkpt>
      <trkpt lat="46.26978" lon="10.43995">
        <ele>2241.91</ele>
        <time>2018-09-13T16:27:45Z</time>
      </trkpt>
      <trkpt lat="46.26979" lon="10.43998">
        <ele>2242.123</ele>
        <time>2018-09-13T16:28:05Z</time>
      </trkpt>
      <trkpt lat="46.26979" lon="10.44001">
        <ele>2242.076</ele>
        <time>2018-09-13T16:28:25Z</time>
      </trkpt>
      <trkpt lat="46.26979" lon="10.44004">
        <ele>2242.279</ele>
        <time>2018-09-13T16:28:45Z</time>
      </trkpt>
      <trkpt lat="46.2698" lon="10.44007">
        <ele>2242.387</ele>
        <time>2018-09-13T16:29:05Z</time>
      </trkpt>
      <trkpt lat="46.2698" lon="10.4401">
        <ele>2242.684</ele>
        <time>2018-09-13T16:29:25Z</time>
      </trkpt>
      <trkpt lat="46.2698" lon="10.44013">
        <ele>2242.885</ele>
        <time>2018-09-13T16:29:45Z</time>
      </trkpt>
      <trkpt lat="46.26981" lon="10.44016">
        <ele>2242.889</ele>
        <time>2018-09-13T16:30:05Z</time>
      </trkpt>
      <trkpt lat="46.26981" lon="10.44019">
        <ele>2242.717</ele>
        <time>2018-09-13T16:30:25Z</time>
      </trkpt>
      <trkpt lat="46.26981" lon="10.44022">
        <ele>2242.908</ele>
        <time>2018-09-13T16:30:45Z</time>
      </trkpt>
      <trkpt lat="46.26981" lon="10.44025">
        <ele>2243.17</ele>
        <time>2018-09-13T16:31:05Z</time>
      </trkpt>
      <trkpt lat="46.26982" lon="10.44028">
        <ele>2243.326</ele>
        <time>2018-09-13T16:31:25Z</time>
      </trkpt>
      <trkpt lat="46.26982" lon="10.44031">
        <ele>2243.643</ele>
        <time>2018-09-13T16:31:45Z</time>
      </trkpt>
      <trkpt lat="46.26982" lon="10.44034">
        <ele>2243.726</ele>
        <time>2018-09-13T16:32:05Z</time>
      </trkpt>
      <trkpt lat="46.26983" lon="10.44037">
        <ele>2244.039</ele>
        <time>2018-09-13T16:32:25Z</time>
      </trkpt>
      <trkpt lat="46.26983" lon="10.4404">
        <ele>2244.252</ele>
        <time>2018-09-13T16:32:45Z</time>
      </trkpt>
      <trkpt lat="46.26983" lon="10.44043">
        <ele>2244.32</ele>
        <time>2018-09-13T16:33:05Z</time>
      </trkpt>
      <trkpt lat="46.26983" lon="10.44046">
        <ele>2244.477</ele>
        <time>2018-09-13T16:33:25Z</time>
      </trkpt>
      <trkpt lat="46.26983" lon="10.44049">
        <ele>2244.489</ele>
        <time>2018-09-13T16:33:45Z</time>
      </trkpt>
      <trkpt lat="46.26983" lon="10.44052">
        <ele>2244.206</ele>
        <time>2018-09-13T16:34:05Z</time>
      </trkpt>
      <trkpt lat="46.26982" lon="10.44055">
        <ele>2243.926</ele>
        <time>2018-09-13T16:34:25Z</time>
      </trkpt>
      <trkpt lat="46.26982" lon="10.44059">
        <ele>2244.008</ele>
        <time>2018-09-13T16:34:45Z</time>
      </trkpt>
      <trkpt lat="46.26982" lon="10.44062">
        <ele>2244.29</ele>
        <time>2018-09-13T16:35:05Z</time>
      </trkpt>
      <trkpt lat="46.26983" lon="10.44065">
        <ele>2244.656</ele>
        <time>2018-09-13T16:35:25Z</time>
      </trkpt>
      <trkpt lat="46.26983" lon="10.44068">
        <ele>2244.923</ele>
        <time>2018-09-13T16:35:45Z</time>
      </trkpt>
      <trkpt lat="46.26983" lon="10.44071">
        <ele>2245.286</ele>
        <time>2018-09-13T16:36:05Z</time>
      </trkpt>
      <trkpt lat="46.26982" lon="10.44074">
        <ele>2245.149</ele>
        <time>2018-09-13T16:36:25Z</time>
      </trkpt>
      <trkpt lat="46.26982" lon="10.44078">
        <ele>2245.162</ele>
        <time>2018-09-13T16:36:45Z</time>
      </trkpt>
      <trkpt lat="46.26982" lon="10.44081">
        <ele>2245.31</ele>
        <time>2018-09-13T16:37:05Z</time>
      </trkpt>
      <trkpt lat="46.26982" lon="10.44084">
        <ele>2245.787</ele>
        <time>2018-09-13T16:37:25Z</time>
      </trkpt>
      <trkpt lat="46.26983" lon="10.44087">
        <ele>2246.178</ele>
        <time>2018-09-13T16:37:45Z</time>
      </trkpt>
      <trkpt lat="46.26983" lon="10.44089">
        <ele>2246.733</ele>
        <time>2018-09-13T16:38:05Z</time>
      </trkpt>
      <trkpt lat="46.26983" lon="10.44092">
        <ele>2247.226</ele>
        <time>2018-09-13T16:38:25Z</time>
      </trkpt>
      <trkpt lat="46.26984" lon="10.44095">
        <ele>2247.908</ele>
        <time>2018-09-13T16:38:45Z</time>
      </trkpt>
      <trkpt lat="46.26985" lon="10.44097">
        <ele>2248.649</ele>
        <time>2018-09-13T16:39:05Z</time>
      </trkpt>
      <trkpt lat="46.26985" lon="10.44101">
        <ele>2249.275</ele>
        <time>2018-09-13T16:39:25Z</time>
      </trkpt>
      <trkpt lat="46.26985" lon="10.44104">
        <ele>2249.652</ele>
        <time>2018-09-13T16:39:45Z</time>
      </trkpt>
      <trkpt lat="46.26984" lon="10.44106">
        <ele>2248.775</ele>
        <time>2018-09-13T16:40:05Z</time>
      </trkpt>
      <trkpt lat="46.26983" lon="10.44108">
        <ele>2248.148</ele>
        <time>2018-09-13T16:40:25Z</time>
      </trkpt>
      <trkpt lat="46.26981" lon="10.44111">
        <ele>2247.591</ele>
        <time>2018-09-13T16:40:45Z</time>
      </trkpt>
      <trkpt lat="46.26981" lon="10.44114">
        <ele>2247.289</ele>
        <time>2018-09-13T16:41:05Z</time>
      </trkpt>
      <trkpt lat="46.26981" lon="10.44117">
        <ele>2247.696</ele>
        <time>2018-09-13T16:41:25Z</time>
      </trkpt>
      <trkpt lat="46.26981" lon="10.4412">
        <ele>2247.614</ele>
        <time>2018-09-13T16:41:45Z</time>
      </trkpt>
      <trkpt lat="46.2698" lon="10.44123">
        <ele>2247.554</ele>
        <time>2018-09-13T16:42:05Z</time>
      </trkpt>
      <trkpt lat="46.2698" lon="10.44127">
        <ele>2247.409</ele>
        <time>2018-09-13T16:42:25Z</time>
      </trkpt>
      <trkpt lat="46.26979" lon="10.4413">
        <ele>2247.008</ele>
        <time>2018-09-13T16:42:45Z</time>
      </trkpt>
      <trkpt lat="46.26977" lon="10.44133">
        <ele>2246.243</ele>
        <time>2018-09-13T16:43:05Z</time>
      </trkpt>
      <trkpt lat="46.26976" lon="10.44135">
        <ele>2245.439</ele>
        <time>2018-09-13T16:43:25Z</time>
      </trkpt>
      <trkpt lat="46.26975" lon="10.44138">
        <ele>2244.726</ele>
        <time>2018-09-13T16:43:45Z</time>
      </trkpt>
      <trkpt lat="46.26974" lon="10.4414">
        <ele>2244.329</ele>
        <time>2018-09-13T16:44:05Z</time>
      </trkpt>
      <trkpt lat="46.26973" lon="10.44143">
        <ele>2243.652</ele>
        <time>2018-09-13T16:44:25Z</time>
      </trkpt>
      <trkpt lat="46.26972" lon="10.44146">
        <ele>2243.025</ele>
        <time>2018-09-13T16:44:45Z</time>
      </trkpt>
      <trkpt lat="46.26971" lon="10.44148">
        <ele>2242.643</ele>
        <time>2018-09-13T16:45:05Z</time>
      </trkpt>
      <trkpt lat="46.26971" lon="10.44149">
        <ele>2242.57</ele>
        <time>2018-09-13T16:45:25Z</time>
      </trkpt>
      <trkpt lat="46.2697" lon="10.44152">
        <ele>2242.363</ele>
        <time>2018-09-13T16:45:45Z</time>
      </trkpt>
      <trkpt lat="46.26969" lon="10.44155">
        <ele>2242.044</ele>
        <time>2018-09-13T16:46:05Z</time>
      </trkpt>
      <trkpt lat="46.26969" lon="10.44158">
        <ele>2241.718</ele>
        <time>2018-09-13T16:46:25Z</time>
      </trkpt>
      <trkpt lat="46.26968" lon="10.44161">
        <ele>2241.208</ele>
        <time>2018-09-13T16:46:45Z</time>
      </trkpt>
      <trkpt lat="46.26967" lon="10.44164">
        <ele>2240.798</ele>
        <time>2018-09-13T16:47:05Z</time>
      </trkpt>
      <trkpt lat="46.26966" lon="10.44167">
        <ele>2240.364</ele>
        <time>2018-09-13T16:47:25Z</time>
      </trkpt>
      <trkpt lat="46.26965" lon="10.4417">
        <ele>2240.051</ele>
        <time>2018-09-13T16:47:45Z</time>
      </trkpt>
      <trkpt lat="46.26965" lon="10.44173">
        <ele>2239.924</ele>
        <time>2018-09-13T16:48:05Z</time>
      </trkpt>
      <trkpt lat="46.26964" lon="10.44177">
        <ele>2240.077</ele>
        <time>2018-09-13T16:48:25Z</time>
      </trkpt>
      <trkpt lat="46.26962" lon="10.44215">
        <ele>2241.69</ele>
        <time>2018-09-13T16:48:45Z</time>
      </trkpt>
      <trkpt lat="46.26962" lon="10.44216">
        <ele>2241.668</ele>
        <time>2018-09-13T16:49:05Z</time>
      </trkpt>
      <trkpt lat="46.26961" lon="10.44219">
        <ele>2241.415</ele>
        <time>2018-09-13T16:49:25Z</time>
      </trkpt>
      <trkpt lat="46.26961" lon="10.44222">
        <ele>2241.325</ele>
        <time>2018-09-13T16:49:45Z</time>
      </trkpt>
      <trkpt lat="46.26961" lon="10.44226">
        <ele>2241.626</ele>
        <time>2018-09-13T16:50:05Z</time>
      </trkpt>
      <trkpt lat="46.2696" lon="10.44228">
        <ele>2241.608</ele>
        <time>2018-09-13T16:50:25Z</time>
      </trkpt>
      <trkpt lat="46.2696" lon="10.44231">
        <ele>2241.508</ele>
        <time>2018-09-13T16:50:45Z</time>
      </trkpt>
      <trkpt lat="46.26959" lon="10.44234">
        <ele>2241.364</ele>
        <time>2018-09-13T16:51:05Z</time>
      </trkpt>
      <trkpt lat="46.26959" lon="10.44237">
        <ele>2241.45</ele>
        <time>2018-09-13T16:51:25Z</time>
      </trkpt>
      <trkpt lat="46.26959" lon="10.4424">
        <ele>2241.527</ele>
        <time>2018-09-13T16:51:45Z</time>
      </trkpt>
      <trkpt lat="46.26959" lon="10.44243">
        <ele>2241.52</ele>
        <time>2018-09-13T16:52:05Z</time>
      </trkpt>
      <trkpt lat="46.26958" lon="10.44246">
        <ele>2241.523</ele>
        <time>2018-09-13T16:52:25Z</time>
      </trkpt>
      <trkpt lat="46.26958" lon="10.44249">
        <ele>2241.646</ele>
        <time>2018-09-13T16:52:45Z</time>
      </trkpt>
      <trkpt lat="46.26958" lon="10.44252">
        <ele>2242.034</ele>
        <time>2018-09-13T16:53:05Z</time>
      </trkpt>
      <trkpt lat="46.26957" lon="10.44254">
        <ele>2242.061</ele>
        <time>2018-09-13T16:53:25Z</time>
      </trkpt>
      <trkpt lat="46.26957" lon="10.44257">
        <ele>2242.246</ele>
        <time>2018-09-13T16:53:45Z</time>
      </trkpt>
      <trkpt lat="46.26956" lon="10.4426">
        <ele>2242.388</ele>
        <time>2018-09-13T16:54:05Z</time>
      </trkpt>
      <trkpt lat="46.26956" lon="10.44263">
        <ele>2242.316</ele>
        <time>2018-09-13T16:54:25Z</time>
      </trkpt>
      <trkpt lat="46.26955" lon="10.44266">
        <ele>2242.408</ele>
        <time>2018-09-13T16:54:45Z</time>
      </trkpt>
      <trkpt lat="46.26954" lon="10.44269">
        <ele>2242.436</ele>
        <time>2018-09-13T16:55:05Z</time>
      </trkpt>
      <trkpt lat="46.26954" lon="10.44271">
        <ele>2242.512</ele>
        <time>2018-09-13T16:55:25Z</time>
      </trkpt>
      <trkpt lat="46.26953" lon="10.44274">
        <ele>2242.459</ele>
        <time>2018-09-13T16:55:45Z</time>
      </trkpt>
      <trkpt lat="46.26952" lon="10.44276">
        <ele>2242.222</ele>
        <time>2018-09-13T16:56:05Z</time>
      </trkpt>
      <trkpt lat="46.26952" lon="10.44279">
        <ele>2242.285</ele>
        <time>2018-09-13T16:56:25Z</time>
      </trkpt>
      <trkpt lat="46.26951" lon="10.44282">
        <ele>2241.978</ele>
        <time>2018-09-13T16:56:45Z</time>
      </trkpt>
      <trkpt lat="46.2695" lon="10.44285">
        <ele>2241.826</ele>
        <time>2018-09-13T16:57:05Z</time>
      </trkpt>
      <trkpt lat="46.26949" lon="10.44287">
        <ele>2241.623</ele>
        <time>2018-09-13T16:57:25Z</time>
      </trkpt>
      <trkpt lat="46.26946" lon="10.44296">
        <ele>2240.679</ele>
        <time>2018-09-13T16:57:45Z</time>
      </trkpt>
      <trkpt lat="46.26944" lon="10.44302">
        <ele>2239.805</ele>
        <time>2018-09-13T16:58:05Z</time>
      </trkpt>
      <trkpt lat="46.26943" lon="10.44303">
        <ele>2239.725</ele>
        <time>2018-09-13T16:58:25Z</time>
      </trkpt>
      <trkpt lat="46.26942" lon="10.44305">
        <ele>2239.008</ele>
        <time>2018-09-13T16:58:45Z</time>
      </trkpt>
      <trkpt lat="46.26941" lon="10.44307">
        <ele>2238.169</ele>
        <time>2018-09-13T16:59:05Z</time>
      </trkpt>
      <trkpt lat="46.2694" lon="10.44311">
        <ele>2237.545</ele>
        <time>2018-09-13T16:59:25Z</time>
      </trkpt>
      <trkpt lat="46.2694" lon="10.44314">
        <ele>2237.462</ele>
        <time>2018-09-13T16:59:45Z</time>
      </trkpt>
      <trkpt lat="46.2694" lon="10.44317">
        <ele>2237.495</ele>
        <time>2018-09-13T17:00:05Z</time>
      </trkpt>
      <trkpt lat="46.2694" lon="10.4432">
        <ele>2237.388</ele>
        <time>2018-09-13T17:00:25Z</time>
      </trkpt>
      <trkpt lat="46.2694" lon="10.44323">
        <ele>2237.451</ele>
        <time>2018-09-13T17:00:45Z</time>
      </trkpt>
      <trkpt lat="46.26939" lon="10.44327">
        <ele>2237.259</ele>
        <time>2018-09-13T17:01:05Z</time>
      </trkpt>
      <trkpt lat="46.26939" lon="10.4433">
        <ele>2236.686</ele>
        <time>2018-09-13T17:01:25Z</time>
      </trkpt>
      <trkpt lat="46.26938" lon="10.44333">
        <ele>2236.412</ele>
        <time>2018-09-13T17:01:45Z</time>
      </trkpt>
      <trkpt lat="46.26938" lon="10.44336">
        <ele>2236.232</ele>
        <time>2018-09-13T17:02:05Z</time>
      </trkpt>
      <trkpt lat="46.26938" lon="10.44339">
        <ele>2236.105</ele>
        <time>2018-09-13T17:02:25Z</time>
      </trkpt>
      <trkpt lat="46.26938" lon="10.44341">
        <ele>2236.108</ele>
        <time>2018-09-13T17:02:45Z</time>
      </trkpt>
      <trkpt lat="46.26939" lon="10.44344">
        <ele>2236.113</ele>
        <time>2018-09-13T17:03:05Z</time>
      </trkpt>
      <trkpt lat="46.26939" lon="10.44347">
        <ele>2236.429</ele>
        <time>2018-09-13T17:03:25Z</time>
      </trkpt>
      <trkpt lat="46.2694" lon="10.4435">
        <ele>2236.556</ele>
        <time>2018-09-13T17:03:45Z</time>
      </trkpt>
      <trkpt lat="46.26936" lon="10.44409">
        <ele>2232.149</ele>
        <time>2018-09-13T17:04:05Z</time>
      </trkpt>
      <trkpt lat="46.26932" lon="10.44414">
        <ele>2230.592</ele>
        <time>2018-09-13T17:04:25Z</time>
      </trkpt>
      <trkpt lat="46.2693" lon="10.4443">
        <ele>2229.465</ele>
        <time>2018-09-13T17:04:45Z</time>
      </trkpt>
      <trkpt lat="46.26924" lon="10.44439">
        <ele>2227.713</ele>
        <time>2018-09-13T17:05:05Z</time>
      </trkpt>
      <trkpt lat="46.26917" lon="10.44449">
        <ele>2226.32</ele>
        <time>2018-09-13T17:05:25Z</time>
      </trkpt>
      <trkpt lat="46.26909" lon="10.44459">
        <ele>2225.384</ele>
        <time>2018-09-13T17:05:45Z</time>
      </trkpt>
      <trkpt lat="46.269" lon="10.4446">
        <ele>2224.207</ele>
        <time>2018-09-13T17:06:05Z</time>
      </trkpt>
      <trkpt lat="46.26896" lon="10.44464">
        <ele>2224.017</ele>
        <time>2018-09-13T17:06:25Z</time>
      </trkpt>
      <trkpt lat="46.26889" lon="10.44471">
        <ele>2223.808</ele>
        <time>2018-09-13T17:06:45Z</time>
      </trkpt>
      <trkpt lat="46.26886" lon="10.44478">
        <ele>2224.34</ele>
        <time>2018-09-13T17:07:05Z</time>
      </trkpt>
      <trkpt lat="46.26881" lon="10.44482">
        <ele>2224.066</ele>
        <time>2018-09-13T17:07:25Z</time>
      </trkpt>
      <trkpt lat="46.26873" lon="10.44483">
        <ele>2223.093</ele>
        <time>2018-09-13T17:07:45Z</time>
      </trkpt>
      <trkpt lat="46.26868" lon="10.44478">
        <ele>2221.676</ele>
        <time>2018-09-13T17:08:05Z</time>
      </trkpt>
      <trkpt lat="46.26864" lon="10.44474">
        <ele>2220.689</ele>
        <time>2018-09-13T17:08:25Z</time>
      </trkpt>
      <trkpt lat="46.26864" lon="10.44473">
        <ele>2220.412</ele>
        <time>2018-09-13T17:08:45Z</time>
      </trkpt>
      <trkpt lat="46.26864" lon="10.44473">
        <ele>2220.39</ele>
        <time>2018-09-13T17:09:05Z</time>
      </trkpt>
      <trkpt lat="46.26862" lon="10.44454">
        <ele>2217.437</ele>
        <time>2018-09-13T17:09:25Z</time>
      </trkpt>
      <trkpt lat="46.26855" lon="10.44441">
        <ele>2213.757</ele>
        <time>2018-09-13T17:09:45Z</time>
      </trkpt>
      <trkpt lat="46.26842" lon="10.44427">
        <ele>2207.4</ele>
        <time>2018-09-13T17:10:05Z</time>
      </trkpt>
      <trkpt lat="46.26823" lon="10.44432">
        <ele>2200.22</ele>
        <time>2018-09-13T17:10:25Z</time>
      </trkpt>
      <trkpt lat="46.26813" lon="10.44435">
        <ele>2195.208</ele>
        <time>2018-09-13T17:10:45Z</time>
      </trkpt>
      <trkpt lat="46.26802" lon="10.44448">
        <ele>2191.547</ele>
        <time>2018-09-13T17:11:05Z</time>
      </trkpt>
      <trkpt lat="46.26789" lon="10.44468">
        <ele>2187.473</ele>
        <time>2018-09-13T17:11:25Z</time>
      </trkpt>
      <trkpt lat="46.26773" lon="10.44474">
        <ele>2180.34</ele>
        <time>2018-09-13T17:11:45Z</time>
      </trkpt>
      <trkpt lat="46.26772" lon="10.44474">
        <ele>2180.053</ele>
        <time>2018-09-13T17:12:05Z</time>
      </trkpt>
      <trkpt lat="46.26742" lon="10.44466">
        <ele>2165.336</ele>
        <time>2018-09-13T17:12:25Z</time>
      </trkpt>
      <trkpt lat="46.26739" lon="10.44464">
        <ele>2163.119</ele>
        <time>2018-09-13T17:12:45Z</time>
      </trkpt>
      <trkpt lat="46.26724" lon="10.44462">
        <ele>2154.877</ele>
        <time>2018-09-13T17:13:05Z</time>
      </trkpt>
      <trkpt lat="46.26716" lon="10.44458">
        <ele>2149.364</ele>
        <time>2018-09-13T17:13:25Z</time>
      </trkpt>
      <trkpt lat="46.26713" lon="10.44444">
        <ele>2144.391</ele>
        <time>2018-09-13T17:13:45Z</time>
      </trkpt>
      <trkpt lat="46.26718" lon="10.44427">
        <ele>2144.181</ele>
        <time>2018-09-13T17:14:05Z</time>
      </trkpt>
      <trkpt lat="46.26721" lon="10.44406">
        <ele>2143.419</ele>
        <time>2018-09-13T17:14:25Z</time>
      </trkpt>
      <trkpt lat="46.2672" lon="10.44381">
        <ele>2137.708</ele>
        <time>2018-09-13T17:14:45Z</time>
      </trkpt>
      <trkpt lat="46.26713" lon="10.44361">
        <ele>2129.881</ele>
        <time>2018-09-13T17:15:05Z</time>
      </trkpt>
      <trkpt lat="46.26708" lon="10.44339">
        <ele>2122.697</ele>
        <time>2018-09-13T17:15:25Z</time>
      </trkpt>
      <trkpt lat="46.26708" lon="10.44315">
        <ele>2119.084</ele>
        <time>2018-09-13T17:15:45Z</time>
      </trkpt>
      <trkpt lat="46.26709" lon="10.44287">
        <ele>2115.467</ele>
        <time>2018-09-13T17:16:05Z</time>
      </trkpt>
      <trkpt lat="46.26713" lon="10.44261">
        <ele>2113.85</ele>
        <time>2018-09-13T17:16:25Z</time>
      </trkpt>
      <trkpt lat="46.26719" lon="10.44236">
        <ele>2113.883</ele>
        <time>2018-09-13T17:16:45Z</time>
      </trkpt>
      <trkpt lat="46.2672" lon="10.44195">
        <ele>2106.951</ele>
        <time>2018-09-13T17:17:05Z</time>
      </trkpt>
      <trkpt lat="46.26718" lon="10.44171">
        <ele>2103.368</ele>
        <time>2018-09-13T17:17:25Z</time>
      </trkpt>
      <trkpt lat="46.26712" lon="10.44149">
        <ele>2099.758</ele>
        <time>2018-09-13T17:17:45Z</time>
      </trkpt>
      <trkpt lat="46.26701" lon="10.44114">
        <ele>2096.852</ele>
        <time>2018-09-13T17:18:05Z</time>
      </trkpt>
      <trkpt lat="46.26688" lon="10.44085">
        <ele>2096.017</ele>
        <time>2018-09-13T17:18:25Z</time>
      </trkpt>
      <trkpt lat="46.26675" lon="10.44078">
        <ele>2092.108</ele>
        <time>2018-09-13T17:18:45Z</time>
      </trkpt>
      <trkpt lat="46.26664" lon="10.44069">
        <ele>2089.657</ele>
        <time>2018-09-13T17:19:05Z</time>
      </trkpt>
      <trkpt lat="46.26655" lon="10.44053">
        <ele>2088.913</ele>
        <time>2018-09-13T17:19:25Z</time>
      </trkpt>
      <trkpt lat="46.26647" lon="10.44037">
        <ele>2088.68</ele>
        <time>2018-09-13T17:19:45Z</time>
      </trkpt>
      <trkpt lat="46.26647" lon="10.44037">
        <ele>2088.573</ele>
        <time>2018-09-13T17:20:05Z</time>
      </trkpt>
      <trkpt lat="46.26647" lon="10.44036">
        <ele>2088.536</ele>
        <time>2018-09-13T17:20:25Z</time>
      </trkpt>
      <trkpt lat="46.26637" lon="10.44028">
        <ele>2085.819</ele>
        <time>2018-09-13T17:20:45Z</time>
      </trkpt>
      <trkpt lat="46.26631" lon="10.44023">
        <ele>2083.077</ele>
        <time>2018-09-13T17:21:05Z</time>
      </trkpt>
      <trkpt lat="46.26629" lon="10.44022">
        <ele>2082.114</ele>
        <time>2018-09-13T17:21:25Z</time>
      </trkpt>
      <trkpt lat="46.26628" lon="10.44021">
        <ele>2081.271</ele>
        <time>2018-09-13T17:21:45Z</time>
      </trkpt>
      <trkpt lat="46.26628" lon="10.44022">
        <ele>2081.141</ele>
        <time>2018-09-13T17:22:05Z</time>
      </trkpt>
      <trkpt lat="46.26629" lon="10.44038">
        <ele>2078.915</ele>
        <time>2018-09-13T17:22:25Z</time>
      </trkpt>
      <trkpt lat="46.26634" lon="10.44048">
        <ele>2079.908</ele>
        <time>2018-09-13T17:22:45Z</time>
      </trkpt>
      <trkpt lat="46.26634" lon="10.44048">
        <ele>2080.099</ele>
        <time>2018-09-13T17:23:05Z</time>
      </trkpt>
      <trkpt lat="46.2664" lon="10.44057">
        <ele>2082.025</ele>
        <time>2018-09-13T17:23:25Z</time>
      </trkpt>
      <trkpt lat="46.2665" lon="10.44071">
        <ele>2083.542</ele>
        <time>2018-09-13T17:23:45Z</time>
      </trkpt>
      <trkpt lat="46.26656" lon="10.44084">
        <ele>2083.755</ele>
        <time>2018-09-13T17:24:05Z</time>
      </trkpt>
      <trkpt lat="46.26667" lon="10.44094">
        <ele>2086.218</ele>
        <time>2018-09-13T17:24:25Z</time>
      </trkpt>
      <trkpt lat="46.26675" lon="10.44101">
        <ele>2088.051</ele>
        <time>2018-09-13T17:24:45Z</time>
      </trkpt>
      <trkpt lat="46.26687" lon="10.44119">
        <ele>2090.269</ele>
        <time>2018-09-13T17:25:05Z</time>
      </trkpt>
      <trkpt lat="46.26692" lon="10.44133">
        <ele>2090.536</ele>
        <time>2018-09-13T17:25:25Z</time>
      </trkpt>
      <trkpt lat="46.26697" lon="10.44145">
        <ele>2092.079</ele>
        <time>2018-09-13T17:25:45Z</time>
      </trkpt>
      <trkpt lat="46.26699" lon="10.44162">
        <ele>2093.405</ele>
        <time>2018-09-13T17:26:05Z</time>
      </trkpt>
      <trkpt lat="46.26701" lon="10.44177">
        <ele>2095.525</ele>
        <time>2018-09-13T17:26:25Z</time>
      </trkpt>
      <trkpt lat="46.267" lon="10.4419">
        <ele>2097.008</ele>
        <time>2018-09-13T17:26:45Z</time>
      </trkpt>
      <trkpt lat="46.26696" lon="10.44211">
        <ele>2098.379</ele>
        <time>2018-09-13T17:27:05Z</time>
      </trkpt>
      <trkpt lat="46.26693" lon="10.44227">
        <ele>2098.315</ele>
        <time>2018-09-13T17:27:25Z</time>
      </trkpt>
      <trkpt lat="46.26687" lon="10.44246">
        <ele>2095.532</ele>
        <time>2018-09-13T17:27:45Z</time>
      </trkpt>
      <trkpt lat="46.2668" lon="10.44277">
        <ele>2094.685</ele>
        <time>2018-09-13T17:28:05Z</time>
      </trkpt>
      <trkpt lat="46.26671" lon="10.44306">
        <ele>2094.188</ele>
        <time>2018-09-13T17:28:25Z</time>
      </trkpt>
      <trkpt lat="46.26662" lon="10.44329">
        <ele>2091.441</ele>
        <time>2018-09-13T17:28:45Z</time>
      </trkpt>
      <trkpt lat="46.26645" lon="10.44357">
        <ele>2088.259</ele>
        <time>2018-09-13T17:29:05Z</time>
      </trkpt>
      <trkpt lat="46.26632" lon="10.44373">
        <ele>2085.266</ele>
        <time>2018-09-13T17:29:25Z</time>
      </trkpt>
      <trkpt lat="46.26625" lon="10.44393">
        <ele>2085.993</ele>
        <time>2018-09-13T17:29:45Z</time>
      </trkpt>
      <trkpt lat="46.26619" lon="10.44407">
        <ele>2085.065</ele>
        <time>2018-09-13T17:30:05Z</time>
      </trkpt>
      <trkpt lat="46.26613" lon="10.44417">
        <ele>2082.821</ele>
        <time>2018-09-13T17:30:25Z</time>
      </trkpt>
      <trkpt lat="46.26606" lon="10.44434">
        <ele>2081.908</ele>
        <time>2018-09-13T17:30:45Z</time>
      </trkpt>
      <trkpt lat="46.26602" lon="10.44448">
        <ele>2082.191</ele>
        <time>2018-09-13T17:31:05Z</time>
      </trkpt>
      <trkpt lat="46.26597" lon="10.44463">
        <ele>2081.667</ele>
        <time>2018-09-13T17:31:25Z</time>
      </trkpt>
      <trkpt lat="46.26592" lon="10.44474">
        <ele>2080.474</ele>
        <time>2018-09-13T17:31:45Z</time>
      </trkpt>
      <trkpt lat="46.26586" lon="10.44485">
        <ele>2078.317</ele>
        <time>2018-09-13T17:32:05Z</time>
      </trkpt>
      <trkpt lat="46.26579" lon="10.44516">
        <ele>2077.97</ele>
        <time>2018-09-13T17:32:25Z</time>
      </trkpt>
      <trkpt lat="46.26575" lon="10.44528">
        <ele>2078.273</ele>
        <time>2018-09-13T17:32:45Z</time>
      </trkpt>
      <trkpt lat="46.26571" lon="10.44543">
        <ele>2078.691</ele>
        <time>2018-09-13T17:33:05Z</time>
      </trkpt>
      <trkpt lat="46.26568" lon="10.4456">
        <ele>2079.258</ele>
        <time>2018-09-13T17:33:25Z</time>
      </trkpt>
      <trkpt lat="46.26567" lon="10.44575">
        <ele>2079.963</ele>
        <time>2018-09-13T17:33:45Z</time>
      </trkpt>
      <trkpt lat="46.26563" lon="10.44611">
        <ele>2081.344</ele>
        <time>2018-09-13T17:34:05Z</time>
      </trkpt>
      <trkpt lat="46.26561" lon="10.44623">
        <ele>2081.218</ele>
        <time>2018-09-13T17:34:25Z</time>
      </trkpt>
      <trkpt lat="46.26557" lon="10.44634">
        <ele>2080.408</ele>
        <time>2018-09-13T17:34:45Z</time>
      </trkpt>
      <trkpt lat="46.26554" lon="10.44645">
        <ele>2078.828</ele>
        <time>2018-09-13T17:35:05Z</time>
      </trkpt>
      <trkpt lat="46.26549" lon="10.44657">
        <ele>2076.174</ele>
        <time>2018-09-13T17:35:25Z</time>
      </trkpt>
      <trkpt lat="46.26541" lon="10.44695">
        <ele>2074.011</ele>
        <time>2018-09-13T17:35:45Z</time>
      </trkpt>
      <trkpt lat="46.26538" lon="10.44724">
        <ele>2074.234</ele>
        <time>2018-09-13T17:36:05Z</time>
      </trkpt>
      <trkpt lat="46.26536" lon="10.44739">
        <ele>2073.667</ele>
        <time>2018-09-13T17:36:25Z</time>
      </trkpt>
      <trkpt lat="46.26534" lon="10.4475">
        <ele>2073.13</ele>
        <time>2018-09-13T17:36:45Z</time>
      </trkpt>
      <trkpt lat="46.26532" lon="10.44768">
        <ele>2072.868</ele>
        <time>2018-09-13T17:37:05Z</time>
      </trkpt>
      <trkpt lat="46.2653" lon="10.44783">
        <ele>2072.295</ele>
        <time>2018-09-13T17:37:25Z</time>
      </trkpt>
      <trkpt lat="46.2653" lon="10.44789">
        <ele>2072.016</ele>
        <time>2018-09-13T17:37:45Z</time>
      </trkpt>
      <trkpt lat="46.26528" lon="10.44796">
        <ele>2070.876</ele>
        <time>2018-09-13T17:38:05Z</time>
      </trkpt>
      <trkpt lat="46.26524" lon="10.44811">
        <ele>2067.513</ele>
        <time>2018-09-13T17:38:25Z</time>
      </trkpt>
      <trkpt lat="46.26522" lon="10.44828">
        <ele>2064.708</ele>
        <time>2018-09-13T17:38:45Z</time>
      </trkpt>
      <trkpt lat="46.2652" lon="10.44838">
        <ele>2062.453</ele>
        <time>2018-09-13T17:39:05Z</time>
      </trkpt>
      <trkpt lat="46.26512" lon="10.44866">
        <ele>2056.149</ele>
        <time>2018-09-13T17:39:25Z</time>
      </trkpt>
      <trkpt lat="46.2651" lon="10.44879">
        <ele>2054.066</ele>
        <time>2018-09-13T17:39:45Z</time>
      </trkpt>
      <trkpt lat="46.26509" lon="10.44895">
        <ele>2052.829</ele>
        <time>2018-09-13T17:40:05Z</time>
      </trkpt>
      <trkpt lat="46.26508" lon="10.44909">
        <ele>2052.072</ele>
        <time>2018-09-13T17:40:25Z</time>
      </trkpt>
      <trkpt lat="46.26507" lon="10.44917">
        <ele>2051.465</ele>
        <time>2018-09-13T17:40:45Z</time>
      </trkpt>
      <trkpt lat="46.26506" lon="10.4493">
        <ele>2049.653</ele>
        <time>2018-09-13T17:41:05Z</time>
      </trkpt>
      <trkpt lat="46.26505" lon="10.44944">
        <ele>2047.75</ele>
        <time>2018-09-13T17:41:25Z</time>
      </trkpt>
      <trkpt lat="46.26508" lon="10.44964">
        <ele>2046.031</ele>
        <time>2018-09-13T17:41:45Z</time>
      </trkpt>
      <trkpt lat="46.26511" lon="10.44973">
        <ele>2045.961</ele>
        <time>2018-09-13T17:42:05Z</time>
      </trkpt>
      <trkpt lat="46.26518" lon="10.44986">
        <ele>2046.307</ele>
        <time>2018-09-13T17:42:25Z</time>
      </trkpt>
      <trkpt lat="46.26523" lon="10.44999">
        <ele>2046.508</ele>
        <time>2018-09-13T17:42:45Z</time>
      </trkpt>
      <trkpt lat="46.26529" lon="10.45009">
        <ele>2046.645</ele>
        <time>2018-09-13T17:43:05Z</time>
      </trkpt>
      <trkpt lat="46.26532" lon="10.45016">
        <ele>2046.071</ele>
        <time>2018-09-13T17:43:25Z</time>
      </trkpt>
      <trkpt lat="46.26535" lon="10.45028">
        <ele>2044.438</ele>
        <time>2018-09-13T17:43:45Z</time>
      </trkpt>
      <trkpt lat="46.26537" lon="10.45043">
        <ele>2042.371</ele>
        <time>2018-09-13T17:44:05Z</time>
      </trkpt>
      <trkpt lat="46.26532" lon="10.45054">
        <ele>2039.174</ele>
        <time>2018-09-13T17:44:25Z</time>
      </trkpt>
      <trkpt lat="46.26527" lon="10.45077">
        <ele>2033.957</ele>
        <time>2018-09-13T17:44:45Z</time>
      </trkpt>
      <trkpt lat="46.26516" lon="10.45091">
        <ele>2028.615</ele>
        <time>2018-09-13T17:45:05Z</time>
      </trkpt>
      <trkpt lat="46.26505" lon="10.45112">
        <ele>2021.182</ele>
        <time>2018-09-13T17:45:25Z</time>
      </trkpt>
      <trkpt lat="46.26499" lon="10.45126">
        <ele>2015.415</ele>
        <time>2018-09-13T17:45:45Z</time>
      </trkpt>
      <trkpt lat="46.26492" lon="10.45141">
        <ele>2010.265</ele>
        <time>2018-09-13T17:46:05Z</time>
      </trkpt>
      <trkpt lat="46.26489" lon="10.45148">
        <ele>2008.111</ele>
        <time>2018-09-13T17:46:25Z</time>
      </trkpt>
      <trkpt lat="46.2648" lon="10.45168">
        <ele>2002.308</ele>
        <time>2018-09-13T17:46:45Z</time>
      </trkpt>
      <trkpt lat="46.26474" lon="10.45187">
        <ele>1995.683</ele>
        <time>2018-09-13T17:47:05Z</time>
      </trkpt>
      <trkpt lat="46.26469" lon="10.45204">
        <ele>1989.749</ele>
        <time>2018-09-13T17:47:25Z</time>
      </trkpt>
      <trkpt lat="46.26456" lon="10.45231">
        <ele>1981.186</ele>
        <time>2018-09-13T17:47:45Z</time>
      </trkpt>
      <trkpt lat="46.26446" lon="10.45252">
        <ele>1976.519</ele>
        <time>2018-09-13T17:48:05Z</time>
      </trkpt>
      <trkpt lat="46.26432" lon="10.45291">
        <ele>1973.162</ele>
        <time>2018-09-13T17:48:25Z</time>
      </trkpt>
      <trkpt lat="46.26429" lon="10.45301">
        <ele>1973.095</ele>
        <time>2018-09-13T17:48:45Z</time>
      </trkpt>
      <trkpt lat="46.26429" lon="10.45312">
        <ele>1973.243</ele>
        <time>2018-09-13T17:49:05Z</time>
      </trkpt>
      <trkpt lat="46.26426" lon="10.45325">
        <ele>1972.76</ele>
        <time>2018-09-13T17:49:25Z</time>
      </trkpt>
      <trkpt lat="46.26413" lon="10.45339">
        <ele>1968.791</ele>
        <time>2018-09-13T17:49:45Z</time>
      </trkpt>
      <trkpt lat="46.264" lon="10.45351">
        <ele>1962.881</ele>
        <time>2018-09-13T17:50:05Z</time>
      </trkpt>
      <trkpt lat="46.26391" lon="10.45367">
        <ele>1958.419</ele>
        <time>2018-09-13T17:50:25Z</time>
      </trkpt>
      <trkpt lat="46.26382" lon="10.45372">
        <ele>1956.208</ele>
        <time>2018-09-13T17:50:45Z</time>
      </trkpt>
      <trkpt lat="46.26375" lon="10.45377">
        <ele>1954.531</ele>
        <time>2018-09-13T17:51:05Z</time>
      </trkpt>
      <trkpt lat="46.26366" lon="10.45389">
        <ele>1952.497</ele>
        <time>2018-09-13T17:51:25Z</time>
      </trkpt>
      <trkpt lat="46.26356" lon="10.45388">
        <ele>1949.964</ele>
        <time>2018-09-13T17:51:45Z</time>
      </trkpt>
      <trkpt lat="46.26345" lon="10.45385">
        <ele>1946.047</ele>
        <time>2018-09-13T17:52:05Z</time>
      </trkpt>
      <trkpt lat="46.26324" lon="10.45378">
        <ele>1939.43</ele>
        <time>2018-09-13T17:52:25Z</time>
      </trkpt>
      <trkpt lat="46.263" lon="10.45373">
        <ele>1931.723</ele>
        <time>2018-09-13T17:52:45Z</time>
      </trkpt>
      <trkpt lat="46.26293" lon="10.45377">
        <ele>1929.111</ele>
        <time>2018-09-13T17:53:05Z</time>
      </trkpt>
      <trkpt lat="46.26286" lon="10.45373">
        <ele>1926.728</ele>
        <time>2018-09-13T17:53:25Z</time>
      </trkpt>
      <trkpt lat="46.26279" lon="10.4537">
        <ele>1923.968</ele>
        <time>2018-09-13T17:53:45Z</time>
      </trkpt>
      <trkpt lat="46.26267" lon="10.45375">
        <ele>1920.342</ele>
        <time>2018-09-13T17:54:05Z</time>
      </trkpt>
      <trkpt lat="46.2626" lon="10.45378">
        <ele>1918.326</ele>
        <time>2018-09-13T17:54:25Z</time>
      </trkpt>
      <trkpt lat="46.26254" lon="10.45376">
        <ele>1916.108</ele>
        <time>2018-09-13T17:54:45Z</time>
      </trkpt>
      <trkpt lat="46.26239" lon="10.4537">
        <ele>1911.718</ele>
        <time>2018-09-13T17:55:05Z</time>
      </trkpt>
      <trkpt lat="46.26232" lon="10.45371">
        <ele>1910.114</ele>
        <time>2018-09-13T17:55:25Z</time>
      </trkpt>
      <trkpt lat="46.26224" lon="10.45369">
        <ele>1908.341</ele>
        <time>2018-09-13T17:55:45Z</time>
      </trkpt>
      <trkpt lat="46.26206" lon="10.45368">
        <ele>1904.714</ele>
        <time>2018-09-13T17:56:05Z</time>
      </trkpt>
      <trkpt lat="46.26186" lon="10.45377">
        <ele>1900.217</ele>
        <time>2018-09-13T17:56:25Z</time>
      </trkpt>
      <trkpt lat="46.26183" lon="10.45385">
        <ele>1899.69</ele>
        <time>2018-09-13T17:56:45Z</time>
      </trkpt>
      <trkpt lat="46.26182" lon="10.45401">
        <ele>1897.548</ele>
        <time>2018-09-13T17:57:05Z</time>
      </trkpt>
      <trkpt lat="46.26179" lon="10.45407">
        <ele>1895.235</ele>
        <time>2018-09-13T17:57:25Z</time>
      </trkpt>
      <trkpt lat="46.26173" lon="10.4541">
        <ele>1892.068</ele>
        <time>2018-09-13T17:57:45Z</time>
      </trkpt>
      <trkpt lat="46.26165" lon="10.45408">
        <ele>1889.242</ele>
        <time>2018-09-13T17:58:05Z</time>
      </trkpt>
      <trkpt lat="46.26155" lon="10.45401">
        <ele>1887.426</ele>
        <time>2018-09-13T17:58:25Z</time>
      </trkpt>
      <trkpt lat="46.2614" lon="10.45387">
        <ele>1884.408</ele>
        <time>2018-09-13T17:58:45Z</time>
      </trkpt>
      <trkpt lat="46.26132" lon="10.45373">
        <ele>1881.538</ele>
        <time>2018-09-13T17:59:05Z</time>
      </trkpt>
      <trkpt lat="46.26121" lon="10.45355">
        <ele>1877.644</ele>
        <time>2018-09-13T17:59:25Z</time>
      </trkpt>
      <trkpt lat="46.26113" lon="10.4534">
        <ele>1873.821</ele>
        <time>2018-09-13T17:59:45Z</time>
      </trkpt>
      <trkpt lat="46.26108" lon="10.45322">
        <ele>1867.814</ele>
        <time>2018-09-13T18:00:05Z</time>
      </trkpt>
      <trkpt lat="46.26101" lon="10.45321">
        <ele>1865.187</ele>
        <time>2018-09-13T18:00:25Z</time>
      </trkpt>
      <trkpt lat="46.26095" lon="10.45324">
        <ele>1864.04</ele>
        <time>2018-09-13T18:00:45Z</time>
      </trkpt>
      <trkpt lat="46.26087" lon="10.45328">
        <ele>1862.768</ele>
        <time>2018-09-13T18:01:05Z</time>
      </trkpt>
      <trkpt lat="46.26075" lon="10.45334">
        <ele>1859.145</ele>
        <time>2018-09-13T18:01:25Z</time>
      </trkpt>
      <trkpt lat="46.26068" lon="10.4534">
        <ele>1855.865</ele>
        <time>2018-09-13T18:01:45Z</time>
      </trkpt>
      <trkpt lat="46.26064" lon="10.45351">
        <ele>1853.868</ele>
        <time>2018-09-13T18:02:05Z</time>
      </trkpt>
      <trkpt lat="46.26063" lon="10.45363">
        <ele>1853.414</ele>
        <time>2018-09-13T18:02:25Z</time>
      </trkpt>
      <trkpt lat="46.26061" lon="10.4538">
        <ele>1852.308</ele>
        <time>2018-09-13T18:02:45Z</time>
      </trkpt>
      <trkpt lat="46.26058" lon="10.45397">
        <ele>1850.758</ele>
        <time>2018-09-13T18:03:05Z</time>
      </trkpt>
      <trkpt lat="46.26054" lon="10.4541">
        <ele>1847.714</ele>
        <time>2018-09-13T18:03:25Z</time>
      </trkpt>
      <trkpt lat="46.26046" lon="10.45427">
        <ele>1843.411</ele>
        <time>2018-09-13T18:03:45Z</time>
      </trkpt>
      <trkpt lat="46.26037" lon="10.45444">
        <ele>1840.284</ele>
        <time>2018-09-13T18:04:05Z</time>
      </trkpt>
      <trkpt lat="46.26031" lon="10.45471">
        <ele>1836.787</ele>
        <time>2018-09-13T18:04:25Z</time>
      </trkpt>
      <trkpt lat="46.26028" lon="10.45487">
        <ele>1834.88</ele>
        <time>2018-09-13T18:04:45Z</time>
      </trkpt>
      <trkpt lat="46.26027" lon="10.45504">
        <ele>1833.578</ele>
        <time>2018-09-13T18:05:05Z</time>
      </trkpt>
      <trkpt lat="46.26028" lon="10.45518">
        <ele>1832.685</ele>
        <time>2018-09-13T18:05:25Z</time>
      </trkpt>
      <trkpt lat="46.26033" lon="10.45531">
        <ele>1832.479</ele>
        <time>2018-09-13T18:05:45Z</time>
      </trkpt>
      <trkpt lat="46.26041" lon="10.4555">
        <ele>1831.905</ele>
        <time>2018-09-13T18:06:05Z</time>
      </trkpt>
      <trkpt lat="46.26055" lon="10.45565">
        <ele>1831.925</ele>
        <time>2018-09-13T18:06:25Z</time>
      </trkpt>
      <trkpt lat="46.26066" lon="10.45577">
        <ele>1831.808</ele>
        <time>2018-09-13T18:06:45Z</time>
      </trkpt>
      <trkpt lat="46.26077" lon="10.45592">
        <ele>1831.339</ele>
        <time>2018-09-13T18:07:05Z</time>
      </trkpt>
      <trkpt lat="46.26092" lon="10.45643">
        <ele>1826.865</ele>
        <time>2018-09-13T18:07:25Z</time>
      </trkpt>
      <trkpt lat="46.26096" lon="10.45657">
        <ele>1825.222</ele>
        <time>2018-09-13T18:07:45Z</time>
      </trkpt>
      <trkpt lat="46.26104" lon="10.45662">
        <ele>1826.265</ele>
        <time>2018-09-13T18:08:05Z</time>
      </trkpt>
      <trkpt lat="46.26111" lon="10.45676">
        <ele>1825.028</ele>
        <time>2018-09-13T18:08:25Z</time>
      </trkpt>
      <trkpt lat="46.26115" lon="10.45687">
        <ele>1823.441</ele>
        <time>2018-09-13T18:08:45Z</time>
      </trkpt>
      <trkpt lat="46.26125" lon="10.45701">
        <ele>1822.949</ele>
        <time>2018-09-13T18:09:05Z</time>
      </trkpt>
      <trkpt lat="46.26135" lon="10.45716">
        <ele>1822.356</ele>
        <time>2018-09-13T18:09:25Z</time>
      </trkpt>
      <trkpt lat="46.26148" lon="10.45738">
        <ele>1819.036</ele>
        <time>2018-09-13T18:09:45Z</time>
      </trkpt>
      <trkpt lat="46.26157" lon="10.45747">
        <ele>1817.517</ele>
        <time>2018-09-13T18:10:05Z</time>
      </trkpt>
      <trkpt lat="46.26164" lon="10.45752">
        <ele>1816.918</ele>
        <time>2018-09-13T18:10:25Z</time>
      </trkpt>
      <trkpt lat="46.26158" lon="10.45759">
        <ele>1813.908</ele>
        <time>2018-09-13T18:10:45Z</time>
      </trkpt>
      <trkpt lat="46.26152" lon="10.45764">
        <ele>1811.325</ele>
        <time>2018-09-13T18:11:05Z</time>
      </trkpt>
      <trkpt lat="46.2614" lon="10.45782">
        <ele>1803.691</ele>
        <time>2018-09-13T18:11:25Z</time>
      </trkpt>
      <trkpt lat="46.2614" lon="10.45782">
        <ele>1803.678</ele>
        <time>2018-09-13T18:11:45Z</time>
      </trkpt>
      <trkpt lat="46.26158" lon="10.45791">
        <ele>1803.531</ele>
        <time>2018-09-13T18:12:05Z</time>
      </trkpt>
      <trkpt lat="46.26163" lon="10.45791">
        <ele>1803.984</ele>
        <time>2018-09-13T18:12:25Z</time>
      </trkpt>
      <trkpt lat="46.26164" lon="10.45792">
        <ele>1804.047</ele>
        <time>2018-09-13T18:12:45Z</time>
      </trkpt>
      <trkpt lat="46.26183" lon="10.45814">
        <ele>1794.775</ele>
        <time>2018-09-13T18:13:05Z</time>
      </trkpt>
      <trkpt lat="46.26206" lon="10.45825">
        <ele>1787.482</ele>
        <time>2018-09-13T18:13:25Z</time>
      </trkpt>
      <trkpt lat="46.26219" lon="10.4583">
        <ele>1784.416</ele>
        <time>2018-09-13T18:13:45Z</time>
      </trkpt>
      <trkpt lat="46.2623" lon="10.45833">
        <ele>1781.876</ele>
        <time>2018-09-13T18:14:05Z</time>
      </trkpt>
      <trkpt lat="46.26254" lon="10.4584">
        <ele>1773.113</ele>
        <time>2018-09-13T18:14:25Z</time>
      </trkpt>
      <trkpt lat="46.26266" lon="10.45837">
        <ele>1770.708</ele>
        <time>2018-09-13T18:14:45Z</time>
      </trkpt>
      <trkpt lat="46.26279" lon="10.45841">
        <ele>1764.453</ele>
        <time>2018-09-13T18:15:05Z</time>
      </trkpt>
      <trkpt lat="46.26296" lon="10.45838">
        <ele>1760.069</ele>
        <time>2018-09-13T18:15:25Z</time>
      </trkpt>
      <trkpt lat="46.26308" lon="10.45839">
        <ele>1755.476</ele>
        <time>2018-09-13T18:15:45Z</time>
      </trkpt>
      <trkpt lat="46.26337" lon="10.4584">
        <ele>1743.579</ele>
        <time>2018-09-13T18:16:05Z</time>
      </trkpt>
      <trkpt lat="46.26394" lon="10.45843">
        <ele>1725.412</ele>
        <time>2018-09-13T18:16:25Z</time>
      </trkpt>
      <trkpt lat="46.26426" lon="10.45848">
        <ele>1715.285</ele>
        <time>2018-09-13T18:16:45Z</time>
      </trkpt>
      <trkpt lat="46.2643" lon="10.45848">
        <ele>1714.453</ele>
        <time>2018-09-13T18:17:05Z</time>
      </trkpt>
      <trkpt lat="46.26433" lon="10.45854">
        <ele>1711.96</ele>
        <time>2018-09-13T18:17:25Z</time>
      </trkpt>
      <trkpt lat="46.26428" lon="10.45867">
        <ele>1709.331</ele>
        <time>2018-09-13T18:17:45Z</time>
      </trkpt>
      <trkpt lat="46.26421" lon="10.45874">
        <ele>1708.661</ele>
        <time>2018-09-13T18:18:05Z</time>
      </trkpt>
      <trkpt lat="46.2642" lon="10.45876">
        <ele>1708.207</ele>
        <time>2018-09-13T18:18:25Z</time>
      </trkpt>
      <trkpt lat="46.26414" lon="10.45888">
        <ele>1706.008</ele>
        <time>2018-09-13T18:18:45Z</time>
      </trkpt>
      <trkpt lat="46.26421" lon="10.45905">
        <ele>1699.385</ele>
        <time>2018-09-13T18:19:05Z</time>
      </trkpt>
      <trkpt lat="46.26393" lon="10.45924">
        <ele>1700.661</ele>
        <time>2018-09-13T18:19:25Z</time>
      </trkpt>
      <trkpt lat="46.26389" lon="10.45926">
        <ele>1701.388</ele>
        <time>2018-09-13T18:19:45Z</time>
      </trkpt>
      <trkpt lat="46.26379" lon="10.45943">
        <ele>1698.861</ele>
        <time>2018-09-13T18:20:05Z</time>
      </trkpt>
      <trkpt lat="46.26358" lon="10.45993">
        <ele>1691.424</ele>
        <time>2018-09-13T18:20:25Z</time>
      </trkpt>
      <trkpt lat="46.26349" lon="10.46023">
        <ele>1686.147</ele>
        <time>2018-09-13T18:20:45Z</time>
      </trkpt>
      <trkpt lat="46.26347" lon="10.46035">
        <ele>1683.785</ele>
        <time>2018-09-13T18:21:05Z</time>
      </trkpt>
      <trkpt lat="46.26346" lon="10.46051">
        <ele>1679.882</ele>
        <time>2018-09-13T18:21:25Z</time>
      </trkpt>
      <trkpt lat="46.26345" lon="10.46064">
        <ele>1676.987</ele>
        <time>2018-09-13T18:21:45Z</time>
      </trkpt>
      <trkpt lat="46.26346" lon="10.46074">
        <ele>1674.442</ele>
        <time>2018-09-13T18:22:05Z</time>
      </trkpt>
      <trkpt lat="46.26348" lon="10.46083">
        <ele>1671.826</ele>
        <time>2018-09-13T18:22:25Z</time>
      </trkpt>
      <trkpt lat="46.26351" lon="10.46087">
        <ele>1670.708</ele>
        <time>2018-09-13T18:22:45Z</time>
      </trkpt>
      <trkpt lat="46.26356" lon="10.46081">
        <ele>1671.28</ele>
        <time>2018-09-13T18:23:05Z</time>
      </trkpt>
      <trkpt lat="46.26375" lon="10.46054">
        <ele>1673.326</ele>
        <time>2018-09-13T18:23:25Z</time>
      </trkpt>
      <trkpt lat="46.26385" lon="10.46039">
        <ele>1674.143</ele>
        <time>2018-09-13T18:23:45Z</time>
      </trkpt>
      <trkpt lat="46.2639" lon="10.46028">
        <ele>1674.846</ele>
        <time>2018-09-13T18:24:05Z</time>
      </trkpt>
      <trkpt lat="46.26395" lon="10.46017">
        <ele>1676.159</ele>
        <time>2018-09-13T18:24:25Z</time>
      </trkpt>
      <trkpt lat="46.264" lon="10.4601">
        <ele>1676.582</ele>
        <time>2018-09-13T18:24:45Z</time>
      </trkpt>
      <trkpt lat="46.2641" lon="10.46007">
        <ele>1674.76</ele>
        <time>2018-09-13T18:25:05Z</time>
      </trkpt>
      <trkpt lat="46.26427" lon="10.46004">
        <ele>1672.437</ele>
        <time>2018-09-13T18:25:25Z</time>
      </trkpt>
      <trkpt lat="46.26438" lon="10.45992">
        <ele>1672.747</ele>
        <time>2018-09-13T18:25:45Z</time>
      </trkpt>
      <trkpt lat="46.26446" lon="10.45977">
        <ele>1673.329</ele>
        <time>2018-09-13T18:26:05Z</time>
      </trkpt>
      <trkpt lat="46.26455" lon="10.45959">
        <ele>1675.721</ele>
        <time>2018-09-13T18:26:25Z</time>
      </trkpt>
      <trkpt lat="46.26462" lon="10.45948">
        <ele>1676.108</ele>
        <time>2018-09-13T18:26:45Z</time>
      </trkpt>
      <trkpt lat="46.2647" lon="10.4594">
        <ele>1675.636</ele>
        <time>2018-09-13T18:27:05Z</time>
      </trkpt>
      <trkpt lat="46.26486" lon="10.45931">
        <ele>1675.152</ele>
        <time>2018-09-13T18:27:25Z</time>
      </trkpt>
      <trkpt lat="46.26493" lon="10.45927">
        <ele>1674.429</ele>
        <time>2018-09-13T18:27:45Z</time>
      </trkpt>
      <trkpt lat="46.26502" lon="10.45924">
        <ele>1673.522</ele>
        <time>2018-09-13T18:28:05Z</time>
      </trkpt>
      <trkpt lat="46.26512" lon="10.45917">
        <ele>1674.075</ele>
        <time>2018-09-13T18:28:25Z</time>
      </trkpt>
      <trkpt lat="46.26534" lon="10.45895">
        <ele>1674.878</ele>
        <time>2018-09-13T18:28:45Z</time>
      </trkpt>
      <trkpt lat="46.26545" lon="10.45884">
        <ele>1675.156</ele>
        <time>2018-09-13T18:29:05Z</time>
      </trkpt>
      <trkpt lat="46.26549" lon="10.45881">
        <ele>1675.283</ele>
        <time>2018-09-13T18:29:25Z</time>
      </trkpt>
      <trkpt lat="46.26553" lon="10.45877">
        <ele>1675.155</ele>
        <time>2018-09-13T18:29:45Z</time>
      </trkpt>
      <trkpt lat="46.26561" lon="10.45869">
        <ele>1675.007</ele>
        <time>2018-09-13T18:30:05Z</time>
      </trkpt>
      <trkpt lat="46.26566" lon="10.45866">
        <ele>1675.017</ele>
        <time>2018-09-13T18:30:25Z</time>
      </trkpt>
      <trkpt lat="46.26567" lon="10.45866">
        <ele>1675.008</ele>
        <time>2018-09-13T18:30:45Z</time>
      </trkpt>
      <trkpt lat="46.26592" lon="10.45851">
        <ele>1675.467</ele>
        <time>2018-09-13T18:31:05Z</time>
      </trkpt>
      <trkpt lat="46.26605" lon="10.45852">
        <ele>1675.133</ele>
        <time>2018-09-13T18:31:25Z</time>
      </trkpt>
      <trkpt lat="46.26617" lon="10.45852">
        <ele>1675.07</ele>
        <time>2018-09-13T18:31:45Z</time>
      </trkpt>
      <trkpt lat="46.2663" lon="10.45859">
        <ele>1675.093</ele>
        <time>2018-09-13T18:32:05Z</time>
      </trkpt>
      <trkpt lat="46.26653" lon="10.45851">
        <ele>1676.116</ele>
        <time>2018-09-13T18:32:25Z</time>
      </trkpt>
      <trkpt lat="46.26662" lon="10.45848">
        <ele>1676.789</ele>
        <time>2018-09-13T18:32:45Z</time>
      </trkpt>
      <trkpt lat="46.26676" lon="10.45842">
        <ele>1677.817</ele>
        <time>2018-09-13T18:33:05Z</time>
      </trkpt>
      <trkpt lat="46.26684" lon="10.45837">
        <ele>1678.754</ele>
        <time>2018-09-13T18:33:25Z</time>
      </trkpt>
      <trkpt lat="46.26701" lon="10.45834">
        <ele>1681.382</ele>
        <time>2018-09-13T18:33:45Z</time>
      </trkpt>
      <trkpt lat="46.26706" lon="10.4582">
        <ele>1681.943</ele>
        <time>2018-09-13T18:34:05Z</time>
      </trkpt>
      <trkpt lat="46.26732" lon="10.45789">
        <ele>1689.217</ele>
        <time>2018-09-13T18:34:25Z</time>
      </trkpt>
      <trkpt lat="46.26832" lon="10.45723">
        <ele>1700.008</ele>
        <time>2018-09-13T18:34:45Z</time>
      </trkpt>
      <trkpt lat="46.26879" lon="10.45675">
        <ele>1710.86</ele>
        <time>2018-09-13T18:35:05Z</time>
      </trkpt>
      <trkpt lat="46.2692" lon="10.4565">
        <ele>1717.616</ele>
        <time>2018-09-13T18:35:25Z</time>
      </trkpt>
      <trkpt lat="46.26936" lon="10.4565">
        <ele>1719.533</ele>
        <time>2018-09-13T18:35:45Z</time>
      </trkpt>
      <trkpt lat="46.26964" lon="10.45628">
        <ele>1722.786</ele>
        <time>2018-09-13T18:36:05Z</time>
      </trkpt>
      <trkpt lat="46.27012" lon="10.45575">
        <ele>1726.579</ele>
        <time>2018-09-13T18:36:25Z</time>
      </trkpt>
      <trkpt lat="46.27035" lon="10.45548">
        <ele>1729.572</ele>
        <time>2018-09-13T18:36:45Z</time>
      </trkpt>
      <trkpt lat="46.27059" lon="10.45528">
        <ele>1736.54</ele>
        <time>2018-09-13T18:37:05Z</time>
      </trkpt>
      <trkpt lat="46.27066" lon="10.45523">
        <ele>1737.917</ele>
        <time>2018-09-13T18:37:25Z</time>
      </trkpt>
      <trkpt lat="46.27092" lon="10.45505">
        <ele>1742.937</ele>
        <time>2018-09-13T18:37:45Z</time>
      </trkpt>
      <trkpt lat="46.27136" lon="10.45478">
        <ele>1749.649</ele>
        <time>2018-09-13T18:38:05Z</time>
      </trkpt>
      <trkpt lat="46.2717" lon="10.45448">
        <ele>1750.013</ele>
        <time>2018-09-13T18:38:25Z</time>
      </trkpt>
      <trkpt lat="46.27193" lon="10.45415">
        <ele>1750.008</ele>
        <time>2018-09-13T18:38:45Z</time>
      </trkpt>
      <trkpt lat="46.27218" lon="10.45391">
        <ele>1750.055</ele>
        <time>2018-09-13T18:39:05Z</time>
      </trkpt>
      <trkpt lat="46.27235" lon="10.45382">
        <ele>1751.061</ele>
        <time>2018-09-13T18:39:25Z</time>
      </trkpt>
      <trkpt lat="46.27245" lon="10.45382">
        <ele>1751.618</ele>
        <time>2018-09-13T18:39:45Z</time>
      </trkpt>
      <trkpt lat="46.27256" lon="10.45382">
        <ele>1752.661</ele>
        <time>2018-09-13T18:40:05Z</time>
      </trkpt>
      <trkpt lat="46.27295" lon="10.45383">
        <ele>1756.874</ele>
        <time>2018-09-13T18:40:25Z</time>
      </trkpt>
      <trkpt lat="46.27346" lon="10.45395">
        <ele>1763.627</ele>
        <time>2018-09-13T18:40:45Z</time>
      </trkpt>
      <trkpt lat="46.27383" lon="10.45375">
        <ele>1766.345</ele>
        <time>2018-09-13T18:41:05Z</time>
      </trkpt>
      <trkpt lat="46.27412" lon="10.45328">
        <ele>1769.832</ele>
        <time>2018-09-13T18:41:25Z</time>
      </trkpt>
      <trkpt lat="46.27437" lon="10.45285">
        <ele>1773.219</ele>
        <time>2018-09-13T18:41:45Z</time>
      </trkpt>
      <trkpt lat="46.27462" lon="10.45301">
        <ele>1774.209</ele>
        <time>2018-09-13T18:42:05Z</time>
      </trkpt>
      <trkpt lat="46.27467" lon="10.45309">
        <ele>1774.619</ele>
        <time>2018-09-13T18:42:25Z</time>
      </trkpt>
      <trkpt lat="46.27475" lon="10.45324">
        <ele>1775.008</ele>
        <time>2018-09-13T18:42:45Z</time>
      </trkpt>
      <trkpt lat="46.27478" lon="10.45351">
        <ele>1775.513</ele>
        <time>2018-09-13T18:43:05Z</time>
      </trkpt>
      <trkpt lat="46.27475" lon="10.45378">
        <ele>1779.849</ele>
        <time>2018-09-13T18:43:25Z</time>
      </trkpt>
      <trkpt lat="46.27469" lon="10.45401">
        <ele>1786.416</ele>
        <time>2018-09-13T18:43:45Z</time>
      </trkpt>
      <trkpt lat="46.27461" lon="10.45426">
        <ele>1792.819</ele>
        <time>2018-09-13T18:44:05Z</time>
      </trkpt>
      <trkpt lat="46.27455" lon="10.45451">
        <ele>1798.612</ele>
        <time>2018-09-13T18:44:25Z</time>
      </trkpt>
      <trkpt lat="46.2745" lon="10.45476">
        <ele>1804.335</ele>
        <time>2018-09-13T18:44:45Z</time>
      </trkpt>
      <trkpt lat="46.27446" lon="10.45502">
        <ele>1809.673</ele>
        <time>2018-09-13T18:45:05Z</time>
      </trkpt>
      <trkpt lat="46.27431" lon="10.45517">
        <ele>1808.91</ele>
        <time>2018-09-13T18:45:25Z</time>
      </trkpt>
      <trkpt lat="46.27418" lon="10.45551">
        <ele>1814.849</ele>
        <time>2018-09-13T18:45:45Z</time>
      </trkpt>
      <trkpt lat="46.27406" lon="10.45576">
        <ele>1819.802</ele>
        <time>2018-09-13T18:46:05Z</time>
      </trkpt>
      <trkpt lat="46.27402" lon="10.45594">
        <ele>1823.722</ele>
        <time>2018-09-13T18:46:25Z</time>
      </trkpt>
      <trkpt lat="46.27395" lon="10.4561">
        <ele>1827.008</ele>
        <time>2018-09-13T18:46:45Z</time>
      </trkpt>
      <trkpt lat="46.27385" lon="10.45634">
        <ele>1830.496</ele>
        <time>2018-09-13T18:47:05Z</time>
      </trkpt>
      <trkpt lat="46.27374" lon="10.45658">
        <ele>1832.772</ele>
        <time>2018-09-13T18:47:25Z</time>
      </trkpt>
      <trkpt lat="46.27371" lon="10.45683">
        <ele>1837.189</ele>
        <time>2018-09-13T18:47:45Z</time>
      </trkpt>
      <trkpt lat="46.27371" lon="10.45684">
        <ele>1837.142</ele>
        <time>2018-09-13T18:48:05Z</time>
      </trkpt>
      <trkpt lat="46.27372" lon="10.4571">
        <ele>1842.375</ele>
        <time>2018-09-13T18:48:25Z</time>
      </trkpt>
      <trkpt lat="46.27356" lon="10.45725">
        <ele>1842.228</ele>
        <time>2018-09-13T18:48:45Z</time>
      </trkpt>
      <trkpt lat="46.27348" lon="10.4575">
        <ele>1845.596</ele>
        <time>2018-09-13T18:49:05Z</time>
      </trkpt>
      <trkpt lat="46.27337" lon="10.4577">
        <ele>1848.763</ele>
        <time>2018-09-13T18:49:25Z</time>
      </trkpt>
      <trkpt lat="46.27329" lon="10.45794">
        <ele>1852.763</ele>
        <time>2018-09-13T18:49:45Z</time>
      </trkpt>
      <trkpt lat="46.27319" lon="10.45818">
        <ele>1855.944</ele>
        <time>2018-09-13T18:50:05Z</time>
      </trkpt>
      <trkpt lat="46.27315" lon="10.45843">
        <ele>1861.918</ele>
        <time>2018-09-13T18:50:25Z</time>
      </trkpt>
      <trkpt lat="46.27309" lon="10.45868">
        <ele>1867.408</ele>
        <time>2018-09-13T18:50:45Z</time>
      </trkpt>
      <trkpt lat="46.27299" lon="10.45891">
        <ele>1870.628</ele>
        <time>2018-09-13T18:51:05Z</time>
      </trkpt>
      <trkpt lat="46.27294" lon="10.45916">
        <ele>1876.864</ele>
        <time>2018-09-13T18:51:25Z</time>
      </trkpt>
      <trkpt lat="46.27273" lon="10.45939">
        <ele>1874.311</ele>
        <time>2018-09-13T18:51:45Z</time>
      </trkpt>
      <trkpt lat="46.27266" lon="10.45952">
        <ele>1875.794</ele>
        <time>2018-09-13T18:52:05Z</time>
      </trkpt>
      <trkpt lat="46.27264" lon="10.4598">
        <ele>1884.077</ele>
        <time>2018-09-13T18:52:25Z</time>
      </trkpt>
      <trkpt lat="46.27262" lon="10.45987">
        <ele>1885.64</ele>
        <time>2018-09-13T18:52:45Z</time>
      </trkpt>
      <trkpt lat="46.27253" lon="10.45988">
        <ele>1881.638</ele>
        <time>2018-09-13T18:53:05Z</time>
      </trkpt>
      <trkpt lat="46.2725" lon="10.45994">
        <ele>1881.735</ele>
        <time>2018-09-13T18:53:25Z</time>
      </trkpt>
      <trkpt lat="46.27248" lon="10.46">
        <ele>1882.728</ele>
        <time>2018-09-13T18:53:45Z</time>
      </trkpt>
      <trkpt lat="46.27247" lon="10.46007">
        <ele>1884.389</ele>
        <time>2018-09-13T18:54:05Z</time>
      </trkpt>
      <trkpt lat="46.27246" lon="10.46016">
        <ele>1886.817</ele>
        <time>2018-09-13T18:54:25Z</time>
      </trkpt>
      <trkpt lat="46.27242" lon="10.46023">
        <ele>1885.908</ele>
        <time>2018-09-13T18:54:45Z</time>
      </trkpt>
      <trkpt lat="46.2724" lon="10.46029">
        <ele>1886.614</ele>
        <time>2018-09-13T18:55:05Z</time>
      </trkpt>
      <trkpt lat="46.27237" lon="10.46039">
        <ele>1887.62</ele>
        <time>2018-09-13T18:55:25Z</time>
      </trkpt>
      <trkpt lat="46.27238" lon="10.46047">
        <ele>1891.237</ele>
        <time>2018-09-13T18:55:45Z</time>
      </trkpt>
      <trkpt lat="46.27236" lon="10.46052">
        <ele>1891.89</ele>
        <time>2018-09-13T18:56:05Z</time>
      </trkpt>
      <trkpt lat="46.27238" lon="10.46057">
        <ele>1894.443</ele>
        <time>2018-09-13T18:56:25Z</time>
      </trkpt>
      <trkpt lat="46.27238" lon="10.46064">
        <ele>1896.626</ele>
        <time>2018-09-13T18:56:45Z</time>
      </trkpt>
      <trkpt lat="46.27238" lon="10.4607">
        <ele>1898.834</ele>
        <time>2018-09-13T18:57:05Z</time>
      </trkpt>
      <trkpt lat="46.2724" lon="10.46077">
        <ele>1902.341</ele>
        <time>2018-09-13T18:57:25Z</time>
      </trkpt>
      <trkpt lat="46.27238" lon="10.46086">
        <ele>1903.485</ele>
        <time>2018-09-13T18:57:45Z</time>
      </trkpt>
      <trkpt lat="46.27235" lon="10.46095">
        <ele>1904.189</ele>
        <time>2018-09-13T18:58:05Z</time>
      </trkpt>
      <trkpt lat="46.27231" lon="10.46106">
        <ele>1905.217</ele>
        <time>2018-09-13T18:58:25Z</time>
      </trkpt>
      <trkpt lat="46.27231" lon="10.46115">
        <ele>1907.208</ele>
        <time>2018-09-13T18:58:45Z</time>
      </trkpt>
      <trkpt lat="46.2723" lon="10.46125">
        <ele>1909.16</ele>
        <time>2018-09-13T18:59:05Z</time>
      </trkpt>
      <trkpt lat="46.27238" lon="10.46135">
        <ele>1915.916</ele>
        <time>2018-09-13T18:59:25Z</time>
      </trkpt>
      <trkpt lat="46.2724" lon="10.46136">
        <ele>1917.273</ele>
        <time>2018-09-13T18:59:45Z</time>
      </trkpt>
      <trkpt lat="46.27257" lon="10.46131">
        <ele>1923.786</ele>
        <time>2018-09-13T19:00:05Z</time>
      </trkpt>
      <trkpt lat="46.2725" lon="10.46156">
        <ele>1926.789</ele>
        <time>2018-09-13T19:00:25Z</time>
      </trkpt>
      <trkpt lat="46.27248" lon="10.46161">
        <ele>1926.532</ele>
        <time>2018-09-13T19:00:45Z</time>
      </trkpt>
      <trkpt lat="46.27242" lon="10.46186">
        <ele>1929.88</ele>
        <time>2018-09-13T19:01:05Z</time>
      </trkpt>
      <trkpt lat="46.27238" lon="10.46211">
        <ele>1934.287</ele>
        <time>2018-09-13T19:01:25Z</time>
      </trkpt>
      <trkpt lat="46.27202" lon="10.46314">
        <ele>1945.838</ele>
        <time>2018-09-13T19:01:45Z</time>
      </trkpt>
      <trkpt lat="46.272" lon="10.46341">
        <ele>1952.67</ele>
        <time>2018-09-13T19:02:05Z</time>
      </trkpt>
      <trkpt lat="46.27192" lon="10.46365">
        <ele>1955.117</ele>
        <time>2018-09-13T19:02:25Z</time>
      </trkpt>
      <trkpt lat="46.27189" lon="10.46391">
        <ele>1960.908</ele>
        <time>2018-09-13T19:02:45Z</time>
      </trkpt>
      <trkpt lat="46.27185" lon="10.46417">
        <ele>1966.315</ele>
        <time>2018-09-13T19:03:05Z</time>
      </trkpt>
      <trkpt lat="46.27176" lon="10.4644">
        <ele>1970.231</ele>
        <time>2018-09-13T19:03:25Z</time>
      </trkpt>
      <trkpt lat="46.27162" lon="10.46458">
        <ele>1970.648</ele>
        <time>2018-09-13T19:03:45Z</time>
      </trkpt>
      <trkpt lat="46.27152" lon="10.4648">
        <ele>1972.161</ele>
        <time>2018-09-13T19:04:05Z</time>
      </trkpt>
      <trkpt lat="46.27148" lon="10.46489">
        <ele>1973.094</ele>
        <time>2018-09-13T19:04:25Z</time>
      </trkpt>
      <trkpt lat="46.27142" lon="10.46502">
        <ele>1974.797</ele>
        <time>2018-09-13T19:04:45Z</time>
      </trkpt>
      <trkpt lat="46.27129" lon="10.46521">
        <ele>1975.375</ele>
        <time>2018-09-13T19:05:05Z</time>
      </trkpt>
      <trkpt lat="46.27116" lon="10.46539">
        <ele>1976.332</ele>
        <time>2018-09-13T19:05:25Z</time>
      </trkpt>
      <trkpt lat="46.27107" lon="10.46563">
        <ele>1981.172</ele>
        <time>2018-09-13T19:05:45Z</time>
      </trkpt>
      <trkpt lat="46.27093" lon="10.4658">
        <ele>1982.713</ele>
        <time>2018-09-13T19:06:05Z</time>
      </trkpt>
      <trkpt lat="46.27082" lon="10.46602">
        <ele>1987.314</ele>
        <time>2018-09-13T19:06:25Z</time>
      </trkpt>
      <trkpt lat="46.27073" lon="10.46625">
        <ele>1991.908</ele>
        <time>2018-09-13T19:06:45Z</time>
      </trkpt>
      <trkpt lat="46.27062" lon="10.46646">
        <ele>1994.899</ele>
        <time>2018-09-13T19:07:05Z</time>
      </trkpt>
      <trkpt lat="46.27049" lon="10.46666">
        <ele>1995.455</ele>
        <time>2018-09-13T19:07:25Z</time>
      </trkpt>
      <trkpt lat="46.27042" lon="10.4669">
        <ele>1995.922</ele>
        <time>2018-09-13T19:07:45Z</time>
      </trkpt>
      <trkpt lat="46.27036" lon="10.46715">
        <ele>1998.345</ele>
        <time>2018-09-13T19:08:05Z</time>
      </trkpt>
      <trkpt lat="46.2703" lon="10.4674">
        <ele>2000.118</ele>
        <time>2018-09-13T19:08:25Z</time>
      </trkpt>
      <trkpt lat="46.27027" lon="10.46761">
        <ele>2004.041</ele>
        <time>2018-09-13T19:08:45Z</time>
      </trkpt>
      <trkpt lat="46.27026" lon="10.46767">
        <ele>2005.639</ele>
        <time>2018-09-13T19:09:05Z</time>
      </trkpt>
      <trkpt lat="46.27024" lon="10.46779">
        <ele>2008.776</ele>
        <time>2018-09-13T19:09:25Z</time>
      </trkpt>
      <trkpt lat="46.27023" lon="10.46793">
        <ele>2012.522</ele>
        <time>2018-09-13T19:09:45Z</time>
      </trkpt>
      <trkpt lat="46.27013" lon="10.46816">
        <ele>2015.662</ele>
        <time>2018-09-13T19:10:05Z</time>
      </trkpt>
      <trkpt lat="46.27008" lon="10.46841">
        <ele>2022.708</ele>
        <time>2018-09-13T19:10:25Z</time>
      </trkpt>
      <trkpt lat="46.27005" lon="10.46845">
        <ele>2022.908</ele>
        <time>2018-09-13T19:10:45Z</time>
      </trkpt>
      <trkpt lat="46.26995" lon="10.46857">
        <ele>2024.734</ele>
        <time>2018-09-13T19:11:05Z</time>
      </trkpt>
      <trkpt lat="46.26994" lon="10.46858">
        <ele>2024.96</ele>
        <time>2018-09-13T19:11:25Z</time>
      </trkpt>
      <trkpt lat="46.26985" lon="10.46881">
        <ele>2030.697</ele>
        <time>2018-09-13T19:11:45Z</time>
      </trkpt>
      <trkpt lat="46.26974" lon="10.46904">
        <ele>2035.95</ele>
        <time>2018-09-13T19:12:05Z</time>
      </trkpt>
      <trkpt lat="46.26961" lon="10.46924">
        <ele>2042.133</ele>
        <time>2018-09-13T19:12:25Z</time>
      </trkpt>
      <trkpt lat="46.26948" lon="10.46941">
        <ele>2048.786</ele>
        <time>2018-09-13T19:12:45Z</time>
      </trkpt>
      <trkpt lat="46.26947" lon="10.46944">
        <ele>2049.654</ele>
        <time>2018-09-13T19:13:05Z</time>
      </trkpt>
      <trkpt lat="46.26938" lon="10.46964">
        <ele>2052.381</ele>
        <time>2018-09-13T19:13:25Z</time>
      </trkpt>
      <trkpt lat="46.26946" lon="10.46969">
        <ele>2054.558</ele>
        <time>2018-09-13T19:13:45Z</time>
      </trkpt>
      <trkpt lat="46.26952" lon="10.46975">
        <ele>2056.152</ele>
        <time>2018-09-13T19:14:05Z</time>
      </trkpt>
      <trkpt lat="46.26959" lon="10.46976">
        <ele>2056.917</ele>
        <time>2018-09-13T19:14:25Z</time>
      </trkpt>
      <trkpt lat="46.26967" lon="10.46977">
        <ele>2057.908</ele>
        <time>2018-09-13T19:14:45Z</time>
      </trkpt>
      <trkpt lat="46.26972" lon="10.46978">
        <ele>2058.657</ele>
        <time>2018-09-13T19:15:05Z</time>
      </trkpt>
      <trkpt lat="46.26977" lon="10.46978">
        <ele>2059.783</ele>
        <time>2018-09-13T19:15:25Z</time>
      </trkpt>
      <trkpt lat="46.26974" lon="10.46987">
        <ele>2061.85</ele>
        <time>2018-09-13T19:15:45Z</time>
      </trkpt>
      <trkpt lat="46.26969" lon="10.46997">
        <ele>2063.613</ele>
        <time>2018-09-13T19:16:05Z</time>
      </trkpt>
      <trkpt lat="46.26968" lon="10.46999">
        <ele>2064.296</ele>
        <time>2018-09-13T19:16:25Z</time>
      </trkpt>
      <trkpt lat="46.26952" lon="10.47044">
        <ele>2072.379</ele>
        <time>2018-09-13T19:16:45Z</time>
      </trkpt>
      <trkpt lat="46.2695" lon="10.47049">
        <ele>2072.787</ele>
        <time>2018-09-13T19:17:05Z</time>
      </trkpt>
      <trkpt lat="46.26946" lon="10.47059">
        <ele>2074.254</ele>
        <time>2018-09-13T19:17:25Z</time>
      </trkpt>
      <trkpt lat="46.26944" lon="10.47066">
        <ele>2075.317</ele>
        <time>2018-09-13T19:17:45Z</time>
      </trkpt>
      <trkpt lat="46.26944" lon="10.47073">
        <ele>2077.187</ele>
        <time>2018-09-13T19:18:05Z</time>
      </trkpt>
      <trkpt lat="46.26944" lon="10.4708">
        <ele>2078.715</ele>
        <time>2018-09-13T19:18:25Z</time>
      </trkpt>
      <trkpt lat="46.26942" lon="10.47087">
        <ele>2080.108</ele>
        <time>2018-09-13T19:18:45Z</time>
      </trkpt>
      <trkpt lat="46.26941" lon="10.47094">
        <ele>2081.243</ele>
        <time>2018-09-13T19:19:05Z</time>
      </trkpt>
      <trkpt lat="46.2694" lon="10.47102">
        <ele>2082.499</ele>
        <time>2018-09-13T19:19:25Z</time>
      </trkpt>
      <trkpt lat="46.26939" lon="10.47109">
        <ele>2083.516</ele>
        <time>2018-09-13T19:19:45Z</time>
      </trkpt>
      <trkpt lat="46.26938" lon="10.47117">
        <ele>2085.049</ele>
        <time>2018-09-13T19:20:05Z</time>
      </trkpt>
      <trkpt lat="46.26937" lon="10.47123">
        <ele>2085.832</ele>
        <time>2018-09-13T19:20:25Z</time>
      </trkpt>
      <trkpt lat="46.26936" lon="10.47131">
        <ele>2087.395</ele>
        <time>2018-09-13T19:20:45Z</time>
      </trkpt>
      <trkpt lat="46.26935" lon="10.47139">
        <ele>2088.923</ele>
        <time>2018-09-13T19:21:05Z</time>
      </trkpt>
      <trkpt lat="46.26935" lon="10.47145">
        <ele>2090.37</ele>
        <time>2018-09-13T19:21:25Z</time>
      </trkpt>
      <trkpt lat="46.26935" lon="10.47152">
        <ele>2091.961</ele>
        <time>2018-09-13T19:21:45Z</time>
      </trkpt>
      <trkpt lat="46.26934" lon="10.47159">
        <ele>2093.621</ele>
        <time>2018-09-13T19:22:05Z</time>
      </trkpt>
      <trkpt lat="46.26935" lon="10.47166">
        <ele>2095.313</ele>
        <time>2018-09-13T19:22:25Z</time>
      </trkpt>
      <trkpt lat="46.26934" lon="10.47173">
        <ele>2096.408</ele>
        <time>2018-09-13T19:22:45Z</time>
      </trkpt>
      <trkpt lat="46.26934" lon="10.4718">
        <ele>2097.758</ele>
        <time>2018-09-13T19:23:05Z</time>
      </trkpt>
      <trkpt lat="46.26934" lon="10.47187">
        <ele>2099.154</ele>
        <time>2018-09-13T19:23:25Z</time>
      </trkpt>
      <trkpt lat="46.26934" lon="10.47195">
        <ele>2100.561</ele>
        <time>2018-09-13T19:23:45Z</time>
      </trkpt>
      <trkpt lat="46.26936" lon="10.47205">
        <ele>2102.234</ele>
        <time>2018-09-13T19:24:05Z</time>
      </trkpt>
      <trkpt lat="46.26944" lon="10.47218">
        <ele>2105.257</ele>
        <time>2018-09-13T19:24:25Z</time>
      </trkpt>
      <trkpt lat="46.2695" lon="10.47228">
        <ele>2107.86</ele>
        <time>2018-09-13T19:24:45Z</time>
      </trkpt>
      <trkpt lat="46.26957" lon="10.47238">
        <ele>2110.598</ele>
        <time>2018-09-13T19:25:05Z</time>
      </trkpt>
      <trkpt lat="46.26963" lon="10.47247">
        <ele>2113.345</ele>
        <time>2018-09-13T19:25:25Z</time>
      </trkpt>
      <trkpt lat="46.26966" lon="10.47254">
        <ele>2115.154</ele>
        <time>2018-09-13T19:25:45Z</time>
      </trkpt>
      <trkpt lat="46.26967" lon="10.47261">
        <ele>2116.356</ele>
        <time>2018-09-13T19:26:05Z</time>
      </trkpt>
      <trkpt lat="46.2697" lon="10.47264">
        <ele>2117.411</ele>
        <time>2018-09-13T19:26:25Z</time>
      </trkpt>
      <trkpt lat="46.2697" lon="10.47267">
        <ele>2117.808</ele>
        <time>2018-09-13T19:26:45Z</time>
      </trkpt>
      <trkpt lat="46.26971" lon="10.47273">
        <ele>2118.957</ele>
        <time>2018-09-13T19:27:05Z</time>
      </trkpt>
      <trkpt lat="46.26974" lon="10.47279">
        <ele>2120.933</ele>
        <time>2018-09-13T19:27:25Z</time>
      </trkpt>
      <trkpt lat="46.26977" lon="10.47285">
        <ele>2122.95</ele>
        <time>2018-09-13T19:27:45Z</time>
      </trkpt>
      <trkpt lat="46.2698" lon="10.4729">
        <ele>2124.743</ele>
        <time>2018-09-13T19:28:05Z</time>
      </trkpt>
      <trkpt lat="46.26983" lon="10.47296">
        <ele>2126.436</ele>
        <time>2018-09-13T19:28:25Z</time>
      </trkpt>
      <trkpt lat="46.26986" lon="10.47302">
        <ele>2128.099</ele>
        <time>2018-09-13T19:28:45Z</time>
      </trkpt>
      <trkpt lat="46.26989" lon="10.47307">
        <ele>2129.227</ele>
        <time>2018-09-13T19:29:05Z</time>
      </trkpt>
      <trkpt lat="46.26992" lon="10.47313">
        <ele>2130.054</ele>
        <time>2018-09-13T19:29:25Z</time>
      </trkpt>
      <trkpt lat="46.26993" lon="10.4732">
        <ele>2130.771</ele>
        <time>2018-09-13T19:29:45Z</time>
      </trkpt>
      <trkpt lat="46.26993" lon="10.47327">
        <ele>2130.941</ele>
        <time>2018-09-13T19:30:05Z</time>
      </trkpt>
      <trkpt lat="46.26993" lon="10.47335">
        <ele>2131.115</ele>
        <time>2018-09-13T19:30:25Z</time>
      </trkpt>
      <trkpt lat="46.26993" lon="10.47343">
        <ele>2131.108</ele>
        <time>2018-09-13T19:30:45Z</time>
      </trkpt>
      <trkpt lat="46.26994" lon="10.4735">
        <ele>2131.499</ele>
        <time>2018-09-13T19:31:05Z</time>
      </trkpt>
      <trkpt lat="46.26997" lon="10.47357">
        <ele>2132.115</ele>
        <time>2018-09-13T19:31:25Z</time>
      </trkpt>
      <trkpt lat="46.26998" lon="10.47365">
        <ele>2132.572</ele>
        <time>2018-09-13T19:31:45Z</time>
      </trkpt>
      <trkpt lat="46.26996" lon="10.47372">
        <ele>2132.435</ele>
        <time>2018-09-13T19:32:05Z</time>
      </trkpt>
      <trkpt lat="46.26995" lon="10.47379">
        <ele>2132.368</ele>
        <time>2018-09-13T19:32:25Z</time>
      </trkpt>
      <trkpt lat="46.26994" lon="10.47385">
        <ele>2132.321</ele>
        <time>2018-09-13T19:32:45Z</time>
      </trkpt>
      <trkpt lat="46.26992" lon="10.47393">
        <ele>2132.249</ele>
        <time>2018-09-13T19:33:05Z</time>
      </trkpt>
      <trkpt lat="46.26991" lon="10.474">
        <ele>2132.286</ele>
        <time>2018-09-13T19:33:25Z</time>
      </trkpt>
      <trkpt lat="46.26991" lon="10.47407">
        <ele>2132.431</ele>
        <time>2018-09-13T19:33:45Z</time>
      </trkpt>
      <trkpt lat="46.26992" lon="10.47415">
        <ele>2132.761</ele>
        <time>2018-09-13T19:34:05Z</time>
      </trkpt>
      <trkpt lat="46.26991" lon="10.47422">
        <ele>2133.007</ele>
        <time>2018-09-13T19:34:25Z</time>
      </trkpt>
      <trkpt lat="46.26991" lon="10.4743">
        <ele>2133.308</ele>
        <time>2018-09-13T19:34:45Z</time>
      </trkpt>
      <trkpt lat="46.26992" lon="10.47437">
        <ele>2133.785</ele>
        <time>2018-09-13T19:35:05Z</time>
      </trkpt>
      <trkpt lat="46.26993" lon="10.47444">
        <ele>2134.141</ele>
        <time>2018-09-13T19:35:25Z</time>
      </trkpt>
      <trkpt lat="46.26992" lon="10.47451">
        <ele>2134.268</ele>
        <time>2018-09-13T19:35:45Z</time>
      </trkpt>
      <trkpt lat="46.26992" lon="10.47458">
        <ele>2134.441</ele>
        <time>2018-09-13T19:36:05Z</time>
      </trkpt>
      <trkpt lat="46.26991" lon="10.47465">
        <ele>2134.524</ele>
        <time>2018-09-13T19:36:25Z</time>
      </trkpt>
      <trkpt lat="46.26992" lon="10.47472">
        <ele>2134.957</ele>
        <time>2018-09-13T19:36:45Z</time>
      </trkpt>
      <trkpt lat="46.26992" lon="10.47479">
        <ele>2134.945</ele>
        <time>2018-09-13T19:37:05Z</time>
      </trkpt>
      <trkpt lat="46.26992" lon="10.47485">
        <ele>2135.032</ele>
        <time>2018-09-13T19:37:25Z</time>
      </trkpt>
      <trkpt lat="46.26991" lon="10.47492">
        <ele>2135.017</ele>
        <time>2018-09-13T19:37:45Z</time>
      </trkpt>
      <trkpt lat="46.26991" lon="10.47499">
        <ele>2135.087</ele>
        <time>2018-09-13T19:38:05Z</time>
      </trkpt>
      <trkpt lat="46.2699" lon="10.47507">
        <ele>2135.115</ele>
        <time>2018-09-13T19:38:25Z</time>
      </trkpt>
      <trkpt lat="46.2699" lon="10.47514">
        <ele>2135.208</ele>
        <time>2018-09-13T19:38:45Z</time>
      </trkpt>
      <trkpt lat="46.26989" lon="10.47521">
        <ele>2135.323</ele>
        <time>2018-09-13T19:39:05Z</time>
      </trkpt>
      <trkpt lat="46.26988" lon="10.47529">
        <ele>2135.379</ele>
        <time>2018-09-13T19:39:25Z</time>
      </trkpt>
      <trkpt lat="46.26987" lon="10.47536">
        <ele>2135.446</ele>
        <time>2018-09-13T19:39:45Z</time>
      </trkpt>
      <trkpt lat="46.26986" lon="10.47544">
        <ele>2135.489</ele>
        <time>2018-09-13T19:40:05Z</time>
      </trkpt>
      <trkpt lat="46.26985" lon="10.47551">
        <ele>2135.552</ele>
        <time>2018-09-13T19:40:25Z</time>
      </trkpt>
      <trkpt lat="46.26984" lon="10.47559">
        <ele>2135.275</ele>
        <time>2018-09-13T19:40:45Z</time>
      </trkpt>
      <trkpt lat="46.26982" lon="10.47566">
        <ele>2134.373</ele>
        <time>2018-09-13T19:41:05Z</time>
      </trkpt>
      <trkpt lat="46.26981" lon="10.47574">
        <ele>2133.53</ele>
        <time>2018-09-13T19:41:25Z</time>
      </trkpt>
      <trkpt lat="46.2698" lon="10.47581">
        <ele>2132.827</ele>
        <time>2018-09-13T19:41:45Z</time>
      </trkpt>
      <trkpt lat="46.26981" lon="10.47589">
        <ele>2132.668</ele>
        <time>2018-09-13T19:42:05Z</time>
      </trkpt>
      <trkpt lat="46.26983" lon="10.47595">
        <ele>2132.614</ele>
        <time>2018-09-13T19:42:25Z</time>
      </trkpt>
      <trkpt lat="46.26984" lon="10.47602">
        <ele>2132.608</ele>
        <time>2018-09-13T19:42:45Z</time>
      </trkpt>
      <trkpt lat="46.26986" lon="10.47608">
        <ele>2132.554</ele>
        <time>2018-09-13T19:43:05Z</time>
      </trkpt>
      <trkpt lat="46.26988" lon="10.47614">
        <ele>2132.51</ele>
        <time>2018-09-13T19:43:25Z</time>
      </trkpt>
      <trkpt lat="46.2699" lon="10.4762">
        <ele>2132.697</ele>
        <time>2018-09-13T19:43:45Z</time>
      </trkpt>
      <trkpt lat="46.26992" lon="10.47626">
        <ele>2132.64</ele>
        <time>2018-09-13T19:44:05Z</time>
      </trkpt>
      <trkpt lat="46.26995" lon="10.47632">
        <ele>2132.643</ele>
        <time>2018-09-13T19:44:25Z</time>
      </trkpt>
      <trkpt lat="46.26997" lon="10.47638">
        <ele>2132.516</ele>
        <time>2018-09-13T19:44:45Z</time>
      </trkpt>
      <trkpt lat="46.26999" lon="10.47644">
        <ele>2132.494</ele>
        <time>2018-09-13T19:45:05Z</time>
      </trkpt>
      <trkpt lat="46.27" lon="10.4765">
        <ele>2132.221</ele>
        <time>2018-09-13T19:45:25Z</time>
      </trkpt>
      <trkpt lat="46.27002" lon="10.47657">
        <ele>2131.925</ele>
        <time>2018-09-13T19:45:45Z</time>
      </trkpt>
      <trkpt lat="46.27004" lon="10.47663">
        <ele>2131.826</ele>
        <time>2018-09-13T19:46:05Z</time>
      </trkpt>
      <trkpt lat="46.27007" lon="10.47669">
        <ele>2131.808</ele>
        <time>2018-09-13T19:46:25Z</time>
      </trkpt>
      <trkpt lat="46.27011" lon="10.47674">
        <ele>2131.908</ele>
        <time>2018-09-13T19:46:45Z</time>
      </trkpt>
      <trkpt lat="46.27013" lon="10.47675">
        <ele>2132.154</ele>
        <time>2018-09-13T19:47:05Z</time>
      </trkpt>
      <trkpt lat="46.27015" lon="10.47676">
        <ele>2132.31</ele>
        <time>2018-09-13T19:47:25Z</time>
      </trkpt>
      <trkpt lat="46.27017" lon="10.47677">
        <ele>2132.527</ele>
        <time>2018-09-13T19:47:45Z</time>
      </trkpt>
      <trkpt lat="46.27019" lon="10.47678">
        <ele>2132.71</ele>
        <time>2018-09-13T19:48:05Z</time>
      </trkpt>
      <trkpt lat="46.27022" lon="10.47678">
        <ele>2132.973</ele>
        <time>2018-09-13T19:48:25Z</time>
      </trkpt>
      <trkpt lat="46.27024" lon="10.47679">
        <ele>2133.286</ele>
        <time>2018-09-13T19:48:45Z</time>
      </trkpt>
      <trkpt lat="46.27026" lon="10.47679">
        <ele>2133.444</ele>
        <time>2018-09-13T19:49:05Z</time>
      </trkpt>
      <trkpt lat="46.27029" lon="10.4768">
        <ele>2133.611</ele>
        <time>2018-09-13T19:49:25Z</time>
      </trkpt>
      <trkpt lat="46.27031" lon="10.47681">
        <ele>2134.016</ele>
        <time>2018-09-13T19:49:45Z</time>
      </trkpt>
      <trkpt lat="46.27033" lon="10.47682">
        <ele>2134.376</ele>
        <time>2018-09-13T19:50:05Z</time>
      </trkpt>
      <trkpt lat="46.27036" lon="10.47683">
        <ele>2134.613</ele>
        <time>2018-09-13T19:50:25Z</time>
      </trkpt>
      <trkpt lat="46.27038" lon="10.47684">
        <ele>2134.908</ele>
        <time>2018-09-13T19:50:45Z</time>
      </trkpt>
      <trkpt lat="46.2704" lon="10.47686">
        <ele>2135.083</ele>
        <time>2018-09-13T19:51:05Z</time>
      </trkpt>
      <trkpt lat="46.27042" lon="10.47688">
        <ele>2135.269</ele>
        <time>2018-09-13T19:51:25Z</time>
      </trkpt>
      <trkpt lat="46.27044" lon="10.47689">
        <ele>2135.436</ele>
        <time>2018-09-13T19:51:45Z</time>
      </trkpt>
      <trkpt lat="46.27046" lon="10.47689">
        <ele>2135.819</ele>
        <time>2018-09-13T19:52:05Z</time>
      </trkpt>
      <trkpt lat="46.27048" lon="10.4769">
        <ele>2136.172</ele>
        <time>2018-09-13T19:52:25Z</time>
      </trkpt>
      <trkpt lat="46.2705" lon="10.47691">
        <ele>2136.425</ele>
        <time>2018-09-13T19:52:45Z</time>
      </trkpt>
      <trkpt lat="46.27053" lon="10.47693">
        <ele>2136.663</ele>
        <time>2018-09-13T19:53:05Z</time>
      </trkpt>
      <trkpt lat="46.27055" lon="10.47694">
        <ele>2136.89</ele>
        <time>2018-09-13T19:53:25Z</time>
      </trkpt>
      <trkpt lat="46.27057" lon="10.47696">
        <ele>2137.055</ele>
        <time>2018-09-13T19:53:45Z</time>
      </trkpt>
      <trkpt lat="46.27059" lon="10.47697">
        <ele>2137.207</ele>
        <time>2018-09-13T19:54:05Z</time>
      </trkpt>
      <trkpt lat="46.27061" lon="10.47698">
        <ele>2137.517</ele>
        <time>2018-09-13T19:54:25Z</time>
      </trkpt>
      <trkpt lat="46.27063" lon="10.477">
        <ele>2137.708</ele>
        <time>2018-09-13T19:54:45Z</time>
      </trkpt>
      <trkpt lat="46.27065" lon="10.47702">
        <ele>2137.877</ele>
        <time>2018-09-13T19:55:05Z</time>
      </trkpt>
      <trkpt lat="46.27068" lon="10.47703">
        <ele>2138.183</ele>
        <time>2018-09-13T19:55:25Z</time>
      </trkpt>
      <trkpt lat="46.2707" lon="10.47704">
        <ele>2138.32</ele>
        <time>2018-09-13T19:55:45Z</time>
      </trkpt>
      <trkpt lat="46.27072" lon="10.47705">
        <ele>2138.543</ele>
        <time>2018-09-13T19:56:05Z</time>
      </trkpt>
      <trkpt lat="46.27075" lon="10.47706">
        <ele>2138.886</ele>
        <time>2018-09-13T19:56:25Z</time>
      </trkpt>
      <trkpt lat="46.27077" lon="10.47707">
        <ele>2139.149</ele>
        <time>2018-09-13T19:56:45Z</time>
      </trkpt>
      <trkpt lat="46.27079" lon="10.47708">
        <ele>2139.427</ele>
        <time>2018-09-13T19:57:05Z</time>
      </trkpt>
      <trkpt lat="46.27082" lon="10.47708">
        <ele>2139.794</ele>
        <time>2018-09-13T19:57:25Z</time>
      </trkpt>
      <trkpt lat="46.27084" lon="10.47708">
        <ele>2140.194</ele>
        <time>2018-09-13T19:57:45Z</time>
      </trkpt>
      <trkpt lat="46.27086" lon="10.47709">
        <ele>2140.657</ele>
        <time>2018-09-13T19:58:05Z</time>
      </trkpt>
      <trkpt lat="46.27089" lon="10.47709">
        <ele>2141.122</ele>
        <time>2018-09-13T19:58:25Z</time>
      </trkpt>
      <trkpt lat="46.27091" lon="10.47709">
        <ele>2141.508</ele>
        <time>2018-09-13T19:58:45Z</time>
      </trkpt>
      <trkpt lat="46.27093" lon="10.4771">
        <ele>2141.991</ele>
        <time>2018-09-13T19:59:05Z</time>
      </trkpt>
      <trkpt lat="46.27096" lon="10.47711">
        <ele>2142.327</ele>
        <time>2018-09-13T19:59:25Z</time>
      </trkpt>
      <trkpt lat="46.27098" lon="10.47711">
        <ele>2142.854</ele>
        <time>2018-09-13T19:59:45Z</time>
      </trkpt>
      <trkpt lat="46.27101" lon="10.47711">
        <ele>2143.387</ele>
        <time>2018-09-13T20:00:05Z</time>
      </trkpt>
      <trkpt lat="46.27103" lon="10.47712">
        <ele>2143.75</ele>
        <time>2018-09-13T20:00:25Z</time>
      </trkpt>
      <trkpt lat="46.27105" lon="10.47712">
        <ele>2144.173</ele>
        <time>2018-09-13T20:00:45Z</time>
      </trkpt>
      <trkpt lat="46.27107" lon="10.47713">
        <ele>2144.481</ele>
        <time>2018-09-13T20:01:05Z</time>
      </trkpt>
      <trkpt lat="46.2711" lon="10.47714">
        <ele>2144.698</ele>
        <time>2018-09-13T20:01:25Z</time>
      </trkpt>
      <trkpt lat="46.27112" lon="10.47715">
        <ele>2144.883</ele>
        <time>2018-09-13T20:01:45Z</time>
      </trkpt>
      <trkpt lat="46.27114" lon="10.47717">
        <ele>2145.025</ele>
        <time>2018-09-13T20:02:05Z</time>
      </trkpt>
      <trkpt lat="46.27116" lon="10.47718">
        <ele>2145.017</ele>
        <time>2018-09-13T20:02:25Z</time>
      </trkpt>
      <trkpt lat="46.27118" lon="10.4772">
        <ele>2145.008</ele>
        <time>2018-09-13T20:02:45Z</time>
      </trkpt>
      <trkpt lat="46.2712" lon="10.47722">
        <ele>2145.08</ele>
        <time>2018-09-13T20:03:05Z</time>
      </trkpt>
      <trkpt lat="46.27122" lon="10.47724">
        <ele>2144.916</ele>
        <time>2018-09-13T20:03:25Z</time>
      </trkpt>
      <trkpt lat="46.27124" lon="10.47726">
        <ele>2144.833</ele>
        <time>2018-09-13T20:03:45Z</time>
      </trkpt>
      <trkpt lat="46.27125" lon="10.47728">
        <ele>2144.676</ele>
        <time>2018-09-13T20:04:05Z</time>
      </trkpt>
      <trkpt lat="46.27127" lon="10.4773">
        <ele>2144.369</ele>
        <time>2018-09-13T20:04:25Z</time>
      </trkpt>
      <trkpt lat="46.27129" lon="10.47733">
        <ele>2144.112</ele>
        <time>2018-09-13T20:04:45Z</time>
      </trkpt>
      <trkpt lat="46.2713" lon="10.47735">
        <ele>2143.99</ele>
        <time>2018-09-13T20:05:05Z</time>
      </trkpt>
      <trkpt lat="46.27132" lon="10.47737">
        <ele>2143.657</ele>
        <time>2018-09-13T20:05:25Z</time>
      </trkpt>
      <trkpt lat="46.27133" lon="10.4774">
        <ele>2143.425</ele>
        <time>2018-09-13T20:05:45Z</time>
      </trkpt>
      <trkpt lat="46.27135" lon="10.47742">
        <ele>2143.226</ele>
        <time>2018-09-13T20:06:05Z</time>
      </trkpt>
      <trkpt lat="46.27136" lon="10.47744">
        <ele>2142.908</ele>
        <time>2018-09-13T20:06:25Z</time>
      </trkpt>
      <trkpt lat="46.27138" lon="10.47746">
        <ele>2142.908</ele>
        <time>2018-09-13T20:06:45Z</time>
      </trkpt>
      <trkpt lat="46.2714" lon="10.47748">
        <ele>2142.534</ele>
        <time>2018-09-13T20:07:05Z</time>
      </trkpt>
      <trkpt lat="46.27141" lon="10.4775">
        <ele>2142.27</ele>
        <time>2018-09-13T20:07:25Z</time>
      </trkpt>
      <trkpt lat="46.27143" lon="10.47752">
        <ele>2141.917</ele>
        <time>2018-09-13T20:07:45Z</time>
      </trkpt>
      <trkpt lat="46.27145" lon="10.47753">
        <ele>2141.95</ele>
        <time>2018-09-13T20:08:05Z</time>
      </trkpt>
      <trkpt lat="46.27147" lon="10.47754">
        <ele>2141.953</ele>
        <time>2018-09-13T20:08:25Z</time>
      </trkpt>
      <trkpt lat="46.2715" lon="10.47755">
        <ele>2141.866</ele>
        <time>2018-09-13T20:08:45Z</time>
      </trkpt>
      <trkpt lat="46.27156" lon="10.47755">
        <ele>2142.644</ele>
        <time>2018-09-13T20:09:05Z</time>
      </trkpt>
      <trkpt lat="46.27158" lon="10.47755">
        <ele>2142.961</ele>
        <time>2018-09-13T20:09:25Z</time>
      </trkpt>
      <trkpt lat="46.2716" lon="10.47753">
        <ele>2143.699</ele>
        <time>2018-09-13T20:09:45Z</time>
      </trkpt>
      <trkpt lat="46.27161" lon="10.4775">
        <ele>2144.307</ele>
        <time>2018-09-13T20:10:05Z</time>
      </trkpt>
      <trkpt lat="46.27163" lon="10.47749">
        <ele>2144.727</ele>
        <time>2018-09-13T20:10:25Z</time>
      </trkpt>
      <trkpt lat="46.27165" lon="10.47749">
        <ele>2145.008</ele>
        <time>2018-09-13T20:10:45Z</time>
      </trkpt>
      <trkpt lat="46.27168" lon="10.47749">
        <ele>2145.381</ele>
        <time>2018-09-13T20:11:05Z</time>
      </trkpt>
      <trkpt lat="46.2717" lon="10.4775">
        <ele>2145.427</ele>
        <time>2018-09-13T20:11:25Z</time>
      </trkpt>
      <trkpt lat="46.27173" lon="10.47751">
        <ele>2145.474</ele>
        <time>2018-09-13T20:11:45Z</time>
      </trkpt>
      <trkpt lat="46.27174" lon="10.47751">
        <ele>2145.667</ele>
        <time>2018-09-13T20:12:05Z</time>
      </trkpt>
      <trkpt lat="46.27176" lon="10.47751">
        <ele>2145.78</ele>
        <time>2018-09-13T20:12:25Z</time>
      </trkpt>
      <trkpt lat="46.27178" lon="10.47751">
        <ele>2146.033</ele>
        <time>2018-09-13T20:12:45Z</time>
      </trkpt>
      <trkpt lat="46.27181" lon="10.47751">
        <ele>2146.391</ele>
        <time>2018-09-13T20:13:05Z</time>
      </trkpt>
      <trkpt lat="46.27183" lon="10.4775">
        <ele>2146.758</ele>
        <time>2018-09-13T20:13:25Z</time>
      </trkpt>
      <trkpt lat="46.27185" lon="10.4775">
        <ele>2147.172</ele>
        <time>2018-09-13T20:13:45Z</time>
      </trkpt>
      <trkpt lat="46.27188" lon="10.47749">
        <ele>2147.513</ele>
        <time>2018-09-13T20:14:05Z</time>
      </trkpt>
      <trkpt lat="46.2719" lon="10.4775">
        <ele>2147.614</ele>
        <time>2018-09-13T20:14:25Z</time>
      </trkpt>
      <trkpt lat="46.27192" lon="10.4775">
        <ele>2147.708</ele>
        <time>2018-09-13T20:14:45Z</time>
      </trkpt>
      <trkpt lat="46.27194" lon="10.47749">
        <ele>2148.189</ele>
        <time>2018-09-13T20:15:05Z</time>
      </trkpt>
      <trkpt lat="46.27196" lon="10.47749">
        <ele>2149.075</ele>
        <time>2018-09-13T20:15:25Z</time>
      </trkpt>
      <trkpt lat="46.27198" lon="10.47748">
        <ele>2149.852</ele>
        <time>2018-09-13T20:15:45Z</time>
      </trkpt>
      <trkpt lat="46.27201" lon="10.47748">
        <ele>2150.695</ele>
        <time>2018-09-13T20:16:05Z</time>
      </trkpt>
      <trkpt lat="46.27203" lon="10.47749">
        <ele>2151.178</ele>
        <time>2018-09-13T20:16:25Z</time>
      </trkpt>
      <trkpt lat="46.27204" lon="10.47751">
        <ele>2150.851</ele>
        <time>2018-09-13T20:16:45Z</time>
      </trkpt>
      <trkpt lat="46.27207" lon="10.47751">
        <ele>2151.529</ele>
        <time>2018-09-13T20:17:05Z</time>
      </trkpt>
      <trkpt lat="46.27209" lon="10.47751">
        <ele>2152.426</ele>
        <time>2018-09-13T20:17:25Z</time>
      </trkpt>
      <trkpt lat="46.27211" lon="10.4775">
        <ele>2153.627</ele>
        <time>2018-09-13T20:17:45Z</time>
      </trkpt>
      <trkpt lat="46.27214" lon="10.47749">
        <ele>2154.868</ele>
        <time>2018-09-13T20:18:05Z</time>
      </trkpt>
      <trkpt lat="46.27216" lon="10.47748">
        <ele>2156.014</ele>
        <time>2018-09-13T20:18:25Z</time>
      </trkpt>
      <trkpt lat="46.27219" lon="10.47747">
        <ele>2157.008</ele>
        <time>2018-09-13T20:18:45Z</time>
      </trkpt>
      <trkpt lat="46.27221" lon="10.47748">
        <ele>2157.614</ele>
        <time>2018-09-13T20:19:05Z</time>
      </trkpt>
      <trkpt lat="46.27224" lon="10.47748">
        <ele>2158.11</ele>
        <time>2018-09-13T20:19:25Z</time>
      </trkpt>
      <trkpt lat="46.27226" lon="10.47748">
        <ele>2158.347</ele>
        <time>2018-09-13T20:19:45Z</time>
      </trkpt>
      <trkpt lat="46.27227" lon="10.47749">
        <ele>2158.25</ele>
        <time>2018-09-13T20:20:05Z</time>
      </trkpt>
      <trkpt lat="46.27229" lon="10.47749">
        <ele>2158.663</ele>
        <time>2018-09-13T20:20:25Z</time>
      </trkpt>
      <trkpt lat="46.27231" lon="10.47749">
        <ele>2159.196</ele>
        <time>2018-09-13T20:20:45Z</time>
      </trkpt>
      <trkpt lat="46.27234" lon="10.47748">
        <ele>2159.814</ele>
        <time>2018-09-13T20:21:05Z</time>
      </trkpt>
      <trkpt lat="46.27236" lon="10.47748">
        <ele>2160.281</ele>
        <time>2018-09-13T20:21:25Z</time>
      </trkpt>
      <trkpt lat="46.27238" lon="10.47747">
        <ele>2161.031</ele>
        <time>2018-09-13T20:21:45Z</time>
      </trkpt>
      <trkpt lat="46.27241" lon="10.47746">
        <ele>2161.561</ele>
        <time>2018-09-13T20:22:05Z</time>
      </trkpt>
      <trkpt lat="46.27243" lon="10.47746">
        <ele>2162.007</ele>
        <time>2018-09-13T20:22:25Z</time>
      </trkpt>
      <trkpt lat="46.27245" lon="10.47746">
        <ele>2162.208</ele>
        <time>2018-09-13T20:22:45Z</time>
      </trkpt>
      <trkpt lat="46.27247" lon="10.47747">
        <ele>2162.455</ele>
        <time>2018-09-13T20:23:05Z</time>
      </trkpt>
      <trkpt lat="46.27249" lon="10.47747">
        <ele>2162.671</ele>
        <time>2018-09-13T20:23:25Z</time>
      </trkpt>
      <trkpt lat="46.27251" lon="10.47747">
        <ele>2162.918</ele>
        <time>2018-09-13T20:23:45Z</time>
      </trkpt>
      <trkpt lat="46.27253" lon="10.47747">
        <ele>2163.291</ele>
        <time>2018-09-13T20:24:05Z</time>
      </trkpt>
      <trkpt lat="46.27256" lon="10.47747">
        <ele>2163.434</ele>
        <time>2018-09-13T20:24:25Z</time>
      </trkpt>
      <trkpt lat="46.27257" lon="10.47747">
        <ele>2163.557</ele>
        <time>2018-09-13T20:24:45Z</time>
      </trkpt>
      <trkpt lat="46.27259" lon="10.47747">
        <ele>2163.755</ele>
        <time>2018-09-13T20:25:05Z</time>
      </trkpt>
      <trkpt lat="46.27262" lon="10.47748">
        <ele>2163.832</ele>
        <time>2018-09-13T20:25:25Z</time>
      </trkpt>
      <trkpt lat="46.27264" lon="10.47749">
        <ele>2163.954</ele>
        <time>2018-09-13T20:25:45Z</time>
      </trkpt>
      <trkpt lat="46.27266" lon="10.47749">
        <ele>2163.856</ele>
        <time>2018-09-13T20:26:05Z</time>
      </trkpt>
      <trkpt lat="46.27267" lon="10.4775">
        <ele>2163.911</ele>
        <time>2018-09-13T20:26:25Z</time>
      </trkpt>
      <trkpt lat="46.27269" lon="10.4775">
        <ele>2164.108</ele>
        <time>2018-09-13T20:26:45Z</time>
      </trkpt>
      <trkpt lat="46.27272" lon="10.4775">
        <ele>2164.247</ele>
        <time>2018-09-13T20:27:05Z</time>
      </trkpt>
      <trkpt lat="46.27275" lon="10.47751">
        <ele>2164.223</ele>
        <time>2018-09-13T20:27:25Z</time>
      </trkpt>
      <trkpt lat="46.27277" lon="10.47752">
        <ele>2164.42</ele>
        <time>2018-09-13T20:27:45Z</time>
      </trkpt>
      <trkpt lat="46.27279" lon="10.47752">
        <ele>2164.823</ele>
        <time>2018-09-13T20:28:05Z</time>
      </trkpt>
      <trkpt lat="46.27281" lon="10.47751">
        <ele>2165.436</ele>
        <time>2018-09-13T20:28:25Z</time>
      </trkpt>
      <trkpt lat="46.27283" lon="10.47749">
        <ele>2166.249</ele>
        <time>2018-09-13T20:28:45Z</time>
      </trkpt>
      <trkpt lat="46.27285" lon="10.47747">
        <ele>2167.247</ele>
        <time>2018-09-13T20:29:05Z</time>
      </trkpt>
      <trkpt lat="46.27287" lon="10.47747">
        <ele>2167.634</ele>
        <time>2018-09-13T20:29:25Z</time>
      </trkpt>
      <trkpt lat="46.2729" lon="10.47747">
        <ele>2168.146</ele>
        <time>2018-09-13T20:29:45Z</time>
      </trkpt>
      <trkpt lat="46.27292" lon="10.47746">
        <ele>2168.788</ele>
        <time>2018-09-13T20:30:05Z</time>
      </trkpt>
      <trkpt lat="46.27294" lon="10.47747">
        <ele>2168.816</ele>
        <time>2018-09-13T20:30:25Z</time>
      </trkpt>
      <trkpt lat="46.27296" lon="10.47748">
        <ele>2168.808</ele>
        <time>2018-09-13T20:30:45Z</time>
      </trkpt>
      <trkpt lat="46.27298" lon="10.47749">
        <ele>2169.076</ele>
        <time>2018-09-13T20:31:05Z</time>
      </trkpt>
      <trkpt lat="46.273" lon="10.4775">
        <ele>2169.122</ele>
        <time>2018-09-13T20:31:25Z</time>
      </trkpt>
      <trkpt lat="46.27302" lon="10.47751">
        <ele>2169.149</ele>
        <time>2018-09-13T20:31:45Z</time>
      </trkpt>
      <trkpt lat="46.27305" lon="10.47752">
        <ele>2169.322</ele>
        <time>2018-09-13T20:32:05Z</time>
      </trkpt>
      <trkpt lat="46.27307" lon="10.47753">
        <ele>2169.555</ele>
        <time>2018-09-13T20:32:25Z</time>
      </trkpt>
      <trkpt lat="46.27309" lon="10.47753">
        <ele>2170.188</ele>
        <time>2018-09-13T20:32:45Z</time>
      </trkpt>
      <trkpt lat="46.27311" lon="10.47753">
        <ele>2170.576</ele>
        <time>2018-09-13T20:33:05Z</time>
      </trkpt>
      <trkpt lat="46.27313" lon="10.47755">
        <ele>2170.693</ele>
        <time>2018-09-13T20:33:25Z</time>
      </trkpt>
      <trkpt lat="46.27316" lon="10.47754">
        <ele>2171.532</ele>
        <time>2018-09-13T20:33:45Z</time>
      </trkpt>
      <trkpt lat="46.27318" lon="10.47755">
        <ele>2171.892</ele>
        <time>2018-09-13T20:34:05Z</time>
      </trkpt>
      <trkpt lat="46.2732" lon="10.47754">
        <ele>2172.411</ele>
        <time>2018-09-13T20:34:25Z</time>
      </trkpt>
      <trkpt lat="46.27322" lon="10.47755">
        <ele>2172.808</ele>
        <time>2018-09-13T20:34:45Z</time>
      </trkpt>
      <trkpt lat="46.27324" lon="10.47754">
        <ele>2173.555</ele>
        <time>2018-09-13T20:35:05Z</time>
      </trkpt>
      <trkpt lat="46.27326" lon="10.47754">
        <ele>2174.161</ele>
        <time>2018-09-13T20:35:25Z</time>
      </trkpt>
      <trkpt lat="46.27329" lon="10.47756">
        <ele>2174.378</ele>
        <time>2018-09-13T20:35:45Z</time>
      </trkpt>
      <trkpt lat="46.2733" lon="10.47757">
        <ele>2174.651</ele>
        <time>2018-09-13T20:36:05Z</time>
      </trkpt>
      <trkpt lat="46.27333" lon="10.47757">
        <ele>2175.244</ele>
        <time>2018-09-13T20:36:25Z</time>
      </trkpt>
      <trkpt lat="46.27335" lon="10.47758">
        <ele>2175.637</ele>
        <time>2018-09-13T20:36:45Z</time>
      </trkpt>
      <trkpt lat="46.27337" lon="10.47758">
        <ele>2176.155</ele>
        <time>2018-09-13T20:37:05Z</time>
      </trkpt>
      <trkpt lat="46.27339" lon="10.47759">
        <ele>2176.522</ele>
        <time>2018-09-13T20:37:25Z</time>
      </trkpt>
      <trkpt lat="46.27341" lon="10.47759">
        <ele>2177.389</ele>
        <time>2018-09-13T20:37:45Z</time>
      </trkpt>
      <trkpt lat="46.27344" lon="10.4776">
        <ele>2177.606</ele>
        <time>2018-09-13T20:38:05Z</time>
      </trkpt>
      <trkpt lat="46.27345" lon="10.47761">
        <ele>2177.826</ele>
        <time>2018-09-13T20:38:25Z</time>
      </trkpt>
      <trkpt lat="46.27347" lon="10.47762">
        <ele>2178.008</ele>
        <time>2018-09-13T20:38:45Z</time>
      </trkpt>
      <trkpt lat="46.27349" lon="10.47764">
        <ele>2178.11</ele>
        <time>2018-09-13T20:39:05Z</time>
      </trkpt>
      <trkpt lat="46.2735" lon="10.47766">
        <ele>2178.086</ele>
        <time>2018-09-13T20:39:25Z</time>
      </trkpt>
      <trkpt lat="46.27351" lon="10.47769">
        <ele>2177.793</ele>
        <time>2018-09-13T20:39:45Z</time>
      </trkpt>
      <trkpt lat="46.27353" lon="10.4777">
        <ele>2177.736</ele>
        <time>2018-09-13T20:40:05Z</time>
      </trkpt>
      <trkpt lat="46.27355" lon="10.47772">
        <ele>2177.799</ele>
        <time>2018-09-13T20:40:25Z</time>
      </trkpt>
      <trkpt lat="46.27357" lon="10.47773">
        <ele>2178.112</ele>
        <time>2018-09-13T20:40:45Z</time>
      </trkpt>
      <trkpt lat="46.27359" lon="10.47776">
        <ele>2177.96</ele>
        <time>2018-09-13T20:41:05Z</time>
      </trkpt>
      <trkpt lat="46.2736" lon="10.47779">
        <ele>2177.497</ele>
        <time>2018-09-13T20:41:25Z</time>
      </trkpt>
      <trkpt lat="46.27361" lon="10.47782">
        <ele>2177.087</ele>
        <time>2018-09-13T20:41:45Z</time>
      </trkpt>
      <trkpt lat="46.27362" lon="10.47784">
        <ele>2176.742</ele>
        <time>2018-09-13T20:42:05Z</time>
      </trkpt>
      <trkpt lat="46.27362" lon="10.47787">
        <ele>2176.326</ele>
        <time>2018-09-13T20:42:25Z</time>
      </trkpt>
      <trkpt lat="46.27363" lon="10.4779">
        <ele>2176.008</ele>
        <time>2018-09-13T20:42:45Z</time>
      </trkpt>
      <trkpt lat="46.27364" lon="10.47792">
        <ele>2175.93</ele>
        <time>2018-09-13T20:43:05Z</time>
      </trkpt>
      <trkpt lat="46.27367" lon="10.47793">
        <ele>2176.196</ele>
        <time>2018-09-13T20:43:25Z</time>
      </trkpt>
      <trkpt lat="46.27369" lon="10.47795">
        <ele>2176.343</ele>
        <time>2018-09-13T20:43:45Z</time>
      </trkpt>
      <trkpt lat="46.27371" lon="10.47795">
        <ele>2176.836</ele>
        <time>2018-09-13T20:44:05Z</time>
      </trkpt>
      <trkpt lat="46.27373" lon="10.47794">
        <ele>2177.719</ele>
        <time>2018-09-13T20:44:25Z</time>
      </trkpt>
      <trkpt lat="46.27375" lon="10.47793">
        <ele>2178.332</ele>
        <time>2018-09-13T20:44:45Z</time>
      </trkpt>
      <trkpt lat="46.27377" lon="10.47794">
        <ele>2178.95</ele>
        <time>2018-09-13T20:45:05Z</time>
      </trkpt>
      <trkpt lat="46.27379" lon="10.47794">
        <ele>2179.327</ele>
        <time>2018-09-13T20:45:25Z</time>
      </trkpt>
      <trkpt lat="46.27382" lon="10.47795">
        <ele>2179.835</ele>
        <time>2018-09-13T20:45:45Z</time>
      </trkpt>
      <trkpt lat="46.27384" lon="10.47795">
        <ele>2180.586</ele>
        <time>2018-09-13T20:46:05Z</time>
      </trkpt>
      <trkpt lat="46.27387" lon="10.47795">
        <ele>2181.014</ele>
        <time>2018-09-13T20:46:25Z</time>
      </trkpt>
      <trkpt lat="46.27389" lon="10.47796">
        <ele>2181.408</ele>
        <time>2018-09-13T20:46:45Z</time>
      </trkpt>
      <trkpt lat="46.27391" lon="10.47796">
        <ele>2182.025</ele>
        <time>2018-09-13T20:47:05Z</time>
      </trkpt>
      <trkpt lat="46.27393" lon="10.47796">
        <ele>2182.571</ele>
        <time>2018-09-13T20:47:25Z</time>
      </trkpt>
      <trkpt lat="46.27396" lon="10.47797">
        <ele>2183.148</ele>
        <time>2018-09-13T20:47:45Z</time>
      </trkpt>
      <trkpt lat="46.27398" lon="10.47797">
        <ele>2183.581</ele>
        <time>2018-09-13T20:48:05Z</time>
      </trkpt>
      <trkpt lat="46.274" lon="10.47797">
        <ele>2184.144</ele>
        <time>2018-09-13T20:48:25Z</time>
      </trkpt>
      <trkpt lat="46.27402" lon="10.47797">
        <ele>2184.747</ele>
        <time>2018-09-13T20:48:45Z</time>
      </trkpt>
      <trkpt lat="46.27404" lon="10.47797">
        <ele>2185.355</ele>
        <time>2018-09-13T20:49:05Z</time>
      </trkpt>
      <trkpt lat="46.27406" lon="10.47796">
        <ele>2186.082</ele>
        <time>2018-09-13T20:49:25Z</time>
      </trkpt>
      <trkpt lat="46.27408" lon="10.47796">
        <ele>2186.515</ele>
        <time>2018-09-13T20:49:45Z</time>
      </trkpt>
      <trkpt lat="46.2741" lon="10.47796">
        <ele>2187.265</ele>
        <time>2018-09-13T20:50:05Z</time>
      </trkpt>
      <trkpt lat="46.27412" lon="10.47795">
        <ele>2187.911</ele>
        <time>2018-09-13T20:50:25Z</time>
      </trkpt>
      <trkpt lat="46.27414" lon="10.47795">
        <ele>2188.508</ele>
        <time>2018-09-13T20:50:45Z</time>
      </trkpt>
      <trkpt lat="46.27416" lon="10.47796">
        <ele>2188.983</ele>
        <time>2018-09-13T20:51:05Z</time>
      </trkpt>
      <trkpt lat="46.27418" lon="10.47796">
        <ele>2189.469</ele>
        <time>2018-09-13T20:51:25Z</time>
      </trkpt>
      <trkpt lat="46.2742" lon="10.47797">
        <ele>2189.936</ele>
        <time>2018-09-13T20:51:45Z</time>
      </trkpt>
      <trkpt lat="46.27423" lon="10.47797">
        <ele>2190.689</ele>
        <time>2018-09-13T20:52:05Z</time>
      </trkpt>
      <trkpt lat="46.27425" lon="10.47798">
        <ele>2190.912</ele>
        <time>2018-09-13T20:52:25Z</time>
      </trkpt>
      <trkpt lat="46.27427" lon="10.47799">
        <ele>2191.495</ele>
        <time>2018-09-13T20:52:45Z</time>
      </trkpt>
      <trkpt lat="46.27429" lon="10.47799">
        <ele>2191.743</ele>
        <time>2018-09-13T20:53:05Z</time>
      </trkpt>
      <trkpt lat="46.2743" lon="10.478">
        <ele>2191.93</ele>
        <time>2018-09-13T20:53:25Z</time>
      </trkpt>
      <trkpt lat="46.27434" lon="10.47802">
        <ele>2192.614</ele>
        <time>2018-09-13T20:53:45Z</time>
      </trkpt>
      <trkpt lat="46.27459" lon="10.47814">
        <ele>2197.654</ele>
        <time>2018-09-13T20:54:05Z</time>
      </trkpt>
      <trkpt lat="46.27461" lon="10.47817">
        <ele>2197.709</ele>
        <time>2018-09-13T20:54:25Z</time>
      </trkpt>
      <trkpt lat="46.27463" lon="10.47819">
        <ele>2197.908</ele>
        <time>2018-09-13T20:54:45Z</time>
      </trkpt>
      <trkpt lat="46.27464" lon="10.4782">
        <ele>2198.063</ele>
        <time>2018-09-13T20:55:05Z</time>
      </trkpt>
      <trkpt lat="46.27487" lon="10.47835">
        <ele>2200.989</ele>
        <time>2018-09-13T20:55:25Z</time>
      </trkpt>
      <trkpt lat="46.27489" lon="10.47837">
        <ele>2201.066</ele>
        <time>2018-09-13T20:55:45Z</time>
      </trkpt>
      <trkpt lat="46.27491" lon="10.47837">
        <ele>2201.539</ele>
        <time>2018-09-13T20:56:05Z</time>
      </trkpt>
      <trkpt lat="46.27493" lon="10.47838">
        <ele>2201.732</ele>
        <time>2018-09-13T20:56:25Z</time>
      </trkpt>
      <trkpt lat="46.27495" lon="10.4784">
        <ele>2201.995</ele>
        <time>2018-09-13T20:56:45Z</time>
      </trkpt>
      <trkpt lat="46.27496" lon="10.47841">
        <ele>2202.063</ele>
        <time>2018-09-13T20:57:05Z</time>
      </trkpt>
      <trkpt lat="46.27498" lon="10.47843">
        <ele>2202.32</ele>
        <time>2018-09-13T20:57:25Z</time>
      </trkpt>
      <trkpt lat="46.275" lon="10.47844">
        <ele>2202.637</ele>
        <time>2018-09-13T20:57:45Z</time>
      </trkpt>
      <trkpt lat="46.27502" lon="10.47846">
        <ele>2203.149</ele>
        <time>2018-09-13T20:58:05Z</time>
      </trkpt>
      <trkpt lat="46.27503" lon="10.47848">
        <ele>2203.713</ele>
        <time>2018-09-13T20:58:25Z</time>
      </trkpt>
      <trkpt lat="46.27505" lon="10.4785">
        <ele>2204.308</ele>
        <time>2018-09-13T20:58:45Z</time>
      </trkpt>
      <trkpt lat="46.27506" lon="10.47852">
        <ele>2204.815</ele>
        <time>2018-09-13T20:59:05Z</time>
      </trkpt>
      <trkpt lat="46.27506" lon="10.47855">
        <ele>2204.551</ele>
        <time>2018-09-13T20:59:25Z</time>
      </trkpt>
      <trkpt lat="46.27508" lon="10.47856">
        <ele>2205.518</ele>
        <time>2018-09-13T20:59:45Z</time>
      </trkpt>
      <trkpt lat="46.2751" lon="10.4786">
        <ele>2206.011</ele>
        <time>2018-09-13T21:00:05Z</time>
      </trkpt>
      <trkpt lat="46.27512" lon="10.47862">
        <ele>2206.584</ele>
        <time>2018-09-13T21:00:25Z</time>
      </trkpt>
      <trkpt lat="46.27513" lon="10.47865">
        <ele>2207.267</ele>
        <time>2018-09-13T21:00:45Z</time>
      </trkpt>
      <trkpt lat="46.27515" lon="10.47868">
        <ele>2207.435</ele>
        <time>2018-09-13T21:01:05Z</time>
      </trkpt>
      <trkpt lat="46.27516" lon="10.47871">
        <ele>2207.952</ele>
        <time>2018-09-13T21:01:25Z</time>
      </trkpt>
      <trkpt lat="46.27518" lon="10.47874">
        <ele>2208.892</ele>
        <time>2018-09-13T21:01:45Z</time>
      </trkpt>
      <trkpt lat="46.2752" lon="10.47876">
        <ele>2209.273</ele>
        <time>2018-09-13T21:02:05Z</time>
      </trkpt>
      <trkpt lat="46.27521" lon="10.47878">
        <ele>2209.82</ele>
        <time>2018-09-13T21:02:25Z</time>
      </trkpt>
      <trkpt lat="46.27523" lon="10.4788">
        <ele>2210.608</ele>
        <time>2018-09-13T21:02:45Z</time>
      </trkpt>
      <trkpt lat="46.27524" lon="10.47882">
        <ele>2211.111</ele>
        <time>2018-09-13T21:03:05Z</time>
      </trkpt>
      <trkpt lat="46.27526" lon="10.47883">
        <ele>2211.927</ele>
        <time>2018-09-13T21:03:25Z</time>
      </trkpt>
      <trkpt lat="46.27528" lon="10.47885">
        <ele>2212.684</ele>
        <time>2018-09-13T21:03:45Z</time>
      </trkpt>
      <trkpt lat="46.2753" lon="10.47886">
        <ele>2212.847</ele>
        <time>2018-09-13T21:04:05Z</time>
      </trkpt>
      <trkpt lat="46.27532" lon="10.47886">
        <ele>2213.13</ele>
        <time>2018-09-13T21:04:25Z</time>
      </trkpt>
      <trkpt lat="46.27534" lon="10.47887">
        <ele>2213.453</ele>
        <time>2018-09-13T21:04:45Z</time>
      </trkpt>
      <trkpt lat="46.27536" lon="10.47887">
        <ele>2213.731</ele>
        <time>2018-09-13T21:05:05Z</time>
      </trkpt>
      <trkpt lat="46.27538" lon="10.47886">
        <ele>2214.258</ele>
        <time>2018-09-13T21:05:25Z</time>
      </trkpt>
      <trkpt lat="46.2754" lon="10.47885">
        <ele>2214.624</ele>
        <time>2018-09-13T21:05:45Z</time>
      </trkpt>
      <trkpt lat="46.27541" lon="10.47884">
        <ele>2215.104</ele>
        <time>2018-09-13T21:06:05Z</time>
      </trkpt>
      <trkpt lat="46.27543" lon="10.47881">
        <ele>2215.714</ele>
        <time>2018-09-13T21:06:25Z</time>
      </trkpt>
      <trkpt lat="46.27545" lon="10.4788">
        <ele>2216.108</ele>
        <time>2018-09-13T21:06:45Z</time>
      </trkpt>
      <trkpt lat="46.27547" lon="10.47879">
        <ele>2216.624</ele>
        <time>2018-09-13T21:07:05Z</time>
      </trkpt>
      <trkpt lat="46.27549" lon="10.47878">
        <ele>2217.17</ele>
        <time>2018-09-13T21:07:25Z</time>
      </trkpt>
      <trkpt lat="46.27551" lon="10.47876">
        <ele>2217.527</ele>
        <time>2018-09-13T21:07:45Z</time>
      </trkpt>
      <trkpt lat="46.27552" lon="10.47874">
        <ele>2218.06</ele>
        <time>2018-09-13T21:08:05Z</time>
      </trkpt>
      <trkpt lat="46.27554" lon="10.47872">
        <ele>2218.483</ele>
        <time>2018-09-13T21:08:25Z</time>
      </trkpt>
      <trkpt lat="46.27555" lon="10.4787">
        <ele>2218.966</ele>
        <time>2018-09-13T21:08:45Z</time>
      </trkpt>
      <trkpt lat="46.27557" lon="10.47868">
        <ele>2219.454</ele>
        <time>2018-09-13T21:09:05Z</time>
      </trkpt>
      <trkpt lat="46.27559" lon="10.47867">
        <ele>2219.731</ele>
        <time>2018-09-13T21:09:25Z</time>
      </trkpt>
      <trkpt lat="46.27561" lon="10.47866">
        <ele>2220.015</ele>
        <time>2018-09-13T21:09:45Z</time>
      </trkpt>
      <trkpt lat="46.27562" lon="10.47865">
        <ele>2220.365</ele>
        <time>2018-09-13T21:10:05Z</time>
      </trkpt>
      <trkpt lat="46.27564" lon="10.47864">
        <ele>2220.511</ele>
        <time>2018-09-13T21:10:25Z</time>
      </trkpt>
      <trkpt lat="46.27566" lon="10.47866">
        <ele>2220.608</ele>
        <time>2018-09-13T21:10:45Z</time>
      </trkpt>
      <trkpt lat="46.27568" lon="10.47868">
        <ele>2220.613</ele>
        <time>2018-09-13T21:11:05Z</time>
      </trkpt>
      <trkpt lat="46.27569" lon="10.47869">
        <ele>2220.619</ele>
        <time>2018-09-13T21:11:25Z</time>
      </trkpt>
      <trkpt lat="46.27571" lon="10.47871">
        <ele>2220.586</ele>
        <time>2018-09-13T21:11:45Z</time>
      </trkpt>
      <trkpt lat="46.27572" lon="10.47873">
        <ele>2220.439</ele>
        <time>2018-09-13T21:12:05Z</time>
      </trkpt>
      <trkpt lat="46.27573" lon="10.47876">
        <ele>2220.322</ele>
        <time>2018-09-13T21:12:25Z</time>
      </trkpt>
      <trkpt lat="46.27575" lon="10.47878">
        <ele>2220.285</ele>
        <time>2018-09-13T21:12:45Z</time>
      </trkpt>
      <trkpt lat="46.27576" lon="10.4788">
        <ele>2220.053</ele>
        <time>2018-09-13T21:13:05Z</time>
      </trkpt>
      <trkpt lat="46.27577" lon="10.47882">
        <ele>2220.04</ele>
        <time>2018-09-13T21:13:25Z</time>
      </trkpt>
      <trkpt lat="46.27579" lon="10.47884">
        <ele>2220.029</ele>
        <time>2018-09-13T21:13:45Z</time>
      </trkpt>
      <trkpt lat="46.2758" lon="10.47885">
        <ele>2220.1</ele>
        <time>2018-09-13T21:14:05Z</time>
      </trkpt>
      <trkpt lat="46.27593" lon="10.47894">
        <ele>2221.32</ele>
        <time>2018-09-13T21:14:25Z</time>
      </trkpt>
      <trkpt lat="46.27595" lon="10.47896">
        <ele>2221.508</ele>
        <time>2018-09-13T21:14:45Z</time>
      </trkpt>
      <trkpt lat="46.27596" lon="10.47898">
        <ele>2221.524</ele>
        <time>2018-09-13T21:15:05Z</time>
      </trkpt>
      <trkpt lat="46.27598" lon="10.47899">
        <ele>2221.71</ele>
        <time>2018-09-13T21:15:25Z</time>
      </trkpt>
      <trkpt lat="46.276" lon="10.47901">
        <ele>2221.957</ele>
        <time>2018-09-13T21:15:45Z</time>
      </trkpt>
      <trkpt lat="46.27602" lon="10.47903">
        <ele>2222.08</ele>
        <time>2018-09-13T21:16:05Z</time>
      </trkpt>
      <trkpt lat="46.27603" lon="10.47906">
        <ele>2222.133</ele>
        <time>2018-09-13T21:16:25Z</time>
      </trkpt>
      <trkpt lat="46.27604" lon="10.47908">
        <ele>2222.246</ele>
        <time>2018-09-13T21:16:45Z</time>
      </trkpt>
      <trkpt lat="46.27605" lon="10.4791">
        <ele>2222.154</ele>
        <time>2018-09-13T21:17:05Z</time>
      </trkpt>
      <trkpt lat="46.27606" lon="10.47913">
        <ele>2222.171</ele>
        <time>2018-09-13T21:17:25Z</time>
      </trkpt>
      <trkpt lat="46.27606" lon="10.47916">
        <ele>2221.936</ele>
        <time>2018-09-13T21:17:45Z</time>
      </trkpt>
      <trkpt lat="46.27607" lon="10.47919">
        <ele>2221.717</ele>
        <time>2018-09-13T21:18:05Z</time>
      </trkpt>
      <trkpt lat="46.27607" lon="10.47922">
        <ele>2221.518</ele>
        <time>2018-09-13T21:18:25Z</time>
      </trkpt>
      <trkpt lat="46.27608" lon="10.47925">
        <ele>2221.308</ele>
        <time>2018-09-13T21:18:45Z</time>
      </trkpt>
      <trkpt lat="46.2761" lon="10.47927">
        <ele>2221.665</ele>
        <time>2018-09-13T21:19:05Z</time>
      </trkpt>
      <trkpt lat="46.27611" lon="10.4793">
        <ele>2221.541</ele>
        <time>2018-09-13T21:19:25Z</time>
      </trkpt>
      <trkpt lat="46.27612" lon="10.47932">
        <ele>2221.658</ele>
        <time>2018-09-13T21:19:45Z</time>
      </trkpt>
      <trkpt lat="46.27614" lon="10.47935">
        <ele>2221.651</ele>
        <time>2018-09-13T21:20:05Z</time>
      </trkpt>
      <trkpt lat="46.27615" lon="10.47938">
        <ele>2221.724</ele>
        <time>2018-09-13T21:20:25Z</time>
      </trkpt>
      <trkpt lat="46.27617" lon="10.4794">
        <ele>2222.367</ele>
        <time>2018-09-13T21:20:45Z</time>
      </trkpt>
      <trkpt lat="46.27619" lon="10.4794">
        <ele>2222.955</ele>
        <time>2018-09-13T21:21:05Z</time>
      </trkpt>
      <trkpt lat="46.27622" lon="10.47941">
        <ele>2223.732</ele>
        <time>2018-09-13T21:21:25Z</time>
      </trkpt>
      <trkpt lat="46.27624" lon="10.47943">
        <ele>2224.386</ele>
        <time>2018-09-13T21:21:45Z</time>
      </trkpt>
      <trkpt lat="46.27626" lon="10.47944">
        <ele>2224.76</ele>
        <time>2018-09-13T21:22:05Z</time>
      </trkpt>
      <trkpt lat="46.27627" lon="10.47945">
        <ele>2225.226</ele>
        <time>2018-09-13T21:22:25Z</time>
      </trkpt>
      <trkpt lat="46.27629" lon="10.47947">
        <ele>2225.608</ele>
        <time>2018-09-13T21:22:45Z</time>
      </trkpt>
      <trkpt lat="46.27631" lon="10.47948">
        <ele>2226.23</ele>
        <time>2018-09-13T21:23:05Z</time>
      </trkpt>
      <trkpt lat="46.27632" lon="10.47949">
        <ele>2226.746</ele>
        <time>2018-09-13T21:23:25Z</time>
      </trkpt>
      <trkpt lat="46.27635" lon="10.47951">
        <ele>2227.553</ele>
        <time>2018-09-13T21:23:45Z</time>
      </trkpt>
      <trkpt lat="46.27637" lon="10.47953">
        <ele>2228.316</ele>
        <time>2018-09-13T21:24:05Z</time>
      </trkpt>
      <trkpt lat="46.27638" lon="10.47957">
        <ele>2228.689</ele>
        <time>2018-09-13T21:24:25Z</time>
      </trkpt>
      <trkpt lat="46.27638" lon="10.4796">
        <ele>2228.622</ele>
        <time>2018-09-13T21:24:45Z</time>
      </trkpt>
      <trkpt lat="46.27638" lon="10.47963">
        <ele>2228.52</ele>
        <time>2018-09-13T21:25:05Z</time>
      </trkpt>
      <trkpt lat="46.27638" lon="10.47965">
        <ele>2228.437</ele>
        <time>2018-09-13T21:25:25Z</time>
      </trkpt>
      <trkpt lat="46.27635" lon="10.4798">
        <ele>2226.532</ele>
        <time>2018-09-13T21:25:45Z</time>
      </trkpt>
      <trkpt lat="46.27634" lon="10.47982">
        <ele>2226.092</ele>
        <time>2018-09-13T21:26:05Z</time>
      </trkpt>
      <trkpt lat="46.27632" lon="10.47986">
        <ele>2225.011</ele>
        <time>2018-09-13T21:26:25Z</time>
      </trkpt>
      <trkpt lat="46.27631" lon="10.47989">
        <ele>2224.208</ele>
        <time>2018-09-13T21:26:45Z</time>
      </trkpt>
      <trkpt lat="46.2763" lon="10.47991">
        <ele>2223.375</ele>
        <time>2018-09-13T21:27:05Z</time>
      </trkpt>
      <trkpt lat="46.27629" lon="10.47995">
        <ele>2222.931</ele>
        <time>2018-09-13T21:27:25Z</time>
      </trkpt>
      <trkpt lat="46.27629" lon="10.47998">
        <ele>2222.538</ele>
        <time>2018-09-13T21:27:45Z</time>
      </trkpt>
      <trkpt lat="46.27628" lon="10.48001">
        <ele>2221.891</ele>
        <time>2018-09-13T21:28:05Z</time>
      </trkpt>
      <trkpt lat="46.27628" lon="10.48004">
        <ele>2221.464</ele>
        <time>2018-09-13T21:28:25Z</time>
      </trkpt>
      <trkpt lat="46.27628" lon="10.48007">
        <ele>2221.117</ele>
        <time>2018-09-13T21:28:45Z</time>
      </trkpt>
      <trkpt lat="46.27627" lon="10.4801">
        <ele>2220.865</ele>
        <time>2018-09-13T21:29:05Z</time>
      </trkpt>
      <trkpt lat="46.27627" lon="10.48014">
        <ele>2220.122</ele>
        <time>2018-09-13T21:29:25Z</time>
      </trkpt>
      <trkpt lat="46.27626" lon="10.48017">
        <ele>2219.947</ele>
        <time>2018-09-13T21:29:45Z</time>
      </trkpt>
      <trkpt lat="46.27626" lon="10.4802">
        <ele>2219.629</ele>
        <time>2018-09-13T21:30:05Z</time>
      </trkpt>
      <trkpt lat="46.27626" lon="10.48023">
        <ele>2219.421</ele>
        <time>2018-09-13T21:30:25Z</time>
      </trkpt>
      <trkpt lat="46.27626" lon="10.48026">
        <ele>2219.008</ele>
        <time>2018-09-13T21:30:45Z</time>
      </trkpt>
      <trkpt lat="46.27625" lon="10.48029">
        <ele>2218.316</ele>
        <time>2018-09-13T21:31:05Z</time>
      </trkpt>
      <trkpt lat="46.27625" lon="10.48032">
        <ele>2217.862</ele>
        <time>2018-09-13T21:31:25Z</time>
      </trkpt>
      <trkpt lat="46.27625" lon="10.48035">
        <ele>2217.649</ele>
        <time>2018-09-13T21:31:45Z</time>
      </trkpt>
      <trkpt lat="46.27624" lon="10.48039">
        <ele>2217.222</ele>
        <time>2018-09-13T21:32:05Z</time>
      </trkpt>
      <trkpt lat="46.27624" lon="10.48042">
        <ele>2216.745</ele>
        <time>2018-09-13T21:32:25Z</time>
      </trkpt>
      <trkpt lat="46.27624" lon="10.48045">
        <ele>2216.298</ele>
        <time>2018-09-13T21:32:45Z</time>
      </trkpt>
      <trkpt lat="46.27624" lon="10.48048">
        <ele>2216.076</ele>
        <time>2018-09-13T21:33:05Z</time>
      </trkpt>
      <trkpt lat="46.27625" lon="10.48051">
        <ele>2216.213</ele>
        <time>2018-09-13T21:33:25Z</time>
      </trkpt>
      <trkpt lat="46.27626" lon="10.48054">
        <ele>2216.441</ele>
        <time>2018-09-13T21:33:45Z</time>
      </trkpt>
      <trkpt lat="46.27626" lon="10.48057">
        <ele>2216.481</ele>
        <time>2018-09-13T21:34:05Z</time>
      </trkpt>
      <trkpt lat="46.27628" lon="10.4806">
        <ele>2216.609</ele>
        <time>2018-09-13T21:34:25Z</time>
      </trkpt>
      <trkpt lat="46.27628" lon="10.48063">
        <ele>2216.508</ele>
        <time>2018-09-13T21:34:45Z</time>
      </trkpt>
      <trkpt lat="46.2763" lon="10.48066">
        <ele>2216.626</ele>
        <time>2018-09-13T21:35:05Z</time>
      </trkpt>
      <trkpt lat="46.2763" lon="10.48069">
        <ele>2216.432</ele>
        <time>2018-09-13T21:35:25Z</time>
      </trkpt>
      <trkpt lat="46.27632" lon="10.48072">
        <ele>2216.669</ele>
        <time>2018-09-13T21:35:45Z</time>
      </trkpt>
      <trkpt lat="46.27632" lon="10.48075">
        <ele>2216.422</ele>
        <time>2018-09-13T21:36:05Z</time>
      </trkpt>
      <trkpt lat="46.27632" lon="10.48078">
        <ele>2216.145</ele>
        <time>2018-09-13T21:36:25Z</time>
      </trkpt>
      <trkpt lat="46.27634" lon="10.4808">
        <ele>2216.158</ele>
        <time>2018-09-13T21:36:45Z</time>
      </trkpt>
      <trkpt lat="46.27635" lon="10.48083">
        <ele>2216.186</ele>
        <time>2018-09-13T21:37:05Z</time>
      </trkpt>
      <trkpt lat="46.27636" lon="10.48086">
        <ele>2216.293</ele>
        <time>2018-09-13T21:37:25Z</time>
      </trkpt>
      <trkpt lat="46.27637" lon="10.48089">
        <ele>2216.561</ele>
        <time>2018-09-13T21:37:45Z</time>
      </trkpt>
      <trkpt lat="46.27639" lon="10.4809">
        <ele>2216.921</ele>
        <time>2018-09-13T21:38:05Z</time>
      </trkpt>
      <trkpt lat="46.2764" lon="10.48094">
        <ele>2216.913</ele>
        <time>2018-09-13T21:38:25Z</time>
      </trkpt>
      <trkpt lat="46.27641" lon="10.48097">
        <ele>2216.908</ele>
        <time>2018-09-13T21:38:45Z</time>
      </trkpt>
      <trkpt lat="46.27641" lon="10.481">
        <ele>2216.618</ele>
        <time>2018-09-13T21:39:05Z</time>
      </trkpt>
      <trkpt lat="46.27642" lon="10.48103">
        <ele>2216.654</ele>
        <time>2018-09-13T21:39:25Z</time>
      </trkpt>
      <trkpt lat="46.27643" lon="10.48106">
        <ele>2216.721</ele>
        <time>2018-09-13T21:39:45Z</time>
      </trkpt>
      <trkpt lat="46.27645" lon="10.48108">
        <ele>2217.394</ele>
        <time>2018-09-13T21:40:05Z</time>
      </trkpt>
      <trkpt lat="46.27647" lon="10.48109">
        <ele>2218.267</ele>
        <time>2018-09-13T21:40:25Z</time>
      </trkpt>
      <trkpt lat="46.27649" lon="10.48109">
        <ele>2219.13</ele>
        <time>2018-09-13T21:40:45Z</time>
      </trkpt>
      <trkpt lat="46.27651" lon="10.48112">
        <ele>2219.848</ele>
        <time>2018-09-13T21:41:05Z</time>
      </trkpt>
      <trkpt lat="46.27653" lon="10.48112">
        <ele>2220.755</ele>
        <time>2018-09-13T21:41:25Z</time>
      </trkpt>
      <trkpt lat="46.27654" lon="10.48115">
        <ele>2221.314</ele>
        <time>2018-09-13T21:41:45Z</time>
      </trkpt>
      <trkpt lat="46.27656" lon="10.48117">
        <ele>2221.854</ele>
        <time>2018-09-13T21:42:05Z</time>
      </trkpt>
      <trkpt lat="46.27658" lon="10.48118">
        <ele>2222.709</ele>
        <time>2018-09-13T21:42:25Z</time>
      </trkpt>
      <trkpt lat="46.2766" lon="10.48119">
        <ele>2223.708</ele>
        <time>2018-09-13T21:42:45Z</time>
      </trkpt>
      <trkpt lat="46.27661" lon="10.4812">
        <ele>2224.463</ele>
        <time>2018-09-13T21:43:05Z</time>
      </trkpt>
      <trkpt lat="46.27663" lon="10.48122">
        <ele>2225.189</ele>
        <time>2018-09-13T21:43:25Z</time>
      </trkpt>
      <trkpt lat="46.27665" lon="10.48123">
        <ele>2226.336</ele>
        <time>2018-09-13T21:43:45Z</time>
      </trkpt>
      <trkpt lat="46.27668" lon="10.48125">
        <ele>2227.139</ele>
        <time>2018-09-13T21:44:05Z</time>
      </trkpt>
      <trkpt lat="46.27669" lon="10.48126">
        <ele>2227.292</ele>
        <time>2018-09-13T21:44:25Z</time>
      </trkpt>
      <trkpt lat="46.27672" lon="10.48126">
        <ele>2227.565</ele>
        <time>2018-09-13T21:44:45Z</time>
      </trkpt>
      <trkpt lat="46.27674" lon="10.48129">
        <ele>2227.513</ele>
        <time>2018-09-13T21:45:05Z</time>
      </trkpt>
      <trkpt lat="46.27676" lon="10.4813">
        <ele>2227.76</ele>
        <time>2018-09-13T21:45:25Z</time>
      </trkpt>
      <trkpt lat="46.27678" lon="10.48131">
        <ele>2227.874</ele>
        <time>2018-09-13T21:45:45Z</time>
      </trkpt>
      <trkpt lat="46.27679" lon="10.48133">
        <ele>2227.856</ele>
        <time>2018-09-13T21:46:05Z</time>
      </trkpt>
      <trkpt lat="46.27681" lon="10.48136">
        <ele>2227.821</ele>
        <time>2018-09-13T21:46:25Z</time>
      </trkpt>
      <trkpt lat="46.27683" lon="10.48137">
        <ele>2227.908</ele>
        <time>2018-09-13T21:46:45Z</time>
      </trkpt>
      <trkpt lat="46.27685" lon="10.48138">
        <ele>2228.049</ele>
        <time>2018-09-13T21:47:05Z</time>
      </trkpt>
      <trkpt lat="46.27687" lon="10.48139">
        <ele>2228.195</ele>
        <time>2018-09-13T21:47:25Z</time>
      </trkpt>
      <trkpt lat="46.27689" lon="10.48139">
        <ele>2228.372</ele>
        <time>2018-09-13T21:47:45Z</time>
      </trkpt>
      <trkpt lat="46.27691" lon="10.48139">
        <ele>2228.665</ele>
        <time>2018-09-13T21:48:05Z</time>
      </trkpt>
      <trkpt lat="46.27693" lon="10.48142">
        <ele>2228.438</ele>
        <time>2018-09-13T21:48:25Z</time>
      </trkpt>
      <trkpt lat="46.27694" lon="10.48145">
        <ele>2228.021</ele>
        <time>2018-09-13T21:48:45Z</time>
      </trkpt>
      <trkpt lat="46.27695" lon="10.48147">
        <ele>2228.459</ele>
        <time>2018-09-13T21:49:05Z</time>
      </trkpt>
      <trkpt lat="46.27697" lon="10.4815">
        <ele>2229.396</ele>
        <time>2018-09-13T21:49:25Z</time>
      </trkpt>
      <trkpt lat="46.27698" lon="10.48153">
        <ele>2229.869</ele>
        <time>2018-09-13T21:49:45Z</time>
      </trkpt>
      <trkpt lat="46.277" lon="10.48155">
        <ele>2230.304</ele>
        <time>2018-09-13T21:50:05Z</time>
      </trkpt>
      <trkpt lat="46.27701" lon="10.48157">
        <ele>2231.024</ele>
        <time>2018-09-13T21:50:25Z</time>
      </trkpt>
      <trkpt lat="46.27703" lon="10.48159">
        <ele>2231.908</ele>
        <time>2018-09-13T21:50:45Z</time>
      </trkpt>
      <trkpt lat="46.27704" lon="10.48162">
        <ele>2232.178</ele>
        <time>2018-09-13T21:51:05Z</time>
      </trkpt>
      <trkpt lat="46.27706" lon="10.48164">
        <ele>2233.054</ele>
        <time>2018-09-13T21:51:25Z</time>
      </trkpt>
      <trkpt lat="46.27708" lon="10.48166">
        <ele>2234.041</ele>
        <time>2018-09-13T21:51:45Z</time>
      </trkpt>
      <trkpt lat="46.27709" lon="10.48168">
        <ele>2234.414</ele>
        <time>2018-09-13T21:52:05Z</time>
      </trkpt>
      <trkpt lat="46.2771" lon="10.48171">
        <ele>2235.017</ele>
        <time>2018-09-13T21:52:25Z</time>
      </trkpt>
      <trkpt lat="46.27712" lon="10.48173">
        <ele>2235.92</ele>
        <time>2018-09-13T21:52:45Z</time>
      </trkpt>
      <trkpt lat="46.27713" lon="10.48176">
        <ele>2236.418</ele>
        <time>2018-09-13T21:53:05Z</time>
      </trkpt>
      <trkpt lat="46.27712" lon="10.48179">
        <ele>2235.535</ele>
        <time>2018-09-13T21:53:25Z</time>
      </trkpt>
      <trkpt lat="46.27712" lon="10.48183">
        <ele>2235.118</ele>
        <time>2018-09-13T21:53:45Z</time>
      </trkpt>
      <trkpt lat="46.27713" lon="10.48187">
        <ele>2234.998</ele>
        <time>2018-09-13T21:54:05Z</time>
      </trkpt>
      <trkpt lat="46.27713" lon="10.48188">
        <ele>2234.917</ele>
        <time>2018-09-13T21:54:25Z</time>
      </trkpt>
      <trkpt lat="46.27713" lon="10.48189">
        <ele>2234.908</ele>
        <time>2018-09-13T21:54:45Z</time>
      </trkpt>
      <trkpt lat="46.27714" lon="10.48192">
        <ele>2234.623</ele>
        <time>2018-09-13T21:55:05Z</time>
      </trkpt>
      <trkpt lat="46.27713" lon="10.48195">
        <ele>2234.169</ele>
        <time>2018-09-13T21:55:25Z</time>
      </trkpt>
      <trkpt lat="46.27714" lon="10.48198">
        <ele>2234.046</ele>
        <time>2018-09-13T21:55:45Z</time>
      </trkpt>
      <trkpt lat="46.27714" lon="10.48202">
        <ele>2233.439</ele>
        <time>2018-09-13T21:56:05Z</time>
      </trkpt>
      <trkpt lat="46.27714" lon="10.48205">
        <ele>2233.632</ele>
        <time>2018-09-13T21:56:25Z</time>
      </trkpt>
      <trkpt lat="46.27715" lon="10.48208">
        <ele>2233.375</ele>
        <time>2018-09-13T21:56:45Z</time>
      </trkpt>
      <trkpt lat="46.27715" lon="10.48211">
        <ele>2233.493</ele>
        <time>2018-09-13T21:57:05Z</time>
      </trkpt>
      <trkpt lat="46.27716" lon="10.48213">
        <ele>2233.59</ele>
        <time>2018-09-13T21:57:25Z</time>
      </trkpt>
      <trkpt lat="46.27717" lon="10.48217">
        <ele>2233.762</ele>
        <time>2018-09-13T21:57:45Z</time>
      </trkpt>
      <trkpt lat="46.27717" lon="10.48219">
        <ele>2233.383</ele>
        <time>2018-09-13T21:58:05Z</time>
      </trkpt>
      <trkpt lat="46.27717" lon="10.48223">
        <ele>2232.711</ele>
        <time>2018-09-13T21:58:25Z</time>
      </trkpt>
      <trkpt lat="46.27717" lon="10.48226">
        <ele>2232.308</ele>
        <time>2018-09-13T21:58:45Z</time>
      </trkpt>
      <trkpt lat="46.27716" lon="10.4823">
        <ele>2231.578</ele>
        <time>2018-09-13T21:59:05Z</time>
      </trkpt>
      <trkpt lat="46.27714" lon="10.48233">
        <ele>2230.444</ele>
        <time>2018-09-13T21:59:25Z</time>
      </trkpt>
      <trkpt lat="46.27714" lon="10.48235">
        <ele>2229.971</ele>
        <time>2018-09-13T21:59:45Z</time>
      </trkpt>
      <trkpt lat="46.27714" lon="10.48238">
        <ele>2230.094</ele>
        <time>2018-09-13T22:00:05Z</time>
      </trkpt>
      <trkpt lat="46.27714" lon="10.48241">
        <ele>2229.697</ele>
        <time>2018-09-13T22:00:25Z</time>
      </trkpt>
      <trkpt lat="46.27714" lon="10.48245">
        <ele>2229.19</ele>
        <time>2018-09-13T22:00:45Z</time>
      </trkpt>
      <trkpt lat="46.27714" lon="10.48248">
        <ele>2228.788</ele>
        <time>2018-09-13T22:01:05Z</time>
      </trkpt>
      <trkpt lat="46.27712" lon="10.48251">
        <ele>2228.165</ele>
        <time>2018-09-13T22:01:25Z</time>
      </trkpt>
      <trkpt lat="46.27711" lon="10.48254">
        <ele>2227.933</ele>
        <time>2018-09-13T22:01:45Z</time>
      </trkpt>
      <trkpt lat="46.27709" lon="10.48255">
        <ele>2227.223</ele>
        <time>2018-09-13T22:02:05Z</time>
      </trkpt>
      <trkpt lat="46.27707" lon="10.48257">
        <ele>2226.815</ele>
        <time>2018-09-13T22:02:25Z</time>
      </trkpt>
      <trkpt lat="46.27706" lon="10.48259">
        <ele>2226.408</ele>
        <time>2018-09-13T22:02:45Z</time>
      </trkpt>
      <trkpt lat="46.27704" lon="10.48261">
        <ele>2225.925</ele>
        <time>2018-09-13T22:03:05Z</time>
      </trkpt>
      <trkpt lat="46.27702" lon="10.48263">
        <ele>2225.671</ele>
        <time>2018-09-13T22:03:25Z</time>
      </trkpt>
      <trkpt lat="46.27701" lon="10.48265">
        <ele>2225.558</ele>
        <time>2018-09-13T22:03:45Z</time>
      </trkpt>
      <trkpt lat="46.277" lon="10.48268">
        <ele>2225.431</ele>
        <time>2018-09-13T22:04:05Z</time>
      </trkpt>
      <trkpt lat="46.27698" lon="10.48271">
        <ele>2225.264</ele>
        <time>2018-09-13T22:04:25Z</time>
      </trkpt>
      <trkpt lat="46.27699" lon="10.48273">
        <ele>2225.737</ele>
        <time>2018-09-13T22:04:45Z</time>
      </trkpt>
      <trkpt lat="46.27699" lon="10.48277">
        <ele>2226.355</ele>
        <time>2018-09-13T22:05:05Z</time>
      </trkpt>
      <trkpt lat="46.277" lon="10.4828">
        <ele>2226.912</ele>
        <time>2018-09-13T22:05:25Z</time>
      </trkpt>
      <trkpt lat="46.277" lon="10.48283">
        <ele>2227.426</ele>
        <time>2018-09-13T22:05:45Z</time>
      </trkpt>
      <trkpt lat="46.27701" lon="10.48287">
        <ele>2227.847</ele>
        <time>2018-09-13T22:06:05Z</time>
      </trkpt>
      <trkpt lat="46.27701" lon="10.4829">
        <ele>2228.511</ele>
        <time>2018-09-13T22:06:25Z</time>
      </trkpt>
      <trkpt lat="46.27702" lon="10.48294">
        <ele>2229.008</ele>
        <time>2018-09-13T22:06:45Z</time>
      </trkpt>
      <trkpt lat="46.27703" lon="10.48297">
        <ele>2229.514</ele>
        <time>2018-09-13T22:07:05Z</time>
      </trkpt>
      <trkpt lat="46.27703" lon="10.483">
        <ele>2229.84</ele>
        <time>2018-09-13T22:07:25Z</time>
      </trkpt>
      <trkpt lat="46.27704" lon="10.48303">
        <ele>2230.377</ele>
        <time>2018-09-13T22:07:45Z</time>
      </trkpt>
      <trkpt lat="46.27704" lon="10.48305">
        <ele>2230.81</ele>
        <time>2018-09-13T22:08:05Z</time>
      </trkpt>
      <trkpt lat="46.27706" lon="10.48308">
        <ele>2231.243</ele>
        <time>2018-09-13T22:08:25Z</time>
      </trkpt>
      <trkpt lat="46.27706" lon="10.48311">
        <ele>2231.566</ele>
        <time>2018-09-13T22:08:45Z</time>
      </trkpt>
      <trkpt lat="46.27708" lon="10.48313">
        <ele>2232.194</ele>
        <time>2018-09-13T22:09:05Z</time>
      </trkpt>
      <trkpt lat="46.27711" lon="10.48314">
        <ele>2232.751</ele>
        <time>2018-09-13T22:09:25Z</time>
      </trkpt>
      <trkpt lat="46.27712" lon="10.48318">
        <ele>2233.289</ele>
        <time>2018-09-13T22:09:45Z</time>
      </trkpt>
      <trkpt lat="46.27714" lon="10.48319">
        <ele>2233.706</ele>
        <time>2018-09-13T22:10:05Z</time>
      </trkpt>
      <trkpt lat="46.27716" lon="10.48321">
        <ele>2234.326</ele>
        <time>2018-09-13T22:10:25Z</time>
      </trkpt>
      <trkpt lat="46.27718" lon="10.48323">
        <ele>2234.908</ele>
        <time>2018-09-13T22:10:45Z</time>
      </trkpt>
      <trkpt lat="46.2772" lon="10.48325">
        <ele>2235.43</ele>
        <time>2018-09-13T22:11:05Z</time>
      </trkpt>
      <trkpt lat="46.27721" lon="10.48328">
        <ele>2235.626</ele>
        <time>2018-09-13T22:11:25Z</time>
      </trkpt>
      <trkpt lat="46.27722" lon="10.48331">
        <ele>2235.993</ele>
        <time>2018-09-13T22:11:45Z</time>
      </trkpt>
      <trkpt lat="46.27724" lon="10.48333">
        <ele>2236.386</ele>
        <time>2018-09-13T22:12:05Z</time>
      </trkpt>
      <trkpt lat="46.27725" lon="10.48335">
        <ele>2236.459</ele>
        <time>2018-09-13T22:12:25Z</time>
      </trkpt>
      <trkpt lat="46.27726" lon="10.48338">
        <ele>2236.232</ele>
        <time>2018-09-13T22:12:45Z</time>
      </trkpt>
      <trkpt lat="46.27727" lon="10.48343">
        <ele>2235.65</ele>
        <time>2018-09-13T22:13:05Z</time>
      </trkpt>
      <trkpt lat="46.27728" lon="10.48346">
        <ele>2235.337</ele>
        <time>2018-09-13T22:13:25Z</time>
      </trkpt>
      <trkpt lat="46.27729" lon="10.48349">
        <ele>2234.936</ele>
        <time>2018-09-13T22:13:45Z</time>
      </trkpt>
      <trkpt lat="46.2773" lon="10.48354">
        <ele>2234.517</ele>
        <time>2018-09-13T22:14:05Z</time>
      </trkpt>
      <trkpt lat="46.2773" lon="10.48356">
        <ele>2234.218</ele>
        <time>2018-09-13T22:14:25Z</time>
      </trkpt>
      <trkpt lat="46.27732" lon="10.48359">
        <ele>2234.208</ele>
        <time>2018-09-13T22:14:45Z</time>
      </trkpt>
      <trkpt lat="46.27733" lon="10.48362">
        <ele>2234.095</ele>
        <time>2018-09-13T22:15:05Z</time>
      </trkpt>
      <trkpt lat="46.27735" lon="10.48365">
        <ele>2233.881</ele>
        <time>2018-09-13T22:15:25Z</time>
      </trkpt>
      <trkpt lat="46.27737" lon="10.48366">
        <ele>2234.098</ele>
        <time>2018-09-13T22:15:45Z</time>
      </trkpt>
      <trkpt lat="46.27739" lon="10.48368">
        <ele>2234.291</ele>
        <time>2018-09-13T22:16:05Z</time>
      </trkpt>
      <trkpt lat="46.2774" lon="10.48371">
        <ele>2234.084</ele>
        <time>2018-09-13T22:16:25Z</time>
      </trkpt>
      <trkpt lat="46.27742" lon="10.48374">
        <ele>2233.847</ele>
        <time>2018-09-13T22:16:45Z</time>
      </trkpt>
      <trkpt lat="46.27743" lon="10.48376">
        <ele>2233.915</ele>
        <time>2018-09-13T22:17:05Z</time>
      </trkpt>
      <trkpt lat="46.27745" lon="10.48377">
        <ele>2233.932</ele>
        <time>2018-09-13T22:17:25Z</time>
      </trkpt>
      <trkpt lat="46.27746" lon="10.4838">
        <ele>2233.797</ele>
        <time>2018-09-13T22:17:45Z</time>
      </trkpt>
      <trkpt lat="46.27747" lon="10.48382">
        <ele>2233.723</ele>
        <time>2018-09-13T22:18:05Z</time>
      </trkpt>
      <trkpt lat="46.27749" lon="10.48384">
        <ele>2233.725</ele>
        <time>2018-09-13T22:18:25Z</time>
      </trkpt>
      <trkpt lat="46.2775" lon="10.48387">
        <ele>2233.508</ele>
        <time>2018-09-13T22:18:45Z</time>
      </trkpt>
      <trkpt lat="46.27751" lon="10.48389">
        <ele>2233.271</ele>
        <time>2018-09-13T22:19:05Z</time>
      </trkpt>
      <trkpt lat="46.27753" lon="10.4839">
        <ele>2233.117</ele>
        <time>2018-09-13T22:19:25Z</time>
      </trkpt>
      <trkpt lat="46.27756" lon="10.48392">
        <ele>2233.274</ele>
        <time>2018-09-13T22:19:45Z</time>
      </trkpt>
      <trkpt lat="46.27757" lon="10.48393">
        <ele>2233.367</ele>
        <time>2018-09-13T22:20:05Z</time>
      </trkpt>
      <trkpt lat="46.27759" lon="10.48395">
        <ele>2233.13</ele>
        <time>2018-09-13T22:20:25Z</time>
      </trkpt>
      <trkpt lat="46.27761" lon="10.48396">
        <ele>2233.183</ele>
        <time>2018-09-13T22:20:45Z</time>
      </trkpt>
      <trkpt lat="46.27763" lon="10.48397">
        <ele>2233.381</ele>
        <time>2018-09-13T22:21:05Z</time>
      </trkpt>
      <trkpt lat="46.27765" lon="10.48397">
        <ele>2233.528</ele>
        <time>2018-09-13T22:21:25Z</time>
      </trkpt>
      <trkpt lat="46.27767" lon="10.48398">
        <ele>2233.672</ele>
        <time>2018-09-13T22:21:45Z</time>
      </trkpt>
      <trkpt lat="46.2777" lon="10.48399">
        <ele>2233.813</ele>
        <time>2018-09-13T22:22:05Z</time>
      </trkpt>
      <trkpt lat="46.27772" lon="10.48399">
        <ele>2233.914</ele>
        <time>2018-09-13T22:22:25Z</time>
      </trkpt>
      <trkpt lat="46.27773" lon="10.48398">
        <ele>2234.408</ele>
        <time>2018-09-13T22:22:45Z</time>
      </trkpt>
      <trkpt lat="46.27776" lon="10.48399">
        <ele>2234.529</ele>
        <time>2018-09-13T22:23:05Z</time>
      </trkpt>
      <trkpt lat="46.27778" lon="10.484">
        <ele>2234.775</ele>
        <time>2018-09-13T22:23:25Z</time>
      </trkpt>
      <trkpt lat="46.2778" lon="10.484">
        <ele>2234.522</ele>
        <time>2018-09-13T22:23:45Z</time>
      </trkpt>
      <trkpt lat="46.27782" lon="10.48401">
        <ele>2234.095</ele>
        <time>2018-09-13T22:24:05Z</time>
      </trkpt>
      <trkpt lat="46.27785" lon="10.48403">
        <ele>2233.428</ele>
        <time>2018-09-13T22:24:25Z</time>
      </trkpt>
      <trkpt lat="46.27787" lon="10.48403">
        <ele>2233.031</ele>
        <time>2018-09-13T22:24:45Z</time>
      </trkpt>
      <trkpt lat="46.27789" lon="10.48404">
        <ele>2232.769</ele>
        <time>2018-09-13T22:25:05Z</time>
      </trkpt>
      <trkpt lat="46.27791" lon="10.48406">
        <ele>2231.866</ele>
        <time>2018-09-13T22:25:25Z</time>
      </trkpt>
      <trkpt lat="46.27792" lon="10.48407">
        <ele>2231.021</ele>
        <time>2018-09-13T22:25:45Z</time>
      </trkpt>
      <trkpt lat="46.27794" lon="10.48405">
        <ele>2231.841</ele>
        <time>2018-09-13T22:26:05Z</time>
      </trkpt>
      <trkpt lat="46.27796" lon="10.48403">
        <ele>2232.405</ele>
        <time>2018-09-13T22:26:25Z</time>
      </trkpt>
      <trkpt lat="46.27798" lon="10.48401">
        <ele>2232.708</ele>
        <time>2018-09-13T22:26:45Z</time>
      </trkpt>
      <trkpt lat="46.27801" lon="10.48403">
        <ele>2231.964</ele>
        <time>2018-09-13T22:27:05Z</time>
      </trkpt>
      <trkpt lat="46.27802" lon="10.48404">
        <ele>2231.23</ele>
        <time>2018-09-13T22:27:25Z</time>
      </trkpt>
      <trkpt lat="46.27805" lon="10.48406">
        <ele>2230.287</ele>
        <time>2018-09-13T22:27:45Z</time>
      </trkpt>
      <trkpt lat="46.27806" lon="10.48406">
        <ele>2230.11</ele>
        <time>2018-09-13T22:28:05Z</time>
      </trkpt>
      <trkpt lat="46.27808" lon="10.48406">
        <ele>2230.793</ele>
        <time>2018-09-13T22:28:25Z</time>
      </trkpt>
      <trkpt lat="46.27811" lon="10.48406">
        <ele>2231.216</ele>
        <time>2018-09-13T22:28:45Z</time>
      </trkpt>
      <trkpt lat="46.27813" lon="10.48407">
        <ele>2231.494</ele>
        <time>2018-09-13T22:29:05Z</time>
      </trkpt>
      <trkpt lat="46.27815" lon="10.48408">
        <ele>2231.561</ele>
        <time>2018-09-13T22:29:25Z</time>
      </trkpt>
      <trkpt lat="46.27817" lon="10.48409">
        <ele>2231.989</ele>
        <time>2018-09-13T22:29:45Z</time>
      </trkpt>
      <trkpt lat="46.27819" lon="10.48408">
        <ele>2232.806</ele>
        <time>2018-09-13T22:30:05Z</time>
      </trkpt>
      <trkpt lat="46.27821" lon="10.4841">
        <ele>2232.526</ele>
        <time>2018-09-13T22:30:25Z</time>
      </trkpt>
      <trkpt lat="46.27823" lon="10.48411">
        <ele>2232.408</ele>
        <time>2018-09-13T22:30:45Z</time>
      </trkpt>
      <trkpt lat="46.27825" lon="10.48413">
        <ele>2232.01</ele>
        <time>2018-09-13T22:31:05Z</time>
      </trkpt>
      <trkpt lat="46.27826" lon="10.48415">
        <ele>2231.866</ele>
        <time>2018-09-13T22:31:25Z</time>
      </trkpt>
      <trkpt lat="46.27828" lon="10.48416">
        <ele>2231.873</ele>
        <time>2018-09-13T22:31:45Z</time>
      </trkpt>
      <trkpt lat="46.2783" lon="10.48417">
        <ele>2231.996</ele>
        <time>2018-09-13T22:32:05Z</time>
      </trkpt>
      <trkpt lat="46.27832" lon="10.48419">
        <ele>2231.929</ele>
        <time>2018-09-13T22:32:25Z</time>
      </trkpt>
      <trkpt lat="46.27834" lon="10.48421">
        <ele>2231.892</ele>
        <time>2018-09-13T22:32:45Z</time>
      </trkpt>
      <trkpt lat="46.27836" lon="10.48422">
        <ele>2231.88</ele>
        <time>2018-09-13T22:33:05Z</time>
      </trkpt>
      <trkpt lat="46.27838" lon="10.48424">
        <ele>2231.427</ele>
        <time>2018-09-13T22:33:25Z</time>
      </trkpt>
      <trkpt lat="46.2784" lon="10.48426">
        <ele>2231.472</ele>
        <time>2018-09-13T22:33:45Z</time>
      </trkpt>
      <trkpt lat="46.27841" lon="10.48429">
        <ele>2230.813</ele>
        <time>2018-09-13T22:34:05Z</time>
      </trkpt>
      <trkpt lat="46.27843" lon="10.48432">
        <ele>2230.314</ele>
        <time>2018-09-13T22:34:25Z</time>
      </trkpt>
      <trkpt lat="46.27843" lon="10.48434">
        <ele>2229.608</ele>
        <time>2018-09-13T22:34:45Z</time>
      </trkpt>
      <trkpt lat="46.27879" lon="10.48453">
        <ele>2234.789</ele>
        <time>2018-09-13T22:35:05Z</time>
      </trkpt>
      <trkpt lat="46.27917" lon="10.48463">
        <ele>2241.935</ele>
        <time>2018-09-13T22:35:25Z</time>
      </trkpt>
      <trkpt lat="46.27952" lon="10.48455">
        <ele>2249.982</ele>
        <time>2018-09-13T22:35:45Z</time>
      </trkpt>
      <trkpt lat="46.27977" lon="10.48442">
        <ele>2257.635</ele>
        <time>2018-09-13T22:36:05Z</time>
      </trkpt>
      <trkpt lat="46.27994" lon="10.48437">
        <ele>2262.798</ele>
        <time>2018-09-13T22:36:25Z</time>
      </trkpt>
      <trkpt lat="46.28021" lon="10.4843">
        <ele>2269.151</ele>
        <time>2018-09-13T22:36:45Z</time>
      </trkpt>
      <trkpt lat="46.28043" lon="10.48423">
        <ele>2273.249</ele>
        <time>2018-09-13T22:37:05Z</time>
      </trkpt>
      <trkpt lat="46.28057" lon="10.48424">
        <ele>2274.926</ele>
        <time>2018-09-13T22:37:25Z</time>
      </trkpt>
      <trkpt lat="46.28088" lon="10.48446">
        <ele>2281.781</ele>
        <time>2018-09-13T22:37:45Z</time>
      </trkpt>
      <trkpt lat="46.28107" lon="10.48482">
        <ele>2290.961</ele>
        <time>2018-09-13T22:38:05Z</time>
      </trkpt>
      <trkpt lat="46.28116" lon="10.48493">
        <ele>2296.617</ele>
        <time>2018-09-13T22:38:25Z</time>
      </trkpt>
      <trkpt lat="46.2813" lon="10.4851">
        <ele>2301.708</ele>
        <time>2018-09-13T22:38:45Z</time>
      </trkpt>
      <trkpt lat="46.28149" lon="10.48511">
        <ele>2308.85</ele>
        <time>2018-09-13T22:39:05Z</time>
      </trkpt>
      <trkpt lat="46.28172" lon="10.48506">
        <ele>2319.046</ele>
        <time>2018-09-13T22:39:25Z</time>
      </trkpt>
      <trkpt lat="46.28189" lon="10.4849">
        <ele>2328.363</ele>
        <time>2018-09-13T22:39:45Z</time>
      </trkpt>
      <trkpt lat="46.2821" lon="10.48463">
        <ele>2340.496</ele>
        <time>2018-09-13T22:40:05Z</time>
      </trkpt>
      <trkpt lat="46.28272" lon="10.48396">
        <ele>2372.899</ele>
        <time>2018-09-13T22:40:25Z</time>
      </trkpt>
      <trkpt lat="46.28297" lon="10.48364">
        <ele>2394.472</ele>
        <time>2018-09-13T22:40:45Z</time>
      </trkpt>
      <trkpt lat="46.2832" lon="10.48342">
        <ele>2406.54</ele>
        <time>2018-09-13T22:41:05Z</time>
      </trkpt>
      <trkpt lat="46.28345" lon="10.48329">
        <ele>2414.317</ele>
        <time>2018-09-13T22:41:25Z</time>
      </trkpt>
      <trkpt lat="46.28401" lon="10.48317">
        <ele>2422.654</ele>
        <time>2018-09-13T22:41:45Z</time>
      </trkpt>
      <trkpt lat="46.28457" lon="10.483">
        <ele>2426.556</ele>
        <time>2018-09-13T22:42:05Z</time>
      </trkpt>
      <trkpt lat="46.28493" lon="10.48286">
        <ele>2432.711</ele>
        <time>2018-09-13T22:42:25Z</time>
      </trkpt>
      <trkpt lat="46.28525" lon="10.48282">
        <ele>2433.708</ele>
        <time>2018-09-13T22:42:45Z</time>
      </trkpt>
      <trkpt lat="46.28567" lon="10.48277">
        <ele>2432.197</ele>
        <time>2018-09-13T22:43:05Z</time>
      </trkpt>
      <trkpt lat="46.28626" lon="10.48276">
        <ele>2441.243</ele>
        <time>2018-09-13T22:43:25Z</time>
      </trkpt>
      <trkpt lat="46.28672" lon="10.4828">
        <ele>2446.04</ele>
        <time>2018-09-13T22:43:45Z</time>
      </trkpt>
      <trkpt lat="46.28696" lon="10.48284">
        <ele>2452.433</ele>
        <time>2018-09-13T22:44:05Z</time>
      </trkpt>
      <trkpt lat="46.28736" lon="10.48285">
        <ele>2471.376</ele>
        <time>2018-09-13T22:44:25Z</time>
      </trkpt>
      <trkpt lat="46.28778" lon="10.48305">
        <ele>2485.269</ele>
        <time>2018-09-13T22:44:45Z</time>
      </trkpt>
      <trkpt lat="46.28779" lon="10.48308">
        <ele>2485.787</ele>
        <time>2018-09-13T22:45:05Z</time>
      </trkpt>
      <trkpt lat="46.28793" lon="10.48339">
        <ele>2491.754</ele>
        <time>2018-09-13T22:45:25Z</time>
      </trkpt>
      <trkpt lat="46.28797" lon="10.48347">
        <ele>2492.985</ele>
        <time>2018-09-13T22:45:45Z</time>
      </trkpt>
      <trkpt lat="46.28838" lon="10.4834">
        <ele>2502.689</ele>
        <time>2018-09-13T22:46:05Z</time>
      </trkpt>
      <trkpt lat="46.28857" lon="10.4831">
        <ele>2516.317</ele>
        <time>2018-09-13T22:46:25Z</time>
      </trkpt>
      <trkpt lat="46.28869" lon="10.4828">
        <ele>2525.708</ele>
        <time>2018-09-13T22:46:45Z</time>
      </trkpt>
      <trkpt lat="46.28878" lon="10.48259">
        <ele>2535.11</ele>
        <time>2018-09-13T22:47:05Z</time>
      </trkpt>
      <trkpt lat="46.28886" lon="10.48231">
        <ele>2547.346</ele>
        <time>2018-09-13T22:47:25Z</time>
      </trkpt>
      <trkpt lat="46.28896" lon="10.48209">
        <ele>2553.853</ele>
        <time>2018-09-13T22:47:45Z</time>
      </trkpt>
      <trkpt lat="46.28903" lon="10.48195">
        <ele>2557.056</ele>
        <time>2018-09-13T22:48:05Z</time>
      </trkpt>
      <trkpt lat="46.28931" lon="10.48185">
        <ele>2559.449</ele>
        <time>2018-09-13T22:48:25Z</time>
      </trkpt>
      <trkpt lat="46.28941" lon="10.48176">
        <ele>2561.172</ele>
        <time>2018-09-13T22:48:45Z</time>
      </trkpt>
      <trkpt lat="46.2896" lon="10.48151">
        <ele>2571.52</ele>
        <time>2018-09-13T22:49:05Z</time>
      </trkpt>
      <trkpt lat="46.28987" lon="10.48139">
        <ele>2578.527</ele>
        <time>2018-09-13T22:49:25Z</time>
      </trkpt>
      <trkpt lat="46.28994" lon="10.48136">
        <ele>2579.133</ele>
        <time>2018-09-13T22:49:45Z</time>
      </trkpt>
      <trkpt lat="46.29025" lon="10.48141">
        <ele>2578.723</ele>
        <time>2018-09-13T22:50:05Z</time>
      </trkpt>
      <trkpt lat="46.2905" lon="10.48162">
        <ele>2595.715</ele>
        <time>2018-09-13T22:50:25Z</time>
      </trkpt>
      <trkpt lat="46.29075" lon="10.48187">
        <ele>2601.408</ele>
        <time>2018-09-13T22:50:45Z</time>
      </trkpt>
      <trkpt lat="46.29096" lon="10.48207">
        <ele>2610.095</ele>
        <time>2018-09-13T22:51:05Z</time>
      </trkpt>
      <trkpt lat="46.29098" lon="10.48209">
        <ele>2611.131</ele>
        <time>2018-09-13T22:51:25Z</time>
      </trkpt>
      <trkpt lat="46.29101" lon="10.48212">
        <ele>2612.948</ele>
        <time>2018-09-13T22:51:45Z</time>
      </trkpt>
      <trkpt lat="46.29087" lon="10.48239">
        <ele>2598.731</ele>
        <time>2018-09-13T22:52:05Z</time>
      </trkpt>
      <trkpt lat="46.29075" lon="10.48265">
        <ele>2592.134</ele>
        <time>2018-09-13T22:52:25Z</time>
      </trkpt>
      <trkpt lat="46.29074" lon="10.4827">
        <ele>2591.937</ele>
        <time>2018-09-13T22:52:45Z</time>
      </trkpt>
      <trkpt lat="46.29064" lon="10.48283">
        <ele>2586.575</ele>
        <time>2018-09-13T22:53:05Z</time>
      </trkpt>
      <trkpt lat="46.29046" lon="10.48295">
        <ele>2578.212</ele>
        <time>2018-09-13T22:53:25Z</time>
      </trkpt>
      <trkpt lat="46.29032" lon="10.48314">
        <ele>2571.521</ele>
        <time>2018-09-13T22:53:45Z</time>
      </trkpt>
      <trkpt lat="46.2903" lon="10.48335">
        <ele>2566.141</ele>
        <time>2018-09-13T22:54:05Z</time>
      </trkpt>
      <trkpt lat="46.29023" lon="10.48367">
        <ele>2561.705</ele>
        <time>2018-09-13T22:54:25Z</time>
      </trkpt>
      <trkpt lat="46.29025" lon="10.48392">
        <ele>2571.908</ele>
        <time>2018-09-13T22:54:45Z</time>
      </trkpt>
      <trkpt lat="46.29022" lon="10.48414">
        <ele>2570.384</ele>
        <time>2018-09-13T22:55:05Z</time>
      </trkpt>
      <trkpt lat="46.29011" lon="10.48438">
        <ele>2562.81</ele>
        <time>2018-09-13T22:55:25Z</time>
      </trkpt>
      <trkpt lat="46.29001" lon="10.48459">
        <ele>2554.957</ele>
        <time>2018-09-13T22:55:45Z</time>
      </trkpt>
      <trkpt lat="46.28987" lon="10.48472">
        <ele>2552.02</ele>
        <time>2018-09-13T22:56:05Z</time>
      </trkpt>
      <trkpt lat="46.28977" lon="10.48491">
        <ele>2550.333</ele>
        <time>2018-09-13T22:56:25Z</time>
      </trkpt>
      <trkpt lat="46.2897" lon="10.4851">
        <ele>2548.066</ele>
        <time>2018-09-13T22:56:45Z</time>
      </trkpt>
      <trkpt lat="46.28966" lon="10.48523">
        <ele>2545.244</ele>
        <time>2018-09-13T22:57:05Z</time>
      </trkpt>
      <trkpt lat="46.28962" lon="10.48528">
        <ele>2543.231</ele>
        <time>2018-09-13T22:57:25Z</time>
      </trkpt>
      <trkpt lat="46.28952" lon="10.48536">
        <ele>2538.282</ele>
        <time>2018-09-13T22:57:45Z</time>
      </trkpt>
      <trkpt lat="46.28916" lon="10.48567">
        <ele>2525.643</ele>
        <time>2018-09-13T22:58:05Z</time>
      </trkpt>
      <trkpt lat="46.28908" lon="10.48577">
        <ele>2521.717</ele>
        <time>2018-09-13T22:58:25Z</time>
      </trkpt>
      <trkpt lat="46.28893" lon="10.48596">
        <ele>2512.608</ele>
        <time>2018-09-13T22:58:45Z</time>
      </trkpt>
      <trkpt lat="46.28889" lon="10.48597">
        <ele>2510.73</ele>
        <time>2018-09-13T22:59:05Z</time>
      </trkpt>
      <trkpt lat="46.28874" lon="10.48601">
        <ele>2507.196</ele>
        <time>2018-09-13T22:59:25Z</time>
      </trkpt>
      <trkpt lat="46.28865" lon="10.48608">
        <ele>2504.753</ele>
        <time>2018-09-13T22:59:45Z</time>
      </trkpt>
      <trkpt lat="46.28842" lon="10.48616">
        <ele>2502.996</ele>
        <time>2018-09-13T23:00:05Z</time>
      </trkpt>
      <trkpt lat="46.28839" lon="10.48617">
        <ele>2502.769</ele>
        <time>2018-09-13T23:00:25Z</time>
      </trkpt>
      <trkpt lat="46.28833" lon="10.48612">
        <ele>2503.862</ele>
        <time>2018-09-13T23:00:45Z</time>
      </trkpt>
      <trkpt lat="46.28828" lon="10.48607">
        <ele>2504.37</ele>
        <time>2018-09-13T23:01:05Z</time>
      </trkpt>
      <trkpt lat="46.28828" lon="10.48566">
        <ele>2500.467</ele>
        <time>2018-09-13T23:01:25Z</time>
      </trkpt>
      <trkpt lat="46.28827" lon="10.48519">
        <ele>2485.194</ele>
        <time>2018-09-13T23:01:45Z</time>
      </trkpt>
      <trkpt lat="46.28832" lon="10.48474">
        <ele>2480.557</ele>
        <time>2018-09-13T23:02:05Z</time>
      </trkpt>
      <trkpt lat="46.28831" lon="10.48452">
        <ele>2483.822</ele>
        <time>2018-09-13T23:02:25Z</time>
      </trkpt>
      <trkpt lat="46.28833" lon="10.48441">
        <ele>2484.808</ele>
        <time>2018-09-13T23:02:45Z</time>
      </trkpt>
      <trkpt lat="46.28834" lon="10.48426">
        <ele>2486.551</ele>
        <time>2018-09-13T23:03:05Z</time>
      </trkpt>
      <trkpt lat="46.28836" lon="10.48404">
        <ele>2489.567</ele>
        <time>2018-09-13T23:03:25Z</time>
      </trkpt>
      <trkpt lat="46.28829" lon="10.48403">
        <ele>2490.724</ele>
        <time>2018-09-13T23:03:45Z</time>
      </trkpt>
      <trkpt lat="46.28799" lon="10.48399">
        <ele>2495.067</ele>
        <time>2018-09-13T23:04:05Z</time>
      </trkpt>
      <trkpt lat="46.28798" lon="10.48399">
        <ele>2495.09</ele>
        <time>2018-09-13T23:04:25Z</time>
      </trkpt>
      <trkpt lat="46.28787" lon="10.48404">
        <ele>2495.493</ele>
        <time>2018-09-13T23:04:45Z</time>
      </trkpt>
      <trkpt lat="46.28776" lon="10.48415">
        <ele>2496.221</ele>
        <time>2018-09-13T23:05:05Z</time>
      </trkpt>
      <trkpt lat="46.28761" lon="10.48429">
        <ele>2494.278</ele>
        <time>2018-09-13T23:05:25Z</time>
      </trkpt>
      <trkpt lat="46.28727" lon="10.4845">
        <ele>2479.998</ele>
        <time>2018-09-13T23:05:45Z</time>
      </trkpt>
      <trkpt lat="46.28702" lon="10.48463">
        <ele>2473.215</ele>
        <time>2018-09-13T23:06:05Z</time>
      </trkpt>
      <trkpt lat="46.28676" lon="10.4848">
        <ele>2471.126</ele>
        <time>2018-09-13T23:06:25Z</time>
      </trkpt>
      <trkpt lat="46.28657" lon="10.4848">
        <ele>2463.108</ele>
        <time>2018-09-13T23:06:45Z</time>
      </trkpt>
      <trkpt lat="46.28633" lon="10.48482">
        <ele>2451.861</ele>
        <time>2018-09-13T23:07:05Z</time>
      </trkpt>
      <trkpt lat="46.2858" lon="10.48496">
        <ele>2444.267</ele>
        <time>2018-09-13T23:07:25Z</time>
      </trkpt>
      <trkpt lat="46.28544" lon="10.48498">
        <ele>2435.834</ele>
        <time>2018-09-13T23:07:45Z</time>
      </trkpt>
      <trkpt lat="46.28527" lon="10.4849">
        <ele>2430.087</ele>
        <time>2018-09-13T23:08:05Z</time>
      </trkpt>
      <trkpt lat="46.28498" lon="10.48485">
        <ele>2425.23</ele>
        <time>2018-09-13T23:08:25Z</time>
      </trkpt>
      <trkpt lat="46.28476" lon="10.48493">
        <ele>2424.043</ele>
        <time>2018-09-13T23:08:45Z</time>
      </trkpt>
      <trkpt lat="46.28452" lon="10.48493">
        <ele>2421.721</ele>
        <time>2018-09-13T23:09:05Z</time>
      </trkpt>
      <trkpt lat="46.28425" lon="10.48497">
        <ele>2414.818</ele>
        <time>2018-09-13T23:09:25Z</time>
      </trkpt>
      <trkpt lat="46.28408" lon="10.48518">
        <ele>2409.164</ele>
        <time>2018-09-13T23:09:45Z</time>
      </trkpt>
      <trkpt lat="46.2838" lon="10.48543">
        <ele>2401.106</ele>
        <time>2018-09-13T23:10:05Z</time>
      </trkpt>
      <trkpt lat="46.28362" lon="10.48548">
        <ele>2391.316</ele>
        <time>2018-09-13T23:10:25Z</time>
      </trkpt>
      <trkpt lat="46.28343" lon="10.48552">
        <ele>2382.908</ele>
        <time>2018-09-13T23:10:45Z</time>
      </trkpt>
      <trkpt lat="46.28305" lon="10.48563">
        <ele>2370.688</ele>
        <time>2018-09-13T23:11:05Z</time>
      </trkpt>
      <trkpt lat="46.28299" lon="10.48564">
        <ele>2369.254</ele>
        <time>2018-09-13T23:11:25Z</time>
      </trkpt>
      <trkpt lat="46.28189" lon="10.48578">
        <ele>2324.481</ele>
        <time>2018-09-13T23:11:45Z</time>
      </trkpt>
      <trkpt lat="46.28184" lon="10.48562">
        <ele>2322.274</ele>
        <time>2018-09-13T23:12:05Z</time>
      </trkpt>
      <trkpt lat="46.28174" lon="10.48568">
        <ele>2316.377</ele>
        <time>2018-09-13T23:12:25Z</time>
      </trkpt>
      <trkpt lat="46.28173" lon="10.48581">
        <ele>2315.04</ele>
        <time>2018-09-13T23:12:45Z</time>
      </trkpt>
      <trkpt lat="46.28172" lon="10.48601">
        <ele>2314.988</ele>
        <time>2018-09-13T23:13:05Z</time>
      </trkpt>
      <trkpt lat="46.28167" lon="10.48629">
        <ele>2315.535</ele>
        <time>2018-09-13T23:13:25Z</time>
      </trkpt>
      <trkpt lat="46.28159" lon="10.48641">
        <ele>2312.555</ele>
        <time>2018-09-13T23:13:45Z</time>
      </trkpt>
      <trkpt lat="46.28141" lon="10.48662">
        <ele>2303.107</ele>
        <time>2018-09-13T23:14:05Z</time>
      </trkpt>
      <trkpt lat="46.28107" lon="10.48683">
        <ele>2299.117</ele>
        <time>2018-09-13T23:14:25Z</time>
      </trkpt>
      <trkpt lat="46.28089" lon="10.48704">
        <ele>2295.908</ele>
        <time>2018-09-13T23:14:45Z</time>
      </trkpt>
      <trkpt lat="46.2806" lon="10.48723">
        <ele>2291.947</ele>
        <time>2018-09-13T23:15:05Z</time>
      </trkpt>
      <trkpt lat="46.28047" lon="10.48736">
        <ele>2289.333</ele>
        <time>2018-09-13T23:15:25Z</time>
      </trkpt>
      <trkpt lat="46.28035" lon="10.48756">
        <ele>2287.99</ele>
        <time>2018-09-13T23:15:45Z</time>
      </trkpt>
      <trkpt lat="46.28011" lon="10.48769">
        <ele>2279.783</ele>
        <time>2018-09-13T23:16:05Z</time>
      </trkpt>
      <trkpt lat="46.27998" lon="10.48777">
        <ele>2275.066</ele>
        <time>2018-09-13T23:16:25Z</time>
      </trkpt>
      <trkpt lat="46.27978" lon="10.48793">
        <ele>2269.979</ele>
        <time>2018-09-13T23:16:45Z</time>
      </trkpt>
      <trkpt lat="46.2795" lon="10.48811">
        <ele>2262.757</ele>
        <time>2018-09-13T23:17:05Z</time>
      </trkpt>
      <trkpt lat="46.27944" lon="10.48816">
        <ele>2261.394</ele>
        <time>2018-09-13T23:17:25Z</time>
      </trkpt>
      <trkpt lat="46.27937" lon="10.48827">
        <ele>2259.331</ele>
        <time>2018-09-13T23:17:45Z</time>
      </trkpt>
      <trkpt lat="46.2793" lon="10.48845">
        <ele>2259.361</ele>
        <time>2018-09-13T23:18:05Z</time>
      </trkpt>
      <trkpt lat="46.2792" lon="10.48859">
        <ele>2257.607</ele>
        <time>2018-09-13T23:18:25Z</time>
      </trkpt>
      <trkpt lat="46.27899" lon="10.48876">
        <ele>2250.808</ele>
        <time>2018-09-13T23:18:45Z</time>
      </trkpt>
      <trkpt lat="46.27879" lon="10.48888">
        <ele>2244.055</ele>
        <time>2018-09-13T23:19:05Z</time>
      </trkpt>
      <trkpt lat="46.27856" lon="10.48932">
        <ele>2245.041</ele>
        <time>2018-09-13T23:19:25Z</time>
      </trkpt>
      <trkpt lat="46.27854" lon="10.48938">
        <ele>2245.688</ele>
        <time>2018-09-13T23:19:45Z</time>
      </trkpt>
      <trkpt lat="46.27835" lon="10.48961">
        <ele>2245.451</ele>
        <time>2018-09-13T23:20:05Z</time>
      </trkpt>
      <trkpt lat="46.27819" lon="10.48976">
        <ele>2242.234</ele>
        <time>2018-09-13T23:20:25Z</time>
      </trkpt>
      <trkpt lat="46.27803" lon="10.48984">
        <ele>2237.527</ele>
        <time>2018-09-13T23:20:45Z</time>
      </trkpt>
      <trkpt lat="46.27786" lon="10.48994">
        <ele>2232.865</ele>
        <time>2018-09-13T23:21:05Z</time>
      </trkpt>
      <trkpt lat="46.27768" lon="10.49009">
        <ele>2225.352</ele>
        <time>2018-09-13T23:21:25Z</time>
      </trkpt>
      <trkpt lat="46.2776" lon="10.4904">
        <ele>2230.759</ele>
        <time>2018-09-13T23:21:45Z</time>
      </trkpt>
      <trkpt lat="46.27751" lon="10.49051">
        <ele>2228.303</ele>
        <time>2018-09-13T23:22:05Z</time>
      </trkpt>
      <trkpt lat="46.27739" lon="10.49068">
        <ele>2226.523</ele>
        <time>2018-09-13T23:22:25Z</time>
      </trkpt>
      <trkpt lat="46.27729" lon="10.49085">
        <ele>2227.808</ele>
        <time>2018-09-13T23:22:45Z</time>
      </trkpt>
      <trkpt lat="46.27695" lon="10.49122">
        <ele>2222.537</ele>
        <time>2018-09-13T23:23:05Z</time>
      </trkpt>
      <trkpt lat="46.27669" lon="10.49171">
        <ele>2219.643</ele>
        <time>2018-09-13T23:23:25Z</time>
      </trkpt>
      <trkpt lat="46.27643" lon="10.49225">
        <ele>2214.03</ele>
        <time>2018-09-13T23:23:45Z</time>
      </trkpt>
      <trkpt lat="46.27631" lon="10.49278">
        <ele>2208.663</ele>
        <time>2018-09-13T23:24:05Z</time>
      </trkpt>
      <trkpt lat="46.27631" lon="10.4932">
        <ele>2205.346</ele>
        <time>2018-09-13T23:24:25Z</time>
      </trkpt>
      <trkpt lat="46.27628" lon="10.49357">
        <ele>2202.369</ele>
        <time>2018-09-13T23:24:45Z</time>
      </trkpt>
      <trkpt lat="46.27622" lon="10.49404">
        <ele>2195.697</ele>
        <time>2018-09-13T23:25:05Z</time>
      </trkpt>
      <trkpt lat="46.27614" lon="10.49448">
        <ele>2186.944</ele>
        <time>2018-09-13T23:25:25Z</time>
      </trkpt>
      <trkpt lat="46.27606" lon="10.495">
        <ele>2176.285</ele>
        <time>2018-09-13T23:25:45Z</time>
      </trkpt>
      <trkpt lat="46.27603" lon="10.49529">
        <ele>2173.789</ele>
        <time>2018-09-13T23:26:05Z</time>
      </trkpt>
      <trkpt lat="46.27595" lon="10.49553">
        <ele>2170.817</ele>
        <time>2018-09-13T23:26:25Z</time>
      </trkpt>
      <trkpt lat="46.27595" lon="10.49554">
        <ele>2170.708</ele>
        <time>2018-09-13T23:26:45Z</time>
      </trkpt>
      <trkpt lat="46.27581" lon="10.49602">
        <ele>2164.26</ele>
        <time>2018-09-13T23:27:05Z</time>
      </trkpt>
      <trkpt lat="46.27574" lon="10.49626">
        <ele>2161.256</ele>
        <time>2018-09-13T23:27:25Z</time>
      </trkpt>
      <trkpt lat="46.27573" lon="10.49625">
        <ele>2161.063</ele>
        <time>2018-09-13T23:27:45Z</time>
      </trkpt>
      <trkpt lat="46.27571" lon="10.49624">
        <ele>2160.826</ele>
        <time>2018-09-13T23:28:05Z</time>
      </trkpt>
      <trkpt lat="46.2756" lon="10.49619">
        <ele>2159.159</ele>
        <time>2018-09-13T23:28:25Z</time>
      </trkpt>
      <trkpt lat="46.27552" lon="10.49606">
        <ele>2158.292</ele>
        <time>2018-09-13T23:28:45Z</time>
      </trkpt>
      <trkpt lat="46.27541" lon="10.49594">
        <ele>2156.23</ele>
        <time>2018-09-13T23:29:05Z</time>
      </trkpt>
      <trkpt lat="46.27535" lon="10.49589">
        <ele>2154.667</ele>
        <time>2018-09-13T23:29:25Z</time>
      </trkpt>
      <trkpt lat="46.27522" lon="10.49592">
        <ele>2150.675</ele>
        <time>2018-09-13T23:29:45Z</time>
      </trkpt>
      <trkpt lat="46.27512" lon="10.49599">
        <ele>2147.728</ele>
        <time>2018-09-13T23:30:05Z</time>
      </trkpt>
      <trkpt lat="46.27503" lon="10.49619">
        <ele>2143.72</ele>
        <time>2018-09-13T23:30:25Z</time>
      </trkpt>
      <trkpt lat="46.27503" lon="10.4962">
        <ele>2143.708</ele>
        <time>2018-09-13T23:30:45Z</time>
      </trkpt>
      <trkpt lat="46.275" lon="10.49625">
        <ele>2142.349</ele>
        <time>2018-09-13T23:31:05Z</time>
      </trkpt>
      <trkpt lat="46.27498" lon="10.49661">
        <ele>2138.975</ele>
        <time>2018-09-13T23:31:25Z</time>
      </trkpt>
      <trkpt lat="46.27496" lon="10.49721">
        <ele>2132.822</ele>
        <time>2018-09-13T23:31:45Z</time>
      </trkpt>
      <trkpt lat="46.27497" lon="10.49735">
        <ele>2132.345</ele>
        <time>2018-09-13T23:32:05Z</time>
      </trkpt>
      <trkpt lat="46.27502" lon="10.49787">
        <ele>2128.868</ele>
        <time>2018-09-13T23:32:25Z</time>
      </trkpt>
      <trkpt lat="46.27508" lon="10.49802">
        <ele>2128.941</ele>
        <time>2018-09-13T23:32:45Z</time>
      </trkpt>
      <trkpt lat="46.27514" lon="10.49831">
        <ele>2127.359</ele>
        <time>2018-09-13T23:33:05Z</time>
      </trkpt>
      <trkpt lat="46.27517" lon="10.49849">
        <ele>2125.656</ele>
        <time>2018-09-13T23:33:25Z</time>
      </trkpt>
      <trkpt lat="46.27519" lon="10.49861">
        <ele>2124.571</ele>
        <time>2018-09-13T23:33:45Z</time>
      </trkpt>
      <trkpt lat="46.27522" lon="10.49876">
        <ele>2121.941</ele>
        <time>2018-09-13T23:34:05Z</time>
      </trkpt>
      <trkpt lat="46.27525" lon="10.499">
        <ele>2117.215</ele>
        <time>2018-09-13T23:34:25Z</time>
      </trkpt>
      <trkpt lat="46.27527" lon="10.49905">
        <ele>2116.508</ele>
        <time>2018-09-13T23:34:45Z</time>
      </trkpt>
      <trkpt lat="46.27529" lon="10.49909">
        <ele>2116.419</ele>
        <time>2018-09-13T23:35:05Z</time>
      </trkpt>
      <trkpt lat="46.27531" lon="10.49909">
        <ele>2116.695</ele>
        <time>2018-09-13T23:35:25Z</time>
      </trkpt>
      <trkpt lat="46.27549" lon="10.4992">
        <ele>2119.252</ele>
        <time>2018-09-13T23:35:45Z</time>
      </trkpt>
      <trkpt lat="46.27565" lon="10.49934">
        <ele>2119.345</ele>
        <time>2018-09-13T23:36:05Z</time>
      </trkpt>
      <trkpt lat="46.27598" lon="10.49966">
        <ele>2116.938</ele>
        <time>2018-09-13T23:36:25Z</time>
      </trkpt>
      <trkpt lat="46.27617" lon="10.49974">
        <ele>2118.681</ele>
        <time>2018-09-13T23:36:45Z</time>
      </trkpt>
      <trkpt lat="46.27637" lon="10.49993">
        <ele>2116.259</ele>
        <time>2018-09-13T23:37:05Z</time>
      </trkpt>
      <trkpt lat="46.27646" lon="10.5">
        <ele>2115.516</ele>
        <time>2018-09-13T23:37:25Z</time>
      </trkpt>
      <trkpt lat="46.27653" lon="10.50007">
        <ele>2114.394</ele>
        <time>2018-09-13T23:37:45Z</time>
      </trkpt>
      <trkpt lat="46.27655" lon="10.5001">
        <ele>2113.757</ele>
        <time>2018-09-13T23:38:05Z</time>
      </trkpt>
      <trkpt lat="46.27657" lon="10.50013">
        <ele>2113.122</ele>
        <time>2018-09-13T23:38:25Z</time>
      </trkpt>
      <trkpt lat="46.2766" lon="10.50016">
        <ele>2112.608</ele>
        <time>2018-09-13T23:38:45Z</time>
      </trkpt>
      <trkpt lat="46.27666" lon="10.50018">
        <ele>2113.151</ele>
        <time>2018-09-13T23:39:05Z</time>
      </trkpt>
      <trkpt lat="46.27679" lon="10.50023">
        <ele>2114.277</ele>
        <time>2018-09-13T23:39:25Z</time>
      </trkpt>
      <trkpt lat="46.27705" lon="10.50028">
        <ele>2117.264</ele>
        <time>2018-09-13T23:39:45Z</time>
      </trkpt>
      <trkpt lat="46.27725" lon="10.50029">
        <ele>2119.177</ele>
        <time>2018-09-13T23:40:05Z</time>
      </trkpt>
      <trkpt lat="46.27734" lon="10.5003">
        <ele>2120.57</ele>
        <time>2018-09-13T23:40:25Z</time>
      </trkpt>
      <trkpt lat="46.27744" lon="10.50034">
        <ele>2120.983</ele>
        <time>2018-09-13T23:40:45Z</time>
      </trkpt>
      <trkpt lat="46.2775" lon="10.50038">
        <ele>2120.081</ele>
        <time>2018-09-13T23:41:05Z</time>
      </trkpt>
      <trkpt lat="46.27754" lon="10.50045">
        <ele>2118.128</ele>
        <time>2018-09-13T23:41:25Z</time>
      </trkpt>
      <trkpt lat="46.27762" lon="10.50057">
        <ele>2114.446</ele>
        <time>2018-09-13T23:41:45Z</time>
      </trkpt>
      <trkpt lat="46.27772" lon="10.50069">
        <ele>2110.388</ele>
        <time>2018-09-13T23:42:05Z</time>
      </trkpt>
      <trkpt lat="46.27785" lon="10.50084">
        <ele>2108.016</ele>
        <time>2018-09-13T23:42:25Z</time>
      </trkpt>
      <trkpt lat="46.27797" lon="10.50093">
        <ele>2111.108</ele>
        <time>2018-09-13T23:42:45Z</time>
      </trkpt>
      <trkpt lat="46.27823" lon="10.50112">
        <ele>2113.936</ele>
        <time>2018-09-13T23:43:05Z</time>
      </trkpt>
      <trkpt lat="46.27835" lon="10.50122">
        <ele>2113.612</ele>
        <time>2018-09-13T23:43:25Z</time>
      </trkpt>
      <trkpt lat="46.27845" lon="10.50132">
        <ele>2113.189</ele>
        <time>2018-09-13T23:43:45Z</time>
      </trkpt>
      <trkpt lat="46.27856" lon="10.50146">
        <ele>2112.382</ele>
        <time>2018-09-13T23:44:05Z</time>
      </trkpt>
      <trkpt lat="46.27866" lon="10.50161">
        <ele>2110.685</ele>
        <time>2018-09-13T23:44:25Z</time>
      </trkpt>
      <trkpt lat="46.27871" lon="10.50167">
        <ele>2109.478</ele>
        <time>2018-09-13T23:44:45Z</time>
      </trkpt>
      <trkpt lat="46.2787" lon="10.5017">
        <ele>2108.276</ele>
        <time>2018-09-13T23:45:05Z</time>
      </trkpt>
      <trkpt lat="46.2787" lon="10.50171">
        <ele>2108.113</ele>
        <time>2018-09-13T23:45:25Z</time>
      </trkpt>
      <trkpt lat="46.27872" lon="10.50174">
        <ele>2107.782</ele>
        <time>2018-09-13T23:45:45Z</time>
      </trkpt>
      <trkpt lat="46.27894" lon="10.50209">
        <ele>2104.743</ele>
        <time>2018-09-13T23:46:05Z</time>
      </trkpt>
      <trkpt lat="46.27905" lon="10.50221">
        <ele>2105.417</ele>
        <time>2018-09-13T23:46:25Z</time>
      </trkpt>
      <trkpt lat="46.27909" lon="10.50222">
        <ele>2106.808</ele>
        <time>2018-09-13T23:46:45Z</time>
      </trkpt>
      <trkpt lat="46.2791" lon="10.50222">
        <ele>2107.46</ele>
        <time>2018-09-13T23:47:05Z</time>
      </trkpt>
      <trkpt lat="46.27931" lon="10.50219">
        <ele>2113.396</ele>
        <time>2018-09-13T23:47:25Z</time>
      </trkpt>
      <trkpt lat="46.27941" lon="10.5022">
        <ele>2115.013</ele>
        <time>2018-09-13T23:47:45Z</time>
      </trkpt>
      <trkpt lat="46.27967" lon="10.50223">
        <ele>2117.966</ele>
        <time>2018-09-13T23:48:05Z</time>
      </trkpt>
      <trkpt lat="46.27991" lon="10.50227">
        <ele>2119.789</ele>
        <time>2018-09-13T23:48:25Z</time>
      </trkpt>
      <trkpt lat="46.27992" lon="10.50222">
        <ele>2121.352</ele>
        <time>2018-09-13T23:48:45Z</time>
      </trkpt>
      <trkpt lat="46.27995" lon="10.50222">
        <ele>2121.58</ele>
        <time>2018-09-13T23:49:05Z</time>
      </trkpt>
      <trkpt lat="46.27994" lon="10.50227">
        <ele>2119.827</ele>
        <time>2018-09-13T23:49:25Z</time>
      </trkpt>
      <trkpt lat="46.28005" lon="10.50228">
        <ele>2120.516</ele>
        <time>2018-09-13T23:49:45Z</time>
      </trkpt>
      <trkpt lat="46.28011" lon="10.5023">
        <ele>2120.676</ele>
        <time>2018-09-13T23:50:05Z</time>
      </trkpt>
      <trkpt lat="46.28022" lon="10.50234">
        <ele>2120.313</ele>
        <time>2018-09-13T23:50:25Z</time>
      </trkpt>
      <trkpt lat="46.28048" lon="10.50236">
        <ele>2121.808</ele>
        <time>2018-09-13T23:50:45Z</time>
      </trkpt>
      <trkpt lat="46.28088" lon="10.50245">
        <ele>2121.033</ele>
        <time>2018-09-13T23:51:05Z</time>
      </trkpt>
      <trkpt lat="46.28101" lon="10.50244">
        <ele>2121.329</ele>
        <time>2018-09-13T23:51:25Z</time>
      </trkpt>
      <trkpt lat="46.28128" lon="10.50247">
        <ele>2119.726</ele>
        <time>2018-09-13T23:51:45Z</time>
      </trkpt>
      <trkpt lat="46.28148" lon="10.50248">
        <ele>2118.939</ele>
        <time>2018-09-13T23:52:05Z</time>
      </trkpt>
      <trkpt lat="46.28156" lon="10.50247">
        <ele>2119.332</ele>
        <time>2018-09-13T23:52:25Z</time>
      </trkpt>
      <trkpt lat="46.28162" lon="10.50246">
        <ele>2119.515</ele>
        <time>2018-09-13T23:52:45Z</time>
      </trkpt>
      <trkpt lat="46.28173" lon="10.50243">
        <ele>2121.373</ele>
        <time>2018-09-13T23:53:05Z</time>
      </trkpt>
      <trkpt lat="46.28189" lon="10.50239">
        <ele>2124.89</ele>
        <time>2018-09-13T23:53:25Z</time>
      </trkpt>
      <trkpt lat="46.28209" lon="10.50245">
        <ele>2126.128</ele>
        <time>2018-09-13T23:53:45Z</time>
      </trkpt>
      <trkpt lat="46.28215" lon="10.50245">
        <ele>2127.389</ele>
        <time>2018-09-13T23:54:05Z</time>
      </trkpt>
      <trkpt lat="46.28229" lon="10.50254">
        <ele>2126.817</ele>
        <time>2018-09-13T23:54:25Z</time>
      </trkpt>
      <trkpt lat="46.28246" lon="10.5027">
        <ele>2124.808</ele>
        <time>2018-09-13T23:54:45Z</time>
      </trkpt>
      <trkpt lat="46.28286" lon="10.50277">
        <ele>2131.174</ele>
        <time>2018-09-13T23:55:05Z</time>
      </trkpt>
      <trkpt lat="46.28319" lon="10.50281">
        <ele>2134.98</ele>
        <time>2018-09-13T23:55:25Z</time>
      </trkpt>
      <trkpt lat="46.28337" lon="10.50274">
        <ele>2137.647</ele>
        <time>2018-09-13T23:55:45Z</time>
      </trkpt>
      <trkpt lat="46.28359" lon="10.50284">
        <ele>2132.19</ele>
        <time>2018-09-13T23:56:05Z</time>
      </trkpt>
      <trkpt lat="46.28381" lon="10.50276">
        <ele>2128.483</ele>
        <time>2018-09-13T23:56:25Z</time>
      </trkpt>
      <trkpt lat="46.28406" lon="10.50256">
        <ele>2127.186</ele>
        <time>2018-09-13T23:56:45Z</time>
      </trkpt>
      <trkpt lat="46.28448" lon="10.50227">
        <ele>2122.254</ele>
        <time>2018-09-13T23:57:05Z</time>
      </trkpt>
      <trkpt lat="46.28486" lon="10.50206">
        <ele>2115.741</ele>
        <time>2018-09-13T23:57:25Z</time>
      </trkpt>
      <trkpt lat="46.28536" lon="10.50173">
        <ele>2107.699</ele>
        <time>2018-09-13T23:57:45Z</time>
      </trkpt>
      <trkpt lat="46.28563" lon="10.50127">
        <ele>2103.107</ele>
        <time>2018-09-13T23:58:05Z</time>
      </trkpt>
      <trkpt lat="46.28573" lon="10.50093">
        <ele>2101.827</ele>
        <time>2018-09-13T23:58:25Z</time>
      </trkpt>
      <trkpt lat="46.28578" lon="10.50082">
        <ele>2099.708</ele>
        <time>2018-09-13T23:58:45Z</time>
      </trkpt>
      <trkpt lat="46.28582" lon="10.50069">
        <ele>2098.831</ele>
        <time>2018-09-13T23:59:05Z</time>
      </trkpt>
      <trkpt lat="46.28591" lon="10.50067">
        <ele>2096.027</ele>
        <time>2018-09-13T23:59:25Z</time>
      </trkpt>
      <trkpt lat="46.286" lon="10.5007">
        <ele>2093.294</ele>
        <time>2018-09-13T23:59:45Z</time>
      </trkpt>
      <trkpt lat="46.28612" lon="10.50068">
        <ele>2090.657</ele>
        <time>2018-09-14T00:00:05Z</time>
      </trkpt>
      <trkpt lat="46.28623" lon="10.50058">
        <ele>2089.52</ele>
        <time>2018-09-14T00:00:25Z</time>
      </trkpt>
      <trkpt lat="46.28631" lon="10.50045">
        <ele>2090.073</ele>
        <time>2018-09-14T00:00:45Z</time>
      </trkpt>
      <trkpt lat="46.28639" lon="10.50034">
        <ele>2089.561</ele>
        <time>2018-09-14T00:01:05Z</time>
      </trkpt>
      <trkpt lat="46.28645" lon="10.50026">
        <ele>2089.388</ele>
        <time>2018-09-14T00:01:25Z</time>
      </trkpt>
      <trkpt lat="46.2865" lon="10.50014">
        <ele>2090.373</ele>
        <time>2018-09-14T00:01:45Z</time>
      </trkpt>
      <trkpt lat="46.2868" lon="10.49954">
        <ele>2089.385</ele>
        <time>2018-09-14T00:02:05Z</time>
      </trkpt>
      <trkpt lat="46.28683" lon="10.49949">
        <ele>2088.913</ele>
        <time>2018-09-14T00:02:25Z</time>
      </trkpt>
      <trkpt lat="46.28708" lon="10.49936">
        <ele>2076.708</ele>
        <time>2018-09-14T00:02:45Z</time>
      </trkpt>
      <trkpt lat="46.28755" lon="10.49922">
        <ele>2059.339</ele>
        <time>2018-09-14T00:03:05Z</time>
      </trkpt>
      <trkpt lat="46.28806" lon="10.49909">
        <ele>2046.115</ele>
        <time>2018-09-14T00:03:25Z</time>
      </trkpt>
      <trkpt lat="46.28841" lon="10.49901">
        <ele>2035.132</ele>
        <time>2018-09-14T00:03:45Z</time>
      </trkpt>
      <trkpt lat="46.28871" lon="10.49909">
        <ele>2025.995</ele>
        <time>2018-09-14T00:04:05Z</time>
      </trkpt>
      <trkpt lat="46.28889" lon="10.49919">
        <ele>2021.528</ele>
        <time>2018-09-14T00:04:25Z</time>
      </trkpt>
      <trkpt lat="46.28897" lon="10.49924">
        <ele>2018.931</ele>
        <time>2018-09-14T00:04:45Z</time>
      </trkpt>
      <trkpt lat="46.28927" lon="10.49942">
        <ele>2010.019</ele>
        <time>2018-09-14T00:05:05Z</time>
      </trkpt>
      <trkpt lat="46.28978" lon="10.49955">
        <ele>1993.486</ele>
        <time>2018-09-14T00:05:25Z</time>
      </trkpt>
      <trkpt lat="46.2901" lon="10.49939">
        <ele>1985.612</ele>
        <time>2018-09-14T00:05:45Z</time>
      </trkpt>
      <trkpt lat="46.29035" lon="10.49891">
        <ele>1981.732</ele>
        <time>2018-09-14T00:06:05Z</time>
      </trkpt>
      <trkpt lat="46.29058" lon="10.49853">
        <ele>1978.605</ele>
        <time>2018-09-14T00:06:25Z</time>
      </trkpt>
      <trkpt lat="46.29088" lon="10.49849">
        <ele>1971.708</ele>
        <time>2018-09-14T00:06:45Z</time>
      </trkpt>
      <trkpt lat="46.29111" lon="10.49845">
        <ele>1967.243</ele>
        <time>2018-09-14T00:07:05Z</time>
      </trkpt>
      <trkpt lat="46.29132" lon="10.49834">
        <ele>1963.869</ele>
        <time>2018-09-14T00:07:25Z</time>
      </trkpt>
      <trkpt lat="46.29162" lon="10.49827">
        <ele>1959.516</ele>
        <time>2018-09-14T00:07:45Z</time>
      </trkpt>
      <trkpt lat="46.29193" lon="10.49818">
        <ele>1959.299</ele>
        <time>2018-09-14T00:08:05Z</time>
      </trkpt>
      <trkpt lat="46.29197" lon="10.49817">
        <ele>1959.262</ele>
        <time>2018-09-14T00:08:25Z</time>
      </trkpt>
      <trkpt lat="46.29197" lon="10.49816">
        <ele>1959.415</ele>
        <time>2018-09-14T00:08:45Z</time>
      </trkpt>
      <trkpt lat="46.29197" lon="10.49813">
        <ele>1959.863</ele>
        <time>2018-09-14T00:09:05Z</time>
      </trkpt>
      <trkpt lat="46.29197" lon="10.4981">
        <ele>1960.24</ele>
        <time>2018-09-14T00:09:25Z</time>
      </trkpt>
      <trkpt lat="46.29197" lon="10.49807">
        <ele>1960.683</ele>
        <time>2018-09-14T00:09:45Z</time>
      </trkpt>
      <trkpt lat="46.29197" lon="10.49805">
        <ele>1961.025</ele>
        <time>2018-09-14T00:10:05Z</time>
      </trkpt>
      <trkpt lat="46.29198" lon="10.49801">
        <ele>1961.517</ele>
        <time>2018-09-14T00:10:25Z</time>
      </trkpt>
      <trkpt lat="46.29199" lon="10.49798">
        <ele>1961.808</ele>
        <time>2018-09-14T00:10:45Z</time>
      </trkpt>
      <trkpt lat="46.292" lon="10.49796">
        <ele>1962.12</ele>
        <time>2018-09-14T00:11:05Z</time>
      </trkpt>
      <trkpt lat="46.29201" lon="10.49794">
        <ele>1962.496</ele>
        <time>2018-09-14T00:11:25Z</time>
      </trkpt>
      <trkpt lat="46.29203" lon="10.49792">
        <ele>1962.663</ele>
        <time>2018-09-14T00:11:45Z</time>
      </trkpt>
      <trkpt lat="46.29203" lon="10.49792">
        <ele>1962.666</ele>
        <time>2018-09-14T00:12:05Z</time>
      </trkpt>
      <trkpt lat="46.29204" lon="10.49791">
        <ele>1962.729</ele>
        <time>2018-09-14T00:12:25Z</time>
      </trkpt>
      <trkpt lat="46.29207" lon="10.49789">
        <ele>1962.992</ele>
        <time>2018-09-14T00:12:45Z</time>
      </trkpt>
      <trkpt lat="46.29208" lon="10.49788">
        <ele>1963.09</ele>
        <time>2018-09-14T00:13:05Z</time>
      </trkpt>
      <trkpt lat="46.29211" lon="10.49787">
        <ele>1963.097</ele>
        <time>2018-09-14T00:13:25Z</time>
      </trkpt>
      <trkpt lat="46.29213" lon="10.49786">
        <ele>1963.148</ele>
        <time>2018-09-14T00:13:45Z</time>
      </trkpt>
      <trkpt lat="46.29215" lon="10.49785">
        <ele>1963.261</ele>
        <time>2018-09-14T00:14:05Z</time>
      </trkpt>
      <trkpt lat="46.29217" lon="10.49784">
        <ele>1963.317</ele>
        <time>2018-09-14T00:14:25Z</time>
      </trkpt>
      <trkpt lat="46.29219" lon="10.49783">
        <ele>1963.408</ele>
        <time>2018-09-14T00:14:45Z</time>
      </trkpt>
      <trkpt lat="46.2922" lon="10.49781">
        <ele>1963.646</ele>
        <time>2018-09-14T00:15:05Z</time>
      </trkpt>
      <trkpt lat="46.29268" lon="10.49757">
        <ele>1968.492</ele>
        <time>2018-09-14T00:15:25Z</time>
      </trkpt>
      <trkpt lat="46.29335" lon="10.49723">
        <ele>1973.579</ele>
        <time>2018-09-14T00:15:45Z</time>
      </trkpt>
      <trkpt lat="46.29339" lon="10.49718">
        <ele>1973.182</ele>
        <time>2018-09-14T00:16:05Z</time>
      </trkpt>
      <trkpt lat="46.2934" lon="10.49717">
        <ele>1973.185</ele>
        <time>2018-09-14T00:16:25Z</time>
      </trkpt>
      <trkpt lat="46.29341" lon="10.49716">
        <ele>1972.848</ele>
        <time>2018-09-14T00:16:45Z</time>
      </trkpt>
      <trkpt lat="46.29359" lon="10.49707">
        <ele>1969.586</ele>
        <time>2018-09-14T00:17:05Z</time>
      </trkpt>
      <trkpt lat="46.29375" lon="10.49679">
        <ele>1970.953</ele>
        <time>2018-09-14T00:17:25Z</time>
      </trkpt>
      <trkpt lat="46.29377" lon="10.49676">
        <ele>1970.989</ele>
        <time>2018-09-14T00:17:45Z</time>
      </trkpt>
      <trkpt lat="46.29391" lon="10.49644">
        <ele>1972.706</ele>
        <time>2018-09-14T00:18:05Z</time>
      </trkpt>
      <trkpt lat="46.29427" lon="10.49608">
        <ele>1975.226</ele>
        <time>2018-09-14T00:18:25Z</time>
      </trkpt>
      <trkpt lat="46.29448" lon="10.49591">
        <ele>1979.808</ele>
        <time>2018-09-14T00:18:45Z</time>
      </trkpt>
      <trkpt lat="46.29465" lon="10.49581">
        <ele>1980.72</ele>
        <time>2018-09-14T00:19:05Z</time>
      </trkpt>
      <trkpt lat="46.29466" lon="10.4958">
        <ele>1980.726</ele>
        <time>2018-09-14T00:19:25Z</time>
      </trkpt>
      <trkpt lat="46.29484" lon="10.49567">
        <ele>1980.633</ele>
        <time>2018-09-14T00:19:45Z</time>
      </trkpt>
      <trkpt lat="46.2949" lon="10.49547">
        <ele>1987.266</ele>
        <time>2018-09-14T00:20:05Z</time>
      </trkpt>
      <trkpt lat="46.29537" lon="10.49527">
        <ele>1979.839</ele>
        <time>2018-09-14T00:20:25Z</time>
      </trkpt>
      <trkpt lat="46.29539" lon="10.49525">
        <ele>1979.492</ele>
        <time>2018-09-14T00:20:45Z</time>
      </trkpt>
      <trkpt lat="46.29542" lon="10.49524">
        <ele>1979.14</ele>
        <time>2018-09-14T00:21:05Z</time>
      </trkpt>
      <trkpt lat="46.29544" lon="10.49522">
        <ele>1979.127</ele>
        <time>2018-09-14T00:21:25Z</time>
      </trkpt>
      <trkpt lat="46.29546" lon="10.49521">
        <ele>1979.193</ele>
        <time>2018-09-14T00:21:45Z</time>
      </trkpt>
      <trkpt lat="46.29547" lon="10.49519">
        <ele>1979.265</ele>
        <time>2018-09-14T00:22:05Z</time>
      </trkpt>
      <trkpt lat="46.29549" lon="10.49517">
        <ele>1980.021</ele>
        <time>2018-09-14T00:22:25Z</time>
      </trkpt>
      <trkpt lat="46.29551" lon="10.49515">
        <ele>1980.308</ele>
        <time>2018-09-14T00:22:45Z</time>
      </trkpt>
      <trkpt lat="46.29553" lon="10.49514">
        <ele>1980.361</ele>
        <time>2018-09-14T00:23:05Z</time>
      </trkpt>
      <trkpt lat="46.29556" lon="10.49513">
        <ele>1979.877</ele>
        <time>2018-09-14T00:23:25Z</time>
      </trkpt>
      <trkpt lat="46.29558" lon="10.49513">
        <ele>1979.554</ele>
        <time>2018-09-14T00:23:45Z</time>
      </trkpt>
      <trkpt lat="46.2956" lon="10.49512">
        <ele>1979.717</ele>
        <time>2018-09-14T00:24:05Z</time>
      </trkpt>
      <trkpt lat="46.2956" lon="10.49511">
        <ele>1979.79</ele>
        <time>2018-09-14T00:24:25Z</time>
      </trkpt>
      <trkpt lat="46.29572" lon="10.49499">
        <ele>1983.813</ele>
        <time>2018-09-14T00:24:45Z</time>
      </trkpt>
      <trkpt lat="46.29574" lon="10.49497">
        <ele>1984.061</ele>
        <time>2018-09-14T00:25:05Z</time>
      </trkpt>
      <trkpt lat="46.29577" lon="10.49495">
        <ele>1984.288</ele>
        <time>2018-09-14T00:25:25Z</time>
      </trkpt>
      <trkpt lat="46.29604" lon="10.49476">
        <ele>1984.422</ele>
        <time>2018-09-14T00:25:45Z</time>
      </trkpt>
      <trkpt lat="46.29611" lon="10.49473">
        <ele>1983.662</ele>
        <time>2018-09-14T00:26:05Z</time>
      </trkpt>
      <trkpt lat="46.29613" lon="10.49472">
        <ele>1983.108</ele>
        <time>2018-09-14T00:26:25Z</time>
      </trkpt>
      <trkpt lat="46.29641" lon="10.4945">
        <ele>1983.408</ele>
        <time>2018-09-14T00:26:45Z</time>
      </trkpt>
      <trkpt lat="46.2965" lon="10.49446">
        <ele>1980.994</ele>
        <time>2018-09-14T00:27:05Z</time>
      </trkpt>
      <trkpt lat="46.29684" lon="10.49432">
        <ele>1973.59</ele>
        <time>2018-09-14T00:27:25Z</time>
      </trkpt>
      <trkpt lat="46.29725" lon="10.49393">
        <ele>1984.437</ele>
        <time>2018-09-14T00:27:45Z</time>
      </trkpt>
      <trkpt lat="46.29731" lon="10.49382">
        <ele>1989.41</ele>
        <time>2018-09-14T00:28:05Z</time>
      </trkpt>
      <trkpt lat="46.29732" lon="10.49382">
        <ele>1989.583</ele>
        <time>2018-09-14T00:28:25Z</time>
      </trkpt>
      <trkpt lat="46.29737" lon="10.49378">
        <ele>1990.826</ele>
        <time>2018-09-14T00:28:45Z</time>
      </trkpt>
      <trkpt lat="46.29755" lon="10.49361">
        <ele>1995.154</ele>
        <time>2018-09-14T00:29:05Z</time>
      </trkpt>
      <trkpt lat="46.2979" lon="10.4935">
        <ele>1994.131</ele>
        <time>2018-09-14T00:29:25Z</time>
      </trkpt>
      <trkpt lat="46.29798" lon="10.49346">
        <ele>1996.555</ele>
        <time>2018-09-14T00:29:45Z</time>
      </trkpt>
      <trkpt lat="46.2983" lon="10.49339">
        <ele>2006.107</ele>
        <time>2018-09-14T00:30:05Z</time>
      </trkpt>
      <trkpt lat="46.2983" lon="10.49339">
        <ele>2006.217</ele>
        <time>2018-09-14T00:30:25Z</time>
      </trkpt>
      <trkpt lat="46.29833" lon="10.49339">
        <ele>2007.208</ele>
        <time>2018-09-14T00:30:45Z</time>
      </trkpt>
      <trkpt lat="46.29835" lon="10.49338">
        <ele>2008.077</ele>
        <time>2018-09-14T00:31:05Z</time>
      </trkpt>
      <trkpt lat="46.29837" lon="10.49337">
        <ele>2008.563</ele>
        <time>2018-09-14T00:31:25Z</time>
      </trkpt>
      <trkpt lat="46.2984" lon="10.49337">
        <ele>2008.96</ele>
        <time>2018-09-14T00:31:45Z</time>
      </trkpt>
      <trkpt lat="46.29842" lon="10.49338">
        <ele>2008.733</ele>
        <time>2018-09-14T00:32:05Z</time>
      </trkpt>
      <trkpt lat="46.29844" lon="10.49338">
        <ele>2008.546</ele>
        <time>2018-09-14T00:32:25Z</time>
      </trkpt>
      <trkpt lat="46.29846" lon="10.49338">
        <ele>2008.389</ele>
        <time>2018-09-14T00:32:45Z</time>
      </trkpt>
      <trkpt lat="46.29848" lon="10.49339">
        <ele>2007.877</ele>
        <time>2018-09-14T00:33:05Z</time>
      </trkpt>
      <trkpt lat="46.2985" lon="10.4934">
        <ele>2007.374</ele>
        <time>2018-09-14T00:33:25Z</time>
      </trkpt>
      <trkpt lat="46.29852" lon="10.49341">
        <ele>2006.964</ele>
        <time>2018-09-14T00:33:45Z</time>
      </trkpt>
      <trkpt lat="46.29854" lon="10.4934">
        <ele>2007.806</ele>
        <time>2018-09-14T00:34:05Z</time>
      </trkpt>
      <trkpt lat="46.29856" lon="10.49341">
        <ele>2007.516</ele>
        <time>2018-09-14T00:34:25Z</time>
      </trkpt>
      <trkpt lat="46.29858" lon="10.49341">
        <ele>2007.508</ele>
        <time>2018-09-14T00:34:45Z</time>
      </trkpt>
      <trkpt lat="46.2986" lon="10.4934">
        <ele>2008.158</ele>
        <time>2018-09-14T00:35:05Z</time>
      </trkpt>
      <trkpt lat="46.29863" lon="10.49339">
        <ele>2009.164</ele>
        <time>2018-09-14T00:35:25Z</time>
      </trkpt>
      <trkpt lat="46.29864" lon="10.49338">
        <ele>2009.251</ele>
        <time>2018-09-14T00:35:45Z</time>
      </trkpt>
      <trkpt lat="46.29866" lon="10.49338">
        <ele>2009.484</ele>
        <time>2018-09-14T00:36:05Z</time>
      </trkpt>
      <trkpt lat="46.29869" lon="10.49337">
        <ele>2010.187</ele>
        <time>2018-09-14T00:36:25Z</time>
      </trkpt>
      <trkpt lat="46.29871" lon="10.49335">
        <ele>2010.94</ele>
        <time>2018-09-14T00:36:45Z</time>
      </trkpt>
      <trkpt lat="46.29873" lon="10.49334">
        <ele>2011.458</ele>
        <time>2018-09-14T00:37:05Z</time>
      </trkpt>
      <trkpt lat="46.29875" lon="10.49334">
        <ele>2011.585</ele>
        <time>2018-09-14T00:37:25Z</time>
      </trkpt>
      <trkpt lat="46.29878" lon="10.49334">
        <ele>2011.211</ele>
        <time>2018-09-14T00:37:45Z</time>
      </trkpt>
      <trkpt lat="46.2988" lon="10.49334">
        <ele>2011.121</ele>
        <time>2018-09-14T00:38:05Z</time>
      </trkpt>
      <trkpt lat="46.29882" lon="10.49333">
        <ele>2012.003</ele>
        <time>2018-09-14T00:38:25Z</time>
      </trkpt>
      <trkpt lat="46.29883" lon="10.49333">
        <ele>2011.508</ele>
        <time>2018-09-14T00:38:45Z</time>
      </trkpt>
      <trkpt lat="46.29886" lon="10.49334">
        <ele>2010.993</ele>
        <time>2018-09-14T00:39:05Z</time>
      </trkpt>
      <trkpt lat="46.29887" lon="10.49332">
        <ele>2012.169</ele>
        <time>2018-09-14T00:39:25Z</time>
      </trkpt>
      <trkpt lat="46.29889" lon="10.49333">
        <ele>2011.386</ele>
        <time>2018-09-14T00:39:45Z</time>
      </trkpt>
      <trkpt lat="46.29891" lon="10.49333">
        <ele>2010.729</ele>
        <time>2018-09-14T00:40:05Z</time>
      </trkpt>
      <trkpt lat="46.29892" lon="10.49331">
        <ele>2011.112</ele>
        <time>2018-09-14T00:40:25Z</time>
      </trkpt>
      <trkpt lat="46.29893" lon="10.49329">
        <ele>2012.225</ele>
        <time>2018-09-14T00:40:45Z</time>
      </trkpt>
      <trkpt lat="46.29895" lon="10.49326">
        <ele>2013.223</ele>
        <time>2018-09-14T00:41:05Z</time>
      </trkpt>
      <trkpt lat="46.29896" lon="10.49325">
        <ele>2013.73</ele>
        <time>2018-09-14T00:41:25Z</time>
      </trkpt>
      <trkpt lat="46.29898" lon="10.49323">
        <ele>2014.571</ele>
        <time>2018-09-14T00:41:45Z</time>
      </trkpt>
      <trkpt lat="46.29899" lon="10.49321">
        <ele>2015.241</ele>
        <time>2018-09-14T00:42:05Z</time>
      </trkpt>
      <trkpt lat="46.29901" lon="10.49318">
        <ele>2016.515</ele>
        <time>2018-09-14T00:42:25Z</time>
      </trkpt>
      <trkpt lat="46.29902" lon="10.49316">
        <ele>2017.508</ele>
        <time>2018-09-14T00:42:45Z</time>
      </trkpt>
      <trkpt lat="46.29921" lon="10.49303">
        <ele>2022.339</ele>
        <time>2018-09-14T00:43:05Z</time>
      </trkpt>
      <trkpt lat="46.29935" lon="10.49301">
        <ele>2021.435</ele>
        <time>2018-09-14T00:43:25Z</time>
      </trkpt>
      <trkpt lat="46.2998" lon="10.49305">
        <ele>2015.362</ele>
        <time>2018-09-14T00:43:45Z</time>
      </trkpt>
      <trkpt lat="46.30015" lon="10.49272">
        <ele>2025.555</ele>
        <time>2018-09-14T00:44:05Z</time>
      </trkpt>
      <trkpt lat="46.30023" lon="10.49259">
        <ele>2030.158</ele>
        <time>2018-09-14T00:44:25Z</time>
      </trkpt>
      <trkpt lat="46.30029" lon="10.4925">
        <ele>2033.461</ele>
        <time>2018-09-14T00:44:45Z</time>
      </trkpt>
      <trkpt lat="46.30035" lon="10.49237">
        <ele>2040.369</ele>
        <time>2018-09-14T00:45:05Z</time>
      </trkpt>
      <trkpt lat="46.30043" lon="10.4922">
        <ele>2048.536</ele>
        <time>2018-09-14T00:45:25Z</time>
      </trkpt>
      <trkpt lat="46.30075" lon="10.49161">
        <ele>2068.432</ele>
        <time>2018-09-14T00:45:45Z</time>
      </trkpt>
      <trkpt lat="46.3008" lon="10.49157">
        <ele>2068.392</ele>
        <time>2018-09-14T00:46:05Z</time>
      </trkpt>
      <trkpt lat="46.3008" lon="10.49157">
        <ele>2068.311</ele>
        <time>2018-09-14T00:46:25Z</time>
      </trkpt>
      <trkpt lat="46.3008" lon="10.49157">
        <ele>2068.408</ele>
        <time>2018-09-14T00:46:45Z</time>
      </trkpt>
      <trkpt lat="46.30088" lon="10.49149">
        <ele>2067.915</ele>
        <time>2018-09-14T00:47:05Z</time>
      </trkpt>
      <trkpt lat="46.30109" lon="10.49129">
        <ele>2065.461</ele>
        <time>2018-09-14T00:47:25Z</time>
      </trkpt>
      <trkpt lat="46.30109" lon="10.49128">
        <ele>2065.678</ele>
        <time>2018-09-14T00:47:45Z</time>
      </trkpt>
      <trkpt lat="46.30119" lon="10.49103">
        <ele>2070.441</ele>
        <time>2018-09-14T00:48:05Z</time>
      </trkpt>
      <trkpt lat="46.30123" lon="10.49092">
        <ele>2072.394</ele>
        <time>2018-09-14T00:48:25Z</time>
      </trkpt>
      <trkpt lat="46.30148" lon="10.49057">
        <ele>2071.877</ele>
        <time>2018-09-14T00:48:45Z</time>
      </trkpt>
      <trkpt lat="46.30168" lon="10.49029">
        <ele>2070.565</ele>
        <time>2018-09-14T00:49:05Z</time>
      </trkpt>
      <trkpt lat="46.3019" lon="10.4899">
        <ele>2064.812</ele>
        <time>2018-09-14T00:49:25Z</time>
      </trkpt>
      <trkpt lat="46.30199" lon="10.48946">
        <ele>2062.017</ele>
        <time>2018-09-14T00:49:45Z</time>
      </trkpt>
      <trkpt lat="46.30193" lon="10.48915">
        <ele>2056.487</ele>
        <time>2018-09-14T00:50:05Z</time>
      </trkpt>
      <trkpt lat="46.30192" lon="10.48881">
        <ele>2048.815</ele>
        <time>2018-09-14T00:50:25Z</time>
      </trkpt>
      <trkpt lat="46.3019" lon="10.48841">
        <ele>2035.808</ele>
        <time>2018-09-14T00:50:45Z</time>
      </trkpt>
      <trkpt lat="46.30173" lon="10.48815">
        <ele>2042.953</ele>
        <time>2018-09-14T00:51:05Z</time>
      </trkpt>
      <trkpt lat="46.30172" lon="10.48814">
        <ele>2043.019</ele>
        <time>2018-09-14T00:51:25Z</time>
      </trkpt>
      <trkpt lat="46.30172" lon="10.48811">
        <ele>2043.366</ele>
        <time>2018-09-14T00:51:45Z</time>
      </trkpt>
      <trkpt lat="46.30171" lon="10.48808">
        <ele>2043.959</ele>
        <time>2018-09-14T00:52:05Z</time>
      </trkpt>
      <trkpt lat="46.3017" lon="10.48805">
        <ele>2044.482</ele>
        <time>2018-09-14T00:52:25Z</time>
      </trkpt>
      <trkpt lat="46.30169" lon="10.48802">
        <ele>2044.545</ele>
        <time>2018-09-14T00:52:45Z</time>
      </trkpt>
      <trkpt lat="46.30168" lon="10.48799">
        <ele>2044.863</ele>
        <time>2018-09-14T00:53:05Z</time>
      </trkpt>
      <trkpt lat="46.30167" lon="10.48796">
        <ele>2045.09</ele>
        <time>2018-09-14T00:53:25Z</time>
      </trkpt>
      <trkpt lat="46.30166" lon="10.48794">
        <ele>2045.572</ele>
        <time>2018-09-14T00:53:45Z</time>
      </trkpt>
      <trkpt lat="46.30166" lon="10.4879">
        <ele>2045.413</ele>
        <time>2018-09-14T00:54:05Z</time>
      </trkpt>
      <trkpt lat="46.30165" lon="10.48787">
        <ele>2045.614</ele>
        <time>2018-09-14T00:54:25Z</time>
      </trkpt>
      <trkpt lat="46.30163" lon="10.48785">
        <ele>2047.108</ele>
        <time>2018-09-14T00:54:45Z</time>
      </trkpt>
      <trkpt lat="46.30163" lon="10.48782">
        <ele>2047.589</ele>
        <time>2018-09-14T00:55:05Z</time>
      </trkpt>
      <trkpt lat="46.30162" lon="10.4878">
        <ele>2047.515</ele>
        <time>2018-09-14T00:55:25Z</time>
      </trkpt>
      <trkpt lat="46.30162" lon="10.48776">
        <ele>2047.692</ele>
        <time>2018-09-14T00:55:45Z</time>
      </trkpt>
      <trkpt lat="46.3016" lon="10.48776">
        <ele>2048.955</ele>
        <time>2018-09-14T00:56:05Z</time>
      </trkpt>
      <trkpt lat="46.30153" lon="10.48748">
        <ele>2052.368</ele>
        <time>2018-09-14T00:56:25Z</time>
      </trkpt>
      <trkpt lat="46.30141" lon="10.48702">
        <ele>2054.921</ele>
        <time>2018-09-14T00:56:45Z</time>
      </trkpt>
      <trkpt lat="46.3013" lon="10.48668">
        <ele>2057.649</ele>
        <time>2018-09-14T00:57:05Z</time>
      </trkpt>
      <trkpt lat="46.30109" lon="10.48626">
        <ele>2068.036</ele>
        <time>2018-09-14T00:57:25Z</time>
      </trkpt>
      <trkpt lat="46.30106" lon="10.48606">
        <ele>2068.391</ele>
        <time>2018-09-14T00:57:45Z</time>
      </trkpt>
      <trkpt lat="46.30104" lon="10.48583">
        <ele>2066.181</ele>
        <time>2018-09-14T00:58:05Z</time>
      </trkpt>
      <trkpt lat="46.30101" lon="10.48576">
        <ele>2067.419</ele>
        <time>2018-09-14T00:58:25Z</time>
      </trkpt>
      <trkpt lat="46.30098" lon="10.48566">
        <ele>2069.108</ele>
        <time>2018-09-14T00:58:45Z</time>
      </trkpt>
      <trkpt lat="46.30093" lon="10.48552">
        <ele>2071.881</ele>
        <time>2018-09-14T00:59:05Z</time>
      </trkpt>
      <trkpt lat="46.30091" lon="10.48543">
        <ele>2073.597</ele>
        <time>2018-09-14T00:59:25Z</time>
      </trkpt>
      <trkpt lat="46.30085" lon="10.48521">
        <ele>2078.434</ele>
        <time>2018-09-14T00:59:45Z</time>
      </trkpt>
      <trkpt lat="46.30082" lon="10.48507">
        <ele>2081.627</ele>
        <time>2018-09-14T01:00:05Z</time>
      </trkpt>
      <trkpt lat="46.30078" lon="10.4849">
        <ele>2084.85</ele>
        <time>2018-09-14T01:00:25Z</time>
      </trkpt>
      <trkpt lat="46.30081" lon="10.48464">
        <ele>2083.863</ele>
        <time>2018-09-14T01:00:45Z</time>
      </trkpt>
      <trkpt lat="46.30082" lon="10.48454">
        <ele>2083.321</ele>
        <time>2018-09-14T01:01:05Z</time>
      </trkpt>
      <trkpt lat="46.30085" lon="10.48417">
        <ele>2081.828</ele>
        <time>2018-09-14T01:01:25Z</time>
      </trkpt>
      <trkpt lat="46.30081" lon="10.48402">
        <ele>2082.435</ele>
        <time>2018-09-14T01:01:45Z</time>
      </trkpt>
      <trkpt lat="46.30081" lon="10.48401">
        <ele>2082.986</ele>
        <time>2018-09-14T01:02:05Z</time>
      </trkpt>
      <trkpt lat="46.30079" lon="10.48399">
        <ele>2083.714</ele>
        <time>2018-09-14T01:02:25Z</time>
      </trkpt>
      <trkpt lat="46.30077" lon="10.48396">
        <ele>2084.808</ele>
        <time>2018-09-14T01:02:45Z</time>
      </trkpt>
      <trkpt lat="46.30077" lon="10.48393">
        <ele>2084.735</ele>
        <time>2018-09-14T01:03:05Z</time>
      </trkpt>
      <trkpt lat="46.30077" lon="10.4839">
        <ele>2084.481</ele>
        <time>2018-09-14T01:03:25Z</time>
      </trkpt>
      <trkpt lat="46.30077" lon="10.48387">
        <ele>2084.298</ele>
        <time>2018-09-14T01:03:45Z</time>
      </trkpt>
      <trkpt lat="46.30077" lon="10.48385">
        <ele>2084.011</ele>
        <time>2018-09-14T01:04:05Z</time>
      </trkpt>
      <trkpt lat="46.30069" lon="10.48366">
        <ele>2088.384</ele>
        <time>2018-09-14T01:04:25Z</time>
      </trkpt>
      <trkpt lat="46.30068" lon="10.48363">
        <ele>2089.177</ele>
        <time>2018-09-14T01:04:45Z</time>
      </trkpt>
      <trkpt lat="46.30065" lon="10.4835">
        <ele>2090.765</ele>
        <time>2018-09-14T01:05:05Z</time>
      </trkpt>
      <trkpt lat="46.30065" lon="10.48347">
        <ele>2090.332</ele>
        <time>2018-09-14T01:05:25Z</time>
      </trkpt>
      <trkpt lat="46.30065" lon="10.48343">
        <ele>2090.431</ele>
        <time>2018-09-14T01:05:45Z</time>
      </trkpt>
      <trkpt lat="46.30064" lon="10.48341">
        <ele>2091.161</ele>
        <time>2018-09-14T01:06:05Z</time>
      </trkpt>
      <trkpt lat="46.30063" lon="10.48338">
        <ele>2091.907</ele>
        <time>2018-09-14T01:06:25Z</time>
      </trkpt>
      <trkpt lat="46.30061" lon="10.48329">
        <ele>2093.408</ele>
        <time>2018-09-14T01:06:45Z</time>
      </trkpt>
      <trkpt lat="46.30059" lon="10.48326">
        <ele>2094.615</ele>
        <time>2018-09-14T01:07:05Z</time>
      </trkpt>
      <trkpt lat="46.30059" lon="10.48325">
        <ele>2094.941</ele>
        <time>2018-09-14T01:07:25Z</time>
      </trkpt>
      <trkpt lat="46.30058" lon="10.48323">
        <ele>2095.828</ele>
        <time>2018-09-14T01:07:45Z</time>
      </trkpt>
      <trkpt lat="46.30057" lon="10.4832">
        <ele>2096.711</ele>
        <time>2018-09-14T01:08:05Z</time>
      </trkpt>
      <trkpt lat="46.30056" lon="10.48318">
        <ele>2097.674</ele>
        <time>2018-09-14T01:08:25Z</time>
      </trkpt>
      <trkpt lat="46.30056" lon="10.48317">
        <ele>2098.037</ele>
        <time>2018-09-14T01:08:45Z</time>
      </trkpt>
      <trkpt lat="46.30046" lon="10.4829">
        <ele>2107.445</ele>
        <time>2018-09-14T01:09:05Z</time>
      </trkpt>
      <trkpt lat="46.30044" lon="10.48287">
        <ele>2108.592</ele>
        <time>2018-09-14T01:09:25Z</time>
      </trkpt>
      <trkpt lat="46.3004" lon="10.48275">
        <ele>2111.962</ele>
        <time>2018-09-14T01:09:45Z</time>
      </trkpt>
      <trkpt lat="46.30039" lon="10.48272">
        <ele>2112.783</ele>
        <time>2018-09-14T01:10:05Z</time>
      </trkpt>
      <trkpt lat="46.30038" lon="10.48269">
        <ele>2113.811</ele>
        <time>2018-09-14T01:10:25Z</time>
      </trkpt>
      <trkpt lat="46.30038" lon="10.48267">
        <ele>2114.608</ele>
        <time>2018-09-14T01:10:45Z</time>
      </trkpt>
      <trkpt lat="46.30037" lon="10.48263">
        <ele>2115.538</ele>
        <time>2018-09-14T01:11:05Z</time>
      </trkpt>
      <trkpt lat="46.30036" lon="10.4826">
        <ele>2116.424</ele>
        <time>2018-09-14T01:11:25Z</time>
      </trkpt>
      <trkpt lat="46.30036" lon="10.48258">
        <ele>2117.151</ele>
        <time>2018-09-14T01:11:45Z</time>
      </trkpt>
      <trkpt lat="46.30035" lon="10.48254">
        <ele>2117.944</ele>
        <time>2018-09-14T01:12:05Z</time>
      </trkpt>
      <trkpt lat="46.30033" lon="10.48252">
        <ele>2118.817</ele>
        <time>2018-09-14T01:12:25Z</time>
      </trkpt>
      <trkpt lat="46.30032" lon="10.48252">
        <ele>2119.43</ele>
        <time>2018-09-14T01:12:45Z</time>
      </trkpt>
      <trkpt lat="46.30029" lon="10.48236">
        <ele>2122.278</ele>
        <time>2018-09-14T01:13:05Z</time>
      </trkpt>
      <trkpt lat="46.30029" lon="10.48236">
        <ele>2122.245</ele>
        <time>2018-09-14T01:13:25Z</time>
      </trkpt>
      <trkpt lat="46.30031" lon="10.48234">
        <ele>2121.945</ele>
        <time>2018-09-14T01:13:45Z</time>
      </trkpt>
      <trkpt lat="46.30033" lon="10.48232">
        <ele>2121.947</ele>
        <time>2018-09-14T01:14:05Z</time>
      </trkpt>
      <trkpt lat="46.30032" lon="10.48231">
        <ele>2122.311</ele>
        <time>2018-09-14T01:14:25Z</time>
      </trkpt>
      <trkpt lat="46.30023" lon="10.48209">
        <ele>2130.208</ele>
        <time>2018-09-14T01:14:45Z</time>
      </trkpt>
      <trkpt lat="46.30023" lon="10.48209">
        <ele>2130.326</ele>
        <time>2018-09-14T01:15:05Z</time>
      </trkpt>
      <trkpt lat="46.30023" lon="10.48206">
        <ele>2131.052</ele>
        <time>2018-09-14T01:15:25Z</time>
      </trkpt>
      <trkpt lat="46.30023" lon="10.48203">
        <ele>2131.719</ele>
        <time>2018-09-14T01:15:45Z</time>
      </trkpt>
      <trkpt lat="46.30023" lon="10.482">
        <ele>2132.162</ele>
        <time>2018-09-14T01:16:05Z</time>
      </trkpt>
      <trkpt lat="46.30023" lon="10.48197">
        <ele>2132.815</ele>
        <time>2018-09-14T01:16:25Z</time>
      </trkpt>
      <trkpt lat="46.30023" lon="10.48194">
        <ele>2133.468</ele>
        <time>2018-09-14T01:16:45Z</time>
      </trkpt>
      <trkpt lat="46.30023" lon="10.4819">
        <ele>2134.376</ele>
        <time>2018-09-14T01:17:05Z</time>
      </trkpt>
      <trkpt lat="46.30022" lon="10.48187">
        <ele>2135.743</ele>
        <time>2018-09-14T01:17:25Z</time>
      </trkpt>
      <trkpt lat="46.30021" lon="10.48184">
        <ele>2136.998</ele>
        <time>2018-09-14T01:17:45Z</time>
      </trkpt>
      <trkpt lat="46.30021" lon="10.4818">
        <ele>2137.415</ele>
        <time>2018-09-14T01:18:05Z</time>
      </trkpt>
      <trkpt lat="46.30023" lon="10.48181">
        <ele>2136.426</ele>
        <time>2018-09-14T01:18:25Z</time>
      </trkpt>
      <trkpt lat="46.30025" lon="10.48183">
        <ele>2134.708</ele>
        <time>2018-09-14T01:18:45Z</time>
      </trkpt>
      <trkpt lat="46.30026" lon="10.48184">
        <ele>2133.971</ele>
        <time>2018-09-14T01:19:05Z</time>
      </trkpt>
      <trkpt lat="46.30028" lon="10.48185">
        <ele>2132.987</ele>
        <time>2018-09-14T01:19:25Z</time>
      </trkpt>
      <trkpt lat="46.30037" lon="10.48178">
        <ele>2133.964</ele>
        <time>2018-09-14T01:19:45Z</time>
      </trkpt>
      <trkpt lat="46.30039" lon="10.48176">
        <ele>2134.197</ele>
        <time>2018-09-14T01:20:05Z</time>
      </trkpt>
      <trkpt lat="46.30039" lon="10.48155">
        <ele>2140.05</ele>
        <time>2018-09-14T01:20:25Z</time>
      </trkpt>
      <trkpt lat="46.30038" lon="10.48124">
        <ele>2148.353</ele>
        <time>2018-09-14T01:20:45Z</time>
      </trkpt>
      <trkpt lat="46.30033" lon="10.48105">
        <ele>2153.521</ele>
        <time>2018-09-14T01:21:05Z</time>
      </trkpt>
      <trkpt lat="46.30033" lon="10.48104">
        <ele>2153.618</ele>
        <time>2018-09-14T01:21:25Z</time>
      </trkpt>
      <trkpt lat="46.30033" lon="10.48103">
        <ele>2153.983</ele>
        <time>2018-09-14T01:21:45Z</time>
      </trkpt>
      <trkpt lat="46.30028" lon="10.48082">
        <ele>2159.325</ele>
        <time>2018-09-14T01:22:05Z</time>
      </trkpt>
      <trkpt lat="46.30028" lon="10.4808">
        <ele>2159.617</ele>
        <time>2018-09-14T01:22:25Z</time>
      </trkpt>
      <trkpt lat="46.30027" lon="10.48079">
        <ele>2160.008</ele>
        <time>2018-09-14T01:22:45Z</time>
      </trkpt>
      <trkpt lat="46.30027" lon="10.48079">
        <ele>2160.22</ele>
        <time>2018-09-14T01:23:05Z</time>
      </trkpt>
      <trkpt lat="46.30024" lon="10.48075">
        <ele>2161.566</ele>
        <time>2018-09-14T01:23:25Z</time>
      </trkpt>
      <trkpt lat="46.30024" lon="10.48074">
        <ele>2162.053</ele>
        <time>2018-09-14T01:23:45Z</time>
      </trkpt>
      <trkpt lat="46.30023" lon="10.48074">
        <ele>2162.266</ele>
        <time>2018-09-14T01:24:05Z</time>
      </trkpt>
      <trkpt lat="46.30009" lon="10.48057">
        <ele>2169.319</ele>
        <time>2018-09-14T01:24:25Z</time>
      </trkpt>
      <trkpt lat="46.30009" lon="10.48056">
        <ele>2169.582</ele>
        <time>2018-09-14T01:24:45Z</time>
      </trkpt>
      <trkpt lat="46.30008" lon="10.48055">
        <ele>2170.23</ele>
        <time>2018-09-14T01:25:05Z</time>
      </trkpt>
      <trkpt lat="46.30005" lon="10.48049">
        <ele>2172.327</ele>
        <time>2018-09-14T01:25:25Z</time>
      </trkpt>
      <trkpt lat="46.30001" lon="10.48036">
        <ele>2176.627</ele>
        <time>2018-09-14T01:25:45Z</time>
      </trkpt>
      <trkpt lat="46.29997" lon="10.48024">
        <ele>2180.568</ele>
        <time>2018-09-14T01:26:05Z</time>
      </trkpt>
      <trkpt lat="46.29996" lon="10.48022">
        <ele>2181.214</ele>
        <time>2018-09-14T01:26:25Z</time>
      </trkpt>
      <trkpt lat="46.29995" lon="10.47974">
        <ele>2195.408</ele>
        <time>2018-09-14T01:26:45Z</time>
      </trkpt>
      <trkpt lat="46.29997" lon="10.47962">
        <ele>2198.484</ele>
        <time>2018-09-14T01:27:05Z</time>
      </trkpt>
      <trkpt lat="46.29997" lon="10.47959">
        <ele>2199.42</ele>
        <time>2018-09-14T01:27:25Z</time>
      </trkpt>
      <trkpt lat="46.29996" lon="10.47956">
        <ele>2200.267</ele>
        <time>2018-09-14T01:27:45Z</time>
      </trkpt>
      <trkpt lat="46.29997" lon="10.47953">
        <ele>2201.02</ele>
        <time>2018-09-14T01:28:05Z</time>
      </trkpt>
      <trkpt lat="46.29997" lon="10.4795">
        <ele>2201.773</ele>
        <time>2018-09-14T01:28:25Z</time>
      </trkpt>
      <trkpt lat="46.29997" lon="10.47947">
        <ele>2202.676</ele>
        <time>2018-09-14T01:28:45Z</time>
      </trkpt>
      <trkpt lat="46.29997" lon="10.47944">
        <ele>2203.554</ele>
        <time>2018-09-14T01:29:05Z</time>
      </trkpt>
      <trkpt lat="46.29997" lon="10.47941">
        <ele>2204.341</ele>
        <time>2018-09-14T01:29:25Z</time>
      </trkpt>
      <trkpt lat="46.29997" lon="10.47937">
        <ele>2205.015</ele>
        <time>2018-09-14T01:29:45Z</time>
      </trkpt>
      <trkpt lat="46.29998" lon="10.47935">
        <ele>2205.465</ele>
        <time>2018-09-14T01:30:05Z</time>
      </trkpt>
      <trkpt lat="46.29997" lon="10.47932">
        <ele>2206.011</ele>
        <time>2018-09-14T01:30:25Z</time>
      </trkpt>
      <trkpt lat="46.29998" lon="10.47929">
        <ele>2206.708</ele>
        <time>2018-09-14T01:30:45Z</time>
      </trkpt>
      <trkpt lat="46.3" lon="10.47927">
        <ele>2206.893</ele>
        <time>2018-09-14T01:31:05Z</time>
      </trkpt>
      <trkpt lat="46.3" lon="10.47924">
        <ele>2207.469</ele>
        <time>2018-09-14T01:31:25Z</time>
      </trkpt>
      <trkpt lat="46.30002" lon="10.47921">
        <ele>2207.756</ele>
        <time>2018-09-14T01:31:45Z</time>
      </trkpt>
      <trkpt lat="46.30002" lon="10.47918">
        <ele>2208.459</ele>
        <time>2018-09-14T01:32:05Z</time>
      </trkpt>
      <trkpt lat="46.30002" lon="10.47914">
        <ele>2209.272</ele>
        <time>2018-09-14T01:32:25Z</time>
      </trkpt>
      <trkpt lat="46.30002" lon="10.47911">
        <ele>2209.745</ele>
        <time>2018-09-14T01:32:45Z</time>
      </trkpt>
      <trkpt lat="46.30004" lon="10.47909">
        <ele>2210.193</ele>
        <time>2018-09-14T01:33:05Z</time>
      </trkpt>
      <trkpt lat="46.30004" lon="10.47905">
        <ele>2210.93</ele>
        <time>2018-09-14T01:33:25Z</time>
      </trkpt>
      <trkpt lat="46.30004" lon="10.47902">
        <ele>2211.748</ele>
        <time>2018-09-14T01:33:45Z</time>
      </trkpt>
      <trkpt lat="46.30003" lon="10.47898">
        <ele>2212.561</ele>
        <time>2018-09-14T01:34:05Z</time>
      </trkpt>
      <trkpt lat="46.30001" lon="10.47897">
        <ele>2213.017</ele>
        <time>2018-09-14T01:34:25Z</time>
      </trkpt>
      <trkpt lat="46.30001" lon="10.47894">
        <ele>2213.708</ele>
        <time>2018-09-14T01:34:45Z</time>
      </trkpt>
      <trkpt lat="46.3" lon="10.47891">
        <ele>2214.486</ele>
        <time>2018-09-14T01:35:05Z</time>
      </trkpt>
      <trkpt lat="46.3" lon="10.47888">
        <ele>2215.232</ele>
        <time>2018-09-14T01:35:25Z</time>
      </trkpt>
      <trkpt lat="46.29999" lon="10.47884">
        <ele>2216.379</ele>
        <time>2018-09-14T01:35:45Z</time>
      </trkpt>
      <trkpt lat="46.29998" lon="10.47881">
        <ele>2217.372</ele>
        <time>2018-09-14T01:36:05Z</time>
      </trkpt>
      <trkpt lat="46.29998" lon="10.47878">
        <ele>2218.045</ele>
        <time>2018-09-14T01:36:25Z</time>
      </trkpt>
      <trkpt lat="46.29997" lon="10.47875">
        <ele>2218.848</ele>
        <time>2018-09-14T01:36:45Z</time>
      </trkpt>
      <trkpt lat="46.29995" lon="10.47873">
        <ele>2219.516</ele>
        <time>2018-09-14T01:37:05Z</time>
      </trkpt>
      <trkpt lat="46.29993" lon="10.47873">
        <ele>2219.813</ele>
        <time>2018-09-14T01:37:25Z</time>
      </trkpt>
      <trkpt lat="46.29991" lon="10.47871">
        <ele>2220.586</ele>
        <time>2018-09-14T01:37:45Z</time>
      </trkpt>
      <trkpt lat="46.29989" lon="10.4787">
        <ele>2221.06</ele>
        <time>2018-09-14T01:38:05Z</time>
      </trkpt>
      <trkpt lat="46.29989" lon="10.47866">
        <ele>2222.026</ele>
        <time>2018-09-14T01:38:25Z</time>
      </trkpt>
      <trkpt lat="46.29989" lon="10.47863">
        <ele>2222.708</ele>
        <time>2018-09-14T01:38:45Z</time>
      </trkpt>
      <trkpt lat="46.29987" lon="10.47861">
        <ele>2223.51</ele>
        <time>2018-09-14T01:39:05Z</time>
      </trkpt>
      <trkpt lat="46.29986" lon="10.47858">
        <ele>2224.226</ele>
        <time>2018-09-14T01:39:25Z</time>
      </trkpt>
      <trkpt lat="46.29984" lon="10.47856">
        <ele>2224.853</ele>
        <time>2018-09-14T01:39:45Z</time>
      </trkpt>
      <trkpt lat="46.2998" lon="10.47846">
        <ele>2227.426</ele>
        <time>2018-09-14T01:40:05Z</time>
      </trkpt>
      <trkpt lat="46.29981" lon="10.47843">
        <ele>2228.049</ele>
        <time>2018-09-14T01:40:25Z</time>
      </trkpt>
      <trkpt lat="46.29979" lon="10.47841">
        <ele>2228.732</ele>
        <time>2018-09-14T01:40:45Z</time>
      </trkpt>
      <trkpt lat="46.29979" lon="10.47837">
        <ele>2229.31</ele>
        <time>2018-09-14T01:41:05Z</time>
      </trkpt>
      <trkpt lat="46.29981" lon="10.47838">
        <ele>2229.067</ele>
        <time>2018-09-14T01:41:25Z</time>
      </trkpt>
      <trkpt lat="46.29983" lon="10.47837">
        <ele>2228.929</ele>
        <time>2018-09-14T01:41:45Z</time>
      </trkpt>
      <trkpt lat="46.29985" lon="10.47836">
        <ele>2229</ele>
        <time>2018-09-14T01:42:05Z</time>
      </trkpt>
      <trkpt lat="46.29988" lon="10.47829">
        <ele>2229.92</ele>
        <time>2018-09-14T01:42:25Z</time>
      </trkpt>
      <trkpt lat="46.29997" lon="10.47812">
        <ele>2232.208</ele>
        <time>2018-09-14T01:42:45Z</time>
      </trkpt>
      <trkpt lat="46.29997" lon="10.47811">
        <ele>2232.314</ele>
        <time>2018-09-14T01:43:05Z</time>
      </trkpt>
      <trkpt lat="46.30001" lon="10.47805">
        <ele>2233.05</ele>
        <time>2018-09-14T01:43:25Z</time>
      </trkpt>
      <trkpt lat="46.30009" lon="10.47792">
        <ele>2234.827</ele>
        <time>2018-09-14T01:43:45Z</time>
      </trkpt>
      <trkpt lat="46.30011" lon="10.47786">
        <ele>2235.97</ele>
        <time>2018-09-14T01:44:05Z</time>
      </trkpt>
      <trkpt lat="46.30017" lon="10.47767">
        <ele>2240.013</ele>
        <time>2018-09-14T01:44:25Z</time>
      </trkpt>
      <trkpt lat="46.30026" lon="10.47759">
        <ele>2241.576</ele>
        <time>2018-09-14T01:44:45Z</time>
      </trkpt>
      <trkpt lat="46.30026" lon="10.47756">
        <ele>2242.264</ele>
        <time>2018-09-14T01:45:05Z</time>
      </trkpt>
      <trkpt lat="46.30027" lon="10.47754">
        <ele>2242.991</ele>
        <time>2018-09-14T01:45:25Z</time>
      </trkpt>
      <trkpt lat="46.30029" lon="10.47751">
        <ele>2244.088</ele>
        <time>2018-09-14T01:45:45Z</time>
      </trkpt>
      <trkpt lat="46.30031" lon="10.47752">
        <ele>2244.424</ele>
        <time>2018-09-14T01:46:05Z</time>
      </trkpt>
      <trkpt lat="46.30033" lon="10.47753">
        <ele>2244.526</ele>
        <time>2018-09-14T01:46:25Z</time>
      </trkpt>
      <trkpt lat="46.30033" lon="10.47753">
        <ele>2244.608</ele>
        <time>2018-09-14T01:46:45Z</time>
      </trkpt>
      <trkpt lat="46.30034" lon="10.47753">
        <ele>2244.75</ele>
        <time>2018-09-14T01:47:05Z</time>
      </trkpt>
      <trkpt lat="46.30052" lon="10.47765">
        <ele>2246.386</ele>
        <time>2018-09-14T01:47:25Z</time>
      </trkpt>
      <trkpt lat="46.30054" lon="10.47766">
        <ele>2246.323</ele>
        <time>2018-09-14T01:47:45Z</time>
      </trkpt>
      <trkpt lat="46.30072" lon="10.47782">
        <ele>2244.786</ele>
        <time>2018-09-14T01:48:05Z</time>
      </trkpt>
      <trkpt lat="46.30081" lon="10.47774">
        <ele>2248.569</ele>
        <time>2018-09-14T01:48:25Z</time>
      </trkpt>
      <trkpt lat="46.30076" lon="10.47761">
        <ele>2250.682</ele>
        <time>2018-09-14T01:48:45Z</time>
      </trkpt>
      <trkpt lat="46.30075" lon="10.47759">
        <ele>2251.07</ele>
        <time>2018-09-14T01:49:05Z</time>
      </trkpt>
      <trkpt lat="46.30074" lon="10.47758">
        <ele>2251.357</ele>
        <time>2018-09-14T01:49:25Z</time>
      </trkpt>
      <trkpt lat="46.30071" lon="10.47751">
        <ele>2252.992</ele>
        <time>2018-09-14T01:49:45Z</time>
      </trkpt>
      <trkpt lat="46.30068" lon="10.47745">
        <ele>2253.873</ele>
        <time>2018-09-14T01:50:05Z</time>
      </trkpt>
      <trkpt lat="46.30066" lon="10.47739">
        <ele>2255.12</ele>
        <time>2018-09-14T01:50:25Z</time>
      </trkpt>
      <trkpt lat="46.30055" lon="10.47709">
        <ele>2260.808</ele>
        <time>2018-09-14T01:50:45Z</time>
      </trkpt>
      <trkpt lat="46.3005" lon="10.47677">
        <ele>2267.721</ele>
        <time>2018-09-14T01:51:05Z</time>
      </trkpt>
      <trkpt lat="46.3006" lon="10.47658">
        <ele>2272.477</ele>
        <time>2018-09-14T01:51:25Z</time>
      </trkpt>
      <trkpt lat="46.30076" lon="10.47655">
        <ele>2274.494</ele>
        <time>2018-09-14T01:51:45Z</time>
      </trkpt>
      <trkpt lat="46.30085" lon="10.47653">
        <ele>2275.897</ele>
        <time>2018-09-14T01:52:05Z</time>
      </trkpt>
      <trkpt lat="46.30102" lon="10.47662">
        <ele>2277.88</ele>
        <time>2018-09-14T01:52:25Z</time>
      </trkpt>
      <trkpt lat="46.30113" lon="10.47676">
        <ele>2276.573</ele>
        <time>2018-09-14T01:52:45Z</time>
      </trkpt>
      <trkpt lat="46.30113" lon="10.47676">
        <ele>2276.681</ele>
        <time>2018-09-14T01:53:05Z</time>
      </trkpt>
      <trkpt lat="46.30118" lon="10.47682">
        <ele>2278.178</ele>
        <time>2018-09-14T01:53:25Z</time>
      </trkpt>
      <trkpt lat="46.30118" lon="10.47683">
        <ele>2278.111</ele>
        <time>2018-09-14T01:53:45Z</time>
      </trkpt>
      <trkpt lat="46.30122" lon="10.47685">
        <ele>2279.821</ele>
        <time>2018-09-14T01:54:05Z</time>
      </trkpt>
      <trkpt lat="46.30124" lon="10.47687">
        <ele>2280.803</ele>
        <time>2018-09-14T01:54:25Z</time>
      </trkpt>
      <trkpt lat="46.30125" lon="10.4769">
        <ele>2280.508</ele>
        <time>2018-09-14T01:54:45Z</time>
      </trkpt>
      <trkpt lat="46.30126" lon="10.47692">
        <ele>2280.523</ele>
        <time>2018-09-14T01:55:05Z</time>
      </trkpt>
      <trkpt lat="46.30127" lon="10.47694">
        <ele>2280.189</ele>
        <time>2018-09-14T01:55:25Z</time>
      </trkpt>
      <trkpt lat="46.30128" lon="10.47696">
        <ele>2280.686</ele>
        <time>2018-09-14T01:55:45Z</time>
      </trkpt>
      <trkpt lat="46.3013" lon="10.47697">
        <ele>2281.159</ele>
        <time>2018-09-14T01:56:05Z</time>
      </trkpt>
      <trkpt lat="46.30132" lon="10.477">
        <ele>2281.262</ele>
        <time>2018-09-14T01:56:25Z</time>
      </trkpt>
      <trkpt lat="46.30133" lon="10.47702">
        <ele>2280.755</ele>
        <time>2018-09-14T01:56:45Z</time>
      </trkpt>
      <trkpt lat="46.30134" lon="10.47704">
        <ele>2280.583</ele>
        <time>2018-09-14T01:57:05Z</time>
      </trkpt>
      <trkpt lat="46.30136" lon="10.47706">
        <ele>2280.83</ele>
        <time>2018-09-14T01:57:25Z</time>
      </trkpt>
      <trkpt lat="46.30137" lon="10.47708">
        <ele>2280.683</ele>
        <time>2018-09-14T01:57:45Z</time>
      </trkpt>
      <trkpt lat="46.30139" lon="10.47711">
        <ele>2280.225</ele>
        <time>2018-09-14T01:58:05Z</time>
      </trkpt>
      <trkpt lat="46.30139" lon="10.47714">
        <ele>2278.917</ele>
        <time>2018-09-14T01:58:25Z</time>
      </trkpt>
      <trkpt lat="46.3014" lon="10.47718">
        <ele>2277.508</ele>
        <time>2018-09-14T01:58:45Z</time>
      </trkpt>
      <trkpt lat="46.30142" lon="10.4772">
        <ele>2277.19</ele>
        <time>2018-09-14T01:59:05Z</time>
      </trkpt>
      <trkpt lat="46.30144" lon="10.47721">
        <ele>2277.646</ele>
        <time>2018-09-14T01:59:25Z</time>
      </trkpt>
      <trkpt lat="46.30145" lon="10.47721">
        <ele>2278.623</ele>
        <time>2018-09-14T01:59:45Z</time>
      </trkpt>
      <trkpt lat="46.30147" lon="10.47718">
        <ele>2280.476</ele>
        <time>2018-09-14T02:00:05Z</time>
      </trkpt>
      <trkpt lat="46.30149" lon="10.47717">
        <ele>2281.869</ele>
        <time>2018-09-14T02:00:25Z</time>
      </trkpt>
      <trkpt lat="46.3015" lon="10.47715">
        <ele>2283.282</ele>
        <time>2018-09-14T02:00:45Z</time>
      </trkpt>
      <trkpt lat="46.30152" lon="10.47713">
        <ele>2284.52</ele>
        <time>2018-09-14T02:01:05Z</time>
      </trkpt>
      <trkpt lat="46.30154" lon="10.47714">
        <ele>2285.317</ele>
        <time>2018-09-14T02:01:25Z</time>
      </trkpt>
      <trkpt lat="46.30155" lon="10.47716">
        <ele>2284.838</ele>
        <time>2018-09-14T02:01:45Z</time>
      </trkpt>
      <trkpt lat="46.30157" lon="10.47716">
        <ele>2285.57</ele>
        <time>2018-09-14T02:02:05Z</time>
      </trkpt>
      <trkpt lat="46.3016" lon="10.47716">
        <ele>2286.917</ele>
        <time>2018-09-14T02:02:25Z</time>
      </trkpt>
      <trkpt lat="46.30162" lon="10.47716">
        <ele>2288.008</ele>
        <time>2018-09-14T02:02:45Z</time>
      </trkpt>
      <trkpt lat="46.30165" lon="10.47716">
        <ele>2288.765</ele>
        <time>2018-09-14T02:03:05Z</time>
      </trkpt>
      <trkpt lat="46.30166" lon="10.47718">
        <ele>2289.191</ele>
        <time>2018-09-14T02:03:25Z</time>
      </trkpt>
      <trkpt lat="46.30169" lon="10.47719">
        <ele>2288.918</ele>
        <time>2018-09-14T02:03:45Z</time>
      </trkpt>
      <trkpt lat="46.30171" lon="10.47719">
        <ele>2289.061</ele>
        <time>2018-09-14T02:04:05Z</time>
      </trkpt>
      <trkpt lat="46.30172" lon="10.47719">
        <ele>2289.274</ele>
        <time>2018-09-14T02:04:25Z</time>
      </trkpt>
      <trkpt lat="46.30175" lon="10.47718">
        <ele>2289.537</ele>
        <time>2018-09-14T02:04:45Z</time>
      </trkpt>
      <trkpt lat="46.30177" lon="10.47719">
        <ele>2289.395</ele>
        <time>2018-09-14T02:05:05Z</time>
      </trkpt>
      <trkpt lat="46.30179" lon="10.4772">
        <ele>2289.132</ele>
        <time>2018-09-14T02:05:25Z</time>
      </trkpt>
      <trkpt lat="46.30181" lon="10.47721">
        <ele>2288.997</ele>
        <time>2018-09-14T02:05:45Z</time>
      </trkpt>
      <trkpt lat="46.30183" lon="10.4772">
        <ele>2289.223</ele>
        <time>2018-09-14T02:06:05Z</time>
      </trkpt>
      <trkpt lat="46.30185" lon="10.4772">
        <ele>2289.225</ele>
        <time>2018-09-14T02:06:25Z</time>
      </trkpt>
      <trkpt lat="46.30187" lon="10.47721">
        <ele>2289.208</ele>
        <time>2018-09-14T02:06:45Z</time>
      </trkpt>
      <trkpt lat="46.30188" lon="10.47721">
        <ele>2289.141</ele>
        <time>2018-09-14T02:07:05Z</time>
      </trkpt>
      <trkpt lat="46.30189" lon="10.47721">
        <ele>2289.377</ele>
        <time>2018-09-14T02:07:25Z</time>
      </trkpt>
      <trkpt lat="46.302" lon="10.4772">
        <ele>2289.914</ele>
        <time>2018-09-14T02:07:45Z</time>
      </trkpt>
      <trkpt lat="46.30211" lon="10.47719">
        <ele>2290.637</ele>
        <time>2018-09-14T02:08:05Z</time>
      </trkpt>
      <trkpt lat="46.30213" lon="10.4772">
        <ele>2290.31</ele>
        <time>2018-09-14T02:08:25Z</time>
      </trkpt>
      <trkpt lat="46.30215" lon="10.47721">
        <ele>2290.123</ele>
        <time>2018-09-14T02:08:45Z</time>
      </trkpt>
      <trkpt lat="46.30217" lon="10.47721">
        <ele>2290.021</ele>
        <time>2018-09-14T02:09:05Z</time>
      </trkpt>
      <trkpt lat="46.30219" lon="10.47721">
        <ele>2290.358</ele>
        <time>2018-09-14T02:09:25Z</time>
      </trkpt>
      <trkpt lat="46.30221" lon="10.4772">
        <ele>2290.593</ele>
        <time>2018-09-14T02:09:45Z</time>
      </trkpt>
      <trkpt lat="46.30223" lon="10.47721">
        <ele>2290.465</ele>
        <time>2018-09-14T02:10:05Z</time>
      </trkpt>
      <trkpt lat="46.30225" lon="10.47721">
        <ele>2290.521</ele>
        <time>2018-09-14T02:10:25Z</time>
      </trkpt>
      <trkpt lat="46.30227" lon="10.47722">
        <ele>2290.408</ele>
        <time>2018-09-14T02:10:45Z</time>
      </trkpt>
      <trkpt lat="46.30229" lon="10.47722">
        <ele>2290.591</ele>
        <time>2018-09-14T02:11:05Z</time>
      </trkpt>
      <trkpt lat="46.30231" lon="10.47722">
        <ele>2290.697</ele>
        <time>2018-09-14T02:11:25Z</time>
      </trkpt>
      <trkpt lat="46.30234" lon="10.47722">
        <ele>2290.864</ele>
        <time>2018-09-14T02:11:45Z</time>
      </trkpt>
      <trkpt lat="46.30236" lon="10.47721">
        <ele>2291.287</ele>
        <time>2018-09-14T02:12:05Z</time>
      </trkpt>
      <trkpt lat="46.30238" lon="10.4772">
        <ele>2291.56</ele>
        <time>2018-09-14T02:12:25Z</time>
      </trkpt>
      <trkpt lat="46.3024" lon="10.4772">
        <ele>2291.823</ele>
        <time>2018-09-14T02:12:45Z</time>
      </trkpt>
      <trkpt lat="46.30242" lon="10.47719">
        <ele>2292.231</ele>
        <time>2018-09-14T02:13:05Z</time>
      </trkpt>
      <trkpt lat="46.30248" lon="10.47716">
        <ele>2293.388</ele>
        <time>2018-09-14T02:13:25Z</time>
      </trkpt>
      <trkpt lat="46.30268" lon="10.47703">
        <ele>2297.579</ele>
        <time>2018-09-14T02:13:45Z</time>
      </trkpt>
      <trkpt lat="46.3027" lon="10.47702">
        <ele>2297.805</ele>
        <time>2018-09-14T02:14:05Z</time>
      </trkpt>
      <trkpt lat="46.30271" lon="10.47701">
        <ele>2298.025</ele>
        <time>2018-09-14T02:14:25Z</time>
      </trkpt>
      <trkpt lat="46.30274" lon="10.47699">
        <ele>2298.608</ele>
        <time>2018-09-14T02:14:45Z</time>
      </trkpt>
      <trkpt lat="46.3028" lon="10.47695">
        <ele>2300.319</ele>
        <time>2018-09-14T02:15:05Z</time>
      </trkpt>
      <trkpt lat="46.30282" lon="10.47694">
        <ele>2301.075</ele>
        <time>2018-09-14T02:15:25Z</time>
      </trkpt>
      <trkpt lat="46.30284" lon="10.47693">
        <ele>2301.552</ele>
        <time>2018-09-14T02:15:45Z</time>
      </trkpt>
      <trkpt lat="46.30287" lon="10.47692">
        <ele>2302.655</ele>
        <time>2018-09-14T02:16:05Z</time>
      </trkpt>
      <trkpt lat="46.30288" lon="10.4769">
        <ele>2303.648</ele>
        <time>2018-09-14T02:16:25Z</time>
      </trkpt>
      <trkpt lat="46.30291" lon="10.47691">
        <ele>2303.911</ele>
        <time>2018-09-14T02:16:45Z</time>
      </trkpt>
      <trkpt lat="46.30293" lon="10.47691">
        <ele>2304.169</ele>
        <time>2018-09-14T02:17:05Z</time>
      </trkpt>
      <trkpt lat="46.30296" lon="10.47691">
        <ele>2304.356</ele>
        <time>2018-09-14T02:17:25Z</time>
      </trkpt>
      <trkpt lat="46.30297" lon="10.4769">
        <ele>2305.377</ele>
        <time>2018-09-14T02:17:45Z</time>
      </trkpt>
      <trkpt lat="46.30298" lon="10.47687">
        <ele>2306.361</ele>
        <time>2018-09-14T02:18:05Z</time>
      </trkpt>
      <trkpt lat="46.303" lon="10.47685">
        <ele>2307.327</ele>
        <time>2018-09-14T02:18:25Z</time>
      </trkpt>
      <trkpt lat="46.30301" lon="10.47685">
        <ele>2307.808</ele>
        <time>2018-09-14T02:18:45Z</time>
      </trkpt>
      <trkpt lat="46.30304" lon="10.47684">
        <ele>2308.429</ele>
        <time>2018-09-14T02:19:05Z</time>
      </trkpt>
      <trkpt lat="46.30306" lon="10.47683">
        <ele>2309.015</ele>
        <time>2018-09-14T02:19:25Z</time>
      </trkpt>
      <trkpt lat="46.30308" lon="10.47682">
        <ele>2309.732</ele>
        <time>2018-09-14T02:19:45Z</time>
      </trkpt>
      <trkpt lat="46.30311" lon="10.47681">
        <ele>2310.495</ele>
        <time>2018-09-14T02:20:05Z</time>
      </trkpt>
      <trkpt lat="46.30313" lon="10.4768">
        <ele>2310.978</ele>
        <time>2018-09-14T02:20:25Z</time>
      </trkpt>
      <trkpt lat="46.30315" lon="10.47679">
        <ele>2311.541</ele>
        <time>2018-09-14T02:20:45Z</time>
      </trkpt>
      <trkpt lat="46.30317" lon="10.47679">
        <ele>2311.999</ele>
        <time>2018-09-14T02:21:05Z</time>
      </trkpt>
      <trkpt lat="46.30319" lon="10.47679">
        <ele>2312.036</ele>
        <time>2018-09-14T02:21:25Z</time>
      </trkpt>
      <trkpt lat="46.30322" lon="10.47679">
        <ele>2312.399</ele>
        <time>2018-09-14T02:21:45Z</time>
      </trkpt>
      <trkpt lat="46.30324" lon="10.47678">
        <ele>2312.807</ele>
        <time>2018-09-14T02:22:05Z</time>
      </trkpt>
      <trkpt lat="46.30327" lon="10.47678">
        <ele>2313.027</ele>
        <time>2018-09-14T02:22:25Z</time>
      </trkpt>
      <trkpt lat="46.30329" lon="10.47678">
        <ele>2313.508</ele>
        <time>2018-09-14T02:22:45Z</time>
      </trkpt>
      <trkpt lat="46.30331" lon="10.47676">
        <ele>2314.221</ele>
        <time>2018-09-14T02:23:05Z</time>
      </trkpt>
      <trkpt lat="46.30333" lon="10.47676">
        <ele>2314.517</ele>
        <time>2018-09-14T02:23:25Z</time>
      </trkpt>
      <trkpt lat="46.30335" lon="10.47677">
        <ele>2314.434</ele>
        <time>2018-09-14T02:23:45Z</time>
      </trkpt>
      <trkpt lat="46.30337" lon="10.47677">
        <ele>2314.537</ele>
        <time>2018-09-14T02:24:05Z</time>
      </trkpt>
      <trkpt lat="46.30339" lon="10.47678">
        <ele>2314.03</ele>
        <time>2018-09-14T02:24:25Z</time>
      </trkpt>
      <trkpt lat="46.30342" lon="10.47678">
        <ele>2314.273</ele>
        <time>2018-09-14T02:24:45Z</time>
      </trkpt>
      <trkpt lat="46.30343" lon="10.47677">
        <ele>2314.711</ele>
        <time>2018-09-14T02:25:05Z</time>
      </trkpt>
      <trkpt lat="46.30345" lon="10.47674">
        <ele>2315.618</ele>
        <time>2018-09-14T02:25:25Z</time>
      </trkpt>
      <trkpt lat="46.30347" lon="10.47675">
        <ele>2315.665</ele>
        <time>2018-09-14T02:25:45Z</time>
      </trkpt>
      <trkpt lat="46.30349" lon="10.47674">
        <ele>2315.868</ele>
        <time>2018-09-14T02:26:05Z</time>
      </trkpt>
      <trkpt lat="46.30351" lon="10.47674">
        <ele>2316.014</ele>
        <time>2018-09-14T02:26:25Z</time>
      </trkpt>
      <trkpt lat="46.30353" lon="10.47675">
        <ele>2315.608</ele>
        <time>2018-09-14T02:26:45Z</time>
      </trkpt>
      <trkpt lat="46.30354" lon="10.47677">
        <ele>2315.168</ele>
        <time>2018-09-14T02:27:05Z</time>
      </trkpt>
      <trkpt lat="46.30356" lon="10.47677">
        <ele>2315.164</ele>
        <time>2018-09-14T02:27:25Z</time>
      </trkpt>
      <trkpt lat="46.30362" lon="10.47674">
        <ele>2316.351</ele>
        <time>2018-09-14T02:27:45Z</time>
      </trkpt>
      <trkpt lat="46.30383" lon="10.47664">
        <ele>2318.554</ele>
        <time>2018-09-14T02:28:05Z</time>
      </trkpt>
      <trkpt lat="46.30412" lon="10.47639">
        <ele>2319.497</ele>
        <time>2018-09-14T02:28:25Z</time>
      </trkpt>
      <trkpt lat="46.30424" lon="10.47619">
        <ele>2323.45</ele>
        <time>2018-09-14T02:28:45Z</time>
      </trkpt>
      <trkpt lat="46.30428" lon="10.47612">
        <ele>2325.518</ele>
        <time>2018-09-14T02:29:05Z</time>
      </trkpt>
      <trkpt lat="46.30442" lon="10.47573">
        <ele>2333.495</ele>
        <time>2018-09-14T02:29:25Z</time>
      </trkpt>
      <trkpt lat="46.30448" lon="10.47551">
        <ele>2338.226</ele>
        <time>2018-09-14T02:29:45Z</time>
      </trkpt>
      <trkpt lat="46.30449" lon="10.47525">
        <ele>2344.547</ele>
        <time>2018-09-14T02:30:05Z</time>
      </trkpt>
      <trkpt lat="46.30459" lon="10.47492">
        <ele>2351.611</ele>
        <time>2018-09-14T02:30:25Z</time>
      </trkpt>
      <trkpt lat="46.30492" lon="10.47467">
        <ele>2358.408</ele>
        <time>2018-09-14T02:30:45Z</time>
      </trkpt>
      <trkpt lat="46.305" lon="10.47451">
        <ele>2362.564</ele>
        <time>2018-09-14T02:31:05Z</time>
      </trkpt>
      <trkpt lat="46.30506" lon="10.47437">
        <ele>2364.11</ele>
        <time>2018-09-14T02:31:25Z</time>
      </trkpt>
      <trkpt lat="46.30548" lon="10.47399">
        <ele>2362.887</ele>
        <time>2018-09-14T02:31:45Z</time>
      </trkpt>
      <trkpt lat="46.30573" lon="10.4738">
        <ele>2364.32</ele>
        <time>2018-09-14T02:32:05Z</time>
      </trkpt>
      <trkpt lat="46.30593" lon="10.4738">
        <ele>2366.523</ele>
        <time>2018-09-14T02:32:25Z</time>
      </trkpt>
      <trkpt lat="46.30605" lon="10.47387">
        <ele>2368.586</ele>
        <time>2018-09-14T02:32:45Z</time>
      </trkpt>
      <trkpt lat="46.30608" lon="10.47389">
        <ele>2368.974</ele>
        <time>2018-09-14T02:33:05Z</time>
      </trkpt>
      <trkpt lat="46.30627" lon="10.4739">
        <ele>2372.691</ele>
        <time>2018-09-14T02:33:25Z</time>
      </trkpt>
      <trkpt lat="46.30628" lon="10.47389">
        <ele>2373.048</ele>
        <time>2018-09-14T02:33:45Z</time>
      </trkpt>
      <trkpt lat="46.3063" lon="10.47388">
        <ele>2373.561</ele>
        <time>2018-09-14T02:34:05Z</time>
      </trkpt>
      <trkpt lat="46.30632" lon="10.47387">
        <ele>2374.317</ele>
        <time>2018-09-14T02:34:25Z</time>
      </trkpt>
      <trkpt lat="46.30634" lon="10.47387">
        <ele>2374.608</ele>
        <time>2018-09-14T02:34:45Z</time>
      </trkpt>
      <trkpt lat="46.30637" lon="10.47386">
        <ele>2375.356</ele>
        <time>2018-09-14T02:35:05Z</time>
      </trkpt>
      <trkpt lat="46.30639" lon="10.47385">
        <ele>2375.822</ele>
        <time>2018-09-14T02:35:25Z</time>
      </trkpt>
      <trkpt lat="46.30641" lon="10.47384">
        <ele>2376.099</ele>
        <time>2018-09-14T02:35:45Z</time>
      </trkpt>
      <trkpt lat="46.30644" lon="10.47383">
        <ele>2376.142</ele>
        <time>2018-09-14T02:36:05Z</time>
      </trkpt>
      <trkpt lat="46.30646" lon="10.47383">
        <ele>2376.015</ele>
        <time>2018-09-14T02:36:25Z</time>
      </trkpt>
      <trkpt lat="46.30648" lon="10.47382">
        <ele>2376.078</ele>
        <time>2018-09-14T02:36:45Z</time>
      </trkpt>
      <trkpt lat="46.3065" lon="10.47382">
        <ele>2375.886</ele>
        <time>2018-09-14T02:37:05Z</time>
      </trkpt>
      <trkpt lat="46.30652" lon="10.47383">
        <ele>2375.483</ele>
        <time>2018-09-14T02:37:25Z</time>
      </trkpt>
      <trkpt lat="46.30654" lon="10.47385">
        <ele>2374.849</ele>
        <time>2018-09-14T02:37:45Z</time>
      </trkpt>
      <trkpt lat="46.30656" lon="10.47386">
        <ele>2374.102</ele>
        <time>2018-09-14T02:38:05Z</time>
      </trkpt>
      <trkpt lat="46.30658" lon="10.47388">
        <ele>2373.222</ele>
        <time>2018-09-14T02:38:25Z</time>
      </trkpt>
      <trkpt lat="46.3066" lon="10.47389">
        <ele>2372.408</ele>
        <time>2018-09-14T02:38:45Z</time>
      </trkpt>
      <trkpt lat="46.30662" lon="10.4739">
        <ele>2371.896</ele>
        <time>2018-09-14T02:39:05Z</time>
      </trkpt>
      <trkpt lat="46.30664" lon="10.4739">
        <ele>2371.482</ele>
        <time>2018-09-14T02:39:25Z</time>
      </trkpt>
      <trkpt lat="46.30667" lon="10.4739">
        <ele>2371.139</ele>
        <time>2018-09-14T02:39:45Z</time>
      </trkpt>
      <trkpt lat="46.30669" lon="10.4739">
        <ele>2371.182</ele>
        <time>2018-09-14T02:40:05Z</time>
      </trkpt>
      <trkpt lat="46.30671" lon="10.47389">
        <ele>2371.435</ele>
        <time>2018-09-14T02:40:25Z</time>
      </trkpt>
      <trkpt lat="46.30673" lon="10.47389">
        <ele>2371.068</ele>
        <time>2018-09-14T02:40:45Z</time>
      </trkpt>
      <trkpt lat="46.30675" lon="10.47389">
        <ele>2370.516</ele>
        <time>2018-09-14T02:41:05Z</time>
      </trkpt>
      <trkpt lat="46.30678" lon="10.47387">
        <ele>2370.823</ele>
        <time>2018-09-14T02:41:25Z</time>
      </trkpt>
      <trkpt lat="46.30679" lon="10.47385">
        <ele>2371.425</ele>
        <time>2018-09-14T02:41:45Z</time>
      </trkpt>
      <trkpt lat="46.30681" lon="10.47383">
        <ele>2372.226</ele>
        <time>2018-09-14T02:42:05Z</time>
      </trkpt>
      <trkpt lat="46.30683" lon="10.47383">
        <ele>2372.108</ele>
        <time>2018-09-14T02:42:25Z</time>
      </trkpt>
      <trkpt lat="46.30685" lon="10.47382">
        <ele>2372.108</ele>
        <time>2018-09-14T02:42:45Z</time>
      </trkpt>
      <trkpt lat="46.30687" lon="10.47382">
        <ele>2371.994</ele>
        <time>2018-09-14T02:43:05Z</time>
      </trkpt>
      <trkpt lat="46.30689" lon="10.47382">
        <ele>2371.66</ele>
        <time>2018-09-14T02:43:25Z</time>
      </trkpt>
      <trkpt lat="46.30691" lon="10.47382">
        <ele>2371.227</ele>
        <time>2018-09-14T02:43:45Z</time>
      </trkpt>
      <trkpt lat="46.30693" lon="10.47382">
        <ele>2370.92</ele>
        <time>2018-09-14T02:44:05Z</time>
      </trkpt>
      <trkpt lat="46.30695" lon="10.47382">
        <ele>2370.873</ele>
        <time>2018-09-14T02:44:25Z</time>
      </trkpt>
      <trkpt lat="46.30698" lon="10.4738">
        <ele>2370.676</ele>
        <time>2018-09-14T02:44:45Z</time>
      </trkpt>
      <trkpt lat="46.30704" lon="10.47378">
        <ele>2370.374</ele>
        <time>2018-09-14T02:45:05Z</time>
      </trkpt>
      <trkpt lat="46.30711" lon="10.47377">
        <ele>2368.481</ele>
        <time>2018-09-14T02:45:25Z</time>
      </trkpt>
      <trkpt lat="46.30723" lon="10.47376">
        <ele>2365.528</ele>
        <time>2018-09-14T02:45:45Z</time>
      </trkpt>
      <trkpt lat="46.30733" lon="10.47376">
        <ele>2361.289</ele>
        <time>2018-09-14T02:46:05Z</time>
      </trkpt>
      <trkpt lat="46.30751" lon="10.47365">
        <ele>2357.317</ele>
        <time>2018-09-14T02:46:25Z</time>
      </trkpt>
      <trkpt lat="46.30768" lon="10.47357">
        <ele>2355.708</ele>
        <time>2018-09-14T02:46:45Z</time>
      </trkpt>
      <trkpt lat="46.30776" lon="10.47357">
        <ele>2353.674</ele>
        <time>2018-09-14T02:47:05Z</time>
      </trkpt>
      <trkpt lat="46.3078" lon="10.47357">
        <ele>2351.64</ele>
        <time>2018-09-14T02:47:25Z</time>
      </trkpt>
      <trkpt lat="46.3079" lon="10.47357">
        <ele>2346.277</ele>
        <time>2018-09-14T02:47:45Z</time>
      </trkpt>
      <trkpt lat="46.30799" lon="10.47361">
        <ele>2339.77</ele>
        <time>2018-09-14T02:48:05Z</time>
      </trkpt>
      <trkpt lat="46.30819" lon="10.47375">
        <ele>2329.883</ele>
        <time>2018-09-14T02:48:25Z</time>
      </trkpt>
      <trkpt lat="46.3084" lon="10.47378">
        <ele>2325.276</ele>
        <time>2018-09-14T02:48:45Z</time>
      </trkpt>
      <trkpt lat="46.30856" lon="10.4737">
        <ele>2323.584</ele>
        <time>2018-09-14T02:49:05Z</time>
      </trkpt>
      <trkpt lat="46.30877" lon="10.47346">
        <ele>2315.921</ele>
        <time>2018-09-14T02:49:25Z</time>
      </trkpt>
      <trkpt lat="46.30892" lon="10.4733">
        <ele>2313.749</ele>
        <time>2018-09-14T02:49:45Z</time>
      </trkpt>
      <trkpt lat="46.30893" lon="10.4733">
        <ele>2313.802</ele>
        <time>2018-09-14T02:50:05Z</time>
      </trkpt>
      <trkpt lat="46.30894" lon="10.4733">
        <ele>2313.922</ele>
        <time>2018-09-14T02:50:25Z</time>
      </trkpt>
      <trkpt lat="46.30918" lon="10.47347">
        <ele>2312.108</ele>
        <time>2018-09-14T02:50:45Z</time>
      </trkpt>
      <trkpt lat="46.30932" lon="10.47372">
        <ele>2308.046</ele>
        <time>2018-09-14T02:51:05Z</time>
      </trkpt>
      <trkpt lat="46.30957" lon="10.47393">
        <ele>2305.322</ele>
        <time>2018-09-14T02:51:25Z</time>
      </trkpt>
      <trkpt lat="46.30976" lon="10.47391">
        <ele>2305.719</ele>
        <time>2018-09-14T02:51:45Z</time>
      </trkpt>
      <trkpt lat="46.30998" lon="10.4738">
        <ele>2307.392</ele>
        <time>2018-09-14T02:52:05Z</time>
      </trkpt>
      <trkpt lat="46.31006" lon="10.47375">
        <ele>2307.085</ele>
        <time>2018-09-14T02:52:25Z</time>
      </trkpt>
      <trkpt lat="46.31007" lon="10.47375">
        <ele>2307.068</ele>
        <time>2018-09-14T02:52:45Z</time>
      </trkpt>
      <trkpt lat="46.31016" lon="10.47355">
        <ele>2308.556</ele>
        <time>2018-09-14T02:53:05Z</time>
      </trkpt>
      <trkpt lat="46.31018" lon="10.47352">
        <ele>2308.763</ele>
        <time>2018-09-14T02:53:25Z</time>
      </trkpt>
      <trkpt lat="46.3103" lon="10.47327">
        <ele>2310.334</ele>
        <time>2018-09-14T02:53:45Z</time>
      </trkpt>
      <trkpt lat="46.31036" lon="10.47326">
        <ele>2308.855</ele>
        <time>2018-09-14T02:54:05Z</time>
      </trkpt>
      <trkpt lat="46.31054" lon="10.47321">
        <ele>2304.11</ele>
        <time>2018-09-14T02:54:25Z</time>
      </trkpt>
      <trkpt lat="46.31055" lon="10.4732">
        <ele>2304.008</ele>
        <time>2018-09-14T02:54:45Z</time>
      </trkpt>
      <trkpt lat="46.31057" lon="10.47318">
        <ele>2304.195</ele>
        <time>2018-09-14T02:55:05Z</time>
      </trkpt>
      <trkpt lat="46.31058" lon="10.47316">
        <ele>2304.311</ele>
        <time>2018-09-14T02:55:25Z</time>
      </trkpt>
      <trkpt lat="46.3106" lon="10.47313">
        <ele>2304.478</ele>
        <time>2018-09-14T02:55:45Z</time>
      </trkpt>
      <trkpt lat="46.31061" lon="10.47311">
        <ele>2304.651</ele>
        <time>2018-09-14T02:56:05Z</time>
      </trkpt>
      <trkpt lat="46.31063" lon="10.47309">
        <ele>2304.624</ele>
        <time>2018-09-14T02:56:25Z</time>
      </trkpt>
      <trkpt lat="46.31065" lon="10.47307">
        <ele>2304.837</ele>
        <time>2018-09-14T02:56:45Z</time>
      </trkpt>
      <trkpt lat="46.31066" lon="10.47305">
        <ele>2304.915</ele>
        <time>2018-09-14T02:57:05Z</time>
      </trkpt>
      <trkpt lat="46.31066" lon="10.47302">
        <ele>2305.382</ele>
        <time>2018-09-14T02:57:25Z</time>
      </trkpt>
      <trkpt lat="46.31067" lon="10.47299">
        <ele>2305.462</ele>
        <time>2018-09-14T02:57:45Z</time>
      </trkpt>
      <trkpt lat="46.31068" lon="10.47297">
        <ele>2305.683</ele>
        <time>2018-09-14T02:58:05Z</time>
      </trkpt>
      <trkpt lat="46.3107" lon="10.47294">
        <ele>2305.711</ele>
        <time>2018-09-14T02:58:25Z</time>
      </trkpt>
      <trkpt lat="46.31072" lon="10.47292">
        <ele>2305.608</ele>
        <time>2018-09-14T02:58:45Z</time>
      </trkpt>
      <trkpt lat="46.31074" lon="10.47291">
        <ele>2305.378</ele>
        <time>2018-09-14T02:59:05Z</time>
      </trkpt>
      <trkpt lat="46.31077" lon="10.47292">
        <ele>2304.924</ele>
        <time>2018-09-14T02:59:25Z</time>
      </trkpt>
      <trkpt lat="46.31078" lon="10.47292">
        <ele>2304.731</ele>
        <time>2018-09-14T02:59:45Z</time>
      </trkpt>
      <trkpt lat="46.31081" lon="10.47293">
        <ele>2304.264</ele>
        <time>2018-09-14T03:00:05Z</time>
      </trkpt>
      <trkpt lat="46.31082" lon="10.47295">
        <ele>2303.977</ele>
        <time>2018-09-14T03:00:25Z</time>
      </trkpt>
      <trkpt lat="46.31083" lon="10.47297">
        <ele>2303.62</ele>
        <time>2018-09-14T03:00:45Z</time>
      </trkpt>
      <trkpt lat="46.31085" lon="10.473">
        <ele>2303.178</ele>
        <time>2018-09-14T03:01:05Z</time>
      </trkpt>
      <trkpt lat="46.31087" lon="10.47303">
        <ele>2302.785</ele>
        <time>2018-09-14T03:01:25Z</time>
      </trkpt>
      <trkpt lat="46.31088" lon="10.47306">
        <ele>2302.371</ele>
        <time>2018-09-14T03:01:45Z</time>
      </trkpt>
      <trkpt lat="46.31089" lon="10.47308">
        <ele>2301.941</ele>
        <time>2018-09-14T03:02:05Z</time>
      </trkpt>
      <trkpt lat="46.31091" lon="10.4731">
        <ele>2301.315</ele>
        <time>2018-09-14T03:02:25Z</time>
      </trkpt>
      <trkpt lat="46.31093" lon="10.47312">
        <ele>2300.808</ele>
        <time>2018-09-14T03:02:45Z</time>
      </trkpt>
      <trkpt lat="46.31094" lon="10.47314">
        <ele>2300.319</ele>
        <time>2018-09-14T03:03:05Z</time>
      </trkpt>
      <trkpt lat="46.31095" lon="10.47316">
        <ele>2299.835</ele>
        <time>2018-09-14T03:03:25Z</time>
      </trkpt>
      <trkpt lat="46.31096" lon="10.47319">
        <ele>2299.352</ele>
        <time>2018-09-14T03:03:45Z</time>
      </trkpt>
      <trkpt lat="46.31098" lon="10.47321">
        <ele>2298.645</ele>
        <time>2018-09-14T03:04:05Z</time>
      </trkpt>
      <trkpt lat="46.31099" lon="10.47323">
        <ele>2298.148</ele>
        <time>2018-09-14T03:04:25Z</time>
      </trkpt>
      <trkpt lat="46.31099" lon="10.47324">
        <ele>2298.141</ele>
        <time>2018-09-14T03:04:45Z</time>
      </trkpt>
      <trkpt lat="46.31102" lon="10.47331">
        <ele>2296.369</ele>
        <time>2018-09-14T03:05:05Z</time>
      </trkpt>
      <trkpt lat="46.31111" lon="10.47344">
        <ele>2291.836</ele>
        <time>2018-09-14T03:05:25Z</time>
      </trkpt>
      <trkpt lat="46.31114" lon="10.47346">
        <ele>2290.552</ele>
        <time>2018-09-14T03:05:45Z</time>
      </trkpt>
      <trkpt lat="46.3113" lon="10.47363">
        <ele>2283.653</ele>
        <time>2018-09-14T03:06:05Z</time>
      </trkpt>
      <trkpt lat="46.31133" lon="10.47363">
        <ele>2283.108</ele>
        <time>2018-09-14T03:06:25Z</time>
      </trkpt>
      <trkpt lat="46.3115" lon="10.47363">
        <ele>2281.408</ele>
        <time>2018-09-14T03:06:45Z</time>
      </trkpt>
      <trkpt lat="46.31162" lon="10.47363">
        <ele>2281.057</ele>
        <time>2018-09-14T03:07:05Z</time>
      </trkpt>
      <trkpt lat="46.31175" lon="10.47354">
        <ele>2280.473</ele>
        <time>2018-09-14T03:07:25Z</time>
      </trkpt>
      <trkpt lat="46.31183" lon="10.47337">
        <ele>2280.57</ele>
        <time>2018-09-14T03:07:45Z</time>
      </trkpt>
      <trkpt lat="46.31191" lon="10.47323">
        <ele>2280.633</ele>
        <time>2018-09-14T03:08:05Z</time>
      </trkpt>
      <trkpt lat="46.31192" lon="10.47323">
        <ele>2280.666</ele>
        <time>2018-09-14T03:08:25Z</time>
      </trkpt>
      <trkpt lat="46.31194" lon="10.47321">
        <ele>2280.559</ele>
        <time>2018-09-14T03:08:45Z</time>
      </trkpt>
      <trkpt lat="46.31195" lon="10.4732">
        <ele>2280.147</ele>
        <time>2018-09-14T03:09:05Z</time>
      </trkpt>
      <trkpt lat="46.31197" lon="10.47317">
        <ele>2279.544</ele>
        <time>2018-09-14T03:09:25Z</time>
      </trkpt>
      <trkpt lat="46.31199" lon="10.47316">
        <ele>2279.015</ele>
        <time>2018-09-14T03:09:45Z</time>
      </trkpt>
      <trkpt lat="46.312" lon="10.47314">
        <ele>2278.665</ele>
        <time>2018-09-14T03:10:05Z</time>
      </trkpt>
      <trkpt lat="46.31202" lon="10.47312">
        <ele>2278.111</ele>
        <time>2018-09-14T03:10:25Z</time>
      </trkpt>
      <trkpt lat="46.31207" lon="10.47312">
        <ele>2275.908</ele>
        <time>2018-09-14T03:10:45Z</time>
      </trkpt>
      <trkpt lat="46.31211" lon="10.47313">
        <ele>2274.793</ele>
        <time>2018-09-14T03:11:05Z</time>
      </trkpt>
      <trkpt lat="46.31228" lon="10.47329">
        <ele>2268.149</ele>
        <time>2018-09-14T03:11:25Z</time>
      </trkpt>
      <trkpt lat="46.31228" lon="10.47335">
        <ele>2267.666</ele>
        <time>2018-09-14T03:11:45Z</time>
      </trkpt>
      <trkpt lat="46.31228" lon="10.47352">
        <ele>2265.849</ele>
        <time>2018-09-14T03:12:05Z</time>
      </trkpt>
      <trkpt lat="46.31227" lon="10.47384">
        <ele>2262.472</ele>
        <time>2018-09-14T03:12:25Z</time>
      </trkpt>
      <trkpt lat="46.31227" lon="10.47389">
        <ele>2261.955</ele>
        <time>2018-09-14T03:12:45Z</time>
      </trkpt>
      <trkpt lat="46.31228" lon="10.4739">
        <ele>2261.753</ele>
        <time>2018-09-14T03:13:05Z</time>
      </trkpt>
      <trkpt lat="46.31235" lon="10.4742">
        <ele>2256.98</ele>
        <time>2018-09-14T03:13:25Z</time>
      </trkpt>
      <trkpt lat="46.3124" lon="10.47434">
        <ele>2253.843</ele>
        <time>2018-09-14T03:13:45Z</time>
      </trkpt>
      <trkpt lat="46.31244" lon="10.47457">
        <ele>2249.564</ele>
        <time>2018-09-14T03:14:05Z</time>
      </trkpt>
      <trkpt lat="46.31234" lon="10.47485">
        <ele>2248.01</ele>
        <time>2018-09-14T03:14:25Z</time>
      </trkpt>
      <trkpt lat="46.31222" lon="10.47498">
        <ele>2251.208</ele>
        <time>2018-09-14T03:14:45Z</time>
      </trkpt>
      <trkpt lat="46.31218" lon="10.47518">
        <ele>2245.536</ele>
        <time>2018-09-14T03:15:05Z</time>
      </trkpt>
      <trkpt lat="46.31212" lon="10.47532">
        <ele>2241.982</ele>
        <time>2018-09-14T03:15:25Z</time>
      </trkpt>
      <trkpt lat="46.31187" lon="10.47537">
        <ele>2242.879</ele>
        <time>2018-09-14T03:15:45Z</time>
      </trkpt>
      <trkpt lat="46.31176" lon="10.47545">
        <ele>2238.192</ele>
        <time>2018-09-14T03:16:05Z</time>
      </trkpt>
      <trkpt lat="46.31176" lon="10.47546">
        <ele>2237.975</ele>
        <time>2018-09-14T03:16:25Z</time>
      </trkpt>
      <trkpt lat="46.31165" lon="10.47553">
        <ele>2233.938</ele>
        <time>2018-09-14T03:16:45Z</time>
      </trkpt>
      <trkpt lat="46.31151" lon="10.47559">
        <ele>2229.946</ele>
        <time>2018-09-14T03:17:05Z</time>
      </trkpt>
      <trkpt lat="46.31137" lon="10.4757">
        <ele>2224.113</ele>
        <time>2018-09-14T03:17:25Z</time>
      </trkpt>
      <trkpt lat="46.31126" lon="10.47578">
        <ele>2219.827</ele>
        <time>2018-09-14T03:17:45Z</time>
      </trkpt>
      <trkpt lat="46.31119" lon="10.47583">
        <ele>2216.868</ele>
        <time>2018-09-14T03:18:05Z</time>
      </trkpt>
      <trkpt lat="46.31112" lon="10.47589">
        <ele>2213.914</ele>
        <time>2018-09-14T03:18:25Z</time>
      </trkpt>
      <trkpt lat="46.31096" lon="10.47603">
        <ele>2207.208</ele>
        <time>2018-09-14T03:18:45Z</time>
      </trkpt>
      <trkpt lat="46.31081" lon="10.47608">
        <ele>2203.784</ele>
        <time>2018-09-14T03:19:05Z</time>
      </trkpt>
      <trkpt lat="46.31069" lon="10.47615">
        <ele>2199.24</ele>
        <time>2018-09-14T03:19:25Z</time>
      </trkpt>
      <trkpt lat="46.31068" lon="10.47616">
        <ele>2198.537</ele>
        <time>2018-09-14T03:19:45Z</time>
      </trkpt>
      <trkpt lat="46.31059" lon="10.47632">
        <ele>2189.46</ele>
        <time>2018-09-14T03:20:05Z</time>
      </trkpt>
      <trkpt lat="46.31042" lon="10.47654">
        <ele>2173.993</ele>
        <time>2018-09-14T03:20:25Z</time>
      </trkpt>
      <trkpt lat="46.31034" lon="10.47665">
        <ele>2166.896</ele>
        <time>2018-09-14T03:20:45Z</time>
      </trkpt>
      <trkpt lat="46.31025" lon="10.4767">
        <ele>2163.644</ele>
        <time>2018-09-14T03:21:05Z</time>
      </trkpt>
      <trkpt lat="46.31015" lon="10.4767">
        <ele>2165.531</ele>
        <time>2018-09-14T03:21:25Z</time>
      </trkpt>
      <trkpt lat="46.30996" lon="10.47669">
        <ele>2170.265</ele>
        <time>2018-09-14T03:21:45Z</time>
      </trkpt>
      <trkpt lat="46.30993" lon="10.47682">
        <ele>2165.268</ele>
        <time>2018-09-14T03:22:05Z</time>
      </trkpt>
      <trkpt lat="46.3099" lon="10.47694">
        <ele>2160.514</ele>
        <time>2018-09-14T03:22:25Z</time>
      </trkpt>
      <trkpt lat="46.30987" lon="10.4771">
        <ele>2155.108</ele>
        <time>2018-09-14T03:22:45Z</time>
      </trkpt>
      <trkpt lat="46.30984" lon="10.47728">
        <ele>2149.238</ele>
        <time>2018-09-14T03:23:05Z</time>
      </trkpt>
      <trkpt lat="46.3098" lon="10.47737">
        <ele>2147.544</ele>
        <time>2018-09-14T03:23:25Z</time>
      </trkpt>
      <trkpt lat="46.30975" lon="10.47742">
        <ele>2147.161</ele>
        <time>2018-09-14T03:23:45Z</time>
      </trkpt>
      <trkpt lat="46.30975" lon="10.47761">
        <ele>2141.144</ele>
        <time>2018-09-14T03:24:05Z</time>
      </trkpt>
      <trkpt lat="46.30975" lon="10.47766">
        <ele>2139.977</ele>
        <time>2018-09-14T03:24:25Z</time>
      </trkpt>
      <trkpt lat="46.30975" lon="10.47778">
        <ele>2136.36</ele>
        <time>2018-09-14T03:24:45Z</time>
      </trkpt>
      <trkpt lat="46.30985" lon="10.47801">
        <ele>2128.448</ele>
        <time>2018-09-14T03:25:05Z</time>
      </trkpt>
      <trkpt lat="46.30986" lon="10.47818">
        <ele>2122.725</ele>
        <time>2018-09-14T03:25:25Z</time>
      </trkpt>
      <trkpt lat="46.30984" lon="10.47829">
        <ele>2119.444</ele>
        <time>2018-09-14T03:25:45Z</time>
      </trkpt>
      <trkpt lat="46.30984" lon="10.47829">
        <ele>2119.305</ele>
        <time>2018-09-14T03:26:05Z</time>
      </trkpt>
      <trkpt lat="46.30966" lon="10.47845">
        <ele>2116.015</ele>
        <time>2018-09-14T03:26:25Z</time>
      </trkpt>
      <trkpt lat="46.30964" lon="10.47868">
        <ele>2108.108</ele>
        <time>2018-09-14T03:26:45Z</time>
      </trkpt>
      <trkpt lat="46.3096" lon="10.4789">
        <ele>2100.576</ele>
        <time>2018-09-14T03:27:05Z</time>
      </trkpt>
      <trkpt lat="46.30954" lon="10.47907">
        <ele>2096.392</ele>
        <time>2018-09-14T03:27:25Z</time>
      </trkpt>
      <trkpt lat="46.30957" lon="10.47918">
        <ele>2093.089</ele>
        <time>2018-09-14T03:27:45Z</time>
      </trkpt>
      <trkpt lat="46.30955" lon="10.47928">
        <ele>2090.632</ele>
        <time>2018-09-14T03:28:05Z</time>
      </trkpt>
      <trkpt lat="46.30954" lon="10.47931">
        <ele>2089.635</ele>
        <time>2018-09-14T03:28:25Z</time>
      </trkpt>
      <trkpt lat="46.30952" lon="10.47934">
        <ele>2088.848</ele>
        <time>2018-09-14T03:28:45Z</time>
      </trkpt>
      <trkpt lat="46.3094" lon="10.47949">
        <ele>2085.186</ele>
        <time>2018-09-14T03:29:05Z</time>
      </trkpt>
      <trkpt lat="46.30928" lon="10.4796">
        <ele>2082.813</ele>
        <time>2018-09-14T03:29:25Z</time>
      </trkpt>
      <trkpt lat="46.30916" lon="10.47968">
        <ele>2081.149</ele>
        <time>2018-09-14T03:29:45Z</time>
      </trkpt>
      <trkpt lat="46.30906" lon="10.4797">
        <ele>2080.902</ele>
        <time>2018-09-14T03:30:05Z</time>
      </trkpt>
      <trkpt lat="46.30895" lon="10.47981">
        <ele>2078.222</ele>
        <time>2018-09-14T03:30:25Z</time>
      </trkpt>
      <trkpt lat="46.30895" lon="10.47984">
        <ele>2077.408</ele>
        <time>2018-09-14T03:30:45Z</time>
      </trkpt>
      <trkpt lat="46.3089" lon="10.47982">
        <ele>2078.266</ele>
        <time>2018-09-14T03:31:05Z</time>
      </trkpt>
      <trkpt lat="46.30888" lon="10.47987">
        <ele>2076.772</ele>
        <time>2018-09-14T03:31:25Z</time>
      </trkpt>
      <trkpt lat="46.30889" lon="10.4799">
        <ele>2075.929</ele>
        <time>2018-09-14T03:31:45Z</time>
      </trkpt>
      <trkpt lat="46.3089" lon="10.47992">
        <ele>2075.282</ele>
        <time>2018-09-14T03:32:05Z</time>
      </trkpt>
      <trkpt lat="46.3089" lon="10.47995">
        <ele>2074.335</ele>
        <time>2018-09-14T03:32:25Z</time>
      </trkpt>
      <trkpt lat="46.3089" lon="10.47998">
        <ele>2073.438</ele>
        <time>2018-09-14T03:32:45Z</time>
      </trkpt>
      <trkpt lat="46.3089" lon="10.47999">
        <ele>2073.326</ele>
        <time>2018-09-14T03:33:05Z</time>
      </trkpt>
      <trkpt lat="46.30889" lon="10.48001">
        <ele>2072.553</ele>
        <time>2018-09-14T03:33:25Z</time>
      </trkpt>
      <trkpt lat="46.3089" lon="10.48004">
        <ele>2071.645</ele>
        <time>2018-09-14T03:33:45Z</time>
      </trkpt>
      <trkpt lat="46.30892" lon="10.48006">
        <ele>2070.747</ele>
        <time>2018-09-14T03:34:05Z</time>
      </trkpt>
      <trkpt lat="46.30894" lon="10.48008">
        <ele>2069.811</ele>
        <time>2018-09-14T03:34:25Z</time>
      </trkpt>
      <trkpt lat="46.30896" lon="10.48011">
        <ele>2068.908</ele>
        <time>2018-09-14T03:34:45Z</time>
      </trkpt>
      <trkpt lat="46.30897" lon="10.48014">
        <ele>2068.056</ele>
        <time>2018-09-14T03:35:05Z</time>
      </trkpt>
      <trkpt lat="46.30898" lon="10.48017">
        <ele>2066.932</ele>
        <time>2018-09-14T03:35:25Z</time>
      </trkpt>
      <trkpt lat="46.309" lon="10.48019">
        <ele>2066.199</ele>
        <time>2018-09-14T03:35:45Z</time>
      </trkpt>
      <trkpt lat="46.30902" lon="10.48022">
        <ele>2065.372</ele>
        <time>2018-09-14T03:36:05Z</time>
      </trkpt>
      <trkpt lat="46.30904" lon="10.48024">
        <ele>2064.645</ele>
        <time>2018-09-14T03:36:25Z</time>
      </trkpt>
      <trkpt lat="46.30905" lon="10.48027">
        <ele>2063.948</ele>
        <time>2018-09-14T03:36:45Z</time>
      </trkpt>
      <trkpt lat="46.30906" lon="10.48029">
        <ele>2063.116</ele>
        <time>2018-09-14T03:37:05Z</time>
      </trkpt>
      <trkpt lat="46.30906" lon="10.4803">
        <ele>2062.943</ele>
        <time>2018-09-14T03:37:25Z</time>
      </trkpt>
      <trkpt lat="46.30915" lon="10.48054">
        <ele>2055.591</ele>
        <time>2018-09-14T03:37:45Z</time>
      </trkpt>
      <trkpt lat="46.30917" lon="10.48058">
        <ele>2054.481</ele>
        <time>2018-09-14T03:38:05Z</time>
      </trkpt>
      <trkpt lat="46.30913" lon="10.48056">
        <ele>2054.519</ele>
        <time>2018-09-14T03:38:25Z</time>
      </trkpt>
      <trkpt lat="46.30899" lon="10.48052">
        <ele>2055.108</ele>
        <time>2018-09-14T03:38:45Z</time>
      </trkpt>
      <trkpt lat="46.30882" lon="10.48057">
        <ele>2051.131</ele>
        <time>2018-09-14T03:39:05Z</time>
      </trkpt>
      <trkpt lat="46.30866" lon="10.48076">
        <ele>2042.877</ele>
        <time>2018-09-14T03:39:25Z</time>
      </trkpt>
      <trkpt lat="46.30865" lon="10.48085">
        <ele>2040.224</ele>
        <time>2018-09-14T03:39:45Z</time>
      </trkpt>
      <trkpt lat="46.30865" lon="10.48089">
        <ele>2039.187</ele>
        <time>2018-09-14T03:40:05Z</time>
      </trkpt>
      <trkpt lat="46.30864" lon="10.48098">
        <ele>2036.28</ele>
        <time>2018-09-14T03:40:25Z</time>
      </trkpt>
      <trkpt lat="46.30863" lon="10.48105">
        <ele>2034.153</ele>
        <time>2018-09-14T03:40:45Z</time>
      </trkpt>
      <trkpt lat="46.30858" lon="10.48129">
        <ele>2025.061</ele>
        <time>2018-09-14T03:41:05Z</time>
      </trkpt>
      <trkpt lat="46.30852" lon="10.4814">
        <ele>2018.758</ele>
        <time>2018-09-14T03:41:25Z</time>
      </trkpt>
      <trkpt lat="46.30851" lon="10.48163">
        <ele>2011.674</ele>
        <time>2018-09-14T03:41:45Z</time>
      </trkpt>
      <trkpt lat="46.30851" lon="10.48182">
        <ele>2005.456</ele>
        <time>2018-09-14T03:42:05Z</time>
      </trkpt>
      <trkpt lat="46.30843" lon="10.48202">
        <ele>1995.721</ele>
        <time>2018-09-14T03:42:25Z</time>
      </trkpt>
      <trkpt lat="46.30841" lon="10.48201">
        <ele>1995.408</ele>
        <time>2018-09-14T03:42:45Z</time>
      </trkpt>
      <trkpt lat="46.30822" lon="10.48188">
        <ele>1991.939</ele>
        <time>2018-09-14T03:43:05Z</time>
      </trkpt>
      <trkpt lat="46.30821" lon="10.48185">
        <ele>1992.295</ele>
        <time>2018-09-14T03:43:25Z</time>
      </trkpt>
      <trkpt lat="46.30821" lon="10.48183">
        <ele>1993.082</ele>
        <time>2018-09-14T03:43:45Z</time>
      </trkpt>
      <trkpt lat="46.3082" lon="10.4818">
        <ele>1993.475</ele>
        <time>2018-09-14T03:44:05Z</time>
      </trkpt>
      <trkpt lat="46.30818" lon="10.48178">
        <ele>1993.338</ele>
        <time>2018-09-14T03:44:25Z</time>
      </trkpt>
      <trkpt lat="46.30817" lon="10.48175">
        <ele>1993.621</ele>
        <time>2018-09-14T03:44:45Z</time>
      </trkpt>
      <trkpt lat="46.30816" lon="10.48173">
        <ele>1993.649</ele>
        <time>2018-09-14T03:45:05Z</time>
      </trkpt>
      <trkpt lat="46.30814" lon="10.48171">
        <ele>1993.176</ele>
        <time>2018-09-14T03:45:25Z</time>
      </trkpt>
      <trkpt lat="46.30811" lon="10.4817">
        <ele>1992.464</ele>
        <time>2018-09-14T03:45:45Z</time>
      </trkpt>
      <trkpt lat="46.30809" lon="10.48169">
        <ele>1991.706</ele>
        <time>2018-09-14T03:46:05Z</time>
      </trkpt>
      <trkpt lat="46.30806" lon="10.48168">
        <ele>1990.916</ele>
        <time>2018-09-14T03:46:25Z</time>
      </trkpt>
      <trkpt lat="46.30804" lon="10.48168">
        <ele>1990.008</ele>
        <time>2018-09-14T03:46:45Z</time>
      </trkpt>
      <trkpt lat="46.30801" lon="10.48167">
        <ele>1989.118</ele>
        <time>2018-09-14T03:47:05Z</time>
      </trkpt>
      <trkpt lat="46.30799" lon="10.48166">
        <ele>1988.364</ele>
        <time>2018-09-14T03:47:25Z</time>
      </trkpt>
      <trkpt lat="46.30797" lon="10.48166">
        <ele>1987.691</ele>
        <time>2018-09-14T03:47:45Z</time>
      </trkpt>
      <trkpt lat="46.30795" lon="10.48164">
        <ele>1987.694</ele>
        <time>2018-09-14T03:48:05Z</time>
      </trkpt>
      <trkpt lat="46.30795" lon="10.48161">
        <ele>1988.037</ele>
        <time>2018-09-14T03:48:25Z</time>
      </trkpt>
      <trkpt lat="46.30794" lon="10.48158">
        <ele>1988.35</ele>
        <time>2018-09-14T03:48:45Z</time>
      </trkpt>
      <trkpt lat="46.30792" lon="10.48157">
        <ele>1988.148</ele>
        <time>2018-09-14T03:49:05Z</time>
      </trkpt>
      <trkpt lat="46.30791" lon="10.48153">
        <ele>1988.575</ele>
        <time>2018-09-14T03:49:25Z</time>
      </trkpt>
      <trkpt lat="46.3079" lon="10.48151">
        <ele>1989.023</ele>
        <time>2018-09-14T03:49:45Z</time>
      </trkpt>
      <trkpt lat="46.30789" lon="10.48149">
        <ele>1989.183</ele>
        <time>2018-09-14T03:50:05Z</time>
      </trkpt>
      <trkpt lat="46.30787" lon="10.48148">
        <ele>1988.911</ele>
        <time>2018-09-14T03:50:25Z</time>
      </trkpt>
      <trkpt lat="46.30785" lon="10.48146">
        <ele>1988.808</ele>
        <time>2018-09-14T03:50:45Z</time>
      </trkpt>
      <trkpt lat="46.30784" lon="10.48145">
        <ele>1988.764</ele>
        <time>2018-09-14T03:51:05Z</time>
      </trkpt>
      <trkpt lat="46.30782" lon="10.48143">
        <ele>1988.71</ele>
        <time>2018-09-14T03:51:25Z</time>
      </trkpt>
      <trkpt lat="46.3078" lon="10.48141">
        <ele>1988.887</ele>
        <time>2018-09-14T03:51:45Z</time>
      </trkpt>
      <trkpt lat="46.30779" lon="10.48138">
        <ele>1989.41</ele>
        <time>2018-09-14T03:52:05Z</time>
      </trkpt>
      <trkpt lat="46.30777" lon="10.48136">
        <ele>1989.613</ele>
        <time>2018-09-14T03:52:25Z</time>
      </trkpt>
      <trkpt lat="46.30775" lon="10.48136">
        <ele>1989.176</ele>
        <time>2018-09-14T03:52:45Z</time>
      </trkpt>
      <trkpt lat="46.30772" lon="10.48136">
        <ele>1988.624</ele>
        <time>2018-09-14T03:53:05Z</time>
      </trkpt>
      <trkpt lat="46.30771" lon="10.48137">
        <ele>1987.971</ele>
        <time>2018-09-14T03:53:25Z</time>
      </trkpt>
      <trkpt lat="46.30769" lon="10.48138">
        <ele>1987.239</ele>
        <time>2018-09-14T03:53:45Z</time>
      </trkpt>
      <trkpt lat="46.30767" lon="10.48139">
        <ele>1986.701</ele>
        <time>2018-09-14T03:54:05Z</time>
      </trkpt>
      <trkpt lat="46.30765" lon="10.48138">
        <ele>1986.421</ele>
        <time>2018-09-14T03:54:25Z</time>
      </trkpt>
      <trkpt lat="46.30763" lon="10.48139">
        <ele>1985.808</ele>
        <time>2018-09-14T03:54:45Z</time>
      </trkpt>
      <trkpt lat="46.30761" lon="10.48138">
        <ele>1985.435</ele>
        <time>2018-09-14T03:55:05Z</time>
      </trkpt>
      <trkpt lat="46.30759" lon="10.48138">
        <ele>1984.971</ele>
        <time>2018-09-14T03:55:25Z</time>
      </trkpt>
      <trkpt lat="46.30757" lon="10.48137">
        <ele>1985.018</ele>
        <time>2018-09-14T03:55:45Z</time>
      </trkpt>
      <trkpt lat="46.30755" lon="10.48135">
        <ele>1985.171</ele>
        <time>2018-09-14T03:56:05Z</time>
      </trkpt>
      <trkpt lat="46.30753" lon="10.48136">
        <ele>1984.484</ele>
        <time>2018-09-14T03:56:25Z</time>
      </trkpt>
      <trkpt lat="46.30752" lon="10.48139">
        <ele>1983.497</ele>
        <time>2018-09-14T03:56:45Z</time>
      </trkpt>
      <trkpt lat="46.3075" lon="10.48138">
        <ele>1983.195</ele>
        <time>2018-09-14T03:57:05Z</time>
      </trkpt>
      <trkpt lat="46.30748" lon="10.48137">
        <ele>1982.922</ele>
        <time>2018-09-14T03:57:25Z</time>
      </trkpt>
      <trkpt lat="46.30746" lon="10.48137">
        <ele>1982.793</ele>
        <time>2018-09-14T03:57:45Z</time>
      </trkpt>
      <trkpt lat="46.30745" lon="10.48137">
        <ele>1982.565</ele>
        <time>2018-09-14T03:58:05Z</time>
      </trkpt>
      <trkpt lat="46.30744" lon="10.48137">
        <ele>1982.121</ele>
        <time>2018-09-14T03:58:25Z</time>
      </trkpt>
      <trkpt lat="46.30742" lon="10.48139">
        <ele>1981.308</ele>
        <time>2018-09-14T03:58:45Z</time>
      </trkpt>
      <trkpt lat="46.30741" lon="10.4814">
        <ele>1980.541</ele>
        <time>2018-09-14T03:59:05Z</time>
      </trkpt>
      <trkpt lat="46.30739" lon="10.48143">
        <ele>1979.597</ele>
        <time>2018-09-14T03:59:25Z</time>
      </trkpt>
      <trkpt lat="46.30738" lon="10.48144">
        <ele>1978.824</ele>
        <time>2018-09-14T03:59:45Z</time>
      </trkpt>
      <trkpt lat="46.30736" lon="10.48145">
        <ele>1978.127</ele>
        <time>2018-09-14T04:00:05Z</time>
      </trkpt>
      <trkpt lat="46.30736" lon="10.48148">
        <ele>1977.24</ele>
        <time>2018-09-14T04:00:25Z</time>
      </trkpt>
      <trkpt lat="46.30737" lon="10.48151">
        <ele>1976.443</ele>
        <time>2018-09-14T04:00:45Z</time>
      </trkpt>
      <trkpt lat="46.30735" lon="10.48152">
        <ele>1975.691</ele>
        <time>2018-09-14T04:01:05Z</time>
      </trkpt>
      <trkpt lat="46.30733" lon="10.48153">
        <ele>1974.918</ele>
        <time>2018-09-14T04:01:25Z</time>
      </trkpt>
      <trkpt lat="46.30732" lon="10.48155">
        <ele>1973.981</ele>
        <time>2018-09-14T04:01:45Z</time>
      </trkpt>
      <trkpt lat="46.30731" lon="10.48158">
        <ele>1972.961</ele>
        <time>2018-09-14T04:02:05Z</time>
      </trkpt>
      <trkpt lat="46.30729" lon="10.4816">
        <ele>1972.017</ele>
        <time>2018-09-14T04:02:25Z</time>
      </trkpt>
      <trkpt lat="46.30727" lon="10.4816">
        <ele>1971.408</ele>
        <time>2018-09-14T04:02:45Z</time>
      </trkpt>
      <trkpt lat="46.30726" lon="10.48162">
        <ele>1970.48</ele>
        <time>2018-09-14T04:03:05Z</time>
      </trkpt>
      <trkpt lat="46.30725" lon="10.48165">
        <ele>1969.366</ele>
        <time>2018-09-14T04:03:25Z</time>
      </trkpt>
      <trkpt lat="46.30723" lon="10.48166">
        <ele>1968.323</ele>
        <time>2018-09-14T04:03:45Z</time>
      </trkpt>
      <trkpt lat="46.30722" lon="10.48167">
        <ele>1967.556</ele>
        <time>2018-09-14T04:04:05Z</time>
      </trkpt>
      <trkpt lat="46.3072" lon="10.48169">
        <ele>1966.549</ele>
        <time>2018-09-14T04:04:25Z</time>
      </trkpt>
      <trkpt lat="46.30718" lon="10.4817">
        <ele>1965.552</ele>
        <time>2018-09-14T04:04:45Z</time>
      </trkpt>
      <trkpt lat="46.30716" lon="10.48172">
        <ele>1964.69</ele>
        <time>2018-09-14T04:05:05Z</time>
      </trkpt>
      <trkpt lat="46.30714" lon="10.48173">
        <ele>1963.817</ele>
        <time>2018-09-14T04:05:25Z</time>
      </trkpt>
      <trkpt lat="46.30712" lon="10.48173">
        <ele>1962.983</ele>
        <time>2018-09-14T04:05:45Z</time>
      </trkpt>
      <trkpt lat="46.3071" lon="10.48174">
        <ele>1962.025</ele>
        <time>2018-09-14T04:06:05Z</time>
      </trkpt>
      <trkpt lat="46.30708" lon="10.48176">
        <ele>1961.117</ele>
        <time>2018-09-14T04:06:25Z</time>
      </trkpt>
      <trkpt lat="46.30706" lon="10.48178">
        <ele>1960.108</ele>
        <time>2018-09-14T04:06:45Z</time>
      </trkpt>
      <trkpt lat="46.30704" lon="10.48179">
        <ele>1959.15</ele>
        <time>2018-09-14T04:07:05Z</time>
      </trkpt>
      <trkpt lat="46.30703" lon="10.48181">
        <ele>1958.226</ele>
        <time>2018-09-14T04:07:25Z</time>
      </trkpt>
      <trkpt lat="46.30703" lon="10.48184">
        <ele>1957.343</ele>
        <time>2018-09-14T04:07:45Z</time>
      </trkpt>
      <trkpt lat="46.30701" lon="10.48186">
        <ele>1956.386</ele>
        <time>2018-09-14T04:08:05Z</time>
      </trkpt>
      <trkpt lat="46.30701" lon="10.48188">
        <ele>1955.549</ele>
        <time>2018-09-14T04:08:25Z</time>
      </trkpt>
      <trkpt lat="46.307" lon="10.4819">
        <ele>1954.692</ele>
        <time>2018-09-14T04:08:45Z</time>
      </trkpt>
      <trkpt lat="46.307" lon="10.48193">
        <ele>1953.76</ele>
        <time>2018-09-14T04:09:05Z</time>
      </trkpt>
      <trkpt lat="46.307" lon="10.48196">
        <ele>1953.027</ele>
        <time>2018-09-14T04:09:25Z</time>
      </trkpt>
      <trkpt lat="46.30699" lon="10.48199">
        <ele>1952.065</ele>
        <time>2018-09-14T04:09:45Z</time>
      </trkpt>
      <trkpt lat="46.30697" lon="10.48201">
        <ele>1950.968</ele>
        <time>2018-09-14T04:10:05Z</time>
      </trkpt>
      <trkpt lat="46.30696" lon="10.48203">
        <ele>1950.114</ele>
        <time>2018-09-14T04:10:25Z</time>
      </trkpt>
      <trkpt lat="46.30694" lon="10.48204">
        <ele>1949.408</ele>
        <time>2018-09-14T04:10:45Z</time>
      </trkpt>
      <trkpt lat="46.30692" lon="10.48205">
        <ele>1948.988</ele>
        <time>2018-09-14T04:11:05Z</time>
      </trkpt>
      <trkpt lat="46.30692" lon="10.48208">
        <ele>1948.174</ele>
        <time>2018-09-14T04:11:25Z</time>
      </trkpt>
      <trkpt lat="46.30692" lon="10.4821">
        <ele>1947.581</ele>
        <time>2018-09-14T04:11:45Z</time>
      </trkpt>
      <trkpt lat="46.30692" lon="10.48213">
        <ele>1946.744</ele>
        <time>2018-09-14T04:12:05Z</time>
      </trkpt>
      <trkpt lat="46.30691" lon="10.48216">
        <ele>1945.947</ele>
        <time>2018-09-14T04:12:25Z</time>
      </trkpt>
      <trkpt lat="46.30689" lon="10.48215">
        <ele>1945.74</ele>
        <time>2018-09-14T04:12:45Z</time>
      </trkpt>
      <trkpt lat="46.30687" lon="10.48215">
        <ele>1945.158</ele>
        <time>2018-09-14T04:13:05Z</time>
      </trkpt>
      <trkpt lat="46.30685" lon="10.48216">
        <ele>1944.475</ele>
        <time>2018-09-14T04:13:25Z</time>
      </trkpt>
      <trkpt lat="46.30685" lon="10.48219">
        <ele>1943.385</ele>
        <time>2018-09-14T04:13:45Z</time>
      </trkpt>
      <trkpt lat="46.30687" lon="10.48285">
        <ele>1924.189</ele>
        <time>2018-09-14T04:14:05Z</time>
      </trkpt>
      <trkpt lat="46.30688" lon="10.48288">
        <ele>1923.717</ele>
        <time>2018-09-14T04:14:25Z</time>
      </trkpt>
      <trkpt lat="46.30687" lon="10.4829">
        <ele>1922.608</ele>
        <time>2018-09-14T04:14:45Z</time>
      </trkpt>
      <trkpt lat="46.30685" lon="10.48291">
        <ele>1921.82</ele>
        <time>2018-09-14T04:15:05Z</time>
      </trkpt>
      <trkpt lat="46.30686" lon="10.48293">
        <ele>1921.236</ele>
        <time>2018-09-14T04:15:25Z</time>
      </trkpt>
      <trkpt lat="46.30685" lon="10.48296">
        <ele>1920.133</ele>
        <time>2018-09-14T04:15:45Z</time>
      </trkpt>
      <trkpt lat="46.30684" lon="10.48299">
        <ele>1919.156</ele>
        <time>2018-09-14T04:16:05Z</time>
      </trkpt>
      <trkpt lat="46.30682" lon="10.483">
        <ele>1918.159</ele>
        <time>2018-09-14T04:16:25Z</time>
      </trkpt>
      <trkpt lat="46.30681" lon="10.48303">
        <ele>1916.962</ele>
        <time>2018-09-14T04:16:45Z</time>
      </trkpt>
      <trkpt lat="46.3068" lon="10.48305">
        <ele>1915.97</ele>
        <time>2018-09-14T04:17:05Z</time>
      </trkpt>
      <trkpt lat="46.30679" lon="10.48307">
        <ele>1914.937</ele>
        <time>2018-09-14T04:17:25Z</time>
      </trkpt>
      <trkpt lat="46.30678" lon="10.4831">
        <ele>1914.115</ele>
        <time>2018-09-14T04:17:45Z</time>
      </trkpt>
      <trkpt lat="46.3068" lon="10.48315">
        <ele>1913.065</ele>
        <time>2018-09-14T04:18:05Z</time>
      </trkpt>
      <trkpt lat="46.3068" lon="10.48318">
        <ele>1912.311</ele>
        <time>2018-09-14T04:18:25Z</time>
      </trkpt>
      <trkpt lat="46.30681" lon="10.48321">
        <ele>1911.608</ele>
        <time>2018-09-14T04:18:45Z</time>
      </trkpt>
      <trkpt lat="46.3068" lon="10.48324">
        <ele>1910.633</ele>
        <time>2018-09-14T04:19:05Z</time>
      </trkpt>
      <trkpt lat="46.3068" lon="10.48327">
        <ele>1909.729</ele>
        <time>2018-09-14T04:19:25Z</time>
      </trkpt>
      <trkpt lat="46.30681" lon="10.48329">
        <ele>1909.346</ele>
        <time>2018-09-14T04:19:45Z</time>
      </trkpt>
      <trkpt lat="46.30682" lon="10.48331">
        <ele>1908.989</ele>
        <time>2018-09-14T04:20:05Z</time>
      </trkpt>
      <trkpt lat="46.30684" lon="10.48333">
        <ele>1908.782</ele>
        <time>2018-09-14T04:20:25Z</time>
      </trkpt>
      <trkpt lat="46.30686" lon="10.48335">
        <ele>1908.775</ele>
        <time>2018-09-14T04:20:45Z</time>
      </trkpt>
      <trkpt lat="46.30686" lon="10.48337">
        <ele>1908.053</ele>
        <time>2018-09-14T04:21:05Z</time>
      </trkpt>
      <trkpt lat="46.30688" lon="10.4834">
        <ele>1907.39</ele>
        <time>2018-09-14T04:21:25Z</time>
      </trkpt>
      <trkpt lat="46.30689" lon="10.48342">
        <ele>1907.081</ele>
        <time>2018-09-14T04:21:45Z</time>
      </trkpt>
      <trkpt lat="46.30691" lon="10.48344">
        <ele>1906.661</ele>
        <time>2018-09-14T04:22:05Z</time>
      </trkpt>
      <trkpt lat="46.30692" lon="10.48345">
        <ele>1906.517</ele>
        <time>2018-09-14T04:22:25Z</time>
      </trkpt>
      <trkpt lat="46.30692" lon="10.48348">
        <ele>1905.608</ele>
        <time>2018-09-14T04:22:45Z</time>
      </trkpt>
      <trkpt lat="46.30693" lon="10.48351">
        <ele>1904.88</ele>
        <time>2018-09-14T04:23:05Z</time>
      </trkpt>
      <trkpt lat="46.30694" lon="10.48354">
        <ele>1904.176</ele>
        <time>2018-09-14T04:23:25Z</time>
      </trkpt>
      <trkpt lat="46.30693" lon="10.48357">
        <ele>1903.213</ele>
        <time>2018-09-14T04:23:45Z</time>
      </trkpt>
      <trkpt lat="46.30693" lon="10.4836">
        <ele>1902.196</ele>
        <time>2018-09-14T04:24:05Z</time>
      </trkpt>
      <trkpt lat="46.30692" lon="10.48362">
        <ele>1901.049</ele>
        <time>2018-09-14T04:24:25Z</time>
      </trkpt>
      <trkpt lat="46.30693" lon="10.48365">
        <ele>1899.752</ele>
        <time>2018-09-14T04:24:45Z</time>
      </trkpt>
      <trkpt lat="46.30694" lon="10.48368">
        <ele>1898.82</ele>
        <time>2018-09-14T04:25:05Z</time>
      </trkpt>
      <trkpt lat="46.30695" lon="10.4837">
        <ele>1898.127</ele>
        <time>2018-09-14T04:25:25Z</time>
      </trkpt>
      <trkpt lat="46.30695" lon="10.48373">
        <ele>1896.893</ele>
        <time>2018-09-14T04:25:45Z</time>
      </trkpt>
      <trkpt lat="46.30695" lon="10.48376">
        <ele>1895.665</ele>
        <time>2018-09-14T04:26:05Z</time>
      </trkpt>
      <trkpt lat="46.30695" lon="10.48379">
        <ele>1894.221</ele>
        <time>2018-09-14T04:26:25Z</time>
      </trkpt>
      <trkpt lat="46.30694" lon="10.48382">
        <ele>1892.808</ele>
        <time>2018-09-14T04:26:45Z</time>
      </trkpt>
      <trkpt lat="46.30693" lon="10.48385">
        <ele>1891.661</ele>
        <time>2018-09-14T04:27:05Z</time>
      </trkpt>
      <trkpt lat="46.30694" lon="10.48387">
        <ele>1890.867</ele>
        <time>2018-09-14T04:27:25Z</time>
      </trkpt>
      <trkpt lat="46.30696" lon="10.48389">
        <ele>1889.874</ele>
        <time>2018-09-14T04:27:45Z</time>
      </trkpt>
      <trkpt lat="46.30697" lon="10.48392">
        <ele>1888.897</ele>
        <time>2018-09-14T04:28:05Z</time>
      </trkpt>
      <trkpt lat="46.30695" lon="10.48394">
        <ele>1888.18</ele>
        <time>2018-09-14T04:28:25Z</time>
      </trkpt>
      <trkpt lat="46.30694" lon="10.48397">
        <ele>1887.153</ele>
        <time>2018-09-14T04:28:45Z</time>
      </trkpt>
      <trkpt lat="46.30694" lon="10.484">
        <ele>1885.911</ele>
        <time>2018-09-14T04:29:05Z</time>
      </trkpt>
      <trkpt lat="46.30693" lon="10.48402">
        <ele>1884.968</ele>
        <time>2018-09-14T04:29:25Z</time>
      </trkpt>
      <trkpt lat="46.30692" lon="10.48404">
        <ele>1884.095</ele>
        <time>2018-09-14T04:29:45Z</time>
      </trkpt>
      <trkpt lat="46.30692" lon="10.48407">
        <ele>1882.849</ele>
        <time>2018-09-14T04:30:05Z</time>
      </trkpt>
      <trkpt lat="46.30691" lon="10.4841">
        <ele>1881.623</ele>
        <time>2018-09-14T04:30:25Z</time>
      </trkpt>
      <trkpt lat="46.30691" lon="10.48413">
        <ele>1880.608</ele>
        <time>2018-09-14T04:30:45Z</time>
      </trkpt>
      <trkpt lat="46.30689" lon="10.48414">
        <ele>1879.861</ele>
        <time>2018-09-14T04:31:05Z</time>
      </trkpt>
      <trkpt lat="46.30688" lon="10.48416">
        <ele>1878.647</ele>
        <time>2018-09-14T04:31:25Z</time>
      </trkpt>
      <trkpt lat="46.30688" lon="10.48419">
        <ele>1877.794</ele>
        <time>2018-09-14T04:31:45Z</time>
      </trkpt>
      <trkpt lat="46.30687" lon="10.48422">
        <ele>1876.767</ele>
        <time>2018-09-14T04:32:05Z</time>
      </trkpt>
      <trkpt lat="46.30688" lon="10.48425">
        <ele>1876.17</ele>
        <time>2018-09-14T04:32:25Z</time>
      </trkpt>
      <trkpt lat="46.3069" lon="10.48427">
        <ele>1875.643</ele>
        <time>2018-09-14T04:32:45Z</time>
      </trkpt>
      <trkpt lat="46.3069" lon="10.48431">
        <ele>1874.321</ele>
        <time>2018-09-14T04:33:05Z</time>
      </trkpt>
      <trkpt lat="46.30689" lon="10.48433">
        <ele>1873.478</ele>
        <time>2018-09-14T04:33:25Z</time>
      </trkpt>
      <trkpt lat="46.30689" lon="10.48436">
        <ele>1872.493</ele>
        <time>2018-09-14T04:33:45Z</time>
      </trkpt>
      <trkpt lat="46.3069" lon="10.48439">
        <ele>1871.665</ele>
        <time>2018-09-14T04:34:05Z</time>
      </trkpt>
      <trkpt lat="46.3069" lon="10.48443">
        <ele>1870.521</ele>
        <time>2018-09-14T04:34:25Z</time>
      </trkpt>
      <trkpt lat="46.30691" lon="10.48446">
        <ele>1869.908</ele>
        <time>2018-09-14T04:34:45Z</time>
      </trkpt>
      <trkpt lat="46.30692" lon="10.48449">
        <ele>1869.191</ele>
        <time>2018-09-14T04:35:05Z</time>
      </trkpt>
      <trkpt lat="46.30693" lon="10.48452">
        <ele>1868.637</ele>
        <time>2018-09-14T04:35:25Z</time>
      </trkpt>
      <trkpt lat="46.30695" lon="10.48453">
        <ele>1868.584</ele>
        <time>2018-09-14T04:35:45Z</time>
      </trkpt>
      <trkpt lat="46.30696" lon="10.48455">
        <ele>1867.837</ele>
        <time>2018-09-14T04:36:05Z</time>
      </trkpt>
      <trkpt lat="46.30697" lon="10.48458">
        <ele>1866.97</ele>
        <time>2018-09-14T04:36:25Z</time>
      </trkpt>
      <trkpt lat="46.30695" lon="10.48459">
        <ele>1866.633</ele>
        <time>2018-09-14T04:36:45Z</time>
      </trkpt>
      <trkpt lat="46.30694" lon="10.48462">
        <ele>1865.851</ele>
        <time>2018-09-14T04:37:05Z</time>
      </trkpt>
      <trkpt lat="46.30693" lon="10.48465">
        <ele>1864.838</ele>
        <time>2018-09-14T04:37:25Z</time>
      </trkpt>
      <trkpt lat="46.30692" lon="10.48466">
        <ele>1864.213</ele>
        <time>2018-09-14T04:37:45Z</time>
      </trkpt>
      <trkpt lat="46.3069" lon="10.48467">
        <ele>1863.443</ele>
        <time>2018-09-14T04:38:05Z</time>
      </trkpt>
      <trkpt lat="46.30687" lon="10.48469">
        <ele>1862.307</ele>
        <time>2018-09-14T04:38:25Z</time>
      </trkpt>
      <trkpt lat="46.30686" lon="10.48472">
        <ele>1861.308</ele>
        <time>2018-09-14T04:38:45Z</time>
      </trkpt>
      <trkpt lat="46.30685" lon="10.48474">
        <ele>1860.413</ele>
        <time>2018-09-14T04:39:05Z</time>
      </trkpt>
      <trkpt lat="46.30685" lon="10.48477">
        <ele>1859.469</ele>
        <time>2018-09-14T04:39:25Z</time>
      </trkpt>
      <trkpt lat="46.30684" lon="10.4848">
        <ele>1858.696</ele>
        <time>2018-09-14T04:39:45Z</time>
      </trkpt>
      <trkpt lat="46.30685" lon="10.48483">
        <ele>1857.889</ele>
        <time>2018-09-14T04:40:05Z</time>
      </trkpt>
      <trkpt lat="46.30685" lon="10.48486">
        <ele>1857.072</ele>
        <time>2018-09-14T04:40:25Z</time>
      </trkpt>
      <trkpt lat="46.30686" lon="10.48488">
        <ele>1856.545</ele>
        <time>2018-09-14T04:40:45Z</time>
      </trkpt>
      <trkpt lat="46.30687" lon="10.48491">
        <ele>1856.063</ele>
        <time>2018-09-14T04:41:05Z</time>
      </trkpt>
      <trkpt lat="46.30687" lon="10.48494">
        <ele>1855.27</ele>
        <time>2018-09-14T04:41:25Z</time>
      </trkpt>
      <trkpt lat="46.30687" lon="10.48496">
        <ele>1854.415</ele>
        <time>2018-09-14T04:41:45Z</time>
      </trkpt>
      <trkpt lat="46.30686" lon="10.48499">
        <ele>1853.365</ele>
        <time>2018-09-14T04:42:05Z</time>
      </trkpt>
      <trkpt lat="46.30686" lon="10.48502">
        <ele>1852.411</ele>
        <time>2018-09-14T04:42:25Z</time>
      </trkpt>
      <trkpt lat="46.30686" lon="10.48505">
        <ele>1851.508</ele>
        <time>2018-09-14T04:42:45Z</time>
      </trkpt>
      <trkpt lat="46.30687" lon="10.48507">
        <ele>1850.953</ele>
        <time>2018-09-14T04:43:05Z</time>
      </trkpt>
      <trkpt lat="46.30688" lon="10.4851">
        <ele>1850.039</ele>
        <time>2018-09-14T04:43:25Z</time>
      </trkpt>
      <trkpt lat="46.30688" lon="10.48514">
        <ele>1848.976</ele>
        <time>2018-09-14T04:43:45Z</time>
      </trkpt>
      <trkpt lat="46.30688" lon="10.48517">
        <ele>1847.999</ele>
        <time>2018-09-14T04:44:05Z</time>
      </trkpt>
      <trkpt lat="46.30686" lon="10.48519">
        <ele>1846.842</ele>
        <time>2018-09-14T04:44:25Z</time>
      </trkpt>
      <trkpt lat="46.30687" lon="10.48522">
        <ele>1845.735</ele>
        <time>2018-09-14T04:44:45Z</time>
      </trkpt>
      <trkpt lat="46.30687" lon="10.48525">
        <ele>1845.143</ele>
        <time>2018-09-14T04:45:05Z</time>
      </trkpt>
      <trkpt lat="46.30687" lon="10.48528">
        <ele>1844.04</ele>
        <time>2018-09-14T04:45:25Z</time>
      </trkpt>
      <trkpt lat="46.30686" lon="10.48531">
        <ele>1842.897</ele>
        <time>2018-09-14T04:45:45Z</time>
      </trkpt>
      <trkpt lat="46.30688" lon="10.48533">
        <ele>1842.323</ele>
        <time>2018-09-14T04:46:05Z</time>
      </trkpt>
      <trkpt lat="46.30689" lon="10.48536">
        <ele>1841.325</ele>
        <time>2018-09-14T04:46:25Z</time>
      </trkpt>
      <trkpt lat="46.30688" lon="10.4854">
        <ele>1839.408</ele>
        <time>2018-09-14T04:46:45Z</time>
      </trkpt>
      <trkpt lat="46.30685" lon="10.48543">
        <ele>1837.821</ele>
        <time>2018-09-14T04:47:05Z</time>
      </trkpt>
      <trkpt lat="46.30683" lon="10.48544">
        <ele>1837.117</ele>
        <time>2018-09-14T04:47:25Z</time>
      </trkpt>
      <trkpt lat="46.30681" lon="10.48543">
        <ele>1836.994</ele>
        <time>2018-09-14T04:47:45Z</time>
      </trkpt>
      <trkpt lat="46.30679" lon="10.48542">
        <ele>1836.717</ele>
        <time>2018-09-14T04:48:05Z</time>
      </trkpt>
      <trkpt lat="46.30677" lon="10.48541">
        <ele>1836.54</ele>
        <time>2018-09-14T04:48:25Z</time>
      </trkpt>
      <trkpt lat="46.30675" lon="10.48541">
        <ele>1836.293</ele>
        <time>2018-09-14T04:48:45Z</time>
      </trkpt>
      <trkpt lat="46.30673" lon="10.48541">
        <ele>1835.781</ele>
        <time>2018-09-14T04:49:05Z</time>
      </trkpt>
      <trkpt lat="46.30671" lon="10.48541">
        <ele>1835.168</ele>
        <time>2018-09-14T04:49:25Z</time>
      </trkpt>
      <trkpt lat="46.3067" lon="10.48539">
        <ele>1835.866</ele>
        <time>2018-09-14T04:49:45Z</time>
      </trkpt>
      <trkpt lat="46.30669" lon="10.48538">
        <ele>1835.829</ele>
        <time>2018-09-14T04:50:05Z</time>
      </trkpt>
      <trkpt lat="46.30669" lon="10.48538">
        <ele>1835.821</ele>
        <time>2018-09-14T04:50:25Z</time>
      </trkpt>
      <trkpt lat="46.30667" lon="10.48537">
        <ele>1835.608</ele>
        <time>2018-09-14T04:50:45Z</time>
      </trkpt>
      <trkpt lat="46.30665" lon="10.48537">
        <ele>1835.698</ele>
        <time>2018-09-14T04:51:05Z</time>
      </trkpt>
      <trkpt lat="46.30663" lon="10.48537">
        <ele>1835.474</ele>
        <time>2018-09-14T04:51:25Z</time>
      </trkpt>
      <trkpt lat="46.30661" lon="10.48538">
        <ele>1835.081</ele>
        <time>2018-09-14T04:51:45Z</time>
      </trkpt>
      <trkpt lat="46.30659" lon="10.4854">
        <ele>1834.144</ele>
        <time>2018-09-14T04:52:05Z</time>
      </trkpt>
      <trkpt lat="46.30659" lon="10.48543">
        <ele>1833.337</ele>
        <time>2018-09-14T04:52:25Z</time>
      </trkpt>
      <trkpt lat="46.30659" lon="10.48545">
        <ele>1832.41</ele>
        <time>2018-09-14T04:52:45Z</time>
      </trkpt>
      <trkpt lat="46.30661" lon="10.48547">
        <ele>1832.088</ele>
        <time>2018-09-14T04:53:05Z</time>
      </trkpt>
      <trkpt lat="46.30662" lon="10.48549">
        <ele>1831.495</ele>
        <time>2018-09-14T04:53:25Z</time>
      </trkpt>
      <trkpt lat="46.30663" lon="10.48551">
        <ele>1830.575</ele>
        <time>2018-09-14T04:53:45Z</time>
      </trkpt>
      <trkpt lat="46.30664" lon="10.48554">
        <ele>1829.628</ele>
        <time>2018-09-14T04:54:05Z</time>
      </trkpt>
      <trkpt lat="46.30664" lon="10.48557">
        <ele>1828.62</ele>
        <time>2018-09-14T04:54:25Z</time>
      </trkpt>
      <trkpt lat="46.30665" lon="10.4856">
        <ele>1828.008</ele>
        <time>2018-09-14T04:54:45Z</time>
      </trkpt>
      <trkpt lat="46.30668" lon="10.48568">
        <ele>1826.049</ele>
        <time>2018-09-14T04:55:05Z</time>
      </trkpt>
      <trkpt lat="46.30667" lon="10.4857">
        <ele>1825.315</ele>
        <time>2018-09-14T04:55:25Z</time>
      </trkpt>
      <trkpt lat="46.30668" lon="10.48573">
        <ele>1824.622</ele>
        <time>2018-09-14T04:55:45Z</time>
      </trkpt>
      <trkpt lat="46.30668" lon="10.48574">
        <ele>1824.435</ele>
        <time>2018-09-14T04:56:05Z</time>
      </trkpt>
      <trkpt lat="46.30669" lon="10.48576">
        <ele>1824.188</ele>
        <time>2018-09-14T04:56:25Z</time>
      </trkpt>
      <trkpt lat="46.30669" lon="10.48579">
        <ele>1823.291</ele>
        <time>2018-09-14T04:56:45Z</time>
      </trkpt>
      <trkpt lat="46.30669" lon="10.48582">
        <ele>1822.489</ele>
        <time>2018-09-14T04:57:05Z</time>
      </trkpt>
      <trkpt lat="46.30668" lon="10.48585">
        <ele>1821.826</ele>
        <time>2018-09-14T04:57:25Z</time>
      </trkpt>
      <trkpt lat="46.30668" lon="10.48585">
        <ele>1821.784</ele>
        <time>2018-09-14T04:57:45Z</time>
      </trkpt>
      <trkpt lat="46.30668" lon="10.48586">
        <ele>1821.507</ele>
        <time>2018-09-14T04:58:05Z</time>
      </trkpt>
      <trkpt lat="46.30668" lon="10.48588">
        <ele>1821.217</ele>
        <time>2018-09-14T04:58:25Z</time>
      </trkpt>
      <trkpt lat="46.30668" lon="10.48589">
        <ele>1821.008</ele>
        <time>2018-09-14T04:58:45Z</time>
      </trkpt>
      <trkpt lat="46.30668" lon="10.48591">
        <ele>1820.75</ele>
        <time>2018-09-14T04:59:05Z</time>
      </trkpt>
      <trkpt lat="46.30668" lon="10.48592">
        <ele>1820.676</ele>
        <time>2018-09-14T04:59:25Z</time>
      </trkpt>
      <trkpt lat="46.30669" lon="10.48593">
        <ele>1820.343</ele>
        <time>2018-09-14T04:59:45Z</time>
      </trkpt>
      <trkpt lat="46.30669" lon="10.48597">
        <ele>1819.786</ele>
        <time>2018-09-14T05:00:05Z</time>
      </trkpt>
      <trkpt lat="46.30668" lon="10.48597">
        <ele>1819.579</ele>
        <time>2018-09-14T05:00:25Z</time>
      </trkpt>
      <trkpt lat="46.30667" lon="10.48598">
        <ele>1819.432</ele>
        <time>2018-09-14T05:00:45Z</time>
      </trkpt>
      <trkpt lat="46.30668" lon="10.48601">
        <ele>1818.99</ele>
        <time>2018-09-14T05:01:05Z</time>
      </trkpt>
      <trkpt lat="46.30667" lon="10.48603">
        <ele>1818.497</ele>
        <time>2018-09-14T05:01:25Z</time>
      </trkpt>
      <trkpt lat="46.30666" lon="10.48606">
        <ele>1817.971</ele>
        <time>2018-09-14T05:01:45Z</time>
      </trkpt>
      <trkpt lat="46.30664" lon="10.48608">
        <ele>1817.541</ele>
        <time>2018-09-14T05:02:05Z</time>
      </trkpt>
      <trkpt lat="46.30664" lon="10.4861">
        <ele>1817.115</ele>
        <time>2018-09-14T05:02:25Z</time>
      </trkpt>
      <trkpt lat="46.30664" lon="10.4861">
        <ele>1817.008</ele>
        <time>2018-09-14T05:02:45Z</time>
      </trkpt>
      <trkpt lat="46.30663" lon="10.48612">
        <ele>1816.679</ele>
        <time>2018-09-14T05:03:05Z</time>
      </trkpt>
      <trkpt lat="46.30664" lon="10.48615">
        <ele>1816.195</ele>
        <time>2018-09-14T05:03:25Z</time>
      </trkpt>
      <trkpt lat="46.30663" lon="10.48618">
        <ele>1815.632</ele>
        <time>2018-09-14T05:03:45Z</time>
      </trkpt>
      <trkpt lat="46.30663" lon="10.48621">
        <ele>1815.115</ele>
        <time>2018-09-14T05:04:05Z</time>
      </trkpt>
      <trkpt lat="46.30664" lon="10.48624">
        <ele>1814.698</ele>
        <time>2018-09-14T05:04:25Z</time>
      </trkpt>
      <trkpt lat="46.30663" lon="10.48626">
        <ele>1814.181</ele>
        <time>2018-09-14T05:04:45Z</time>
      </trkpt>
      <trkpt lat="46.30664" lon="10.4863">
        <ele>1813.559</ele>
        <time>2018-09-14T05:05:05Z</time>
      </trkpt>
      <trkpt lat="46.30665" lon="10.48631">
        <ele>1813.316</ele>
        <time>2018-09-14T05:05:25Z</time>
      </trkpt>
      <trkpt lat="46.30666" lon="10.48634">
        <ele>1812.819</ele>
        <time>2018-09-14T05:05:45Z</time>
      </trkpt>
      <trkpt lat="46.30665" lon="10.48637">
        <ele>1812.209</ele>
        <time>2018-09-14T05:06:05Z</time>
      </trkpt>
      <trkpt lat="46.30663" lon="10.48639">
        <ele>1811.919</ele>
        <time>2018-09-14T05:06:25Z</time>
      </trkpt>
      <trkpt lat="46.30661" lon="10.4864">
        <ele>1811.608</ele>
        <time>2018-09-14T05:06:45Z</time>
      </trkpt>
      <trkpt lat="46.30661" lon="10.48643">
        <ele>1811.063</ele>
        <time>2018-09-14T05:07:05Z</time>
      </trkpt>
      <trkpt lat="46.30661" lon="10.48646">
        <ele>1810.529</ele>
        <time>2018-09-14T05:07:25Z</time>
      </trkpt>
      <trkpt lat="46.30662" lon="10.48649">
        <ele>1810.096</ele>
        <time>2018-09-14T05:07:45Z</time>
      </trkpt>
      <trkpt lat="46.30663" lon="10.48651">
        <ele>1809.689</ele>
        <time>2018-09-14T05:08:05Z</time>
      </trkpt>
      <trkpt lat="46.30664" lon="10.48653">
        <ele>1809.282</ele>
        <time>2018-09-14T05:08:25Z</time>
      </trkpt>
      <trkpt lat="46.30666" lon="10.48655">
        <ele>1809.065</ele>
        <time>2018-09-14T05:08:45Z</time>
      </trkpt>
      <trkpt lat="46.30667" lon="10.48656">
        <ele>1808.793</ele>
        <time>2018-09-14T05:09:05Z</time>
      </trkpt>
      <trkpt lat="46.30668" lon="10.48657">
        <ele>1808.63</ele>
        <time>2018-09-14T05:09:25Z</time>
      </trkpt>
      <trkpt lat="46.3067" lon="10.48658">
        <ele>1808.156</ele>
        <time>2018-09-14T05:09:45Z</time>
      </trkpt>
      <trkpt lat="46.30672" lon="10.48658">
        <ele>1807.859</ele>
        <time>2018-09-14T05:10:05Z</time>
      </trkpt>
      <trkpt lat="46.30674" lon="10.48658">
        <ele>1807.614</ele>
        <time>2018-09-14T05:10:25Z</time>
      </trkpt>
      <trkpt lat="46.30676" lon="10.48659">
        <ele>1807.108</ele>
        <time>2018-09-14T05:10:45Z</time>
      </trkpt>
      <trkpt lat="46.30678" lon="10.48661">
        <ele>1806.667</ele>
        <time>2018-09-14T05:11:05Z</time>
      </trkpt>
      <trkpt lat="46.30679" lon="10.48663">
        <ele>1805.973</ele>
        <time>2018-09-14T05:11:25Z</time>
      </trkpt>
      <trkpt lat="46.3068" lon="10.48666">
        <ele>1805.34</ele>
        <time>2018-09-14T05:11:45Z</time>
      </trkpt>
      <trkpt lat="46.30681" lon="10.48668">
        <ele>1804.773</ele>
        <time>2018-09-14T05:12:05Z</time>
      </trkpt>
      <trkpt lat="46.30682" lon="10.48671">
        <ele>1803.826</ele>
        <time>2018-09-14T05:12:25Z</time>
      </trkpt>
      <trkpt lat="46.30683" lon="10.48674">
        <ele>1803.289</ele>
        <time>2018-09-14T05:12:45Z</time>
      </trkpt>
      <trkpt lat="46.30682" lon="10.48676">
        <ele>1802.667</ele>
        <time>2018-09-14T05:13:05Z</time>
      </trkpt>
      <trkpt lat="46.30683" lon="10.48679">
        <ele>1801.954</ele>
        <time>2018-09-14T05:13:25Z</time>
      </trkpt>
      <trkpt lat="46.30685" lon="10.48681">
        <ele>1801.271</ele>
        <time>2018-09-14T05:13:45Z</time>
      </trkpt>
      <trkpt lat="46.30684" lon="10.48684">
        <ele>1800.841</ele>
        <time>2018-09-14T05:14:05Z</time>
      </trkpt>
      <trkpt lat="46.30684" lon="10.48687">
        <ele>1800.115</ele>
        <time>2018-09-14T05:14:25Z</time>
      </trkpt>
      <trkpt lat="46.30682" lon="10.48689">
        <ele>1799.708</ele>
        <time>2018-09-14T05:14:45Z</time>
      </trkpt>
      <trkpt lat="46.30681" lon="10.48692">
        <ele>1799.439</ele>
        <time>2018-09-14T05:15:05Z</time>
      </trkpt>
      <trkpt lat="46.30681" lon="10.48695">
        <ele>1798.995</ele>
        <time>2018-09-14T05:15:25Z</time>
      </trkpt>
      <trkpt lat="46.3068" lon="10.48697">
        <ele>1798.282</ele>
        <time>2018-09-14T05:15:45Z</time>
      </trkpt>
      <trkpt lat="46.30679" lon="10.48699">
        <ele>1797.955</ele>
        <time>2018-09-14T05:16:05Z</time>
      </trkpt>
      <trkpt lat="46.30677" lon="10.48701">
        <ele>1797.848</ele>
        <time>2018-09-14T05:16:25Z</time>
      </trkpt>
      <trkpt lat="46.30677" lon="10.48703">
        <ele>1797.231</ele>
        <time>2018-09-14T05:16:45Z</time>
      </trkpt>
      <trkpt lat="46.30675" lon="10.48706">
        <ele>1796.969</ele>
        <time>2018-09-14T05:17:05Z</time>
      </trkpt>
      <trkpt lat="46.30674" lon="10.48708">
        <ele>1796.546</ele>
        <time>2018-09-14T05:17:25Z</time>
      </trkpt>
      <trkpt lat="46.30673" lon="10.48711">
        <ele>1795.836</ele>
        <time>2018-09-14T05:17:45Z</time>
      </trkpt>
      <trkpt lat="46.30672" lon="10.48713">
        <ele>1795.517</ele>
        <time>2018-09-14T05:18:05Z</time>
      </trkpt>
      <trkpt lat="46.3067" lon="10.48716">
        <ele>1795.018</ele>
        <time>2018-09-14T05:18:25Z</time>
      </trkpt>
      <trkpt lat="46.30669" lon="10.48718">
        <ele>1794.608</ele>
        <time>2018-09-14T05:18:45Z</time>
      </trkpt>
      <trkpt lat="46.30668" lon="10.48721">
        <ele>1794.245</ele>
        <time>2018-09-14T05:19:05Z</time>
      </trkpt>
      <trkpt lat="46.30666" lon="10.48723">
        <ele>1793.541</ele>
        <time>2018-09-14T05:19:25Z</time>
      </trkpt>
      <trkpt lat="46.30666" lon="10.48724">
        <ele>1793.338</ele>
        <time>2018-09-14T05:19:45Z</time>
      </trkpt>
      <trkpt lat="46.30665" lon="10.48726">
        <ele>1791.831</ele>
        <time>2018-09-14T05:20:05Z</time>
      </trkpt>
      <trkpt lat="46.30664" lon="10.48729">
        <ele>1790.214</ele>
        <time>2018-09-14T05:20:25Z</time>
      </trkpt>
      <trkpt lat="46.30663" lon="10.48732">
        <ele>1788.977</ele>
        <time>2018-09-14T05:20:45Z</time>
      </trkpt>
      <trkpt lat="46.30664" lon="10.48735">
        <ele>1787.975</ele>
        <time>2018-09-14T05:21:05Z</time>
      </trkpt>
      <trkpt lat="46.30666" lon="10.48736">
        <ele>1787.892</ele>
        <time>2018-09-14T05:21:25Z</time>
      </trkpt>
      <trkpt lat="46.30666" lon="10.48738">
        <ele>1787.037</ele>
        <time>2018-09-14T05:21:45Z</time>
      </trkpt>
      <trkpt lat="46.30666" lon="10.48739">
        <ele>1786.849</ele>
        <time>2018-09-14T05:22:05Z</time>
      </trkpt>
      <trkpt lat="46.30667" lon="10.48741">
        <ele>1785.613</ele>
        <time>2018-09-14T05:22:25Z</time>
      </trkpt>
      <trkpt lat="46.30668" lon="10.48744">
        <ele>1784.408</ele>
        <time>2018-09-14T05:22:45Z</time>
      </trkpt>
      <trkpt lat="46.30668" lon="10.48747">
        <ele>1783.115</ele>
        <time>2018-09-14T05:23:05Z</time>
      </trkpt>
      <trkpt lat="46.3067" lon="10.4875">
        <ele>1781.941</ele>
        <time>2018-09-14T05:23:25Z</time>
      </trkpt>
      <trkpt lat="46.30672" lon="10.48751">
        <ele>1781.268</ele>
        <time>2018-09-14T05:23:45Z</time>
      </trkpt>
      <trkpt lat="46.30674" lon="10.48752">
        <ele>1780.511</ele>
        <time>2018-09-14T05:24:05Z</time>
      </trkpt>
      <trkpt lat="46.30675" lon="10.48754">
        <ele>1779.634</ele>
        <time>2018-09-14T05:24:25Z</time>
      </trkpt>
      <trkpt lat="46.30675" lon="10.48757">
        <ele>1778.537</ele>
        <time>2018-09-14T05:24:45Z</time>
      </trkpt>
      <trkpt lat="46.30674" lon="10.48759">
        <ele>1777.525</ele>
        <time>2018-09-14T05:25:05Z</time>
      </trkpt>
      <trkpt lat="46.30673" lon="10.48762">
        <ele>1776.122</ele>
        <time>2018-09-14T05:25:25Z</time>
      </trkpt>
      <trkpt lat="46.30674" lon="10.48766">
        <ele>1774.794</ele>
        <time>2018-09-14T05:25:45Z</time>
      </trkpt>
      <trkpt lat="46.30676" lon="10.48765">
        <ele>1774.957</ele>
        <time>2018-09-14T05:26:05Z</time>
      </trkpt>
      <trkpt lat="46.30679" lon="10.48767">
        <ele>1774.322</ele>
        <time>2018-09-14T05:26:25Z</time>
      </trkpt>
      <trkpt lat="46.3068" lon="10.48768">
        <ele>1774.008</ele>
        <time>2018-09-14T05:26:45Z</time>
      </trkpt>
      <trkpt lat="46.30682" lon="10.48769">
        <ele>1773.731</ele>
        <time>2018-09-14T05:27:05Z</time>
      </trkpt>
      <trkpt lat="46.30684" lon="10.48768">
        <ele>1774.057</ele>
        <time>2018-09-14T05:27:25Z</time>
      </trkpt>
      <trkpt lat="46.30687" lon="10.48769">
        <ele>1773.784</ele>
        <time>2018-09-14T05:27:45Z</time>
      </trkpt>
      <trkpt lat="46.30689" lon="10.48768">
        <ele>1774.037</ele>
        <time>2018-09-14T05:28:05Z</time>
      </trkpt>
      <trkpt lat="46.30691" lon="10.48769">
        <ele>1773.67</ele>
        <time>2018-09-14T05:28:25Z</time>
      </trkpt>
      <trkpt lat="46.30693" lon="10.4877">
        <ele>1773.563</ele>
        <time>2018-09-14T05:28:45Z</time>
      </trkpt>
      <trkpt lat="46.30695" lon="10.48769">
        <ele>1773.661</ele>
        <time>2018-09-14T05:29:05Z</time>
      </trkpt>
      <trkpt lat="46.30697" lon="10.4877">
        <ele>1772.818</ele>
        <time>2018-09-14T05:29:25Z</time>
      </trkpt>
      <trkpt lat="46.30698" lon="10.48772">
        <ele>1771.996</ele>
        <time>2018-09-14T05:29:45Z</time>
      </trkpt>
      <trkpt lat="46.307" lon="10.48773">
        <ele>1771.231</ele>
        <time>2018-09-14T05:30:05Z</time>
      </trkpt>
      <trkpt lat="46.30702" lon="10.48772">
        <ele>1771.124</ele>
        <time>2018-09-14T05:30:25Z</time>
      </trkpt>
      <trkpt lat="46.30716" lon="10.48778">
        <ele>1765.408</ele>
        <time>2018-09-14T05:30:45Z</time>
      </trkpt>
      <trkpt lat="46.30718" lon="10.4878">
        <ele>1764.361</ele>
        <time>2018-09-14T05:31:05Z</time>
      </trkpt>
      <trkpt lat="46.30719" lon="10.48782">
        <ele>1763.027</ele>
        <time>2018-09-14T05:31:25Z</time>
      </trkpt>
      <trkpt lat="46.30718" lon="10.48783">
        <ele>1763.274</ele>
        <time>2018-09-14T05:31:45Z</time>
      </trkpt>
      <trkpt lat="46.30718" lon="10.48786">
        <ele>1762.157</ele>
        <time>2018-09-14T05:32:05Z</time>
      </trkpt>
      <trkpt lat="46.3072" lon="10.48789">
        <ele>1760.72</ele>
        <time>2018-09-14T05:32:25Z</time>
      </trkpt>
      <trkpt lat="46.3072" lon="10.48792">
        <ele>1759.673</ele>
        <time>2018-09-14T05:32:45Z</time>
      </trkpt>
      <trkpt lat="46.30719" lon="10.48795">
        <ele>1758.471</ele>
        <time>2018-09-14T05:33:05Z</time>
      </trkpt>
      <trkpt lat="46.3072" lon="10.48798">
        <ele>1757.348</ele>
        <time>2018-09-14T05:33:25Z</time>
      </trkpt>
      <trkpt lat="46.3072" lon="10.48801">
        <ele>1756.267</ele>
        <time>2018-09-14T05:33:45Z</time>
      </trkpt>
      <trkpt lat="46.30719" lon="10.48803">
        <ele>1755.581</ele>
        <time>2018-09-14T05:34:05Z</time>
      </trkpt>
      <trkpt lat="46.30719" lon="10.48807">
        <ele>1754.219</ele>
        <time>2018-09-14T05:34:25Z</time>
      </trkpt>
      <trkpt lat="46.30719" lon="10.48809">
        <ele>1753.208</ele>
        <time>2018-09-14T05:34:45Z</time>
      </trkpt>
      <trkpt lat="46.30717" lon="10.48811">
        <ele>1752.758</ele>
        <time>2018-09-14T05:35:05Z</time>
      </trkpt>
      <trkpt lat="46.30715" lon="10.48812">
        <ele>1752.794</ele>
        <time>2018-09-14T05:35:25Z</time>
      </trkpt>
      <trkpt lat="46.30713" lon="10.48814">
        <ele>1752.221</ele>
        <time>2018-09-14T05:35:45Z</time>
      </trkpt>
      <trkpt lat="46.30713" lon="10.48816">
        <ele>1751.284</ele>
        <time>2018-09-14T05:36:05Z</time>
      </trkpt>
      <trkpt lat="46.30711" lon="10.48818">
        <ele>1750.917</ele>
        <time>2018-09-14T05:36:25Z</time>
      </trkpt>
      <trkpt lat="46.3071" lon="10.4882">
        <ele>1749.91</ele>
        <time>2018-09-14T05:36:45Z</time>
      </trkpt>
      <trkpt lat="46.30709" lon="10.48823">
        <ele>1748.928</ele>
        <time>2018-09-14T05:37:05Z</time>
      </trkpt>
      <trkpt lat="46.30707" lon="10.48825">
        <ele>1748.785</ele>
        <time>2018-09-14T05:37:25Z</time>
      </trkpt>
      <trkpt lat="46.30705" lon="10.48827">
        <ele>1747.887</ele>
        <time>2018-09-14T05:37:45Z</time>
      </trkpt>
      <trkpt lat="46.30705" lon="10.4883">
        <ele>1746.642</ele>
        <time>2018-09-14T05:38:05Z</time>
      </trkpt>
      <trkpt lat="46.30703" lon="10.48832">
        <ele>1745.926</ele>
        <time>2018-09-14T05:38:25Z</time>
      </trkpt>
      <trkpt lat="46.30702" lon="10.48834">
        <ele>1745.308</ele>
        <time>2018-09-14T05:38:45Z</time>
      </trkpt>
      <trkpt lat="46.307" lon="10.48836">
        <ele>1744.52</ele>
        <time>2018-09-14T05:39:05Z</time>
      </trkpt>
      <trkpt lat="46.30698" lon="10.48837">
        <ele>1744.596</ele>
        <time>2018-09-14T05:39:25Z</time>
      </trkpt>
      <trkpt lat="46.30696" lon="10.48838">
        <ele>1744.523</ele>
        <time>2018-09-14T05:39:45Z</time>
      </trkpt>
      <trkpt lat="46.30693" lon="10.48838">
        <ele>1744.376</ele>
        <time>2018-09-14T05:40:05Z</time>
      </trkpt>
      <trkpt lat="46.30691" lon="10.4884">
        <ele>1743.069</ele>
        <time>2018-09-14T05:40:25Z</time>
      </trkpt>
      <trkpt lat="46.3069" lon="10.48842">
        <ele>1742.082</ele>
        <time>2018-09-14T05:40:45Z</time>
      </trkpt>
      <trkpt lat="46.30685" lon="10.48852">
        <ele>1736.85</ele>
        <time>2018-09-14T05:41:05Z</time>
      </trkpt>
      <trkpt lat="46.30686" lon="10.48854">
        <ele>1736.037</ele>
        <time>2018-09-14T05:41:25Z</time>
      </trkpt>
      <trkpt lat="46.30688" lon="10.48854">
        <ele>1735.886</ele>
        <time>2018-09-14T05:41:45Z</time>
      </trkpt>
      <trkpt lat="46.3069" lon="10.48855">
        <ele>1735.36</ele>
        <time>2018-09-14T05:42:05Z</time>
      </trkpt>
      <trkpt lat="46.30692" lon="10.48857">
        <ele>1734.326</ele>
        <time>2018-09-14T05:42:25Z</time>
      </trkpt>
      <trkpt lat="46.30694" lon="10.48857">
        <ele>1734.408</ele>
        <time>2018-09-14T05:42:45Z</time>
      </trkpt>
      <trkpt lat="46.30696" lon="10.48857">
        <ele>1734.08</ele>
        <time>2018-09-14T05:43:05Z</time>
      </trkpt>
      <trkpt lat="46.30698" lon="10.48857">
        <ele>1733.786</ele>
        <time>2018-09-14T05:43:25Z</time>
      </trkpt>
      <trkpt lat="46.307" lon="10.48859">
        <ele>1732.343</ele>
        <time>2018-09-14T05:43:45Z</time>
      </trkpt>
      <trkpt lat="46.30701" lon="10.48861">
        <ele>1731.186</ele>
        <time>2018-09-14T05:44:05Z</time>
      </trkpt>
      <trkpt lat="46.30703" lon="10.48862">
        <ele>1730.219</ele>
        <time>2018-09-14T05:44:25Z</time>
      </trkpt>
      <trkpt lat="46.30707" lon="10.4886">
        <ele>1730.892</ele>
        <time>2018-09-14T05:44:45Z</time>
      </trkpt>
      <trkpt lat="46.30709" lon="10.48861">
        <ele>1729.82</ele>
        <time>2018-09-14T05:45:05Z</time>
      </trkpt>
      <trkpt lat="46.3071" lon="10.48861">
        <ele>1729.617</ele>
        <time>2018-09-14T05:45:25Z</time>
      </trkpt>
      <trkpt lat="46.30713" lon="10.48861">
        <ele>1729.269</ele>
        <time>2018-09-14T05:45:45Z</time>
      </trkpt>
      <trkpt lat="46.30714" lon="10.48864">
        <ele>1727.904</ele>
        <time>2018-09-14T05:46:05Z</time>
      </trkpt>
      <trkpt lat="46.30715" lon="10.48867">
        <ele>1726.324</ele>
        <time>2018-09-14T05:46:25Z</time>
      </trkpt>
      <trkpt lat="46.30717" lon="10.48864">
        <ele>1727.408</ele>
        <time>2018-09-14T05:46:45Z</time>
      </trkpt>
      <trkpt lat="46.3072" lon="10.48864">
        <ele>1727.238</ele>
        <time>2018-09-14T05:47:05Z</time>
      </trkpt>
      <trkpt lat="46.30722" lon="10.48863">
        <ele>1727.124</ele>
        <time>2018-09-14T05:47:25Z</time>
      </trkpt>
      <trkpt lat="46.30724" lon="10.48862">
        <ele>1727.091</ele>
        <time>2018-09-14T05:47:45Z</time>
      </trkpt>
      <trkpt lat="46.30726" lon="10.4886">
        <ele>1727.114</ele>
        <time>2018-09-14T05:48:05Z</time>
      </trkpt>
      <trkpt lat="46.30727" lon="10.48858">
        <ele>1727.517</ele>
        <time>2018-09-14T05:48:25Z</time>
      </trkpt>
      <trkpt lat="46.30729" lon="10.48858">
        <ele>1726.85</ele>
        <time>2018-09-14T05:48:45Z</time>
      </trkpt>
      <trkpt lat="46.3073" lon="10.4886">
        <ele>1725.268</ele>
        <time>2018-09-14T05:49:05Z</time>
      </trkpt>
      <trkpt lat="46.30732" lon="10.48862">
        <ele>1723.845</ele>
        <time>2018-09-14T05:49:25Z</time>
      </trkpt>
      <trkpt lat="46.30734" lon="10.48862">
        <ele>1723.141</ele>
        <time>2018-09-14T05:49:45Z</time>
      </trkpt>
      <trkpt lat="46.30736" lon="10.48862">
        <ele>1721.881</ele>
        <time>2018-09-14T05:50:05Z</time>
      </trkpt>
      <trkpt lat="46.30738" lon="10.48862">
        <ele>1721.409</ele>
        <time>2018-09-14T05:50:25Z</time>
      </trkpt>
      <trkpt lat="46.3074" lon="10.48861">
        <ele>1720.608</ele>
        <time>2018-09-14T05:50:45Z</time>
      </trkpt>
      <trkpt lat="46.30743" lon="10.48861">
        <ele>1720.266</ele>
        <time>2018-09-14T05:51:05Z</time>
      </trkpt>
      <trkpt lat="46.30745" lon="10.48861">
        <ele>1719.362</ele>
        <time>2018-09-14T05:51:25Z</time>
      </trkpt>
      <trkpt lat="46.30747" lon="10.4886">
        <ele>1719.159</ele>
        <time>2018-09-14T05:51:45Z</time>
      </trkpt>
      <trkpt lat="46.30749" lon="10.48859">
        <ele>1718.812</ele>
        <time>2018-09-14T05:52:05Z</time>
      </trkpt>
      <trkpt lat="46.3075" lon="10.48857">
        <ele>1719.455</ele>
        <time>2018-09-14T05:52:25Z</time>
      </trkpt>
      <trkpt lat="46.30752" lon="10.48857">
        <ele>1718.428</ele>
        <time>2018-09-14T05:52:45Z</time>
      </trkpt>
      <trkpt lat="46.30754" lon="10.48859">
        <ele>1716.886</ele>
        <time>2018-09-14T05:53:05Z</time>
      </trkpt>
      <trkpt lat="46.30753" lon="10.48862">
        <ele>1715.483</ele>
        <time>2018-09-14T05:53:25Z</time>
      </trkpt>
      <trkpt lat="46.30752" lon="10.48864">
        <ele>1714.343</ele>
        <time>2018-09-14T05:53:45Z</time>
      </trkpt>
      <trkpt lat="46.30753" lon="10.48867">
        <ele>1712.564</ele>
        <time>2018-09-14T05:54:05Z</time>
      </trkpt>
      <trkpt lat="46.30754" lon="10.48868">
        <ele>1711.41</ele>
        <time>2018-09-14T05:54:25Z</time>
      </trkpt>
      <trkpt lat="46.30754" lon="10.48871">
        <ele>1709.908</ele>
        <time>2018-09-14T05:54:45Z</time>
      </trkpt>
      <trkpt lat="46.30752" lon="10.48872">
        <ele>1709.966</ele>
        <time>2018-09-14T05:55:05Z</time>
      </trkpt>
      <trkpt lat="46.30753" lon="10.48875">
        <ele>1707.842</ele>
        <time>2018-09-14T05:55:25Z</time>
      </trkpt>
      <trkpt lat="46.30753" lon="10.48878">
        <ele>1706.229</ele>
        <time>2018-09-14T05:55:45Z</time>
      </trkpt>
      <trkpt lat="46.30751" lon="10.4888">
        <ele>1705.432</ele>
        <time>2018-09-14T05:56:05Z</time>
      </trkpt>
      <trkpt lat="46.3075" lon="10.48883">
        <ele>1703.745</ele>
        <time>2018-09-14T05:56:25Z</time>
      </trkpt>
      <trkpt lat="46.30749" lon="10.48885">
        <ele>1702.868</ele>
        <time>2018-09-14T05:56:45Z</time>
      </trkpt>
      <trkpt lat="46.30747" lon="10.48887">
        <ele>1702.726</ele>
        <time>2018-09-14T05:57:05Z</time>
      </trkpt>
      <trkpt lat="46.30746" lon="10.4889">
        <ele>1701.863</ele>
        <time>2018-09-14T05:57:25Z</time>
      </trkpt>
      <trkpt lat="46.30747" lon="10.48892">
        <ele>1700.845</ele>
        <time>2018-09-14T05:57:45Z</time>
      </trkpt>
      <trkpt lat="46.30747" lon="10.48895">
        <ele>1700.447</ele>
        <time>2018-09-14T05:58:05Z</time>
      </trkpt>
      <trkpt lat="46.30747" lon="10.48897">
        <ele>1700.111</ele>
        <time>2018-09-14T05:58:25Z</time>
      </trkpt>
      <trkpt lat="46.30746" lon="10.489">
        <ele>1699.708</ele>
        <time>2018-09-14T05:58:45Z</time>
      </trkpt>
      <trkpt lat="46.30745" lon="10.48903">
        <ele>1699.436</ele>
        <time>2018-09-14T05:59:05Z</time>
      </trkpt>
      <trkpt lat="46.30744" lon="10.48904">
        <ele>1699.922</ele>
        <time>2018-09-14T05:59:25Z</time>
      </trkpt>
      <trkpt lat="46.30743" lon="10.48906">
        <ele>1699.779</ele>
        <time>2018-09-14T05:59:45Z</time>
      </trkpt>
      <trkpt lat="46.30742" lon="10.48909">
        <ele>1699.382</ele>
        <time>2018-09-14T06:00:05Z</time>
      </trkpt>
      <trkpt lat="46.30741" lon="10.48911">
        <ele>1699.165</ele>
        <time>2018-09-14T06:00:25Z</time>
      </trkpt>
      <trkpt lat="46.30741" lon="10.48914">
        <ele>1698.338</ele>
        <time>2018-09-14T06:00:45Z</time>
      </trkpt>
      <trkpt lat="46.30739" lon="10.48915">
        <ele>1698.596</ele>
        <time>2018-09-14T06:01:05Z</time>
      </trkpt>
      <trkpt lat="46.30737" lon="10.48917">
        <ele>1698.543</ele>
        <time>2018-09-14T06:01:25Z</time>
      </trkpt>
      <trkpt lat="46.30736" lon="10.4892">
        <ele>1698.468</ele>
        <time>2018-09-14T06:01:45Z</time>
      </trkpt>
      <trkpt lat="46.30735" lon="10.48922">
        <ele>1698.342</ele>
        <time>2018-09-14T06:02:05Z</time>
      </trkpt>
      <trkpt lat="46.30734" lon="10.48925">
        <ele>1698.026</ele>
        <time>2018-09-14T06:02:25Z</time>
      </trkpt>
      <trkpt lat="46.30735" lon="10.48927">
        <ele>1697.208</ele>
        <time>2018-09-14T06:02:45Z</time>
      </trkpt>
      <trkpt lat="46.30734" lon="10.4893">
        <ele>1696.998</ele>
        <time>2018-09-14T06:03:05Z</time>
      </trkpt>
      <trkpt lat="46.30735" lon="10.48932">
        <ele>1696.184</ele>
        <time>2018-09-14T06:03:25Z</time>
      </trkpt>
      <trkpt lat="46.30737" lon="10.48934">
        <ele>1695.421</ele>
        <time>2018-09-14T06:03:45Z</time>
      </trkpt>
      <trkpt lat="46.30737" lon="10.48937">
        <ele>1694.734</ele>
        <time>2018-09-14T06:04:05Z</time>
      </trkpt>
      <trkpt lat="46.30738" lon="10.48939">
        <ele>1694.067</ele>
        <time>2018-09-14T06:04:25Z</time>
      </trkpt>
      <trkpt lat="46.3074" lon="10.4894">
        <ele>1693.51</ele>
        <time>2018-09-14T06:04:45Z</time>
      </trkpt>
      <trkpt lat="46.30742" lon="10.48942">
        <ele>1692.948</ele>
        <time>2018-09-14T06:05:05Z</time>
      </trkpt>
      <trkpt lat="46.30744" lon="10.48943">
        <ele>1692.375</ele>
        <time>2018-09-14T06:05:25Z</time>
      </trkpt>
      <trkpt lat="46.30747" lon="10.48942">
        <ele>1692.089</ele>
        <time>2018-09-14T06:05:45Z</time>
      </trkpt>
      <trkpt lat="46.30748" lon="10.48943">
        <ele>1691.406</ele>
        <time>2018-09-14T06:06:05Z</time>
      </trkpt>
      <trkpt lat="46.3075" lon="10.48943">
        <ele>1691.126</ele>
        <time>2018-09-14T06:06:25Z</time>
      </trkpt>
      <trkpt lat="46.30752" lon="10.48945">
        <ele>1690.408</ele>
        <time>2018-09-14T06:06:45Z</time>
      </trkpt>
      <trkpt lat="46.30754" lon="10.48945">
        <ele>1689.82</ele>
        <time>2018-09-14T06:07:05Z</time>
      </trkpt>
      <trkpt lat="46.30757" lon="10.48945">
        <ele>1689.456</ele>
        <time>2018-09-14T06:07:25Z</time>
      </trkpt>
      <trkpt lat="46.30759" lon="10.48944">
        <ele>1689.123</ele>
        <time>2018-09-14T06:07:45Z</time>
      </trkpt>
      <trkpt lat="46.30761" lon="10.48945">
        <ele>1688.616</ele>
        <time>2018-09-14T06:08:05Z</time>
      </trkpt>
      <trkpt lat="46.30762" lon="10.48947">
        <ele>1687.939</ele>
        <time>2018-09-14T06:08:25Z</time>
      </trkpt>
      <trkpt lat="46.30764" lon="10.48948">
        <ele>1687.242</ele>
        <time>2018-09-14T06:08:45Z</time>
      </trkpt>
      <trkpt lat="46.30766" lon="10.4895">
        <ele>1686.44</ele>
        <time>2018-09-14T06:09:05Z</time>
      </trkpt>
      <trkpt lat="46.30767" lon="10.48953">
        <ele>1685.647</ele>
        <time>2018-09-14T06:09:25Z</time>
      </trkpt>
      <trkpt lat="46.30768" lon="10.48955">
        <ele>1684.832</ele>
        <time>2018-09-14T06:09:45Z</time>
      </trkpt>
      <trkpt lat="46.3077" lon="10.48957">
        <ele>1683.892</ele>
        <time>2018-09-14T06:10:05Z</time>
      </trkpt>
      <trkpt lat="46.30772" lon="10.48959">
        <ele>1683.011</ele>
        <time>2018-09-14T06:10:25Z</time>
      </trkpt>
      <trkpt lat="46.30774" lon="10.48961">
        <ele>1682.008</ele>
        <time>2018-09-14T06:10:45Z</time>
      </trkpt>
      <trkpt lat="46.30776" lon="10.48962">
        <ele>1681.195</ele>
        <time>2018-09-14T06:11:05Z</time>
      </trkpt>
      <trkpt lat="46.30777" lon="10.48964">
        <ele>1680.361</ele>
        <time>2018-09-14T06:11:25Z</time>
      </trkpt>
      <trkpt lat="46.30779" lon="10.48966">
        <ele>1679.258</ele>
        <time>2018-09-14T06:11:45Z</time>
      </trkpt>
      <trkpt lat="46.30781" lon="10.48968">
        <ele>1678.251</ele>
        <time>2018-09-14T06:12:05Z</time>
      </trkpt>
      <trkpt lat="46.30783" lon="10.4897">
        <ele>1677.224</ele>
        <time>2018-09-14T06:12:25Z</time>
      </trkpt>
      <trkpt lat="46.30785" lon="10.4897">
        <ele>1676.557</ele>
        <time>2018-09-14T06:12:45Z</time>
      </trkpt>
      <trkpt lat="46.30787" lon="10.48971">
        <ele>1675.985</ele>
        <time>2018-09-14T06:13:05Z</time>
      </trkpt>
      <trkpt lat="46.3079" lon="10.48971">
        <ele>1675.222</ele>
        <time>2018-09-14T06:13:25Z</time>
      </trkpt>
      <trkpt lat="46.30792" lon="10.48972">
        <ele>1674.488</ele>
        <time>2018-09-14T06:13:45Z</time>
      </trkpt>
      <trkpt lat="46.30795" lon="10.48972">
        <ele>1673.724</ele>
        <time>2018-09-14T06:14:05Z</time>
      </trkpt>
      <trkpt lat="46.30803" lon="10.48973">
        <ele>1671.626</ele>
        <time>2018-09-14T06:14:25Z</time>
      </trkpt>
      <trkpt lat="46.30808" lon="10.48984">
        <ele>1669.308</ele>
        <time>2018-09-14T06:14:45Z</time>
      </trkpt>
      <trkpt lat="46.30806" lon="10.49014">
        <ele>1666.47</ele>
        <time>2018-09-14T06:15:05Z</time>
      </trkpt>
      <trkpt lat="46.30807" lon="10.49017">
        <ele>1666.056</ele>
        <time>2018-09-14T06:15:25Z</time>
      </trkpt>
      <trkpt lat="46.30807" lon="10.49019">
        <ele>1665.763</ele>
        <time>2018-09-14T06:15:45Z</time>
      </trkpt>
      <trkpt lat="46.30808" lon="10.49023">
        <ele>1665.296</ele>
        <time>2018-09-14T06:16:05Z</time>
      </trkpt>
      <trkpt lat="46.30809" lon="10.49024">
        <ele>1664.899</ele>
        <time>2018-09-14T06:16:25Z</time>
      </trkpt>
      <trkpt lat="46.3081" lon="10.49027">
        <ele>1664.492</ele>
        <time>2018-09-14T06:16:45Z</time>
      </trkpt>
      <trkpt lat="46.30812" lon="10.49031">
        <ele>1663.78</ele>
        <time>2018-09-14T06:17:05Z</time>
      </trkpt>
      <trkpt lat="46.30813" lon="10.49033">
        <ele>1663.497</ele>
        <time>2018-09-14T06:17:25Z</time>
      </trkpt>
      <trkpt lat="46.30814" lon="10.49036">
        <ele>1662.922</ele>
        <time>2018-09-14T06:17:45Z</time>
      </trkpt>
      <trkpt lat="46.30815" lon="10.49039">
        <ele>1662.562</ele>
        <time>2018-09-14T06:18:05Z</time>
      </trkpt>
      <trkpt lat="46.30816" lon="10.49042">
        <ele>1662.108</ele>
        <time>2018-09-14T06:18:25Z</time>
      </trkpt>
      <trkpt lat="46.30817" lon="10.49044">
        <ele>1661.808</ele>
        <time>2018-09-14T06:18:45Z</time>
      </trkpt>
      <trkpt lat="46.30819" lon="10.49046">
        <ele>1661.474</ele>
        <time>2018-09-14T06:19:05Z</time>
      </trkpt>
      <trkpt lat="46.3082" lon="10.49049">
        <ele>1661.05</ele>
        <time>2018-09-14T06:19:25Z</time>
      </trkpt>
      <trkpt lat="46.30822" lon="10.49051">
        <ele>1660.687</ele>
        <time>2018-09-14T06:19:45Z</time>
      </trkpt>
      <trkpt lat="46.30822" lon="10.49053">
        <ele>1660.49</ele>
        <time>2018-09-14T06:20:05Z</time>
      </trkpt>
      <trkpt lat="46.30823" lon="10.49055">
        <ele>1660.193</ele>
        <time>2018-09-14T06:20:25Z</time>
      </trkpt>
      <trkpt lat="46.30825" lon="10.49057">
        <ele>1659.796</ele>
        <time>2018-09-14T06:20:45Z</time>
      </trkpt>
      <trkpt lat="46.30827" lon="10.4906">
        <ele>1659.254</ele>
        <time>2018-09-14T06:21:05Z</time>
      </trkpt>
      <trkpt lat="46.30828" lon="10.49063">
        <ele>1658.781</ele>
        <time>2018-09-14T06:21:25Z</time>
      </trkpt>
      <trkpt lat="46.3083" lon="10.49066">
        <ele>1658.318</ele>
        <time>2018-09-14T06:21:45Z</time>
      </trkpt>
      <trkpt lat="46.30831" lon="10.49068">
        <ele>1657.898</ele>
        <time>2018-09-14T06:22:05Z</time>
      </trkpt>
      <trkpt lat="46.30833" lon="10.49071">
        <ele>1657.417</ele>
        <time>2018-09-14T06:22:25Z</time>
      </trkpt>
      <trkpt lat="46.30834" lon="10.49073">
        <ele>1657.108</ele>
        <time>2018-09-14T06:22:45Z</time>
      </trkpt>
      <trkpt lat="46.30836" lon="10.49074">
        <ele>1656.783</ele>
        <time>2018-09-14T06:23:05Z</time>
      </trkpt>
      <trkpt lat="46.30838" lon="10.49077">
        <ele>1656.389</ele>
        <time>2018-09-14T06:23:25Z</time>
      </trkpt>
      <trkpt lat="46.30839" lon="10.49079">
        <ele>1656.036</ele>
        <time>2018-09-14T06:23:45Z</time>
      </trkpt>
      <trkpt lat="46.30841" lon="10.49082">
        <ele>1655.649</ele>
        <time>2018-09-14T06:24:05Z</time>
      </trkpt>
      <trkpt lat="46.30843" lon="10.49083">
        <ele>1655.392</ele>
        <time>2018-09-14T06:24:25Z</time>
      </trkpt>
      <trkpt lat="46.30845" lon="10.49084">
        <ele>1655.125</ele>
        <time>2018-09-14T06:24:45Z</time>
      </trkpt>
      <trkpt lat="46.30848" lon="10.49084">
        <ele>1654.923</ele>
        <time>2018-09-14T06:25:05Z</time>
      </trkpt>
      <trkpt lat="46.3085" lon="10.49084">
        <ele>1654.71</ele>
        <time>2018-09-14T06:25:25Z</time>
      </trkpt>
      <trkpt lat="46.30852" lon="10.49084">
        <ele>1654.643</ele>
        <time>2018-09-14T06:25:45Z</time>
      </trkpt>
      <trkpt lat="46.30855" lon="10.49083">
        <ele>1654.464</ele>
        <time>2018-09-14T06:26:05Z</time>
      </trkpt>
      <trkpt lat="46.30856" lon="10.49083">
        <ele>1654.31</ele>
        <time>2018-09-14T06:26:25Z</time>
      </trkpt>
      <trkpt lat="46.30858" lon="10.49082">
        <ele>1654.308</ele>
        <time>2018-09-14T06:26:45Z</time>
      </trkpt>
      <trkpt lat="46.3086" lon="10.49081">
        <ele>1654.326</ele>
        <time>2018-09-14T06:27:05Z</time>
      </trkpt>
      <trkpt lat="46.30862" lon="10.49079">
        <ele>1654.462</ele>
        <time>2018-09-14T06:27:25Z</time>
      </trkpt>
      <trkpt lat="46.30863" lon="10.49077">
        <ele>1654.619</ele>
        <time>2018-09-14T06:27:45Z</time>
      </trkpt>
      <trkpt lat="46.30865" lon="10.49076">
        <ele>1654.782</ele>
        <time>2018-09-14T06:28:05Z</time>
      </trkpt>
      <trkpt lat="46.30867" lon="10.49075">
        <ele>1654.815</ele>
        <time>2018-09-14T06:28:25Z</time>
      </trkpt>
      <trkpt lat="46.30869" lon="10.49076">
        <ele>1654.738</ele>
        <time>2018-09-14T06:28:45Z</time>
      </trkpt>
      <trkpt lat="46.3087" lon="10.49079">
        <ele>1654.456</ele>
        <time>2018-09-14T06:29:05Z</time>
      </trkpt>
      <trkpt lat="46.3087" lon="10.49081">
        <ele>1654.283</ele>
        <time>2018-09-14T06:29:25Z</time>
      </trkpt>
      <trkpt lat="46.30871" lon="10.49084">
        <ele>1653.935</ele>
        <time>2018-09-14T06:29:45Z</time>
      </trkpt>
      <trkpt lat="46.30872" lon="10.49087">
        <ele>1653.786</ele>
        <time>2018-09-14T06:30:05Z</time>
      </trkpt>
      <trkpt lat="46.30873" lon="10.4909">
        <ele>1653.414</ele>
        <time>2018-09-14T06:30:25Z</time>
      </trkpt>
      <trkpt lat="46.30875" lon="10.49092">
        <ele>1653.108</ele>
        <time>2018-09-14T06:30:45Z</time>
      </trkpt>
      <trkpt lat="46.30876" lon="10.49095">
        <ele>1652.935</ele>
        <time>2018-09-14T06:31:05Z</time>
      </trkpt>
      <trkpt lat="46.30884" lon="10.49112">
        <ele>1651.111</ele>
        <time>2018-09-14T06:31:25Z</time>
      </trkpt>
      <trkpt lat="46.30884" lon="10.49113">
        <ele>1651.118</ele>
        <time>2018-09-14T06:31:45Z</time>
      </trkpt>
      <trkpt lat="46.30885" lon="10.49116">
        <ele>1650.981</ele>
        <time>2018-09-14T06:32:05Z</time>
      </trkpt>
      <trkpt lat="46.30885" lon="10.49117">
        <ele>1650.994</ele>
        <time>2018-09-14T06:32:25Z</time>
      </trkpt>
      <trkpt lat="46.30884" lon="10.49118">
        <ele>1650.877</ele>
        <time>2018-09-14T06:32:45Z</time>
      </trkpt>
      <trkpt lat="46.30874" lon="10.49142">
        <ele>1650.085</ele>
        <time>2018-09-14T06:33:05Z</time>
      </trkpt>
      <trkpt lat="46.30872" lon="10.49155">
        <ele>1650.272</ele>
        <time>2018-09-14T06:33:25Z</time>
      </trkpt>
      <trkpt lat="46.3086" lon="10.49177">
        <ele>1650.041</ele>
        <time>2018-09-14T06:33:45Z</time>
      </trkpt>
      <trkpt lat="46.30837" lon="10.49207">
        <ele>1650.081</ele>
        <time>2018-09-14T06:34:05Z</time>
      </trkpt>
      <trkpt lat="46.3082" lon="10.49231">
        <ele>1650.009</ele>
        <time>2018-09-14T06:34:25Z</time>
      </trkpt>
      <trkpt lat="46.30815" lon="10.49248">
        <ele>1650.008</ele>
        <time>2018-09-14T06:34:45Z</time>
      </trkpt>
      <trkpt lat="46.30808" lon="10.49265">
        <ele>1650.056</ele>
        <time>2018-09-14T06:35:05Z</time>
      </trkpt>
      <trkpt lat="46.30804" lon="10.49273">
        <ele>1649.762</ele>
        <time>2018-09-14T06:35:25Z</time>
      </trkpt>
      <trkpt lat="46.30797" lon="10.49283">
        <ele>1648.589</ele>
        <time>2018-09-14T06:35:45Z</time>
      </trkpt>
      <trkpt lat="46.30785" lon="10.49301">
        <ele>1645.892</ele>
        <time>2018-09-14T06:36:05Z</time>
      </trkpt>
      <trkpt lat="46.3077" lon="10.49333">
        <ele>1639.845</ele>
        <time>2018-09-14T06:36:25Z</time>
      </trkpt>
      <trkpt lat="46.30764" lon="10.49351">
        <ele>1639.538</ele>
        <time>2018-09-14T06:36:45Z</time>
      </trkpt>
      <trkpt lat="46.3075" lon="10.49371">
        <ele>1637.016</ele>
        <time>2018-09-14T06:37:05Z</time>
      </trkpt>
      <trkpt lat="46.30714" lon="10.49441">
        <ele>1632.373</ele>
        <time>2018-09-14T06:37:25Z</time>
      </trkpt>
      <trkpt lat="46.307" lon="10.49462">
        <ele>1629.559</ele>
        <time>2018-09-14T06:37:45Z</time>
      </trkpt>
      <trkpt lat="46.30683" lon="10.49473">
        <ele>1627.403</ele>
        <time>2018-09-14T06:38:05Z</time>
      </trkpt>
      <trkpt lat="46.30664" lon="10.49485">
        <ele>1625.023</ele>
        <time>2018-09-14T06:38:25Z</time>
      </trkpt>
      <trkpt lat="46.30642" lon="10.49495">
        <ele>1625.008</ele>
        <time>2018-09-14T06:38:45Z</time>
      </trkpt>
      <trkpt lat="46.30621" lon="10.4951">
        <ele>1625.057</ele>
        <time>2018-09-14T06:39:05Z</time>
      </trkpt>
      <trkpt lat="46.30606" lon="10.49521">
        <ele>1625.043</ele>
        <time>2018-09-14T06:39:25Z</time>
      </trkpt>
      <trkpt lat="46.30582" lon="10.4953">
        <ele>1625.07</ele>
        <time>2018-09-14T06:39:45Z</time>
      </trkpt>
      <trkpt lat="46.30563" lon="10.49548">
        <ele>1625.093</ele>
        <time>2018-09-14T06:40:05Z</time>
      </trkpt>
      <trkpt lat="46.30546" lon="10.49563">
        <ele>1624.986</ele>
        <time>2018-09-14T06:40:25Z</time>
      </trkpt>
      <trkpt lat="46.30534" lon="10.49574">
        <ele>1624.449</ele>
        <time>2018-09-14T06:40:45Z</time>
      </trkpt>
      <trkpt lat="46.30529" lon="10.49581">
        <ele>1624.187</ele>
        <time>2018-09-14T06:41:05Z</time>
      </trkpt>
      <trkpt lat="46.30498" lon="10.4962">
        <ele>1617.714</ele>
        <time>2018-09-14T06:41:25Z</time>
      </trkpt>
      <trkpt lat="46.30481" lon="10.49646">
        <ele>1612.515</ele>
        <time>2018-09-14T06:41:45Z</time>
      </trkpt>
      <trkpt lat="46.30475" lon="10.49658">
        <ele>1611.765</ele>
        <time>2018-09-14T06:42:05Z</time>
      </trkpt>
      <trkpt lat="46.30474" lon="10.49659">
        <ele>1611.611</ele>
        <time>2018-09-14T06:42:25Z</time>
      </trkpt>
      <trkpt lat="46.30472" lon="10.49661">
        <ele>1611.408</ele>
        <time>2018-09-14T06:42:45Z</time>
      </trkpt>
      <trkpt lat="46.30436" lon="10.49729">
        <ele>1607.063</ele>
        <time>2018-09-14T06:43:05Z</time>
      </trkpt>
      <trkpt lat="46.30418" lon="10.49767">
        <ele>1604.699</ele>
        <time>2018-09-14T06:43:25Z</time>
      </trkpt>
      <trkpt lat="46.30414" lon="10.49776">
        <ele>1604.486</ele>
        <time>2018-09-14T06:43:45Z</time>
      </trkpt>
      <trkpt lat="46.30396" lon="10.49813">
        <ele>1602.029</ele>
        <time>2018-09-14T06:44:05Z</time>
      </trkpt>
      <trkpt lat="46.30395" lon="10.49816">
        <ele>1601.622</ele>
        <time>2018-09-14T06:44:25Z</time>
      </trkpt>
      <trkpt lat="46.30392" lon="10.49824">
        <ele>1600.925</ele>
        <time>2018-09-14T06:44:45Z</time>
      </trkpt>
      <trkpt lat="46.3039" lon="10.49828">
        <ele>1600.333</ele>
        <time>2018-09-14T06:45:05Z</time>
      </trkpt>
      <trkpt lat="46.30373" lon="10.49871">
        <ele>1600.09</ele>
        <time>2018-09-14T06:45:25Z</time>
      </trkpt>
      <trkpt lat="46.30371" lon="10.49875">
        <ele>1600.051</ele>
        <time>2018-09-14T06:45:45Z</time>
      </trkpt>
      <trkpt lat="46.3037" lon="10.49877">
        <ele>1600.001</ele>
        <time>2018-09-14T06:46:05Z</time>
      </trkpt>
      <trkpt lat="46.30364" lon="10.49889">
        <ele>1600.011</ele>
        <time>2018-09-14T06:46:25Z</time>
      </trkpt>
      <trkpt lat="46.30357" lon="10.49903">
        <ele>1600.008</ele>
        <time>2018-09-14T06:46:45Z</time>
      </trkpt>
      <trkpt lat="46.30347" lon="10.4992">
        <ele>1600.067</ele>
        <time>2018-09-14T06:47:05Z</time>
      </trkpt>
      <trkpt lat="46.30345" lon="10.49924">
        <ele>1600.073</ele>
        <time>2018-09-14T06:47:25Z</time>
      </trkpt>
      <trkpt lat="46.30332" lon="10.49944">
        <ele>1600.02</ele>
        <time>2018-09-14T06:47:45Z</time>
      </trkpt>
      <trkpt lat="46.30332" lon="10.49945">
        <ele>1600.023</ele>
        <time>2018-09-14T06:48:05Z</time>
      </trkpt>
      <trkpt lat="46.30326" lon="10.49952">
        <ele>1600.026</ele>
        <time>2018-09-14T06:48:25Z</time>
      </trkpt>
      <trkpt lat="46.3032" lon="10.4996">
        <ele>1600.069</ele>
        <time>2018-09-14T06:48:45Z</time>
      </trkpt>
      <trkpt lat="46.30313" lon="10.49967">
        <ele>1600.047</ele>
        <time>2018-09-14T06:49:05Z</time>
      </trkpt>
      <trkpt lat="46.30306" lon="10.49973">
        <ele>1600.014</ele>
        <time>2018-09-14T06:49:25Z</time>
      </trkpt>
      <trkpt lat="46.30301" lon="10.49977">
        <ele>1600.053</ele>
        <time>2018-09-14T06:49:45Z</time>
      </trkpt>
      <trkpt lat="46.30298" lon="10.4998">
        <ele>1600.004</ele>
        <time>2018-09-14T06:50:05Z</time>
      </trkpt>
      <trkpt lat="46.30294" lon="10.49982">
        <ele>1600.014</ele>
        <time>2018-09-14T06:50:25Z</time>
      </trkpt>
      <trkpt lat="46.30289" lon="10.49986">
        <ele>1600.008</ele>
        <time>2018-09-14T06:50:45Z</time>
      </trkpt>
      <trkpt lat="46.30277" lon="10.49989">
        <ele>1600.027</ele>
        <time>2018-09-14T06:51:05Z</time>
      </trkpt>
      <trkpt lat="46.30275" lon="10.4999">
        <ele>1600.023</ele>
        <time>2018-09-14T06:51:25Z</time>
      </trkpt>
      <trkpt lat="46.30274" lon="10.49991">
        <ele>1600.09</ele>
        <time>2018-09-14T06:51:45Z</time>
      </trkpt>
      <trkpt lat="46.30273" lon="10.49991">
        <ele>1600.043</ele>
        <time>2018-09-14T06:52:05Z</time>
      </trkpt>
      <trkpt lat="46.30271" lon="10.49991">
        <ele>1600.036</ele>
        <time>2018-09-14T06:52:25Z</time>
      </trkpt>
      <trkpt lat="46.30267" lon="10.49995">
        <ele>1600.059</ele>
        <time>2018-09-14T06:52:45Z</time>
      </trkpt>
      <trkpt lat="46.30243" lon="10.50004">
        <ele>1600.027</ele>
        <time>2018-09-14T06:53:05Z</time>
      </trkpt>
      <trkpt lat="46.30242" lon="10.50004">
        <ele>1600.064</ele>
        <time>2018-09-14T06:53:25Z</time>
      </trkpt>
      <trkpt lat="46.3024" lon="10.50006">
        <ele>1600.059</ele>
        <time>2018-09-14T06:53:45Z</time>
      </trkpt>
      <trkpt lat="46.30238" lon="10.50007">
        <ele>1600.003</ele>
        <time>2018-09-14T06:54:05Z</time>
      </trkpt>
      <trkpt lat="46.30236" lon="10.50008">
        <ele>1600.023</ele>
        <time>2018-09-14T06:54:25Z</time>
      </trkpt>
      <trkpt lat="46.30234" lon="10.50009">
        <ele>1600.008</ele>
        <time>2018-09-14T06:54:45Z</time>
      </trkpt>
      <trkpt lat="46.30231" lon="10.5001">
        <ele>1600.047</ele>
        <time>2018-09-14T06:55:05Z</time>
      </trkpt>
      <trkpt lat="46.30229" lon="10.50011">
        <ele>1600.083</ele>
        <time>2018-09-14T06:55:25Z</time>
      </trkpt>
      <trkpt lat="46.30229" lon="10.50011">
        <ele>1600.05</ele>
        <time>2018-09-14T06:55:45Z</time>
      </trkpt>
      <trkpt lat="46.30221" lon="10.5002">
        <ele>1600.053</ele>
        <time>2018-09-14T06:56:05Z</time>
      </trkpt>
      <trkpt lat="46.30221" lon="10.5002">
        <ele>1600.046</ele>
        <time>2018-09-14T06:56:25Z</time>
      </trkpt>
      <trkpt lat="46.3022" lon="10.5002">
        <ele>1600.089</ele>
        <time>2018-09-14T06:56:45Z</time>
      </trkpt>
      <trkpt lat="46.30219" lon="10.5002">
        <ele>1600.037</ele>
        <time>2018-09-14T06:57:05Z</time>
      </trkpt>
      <trkpt lat="46.30218" lon="10.50021">
        <ele>1600.044</ele>
        <time>2018-09-14T06:57:25Z</time>
      </trkpt>
      <trkpt lat="46.30212" lon="10.50024">
        <ele>1600.038</ele>
        <time>2018-09-14T06:57:45Z</time>
      </trkpt>
      <trkpt lat="46.30207" lon="10.50026">
        <ele>1600.07</ele>
        <time>2018-09-14T06:58:05Z</time>
      </trkpt>
      <trkpt lat="46.30204" lon="10.50028">
        <ele>1600.017</ele>
        <time>2018-09-14T06:58:25Z</time>
      </trkpt>
      <trkpt lat="46.302" lon="10.50032">
        <ele>1600.008</ele>
        <time>2018-09-14T06:58:45Z</time>
      </trkpt>
      <trkpt lat="46.30194" lon="10.50038">
        <ele>1600.065</ele>
        <time>2018-09-14T06:59:05Z</time>
      </trkpt>
      <trkpt lat="46.3019" lon="10.50041">
        <ele>1600.061</ele>
        <time>2018-09-14T06:59:25Z</time>
      </trkpt>
      <trkpt lat="46.30186" lon="10.50043">
        <ele>1600.058</ele>
        <time>2018-09-14T06:59:45Z</time>
      </trkpt>
      <trkpt lat="46.30182" lon="10.50046">
        <ele>1600.051</ele>
        <time>2018-09-14T07:00:05Z</time>
      </trkpt>
      <trkpt lat="46.30179" lon="10.50048">
        <ele>1600.074</ele>
        <time>2018-09-14T07:00:25Z</time>
      </trkpt>
      <trkpt lat="46.30172" lon="10.50051">
        <ele>1600.067</ele>
        <time>2018-09-14T07:00:45Z</time>
      </trkpt>
      <trkpt lat="46.30168" lon="10.50054">
        <ele>1600.075</ele>
        <time>2018-09-14T07:01:05Z</time>
      </trkpt>
      <trkpt lat="46.30159" lon="10.50064">
        <ele>1600.022</ele>
        <time>2018-09-14T07:01:25Z</time>
      </trkpt>
      <trkpt lat="46.30157" lon="10.50065">
        <ele>1600.079</ele>
        <time>2018-09-14T07:01:45Z</time>
      </trkpt>
      <trkpt lat="46.30154" lon="10.50068">
        <ele>1600.005</ele>
        <time>2018-09-14T07:02:05Z</time>
      </trkpt>
      <trkpt lat="46.30151" lon="10.50071">
        <ele>1600.025</ele>
        <time>2018-09-14T07:02:25Z</time>
      </trkpt>
      <trkpt lat="46.30151" lon="10.50071">
        <ele>1600.008</ele>
        <time>2018-09-14T07:02:45Z</time>
      </trkpt>
      <trkpt lat="46.30149" lon="10.50075">
        <ele>1600.019</ele>
        <time>2018-09-14T07:03:05Z</time>
      </trkpt>
      <trkpt lat="46.30142" lon="10.50085">
        <ele>1600.085</ele>
        <time>2018-09-14T07:03:25Z</time>
      </trkpt>
      <trkpt lat="46.30141" lon="10.50087">
        <ele>1600.092</ele>
        <time>2018-09-14T07:03:45Z</time>
      </trkpt>
      <trkpt lat="46.3014" lon="10.50089">
        <ele>1600.095</ele>
        <time>2018-09-14T07:04:05Z</time>
      </trkpt>
      <trkpt lat="46.30137" lon="10.50093">
        <ele>1600.028</ele>
        <time>2018-09-14T07:04:25Z</time>
      </trkpt>
      <trkpt lat="46.30134" lon="10.50097">
        <ele>1600.041</ele>
        <time>2018-09-14T07:04:45Z</time>
      </trkpt>
      <trkpt lat="46.30131" lon="10.50099">
        <ele>1600.019</ele>
        <time>2018-09-14T07:05:05Z</time>
      </trkpt>
      <trkpt lat="46.30128" lon="10.50102">
        <ele>1600.086</ele>
        <time>2018-09-14T07:05:25Z</time>
      </trkpt>
      <trkpt lat="46.30126" lon="10.50104">
        <ele>1600.041</ele>
        <time>2018-09-14T07:05:45Z</time>
      </trkpt>
      <trkpt lat="46.30123" lon="10.50106">
        <ele>1600.081</ele>
        <time>2018-09-14T07:06:05Z</time>
      </trkpt>
      <trkpt lat="46.3012" lon="10.50109">
        <ele>1600.009</ele>
        <time>2018-09-14T07:06:25Z</time>
      </trkpt>
      <trkpt lat="46.30117" lon="10.50111">
        <ele>1600.008</ele>
        <time>2018-09-14T07:06:45Z</time>
      </trkpt>
      <trkpt lat="46.30115" lon="10.50114">
        <ele>1600.056</ele>
        <time>2018-09-14T07:07:05Z</time>
      </trkpt>
      <trkpt lat="46.30112" lon="10.50117">
        <ele>1600.032</ele>
        <time>2018-09-14T07:07:25Z</time>
      </trkpt>
      <trkpt lat="46.3011" lon="10.50119">
        <ele>1600.079</ele>
        <time>2018-09-14T07:07:45Z</time>
      </trkpt>
      <trkpt lat="46.30107" lon="10.50122">
        <ele>1600.062</ele>
        <time>2018-09-14T07:08:05Z</time>
      </trkpt>
      <trkpt lat="46.30105" lon="10.50125">
        <ele>1600.055</ele>
        <time>2018-09-14T07:08:25Z</time>
      </trkpt>
      <trkpt lat="46.30102" lon="10.50127">
        <ele>1600.098</ele>
        <time>2018-09-14T07:08:45Z</time>
      </trkpt>
      <trkpt lat="46.301" lon="10.5013">
        <ele>1600.056</ele>
        <time>2018-09-14T07:09:05Z</time>
      </trkpt>
      <trkpt lat="46.30097" lon="10.50132">
        <ele>1600.063</ele>
        <time>2018-09-14T07:09:25Z</time>
      </trkpt>
      <trkpt lat="46.30094" lon="10.50135">
        <ele>1600.082</ele>
        <time>2018-09-14T07:09:45Z</time>
      </trkpt>
      <trkpt lat="46.30091" lon="10.50138">
        <ele>1600.043</ele>
        <time>2018-09-14T07:10:05Z</time>
      </trkpt>
      <trkpt lat="46.30089" lon="10.50141">
        <ele>1600.017</ele>
        <time>2018-09-14T07:10:25Z</time>
      </trkpt>
      <trkpt lat="46.30086" lon="10.50144">
        <ele>1600.008</ele>
        <time>2018-09-14T07:10:45Z</time>
      </trkpt>
      <trkpt lat="46.30084" lon="10.50148">
        <ele>1600.08</ele>
        <time>2018-09-14T07:11:05Z</time>
      </trkpt>
      <trkpt lat="46.30081" lon="10.50151">
        <ele>1600.096</ele>
        <time>2018-09-14T07:11:25Z</time>
      </trkpt>
      <trkpt lat="46.30079" lon="10.50155">
        <ele>1600.073</ele>
        <time>2018-09-14T07:11:45Z</time>
      </trkpt>
      <trkpt lat="46.30077" lon="10.50159">
        <ele>1600.026</ele>
        <time>2018-09-14T07:12:05Z</time>
      </trkpt>
      <trkpt lat="46.30075" lon="10.50162">
        <ele>1600.029</ele>
        <time>2018-09-14T07:12:25Z</time>
      </trkpt>
      <trkpt lat="46.30073" lon="10.50166">
        <ele>1600.092</ele>
        <time>2018-09-14T07:12:45Z</time>
      </trkpt>
      <trkpt lat="46.30071" lon="10.50169">
        <ele>1600.02</ele>
        <time>2018-09-14T07:13:05Z</time>
      </trkpt>
      <trkpt lat="46.30069" lon="10.50172">
        <ele>1600.087</ele>
        <time>2018-09-14T07:13:25Z</time>
      </trkpt>
      <trkpt lat="46.30067" lon="10.50176">
        <ele>1600.016</ele>
        <time>2018-09-14T07:13:45Z</time>
      </trkpt>
      <trkpt lat="46.30066" lon="10.50177">
        <ele>1600.076</ele>
        <time>2018-09-14T07:14:05Z</time>
      </trkpt>
      <trkpt lat="46.30063" lon="10.50183">
        <ele>1600.013</ele>
        <time>2018-09-14T07:14:25Z</time>
      </trkpt>
      <trkpt lat="46.30059" lon="10.50192">
        <ele>1600.008</ele>
        <time>2018-09-14T07:14:45Z</time>
      </trkpt>
      <trkpt lat="46.30058" lon="10.50195">
        <ele>1600.023</ele>
        <time>2018-09-14T07:15:05Z</time>
      </trkpt>
      <trkpt lat="46.30056" lon="10.50198">
        <ele>1600.039</ele>
        <time>2018-09-14T07:15:25Z</time>
      </trkpt>
      <trkpt lat="46.30055" lon="10.50201">
        <ele>1600.056</ele>
        <time>2018-09-14T07:15:45Z</time>
      </trkpt>
      <trkpt lat="46.30052" lon="10.5021">
        <ele>1600.069</ele>
        <time>2018-09-14T07:16:05Z</time>
      </trkpt>
      <trkpt lat="46.3005" lon="10.50219">
        <ele>1600.062</ele>
        <time>2018-09-14T07:16:25Z</time>
      </trkpt>
      <trkpt lat="46.30048" lon="10.50224">
        <ele>1600.045</ele>
        <time>2018-09-14T07:16:45Z</time>
      </trkpt>
      <trkpt lat="46.30046" lon="10.5023">
        <ele>1600.083</ele>
        <time>2018-09-14T07:17:05Z</time>
      </trkpt>
      <trkpt lat="46.30045" lon="10.50233">
        <ele>1600.06</ele>
        <time>2018-09-14T07:17:25Z</time>
      </trkpt>
      <trkpt lat="46.30042" lon="10.50239">
        <ele>1600.045</ele>
        <time>2018-09-14T07:17:45Z</time>
      </trkpt>
      <trkpt lat="46.30042" lon="10.5024">
        <ele>1600.047</ele>
        <time>2018-09-14T07:18:05Z</time>
      </trkpt>
      <trkpt lat="46.30037" lon="10.50263">
        <ele>1600.011</ele>
        <time>2018-09-14T07:18:25Z</time>
      </trkpt>
      <trkpt lat="46.30036" lon="10.50269">
        <ele>1600.008</ele>
        <time>2018-09-14T07:18:45Z</time>
      </trkpt>
      <trkpt lat="46.30033" lon="10.50279">
        <ele>1600.036</ele>
        <time>2018-09-14T07:19:05Z</time>
      </trkpt>
      <trkpt lat="46.30027" lon="10.50309">
        <ele>1600.022</ele>
        <time>2018-09-14T07:19:25Z</time>
      </trkpt>
      <trkpt lat="46.30024" lon="10.50322">
        <ele>1600.049</ele>
        <time>2018-09-14T07:19:45Z</time>
      </trkpt>
      <trkpt lat="46.30021" lon="10.50336">
        <ele>1600.032</ele>
        <time>2018-09-14T07:20:05Z</time>
      </trkpt>
      <trkpt lat="46.30021" lon="10.50341">
        <ele>1600.065</ele>
        <time>2018-09-14T07:20:25Z</time>
      </trkpt>
      <trkpt lat="46.3002" lon="10.50345">
        <ele>1600.038</ele>
        <time>2018-09-14T07:20:45Z</time>
      </trkpt>
      <trkpt lat="46.3002" lon="10.50348">
        <ele>1600.026</ele>
        <time>2018-09-14T07:21:05Z</time>
      </trkpt>
      <trkpt lat="46.30019" lon="10.50361">
        <ele>1600.033</ele>
        <time>2018-09-14T07:21:25Z</time>
      </trkpt>
      <trkpt lat="46.30019" lon="10.50373">
        <ele>1600.037</ele>
        <time>2018-09-14T07:21:45Z</time>
      </trkpt>
      <trkpt lat="46.30018" lon="10.50377">
        <ele>1600.049</ele>
        <time>2018-09-14T07:22:05Z</time>
      </trkpt>
      <trkpt lat="46.30018" lon="10.5038">
        <ele>1600.013</ele>
        <time>2018-09-14T07:22:25Z</time>
      </trkpt>
      <trkpt lat="46.30018" lon="10.5038">
        <ele>1600.008</ele>
        <time>2018-09-14T07:22:45Z</time>
      </trkpt>
      <trkpt lat="46.30012" lon="10.50397">
        <ele>1600.015</ele>
        <time>2018-09-14T07:23:05Z</time>
      </trkpt>
      <trkpt lat="46.30005" lon="10.50408">
        <ele>1600.011</ele>
        <time>2018-09-14T07:23:25Z</time>
      </trkpt>
      <trkpt lat="46.29999" lon="10.5042">
        <ele>1600.058</ele>
        <time>2018-09-14T07:23:45Z</time>
      </trkpt>
      <trkpt lat="46.29995" lon="10.50428">
        <ele>1600.061</ele>
        <time>2018-09-14T07:24:05Z</time>
      </trkpt>
      <trkpt lat="46.29992" lon="10.50433">
        <ele>1600.034</ele>
        <time>2018-09-14T07:24:25Z</time>
      </trkpt>
      <trkpt lat="46.29989" lon="10.50437">
        <ele>1600.037</ele>
        <time>2018-09-14T07:24:45Z</time>
      </trkpt>
      <trkpt lat="46.29923" lon="10.50528">
        <ele>1600.245</ele>
        <time>2018-09-14T07:25:05Z</time>
      </trkpt>
      <trkpt lat="46.29919" lon="10.50533">
        <ele>1600.362</ele>
        <time>2018-09-14T07:25:25Z</time>
      </trkpt>
      <trkpt lat="46.29914" lon="10.50537">
        <ele>1600.388</ele>
        <time>2018-09-14T07:25:45Z</time>
      </trkpt>
      <trkpt lat="46.29909" lon="10.50541">
        <ele>1600.324</ele>
        <time>2018-09-14T07:26:05Z</time>
      </trkpt>
      <trkpt lat="46.29903" lon="10.50547">
        <ele>1600.326</ele>
        <time>2018-09-14T07:26:25Z</time>
      </trkpt>
      <trkpt lat="46.29888" lon="10.5056">
        <ele>1600.108</ele>
        <time>2018-09-14T07:26:45Z</time>
      </trkpt>
      <trkpt lat="46.29883" lon="10.50564">
        <ele>1600.25</ele>
        <time>2018-09-14T07:27:05Z</time>
      </trkpt>
      <trkpt lat="46.29875" lon="10.50572">
        <ele>1600.216</ele>
        <time>2018-09-14T07:27:25Z</time>
      </trkpt>
      <trkpt lat="46.2987" lon="10.50577">
        <ele>1600.243</ele>
        <time>2018-09-14T07:27:45Z</time>
      </trkpt>
      <trkpt lat="46.29864" lon="10.50583">
        <ele>1600.026</ele>
        <time>2018-09-14T07:28:05Z</time>
      </trkpt>
      <trkpt lat="46.29858" lon="10.50588">
        <ele>1600.139</ele>
        <time>2018-09-14T07:28:25Z</time>
      </trkpt>
      <trkpt lat="46.29847" lon="10.50594">
        <ele>1600.122</ele>
        <time>2018-09-14T07:28:45Z</time>
      </trkpt>
      <trkpt lat="46.29831" lon="10.50601">
        <ele>1600.08</ele>
        <time>2018-09-14T07:29:05Z</time>
      </trkpt>
      <trkpt lat="46.2982" lon="10.50605">
        <ele>1600.047</ele>
        <time>2018-09-14T07:29:25Z</time>
      </trkpt>
      <trkpt lat="46.29786" lon="10.50621">
        <ele>1600.021</ele>
        <time>2018-09-14T07:29:45Z</time>
      </trkpt>
      <trkpt lat="46.29759" lon="10.50624">
        <ele>1600.041</ele>
        <time>2018-09-14T07:30:05Z</time>
      </trkpt>
      <trkpt lat="46.29752" lon="10.50631">
        <ele>1600.005</ele>
        <time>2018-09-14T07:30:25Z</time>
      </trkpt>
      <trkpt lat="46.29745" lon="10.50637">
        <ele>1600.008</ele>
        <time>2018-09-14T07:30:45Z</time>
      </trkpt>
      <trkpt lat="46.29733" lon="10.50648">
        <ele>1600.024</ele>
        <time>2018-09-14T07:31:05Z</time>
      </trkpt>
      <trkpt lat="46.29731" lon="10.50649">
        <ele>1600.03</ele>
        <time>2018-09-14T07:31:25Z</time>
      </trkpt>
      <trkpt lat="46.29711" lon="10.5066">
        <ele>1600.027</ele>
        <time>2018-09-14T07:31:45Z</time>
      </trkpt>
      <trkpt lat="46.29696" lon="10.50668">
        <ele>1600.08</ele>
        <time>2018-09-14T07:32:05Z</time>
      </trkpt>
      <trkpt lat="46.29692" lon="10.5067">
        <ele>1600.073</ele>
        <time>2018-09-14T07:32:25Z</time>
      </trkpt>
      <trkpt lat="46.29678" lon="10.50683">
        <ele>1600.036</ele>
        <time>2018-09-14T07:32:45Z</time>
      </trkpt>
      <trkpt lat="46.29675" lon="10.50686">
        <ele>1600.034</ele>
        <time>2018-09-14T07:33:05Z</time>
      </trkpt>
      <trkpt lat="46.29675" lon="10.50686">
        <ele>1600.061</ele>
        <time>2018-09-14T07:33:25Z</time>
      </trkpt>
      <trkpt lat="46.29666" lon="10.50693">
        <ele>1600.026</ele>
        <time>2018-09-14T07:33:45Z</time>
      </trkpt>
      <trkpt lat="46.29649" lon="10.50711">
        <ele>1600.047</ele>
        <time>2018-09-14T07:34:05Z</time>
      </trkpt>
      <trkpt lat="46.29642" lon="10.50724">
        <ele>1600.011</ele>
        <time>2018-09-14T07:34:25Z</time>
      </trkpt>
      <trkpt lat="46.29625" lon="10.50737">
        <ele>1600.008</ele>
        <time>2018-09-14T07:34:45Z</time>
      </trkpt>
      <trkpt lat="46.29615" lon="10.50748">
        <ele>1600.084</ele>
        <time>2018-09-14T07:35:05Z</time>
      </trkpt>
      <trkpt lat="46.29597" lon="10.50758">
        <ele>1600.02</ele>
        <time>2018-09-14T07:35:25Z</time>
      </trkpt>
      <trkpt lat="46.29594" lon="10.5076">
        <ele>1600.047</ele>
        <time>2018-09-14T07:35:45Z</time>
      </trkpt>
      <trkpt lat="46.29576" lon="10.50776">
        <ele>1600.09</ele>
        <time>2018-09-14T07:36:05Z</time>
      </trkpt>
      <trkpt lat="46.29551" lon="10.50795">
        <ele>1600.063</ele>
        <time>2018-09-14T07:36:25Z</time>
      </trkpt>
      <trkpt lat="46.2953" lon="10.50822">
        <ele>1600.086</ele>
        <time>2018-09-14T07:36:45Z</time>
      </trkpt>
      <trkpt lat="46.29523" lon="10.50844">
        <ele>1600.054</ele>
        <time>2018-09-14T07:37:05Z</time>
      </trkpt>
      <trkpt lat="46.29512" lon="10.50869">
        <ele>1600.051</ele>
        <time>2018-09-14T07:37:25Z</time>
      </trkpt>
      <trkpt lat="46.29503" lon="10.50891">
        <ele>1600.041</ele>
        <time>2018-09-14T07:37:45Z</time>
      </trkpt>
      <trkpt lat="46.29499" lon="10.50898">
        <ele>1600.081</ele>
        <time>2018-09-14T07:38:05Z</time>
      </trkpt>
      <trkpt lat="46.29493" lon="10.50907">
        <ele>1600.009</ele>
        <time>2018-09-14T07:38:25Z</time>
      </trkpt>
      <trkpt lat="46.29482" lon="10.50918">
        <ele>1600.008</ele>
        <time>2018-09-14T07:38:45Z</time>
      </trkpt>
      <trkpt lat="46.29478" lon="10.50923">
        <ele>1600.056</ele>
        <time>2018-09-14T07:39:05Z</time>
      </trkpt>
      <trkpt lat="46.29463" lon="10.50943">
        <ele>1599.792</ele>
        <time>2018-09-14T07:39:25Z</time>
      </trkpt>
      <trkpt lat="46.29421" lon="10.50993">
        <ele>1599.779</ele>
        <time>2018-09-14T07:39:45Z</time>
      </trkpt>
      <trkpt lat="46.2942" lon="10.51002">
        <ele>1600.732</ele>
        <time>2018-09-14T07:40:05Z</time>
      </trkpt>
      <trkpt lat="46.29426" lon="10.51012">
        <ele>1602.665</ele>
        <time>2018-09-14T07:40:25Z</time>
      </trkpt>
      <trkpt lat="46.29435" lon="10.51018">
        <ele>1604.948</ele>
        <time>2018-09-14T07:40:45Z</time>
      </trkpt>
      <trkpt lat="46.29445" lon="10.5102">
        <ele>1607.216</ele>
        <time>2018-09-14T07:41:05Z</time>
      </trkpt>
      <trkpt lat="46.29457" lon="10.5101">
        <ele>1606.643</ele>
        <time>2018-09-14T07:41:25Z</time>
      </trkpt>
      <trkpt lat="46.29464" lon="10.50998">
        <ele>1605.564</ele>
        <time>2018-09-14T07:41:45Z</time>
      </trkpt>
      <trkpt lat="46.29474" lon="10.50991">
        <ele>1605.306</ele>
        <time>2018-09-14T07:42:05Z</time>
      </trkpt>
      <trkpt lat="46.29491" lon="10.51">
        <ele>1609.316</ele>
        <time>2018-09-14T07:42:25Z</time>
      </trkpt>
      <trkpt lat="46.29513" lon="10.5102">
        <ele>1620.308</ele>
        <time>2018-09-14T07:42:45Z</time>
      </trkpt>
      <trkpt lat="46.29524" lon="10.51024">
        <ele>1625.618</ele>
        <time>2018-09-14T07:43:05Z</time>
      </trkpt>
      <trkpt lat="46.29543" lon="10.51036">
        <ele>1632.654</ele>
        <time>2018-09-14T07:43:25Z</time>
      </trkpt>
      <trkpt lat="46.29548" lon="10.51045">
        <ele>1635.981</ele>
        <time>2018-09-14T07:43:45Z</time>
      </trkpt>
      <trkpt lat="46.29546" lon="10.51059">
        <ele>1638.724</ele>
        <time>2018-09-14T07:44:05Z</time>
      </trkpt>
      <trkpt lat="46.29537" lon="10.51071">
        <ele>1639.457</ele>
        <time>2018-09-14T07:44:25Z</time>
      </trkpt>
      <trkpt lat="46.29531" lon="10.5108">
        <ele>1639.86</ele>
        <time>2018-09-14T07:44:45Z</time>
      </trkpt>
      <trkpt lat="46.29527" lon="10.51093">
        <ele>1641.978</ele>
        <time>2018-09-14T07:45:05Z</time>
      </trkpt>
      <trkpt lat="46.2952" lon="10.51106">
        <ele>1641.385</ele>
        <time>2018-09-14T07:45:25Z</time>
      </trkpt>
      <trkpt lat="46.29517" lon="10.51116">
        <ele>1642.149</ele>
        <time>2018-09-14T07:45:45Z</time>
      </trkpt>
      <trkpt lat="46.29516" lon="10.5115">
        <ele>1648.602</ele>
        <time>2018-09-14T07:46:05Z</time>
      </trkpt>
      <trkpt lat="46.29513" lon="10.51176">
        <ele>1653.222</ele>
        <time>2018-09-14T07:46:25Z</time>
      </trkpt>
      <trkpt lat="46.29509" lon="10.512">
        <ele>1656.008</ele>
        <time>2018-09-14T07:46:45Z</time>
      </trkpt>
      <trkpt lat="46.29503" lon="10.51219">
        <ele>1656.976</ele>
        <time>2018-09-14T07:47:05Z</time>
      </trkpt>
      <trkpt lat="46.29499" lon="10.51232">
        <ele>1657.572</ele>
        <time>2018-09-14T07:47:25Z</time>
      </trkpt>
      <trkpt lat="46.29498" lon="10.51243">
        <ele>1658.919</ele>
        <time>2018-09-14T07:47:45Z</time>
      </trkpt>
      <trkpt lat="46.29499" lon="10.51255">
        <ele>1661.232</ele>
        <time>2018-09-14T07:48:05Z</time>
      </trkpt>
      <trkpt lat="46.29501" lon="10.51261">
        <ele>1663.735</ele>
        <time>2018-09-14T07:48:25Z</time>
      </trkpt>
      <trkpt lat="46.29507" lon="10.51256">
        <ele>1666.038</ele>
        <time>2018-09-14T07:48:45Z</time>
      </trkpt>
      <trkpt lat="46.29511" lon="10.5124">
        <ele>1665.166</ele>
        <time>2018-09-14T07:49:05Z</time>
      </trkpt>
      <trkpt lat="46.29519" lon="10.51225">
        <ele>1666.113</ele>
        <time>2018-09-14T07:49:25Z</time>
      </trkpt>
      <trkpt lat="46.29531" lon="10.51211">
        <ele>1669.487</ele>
        <time>2018-09-14T07:49:45Z</time>
      </trkpt>
      <trkpt lat="46.29553" lon="10.5119">
        <ele>1676.942</ele>
        <time>2018-09-14T07:50:05Z</time>
      </trkpt>
      <trkpt lat="46.29561" lon="10.51183">
        <ele>1679.026</ele>
        <time>2018-09-14T07:50:25Z</time>
      </trkpt>
      <trkpt lat="46.29571" lon="10.51175">
        <ele>1681.008</ele>
        <time>2018-09-14T07:50:45Z</time>
      </trkpt>
      <trkpt lat="46.29578" lon="10.51166">
        <ele>1681.29</ele>
        <time>2018-09-14T07:51:05Z</time>
      </trkpt>
      <trkpt lat="46.29585" lon="10.51158">
        <ele>1681.476</ele>
        <time>2018-09-14T07:51:25Z</time>
      </trkpt>
      <trkpt lat="46.29602" lon="10.51154">
        <ele>1687.773</ele>
        <time>2018-09-14T07:51:45Z</time>
      </trkpt>
      <trkpt lat="46.29621" lon="10.51152">
        <ele>1694.626</ele>
        <time>2018-09-14T07:52:05Z</time>
      </trkpt>
      <trkpt lat="46.29632" lon="10.51152">
        <ele>1698.339</ele>
        <time>2018-09-14T07:52:25Z</time>
      </trkpt>
      <trkpt lat="46.2964" lon="10.51149">
        <ele>1700.092</ele>
        <time>2018-09-14T07:52:45Z</time>
      </trkpt>
      <trkpt lat="46.29645" lon="10.51144">
        <ele>1699.54</ele>
        <time>2018-09-14T07:53:05Z</time>
      </trkpt>
      <trkpt lat="46.2965" lon="10.51137">
        <ele>1698.677</ele>
        <time>2018-09-14T07:53:25Z</time>
      </trkpt>
      <trkpt lat="46.29658" lon="10.51142">
        <ele>1701.212</ele>
        <time>2018-09-14T07:53:45Z</time>
      </trkpt>
      <trkpt lat="46.29672" lon="10.51142">
        <ele>1704.132</ele>
        <time>2018-09-14T07:54:05Z</time>
      </trkpt>
      <trkpt lat="46.29688" lon="10.51132">
        <ele>1706.105</ele>
        <time>2018-09-14T07:54:25Z</time>
      </trkpt>
      <trkpt lat="46.297" lon="10.5112">
        <ele>1707.308</ele>
        <time>2018-09-14T07:54:45Z</time>
      </trkpt>
      <trkpt lat="46.29721" lon="10.51108">
        <ele>1711.673</ele>
        <time>2018-09-14T07:55:05Z</time>
      </trkpt>
      <trkpt lat="46.29743" lon="10.51109">
        <ele>1719.819</ele>
        <time>2018-09-14T07:55:25Z</time>
      </trkpt>
      <trkpt lat="46.29762" lon="10.51108">
        <ele>1723.196</ele>
        <time>2018-09-14T07:55:45Z</time>
      </trkpt>
      <trkpt lat="46.29778" lon="10.51099">
        <ele>1722.189</ele>
        <time>2018-09-14T07:56:05Z</time>
      </trkpt>
      <trkpt lat="46.29786" lon="10.51094">
        <ele>1722.652</ele>
        <time>2018-09-14T07:56:25Z</time>
      </trkpt>
      <trkpt lat="46.2981" lon="10.51077">
        <ele>1724.545</ele>
        <time>2018-09-14T07:56:45Z</time>
      </trkpt>
      <trkpt lat="46.29812" lon="10.51075">
        <ele>1724.623</ele>
        <time>2018-09-14T07:57:05Z</time>
      </trkpt>
      <trkpt lat="46.29822" lon="10.51071">
        <ele>1726.31</ele>
        <time>2018-09-14T07:57:25Z</time>
      </trkpt>
      <trkpt lat="46.29837" lon="10.51063">
        <ele>1728.438</ele>
        <time>2018-09-14T07:57:45Z</time>
      </trkpt>
      <trkpt lat="46.29845" lon="10.51056">
        <ele>1729.07</ele>
        <time>2018-09-14T07:58:05Z</time>
      </trkpt>
      <trkpt lat="46.29853" lon="10.51049">
        <ele>1730.317</ele>
        <time>2018-09-14T07:58:25Z</time>
      </trkpt>
      <trkpt lat="46.29862" lon="10.51054">
        <ele>1735.008</ele>
        <time>2018-09-14T07:58:45Z</time>
      </trkpt>
      <trkpt lat="46.29867" lon="10.51069">
        <ele>1741.135</ele>
        <time>2018-09-14T07:59:05Z</time>
      </trkpt>
      <trkpt lat="46.2986" lon="10.51081">
        <ele>1742.081</ele>
        <time>2018-09-14T07:59:25Z</time>
      </trkpt>
      <trkpt lat="46.29851" lon="10.51094">
        <ele>1742.238</ele>
        <time>2018-09-14T07:59:45Z</time>
      </trkpt>
      <trkpt lat="46.29845" lon="10.51109">
        <ele>1744.371</ele>
        <time>2018-09-14T08:00:05Z</time>
      </trkpt>
      <trkpt lat="46.29838" lon="10.51129">
        <ele>1747.924</ele>
        <time>2018-09-14T08:00:25Z</time>
      </trkpt>
      <trkpt lat="46.29832" lon="10.51146">
        <ele>1750.537</ele>
        <time>2018-09-14T08:00:45Z</time>
      </trkpt>
      <trkpt lat="46.29824" lon="10.51159">
        <ele>1750.015</ele>
        <time>2018-09-14T08:01:05Z</time>
      </trkpt>
      <trkpt lat="46.29816" lon="10.51167">
        <ele>1749.862</ele>
        <time>2018-09-14T08:01:25Z</time>
      </trkpt>
      <trkpt lat="46.29812" lon="10.51184">
        <ele>1751.568</ele>
        <time>2018-09-14T08:01:45Z</time>
      </trkpt>
      <trkpt lat="46.29808" lon="10.51202">
        <ele>1753.942</ele>
        <time>2018-09-14T08:02:05Z</time>
      </trkpt>
      <trkpt lat="46.29807" lon="10.51218">
        <ele>1756.426</ele>
        <time>2018-09-14T08:02:25Z</time>
      </trkpt>
      <trkpt lat="46.29814" lon="10.51234">
        <ele>1760.308</ele>
        <time>2018-09-14T08:02:45Z</time>
      </trkpt>
      <trkpt lat="46.29835" lon="10.51239">
        <ele>1764.918</ele>
        <time>2018-09-14T08:03:05Z</time>
      </trkpt>
      <trkpt lat="46.29854" lon="10.51237">
        <ele>1772.334</ele>
        <time>2018-09-14T08:03:25Z</time>
      </trkpt>
      <trkpt lat="46.29866" lon="10.51231">
        <ele>1775.531</ele>
        <time>2018-09-14T08:03:45Z</time>
      </trkpt>
      <trkpt lat="46.29874" lon="10.51226">
        <ele>1777.244</ele>
        <time>2018-09-14T08:04:05Z</time>
      </trkpt>
      <trkpt lat="46.29887" lon="10.51223">
        <ele>1780.517</ele>
        <time>2018-09-14T08:04:25Z</time>
      </trkpt>
      <trkpt lat="46.29898" lon="10.5123">
        <ele>1787.17</ele>
        <time>2018-09-14T08:04:45Z</time>
      </trkpt>
      <trkpt lat="46.29905" lon="10.51239">
        <ele>1792.388</ele>
        <time>2018-09-14T08:05:05Z</time>
      </trkpt>
      <trkpt lat="46.29907" lon="10.51258">
        <ele>1796.355</ele>
        <time>2018-09-14T08:05:25Z</time>
      </trkpt>
      <trkpt lat="46.29904" lon="10.51273">
        <ele>1797.432</ele>
        <time>2018-09-14T08:05:45Z</time>
      </trkpt>
      <trkpt lat="46.29906" lon="10.51289">
        <ele>1801.092</ele>
        <time>2018-09-14T08:06:05Z</time>
      </trkpt>
      <trkpt lat="46.29914" lon="10.51295">
        <ele>1805.211</ele>
        <time>2018-09-14T08:06:25Z</time>
      </trkpt>
      <trkpt lat="46.29927" lon="10.51292">
        <ele>1808.608</ele>
        <time>2018-09-14T08:06:45Z</time>
      </trkpt>
      <trkpt lat="46.29936" lon="10.51272">
        <ele>1808.195</ele>
        <time>2018-09-14T08:07:05Z</time>
      </trkpt>
      <trkpt lat="46.29945" lon="10.51258">
        <ele>1809.091</ele>
        <time>2018-09-14T08:07:25Z</time>
      </trkpt>
      <trkpt lat="46.29948" lon="10.51235">
        <ele>1807.818</ele>
        <time>2018-09-14T08:07:45Z</time>
      </trkpt>
      <trkpt lat="46.29971" lon="10.51197">
        <ele>1813.721</ele>
        <time>2018-09-14T08:08:05Z</time>
      </trkpt>
      <trkpt lat="46.29985" lon="10.51188">
        <ele>1819.554</ele>
        <time>2018-09-14T08:08:25Z</time>
      </trkpt>
      <trkpt lat="46.29998" lon="10.5118">
        <ele>1824.867</ele>
        <time>2018-09-14T08:08:45Z</time>
      </trkpt>
      <trkpt lat="46.3001" lon="10.51173">
        <ele>1832.785</ele>
        <time>2018-09-14T08:09:05Z</time>
      </trkpt>
      <trkpt lat="46.3003" lon="10.51161">
        <ele>1844.842</ele>
        <time>2018-09-14T08:09:25Z</time>
      </trkpt>
      <trkpt lat="46.30036" lon="10.51153">
        <ele>1847.035</ele>
        <time>2018-09-14T08:09:45Z</time>
      </trkpt>
      <trkpt lat="46.30041" lon="10.51144">
        <ele>1849.186</ele>
        <time>2018-09-14T08:10:05Z</time>
      </trkpt>
      <trkpt lat="46.30046" lon="10.51173">
        <ele>1855.114</ele>
        <time>2018-09-14T08:10:25Z</time>
      </trkpt>
      <trkpt lat="46.30043" lon="10.51299">
        <ele>1869.408</ele>
        <time>2018-09-14T08:10:45Z</time>
      </trkpt>
      <trkpt lat="46.30043" lon="10.51334">
        <ele>1876.195</ele>
        <time>2018-09-14T08:11:05Z</time>
      </trkpt>
      <trkpt lat="46.30043" lon="10.51365">
        <ele>1880.721</ele>
        <time>2018-09-14T08:11:25Z</time>
      </trkpt>
      <trkpt lat="46.30042" lon="10.51388">
        <ele>1883.578</ele>
        <time>2018-09-14T08:11:45Z</time>
      </trkpt>
      <trkpt lat="46.30033" lon="10.51413">
        <ele>1884.731</ele>
        <time>2018-09-14T08:12:05Z</time>
      </trkpt>
      <trkpt lat="46.3001" lon="10.51463">
        <ele>1889.334</ele>
        <time>2018-09-14T08:12:25Z</time>
      </trkpt>
      <trkpt lat="46.29994" lon="10.51484">
        <ele>1891.267</ele>
        <time>2018-09-14T08:12:45Z</time>
      </trkpt>
      <trkpt lat="46.29986" lon="10.51505">
        <ele>1896.915</ele>
        <time>2018-09-14T08:13:05Z</time>
      </trkpt>
      <trkpt lat="46.29979" lon="10.51528">
        <ele>1903.232</ele>
        <time>2018-09-14T08:13:25Z</time>
      </trkpt>
      <trkpt lat="46.29969" lon="10.51556">
        <ele>1906.777</ele>
        <time>2018-09-14T08:13:45Z</time>
      </trkpt>
      <trkpt lat="46.29962" lon="10.51573">
        <ele>1910.561</ele>
        <time>2018-09-14T08:14:05Z</time>
      </trkpt>
      <trkpt lat="46.29953" lon="10.51587">
        <ele>1913.627</ele>
        <time>2018-09-14T08:14:25Z</time>
      </trkpt>
      <trkpt lat="46.29942" lon="10.51593">
        <ele>1914.208</ele>
        <time>2018-09-14T08:14:45Z</time>
      </trkpt>
      <trkpt lat="46.29924" lon="10.51602">
        <ele>1916.269</ele>
        <time>2018-09-14T08:15:05Z</time>
      </trkpt>
      <trkpt lat="46.29912" lon="10.51611">
        <ele>1916.745</ele>
        <time>2018-09-14T08:15:25Z</time>
      </trkpt>
      <trkpt lat="46.29898" lon="10.51618">
        <ele>1916.012</ele>
        <time>2018-09-14T08:15:45Z</time>
      </trkpt>
      <trkpt lat="46.29879" lon="10.51645">
        <ele>1918.745</ele>
        <time>2018-09-14T08:16:05Z</time>
      </trkpt>
      <trkpt lat="46.29866" lon="10.51658">
        <ele>1918.288</ele>
        <time>2018-09-14T08:16:25Z</time>
      </trkpt>
      <trkpt lat="46.29847" lon="10.51695">
        <ele>1922.461</ele>
        <time>2018-09-14T08:16:45Z</time>
      </trkpt>
      <trkpt lat="46.29838" lon="10.51707">
        <ele>1923.019</ele>
        <time>2018-09-14T08:17:05Z</time>
      </trkpt>
      <trkpt lat="46.29828" lon="10.51721">
        <ele>1923.546</ele>
        <time>2018-09-14T08:17:25Z</time>
      </trkpt>
      <trkpt lat="46.29821" lon="10.51735">
        <ele>1926.039</ele>
        <time>2018-09-14T08:17:45Z</time>
      </trkpt>
      <trkpt lat="46.29813" lon="10.51746">
        <ele>1927.401</ele>
        <time>2018-09-14T08:18:05Z</time>
      </trkpt>
      <trkpt lat="46.29813" lon="10.51747">
        <ele>1927.521</ele>
        <time>2018-09-14T08:18:25Z</time>
      </trkpt>
      <trkpt lat="46.29815" lon="10.51747">
        <ele>1928.408</ele>
        <time>2018-09-14T08:18:45Z</time>
      </trkpt>
      <trkpt lat="46.29818" lon="10.51748">
        <ele>1929.545</ele>
        <time>2018-09-14T08:19:05Z</time>
      </trkpt>
      <trkpt lat="46.29818" lon="10.51749">
        <ele>1929.621</ele>
        <time>2018-09-14T08:19:25Z</time>
      </trkpt>
      <trkpt lat="46.29818" lon="10.51749">
        <ele>1929.738</ele>
        <time>2018-09-14T08:19:45Z</time>
      </trkpt>
      <trkpt lat="46.29819" lon="10.51749">
        <ele>1929.951</ele>
        <time>2018-09-14T08:20:05Z</time>
      </trkpt>
      <trkpt lat="46.29823" lon="10.51748">
        <ele>1931.114</ele>
        <time>2018-09-14T08:20:25Z</time>
      </trkpt>
      <trkpt lat="46.2983" lon="10.51745">
        <ele>1932.117</ele>
        <time>2018-09-14T08:20:45Z</time>
      </trkpt>
      <trkpt lat="46.29834" lon="10.51742">
        <ele>1932.595</ele>
        <time>2018-09-14T08:21:05Z</time>
      </trkpt>
      <trkpt lat="46.29839" lon="10.51738">
        <ele>1933.342</ele>
        <time>2018-09-14T08:21:25Z</time>
      </trkpt>
      <trkpt lat="46.29842" lon="10.51734">
        <ele>1933.547</ele>
        <time>2018-09-14T08:21:45Z</time>
      </trkpt>
      <trkpt lat="46.29843" lon="10.51732">
        <ele>1933.529</ele>
        <time>2018-09-14T08:22:05Z</time>
      </trkpt>
      <trkpt lat="46.29862" lon="10.51716">
        <ele>1935.821</ele>
        <time>2018-09-14T08:22:25Z</time>
      </trkpt>
      <trkpt lat="46.29868" lon="10.51712">
        <ele>1937.308</ele>
        <time>2018-09-14T08:22:45Z</time>
      </trkpt>
      <trkpt lat="46.29879" lon="10.51709">
        <ele>1940.766</ele>
        <time>2018-09-14T08:23:05Z</time>
      </trkpt>
      <trkpt lat="46.29889" lon="10.51705">
        <ele>1944.262</ele>
        <time>2018-09-14T08:23:25Z</time>
      </trkpt>
      <trkpt lat="46.29904" lon="10.51701">
        <ele>1947.349</ele>
        <time>2018-09-14T08:23:45Z</time>
      </trkpt>
      <trkpt lat="46.29917" lon="10.51698">
        <ele>1951.292</ele>
        <time>2018-09-14T08:24:05Z</time>
      </trkpt>
      <trkpt lat="46.29934" lon="10.51695">
        <ele>1953.975</ele>
        <time>2018-09-14T08:24:25Z</time>
      </trkpt>
      <trkpt lat="46.29948" lon="10.51694">
        <ele>1956.918</ele>
        <time>2018-09-14T08:24:45Z</time>
      </trkpt>
      <trkpt lat="46.29958" lon="10.51693">
        <ele>1959.786</ele>
        <time>2018-09-14T08:25:05Z</time>
      </trkpt>
      <trkpt lat="46.29975" lon="10.51686">
        <ele>1962.243</ele>
        <time>2018-09-14T08:25:25Z</time>
      </trkpt>
      <trkpt lat="46.29977" lon="10.51684">
        <ele>1962.368</ele>
        <time>2018-09-14T08:25:45Z</time>
      </trkpt>
      <trkpt lat="46.2999" lon="10.51676">
        <ele>1964.442</ele>
        <time>2018-09-14T08:26:05Z</time>
      </trkpt>
      <trkpt lat="46.29996" lon="10.5167">
        <ele>1965.226</ele>
        <time>2018-09-14T08:26:25Z</time>
      </trkpt>
      <trkpt lat="46.30004" lon="10.51663">
        <ele>1967.508</ele>
        <time>2018-09-14T08:26:45Z</time>
      </trkpt>
      <trkpt lat="46.30004" lon="10.51663">
        <ele>1967.758</ele>
        <time>2018-09-14T08:27:05Z</time>
      </trkpt>
      <trkpt lat="46.30016" lon="10.51652">
        <ele>1971.544</ele>
        <time>2018-09-14T08:27:25Z</time>
      </trkpt>
      <trkpt lat="46.30031" lon="10.51638">
        <ele>1975.561</ele>
        <time>2018-09-14T08:27:45Z</time>
      </trkpt>
      <trkpt lat="46.30032" lon="10.5164">
        <ele>1977.344</ele>
        <time>2018-09-14T08:28:05Z</time>
      </trkpt>
      <trkpt lat="46.30033" lon="10.51641">
        <ele>1979.017</ele>
        <time>2018-09-14T08:28:25Z</time>
      </trkpt>
      <trkpt lat="46.3004" lon="10.51635">
        <ele>1983.16</ele>
        <time>2018-09-14T08:28:45Z</time>
      </trkpt>
      <trkpt lat="46.3004" lon="10.51634">
        <ele>1983.398</ele>
        <time>2018-09-14T08:29:05Z</time>
      </trkpt>
      <trkpt lat="46.30042" lon="10.51632">
        <ele>1984.085</ele>
        <time>2018-09-14T08:29:25Z</time>
      </trkpt>
      <trkpt lat="46.30043" lon="10.5163">
        <ele>1984.738</ele>
        <time>2018-09-14T08:29:45Z</time>
      </trkpt>
      <trkpt lat="46.30045" lon="10.51627">
        <ele>1985.17</ele>
        <time>2018-09-14T08:30:05Z</time>
      </trkpt>
      <trkpt lat="46.30046" lon="10.51625">
        <ele>1985.317</ele>
        <time>2018-09-14T08:30:25Z</time>
      </trkpt>
      <trkpt lat="46.3005" lon="10.5162">
        <ele>1987.608</ele>
        <time>2018-09-14T08:30:45Z</time>
      </trkpt>
      <trkpt lat="46.30054" lon="10.51615">
        <ele>1989.585</ele>
        <time>2018-09-14T08:31:05Z</time>
      </trkpt>
      <trkpt lat="46.30056" lon="10.51609">
        <ele>1988.721</ele>
        <time>2018-09-14T08:31:25Z</time>
      </trkpt>
      <trkpt lat="46.30059" lon="10.51604">
        <ele>1989.148</ele>
        <time>2018-09-14T08:31:45Z</time>
      </trkpt>
      <trkpt lat="46.30063" lon="10.51595">
        <ele>1988.631</ele>
        <time>2018-09-14T08:32:05Z</time>
      </trkpt>
      <trkpt lat="46.30062" lon="10.51581">
        <ele>1983.544</ele>
        <time>2018-09-14T08:32:25Z</time>
      </trkpt>
      <trkpt lat="46.30063" lon="10.51579">
        <ele>1983.577</ele>
        <time>2018-09-14T08:32:45Z</time>
      </trkpt>
      <trkpt lat="46.30065" lon="10.51577">
        <ele>1984.385</ele>
        <time>2018-09-14T08:33:05Z</time>
      </trkpt>
      <trkpt lat="46.30068" lon="10.51576">
        <ele>1986.612</ele>
        <time>2018-09-14T08:33:25Z</time>
      </trkpt>
      <trkpt lat="46.3007" lon="10.51578">
        <ele>1989.199</ele>
        <time>2018-09-14T08:33:45Z</time>
      </trkpt>
      <trkpt lat="46.30072" lon="10.51581">
        <ele>1991.707</ele>
        <time>2018-09-14T08:34:05Z</time>
      </trkpt>
      <trkpt lat="46.30072" lon="10.51586">
        <ele>1993.127</ele>
        <time>2018-09-14T08:34:25Z</time>
      </trkpt>
      <trkpt lat="46.3007" lon="10.51613">
        <ele>1999.608</ele>
        <time>2018-09-14T08:34:45Z</time>
      </trkpt>
      <trkpt lat="46.30069" lon="10.51622">
        <ele>2001.841</ele>
        <time>2018-09-14T08:35:05Z</time>
      </trkpt>
      <trkpt lat="46.30067" lon="10.51631">
        <ele>2003.347</ele>
        <time>2018-09-14T08:35:25Z</time>
      </trkpt>
      <trkpt lat="46.30057" lon="10.51659">
        <ele>2004.984</ele>
        <time>2018-09-14T08:35:45Z</time>
      </trkpt>
      <trkpt lat="46.30052" lon="10.51671">
        <ele>2004.627</ele>
        <time>2018-09-14T08:36:05Z</time>
      </trkpt>
      <trkpt lat="46.30042" lon="10.51705">
        <ele>2010.41</ele>
        <time>2018-09-14T08:36:25Z</time>
      </trkpt>
      <trkpt lat="46.30035" lon="10.5173">
        <ele>2014.623</ele>
        <time>2018-09-14T08:36:45Z</time>
      </trkpt>
      <trkpt lat="46.30033" lon="10.51738">
        <ele>2016.041</ele>
        <time>2018-09-14T08:37:05Z</time>
      </trkpt>
      <trkpt lat="46.30032" lon="10.51745">
        <ele>2017.368</ele>
        <time>2018-09-14T08:37:25Z</time>
      </trkpt>
      <trkpt lat="46.30031" lon="10.5175">
        <ele>2018.461</ele>
        <time>2018-09-14T08:37:45Z</time>
      </trkpt>
      <trkpt lat="46.30028" lon="10.51759">
        <ele>2019.721</ele>
        <time>2018-09-14T08:38:05Z</time>
      </trkpt>
      <trkpt lat="46.30025" lon="10.51764">
        <ele>2020.013</ele>
        <time>2018-09-14T08:38:25Z</time>
      </trkpt>
      <trkpt lat="46.3002" lon="10.51768">
        <ele>2019.008</ele>
        <time>2018-09-14T08:38:45Z</time>
      </trkpt>
      <trkpt lat="46.30016" lon="10.51774">
        <ele>2019.128</ele>
        <time>2018-09-14T08:39:05Z</time>
      </trkpt>
      <trkpt lat="46.30006" lon="10.51785">
        <ele>2018.544</ele>
        <time>2018-09-14T08:39:25Z</time>
      </trkpt>
      <trkpt lat="46.29995" lon="10.51798">
        <ele>2019.311</ele>
        <time>2018-09-14T08:39:45Z</time>
      </trkpt>
      <trkpt lat="46.29988" lon="10.51822">
        <ele>2027.534</ele>
        <time>2018-09-14T08:40:05Z</time>
      </trkpt>
      <trkpt lat="46.29981" lon="10.51838">
        <ele>2031.567</ele>
        <time>2018-09-14T08:40:25Z</time>
      </trkpt>
      <trkpt lat="46.29972" lon="10.51846">
        <ele>2030.76</ele>
        <time>2018-09-14T08:40:45Z</time>
      </trkpt>
      <trkpt lat="46.29965" lon="10.51852">
        <ele>2032.668</ele>
        <time>2018-09-14T08:41:05Z</time>
      </trkpt>
      <trkpt lat="46.29958" lon="10.51858">
        <ele>2034.675</ele>
        <time>2018-09-14T08:41:25Z</time>
      </trkpt>
      <trkpt lat="46.29949" lon="10.51865">
        <ele>2036.712</ele>
        <time>2018-09-14T08:41:45Z</time>
      </trkpt>
      <trkpt lat="46.29941" lon="10.51869">
        <ele>2037.432</ele>
        <time>2018-09-14T08:42:05Z</time>
      </trkpt>
      <trkpt lat="46.2993" lon="10.51875">
        <ele>2039.605</ele>
        <time>2018-09-14T08:42:25Z</time>
      </trkpt>
      <trkpt lat="46.29921" lon="10.51885">
        <ele>2047.008</ele>
        <time>2018-09-14T08:42:45Z</time>
      </trkpt>
      <trkpt lat="46.29913" lon="10.51888">
        <ele>2047.553</ele>
        <time>2018-09-14T08:43:05Z</time>
      </trkpt>
      <trkpt lat="46.29901" lon="10.5189">
        <ele>2043.369</ele>
        <time>2018-09-14T08:43:25Z</time>
      </trkpt>
      <trkpt lat="46.29907" lon="10.51902">
        <ele>2051.396</ele>
        <time>2018-09-14T08:43:45Z</time>
      </trkpt>
      <trkpt lat="46.29919" lon="10.51906">
        <ele>2056.179</ele>
        <time>2018-09-14T08:44:05Z</time>
      </trkpt>
      <trkpt lat="46.29927" lon="10.5191">
        <ele>2058.322</ele>
        <time>2018-09-14T08:44:25Z</time>
      </trkpt>
      <trkpt lat="46.2993" lon="10.51921">
        <ele>2063.075</ele>
        <time>2018-09-14T08:44:45Z</time>
      </trkpt>
      <trkpt lat="46.29929" lon="10.51923">
        <ele>2063.833</ele>
        <time>2018-09-14T08:45:05Z</time>
      </trkpt>
      <trkpt lat="46.29929" lon="10.51923">
        <ele>2064.15</ele>
        <time>2018-09-14T08:45:25Z</time>
      </trkpt>
      <trkpt lat="46.29925" lon="10.5193">
        <ele>2066.374</ele>
        <time>2018-09-14T08:45:45Z</time>
      </trkpt>
      <trkpt lat="46.29916" lon="10.51936">
        <ele>2066.856</ele>
        <time>2018-09-14T08:46:05Z</time>
      </trkpt>
      <trkpt lat="46.29907" lon="10.5194">
        <ele>2065.421</ele>
        <time>2018-09-14T08:46:25Z</time>
      </trkpt>
      <trkpt lat="46.29898" lon="10.51948">
        <ele>2065.108</ele>
        <time>2018-09-14T08:46:45Z</time>
      </trkpt>
      <trkpt lat="46.29897" lon="10.51951">
        <ele>2065.899</ele>
        <time>2018-09-14T08:47:05Z</time>
      </trkpt>
      <trkpt lat="46.29895" lon="10.51954">
        <ele>2066.335</ele>
        <time>2018-09-14T08:47:25Z</time>
      </trkpt>
      <trkpt lat="46.29893" lon="10.51961">
        <ele>2068.222</ele>
        <time>2018-09-14T08:47:45Z</time>
      </trkpt>
      <trkpt lat="46.29889" lon="10.51975">
        <ele>2070.845</ele>
        <time>2018-09-14T08:48:05Z</time>
      </trkpt>
      <trkpt lat="46.29886" lon="10.51999">
        <ele>2074.298</ele>
        <time>2018-09-14T08:48:25Z</time>
      </trkpt>
      <trkpt lat="46.29889" lon="10.52029">
        <ele>2082.291</ele>
        <time>2018-09-14T08:48:45Z</time>
      </trkpt>
      <trkpt lat="46.29886" lon="10.52071">
        <ele>2087.899</ele>
        <time>2018-09-14T08:49:05Z</time>
      </trkpt>
      <trkpt lat="46.29886" lon="10.52093">
        <ele>2091.286</ele>
        <time>2018-09-14T08:49:25Z</time>
      </trkpt>
      <trkpt lat="46.29884" lon="10.52131">
        <ele>2099.537</ele>
        <time>2018-09-14T08:49:45Z</time>
      </trkpt>
      <trkpt lat="46.29886" lon="10.52156">
        <ele>2107.949</ele>
        <time>2018-09-14T08:50:05Z</time>
      </trkpt>
      <trkpt lat="46.29883" lon="10.52182">
        <ele>2112.613</ele>
        <time>2018-09-14T08:50:25Z</time>
      </trkpt>
      <trkpt lat="46.29879" lon="10.52202">
        <ele>2115.108</ele>
        <time>2018-09-14T08:50:45Z</time>
      </trkpt>
      <trkpt lat="46.2988" lon="10.52226">
        <ele>2119.655</ele>
        <time>2018-09-14T08:51:05Z</time>
      </trkpt>
      <trkpt lat="46.29876" lon="10.52251">
        <ele>2123.821</ele>
        <time>2018-09-14T08:51:25Z</time>
      </trkpt>
      <trkpt lat="46.29876" lon="10.52253">
        <ele>2123.928</ele>
        <time>2018-09-14T08:51:45Z</time>
      </trkpt>
      <trkpt lat="46.29867" lon="10.52274">
        <ele>2126.041</ele>
        <time>2018-09-14T08:52:05Z</time>
      </trkpt>
      <trkpt lat="46.29865" lon="10.52278">
        <ele>2126.714</ele>
        <time>2018-09-14T08:52:25Z</time>
      </trkpt>
      <trkpt lat="46.29863" lon="10.52283">
        <ele>2126.867</ele>
        <time>2018-09-14T08:52:45Z</time>
      </trkpt>
      <trkpt lat="46.29861" lon="10.52287">
        <ele>2126.745</ele>
        <time>2018-09-14T08:53:05Z</time>
      </trkpt>
      <trkpt lat="46.29857" lon="10.52293">
        <ele>2126.162</ele>
        <time>2018-09-14T08:53:25Z</time>
      </trkpt>
      <trkpt lat="46.29855" lon="10.52296">
        <ele>2126.096</ele>
        <time>2018-09-14T08:53:45Z</time>
      </trkpt>
      <trkpt lat="46.29852" lon="10.52301">
        <ele>2125.731</ele>
        <time>2018-09-14T08:54:05Z</time>
      </trkpt>
      <trkpt lat="46.2985" lon="10.52304">
        <ele>2125.624</ele>
        <time>2018-09-14T08:54:25Z</time>
      </trkpt>
      <trkpt lat="46.29849" lon="10.52306">
        <ele>2125.608</ele>
        <time>2018-09-14T08:54:45Z</time>
      </trkpt>
      <trkpt lat="46.29848" lon="10.52307">
        <ele>2125.771</ele>
        <time>2018-09-14T08:55:05Z</time>
      </trkpt>
      <trkpt lat="46.29848" lon="10.52307">
        <ele>2125.747</ele>
        <time>2018-09-14T08:55:25Z</time>
      </trkpt>
      <trkpt lat="46.29848" lon="10.52309">
        <ele>2126.054</ele>
        <time>2018-09-14T08:55:45Z</time>
      </trkpt>
      <trkpt lat="46.29849" lon="10.52309">
        <ele>2126.447</ele>
        <time>2018-09-14T08:56:05Z</time>
      </trkpt>
      <trkpt lat="46.29851" lon="10.52307">
        <ele>2126.98</ele>
        <time>2018-09-14T08:56:25Z</time>
      </trkpt>
      <trkpt lat="46.2985" lon="10.52309">
        <ele>2127.173</ele>
        <time>2018-09-14T08:56:45Z</time>
      </trkpt>
      <trkpt lat="46.2985" lon="10.5231">
        <ele>2127.361</ele>
        <time>2018-09-14T08:57:05Z</time>
      </trkpt>
      <trkpt lat="46.2985" lon="10.52312">
        <ele>2127.888</ele>
        <time>2018-09-14T08:57:25Z</time>
      </trkpt>
      <trkpt lat="46.29851" lon="10.52313">
        <ele>2128.451</ele>
        <time>2018-09-14T08:57:45Z</time>
      </trkpt>
      <trkpt lat="46.29856" lon="10.52312">
        <ele>2130.501</ele>
        <time>2018-09-14T08:58:05Z</time>
      </trkpt>
      <trkpt lat="46.29859" lon="10.52312">
        <ele>2131.911</ele>
        <time>2018-09-14T08:58:25Z</time>
      </trkpt>
      <trkpt lat="46.29875" lon="10.52298">
        <ele>2134.808</ele>
        <time>2018-09-14T08:58:45Z</time>
      </trkpt>
      <trkpt lat="46.29888" lon="10.52287">
        <ele>2137.777</ele>
        <time>2018-09-14T08:59:05Z</time>
      </trkpt>
      <trkpt lat="46.2989" lon="10.52286">
        <ele>2137.973</ele>
        <time>2018-09-14T08:59:25Z</time>
      </trkpt>
      <trkpt lat="46.29891" lon="10.52284">
        <ele>2138.28</ele>
        <time>2018-09-14T08:59:45Z</time>
      </trkpt>
      <trkpt lat="46.29893" lon="10.52282">
        <ele>2138.693</ele>
        <time>2018-09-14T09:00:05Z</time>
      </trkpt>
      <trkpt lat="46.29895" lon="10.52281">
        <ele>2138.916</ele>
        <time>2018-09-14T09:00:25Z</time>
      </trkpt>
      <trkpt lat="46.29897" lon="10.52279">
        <ele>2139.479</ele>
        <time>2018-09-14T09:00:45Z</time>
      </trkpt>
      <trkpt lat="46.29899" lon="10.52278">
        <ele>2139.967</ele>
        <time>2018-09-14T09:01:05Z</time>
      </trkpt>
      <trkpt lat="46.29901" lon="10.52277">
        <ele>2140.424</ele>
        <time>2018-09-14T09:01:25Z</time>
      </trkpt>
      <trkpt lat="46.29902" lon="10.52276">
        <ele>2140.715</ele>
        <time>2018-09-14T09:01:45Z</time>
      </trkpt>
      <trkpt lat="46.29902" lon="10.52276">
        <ele>2140.965</ele>
        <time>2018-09-14T09:02:05Z</time>
      </trkpt>
      <trkpt lat="46.29905" lon="10.52275">
        <ele>2142.011</ele>
        <time>2018-09-14T09:02:25Z</time>
      </trkpt>
      <trkpt lat="46.29905" lon="10.52286">
        <ele>2143.608</ele>
        <time>2018-09-14T09:02:45Z</time>
      </trkpt>
      <trkpt lat="46.29905" lon="10.52288">
        <ele>2143.953</ele>
        <time>2018-09-14T09:03:05Z</time>
      </trkpt>
      <trkpt lat="46.29905" lon="10.52291">
        <ele>2144.419</ele>
        <time>2018-09-14T09:03:25Z</time>
      </trkpt>
      <trkpt lat="46.29905" lon="10.52294">
        <ele>2144.856</ele>
        <time>2018-09-14T09:03:45Z</time>
      </trkpt>
      <trkpt lat="46.29905" lon="10.52297">
        <ele>2145.159</ele>
        <time>2018-09-14T09:04:05Z</time>
      </trkpt>
      <trkpt lat="46.29905" lon="10.523">
        <ele>2145.672</ele>
        <time>2018-09-14T09:04:25Z</time>
      </trkpt>
      <trkpt lat="46.29905" lon="10.52303">
        <ele>2146.185</ele>
        <time>2018-09-14T09:04:45Z</time>
      </trkpt>
      <trkpt lat="46.29904" lon="10.52306">
        <ele>2146.513</ele>
        <time>2018-09-14T09:05:05Z</time>
      </trkpt>
      <trkpt lat="46.29904" lon="10.52309">
        <ele>2147.02</ele>
        <time>2018-09-14T09:05:25Z</time>
      </trkpt>
      <trkpt lat="46.29903" lon="10.52312">
        <ele>2147.376</ele>
        <time>2018-09-14T09:05:45Z</time>
      </trkpt>
      <trkpt lat="46.29902" lon="10.52315">
        <ele>2147.59</ele>
        <time>2018-09-14T09:06:05Z</time>
      </trkpt>
      <trkpt lat="46.29902" lon="10.52318">
        <ele>2147.819</ele>
        <time>2018-09-14T09:06:25Z</time>
      </trkpt>
      <trkpt lat="46.29901" lon="10.52321">
        <ele>2148.208</ele>
        <time>2018-09-14T09:06:45Z</time>
      </trkpt>
      <trkpt lat="46.299" lon="10.52324">
        <ele>2148.499</ele>
        <time>2018-09-14T09:07:05Z</time>
      </trkpt>
      <trkpt lat="46.29898" lon="10.52326">
        <ele>2148.575</ele>
        <time>2018-09-14T09:07:25Z</time>
      </trkpt>
      <trkpt lat="46.29897" lon="10.52328">
        <ele>2148.722</ele>
        <time>2018-09-14T09:07:45Z</time>
      </trkpt>
      <trkpt lat="46.29896" lon="10.52331">
        <ele>2149.095</ele>
        <time>2018-09-14T09:08:05Z</time>
      </trkpt>
      <trkpt lat="46.29895" lon="10.52335">
        <ele>2149.488</ele>
        <time>2018-09-14T09:08:25Z</time>
      </trkpt>
      <trkpt lat="46.29895" lon="10.52337">
        <ele>2149.921</ele>
        <time>2018-09-14T09:08:45Z</time>
      </trkpt>
      <trkpt lat="46.29896" lon="10.5234">
        <ele>2150.549</ele>
        <time>2018-09-14T09:09:05Z</time>
      </trkpt>
      <trkpt lat="46.29898" lon="10.52341">
        <ele>2151.116</ele>
        <time>2018-09-14T09:09:25Z</time>
      </trkpt>
      <trkpt lat="46.299" lon="10.5234">
        <ele>2151.433</ele>
        <time>2018-09-14T09:09:45Z</time>
      </trkpt>
      <trkpt lat="46.29903" lon="10.52339">
        <ele>2151.823</ele>
        <time>2018-09-14T09:10:05Z</time>
      </trkpt>
      <trkpt lat="46.29905" lon="10.52338">
        <ele>2152.215</ele>
        <time>2018-09-14T09:10:25Z</time>
      </trkpt>
      <trkpt lat="46.29907" lon="10.52337">
        <ele>2152.408</ele>
        <time>2018-09-14T09:10:45Z</time>
      </trkpt>
      <trkpt lat="46.29909" lon="10.52336">
        <ele>2152.745</ele>
        <time>2018-09-14T09:11:05Z</time>
      </trkpt>
      <trkpt lat="46.29911" lon="10.52334">
        <ele>2152.911</ele>
        <time>2018-09-14T09:11:25Z</time>
      </trkpt>
      <trkpt lat="46.29914" lon="10.52333">
        <ele>2153.278</ele>
        <time>2018-09-14T09:11:45Z</time>
      </trkpt>
      <trkpt lat="46.29916" lon="10.52331">
        <ele>2153.421</ele>
        <time>2018-09-14T09:12:05Z</time>
      </trkpt>
      <trkpt lat="46.29917" lon="10.5233">
        <ele>2153.664</ele>
        <time>2018-09-14T09:12:25Z</time>
      </trkpt>
      <trkpt lat="46.2992" lon="10.52329">
        <ele>2154.767</ele>
        <time>2018-09-14T09:12:45Z</time>
      </trkpt>
      <trkpt lat="46.2993" lon="10.52322">
        <ele>2159.035</ele>
        <time>2018-09-14T09:13:05Z</time>
      </trkpt>
      <trkpt lat="46.29934" lon="10.52312">
        <ele>2160.192</ele>
        <time>2018-09-14T09:13:25Z</time>
      </trkpt>
      <trkpt lat="46.29934" lon="10.52315">
        <ele>2160.474</ele>
        <time>2018-09-14T09:13:45Z</time>
      </trkpt>
      <trkpt lat="46.29934" lon="10.52318">
        <ele>2160.656</ele>
        <time>2018-09-14T09:14:05Z</time>
      </trkpt>
      <trkpt lat="46.29934" lon="10.52321">
        <ele>2160.921</ele>
        <time>2018-09-14T09:14:25Z</time>
      </trkpt>
      <trkpt lat="46.29935" lon="10.52325">
        <ele>2161.508</ele>
        <time>2018-09-14T09:14:45Z</time>
      </trkpt>
      <trkpt lat="46.29935" lon="10.52328">
        <ele>2161.999</ele>
        <time>2018-09-14T09:15:05Z</time>
      </trkpt>
      <trkpt lat="46.29935" lon="10.52331">
        <ele>2162.355</ele>
        <time>2018-09-14T09:15:25Z</time>
      </trkpt>
      <trkpt lat="46.29935" lon="10.52334">
        <ele>2162.722</ele>
        <time>2018-09-14T09:15:45Z</time>
      </trkpt>
      <trkpt lat="46.29935" lon="10.52337">
        <ele>2163.265</ele>
        <time>2018-09-14T09:16:05Z</time>
      </trkpt>
      <trkpt lat="46.29936" lon="10.5234">
        <ele>2163.748</ele>
        <time>2018-09-14T09:16:25Z</time>
      </trkpt>
      <trkpt lat="46.29937" lon="10.52344">
        <ele>2164.421</ele>
        <time>2018-09-14T09:16:45Z</time>
      </trkpt>
      <trkpt lat="46.29937" lon="10.52347">
        <ele>2165.179</ele>
        <time>2018-09-14T09:17:05Z</time>
      </trkpt>
      <trkpt lat="46.29942" lon="10.52374">
        <ele>2169.856</ele>
        <time>2018-09-14T09:17:25Z</time>
      </trkpt>
      <trkpt lat="46.29944" lon="10.52392">
        <ele>2172.262</ele>
        <time>2018-09-14T09:17:45Z</time>
      </trkpt>
      <trkpt lat="46.29944" lon="10.52414">
        <ele>2174.583</ele>
        <time>2018-09-14T09:18:05Z</time>
      </trkpt>
      <trkpt lat="46.29944" lon="10.52422">
        <ele>2175.611</ele>
        <time>2018-09-14T09:18:25Z</time>
      </trkpt>
      <trkpt lat="46.29942" lon="10.52426">
        <ele>2176.008</ele>
        <time>2018-09-14T09:18:45Z</time>
      </trkpt>
      <trkpt lat="46.2994" lon="10.52436">
        <ele>2176.898</ele>
        <time>2018-09-14T09:19:05Z</time>
      </trkpt>
      <trkpt lat="46.29934" lon="10.52447">
        <ele>2176.714</ele>
        <time>2018-09-14T09:19:25Z</time>
      </trkpt>
      <trkpt lat="46.2993" lon="10.52459">
        <ele>2177.951</ele>
        <time>2018-09-14T09:19:45Z</time>
      </trkpt>
      <trkpt lat="46.29926" lon="10.52461">
        <ele>2176.324</ele>
        <time>2018-09-14T09:20:05Z</time>
      </trkpt>
      <trkpt lat="46.29921" lon="10.52467">
        <ele>2175.627</ele>
        <time>2018-09-14T09:20:25Z</time>
      </trkpt>
      <trkpt lat="46.29913" lon="10.52474">
        <ele>2175.34</ele>
        <time>2018-09-14T09:20:45Z</time>
      </trkpt>
      <trkpt lat="46.29908" lon="10.52481">
        <ele>2176.738</ele>
        <time>2018-09-14T09:21:05Z</time>
      </trkpt>
      <trkpt lat="46.29907" lon="10.52487">
        <ele>2178.895</ele>
        <time>2018-09-14T09:21:25Z</time>
      </trkpt>
      <trkpt lat="46.29913" lon="10.52489">
        <ele>2181.129</ele>
        <time>2018-09-14T09:21:45Z</time>
      </trkpt>
      <trkpt lat="46.29914" lon="10.52489">
        <ele>2181.3</ele>
        <time>2018-09-14T09:22:05Z</time>
      </trkpt>
      <trkpt lat="46.29921" lon="10.52488">
        <ele>2182.92</ele>
        <time>2018-09-14T09:22:25Z</time>
      </trkpt>
      <trkpt lat="46.29942" lon="10.52487">
        <ele>2188.508</ele>
        <time>2018-09-14T09:22:45Z</time>
      </trkpt>
      <trkpt lat="46.2995" lon="10.52486">
        <ele>2190.454</ele>
        <time>2018-09-14T09:23:05Z</time>
      </trkpt>
      <trkpt lat="46.29958" lon="10.52489">
        <ele>2193.27</ele>
        <time>2018-09-14T09:23:25Z</time>
      </trkpt>
      <trkpt lat="46.29958" lon="10.52495">
        <ele>2194.157</ele>
        <time>2018-09-14T09:23:45Z</time>
      </trkpt>
      <trkpt lat="46.29956" lon="10.52502">
        <ele>2194.85</ele>
        <time>2018-09-14T09:24:05Z</time>
      </trkpt>
      <trkpt lat="46.2995" lon="10.52516">
        <ele>2196.413</ele>
        <time>2018-09-14T09:24:25Z</time>
      </trkpt>
      <trkpt lat="46.29949" lon="10.52523">
        <ele>2197.696</ele>
        <time>2018-09-14T09:24:45Z</time>
      </trkpt>
      <trkpt lat="46.29948" lon="10.52524">
        <ele>2197.834</ele>
        <time>2018-09-14T09:25:05Z</time>
      </trkpt>
      <trkpt lat="46.29947" lon="10.52524">
        <ele>2197.611</ele>
        <time>2018-09-14T09:25:25Z</time>
      </trkpt>
      <trkpt lat="46.29942" lon="10.52528">
        <ele>2198.178</ele>
        <time>2018-09-14T09:25:45Z</time>
      </trkpt>
      <trkpt lat="46.29917" lon="10.52541">
        <ele>2201.833</ele>
        <time>2018-09-14T09:26:05Z</time>
      </trkpt>
      <trkpt lat="46.29908" lon="10.5255">
        <ele>2197.526</ele>
        <time>2018-09-14T09:26:25Z</time>
      </trkpt>
      <trkpt lat="46.29904" lon="10.52557">
        <ele>2196.208</ele>
        <time>2018-09-14T09:26:45Z</time>
      </trkpt>
      <trkpt lat="46.29899" lon="10.52566">
        <ele>2194.379</ele>
        <time>2018-09-14T09:27:05Z</time>
      </trkpt>
      <trkpt lat="46.29895" lon="10.52595">
        <ele>2196.775</ele>
        <time>2018-09-14T09:27:25Z</time>
      </trkpt>
      <trkpt lat="46.29895" lon="10.52595">
        <ele>2196.872</ele>
        <time>2018-09-14T09:27:45Z</time>
      </trkpt>
      <trkpt lat="46.299" lon="10.52622">
        <ele>2204.625</ele>
        <time>2018-09-14T09:28:05Z</time>
      </trkpt>
      <trkpt lat="46.299" lon="10.52627">
        <ele>2205.928</ele>
        <time>2018-09-14T09:28:25Z</time>
      </trkpt>
      <trkpt lat="46.29905" lon="10.52636">
        <ele>2210.261</ele>
        <time>2018-09-14T09:28:45Z</time>
      </trkpt>
      <trkpt lat="46.29907" lon="10.52638">
        <ele>2211.489</ele>
        <time>2018-09-14T09:29:05Z</time>
      </trkpt>
      <trkpt lat="46.29909" lon="10.52642">
        <ele>2213.386</ele>
        <time>2018-09-14T09:29:25Z</time>
      </trkpt>
      <trkpt lat="46.29917" lon="10.5265">
        <ele>2219.033</ele>
        <time>2018-09-14T09:29:45Z</time>
      </trkpt>
      <trkpt lat="46.29924" lon="10.52652">
        <ele>2222.623</ele>
        <time>2018-09-14T09:30:05Z</time>
      </trkpt>
      <trkpt lat="46.29931" lon="10.52636">
        <ele>2223.915</ele>
        <time>2018-09-14T09:30:25Z</time>
      </trkpt>
      <trkpt lat="46.29937" lon="10.52629">
        <ele>2225.908</ele>
        <time>2018-09-14T09:30:45Z</time>
      </trkpt>
      <trkpt lat="46.29959" lon="10.52611">
        <ele>2227.435</ele>
        <time>2018-09-14T09:31:05Z</time>
      </trkpt>
      <trkpt lat="46.2997" lon="10.52608">
        <ele>2227.041</ele>
        <time>2018-09-14T09:31:25Z</time>
      </trkpt>
      <trkpt lat="46.29972" lon="10.52608">
        <ele>2227.078</ele>
        <time>2018-09-14T09:31:45Z</time>
      </trkpt>
      <trkpt lat="46.29985" lon="10.52611">
        <ele>2231.671</ele>
        <time>2018-09-14T09:32:05Z</time>
      </trkpt>
      <trkpt lat="46.29994" lon="10.52613">
        <ele>2235.394</ele>
        <time>2018-09-14T09:32:25Z</time>
      </trkpt>
      <trkpt lat="46.29995" lon="10.52616">
        <ele>2236.897</ele>
        <time>2018-09-14T09:32:45Z</time>
      </trkpt>
      <trkpt lat="46.30002" lon="10.52618">
        <ele>2240.695</ele>
        <time>2018-09-14T09:33:05Z</time>
      </trkpt>
      <trkpt lat="46.30003" lon="10.52629">
        <ele>2246.422</ele>
        <time>2018-09-14T09:33:25Z</time>
      </trkpt>
      <trkpt lat="46.30008" lon="10.52637">
        <ele>2251.477</ele>
        <time>2018-09-14T09:33:45Z</time>
      </trkpt>
      <trkpt lat="46.30014" lon="10.52649">
        <ele>2255.461</ele>
        <time>2018-09-14T09:34:05Z</time>
      </trkpt>
      <trkpt lat="46.30029" lon="10.52674">
        <ele>2261.127</ele>
        <time>2018-09-14T09:34:25Z</time>
      </trkpt>
      <trkpt lat="46.30036" lon="10.52686">
        <ele>2261.008</ele>
        <time>2018-09-14T09:34:45Z</time>
      </trkpt>
      <trkpt lat="46.30037" lon="10.52688">
        <ele>2261.019</ele>
        <time>2018-09-14T09:35:05Z</time>
      </trkpt>
      <trkpt lat="46.30038" lon="10.52689">
        <ele>2261.225</ele>
        <time>2018-09-14T09:35:25Z</time>
      </trkpt>
      <trkpt lat="46.30047" lon="10.52699">
        <ele>2264.252</ele>
        <time>2018-09-14T09:35:45Z</time>
      </trkpt>
      <trkpt lat="46.30054" lon="10.52708">
        <ele>2266.875</ele>
        <time>2018-09-14T09:36:05Z</time>
      </trkpt>
      <trkpt lat="46.30061" lon="10.52723">
        <ele>2269.348</ele>
        <time>2018-09-14T09:36:25Z</time>
      </trkpt>
      <trkpt lat="46.30064" lon="10.5273">
        <ele>2270.051</ele>
        <time>2018-09-14T09:36:45Z</time>
      </trkpt>
      <trkpt lat="46.3007" lon="10.52751">
        <ele>2270.029</ele>
        <time>2018-09-14T09:37:05Z</time>
      </trkpt>
      <trkpt lat="46.30075" lon="10.52767">
        <ele>2272.766</ele>
        <time>2018-09-14T09:37:25Z</time>
      </trkpt>
      <trkpt lat="46.30078" lon="10.52787">
        <ele>2275.098</ele>
        <time>2018-09-14T09:37:45Z</time>
      </trkpt>
      <trkpt lat="46.3008" lon="10.52799">
        <ele>2278.515</ele>
        <time>2018-09-14T09:38:05Z</time>
      </trkpt>
      <trkpt lat="46.30081" lon="10.52797">
        <ele>2278.326</ele>
        <time>2018-09-14T09:38:25Z</time>
      </trkpt>
      <trkpt lat="46.30082" lon="10.52804">
        <ele>2280.308</ele>
        <time>2018-09-14T09:38:45Z</time>
      </trkpt>
      <trkpt lat="46.30089" lon="10.52787">
        <ele>2281.461</ele>
        <time>2018-09-14T09:39:05Z</time>
      </trkpt>
      <trkpt lat="46.30091" lon="10.52769">
        <ele>2283.267</ele>
        <time>2018-09-14T09:39:25Z</time>
      </trkpt>
      <trkpt lat="46.30092" lon="10.52766">
        <ele>2283.784</ele>
        <time>2018-09-14T09:39:45Z</time>
      </trkpt>
      <trkpt lat="46.30092" lon="10.52764">
        <ele>2284.697</ele>
        <time>2018-09-14T09:40:05Z</time>
      </trkpt>
      <trkpt lat="46.30095" lon="10.52751">
        <ele>2288.08</ele>
        <time>2018-09-14T09:40:25Z</time>
      </trkpt>
      <trkpt lat="46.30095" lon="10.52733">
        <ele>2290.443</ele>
        <time>2018-09-14T09:40:45Z</time>
      </trkpt>
      <trkpt lat="46.30096" lon="10.52716">
        <ele>2292.491</ele>
        <time>2018-09-14T09:41:05Z</time>
      </trkpt>
      <trkpt lat="46.30097" lon="10.5271">
        <ele>2293.988</ele>
        <time>2018-09-14T09:41:25Z</time>
      </trkpt>
      <trkpt lat="46.30096" lon="10.52703">
        <ele>2294.071</ele>
        <time>2018-09-14T09:41:45Z</time>
      </trkpt>
      <trkpt lat="46.30098" lon="10.52705">
        <ele>2295.141</ele>
        <time>2018-09-14T09:42:05Z</time>
      </trkpt>
      <trkpt lat="46.30099" lon="10.52703">
        <ele>2295.515</ele>
        <time>2018-09-14T09:42:25Z</time>
      </trkpt>
      <trkpt lat="46.30104" lon="10.52713">
        <ele>2298.408</ele>
        <time>2018-09-14T09:42:45Z</time>
      </trkpt>
      <trkpt lat="46.30106" lon="10.52715">
        <ele>2299.539</ele>
        <time>2018-09-14T09:43:05Z</time>
      </trkpt>
      <trkpt lat="46.30122" lon="10.52744">
        <ele>2305.385</ele>
        <time>2018-09-14T09:43:25Z</time>
      </trkpt>
      <trkpt lat="46.30124" lon="10.52747">
        <ele>2305.732</ele>
        <time>2018-09-14T09:43:45Z</time>
      </trkpt>
      <trkpt lat="46.30125" lon="10.52753">
        <ele>2305.955</ele>
        <time>2018-09-14T09:44:05Z</time>
      </trkpt>
      <trkpt lat="46.30126" lon="10.52756">
        <ele>2306.088</ele>
        <time>2018-09-14T09:44:25Z</time>
      </trkpt>
      <trkpt lat="46.30126" lon="10.52757">
        <ele>2306.131</ele>
        <time>2018-09-14T09:44:45Z</time>
      </trkpt>
      <trkpt lat="46.30129" lon="10.52766">
        <ele>2306.759</ele>
        <time>2018-09-14T09:45:05Z</time>
      </trkpt>
      <trkpt lat="46.30129" lon="10.52769">
        <ele>2306.786</ele>
        <time>2018-09-14T09:45:25Z</time>
      </trkpt>
      <trkpt lat="46.30129" lon="10.52777">
        <ele>2306.364</ele>
        <time>2018-09-14T09:45:45Z</time>
      </trkpt>
      <trkpt lat="46.30129" lon="10.5278">
        <ele>2306.606</ele>
        <time>2018-09-14T09:46:05Z</time>
      </trkpt>
      <trkpt lat="46.30131" lon="10.52785">
        <ele>2307.716</ele>
        <time>2018-09-14T09:46:25Z</time>
      </trkpt>
      <trkpt lat="46.3014" lon="10.52794">
        <ele>2312.808</ele>
        <time>2018-09-14T09:46:45Z</time>
      </trkpt>
      <trkpt lat="46.30142" lon="10.52795">
        <ele>2313.428</ele>
        <time>2018-09-14T09:47:05Z</time>
      </trkpt>
      <trkpt lat="46.30143" lon="10.52799">
        <ele>2314.274</ele>
        <time>2018-09-14T09:47:25Z</time>
      </trkpt>
      <trkpt lat="46.30142" lon="10.528">
        <ele>2314.341</ele>
        <time>2018-09-14T09:47:45Z</time>
      </trkpt>
      <trkpt lat="46.30141" lon="10.52841">
        <ele>2318.474</ele>
        <time>2018-09-14T09:48:05Z</time>
      </trkpt>
      <trkpt lat="46.30139" lon="10.52847">
        <ele>2318.647</ele>
        <time>2018-09-14T09:48:25Z</time>
      </trkpt>
      <trkpt lat="46.30138" lon="10.52851">
        <ele>2318.32</ele>
        <time>2018-09-14T09:48:45Z</time>
      </trkpt>
      <trkpt lat="46.30136" lon="10.52854">
        <ele>2317.968</ele>
        <time>2018-09-14T09:49:05Z</time>
      </trkpt>
      <trkpt lat="46.30135" lon="10.52856">
        <ele>2317.375</ele>
        <time>2018-09-14T09:49:25Z</time>
      </trkpt>
      <trkpt lat="46.30133" lon="10.52857">
        <ele>2316.733</ele>
        <time>2018-09-14T09:49:45Z</time>
      </trkpt>
      <trkpt lat="46.30131" lon="10.52859">
        <ele>2315.923</ele>
        <time>2018-09-14T09:50:05Z</time>
      </trkpt>
      <trkpt lat="46.30123" lon="10.52863">
        <ele>2312.215</ele>
        <time>2018-09-14T09:50:25Z</time>
      </trkpt>
      <trkpt lat="46.30122" lon="10.52864">
        <ele>2311.508</ele>
        <time>2018-09-14T09:50:45Z</time>
      </trkpt>
      <trkpt lat="46.30106" lon="10.52869">
        <ele>2305.815</ele>
        <time>2018-09-14T09:51:05Z</time>
      </trkpt>
      <trkpt lat="46.30106" lon="10.52869">
        <ele>2305.821</ele>
        <time>2018-09-14T09:51:25Z</time>
      </trkpt>
      <trkpt lat="46.301" lon="10.52874">
        <ele>2305.268</ele>
        <time>2018-09-14T09:51:45Z</time>
      </trkpt>
      <trkpt lat="46.30098" lon="10.52876">
        <ele>2304.921</ele>
        <time>2018-09-14T09:52:05Z</time>
      </trkpt>
      <trkpt lat="46.30099" lon="10.52878">
        <ele>2305.494</ele>
        <time>2018-09-14T09:52:25Z</time>
      </trkpt>
      <trkpt lat="46.30099" lon="10.52879">
        <ele>2305.467</ele>
        <time>2018-09-14T09:52:45Z</time>
      </trkpt>
      <trkpt lat="46.30099" lon="10.52879">
        <ele>2305.485</ele>
        <time>2018-09-14T09:53:05Z</time>
      </trkpt>
      <trkpt lat="46.30097" lon="10.52883">
        <ele>2305.482</ele>
        <time>2018-09-14T09:53:25Z</time>
      </trkpt>
      <trkpt lat="46.30097" lon="10.52883">
        <ele>2305.422</ele>
        <time>2018-09-14T09:53:45Z</time>
      </trkpt>
      <trkpt lat="46.30096" lon="10.52887">
        <ele>2305.662</ele>
        <time>2018-09-14T09:54:05Z</time>
      </trkpt>
      <trkpt lat="46.30097" lon="10.52887">
        <ele>2305.708</ele>
        <time>2018-09-14T09:54:25Z</time>
      </trkpt>
      <trkpt lat="46.30096" lon="10.5289">
        <ele>2305.808</ele>
        <time>2018-09-14T09:54:45Z</time>
      </trkpt>
      <trkpt lat="46.30098" lon="10.52902">
        <ele>2306.724</ele>
        <time>2018-09-14T09:55:05Z</time>
      </trkpt>
      <trkpt lat="46.301" lon="10.52918">
        <ele>2308.69</ele>
        <time>2018-09-14T09:55:25Z</time>
      </trkpt>
      <trkpt lat="46.30102" lon="10.52927">
        <ele>2309.627</ele>
        <time>2018-09-14T09:55:45Z</time>
      </trkpt>
      <trkpt lat="46.30105" lon="10.52954">
        <ele>2312.91</ele>
        <time>2018-09-14T09:56:05Z</time>
      </trkpt>
      <trkpt lat="46.30107" lon="10.52971">
        <ele>2316.713</ele>
        <time>2018-09-14T09:56:25Z</time>
      </trkpt>
      <trkpt lat="46.30115" lon="10.52999">
        <ele>2316.356</ele>
        <time>2018-09-14T09:56:45Z</time>
      </trkpt>
      <trkpt lat="46.30121" lon="10.53015">
        <ele>2316.674</ele>
        <time>2018-09-14T09:57:05Z</time>
      </trkpt>
      <trkpt lat="46.30127" lon="10.53032">
        <ele>2317.681</ele>
        <time>2018-09-14T09:57:25Z</time>
      </trkpt>
      <trkpt lat="46.30129" lon="10.53046">
        <ele>2317.223</ele>
        <time>2018-09-14T09:57:45Z</time>
      </trkpt>
      <trkpt lat="46.30129" lon="10.53067">
        <ele>2315.383</ele>
        <time>2018-09-14T09:58:05Z</time>
      </trkpt>
      <trkpt lat="46.30126" lon="10.5309">
        <ele>2314.111</ele>
        <time>2018-09-14T09:58:25Z</time>
      </trkpt>
      <trkpt lat="46.3012" lon="10.53118">
        <ele>2313.608</ele>
        <time>2018-09-14T09:58:45Z</time>
      </trkpt>
      <trkpt lat="46.30111" lon="10.53152">
        <ele>2313.944</ele>
        <time>2018-09-14T09:59:05Z</time>
      </trkpt>
      <trkpt lat="46.30105" lon="10.5318">
        <ele>2313.41</ele>
        <time>2018-09-14T09:59:25Z</time>
      </trkpt>
      <trkpt lat="46.30102" lon="10.53212">
        <ele>2316.027</ele>
        <time>2018-09-14T09:59:45Z</time>
      </trkpt>
      <trkpt lat="46.30104" lon="10.53235">
        <ele>2317.86</ele>
        <time>2018-09-14T10:00:05Z</time>
      </trkpt>
      <trkpt lat="46.30102" lon="10.53254">
        <ele>2316.343</ele>
        <time>2018-09-14T10:00:25Z</time>
      </trkpt>
      <trkpt lat="46.30106" lon="10.53268">
        <ele>2315.686</ele>
        <time>2018-09-14T10:00:45Z</time>
      </trkpt>
      <trkpt lat="46.30108" lon="10.53276">
        <ele>2315.184</ele>
        <time>2018-09-14T10:01:05Z</time>
      </trkpt>
      <trkpt lat="46.30109" lon="10.5328">
        <ele>2314.921</ele>
        <time>2018-09-14T10:01:25Z</time>
      </trkpt>
      <trkpt lat="46.30117" lon="10.53302">
        <ele>2314.881</ele>
        <time>2018-09-14T10:01:45Z</time>
      </trkpt>
      <trkpt lat="46.30131" lon="10.5332">
        <ele>2319.361</ele>
        <time>2018-09-14T10:02:05Z</time>
      </trkpt>
      <trkpt lat="46.30144" lon="10.53335">
        <ele>2321.117</ele>
        <time>2018-09-14T10:02:25Z</time>
      </trkpt>
      <trkpt lat="46.3016" lon="10.53366">
        <ele>2318.608</ele>
        <time>2018-09-14T10:02:45Z</time>
      </trkpt>
      <trkpt lat="46.30163" lon="10.53376">
        <ele>2318.77</ele>
        <time>2018-09-14T10:03:05Z</time>
      </trkpt>
      <trkpt lat="46.30163" lon="10.53378">
        <ele>2318.276</ele>
        <time>2018-09-14T10:03:25Z</time>
      </trkpt>
      <trkpt lat="46.30169" lon="10.53405">
        <ele>2318.393</ele>
        <time>2018-09-14T10:03:45Z</time>
      </trkpt>
      <trkpt lat="46.3017" lon="10.53414">
        <ele>2317.486</ele>
        <time>2018-09-14T10:04:05Z</time>
      </trkpt>
      <trkpt lat="46.30175" lon="10.53451">
        <ele>2313.469</ele>
        <time>2018-09-14T10:04:25Z</time>
      </trkpt>
      <trkpt lat="46.30182" lon="10.53477">
        <ele>2310.332</ele>
        <time>2018-09-14T10:04:45Z</time>
      </trkpt>
      <trkpt lat="46.30193" lon="10.53487">
        <ele>2310.52</ele>
        <time>2018-09-14T10:05:05Z</time>
      </trkpt>
      <trkpt lat="46.30206" lon="10.53496">
        <ele>2311.167</ele>
        <time>2018-09-14T10:05:25Z</time>
      </trkpt>
      <trkpt lat="46.30214" lon="10.53502">
        <ele>2310.852</ele>
        <time>2018-09-14T10:05:45Z</time>
      </trkpt>
      <trkpt lat="46.30224" lon="10.53508">
        <ele>2311.053</ele>
        <time>2018-09-14T10:06:05Z</time>
      </trkpt>
      <trkpt lat="46.30234" lon="10.5352">
        <ele>2311.408</ele>
        <time>2018-09-14T10:06:25Z</time>
      </trkpt>
      <trkpt lat="46.3024" lon="10.53533">
        <ele>2311.508</ele>
        <time>2018-09-14T10:06:45Z</time>
      </trkpt>
      <trkpt lat="46.30246" lon="10.53543">
        <ele>2312.287</ele>
        <time>2018-09-14T10:07:05Z</time>
      </trkpt>
      <trkpt lat="46.30251" lon="10.53557">
        <ele>2312.053</ele>
        <time>2018-09-14T10:07:25Z</time>
      </trkpt>
      <trkpt lat="46.30256" lon="10.53567">
        <ele>2311.96</ele>
        <time>2018-09-14T10:07:45Z</time>
      </trkpt>
      <trkpt lat="46.30276" lon="10.53606">
        <ele>2311.483</ele>
        <time>2018-09-14T10:08:05Z</time>
      </trkpt>
      <trkpt lat="46.30279" lon="10.53613">
        <ele>2311.316</ele>
        <time>2018-09-14T10:08:25Z</time>
      </trkpt>
      <trkpt lat="46.30284" lon="10.53622">
        <ele>2312.059</ele>
        <time>2018-09-14T10:08:45Z</time>
      </trkpt>
      <trkpt lat="46.30289" lon="10.53633">
        <ele>2313.077</ele>
        <time>2018-09-14T10:09:05Z</time>
      </trkpt>
      <trkpt lat="46.30297" lon="10.53649">
        <ele>2314.214</ele>
        <time>2018-09-14T10:09:25Z</time>
      </trkpt>
      <trkpt lat="46.30298" lon="10.53651">
        <ele>2314.464</ele>
        <time>2018-09-14T10:09:45Z</time>
      </trkpt>
      <trkpt lat="46.30302" lon="10.53659">
        <ele>2314.406</ele>
        <time>2018-09-14T10:10:05Z</time>
      </trkpt>
      <trkpt lat="46.30306" lon="10.5368">
        <ele>2312.816</ele>
        <time>2018-09-14T10:10:25Z</time>
      </trkpt>
      <trkpt lat="46.3031" lon="10.53691">
        <ele>2312.208</ele>
        <time>2018-09-14T10:10:45Z</time>
      </trkpt>
      <trkpt lat="46.30314" lon="10.53705">
        <ele>2310.538</ele>
        <time>2018-09-14T10:11:05Z</time>
      </trkpt>
      <trkpt lat="46.30322" lon="10.53726">
        <ele>2308.584</ele>
        <time>2018-09-14T10:11:25Z</time>
      </trkpt>
      <trkpt lat="46.30329" lon="10.53735">
        <ele>2308.831</ele>
        <time>2018-09-14T10:11:45Z</time>
      </trkpt>
      <trkpt lat="46.30336" lon="10.53743">
        <ele>2309.594</ele>
        <time>2018-09-14T10:12:05Z</time>
      </trkpt>
      <trkpt lat="46.30345" lon="10.53754">
        <ele>2309.717</ele>
        <time>2018-09-14T10:12:25Z</time>
      </trkpt>
      <trkpt lat="46.30358" lon="10.53761">
        <ele>2311.63</ele>
        <time>2018-09-14T10:12:45Z</time>
      </trkpt>
      <trkpt lat="46.30368" lon="10.53775">
        <ele>2310.888</ele>
        <time>2018-09-14T10:13:05Z</time>
      </trkpt>
      <trkpt lat="46.30368" lon="10.53775">
        <ele>2310.865</ele>
        <time>2018-09-14T10:13:25Z</time>
      </trkpt>
      <trkpt lat="46.30376" lon="10.53789">
        <ele>2309.277</ele>
        <time>2018-09-14T10:13:45Z</time>
      </trkpt>
      <trkpt lat="46.30381" lon="10.53795">
        <ele>2308.761</ele>
        <time>2018-09-14T10:14:05Z</time>
      </trkpt>
      <trkpt lat="46.30387" lon="10.538">
        <ele>2308.927</ele>
        <time>2018-09-14T10:14:25Z</time>
      </trkpt>
      <trkpt lat="46.3039" lon="10.53807">
        <ele>2307.908</ele>
        <time>2018-09-14T10:14:45Z</time>
      </trkpt>
      <trkpt lat="46.3039" lon="10.53821">
        <ele>2303.759</ele>
        <time>2018-09-14T10:15:05Z</time>
      </trkpt>
      <trkpt lat="46.30394" lon="10.53831">
        <ele>2301.715</ele>
        <time>2018-09-14T10:15:25Z</time>
      </trkpt>
      <trkpt lat="46.30398" lon="10.5384">
        <ele>2299.362</ele>
        <time>2018-09-14T10:15:45Z</time>
      </trkpt>
      <trkpt lat="46.30403" lon="10.5385">
        <ele>2297.055</ele>
        <time>2018-09-14T10:16:05Z</time>
      </trkpt>
      <trkpt lat="46.3041" lon="10.53855">
        <ele>2296.688</ele>
        <time>2018-09-14T10:16:25Z</time>
      </trkpt>
      <trkpt lat="46.30425" lon="10.53859">
        <ele>2299.051</ele>
        <time>2018-09-14T10:16:45Z</time>
      </trkpt>
      <trkpt lat="46.30435" lon="10.53862">
        <ele>2300.889</ele>
        <time>2018-09-14T10:17:05Z</time>
      </trkpt>
      <trkpt lat="46.30447" lon="10.53866">
        <ele>2302.936</ele>
        <time>2018-09-14T10:17:25Z</time>
      </trkpt>
      <trkpt lat="46.30465" lon="10.53867">
        <ele>2307.124</ele>
        <time>2018-09-14T10:17:45Z</time>
      </trkpt>
      <trkpt lat="46.30479" lon="10.53879">
        <ele>2306.904</ele>
        <time>2018-09-14T10:18:05Z</time>
      </trkpt>
      <trkpt lat="46.3049" lon="10.53888">
        <ele>2306.614</ele>
        <time>2018-09-14T10:18:25Z</time>
      </trkpt>
      <trkpt lat="46.30499" lon="10.53898">
        <ele>2304.508</ele>
        <time>2018-09-14T10:18:45Z</time>
      </trkpt>
      <trkpt lat="46.30511" lon="10.53913">
        <ele>2303.454</ele>
        <time>2018-09-14T10:19:05Z</time>
      </trkpt>
      <trkpt lat="46.30526" lon="10.53936">
        <ele>2299.85</ele>
        <time>2018-09-14T10:19:25Z</time>
      </trkpt>
      <trkpt lat="46.30535" lon="10.53953">
        <ele>2293.127</ele>
        <time>2018-09-14T10:19:45Z</time>
      </trkpt>
      <trkpt lat="46.30546" lon="10.53964">
        <ele>2291.82</ele>
        <time>2018-09-14T10:20:05Z</time>
      </trkpt>
      <trkpt lat="46.30552" lon="10.53979">
        <ele>2287.623</ele>
        <time>2018-09-14T10:20:25Z</time>
      </trkpt>
      <trkpt lat="46.30563" lon="10.53986">
        <ele>2288.196</ele>
        <time>2018-09-14T10:20:45Z</time>
      </trkpt>
      <trkpt lat="46.30589" lon="10.54001">
        <ele>2288.614</ele>
        <time>2018-09-14T10:21:05Z</time>
      </trkpt>
      <trkpt lat="46.30603" lon="10.5401">
        <ele>2288.551</ele>
        <time>2018-09-14T10:21:25Z</time>
      </trkpt>
      <trkpt lat="46.30619" lon="10.54022">
        <ele>2287.817</ele>
        <time>2018-09-14T10:21:45Z</time>
      </trkpt>
      <trkpt lat="46.30641" lon="10.54048">
        <ele>2281.887</ele>
        <time>2018-09-14T10:22:05Z</time>
      </trkpt>
      <trkpt lat="46.30663" lon="10.5407">
        <ele>2274.415</ele>
        <time>2018-09-14T10:22:25Z</time>
      </trkpt>
      <trkpt lat="46.30675" lon="10.54077">
        <ele>2273.708</ele>
        <time>2018-09-14T10:22:45Z</time>
      </trkpt>
      <trkpt lat="46.30689" lon="10.54092">
        <ele>2269.733</ele>
        <time>2018-09-14T10:23:05Z</time>
      </trkpt>
      <trkpt lat="46.30705" lon="10.54104">
        <ele>2270.129</ele>
        <time>2018-09-14T10:23:25Z</time>
      </trkpt>
      <trkpt lat="46.30713" lon="10.54108">
        <ele>2271.146</ele>
        <time>2018-09-14T10:23:45Z</time>
      </trkpt>
      <trkpt lat="46.30725" lon="10.54113">
        <ele>2272.139</ele>
        <time>2018-09-14T10:24:05Z</time>
      </trkpt>
      <trkpt lat="46.30737" lon="10.54113">
        <ele>2273.312</ele>
        <time>2018-09-14T10:24:25Z</time>
      </trkpt>
      <trkpt lat="46.30746" lon="10.54114">
        <ele>2273.615</ele>
        <time>2018-09-14T10:24:45Z</time>
      </trkpt>
      <trkpt lat="46.30767" lon="10.54122">
        <ele>2270.893</ele>
        <time>2018-09-14T10:25:05Z</time>
      </trkpt>
      <trkpt lat="46.30788" lon="10.5412">
        <ele>2269.31</ele>
        <time>2018-09-14T10:25:25Z</time>
      </trkpt>
      <trkpt lat="46.30801" lon="10.54114">
        <ele>2269.588</ele>
        <time>2018-09-14T10:25:45Z</time>
      </trkpt>
      <trkpt lat="46.30812" lon="10.54115">
        <ele>2267.124</ele>
        <time>2018-09-14T10:26:05Z</time>
      </trkpt>
      <trkpt lat="46.30825" lon="10.54113">
        <ele>2266.026</ele>
        <time>2018-09-14T10:26:25Z</time>
      </trkpt>
      <trkpt lat="46.30835" lon="10.54113">
        <ele>2264.708</ele>
        <time>2018-09-14T10:26:45Z</time>
      </trkpt>
      <trkpt lat="46.30847" lon="10.54113">
        <ele>2263.73</ele>
        <time>2018-09-14T10:27:05Z</time>
      </trkpt>
      <trkpt lat="46.30869" lon="10.54115">
        <ele>2261.876</ele>
        <time>2018-09-14T10:27:25Z</time>
      </trkpt>
      <trkpt lat="46.3088" lon="10.54115">
        <ele>2262.193</ele>
        <time>2018-09-14T10:27:45Z</time>
      </trkpt>
      <trkpt lat="46.30892" lon="10.54113">
        <ele>2262.316</ele>
        <time>2018-09-14T10:28:05Z</time>
      </trkpt>
      <trkpt lat="46.309" lon="10.54115">
        <ele>2260.889</ele>
        <time>2018-09-14T10:28:25Z</time>
      </trkpt>
      <trkpt lat="46.30912" lon="10.54114">
        <ele>2259.612</ele>
        <time>2018-09-14T10:28:45Z</time>
      </trkpt>
      <trkpt lat="46.30922" lon="10.54109">
        <ele>2258.64</ele>
        <time>2018-09-14T10:29:05Z</time>
      </trkpt>
      <trkpt lat="46.30927" lon="10.54105">
        <ele>2258.317</ele>
        <time>2018-09-14T10:29:25Z</time>
      </trkpt>
      <trkpt lat="46.30935" lon="10.54102">
        <ele>2255.762</ele>
        <time>2018-09-14T10:29:45Z</time>
      </trkpt>
      <trkpt lat="46.3095" lon="10.54094">
        <ele>2250.683</ele>
        <time>2018-09-14T10:30:05Z</time>
      </trkpt>
      <trkpt lat="46.30955" lon="10.54086">
        <ele>2250.511</ele>
        <time>2018-09-14T10:30:25Z</time>
      </trkpt>
      <trkpt lat="46.30968" lon="10.54075">
        <ele>2247.808</ele>
        <time>2018-09-14T10:30:45Z</time>
      </trkpt>
      <trkpt lat="46.30974" lon="10.5407">
        <ele>2247.198</ele>
        <time>2018-09-14T10:31:05Z</time>
      </trkpt>
      <trkpt lat="46.30981" lon="10.54066">
        <ele>2247.794</ele>
        <time>2018-09-14T10:31:25Z</time>
      </trkpt>
      <trkpt lat="46.30994" lon="10.5405">
        <ele>2251.661</ele>
        <time>2018-09-14T10:31:45Z</time>
      </trkpt>
      <trkpt lat="46.31" lon="10.54048">
        <ele>2251.174</ele>
        <time>2018-09-14T10:32:05Z</time>
      </trkpt>
      <trkpt lat="46.31011" lon="10.54046">
        <ele>2249.937</ele>
        <time>2018-09-14T10:32:25Z</time>
      </trkpt>
      <trkpt lat="46.31019" lon="10.5404">
        <ele>2251.28</ele>
        <time>2018-09-14T10:32:45Z</time>
      </trkpt>
      <trkpt lat="46.31029" lon="10.54034">
        <ele>2252.148</ele>
        <time>2018-09-14T10:33:05Z</time>
      </trkpt>
      <trkpt lat="46.31034" lon="10.54032">
        <ele>2252.815</ele>
        <time>2018-09-14T10:33:25Z</time>
      </trkpt>
      <trkpt lat="46.31038" lon="10.54028">
        <ele>2254.136</ele>
        <time>2018-09-14T10:33:45Z</time>
      </trkpt>
      <trkpt lat="46.31044" lon="10.54028">
        <ele>2253.717</ele>
        <time>2018-09-14T10:34:05Z</time>
      </trkpt>
      <trkpt lat="46.31051" lon="10.54027">
        <ele>2253.618</ele>
        <time>2018-09-14T10:34:25Z</time>
      </trkpt>
      <trkpt lat="46.31053" lon="10.54027">
        <ele>2253.608</ele>
        <time>2018-09-14T10:34:45Z</time>
      </trkpt>
      <trkpt lat="46.31067" lon="10.54024">
        <ele>2252.835</ele>
        <time>2018-09-14T10:35:05Z</time>
      </trkpt>
      <trkpt lat="46.31069" lon="10.54024">
        <ele>2252.261</ele>
        <time>2018-09-14T10:35:25Z</time>
      </trkpt>
      <trkpt lat="46.31085" lon="10.54021">
        <ele>2251.318</ele>
        <time>2018-09-14T10:35:45Z</time>
      </trkpt>
      <trkpt lat="46.31088" lon="10.5402">
        <ele>2252.041</ele>
        <time>2018-09-14T10:36:05Z</time>
      </trkpt>
      <trkpt lat="46.31093" lon="10.54015">
        <ele>2254.024</ele>
        <time>2018-09-14T10:36:25Z</time>
      </trkpt>
      <trkpt lat="46.31097" lon="10.54014">
        <ele>2254.677</ele>
        <time>2018-09-14T10:36:45Z</time>
      </trkpt>
      <trkpt lat="46.31144" lon="10.54001">
        <ele>2250.975</ele>
        <time>2018-09-14T10:37:05Z</time>
      </trkpt>
      <trkpt lat="46.31154" lon="10.53992">
        <ele>2250.772</ele>
        <time>2018-09-14T10:37:25Z</time>
      </trkpt>
      <trkpt lat="46.31168" lon="10.53975">
        <ele>2249.032</ele>
        <time>2018-09-14T10:37:45Z</time>
      </trkpt>
      <trkpt lat="46.31175" lon="10.53967">
        <ele>2250.592</ele>
        <time>2018-09-14T10:38:05Z</time>
      </trkpt>
      <trkpt lat="46.31189" lon="10.53952">
        <ele>2250.711</ele>
        <time>2018-09-14T10:38:25Z</time>
      </trkpt>
      <trkpt lat="46.31197" lon="10.53945">
        <ele>2249.708</ele>
        <time>2018-09-14T10:38:45Z</time>
      </trkpt>
      <trkpt lat="46.31203" lon="10.53942">
        <ele>2250.965</ele>
        <time>2018-09-14T10:39:05Z</time>
      </trkpt>
      <trkpt lat="46.3121" lon="10.53942">
        <ele>2250.961</ele>
        <time>2018-09-14T10:39:25Z</time>
      </trkpt>
      <trkpt lat="46.31215" lon="10.53946">
        <ele>2249.418</ele>
        <time>2018-09-14T10:39:45Z</time>
      </trkpt>
      <trkpt lat="46.31224" lon="10.5395">
        <ele>2247.551</ele>
        <time>2018-09-14T10:40:05Z</time>
      </trkpt>
      <trkpt lat="46.31224" lon="10.5395">
        <ele>2247.554</ele>
        <time>2018-09-14T10:40:25Z</time>
      </trkpt>
      <trkpt lat="46.31229" lon="10.53949">
        <ele>2246.877</ele>
        <time>2018-09-14T10:40:45Z</time>
      </trkpt>
      <trkpt lat="46.31237" lon="10.53951">
        <ele>2244.025</ele>
        <time>2018-09-14T10:41:05Z</time>
      </trkpt>
      <trkpt lat="46.31244" lon="10.53954">
        <ele>2241.182</ele>
        <time>2018-09-14T10:41:25Z</time>
      </trkpt>
      <trkpt lat="46.31251" lon="10.53955">
        <ele>2239.267</ele>
        <time>2018-09-14T10:41:45Z</time>
      </trkpt>
      <trkpt lat="46.31256" lon="10.53958">
        <ele>2237.381</ele>
        <time>2018-09-14T10:42:05Z</time>
      </trkpt>
      <trkpt lat="46.3126" lon="10.53963">
        <ele>2234.719</ele>
        <time>2018-09-14T10:42:25Z</time>
      </trkpt>
      <trkpt lat="46.31265" lon="10.53963">
        <ele>2234.008</ele>
        <time>2018-09-14T10:42:45Z</time>
      </trkpt>
      <trkpt lat="46.3127" lon="10.53959">
        <ele>2235.098</ele>
        <time>2018-09-14T10:43:05Z</time>
      </trkpt>
      <trkpt lat="46.31278" lon="10.53955">
        <ele>2234.944</ele>
        <time>2018-09-14T10:43:25Z</time>
      </trkpt>
      <trkpt lat="46.31286" lon="10.53959">
        <ele>2233.351</ele>
        <time>2018-09-14T10:43:45Z</time>
      </trkpt>
      <trkpt lat="46.31289" lon="10.53966">
        <ele>2231.214</ele>
        <time>2018-09-14T10:44:05Z</time>
      </trkpt>
      <trkpt lat="46.31291" lon="10.53978">
        <ele>2227.787</ele>
        <time>2018-09-14T10:44:25Z</time>
      </trkpt>
      <trkpt lat="46.31292" lon="10.53987">
        <ele>2224.78</ele>
        <time>2018-09-14T10:44:45Z</time>
      </trkpt>
      <trkpt lat="46.31291" lon="10.53999">
        <ele>2220.958</ele>
        <time>2018-09-14T10:45:05Z</time>
      </trkpt>
      <trkpt lat="46.31288" lon="10.54005">
        <ele>2218.875</ele>
        <time>2018-09-14T10:45:25Z</time>
      </trkpt>
      <trkpt lat="46.31285" lon="10.54013">
        <ele>2215.982</ele>
        <time>2018-09-14T10:45:45Z</time>
      </trkpt>
      <trkpt lat="46.31282" lon="10.54021">
        <ele>2213.343</ele>
        <time>2018-09-14T10:46:05Z</time>
      </trkpt>
      <trkpt lat="46.31279" lon="10.54027">
        <ele>2211.317</ele>
        <time>2018-09-14T10:46:25Z</time>
      </trkpt>
      <trkpt lat="46.31277" lon="10.54033">
        <ele>2209.008</ele>
        <time>2018-09-14T10:46:45Z</time>
      </trkpt>
      <trkpt lat="46.31275" lon="10.54043">
        <ele>2205.38</ele>
        <time>2018-09-14T10:47:05Z</time>
      </trkpt>
      <trkpt lat="46.31272" lon="10.54049">
        <ele>2203.346</ele>
        <time>2018-09-14T10:47:25Z</time>
      </trkpt>
      <trkpt lat="46.3127" lon="10.54058">
        <ele>2200.323</ele>
        <time>2018-09-14T10:47:45Z</time>
      </trkpt>
      <trkpt lat="46.31268" lon="10.54063">
        <ele>2198.986</ele>
        <time>2018-09-14T10:48:05Z</time>
      </trkpt>
      <trkpt lat="46.31266" lon="10.54069">
        <ele>2196.859</ele>
        <time>2018-09-14T10:48:25Z</time>
      </trkpt>
      <trkpt lat="46.31263" lon="10.54074">
        <ele>2195.732</ele>
        <time>2018-09-14T10:48:45Z</time>
      </trkpt>
      <trkpt lat="46.31256" lon="10.54074">
        <ele>2196.34</ele>
        <time>2018-09-14T10:49:05Z</time>
      </trkpt>
      <trkpt lat="46.31252" lon="10.54071">
        <ele>2198.377</ele>
        <time>2018-09-14T10:49:25Z</time>
      </trkpt>
      <trkpt lat="46.31248" lon="10.54068">
        <ele>2200.141</ele>
        <time>2018-09-14T10:49:45Z</time>
      </trkpt>
      <trkpt lat="46.31243" lon="10.54067">
        <ele>2201.281</ele>
        <time>2018-09-14T10:50:05Z</time>
      </trkpt>
      <trkpt lat="46.31242" lon="10.54068">
        <ele>2201.209</ele>
        <time>2018-09-14T10:50:25Z</time>
      </trkpt>
      <trkpt lat="46.31239" lon="10.5407">
        <ele>2201.008</ele>
        <time>2018-09-14T10:50:45Z</time>
      </trkpt>
      <trkpt lat="46.3124" lon="10.54075">
        <ele>2199.096</ele>
        <time>2018-09-14T10:51:05Z</time>
      </trkpt>
      <trkpt lat="46.31241" lon="10.54078">
        <ele>2197.922</ele>
        <time>2018-09-14T10:51:25Z</time>
      </trkpt>
      <trkpt lat="46.3124" lon="10.54093">
        <ele>2192.769</ele>
        <time>2018-09-14T10:51:45Z</time>
      </trkpt>
      <trkpt lat="46.3124" lon="10.54096">
        <ele>2191.772</ele>
        <time>2018-09-14T10:52:05Z</time>
      </trkpt>
      <trkpt lat="46.31238" lon="10.54112">
        <ele>2186.775</ele>
        <time>2018-09-14T10:52:25Z</time>
      </trkpt>
      <trkpt lat="46.31243" lon="10.54129">
        <ele>2179.288</ele>
        <time>2018-09-14T10:52:45Z</time>
      </trkpt>
      <trkpt lat="46.31241" lon="10.5413">
        <ele>2179.556</ele>
        <time>2018-09-14T10:53:05Z</time>
      </trkpt>
      <trkpt lat="46.31236" lon="10.54133">
        <ele>2179.793</ele>
        <time>2018-09-14T10:53:25Z</time>
      </trkpt>
      <trkpt lat="46.31233" lon="10.54138">
        <ele>2178.331</ele>
        <time>2018-09-14T10:53:45Z</time>
      </trkpt>
      <trkpt lat="46.31232" lon="10.54146">
        <ele>2176.361</ele>
        <time>2018-09-14T10:54:05Z</time>
      </trkpt>
      <trkpt lat="46.31227" lon="10.54153">
        <ele>2175.107</ele>
        <time>2018-09-14T10:54:25Z</time>
      </trkpt>
      <trkpt lat="46.31226" lon="10.54161">
        <ele>2173.008</ele>
        <time>2018-09-14T10:54:45Z</time>
      </trkpt>
      <trkpt lat="46.31223" lon="10.5417">
        <ele>2170.745</ele>
        <time>2018-09-14T10:55:05Z</time>
      </trkpt>
      <trkpt lat="46.31222" lon="10.54184">
        <ele>2165.851</ele>
        <time>2018-09-14T10:55:25Z</time>
      </trkpt>
      <trkpt lat="46.31219" lon="10.54189">
        <ele>2164.828</ele>
        <time>2018-09-14T10:55:45Z</time>
      </trkpt>
      <trkpt lat="46.31215" lon="10.54199">
        <ele>2162.091</ele>
        <time>2018-09-14T10:56:05Z</time>
      </trkpt>
      <trkpt lat="46.31213" lon="10.54204">
        <ele>2160.814</ele>
        <time>2018-09-14T10:56:25Z</time>
      </trkpt>
      <trkpt lat="46.3121" lon="10.54209">
        <ele>2159.317</ele>
        <time>2018-09-14T10:56:45Z</time>
      </trkpt>
      <trkpt lat="46.31209" lon="10.54215">
        <ele>2157.245</ele>
        <time>2018-09-14T10:57:05Z</time>
      </trkpt>
      <trkpt lat="46.31214" lon="10.54218">
        <ele>2154.992</ele>
        <time>2018-09-14T10:57:25Z</time>
      </trkpt>
      <trkpt lat="46.31215" lon="10.54218">
        <ele>2154.839</ele>
        <time>2018-09-14T10:57:45Z</time>
      </trkpt>
      <trkpt lat="46.3122" lon="10.54217">
        <ele>2154.101</ele>
        <time>2018-09-14T10:58:05Z</time>
      </trkpt>
      <trkpt lat="46.31221" lon="10.54217">
        <ele>2154.121</ele>
        <time>2018-09-14T10:58:25Z</time>
      </trkpt>
      <trkpt lat="46.31235" lon="10.54216">
        <ele>2152.308</ele>
        <time>2018-09-14T10:58:45Z</time>
      </trkpt>
      <trkpt lat="46.31235" lon="10.54216">
        <ele>2152.295</ele>
        <time>2018-09-14T10:59:05Z</time>
      </trkpt>
      <trkpt lat="46.31241" lon="10.54218">
        <ele>2150.841</ele>
        <time>2018-09-14T10:59:25Z</time>
      </trkpt>
      <trkpt lat="46.31245" lon="10.54221">
        <ele>2149.138</ele>
        <time>2018-09-14T10:59:45Z</time>
      </trkpt>
      <trkpt lat="46.31252" lon="10.54227">
        <ele>2145.291</ele>
        <time>2018-09-14T11:00:05Z</time>
      </trkpt>
      <trkpt lat="46.31256" lon="10.54229">
        <ele>2142.754</ele>
        <time>2018-09-14T11:00:25Z</time>
      </trkpt>
      <trkpt lat="46.31262" lon="10.5423">
        <ele>2140.257</ele>
        <time>2018-09-14T11:00:45Z</time>
      </trkpt>
      <trkpt lat="46.31265" lon="10.54227">
        <ele>2140.365</ele>
        <time>2018-09-14T11:01:05Z</time>
      </trkpt>
      <trkpt lat="46.31271" lon="10.54226">
        <ele>2138.432</ele>
        <time>2018-09-14T11:01:25Z</time>
      </trkpt>
      <trkpt lat="46.31278" lon="10.54218">
        <ele>2138.433</ele>
        <time>2018-09-14T11:01:45Z</time>
      </trkpt>
      <trkpt lat="46.31283" lon="10.54218">
        <ele>2137.323</ele>
        <time>2018-09-14T11:02:05Z</time>
      </trkpt>
      <trkpt lat="46.3129" lon="10.54217">
        <ele>2136.115</ele>
        <time>2018-09-14T11:02:25Z</time>
      </trkpt>
      <trkpt lat="46.31295" lon="10.5422">
        <ele>2134.208</ele>
        <time>2018-09-14T11:02:45Z</time>
      </trkpt>
      <trkpt lat="46.31298" lon="10.54224">
        <ele>2132.235</ele>
        <time>2018-09-14T11:03:05Z</time>
      </trkpt>
      <trkpt lat="46.31299" lon="10.54233">
        <ele>2129.261</ele>
        <time>2018-09-14T11:03:25Z</time>
      </trkpt>
      <trkpt lat="46.31302" lon="10.54245">
        <ele>2125.028</ele>
        <time>2018-09-14T11:03:45Z</time>
      </trkpt>
      <trkpt lat="46.31304" lon="10.54251">
        <ele>2122.991</ele>
        <time>2018-09-14T11:04:05Z</time>
      </trkpt>
      <trkpt lat="46.31311" lon="10.54259">
        <ele>2121.184</ele>
        <time>2018-09-14T11:04:25Z</time>
      </trkpt>
      <trkpt lat="46.31315" lon="10.54261">
        <ele>2120.797</ele>
        <time>2018-09-14T11:04:45Z</time>
      </trkpt>
      <trkpt lat="46.31318" lon="10.54268">
        <ele>2119.675</ele>
        <time>2018-09-14T11:05:05Z</time>
      </trkpt>
      <trkpt lat="46.31325" lon="10.54271">
        <ele>2119.452</ele>
        <time>2018-09-14T11:05:25Z</time>
      </trkpt>
      <trkpt lat="46.3133" lon="10.54272">
        <ele>2119.693</ele>
        <time>2018-09-14T11:05:45Z</time>
      </trkpt>
      <trkpt lat="46.31334" lon="10.54272">
        <ele>2120.165</ele>
        <time>2018-09-14T11:06:05Z</time>
      </trkpt>
      <trkpt lat="46.31342" lon="10.54273">
        <ele>2120.121</ele>
        <time>2018-09-14T11:06:25Z</time>
      </trkpt>
      <trkpt lat="46.31346" lon="10.54277">
        <ele>2119.608</ele>
        <time>2018-09-14T11:06:45Z</time>
      </trkpt>
      <trkpt lat="46.31352" lon="10.54281">
        <ele>2119.121</ele>
        <time>2018-09-14T11:07:05Z</time>
      </trkpt>
      <trkpt lat="46.31358" lon="10.54283">
        <ele>2118.997</ele>
        <time>2018-09-14T11:07:25Z</time>
      </trkpt>
      <trkpt lat="46.31366" lon="10.54287">
        <ele>2118.194</ele>
        <time>2018-09-14T11:07:45Z</time>
      </trkpt>
      <trkpt lat="46.31368" lon="10.54288">
        <ele>2117.867</ele>
        <time>2018-09-14T11:08:05Z</time>
      </trkpt>
      <trkpt lat="46.31369" lon="10.54289">
        <ele>2117.77</ele>
        <time>2018-09-14T11:08:25Z</time>
      </trkpt>
      <trkpt lat="46.31373" lon="10.54291">
        <ele>2117.213</ele>
        <time>2018-09-14T11:08:45Z</time>
      </trkpt>
      <trkpt lat="46.31378" lon="10.54292">
        <ele>2116.841</ele>
        <time>2018-09-14T11:09:05Z</time>
      </trkpt>
      <trkpt lat="46.31389" lon="10.54292">
        <ele>2116.448</ele>
        <time>2018-09-14T11:09:25Z</time>
      </trkpt>
      <trkpt lat="46.314" lon="10.54288">
        <ele>2116.578</ele>
        <time>2018-09-14T11:09:45Z</time>
      </trkpt>
      <trkpt lat="46.31401" lon="10.54288">
        <ele>2116.533</ele>
        <time>2018-09-14T11:10:05Z</time>
      </trkpt>
      <trkpt lat="46.31407" lon="10.54287">
        <ele>2116.426</ele>
        <time>2018-09-14T11:10:25Z</time>
      </trkpt>
      <trkpt lat="46.31412" lon="10.54287">
        <ele>2116.308</ele>
        <time>2018-09-14T11:10:45Z</time>
      </trkpt>
      <trkpt lat="46.31416" lon="10.54287">
        <ele>2116.149</ele>
        <time>2018-09-14T11:11:05Z</time>
      </trkpt>
      <trkpt lat="46.31446" lon="10.54309">
        <ele>2099.225</ele>
        <time>2018-09-14T11:11:25Z</time>
      </trkpt>
      <trkpt lat="46.3145" lon="10.54328">
        <ele>2095.852</ele>
        <time>2018-09-14T11:11:45Z</time>
      </trkpt>
      <trkpt lat="46.31448" lon="10.54336">
        <ele>2095.095</ele>
        <time>2018-09-14T11:12:05Z</time>
      </trkpt>
      <trkpt lat="46.31443" lon="10.54346">
        <ele>2094.648</ele>
        <time>2018-09-14T11:12:25Z</time>
      </trkpt>
      <trkpt lat="46.31435" lon="10.54366">
        <ele>2093.881</ele>
        <time>2018-09-14T11:12:45Z</time>
      </trkpt>
      <trkpt lat="46.31435" lon="10.54375">
        <ele>2092.159</ele>
        <time>2018-09-14T11:13:05Z</time>
      </trkpt>
      <trkpt lat="46.31434" lon="10.54383">
        <ele>2091.086</ele>
        <time>2018-09-14T11:13:25Z</time>
      </trkpt>
      <trkpt lat="46.31423" lon="10.54397">
        <ele>2091.622</ele>
        <time>2018-09-14T11:13:45Z</time>
      </trkpt>
      <trkpt lat="46.31416" lon="10.54404">
        <ele>2092.362</ele>
        <time>2018-09-14T11:14:05Z</time>
      </trkpt>
      <trkpt lat="46.31412" lon="10.54413">
        <ele>2091.108</ele>
        <time>2018-09-14T11:14:25Z</time>
      </trkpt>
      <trkpt lat="46.31406" lon="10.54427">
        <ele>2088.908</ele>
        <time>2018-09-14T11:14:45Z</time>
      </trkpt>
      <trkpt lat="46.31358" lon="10.54484">
        <ele>2082.714</ele>
        <time>2018-09-14T11:15:05Z</time>
      </trkpt>
      <trkpt lat="46.31358" lon="10.54484">
        <ele>2082.68</ele>
        <time>2018-09-14T11:15:25Z</time>
      </trkpt>
      <trkpt lat="46.3135" lon="10.54483">
        <ele>2082.277</ele>
        <time>2018-09-14T11:15:45Z</time>
      </trkpt>
      <trkpt lat="46.31345" lon="10.54486">
        <ele>2081.46</ele>
        <time>2018-09-14T11:16:05Z</time>
      </trkpt>
      <trkpt lat="46.3134" lon="10.54493">
        <ele>2079.623</ele>
        <time>2018-09-14T11:16:25Z</time>
      </trkpt>
      <trkpt lat="46.31331" lon="10.54505">
        <ele>2076.166</ele>
        <time>2018-09-14T11:16:45Z</time>
      </trkpt>
      <trkpt lat="46.31322" lon="10.5451">
        <ele>2072.684</ele>
        <time>2018-09-14T11:17:05Z</time>
      </trkpt>
      <trkpt lat="46.31319" lon="10.54509">
        <ele>2072.391</ele>
        <time>2018-09-14T11:17:25Z</time>
      </trkpt>
      <trkpt lat="46.31311" lon="10.54507">
        <ele>2071.322</ele>
        <time>2018-09-14T11:17:45Z</time>
      </trkpt>
      <trkpt lat="46.31305" lon="10.54498">
        <ele>2072.262</ele>
        <time>2018-09-14T11:18:05Z</time>
      </trkpt>
      <trkpt lat="46.31297" lon="10.54484">
        <ele>2073.208</ele>
        <time>2018-09-14T11:18:25Z</time>
      </trkpt>
      <trkpt lat="46.31285" lon="10.54475">
        <ele>2072.108</ele>
        <time>2018-09-14T11:18:45Z</time>
      </trkpt>
      <trkpt lat="46.31276" lon="10.54474">
        <ele>2070.024</ele>
        <time>2018-09-14T11:19:05Z</time>
      </trkpt>
      <trkpt lat="46.31261" lon="10.54474">
        <ele>2066.89</ele>
        <time>2018-09-14T11:19:25Z</time>
      </trkpt>
      <trkpt lat="46.31255" lon="10.54476">
        <ele>2065.477</ele>
        <time>2018-09-14T11:19:45Z</time>
      </trkpt>
      <trkpt lat="46.31235" lon="10.54476">
        <ele>2063.43</ele>
        <time>2018-09-14T11:20:05Z</time>
      </trkpt>
      <trkpt lat="46.31228" lon="10.54471">
        <ele>2063.583</ele>
        <time>2018-09-14T11:20:25Z</time>
      </trkpt>
      <trkpt lat="46.31211" lon="10.54457">
        <ele>2064.616</ele>
        <time>2018-09-14T11:20:45Z</time>
      </trkpt>
      <trkpt lat="46.31187" lon="10.54441">
        <ele>2065.764</ele>
        <time>2018-09-14T11:21:05Z</time>
      </trkpt>
      <trkpt lat="46.31171" lon="10.54441">
        <ele>2063.471</ele>
        <time>2018-09-14T11:21:25Z</time>
      </trkpt>
      <trkpt lat="46.31159" lon="10.54439">
        <ele>2062.419</ele>
        <time>2018-09-14T11:21:45Z</time>
      </trkpt>
      <trkpt lat="46.31139" lon="10.54432">
        <ele>2061.709</ele>
        <time>2018-09-14T11:22:05Z</time>
      </trkpt>
      <trkpt lat="46.31125" lon="10.54427">
        <ele>2062.219</ele>
        <time>2018-09-14T11:22:25Z</time>
      </trkpt>
      <trkpt lat="46.31115" lon="10.54437">
        <ele>2059.608</ele>
        <time>2018-09-14T11:22:45Z</time>
      </trkpt>
      <trkpt lat="46.31099" lon="10.54449">
        <ele>2056.793</ele>
        <time>2018-09-14T11:23:05Z</time>
      </trkpt>
      <trkpt lat="46.31087" lon="10.5445">
        <ele>2056.169</ele>
        <time>2018-09-14T11:23:25Z</time>
      </trkpt>
      <trkpt lat="46.31075" lon="10.54444">
        <ele>2054.666</ele>
        <time>2018-09-14T11:23:45Z</time>
      </trkpt>
      <trkpt lat="46.31058" lon="10.54438">
        <ele>2051.959</ele>
        <time>2018-09-14T11:24:05Z</time>
      </trkpt>
      <trkpt lat="46.31049" lon="10.54438">
        <ele>2050.632</ele>
        <time>2018-09-14T11:24:25Z</time>
      </trkpt>
      <trkpt lat="46.31039" lon="10.54439">
        <ele>2049.185</ele>
        <time>2018-09-14T11:24:45Z</time>
      </trkpt>
      <trkpt lat="46.31028" lon="10.54434">
        <ele>2049.353</ele>
        <time>2018-09-14T11:25:05Z</time>
      </trkpt>
      <trkpt lat="46.31014" lon="10.54433">
        <ele>2048.54</ele>
        <time>2018-09-14T11:25:25Z</time>
      </trkpt>
      <trkpt lat="46.31002" lon="10.5443">
        <ele>2048.377</ele>
        <time>2018-09-14T11:25:45Z</time>
      </trkpt>
      <trkpt lat="46.30992" lon="10.54426">
        <ele>2048.661</ele>
        <time>2018-09-14T11:26:05Z</time>
      </trkpt>
      <trkpt lat="46.30988" lon="10.54428">
        <ele>2048.427</ele>
        <time>2018-09-14T11:26:25Z</time>
      </trkpt>
      <trkpt lat="46.30987" lon="10.54427">
        <ele>2048.408</ele>
        <time>2018-09-14T11:26:45Z</time>
      </trkpt>
      <trkpt lat="46.30937" lon="10.54454">
        <ele>2044.779</ele>
        <time>2018-09-14T11:27:05Z</time>
      </trkpt>
      <trkpt lat="46.30944" lon="10.54456">
        <ele>2044.495</ele>
        <time>2018-09-14T11:27:25Z</time>
      </trkpt>
      <trkpt lat="46.30943" lon="10.54459">
        <ele>2043.922</ele>
        <time>2018-09-14T11:27:45Z</time>
      </trkpt>
      <trkpt lat="46.30945" lon="10.54469">
        <ele>2042.545</ele>
        <time>2018-09-14T11:28:05Z</time>
      </trkpt>
      <trkpt lat="46.30952" lon="10.54472">
        <ele>2041.978</ele>
        <time>2018-09-14T11:28:25Z</time>
      </trkpt>
      <trkpt lat="46.30966" lon="10.54471">
        <ele>2042.171</ele>
        <time>2018-09-14T11:28:45Z</time>
      </trkpt>
      <trkpt lat="46.30977" lon="10.54465">
        <ele>2042.999</ele>
        <time>2018-09-14T11:29:05Z</time>
      </trkpt>
      <trkpt lat="46.30978" lon="10.54465">
        <ele>2043.046</ele>
        <time>2018-09-14T11:29:25Z</time>
      </trkpt>
      <trkpt lat="46.3098" lon="10.54465">
        <ele>2043.072</ele>
        <time>2018-09-14T11:29:45Z</time>
      </trkpt>
      <trkpt lat="46.30995" lon="10.54531">
        <ele>2033.513</ele>
        <time>2018-09-14T11:30:05Z</time>
      </trkpt>
      <trkpt lat="46.30987" lon="10.54614">
        <ele>2020.414</ele>
        <time>2018-09-14T11:30:25Z</time>
      </trkpt>
      <trkpt lat="46.30977" lon="10.54683">
        <ele>2006.808</ele>
        <time>2018-09-14T11:30:45Z</time>
      </trkpt>
      <trkpt lat="46.30983" lon="10.54685">
        <ele>2006.679</ele>
        <time>2018-09-14T11:31:05Z</time>
      </trkpt>
      <trkpt lat="46.30984" lon="10.54686">
        <ele>2006.695</ele>
        <time>2018-09-14T11:31:25Z</time>
      </trkpt>
      <trkpt lat="46.30999" lon="10.54692">
        <ele>2006.332</ele>
        <time>2018-09-14T11:31:45Z</time>
      </trkpt>
      <trkpt lat="46.31017" lon="10.54682">
        <ele>2009.565</ele>
        <time>2018-09-14T11:32:05Z</time>
      </trkpt>
      <trkpt lat="46.31026" lon="10.5469">
        <ele>2008.688</ele>
        <time>2018-09-14T11:32:25Z</time>
      </trkpt>
      <trkpt lat="46.31038" lon="10.54708">
        <ele>2005.641</ele>
        <time>2018-09-14T11:32:45Z</time>
      </trkpt>
      <trkpt lat="46.31038" lon="10.54708">
        <ele>2005.549</ele>
        <time>2018-09-14T11:33:05Z</time>
      </trkpt>
      <trkpt lat="46.31048" lon="10.54713">
        <ele>2004.666</ele>
        <time>2018-09-14T11:33:25Z</time>
      </trkpt>
      <trkpt lat="46.3106" lon="10.54718">
        <ele>2003.483</ele>
        <time>2018-09-14T11:33:45Z</time>
      </trkpt>
      <trkpt lat="46.31078" lon="10.5472">
        <ele>2001.725</ele>
        <time>2018-09-14T11:34:05Z</time>
      </trkpt>
      <trkpt lat="46.31094" lon="10.54721">
        <ele>1997.317</ele>
        <time>2018-09-14T11:34:25Z</time>
      </trkpt>
      <trkpt lat="46.31121" lon="10.54712">
        <ele>1993.008</ele>
        <time>2018-09-14T11:34:45Z</time>
      </trkpt>
      <trkpt lat="46.31137" lon="10.54701">
        <ele>1995.04</ele>
        <time>2018-09-14T11:35:05Z</time>
      </trkpt>
      <trkpt lat="46.31155" lon="10.54706">
        <ele>1995.856</ele>
        <time>2018-09-14T11:35:25Z</time>
      </trkpt>
      <trkpt lat="46.31178" lon="10.54713">
        <ele>1997.123</ele>
        <time>2018-09-14T11:35:45Z</time>
      </trkpt>
      <trkpt lat="46.31194" lon="10.54723">
        <ele>1997.956</ele>
        <time>2018-09-14T11:36:05Z</time>
      </trkpt>
      <trkpt lat="46.31201" lon="10.5474">
        <ele>1997.079</ele>
        <time>2018-09-14T11:36:25Z</time>
      </trkpt>
      <trkpt lat="46.31199" lon="10.54755">
        <ele>1995.882</ele>
        <time>2018-09-14T11:36:45Z</time>
      </trkpt>
      <trkpt lat="46.31188" lon="10.5476">
        <ele>1993.88</ele>
        <time>2018-09-14T11:37:05Z</time>
      </trkpt>
      <trkpt lat="46.31183" lon="10.5476">
        <ele>1993.227</ele>
        <time>2018-09-14T11:37:25Z</time>
      </trkpt>
      <trkpt lat="46.3116" lon="10.54765">
        <ele>1989.588</ele>
        <time>2018-09-14T11:37:45Z</time>
      </trkpt>
      <trkpt lat="46.31128" lon="10.54783">
        <ele>1982.524</ele>
        <time>2018-09-14T11:38:05Z</time>
      </trkpt>
      <trkpt lat="46.31124" lon="10.54787">
        <ele>1981.126</ele>
        <time>2018-09-14T11:38:25Z</time>
      </trkpt>
      <trkpt lat="46.31102" lon="10.54807">
        <ele>1974.908</ele>
        <time>2018-09-14T11:38:45Z</time>
      </trkpt>
      <trkpt lat="46.31077" lon="10.54837">
        <ele>1973.18</ele>
        <time>2018-09-14T11:39:05Z</time>
      </trkpt>
      <trkpt lat="46.31072" lon="10.5484">
        <ele>1972.386</ele>
        <time>2018-09-14T11:39:25Z</time>
      </trkpt>
      <trkpt lat="46.31063" lon="10.54843">
        <ele>1970.713</ele>
        <time>2018-09-14T11:39:45Z</time>
      </trkpt>
      <trkpt lat="46.31056" lon="10.54858">
        <ele>1967.696</ele>
        <time>2018-09-14T11:40:05Z</time>
      </trkpt>
      <trkpt lat="46.3105" lon="10.54868">
        <ele>1965.069</ele>
        <time>2018-09-14T11:40:25Z</time>
      </trkpt>
      <trkpt lat="46.31043" lon="10.54878">
        <ele>1961.982</ele>
        <time>2018-09-14T11:40:45Z</time>
      </trkpt>
      <trkpt lat="46.31039" lon="10.54884">
        <ele>1959.76</ele>
        <time>2018-09-14T11:41:05Z</time>
      </trkpt>
      <trkpt lat="46.31024" lon="10.549">
        <ele>1953.317</ele>
        <time>2018-09-14T11:41:25Z</time>
      </trkpt>
      <trkpt lat="46.31016" lon="10.54902">
        <ele>1952.098</ele>
        <time>2018-09-14T11:41:45Z</time>
      </trkpt>
      <trkpt lat="46.31011" lon="10.54904">
        <ele>1951.315</ele>
        <time>2018-09-14T11:42:05Z</time>
      </trkpt>
      <trkpt lat="46.30997" lon="10.54911">
        <ele>1950.026</ele>
        <time>2018-09-14T11:42:25Z</time>
      </trkpt>
      <trkpt lat="46.30988" lon="10.5492">
        <ele>1950.008</ele>
        <time>2018-09-14T11:42:45Z</time>
      </trkpt>
      <trkpt lat="46.30982" lon="10.54931">
        <ele>1950.011</ele>
        <time>2018-09-14T11:43:05Z</time>
      </trkpt>
      <trkpt lat="46.30979" lon="10.54935">
        <ele>1950.027</ele>
        <time>2018-09-14T11:43:25Z</time>
      </trkpt>
      <trkpt lat="46.30971" lon="10.54943">
        <ele>1949.934</ele>
        <time>2018-09-14T11:43:45Z</time>
      </trkpt>
      <trkpt lat="46.3095" lon="10.54969">
        <ele>1949.217</ele>
        <time>2018-09-14T11:44:05Z</time>
      </trkpt>
      <trkpt lat="46.30947" lon="10.54973">
        <ele>1949.08</ele>
        <time>2018-09-14T11:44:25Z</time>
      </trkpt>
      <trkpt lat="46.30928" lon="10.54996">
        <ele>1946.213</ele>
        <time>2018-09-14T11:44:45Z</time>
      </trkpt>
      <trkpt lat="46.30927" lon="10.54996">
        <ele>1946.141</ele>
        <time>2018-09-14T11:45:05Z</time>
      </trkpt>
      <trkpt lat="46.30927" lon="10.54996">
        <ele>1946.018</ele>
        <time>2018-09-14T11:45:25Z</time>
      </trkpt>
      <trkpt lat="46.30906" lon="10.55019">
        <ele>1941.875</ele>
        <time>2018-09-14T11:45:45Z</time>
      </trkpt>
      <trkpt lat="46.30893" lon="10.55026">
        <ele>1938.828</ele>
        <time>2018-09-14T11:46:05Z</time>
      </trkpt>
      <trkpt lat="46.3089" lon="10.55028">
        <ele>1938.22</ele>
        <time>2018-09-14T11:46:25Z</time>
      </trkpt>
      <trkpt lat="46.30879" lon="10.55034">
        <ele>1936.608</ele>
        <time>2018-09-14T11:46:45Z</time>
      </trkpt>
      <trkpt lat="46.30864" lon="10.55049">
        <ele>1934.989</ele>
        <time>2018-09-14T11:47:05Z</time>
      </trkpt>
      <trkpt lat="46.30849" lon="10.5506">
        <ele>1933.655</ele>
        <time>2018-09-14T11:47:25Z</time>
      </trkpt>
      <trkpt lat="46.30836" lon="10.55069">
        <ele>1932.712</ele>
        <time>2018-09-14T11:47:45Z</time>
      </trkpt>
      <trkpt lat="46.30822" lon="10.55075">
        <ele>1928.895</ele>
        <time>2018-09-14T11:48:05Z</time>
      </trkpt>
      <trkpt lat="46.30814" lon="10.55079">
        <ele>1926.038</ele>
        <time>2018-09-14T11:48:25Z</time>
      </trkpt>
      <trkpt lat="46.30803" lon="10.55076">
        <ele>1921.811</ele>
        <time>2018-09-14T11:48:45Z</time>
      </trkpt>
      <trkpt lat="46.30787" lon="10.5507">
        <ele>1917.389</ele>
        <time>2018-09-14T11:49:05Z</time>
      </trkpt>
      <trkpt lat="46.30773" lon="10.55069">
        <ele>1913.926</ele>
        <time>2018-09-14T11:49:25Z</time>
      </trkpt>
      <trkpt lat="46.3077" lon="10.55069">
        <ele>1913.481</ele>
        <time>2018-09-14T11:49:45Z</time>
      </trkpt>
      <trkpt lat="46.30724" lon="10.55051">
        <ele>1905.361</ele>
        <time>2018-09-14T11:50:05Z</time>
      </trkpt>
      <trkpt lat="46.30726" lon="10.55041">
        <ele>1904.017</ele>
        <time>2018-09-14T11:50:25Z</time>
      </trkpt>
      <trkpt lat="46.30733" lon="10.55027">
        <ele>1902.208</ele>
        <time>2018-09-14T11:50:45Z</time>
      </trkpt>
      <trkpt lat="46.30731" lon="10.55021">
        <ele>1901.14</ele>
        <time>2018-09-14T11:51:05Z</time>
      </trkpt>
      <trkpt lat="46.30718" lon="10.55006">
        <ele>1897.266</ele>
        <time>2018-09-14T11:51:25Z</time>
      </trkpt>
      <trkpt lat="46.30707" lon="10.54993">
        <ele>1891.733</ele>
        <time>2018-09-14T11:51:45Z</time>
      </trkpt>
      <trkpt lat="46.30693" lon="10.54993">
        <ele>1887.576</ele>
        <time>2018-09-14T11:52:05Z</time>
      </trkpt>
      <trkpt lat="46.3068" lon="10.54984">
        <ele>1878.949</ele>
        <time>2018-09-14T11:52:25Z</time>
      </trkpt>
      <trkpt lat="46.30668" lon="10.5498">
        <ele>1873.252</ele>
        <time>2018-09-14T11:52:45Z</time>
      </trkpt>
      <trkpt lat="46.30657" lon="10.54969">
        <ele>1870.52</ele>
        <time>2018-09-14T11:53:05Z</time>
      </trkpt>
      <trkpt lat="46.30661" lon="10.54955">
        <ele>1872.177</ele>
        <time>2018-09-14T11:53:25Z</time>
      </trkpt>
      <trkpt lat="46.30661" lon="10.54951">
        <ele>1872.535</ele>
        <time>2018-09-14T11:53:45Z</time>
      </trkpt>
      <trkpt lat="46.30658" lon="10.54948">
        <ele>1872.186</ele>
        <time>2018-09-14T11:54:05Z</time>
      </trkpt>
      <trkpt lat="46.3065" lon="10.54935">
        <ele>1871.914</ele>
        <time>2018-09-14T11:54:25Z</time>
      </trkpt>
      <trkpt lat="46.30643" lon="10.54923">
        <ele>1872.008</ele>
        <time>2018-09-14T11:54:45Z</time>
      </trkpt>
      <trkpt lat="46.30638" lon="10.54914">
        <ele>1872.295</ele>
        <time>2018-09-14T11:55:05Z</time>
      </trkpt>
      <trkpt lat="46.30629" lon="10.54904">
        <ele>1872.831</ele>
        <time>2018-09-14T11:55:25Z</time>
      </trkpt>
      <trkpt lat="46.30615" lon="10.54887">
        <ele>1873.958</ele>
        <time>2018-09-14T11:55:45Z</time>
      </trkpt>
      <trkpt lat="46.30602" lon="10.54875">
        <ele>1874.531</ele>
        <time>2018-09-14T11:56:05Z</time>
      </trkpt>
      <trkpt lat="46.30587" lon="10.54861">
        <ele>1874.894</ele>
        <time>2018-09-14T11:56:25Z</time>
      </trkpt>
      <trkpt lat="46.30576" lon="10.5486">
        <ele>1873.197</ele>
        <time>2018-09-14T11:56:45Z</time>
      </trkpt>
      <trkpt lat="46.30564" lon="10.54859">
        <ele>1870.845</ele>
        <time>2018-09-14T11:57:05Z</time>
      </trkpt>
      <trkpt lat="46.30551" lon="10.54859">
        <ele>1868.262</ele>
        <time>2018-09-14T11:57:25Z</time>
      </trkpt>
      <trkpt lat="46.30524" lon="10.54851">
        <ele>1863.882</ele>
        <time>2018-09-14T11:57:45Z</time>
      </trkpt>
      <trkpt lat="46.30494" lon="10.54852">
        <ele>1862.343</ele>
        <time>2018-09-14T11:58:05Z</time>
      </trkpt>
      <trkpt lat="46.30467" lon="10.54851">
        <ele>1862.617</ele>
        <time>2018-09-14T11:58:25Z</time>
      </trkpt>
      <trkpt lat="46.30443" lon="10.54863">
        <ele>1861.708</ele>
        <time>2018-09-14T11:58:45Z</time>
      </trkpt>
      <trkpt lat="46.3042" lon="10.54875">
        <ele>1859.91</ele>
        <time>2018-09-14T11:59:05Z</time>
      </trkpt>
      <trkpt lat="46.30387" lon="10.54894">
        <ele>1841.726</ele>
        <time>2018-09-14T11:59:25Z</time>
      </trkpt>
      <trkpt lat="46.30366" lon="10.54905">
        <ele>1836.253</ele>
        <time>2018-09-14T11:59:45Z</time>
      </trkpt>
      <trkpt lat="46.30349" lon="10.54911">
        <ele>1830.446</ele>
        <time>2018-09-14T12:00:05Z</time>
      </trkpt>
      <trkpt lat="46.30343" lon="10.54914">
        <ele>1827.869</ele>
        <time>2018-09-14T12:00:25Z</time>
      </trkpt>
      <trkpt lat="46.30337" lon="10.54921">
        <ele>1824.272</ele>
        <time>2018-09-14T12:00:45Z</time>
      </trkpt>
      <trkpt lat="46.30328" lon="10.54924">
        <ele>1821.54</ele>
        <time>2018-09-14T12:01:05Z</time>
      </trkpt>
      <trkpt lat="46.30323" lon="10.54916">
        <ele>1821.937</ele>
        <time>2018-09-14T12:01:25Z</time>
      </trkpt>
      <trkpt lat="46.30318" lon="10.54903">
        <ele>1823.711</ele>
        <time>2018-09-14T12:01:45Z</time>
      </trkpt>
      <trkpt lat="46.30312" lon="10.549">
        <ele>1822.521</ele>
        <time>2018-09-14T12:02:05Z</time>
      </trkpt>
      <trkpt lat="46.30295" lon="10.54891">
        <ele>1821.803</ele>
        <time>2018-09-14T12:02:25Z</time>
      </trkpt>
      <trkpt lat="46.3028" lon="10.54884">
        <ele>1822.808</ele>
        <time>2018-09-14T12:02:45Z</time>
      </trkpt>
      <trkpt lat="46.3027" lon="10.54881">
        <ele>1822.593</ele>
        <time>2018-09-14T12:03:05Z</time>
      </trkpt>
      <trkpt lat="46.30251" lon="10.54886">
        <ele>1818.839</ele>
        <time>2018-09-14T12:03:25Z</time>
      </trkpt>
      <trkpt lat="46.3025" lon="10.54886">
        <ele>1818.656</ele>
        <time>2018-09-14T12:03:45Z</time>
      </trkpt>
      <trkpt lat="46.30244" lon="10.54885">
        <ele>1816.479</ele>
        <time>2018-09-14T12:04:05Z</time>
      </trkpt>
      <trkpt lat="46.30227" lon="10.54883">
        <ele>1810.842</ele>
        <time>2018-09-14T12:04:25Z</time>
      </trkpt>
      <trkpt lat="46.30221" lon="10.54882">
        <ele>1809.475</ele>
        <time>2018-09-14T12:04:45Z</time>
      </trkpt>
      <trkpt lat="46.30211" lon="10.54882">
        <ele>1808.323</ele>
        <time>2018-09-14T12:05:05Z</time>
      </trkpt>
      <trkpt lat="46.30201" lon="10.5489">
        <ele>1803.55</ele>
        <time>2018-09-14T12:05:25Z</time>
      </trkpt>
      <trkpt lat="46.30192" lon="10.54896">
        <ele>1802.174</ele>
        <time>2018-09-14T12:05:45Z</time>
      </trkpt>
      <trkpt lat="46.30184" lon="10.54896">
        <ele>1802.456</ele>
        <time>2018-09-14T12:06:05Z</time>
      </trkpt>
      <trkpt lat="46.30176" lon="10.54899">
        <ele>1802.221</ele>
        <time>2018-09-14T12:06:25Z</time>
      </trkpt>
      <trkpt lat="46.30167" lon="10.54903">
        <ele>1802.008</ele>
        <time>2018-09-14T12:06:45Z</time>
      </trkpt>
      <trkpt lat="46.30156" lon="10.54907">
        <ele>1801.189</ele>
        <time>2018-09-14T12:07:05Z</time>
      </trkpt>
      <trkpt lat="46.30146" lon="10.54904">
        <ele>1801.835</ele>
        <time>2018-09-14T12:07:25Z</time>
      </trkpt>
      <trkpt lat="46.30139" lon="10.54905">
        <ele>1801.442</ele>
        <time>2018-09-14T12:07:45Z</time>
      </trkpt>
      <trkpt lat="46.30128" lon="10.54908">
        <ele>1799.635</ele>
        <time>2018-09-14T12:08:05Z</time>
      </trkpt>
      <trkpt lat="46.30112" lon="10.54911">
        <ele>1797.758</ele>
        <time>2018-09-14T12:08:25Z</time>
      </trkpt>
      <trkpt lat="46.30094" lon="10.54911">
        <ele>1796.541</ele>
        <time>2018-09-14T12:08:45Z</time>
      </trkpt>
      <trkpt lat="46.30058" lon="10.54911">
        <ele>1790.069</ele>
        <time>2018-09-14T12:09:05Z</time>
      </trkpt>
      <trkpt lat="46.30038" lon="10.5491">
        <ele>1783.866</ele>
        <time>2018-09-14T12:09:25Z</time>
      </trkpt>
      <trkpt lat="46.30032" lon="10.5491">
        <ele>1782.045</ele>
        <time>2018-09-14T12:09:45Z</time>
      </trkpt>
      <trkpt lat="46.30011" lon="10.54903">
        <ele>1778.847</ele>
        <time>2018-09-14T12:10:05Z</time>
      </trkpt>
      <trkpt lat="46.29987" lon="10.54893">
        <ele>1775.211</ele>
        <time>2018-09-14T12:10:25Z</time>
      </trkpt>
      <trkpt lat="46.29966" lon="10.54882">
        <ele>1773.408</ele>
        <time>2018-09-14T12:10:45Z</time>
      </trkpt>
      <trkpt lat="46.29949" lon="10.5487">
        <ele>1772.536</ele>
        <time>2018-09-14T12:11:05Z</time>
      </trkpt>
      <trkpt lat="46.29935" lon="10.54856">
        <ele>1772.362</ele>
        <time>2018-09-14T12:11:25Z</time>
      </trkpt>
      <trkpt lat="46.2991" lon="10.54836">
        <ele>1770.369</ele>
        <time>2018-09-14T12:11:45Z</time>
      </trkpt>
      <trkpt lat="46.29896" lon="10.54825">
        <ele>1769.792</ele>
        <time>2018-09-14T12:12:05Z</time>
      </trkpt>
      <trkpt lat="46.29885" lon="10.54824">
        <ele>1768.225</ele>
        <time>2018-09-14T12:12:25Z</time>
      </trkpt>
      <trkpt lat="46.29889" lon="10.54853">
        <ele>1764.328</ele>
        <time>2018-09-14T12:12:45Z</time>
      </trkpt>
      <trkpt lat="46.29885" lon="10.54905">
        <ele>1756.926</ele>
        <time>2018-09-14T12:13:05Z</time>
      </trkpt>
      <trkpt lat="46.29885" lon="10.54907">
        <ele>1756.853</ele>
        <time>2018-09-14T12:13:25Z</time>
      </trkpt>
      <trkpt lat="46.29885" lon="10.54907">
        <ele>1756.894</ele>
        <time>2018-09-14T12:13:45Z</time>
      </trkpt>
      <trkpt lat="46.29886" lon="10.54908">
        <ele>1756.957</ele>
        <time>2018-09-14T12:14:05Z</time>
      </trkpt>
      <trkpt lat="46.29906" lon="10.54927">
        <ele>1760.122</ele>
        <time>2018-09-14T12:14:25Z</time>
      </trkpt>
      <trkpt lat="46.29908" lon="10.5493">
        <ele>1760.608</ele>
        <time>2018-09-14T12:14:45Z</time>
      </trkpt>
      <trkpt lat="46.29939" lon="10.5496">
        <ele>1766.071</ele>
        <time>2018-09-14T12:15:05Z</time>
      </trkpt>
      <trkpt lat="46.30013" lon="10.5499">
        <ele>1772.377</ele>
        <time>2018-09-14T12:15:25Z</time>
      </trkpt>
      <trkpt lat="46.30042" lon="10.54998">
        <ele>1774.094</ele>
        <time>2018-09-14T12:15:45Z</time>
      </trkpt>
      <trkpt lat="46.30052" lon="10.55003">
        <ele>1774.637</ele>
        <time>2018-09-14T12:16:05Z</time>
      </trkpt>
      <trkpt lat="46.30065" lon="10.55007">
        <ele>1777.88</ele>
        <time>2018-09-14T12:16:25Z</time>
      </trkpt>
      <trkpt lat="46.3007" lon="10.55006">
        <ele>1779.883</ele>
        <time>2018-09-14T12:16:45Z</time>
      </trkpt>
      <trkpt lat="46.30099" lon="10.55013">
        <ele>1784.451</ele>
        <time>2018-09-14T12:17:05Z</time>
      </trkpt>
      <trkpt lat="46.3011" lon="10.55017">
        <ele>1785.058</ele>
        <time>2018-09-14T12:17:25Z</time>
      </trkpt>
      <trkpt lat="46.30145" lon="10.55027">
        <ele>1786.716</ele>
        <time>2018-09-14T12:17:45Z</time>
      </trkpt>
      <trkpt lat="46.30199" lon="10.55044">
        <ele>1790.876</ele>
        <time>2018-09-14T12:18:05Z</time>
      </trkpt>
      <trkpt lat="46.30216" lon="10.55059">
        <ele>1791.513</ele>
        <time>2018-09-14T12:18:25Z</time>
      </trkpt>
      <trkpt lat="46.30225" lon="10.55068">
        <ele>1792.308</ele>
        <time>2018-09-14T12:18:45Z</time>
      </trkpt>
      <trkpt lat="46.30231" lon="10.55076">
        <ele>1793.213</ele>
        <time>2018-09-14T12:19:05Z</time>
      </trkpt>
      <trkpt lat="46.30249" lon="10.55064">
        <ele>1795.749</ele>
        <time>2018-09-14T12:19:25Z</time>
      </trkpt>
      <trkpt lat="46.30304" lon="10.55036">
        <ele>1804.616</ele>
        <time>2018-09-14T12:19:45Z</time>
      </trkpt>
      <trkpt lat="46.30333" lon="10.55034">
        <ele>1813.329</ele>
        <time>2018-09-14T12:20:05Z</time>
      </trkpt>
      <trkpt lat="46.30281" lon="10.55147">
        <ele>1807.312</ele>
        <time>2018-09-14T12:20:25Z</time>
      </trkpt>
      <trkpt lat="46.30285" lon="10.55153">
        <ele>1809.625</ele>
        <time>2018-09-14T12:20:45Z</time>
      </trkpt>
      <trkpt lat="46.30294" lon="10.55159">
        <ele>1813.933</ele>
        <time>2018-09-14T12:21:05Z</time>
      </trkpt>
      <trkpt lat="46.30302" lon="10.55162">
        <ele>1817.37</ele>
        <time>2018-09-14T12:21:25Z</time>
      </trkpt>
      <trkpt lat="46.30316" lon="10.55164">
        <ele>1820.649</ele>
        <time>2018-09-14T12:21:45Z</time>
      </trkpt>
      <trkpt lat="46.30326" lon="10.55169">
        <ele>1823.102</ele>
        <time>2018-09-14T12:22:05Z</time>
      </trkpt>
      <trkpt lat="46.30342" lon="10.55174">
        <ele>1827.522</ele>
        <time>2018-09-14T12:22:25Z</time>
      </trkpt>
      <trkpt lat="46.30362" lon="10.55174">
        <ele>1832.508</ele>
        <time>2018-09-14T12:22:45Z</time>
      </trkpt>
      <trkpt lat="46.30378" lon="10.55174">
        <ele>1836.156</ele>
        <time>2018-09-14T12:23:05Z</time>
      </trkpt>
      <trkpt lat="46.3039" lon="10.55164">
        <ele>1836.842</ele>
        <time>2018-09-14T12:23:25Z</time>
      </trkpt>
      <trkpt lat="46.30401" lon="10.5516">
        <ele>1839.339</ele>
        <time>2018-09-14T12:23:45Z</time>
      </trkpt>
      <trkpt lat="46.30434" lon="10.55144">
        <ele>1848.452</ele>
        <time>2018-09-14T12:24:05Z</time>
      </trkpt>
      <trkpt lat="46.30441" lon="10.55141">
        <ele>1851.735</ele>
        <time>2018-09-14T12:24:25Z</time>
      </trkpt>
      <trkpt lat="46.3045" lon="10.55121">
        <ele>1850.218</ele>
        <time>2018-09-14T12:24:45Z</time>
      </trkpt>
      <trkpt lat="46.30457" lon="10.55108">
        <ele>1849.856</ele>
        <time>2018-09-14T12:25:05Z</time>
      </trkpt>
      <trkpt lat="46.30463" lon="10.55099">
        <ele>1850.533</ele>
        <time>2018-09-14T12:25:25Z</time>
      </trkpt>
      <trkpt lat="46.3047" lon="10.55096">
        <ele>1852.834</ele>
        <time>2018-09-14T12:25:45Z</time>
      </trkpt>
      <trkpt lat="46.30473" lon="10.55101">
        <ele>1854.855</ele>
        <time>2018-09-14T12:26:05Z</time>
      </trkpt>
      <trkpt lat="46.30481" lon="10.55101">
        <ele>1856.51</ele>
        <time>2018-09-14T12:26:25Z</time>
      </trkpt>
      <trkpt lat="46.30485" lon="10.55111">
        <ele>1858.608</ele>
        <time>2018-09-14T12:26:45Z</time>
      </trkpt>
      <trkpt lat="46.30491" lon="10.55118">
        <ele>1861.085</ele>
        <time>2018-09-14T12:27:05Z</time>
      </trkpt>
      <trkpt lat="46.30494" lon="10.55121">
        <ele>1862.131</ele>
        <time>2018-09-14T12:27:25Z</time>
      </trkpt>
      <trkpt lat="46.30494" lon="10.55121">
        <ele>1862.298</ele>
        <time>2018-09-14T12:27:45Z</time>
      </trkpt>
      <trkpt lat="46.30497" lon="10.55124">
        <ele>1863.181</ele>
        <time>2018-09-14T12:28:05Z</time>
      </trkpt>
      <trkpt lat="46.30509" lon="10.55135">
        <ele>1868.214</ele>
        <time>2018-09-14T12:28:25Z</time>
      </trkpt>
      <trkpt lat="46.30511" lon="10.55138">
        <ele>1869.457</ele>
        <time>2018-09-14T12:28:45Z</time>
      </trkpt>
      <trkpt lat="46.30518" lon="10.55144">
        <ele>1872.525</ele>
        <time>2018-09-14T12:29:05Z</time>
      </trkpt>
      <trkpt lat="46.30483" lon="10.55214">
        <ele>1874.942</ele>
        <time>2018-09-14T12:29:25Z</time>
      </trkpt>
      <trkpt lat="46.30482" lon="10.55216">
        <ele>1875.161</ele>
        <time>2018-09-14T12:29:45Z</time>
      </trkpt>
      <trkpt lat="46.30481" lon="10.55219">
        <ele>1875.421</ele>
        <time>2018-09-14T12:30:05Z</time>
      </trkpt>
      <trkpt lat="46.30479" lon="10.55222">
        <ele>1875.613</ele>
        <time>2018-09-14T12:30:25Z</time>
      </trkpt>
      <trkpt lat="46.30477" lon="10.55225">
        <ele>1875.908</ele>
        <time>2018-09-14T12:30:45Z</time>
      </trkpt>
      <trkpt lat="46.30475" lon="10.55228">
        <ele>1876.128</ele>
        <time>2018-09-14T12:31:05Z</time>
      </trkpt>
      <trkpt lat="46.30434" lon="10.55287">
        <ele>1881.654</ele>
        <time>2018-09-14T12:31:25Z</time>
      </trkpt>
      <trkpt lat="46.30432" lon="10.55289">
        <ele>1881.691</ele>
        <time>2018-09-14T12:31:45Z</time>
      </trkpt>
      <trkpt lat="46.30429" lon="10.55292">
        <ele>1881.554</ele>
        <time>2018-09-14T12:32:05Z</time>
      </trkpt>
      <trkpt lat="46.30427" lon="10.55294">
        <ele>1881.467</ele>
        <time>2018-09-14T12:32:25Z</time>
      </trkpt>
      <trkpt lat="46.30424" lon="10.55296">
        <ele>1881.31</ele>
        <time>2018-09-14T12:32:45Z</time>
      </trkpt>
      <trkpt lat="46.30422" lon="10.55299">
        <ele>1881.438</ele>
        <time>2018-09-14T12:33:05Z</time>
      </trkpt>
      <trkpt lat="46.3042" lon="10.55302">
        <ele>1881.855</ele>
        <time>2018-09-14T12:33:25Z</time>
      </trkpt>
      <trkpt lat="46.30419" lon="10.55305">
        <ele>1882.372</ele>
        <time>2018-09-14T12:33:45Z</time>
      </trkpt>
      <trkpt lat="46.30418" lon="10.55308">
        <ele>1883.113</ele>
        <time>2018-09-14T12:34:05Z</time>
      </trkpt>
      <trkpt lat="46.30417" lon="10.55312">
        <ele>1884.114</ele>
        <time>2018-09-14T12:34:25Z</time>
      </trkpt>
      <trkpt lat="46.30415" lon="10.55316">
        <ele>1885.108</ele>
        <time>2018-09-14T12:34:45Z</time>
      </trkpt>
      <trkpt lat="46.30414" lon="10.55321">
        <ele>1886.239</ele>
        <time>2018-09-14T12:35:05Z</time>
      </trkpt>
      <trkpt lat="46.30412" lon="10.55325">
        <ele>1887.155</ele>
        <time>2018-09-14T12:35:25Z</time>
      </trkpt>
      <trkpt lat="46.3041" lon="10.55329">
        <ele>1887.752</ele>
        <time>2018-09-14T12:35:45Z</time>
      </trkpt>
      <trkpt lat="46.30408" lon="10.55332">
        <ele>1888.015</ele>
        <time>2018-09-14T12:36:05Z</time>
      </trkpt>
      <trkpt lat="46.30405" lon="10.55336">
        <ele>1888.398</ele>
        <time>2018-09-14T12:36:25Z</time>
      </trkpt>
      <trkpt lat="46.30403" lon="10.55338">
        <ele>1888.471</ele>
        <time>2018-09-14T12:36:45Z</time>
      </trkpt>
      <trkpt lat="46.304" lon="10.5534">
        <ele>1888.469</ele>
        <time>2018-09-14T12:37:05Z</time>
      </trkpt>
      <trkpt lat="46.30397" lon="10.55342">
        <ele>1888.096</ele>
        <time>2018-09-14T12:37:25Z</time>
      </trkpt>
      <trkpt lat="46.30394" lon="10.55344">
        <ele>1887.258</ele>
        <time>2018-09-14T12:37:45Z</time>
      </trkpt>
      <trkpt lat="46.3039" lon="10.55344">
        <ele>1886.352</ele>
        <time>2018-09-14T12:38:05Z</time>
      </trkpt>
      <trkpt lat="46.30387" lon="10.55346">
        <ele>1885.717</ele>
        <time>2018-09-14T12:38:25Z</time>
      </trkpt>
      <trkpt lat="46.30383" lon="10.55347">
        <ele>1885.308</ele>
        <time>2018-09-14T12:38:45Z</time>
      </trkpt>
      <trkpt lat="46.3038" lon="10.55348">
        <ele>1884.867</ele>
        <time>2018-09-14T12:39:05Z</time>
      </trkpt>
      <trkpt lat="46.30376" lon="10.55349">
        <ele>1884.473</ele>
        <time>2018-09-14T12:39:25Z</time>
      </trkpt>
      <trkpt lat="46.30373" lon="10.5535">
        <ele>1884.04</ele>
        <time>2018-09-14T12:39:45Z</time>
      </trkpt>
      <trkpt lat="46.30369" lon="10.55352">
        <ele>1883.853</ele>
        <time>2018-09-14T12:40:05Z</time>
      </trkpt>
      <trkpt lat="46.30366" lon="10.55354">
        <ele>1883.696</ele>
        <time>2018-09-14T12:40:25Z</time>
      </trkpt>
      <trkpt lat="46.30363" lon="10.55356">
        <ele>1883.619</ele>
        <time>2018-09-14T12:40:45Z</time>
      </trkpt>
      <trkpt lat="46.3036" lon="10.55359">
        <ele>1883.977</ele>
        <time>2018-09-14T12:41:05Z</time>
      </trkpt>
      <trkpt lat="46.30357" lon="10.55362">
        <ele>1884.374</ele>
        <time>2018-09-14T12:41:25Z</time>
      </trkpt>
      <trkpt lat="46.30355" lon="10.55365">
        <ele>1885.078</ele>
        <time>2018-09-14T12:41:45Z</time>
      </trkpt>
      <trkpt lat="46.30352" lon="10.55369">
        <ele>1885.733</ele>
        <time>2018-09-14T12:42:05Z</time>
      </trkpt>
      <trkpt lat="46.3035" lon="10.55372">
        <ele>1886.526</ele>
        <time>2018-09-14T12:42:25Z</time>
      </trkpt>
      <trkpt lat="46.30347" lon="10.55376">
        <ele>1887.208</ele>
        <time>2018-09-14T12:42:45Z</time>
      </trkpt>
      <trkpt lat="46.30346" lon="10.55379">
        <ele>1887.899</ele>
        <time>2018-09-14T12:43:05Z</time>
      </trkpt>
      <trkpt lat="46.30344" lon="10.55381">
        <ele>1888.445</ele>
        <time>2018-09-14T12:43:25Z</time>
      </trkpt>
      <trkpt lat="46.30342" lon="10.55384">
        <ele>1888.812</ele>
        <time>2018-09-14T12:43:45Z</time>
      </trkpt>
      <trkpt lat="46.30339" lon="10.55386">
        <ele>1889.365</ele>
        <time>2018-09-14T12:44:05Z</time>
      </trkpt>
      <trkpt lat="46.30337" lon="10.55389">
        <ele>1889.788</ele>
        <time>2018-09-14T12:44:25Z</time>
      </trkpt>
      <trkpt lat="46.30335" lon="10.55392">
        <ele>1890.341</ele>
        <time>2018-09-14T12:44:45Z</time>
      </trkpt>
      <trkpt lat="46.30333" lon="10.55394">
        <ele>1890.989</ele>
        <time>2018-09-14T12:45:05Z</time>
      </trkpt>
      <trkpt lat="46.30331" lon="10.55396">
        <ele>1891.636</ele>
        <time>2018-09-14T12:45:25Z</time>
      </trkpt>
      <trkpt lat="46.30329" lon="10.55399">
        <ele>1892.355</ele>
        <time>2018-09-14T12:45:45Z</time>
      </trkpt>
      <trkpt lat="46.30327" lon="10.55402">
        <ele>1893.207</ele>
        <time>2018-09-14T12:46:05Z</time>
      </trkpt>
      <trkpt lat="46.30325" lon="10.55405">
        <ele>1894.217</ele>
        <time>2018-09-14T12:46:25Z</time>
      </trkpt>
      <trkpt lat="46.30322" lon="10.55408">
        <ele>1895.308</ele>
        <time>2018-09-14T12:46:45Z</time>
      </trkpt>
      <trkpt lat="46.3032" lon="10.55411">
        <ele>1896.367</ele>
        <time>2018-09-14T12:47:05Z</time>
      </trkpt>
      <trkpt lat="46.30318" lon="10.55414">
        <ele>1897.313</ele>
        <time>2018-09-14T12:47:25Z</time>
      </trkpt>
      <trkpt lat="46.30316" lon="10.55417">
        <ele>1898.48</ele>
        <time>2018-09-14T12:47:45Z</time>
      </trkpt>
      <trkpt lat="46.30314" lon="10.5542">
        <ele>1899.623</ele>
        <time>2018-09-14T12:48:05Z</time>
      </trkpt>
      <trkpt lat="46.30312" lon="10.55422">
        <ele>1900.526</ele>
        <time>2018-09-14T12:48:25Z</time>
      </trkpt>
      <trkpt lat="46.30309" lon="10.55424">
        <ele>1901.389</ele>
        <time>2018-09-14T12:48:45Z</time>
      </trkpt>
      <trkpt lat="46.30307" lon="10.55426">
        <ele>1901.977</ele>
        <time>2018-09-14T12:49:05Z</time>
      </trkpt>
      <trkpt lat="46.30304" lon="10.55428">
        <ele>1902.764</ele>
        <time>2018-09-14T12:49:25Z</time>
      </trkpt>
      <trkpt lat="46.30302" lon="10.55431">
        <ele>1903.427</ele>
        <time>2018-09-14T12:49:45Z</time>
      </trkpt>
      <trkpt lat="46.30299" lon="10.55432">
        <ele>1904.168</ele>
        <time>2018-09-14T12:50:05Z</time>
      </trkpt>
      <trkpt lat="46.30297" lon="10.55434">
        <ele>1904.814</ele>
        <time>2018-09-14T12:50:25Z</time>
      </trkpt>
      <trkpt lat="46.30294" lon="10.55437">
        <ele>1905.808</ele>
        <time>2018-09-14T12:50:45Z</time>
      </trkpt>
      <trkpt lat="46.30292" lon="10.55439">
        <ele>1906.774</ele>
        <time>2018-09-14T12:51:05Z</time>
      </trkpt>
      <trkpt lat="46.30289" lon="10.55442">
        <ele>1907.61</ele>
        <time>2018-09-14T12:51:25Z</time>
      </trkpt>
      <trkpt lat="46.30287" lon="10.55443">
        <ele>1908.327</ele>
        <time>2018-09-14T12:51:45Z</time>
      </trkpt>
      <trkpt lat="46.30284" lon="10.55445">
        <ele>1908.93</ele>
        <time>2018-09-14T12:52:05Z</time>
      </trkpt>
      <trkpt lat="46.30281" lon="10.55446">
        <ele>1909.333</ele>
        <time>2018-09-14T12:52:25Z</time>
      </trkpt>
      <trkpt lat="46.30278" lon="10.55448">
        <ele>1909.516</ele>
        <time>2018-09-14T12:52:45Z</time>
      </trkpt>
      <trkpt lat="46.30275" lon="10.55449">
        <ele>1909.894</ele>
        <time>2018-09-14T12:53:05Z</time>
      </trkpt>
      <trkpt lat="46.30272" lon="10.5545">
        <ele>1910.241</ele>
        <time>2018-09-14T12:53:25Z</time>
      </trkpt>
      <trkpt lat="46.3027" lon="10.55451">
        <ele>1910.559</ele>
        <time>2018-09-14T12:53:45Z</time>
      </trkpt>
      <trkpt lat="46.30267" lon="10.55453">
        <ele>1911.003</ele>
        <time>2018-09-14T12:54:05Z</time>
      </trkpt>
      <trkpt lat="46.30265" lon="10.55455">
        <ele>1911.423</ele>
        <time>2018-09-14T12:54:25Z</time>
      </trkpt>
      <trkpt lat="46.30263" lon="10.55457">
        <ele>1912.108</ele>
        <time>2018-09-14T12:54:45Z</time>
      </trkpt>
      <trkpt lat="46.30261" lon="10.55459">
        <ele>1912.837</ele>
        <time>2018-09-14T12:55:05Z</time>
      </trkpt>
      <trkpt lat="46.30259" lon="10.55461">
        <ele>1913.583</ele>
        <time>2018-09-14T12:55:25Z</time>
      </trkpt>
      <trkpt lat="46.30257" lon="10.55464">
        <ele>1914.32</ele>
        <time>2018-09-14T12:55:45Z</time>
      </trkpt>
      <trkpt lat="46.30256" lon="10.55467">
        <ele>1915.173</ele>
        <time>2018-09-14T12:56:05Z</time>
      </trkpt>
      <trkpt lat="46.30254" lon="10.5547">
        <ele>1915.966</ele>
        <time>2018-09-14T12:56:25Z</time>
      </trkpt>
      <trkpt lat="46.30252" lon="10.55473">
        <ele>1916.639</ele>
        <time>2018-09-14T12:56:45Z</time>
      </trkpt>
      <trkpt lat="46.3025" lon="10.55476">
        <ele>1917.437</ele>
        <time>2018-09-14T12:57:05Z</time>
      </trkpt>
      <trkpt lat="46.30248" lon="10.55479">
        <ele>1918.494</ele>
        <time>2018-09-14T12:57:25Z</time>
      </trkpt>
      <trkpt lat="46.30246" lon="10.55482">
        <ele>1919.394</ele>
        <time>2018-09-14T12:57:45Z</time>
      </trkpt>
      <trkpt lat="46.30244" lon="10.55485">
        <ele>1920.157</ele>
        <time>2018-09-14T12:58:05Z</time>
      </trkpt>
      <trkpt lat="46.30242" lon="10.55488">
        <ele>1920.922</ele>
        <time>2018-09-14T12:58:25Z</time>
      </trkpt>
      <trkpt lat="46.3024" lon="10.55491">
        <ele>1921.808</ele>
        <time>2018-09-14T12:58:45Z</time>
      </trkpt>
      <trkpt lat="46.30238" lon="10.55494">
        <ele>1922.661</ele>
        <time>2018-09-14T12:59:05Z</time>
      </trkpt>
      <trkpt lat="46.30236" lon="10.55497">
        <ele>1923.347</ele>
        <time>2018-09-14T12:59:25Z</time>
      </trkpt>
      <trkpt lat="46.30233" lon="10.555">
        <ele>1923.954</ele>
        <time>2018-09-14T12:59:45Z</time>
      </trkpt>
      <trkpt lat="46.30231" lon="10.55503">
        <ele>1924.697</ele>
        <time>2018-09-14T13:00:05Z</time>
      </trkpt>
      <trkpt lat="46.30228" lon="10.55505">
        <ele>1925.39</ele>
        <time>2018-09-14T13:00:25Z</time>
      </trkpt>
      <trkpt lat="46.30225" lon="10.55508">
        <ele>1925.933</ele>
        <time>2018-09-14T13:00:45Z</time>
      </trkpt>
      <trkpt lat="46.30222" lon="10.55511">
        <ele>1926.651</ele>
        <time>2018-09-14T13:01:05Z</time>
      </trkpt>
      <trkpt lat="46.3022" lon="10.55513">
        <ele>1926.788</ele>
        <time>2018-09-14T13:01:25Z</time>
      </trkpt>
      <trkpt lat="46.30217" lon="10.55516">
        <ele>1926.992</ele>
        <time>2018-09-14T13:01:45Z</time>
      </trkpt>
      <trkpt lat="46.30215" lon="10.55518">
        <ele>1927.273</ele>
        <time>2018-09-14T13:02:05Z</time>
      </trkpt>
      <trkpt lat="46.30212" lon="10.5552">
        <ele>1927.32</ele>
        <time>2018-09-14T13:02:25Z</time>
      </trkpt>
      <trkpt lat="46.30209" lon="10.55522">
        <ele>1927.308</ele>
        <time>2018-09-14T13:02:45Z</time>
      </trkpt>
      <trkpt lat="46.30206" lon="10.55524">
        <ele>1927.171</ele>
        <time>2018-09-14T13:03:05Z</time>
      </trkpt>
      <trkpt lat="46.30204" lon="10.55525">
        <ele>1926.887</ele>
        <time>2018-09-14T13:03:25Z</time>
      </trkpt>
      <trkpt lat="46.30201" lon="10.55527">
        <ele>1926.444</ele>
        <time>2018-09-14T13:03:45Z</time>
      </trkpt>
      <trkpt lat="46.30198" lon="10.55528">
        <ele>1925.957</ele>
        <time>2018-09-14T13:04:05Z</time>
      </trkpt>
      <trkpt lat="46.30195" lon="10.55529">
        <ele>1925.51</ele>
        <time>2018-09-14T13:04:25Z</time>
      </trkpt>
      <trkpt lat="46.30192" lon="10.5553">
        <ele>1925.443</ele>
        <time>2018-09-14T13:04:45Z</time>
      </trkpt>
      <trkpt lat="46.30189" lon="10.55531">
        <ele>1925.451</ele>
        <time>2018-09-14T13:05:05Z</time>
      </trkpt>
      <trkpt lat="46.30186" lon="10.55533">
        <ele>1925.418</ele>
        <time>2018-09-14T13:05:25Z</time>
      </trkpt>
      <trkpt lat="46.30183" lon="10.55534">
        <ele>1925.571</ele>
        <time>2018-09-14T13:05:45Z</time>
      </trkpt>
      <trkpt lat="46.3018" lon="10.55536">
        <ele>1925.741</ele>
        <time>2018-09-14T13:06:05Z</time>
      </trkpt>
      <trkpt lat="46.30178" lon="10.55538">
        <ele>1926.115</ele>
        <time>2018-09-14T13:06:25Z</time>
      </trkpt>
      <trkpt lat="46.30177" lon="10.55539">
        <ele>1926.408</ele>
        <time>2018-09-14T13:06:45Z</time>
      </trkpt>
      <trkpt lat="46.30178" lon="10.55538">
        <ele>1926.269</ele>
        <time>2018-09-14T13:07:05Z</time>
      </trkpt>
      <trkpt lat="46.30178" lon="10.55541">
        <ele>1927.525</ele>
        <time>2018-09-14T13:07:25Z</time>
      </trkpt>
      <trkpt lat="46.30179" lon="10.55543">
        <ele>1928.712</ele>
        <time>2018-09-14T13:07:45Z</time>
      </trkpt>
      <trkpt lat="46.30182" lon="10.55544">
        <ele>1929.525</ele>
        <time>2018-09-14T13:08:05Z</time>
      </trkpt>
      <trkpt lat="46.30184" lon="10.55544">
        <ele>1929.848</ele>
        <time>2018-09-14T13:08:25Z</time>
      </trkpt>
      <trkpt lat="46.30186" lon="10.55543">
        <ele>1929.911</ele>
        <time>2018-09-14T13:08:45Z</time>
      </trkpt>
      <trkpt lat="46.30188" lon="10.55542">
        <ele>1930.089</ele>
        <time>2018-09-14T13:09:05Z</time>
      </trkpt>
      <trkpt lat="46.30191" lon="10.55542">
        <ele>1930.276</ele>
        <time>2018-09-14T13:09:25Z</time>
      </trkpt>
      <trkpt lat="46.30194" lon="10.55541">
        <ele>1930.543</ele>
        <time>2018-09-14T13:09:45Z</time>
      </trkpt>
      <trkpt lat="46.30196" lon="10.55541">
        <ele>1930.964</ele>
        <time>2018-09-14T13:10:05Z</time>
      </trkpt>
      <trkpt lat="46.30198" lon="10.55541">
        <ele>1931.41</ele>
        <time>2018-09-14T13:10:25Z</time>
      </trkpt>
      <trkpt lat="46.302" lon="10.55541">
        <ele>1932.008</ele>
        <time>2018-09-14T13:10:45Z</time>
      </trkpt>
      <trkpt lat="46.30202" lon="10.55541">
        <ele>1932.716</ele>
        <time>2018-09-14T13:11:05Z</time>
      </trkpt>
      <trkpt lat="46.30203" lon="10.55541">
        <ele>1933.532</ele>
        <time>2018-09-14T13:11:25Z</time>
      </trkpt>
      <trkpt lat="46.30205" lon="10.55542">
        <ele>1934.479</ele>
        <time>2018-09-14T13:11:45Z</time>
      </trkpt>
      <trkpt lat="46.30207" lon="10.55542">
        <ele>1935.282</ele>
        <time>2018-09-14T13:12:05Z</time>
      </trkpt>
      <trkpt lat="46.3021" lon="10.55543">
        <ele>1936.065</ele>
        <time>2018-09-14T13:12:25Z</time>
      </trkpt>
      <trkpt lat="46.30212" lon="10.55543">
        <ele>1936.778</ele>
        <time>2018-09-14T13:12:45Z</time>
      </trkpt>
      <trkpt lat="46.30214" lon="10.55543">
        <ele>1937.526</ele>
        <time>2018-09-14T13:13:05Z</time>
      </trkpt>
      <trkpt lat="46.30216" lon="10.55544">
        <ele>1938.313</ele>
        <time>2018-09-14T13:13:25Z</time>
      </trkpt>
      <trkpt lat="46.30218" lon="10.55544">
        <ele>1938.927</ele>
        <time>2018-09-14T13:13:45Z</time>
      </trkpt>
      <trkpt lat="46.3022" lon="10.55544">
        <ele>1939.668</ele>
        <time>2018-09-14T13:14:05Z</time>
      </trkpt>
      <trkpt lat="46.30222" lon="10.55544">
        <ele>1940.314</ele>
        <time>2018-09-14T13:14:25Z</time>
      </trkpt>
      <trkpt lat="46.30224" lon="10.55544">
        <ele>1940.608</ele>
        <time>2018-09-14T13:14:45Z</time>
      </trkpt>
      <trkpt lat="46.30226" lon="10.55545">
        <ele>1940.984</ele>
        <time>2018-09-14T13:15:05Z</time>
      </trkpt>
      <trkpt lat="46.30228" lon="10.55545">
        <ele>1941.25</ele>
        <time>2018-09-14T13:15:25Z</time>
      </trkpt>
      <trkpt lat="46.3023" lon="10.55545">
        <ele>1941.427</ele>
        <time>2018-09-14T13:15:45Z</time>
      </trkpt>
      <trkpt lat="46.30232" lon="10.55545">
        <ele>1941.65</ele>
        <time>2018-09-14T13:16:05Z</time>
      </trkpt>
      <trkpt lat="46.30234" lon="10.55545">
        <ele>1941.973</ele>
        <time>2018-09-14T13:16:25Z</time>
      </trkpt>
      <trkpt lat="46.30236" lon="10.55546">
        <ele>1942.276</ele>
        <time>2018-09-14T13:16:45Z</time>
      </trkpt>
      <trkpt lat="46.30238" lon="10.55546">
        <ele>1942.524</ele>
        <time>2018-09-14T13:17:05Z</time>
      </trkpt>
      <trkpt lat="46.30241" lon="10.55546">
        <ele>1942.741</ele>
        <time>2018-09-14T13:17:25Z</time>
      </trkpt>
      <trkpt lat="46.30243" lon="10.55546">
        <ele>1943.038</ele>
        <time>2018-09-14T13:17:45Z</time>
      </trkpt>
      <trkpt lat="46.30245" lon="10.55546">
        <ele>1943.17</ele>
        <time>2018-09-14T13:18:05Z</time>
      </trkpt>
      <trkpt lat="46.30247" lon="10.55546">
        <ele>1943.317</ele>
        <time>2018-09-14T13:18:25Z</time>
      </trkpt>
      <trkpt lat="46.30249" lon="10.55546">
        <ele>1943.508</ele>
        <time>2018-09-14T13:18:45Z</time>
      </trkpt>
      <trkpt lat="46.30251" lon="10.55546">
        <ele>1943.835</ele>
        <time>2018-09-14T13:19:05Z</time>
      </trkpt>
      <trkpt lat="46.30253" lon="10.55546">
        <ele>1944.161</ele>
        <time>2018-09-14T13:19:25Z</time>
      </trkpt>
      <trkpt lat="46.30255" lon="10.55546">
        <ele>1944.478</ele>
        <time>2018-09-14T13:19:45Z</time>
      </trkpt>
      <trkpt lat="46.30258" lon="10.55546">
        <ele>1944.831</ele>
        <time>2018-09-14T13:20:05Z</time>
      </trkpt>
      <trkpt lat="46.3026" lon="10.55545">
        <ele>1945.084</ele>
        <time>2018-09-14T13:20:25Z</time>
      </trkpt>
      <trkpt lat="46.30262" lon="10.55545">
        <ele>1945.117</ele>
        <time>2018-09-14T13:20:45Z</time>
      </trkpt>
      <trkpt lat="46.30264" lon="10.55544">
        <ele>1945.375</ele>
        <time>2018-09-14T13:21:05Z</time>
      </trkpt>
      <trkpt lat="46.30266" lon="10.55544">
        <ele>1945.592</ele>
        <time>2018-09-14T13:21:25Z</time>
      </trkpt>
      <trkpt lat="46.30268" lon="10.55543">
        <ele>1945.592</ele>
        <time>2018-09-14T13:21:45Z</time>
      </trkpt>
      <trkpt lat="46.3027" lon="10.55542">
        <ele>1945.773</ele>
        <time>2018-09-14T13:22:05Z</time>
      </trkpt>
      <trkpt lat="46.30271" lon="10.55542">
        <ele>1945.82</ele>
        <time>2018-09-14T13:22:25Z</time>
      </trkpt>
      <trkpt lat="46.30273" lon="10.55541">
        <ele>1946.008</ele>
        <time>2018-09-14T13:22:45Z</time>
      </trkpt>
      <trkpt lat="46.30275" lon="10.55541">
        <ele>1946.271</ele>
        <time>2018-09-14T13:23:05Z</time>
      </trkpt>
      <trkpt lat="46.30277" lon="10.5554">
        <ele>1946.447</ele>
        <time>2018-09-14T13:23:25Z</time>
      </trkpt>
      <trkpt lat="46.3028" lon="10.5554">
        <ele>1946.634</ele>
        <time>2018-09-14T13:23:45Z</time>
      </trkpt>
      <trkpt lat="46.30282" lon="10.5554">
        <ele>1946.937</ele>
        <time>2018-09-14T13:24:05Z</time>
      </trkpt>
      <trkpt lat="46.30283" lon="10.5554">
        <ele>1947.14</ele>
        <time>2018-09-14T13:24:25Z</time>
      </trkpt>
      <trkpt lat="46.30285" lon="10.5554">
        <ele>1947.363</ele>
        <time>2018-09-14T13:24:45Z</time>
      </trkpt>
      <trkpt lat="46.30287" lon="10.55539">
        <ele>1947.621</ele>
        <time>2018-09-14T13:25:05Z</time>
      </trkpt>
      <trkpt lat="46.3029" lon="10.55539">
        <ele>1947.828</ele>
        <time>2018-09-14T13:25:25Z</time>
      </trkpt>
      <trkpt lat="46.30292" lon="10.55539">
        <ele>1948.032</ele>
        <time>2018-09-14T13:25:45Z</time>
      </trkpt>
      <trkpt lat="46.30294" lon="10.55539">
        <ele>1948.292</ele>
        <time>2018-09-14T13:26:05Z</time>
      </trkpt>
      <trkpt lat="46.30296" lon="10.55538">
        <ele>1948.511</ele>
        <time>2018-09-14T13:26:25Z</time>
      </trkpt>
      <trkpt lat="46.30298" lon="10.55538">
        <ele>1948.608</ele>
        <time>2018-09-14T13:26:45Z</time>
      </trkpt>
      <trkpt lat="46.303" lon="10.55538">
        <ele>1948.735</ele>
        <time>2018-09-14T13:27:05Z</time>
      </trkpt>
      <trkpt lat="46.30302" lon="10.55537">
        <ele>1948.881</ele>
        <time>2018-09-14T13:27:25Z</time>
      </trkpt>
      <trkpt lat="46.30304" lon="10.55537">
        <ele>1948.858</ele>
        <time>2018-09-14T13:27:45Z</time>
      </trkpt>
      <trkpt lat="46.30306" lon="10.55536">
        <ele>1949.031</ele>
        <time>2018-09-14T13:28:05Z</time>
      </trkpt>
      <trkpt lat="46.30308" lon="10.55536">
        <ele>1949.474</ele>
        <time>2018-09-14T13:28:25Z</time>
      </trkpt>
      <trkpt lat="46.3031" lon="10.55535">
        <ele>1949.857</ele>
        <time>2018-09-14T13:28:45Z</time>
      </trkpt>
      <trkpt lat="46.30313" lon="10.55535">
        <ele>1950.215</ele>
        <time>2018-09-14T13:29:05Z</time>
      </trkpt>
      <trkpt lat="46.30315" lon="10.55535">
        <ele>1950.632</ele>
        <time>2018-09-14T13:29:25Z</time>
      </trkpt>
      <trkpt lat="46.30317" lon="10.55535">
        <ele>1951.157</ele>
        <time>2018-09-14T13:29:45Z</time>
      </trkpt>
      <trkpt lat="46.30319" lon="10.55535">
        <ele>1951.6</ele>
        <time>2018-09-14T13:30:05Z</time>
      </trkpt>
      <trkpt lat="46.30321" lon="10.55534">
        <ele>1952.02</ele>
        <time>2018-09-14T13:30:25Z</time>
      </trkpt>
      <trkpt lat="46.30323" lon="10.55534">
        <ele>1952.508</ele>
        <time>2018-09-14T13:30:45Z</time>
      </trkpt>
      <trkpt lat="46.30326" lon="10.55533">
        <ele>1952.877</ele>
        <time>2018-09-14T13:31:05Z</time>
      </trkpt>
      <trkpt lat="46.30328" lon="10.55533">
        <ele>1953.123</ele>
        <time>2018-09-14T13:31:25Z</time>
      </trkpt>
      <trkpt lat="46.3033" lon="10.55532">
        <ele>1953.25</ele>
        <time>2018-09-14T13:31:45Z</time>
      </trkpt>
      <trkpt lat="46.30332" lon="10.55531">
        <ele>1953.333</ele>
        <time>2018-09-14T13:32:05Z</time>
      </trkpt>
      <trkpt lat="46.30335" lon="10.5553">
        <ele>1953.456</ele>
        <time>2018-09-14T13:32:25Z</time>
      </trkpt>
      <trkpt lat="46.30337" lon="10.55529">
        <ele>1953.669</ele>
        <time>2018-09-14T13:32:45Z</time>
      </trkpt>
      <trkpt lat="46.30339" lon="10.55527">
        <ele>1953.757</ele>
        <time>2018-09-14T13:33:05Z</time>
      </trkpt>
      <trkpt lat="46.30341" lon="10.55526">
        <ele>1953.844</ele>
        <time>2018-09-14T13:33:25Z</time>
      </trkpt>
      <trkpt lat="46.30343" lon="10.55524">
        <ele>1953.798</ele>
        <time>2018-09-14T13:33:45Z</time>
      </trkpt>
      <trkpt lat="46.30345" lon="10.55522">
        <ele>1953.715</ele>
        <time>2018-09-14T13:34:05Z</time>
      </trkpt>
      <trkpt lat="46.30347" lon="10.5552">
        <ele>1953.626</ele>
        <time>2018-09-14T13:34:25Z</time>
      </trkpt>
      <trkpt lat="46.30349" lon="10.55519">
        <ele>1953.608</ele>
        <time>2018-09-14T13:34:45Z</time>
      </trkpt>
      <trkpt lat="46.30351" lon="10.55517">
        <ele>1953.551</ele>
        <time>2018-09-14T13:35:05Z</time>
      </trkpt>
      <trkpt lat="46.30353" lon="10.55515">
        <ele>1953.447</ele>
        <time>2018-09-14T13:35:25Z</time>
      </trkpt>
      <trkpt lat="46.30355" lon="10.55514">
        <ele>1953.554</ele>
        <time>2018-09-14T13:35:45Z</time>
      </trkpt>
      <trkpt lat="46.30357" lon="10.55512">
        <ele>1953.627</ele>
        <time>2018-09-14T13:36:05Z</time>
      </trkpt>
      <trkpt lat="46.30358" lon="10.55511">
        <ele>1953.54</ele>
        <time>2018-09-14T13:36:25Z</time>
      </trkpt>
      <trkpt lat="46.3036" lon="10.55509">
        <ele>1953.673</ele>
        <time>2018-09-14T13:36:45Z</time>
      </trkpt>
      <trkpt lat="46.30362" lon="10.55508">
        <ele>1953.811</ele>
        <time>2018-09-14T13:37:05Z</time>
      </trkpt>
      <trkpt lat="46.30364" lon="10.55507">
        <ele>1954.198</ele>
        <time>2018-09-14T13:37:25Z</time>
      </trkpt>
      <trkpt lat="46.30366" lon="10.55506">
        <ele>1954.511</ele>
        <time>2018-09-14T13:37:45Z</time>
      </trkpt>
      <trkpt lat="46.30368" lon="10.55506">
        <ele>1955.121</ele>
        <time>2018-09-14T13:38:05Z</time>
      </trkpt>
      <trkpt lat="46.30371" lon="10.55505">
        <ele>1955.903</ele>
        <time>2018-09-14T13:38:25Z</time>
      </trkpt>
      <trkpt lat="46.30373" lon="10.55505">
        <ele>1956.808</ele>
        <time>2018-09-14T13:38:45Z</time>
      </trkpt>
      <trkpt lat="46.30375" lon="10.55505">
        <ele>1957.763</ele>
        <time>2018-09-14T13:39:05Z</time>
      </trkpt>
      <trkpt lat="46.30377" lon="10.55505">
        <ele>1958.539</ele>
        <time>2018-09-14T13:39:25Z</time>
      </trkpt>
      <trkpt lat="46.3038" lon="10.55505">
        <ele>1959.356</ele>
        <time>2018-09-14T13:39:45Z</time>
      </trkpt>
      <trkpt lat="46.30382" lon="10.55504">
        <ele>1959.899</ele>
        <time>2018-09-14T13:40:05Z</time>
      </trkpt>
      <trkpt lat="46.30384" lon="10.55502">
        <ele>1960.152</ele>
        <time>2018-09-14T13:40:25Z</time>
      </trkpt>
      <trkpt lat="46.30387" lon="10.55501">
        <ele>1960.395</ele>
        <time>2018-09-14T13:40:45Z</time>
      </trkpt>
      <trkpt lat="46.30389" lon="10.55499">
        <ele>1960.453</ele>
        <time>2018-09-14T13:41:05Z</time>
      </trkpt>
      <trkpt lat="46.30391" lon="10.55497">
        <ele>1960.49</ele>
        <time>2018-09-14T13:41:25Z</time>
      </trkpt>
      <trkpt lat="46.30393" lon="10.55495">
        <ele>1960.534</ele>
        <time>2018-09-14T13:41:45Z</time>
      </trkpt>
      <trkpt lat="46.30395" lon="10.55493">
        <ele>1960.555</ele>
        <time>2018-09-14T13:42:05Z</time>
      </trkpt>
      <trkpt lat="46.30397" lon="10.55491">
        <ele>1960.41</ele>
        <time>2018-09-14T13:42:25Z</time>
      </trkpt>
      <trkpt lat="46.30399" lon="10.55488">
        <ele>1960.208</ele>
        <time>2018-09-14T13:42:45Z</time>
      </trkpt>
      <trkpt lat="46.30401" lon="10.55486">
        <ele>1960.295</ele>
        <time>2018-09-14T13:43:05Z</time>
      </trkpt>
      <trkpt lat="46.30403" lon="10.55484">
        <ele>1960.131</ele>
        <time>2018-09-14T13:43:25Z</time>
      </trkpt>
      <trkpt lat="46.30405" lon="10.55482">
        <ele>1960.158</ele>
        <time>2018-09-14T13:43:45Z</time>
      </trkpt>
      <trkpt lat="46.30407" lon="10.5548">
        <ele>1960.081</ele>
        <time>2018-09-14T13:44:05Z</time>
      </trkpt>
      <trkpt lat="46.30409" lon="10.55478">
        <ele>1960.124</ele>
        <time>2018-09-14T13:44:25Z</time>
      </trkpt>
      <trkpt lat="46.30411" lon="10.55476">
        <ele>1960.297</ele>
        <time>2018-09-14T13:44:45Z</time>
      </trkpt>
      <trkpt lat="46.30413" lon="10.55475">
        <ele>1960.525</ele>
        <time>2018-09-14T13:45:05Z</time>
      </trkpt>
      <trkpt lat="46.30415" lon="10.55474">
        <ele>1960.852</ele>
        <time>2018-09-14T13:45:25Z</time>
      </trkpt>
      <trkpt lat="46.30417" lon="10.55472">
        <ele>1961.094</ele>
        <time>2018-09-14T13:45:45Z</time>
      </trkpt>
      <trkpt lat="46.30419" lon="10.55471">
        <ele>1961.057</ele>
        <time>2018-09-14T13:46:05Z</time>
      </trkpt>
      <trkpt lat="46.30421" lon="10.5547">
        <ele>1961.022</ele>
        <time>2018-09-14T13:46:25Z</time>
      </trkpt>
      <trkpt lat="46.30423" lon="10.55468">
        <ele>1961.108</ele>
        <time>2018-09-14T13:46:45Z</time>
      </trkpt>
      <trkpt lat="46.30425" lon="10.55467">
        <ele>1961.261</ele>
        <time>2018-09-14T13:47:05Z</time>
      </trkpt>
      <trkpt lat="46.30428" lon="10.55466">
        <ele>1961.427</ele>
        <time>2018-09-14T13:47:25Z</time>
      </trkpt>
      <trkpt lat="46.3043" lon="10.55465">
        <ele>1961.764</ele>
        <time>2018-09-14T13:47:45Z</time>
      </trkpt>
      <trkpt lat="46.30432" lon="10.55465">
        <ele>1962.177</ele>
        <time>2018-09-14T13:48:05Z</time>
      </trkpt>
      <trkpt lat="46.30435" lon="10.55464">
        <ele>1962.36</ele>
        <time>2018-09-14T13:48:25Z</time>
      </trkpt>
      <trkpt lat="46.30437" lon="10.55464">
        <ele>1962.873</ele>
        <time>2018-09-14T13:48:45Z</time>
      </trkpt>
      <trkpt lat="46.30439" lon="10.55464">
        <ele>1963.541</ele>
        <time>2018-09-14T13:49:05Z</time>
      </trkpt>
      <trkpt lat="46.3044" lon="10.55467">
        <ele>1965.038</ele>
        <time>2018-09-14T13:49:25Z</time>
      </trkpt>
      <trkpt lat="46.30412" lon="10.55493">
        <ele>1967.381</ele>
        <time>2018-09-14T13:49:45Z</time>
      </trkpt>
      <trkpt lat="46.30411" lon="10.55494">
        <ele>1967.561</ele>
        <time>2018-09-14T13:50:05Z</time>
      </trkpt>
      <trkpt lat="46.3041" lon="10.55497">
        <ele>1968.117</ele>
        <time>2018-09-14T13:50:25Z</time>
      </trkpt>
      <trkpt lat="46.30409" lon="10.555">
        <ele>1969.008</ele>
        <time>2018-09-14T13:50:45Z</time>
      </trkpt>
      <trkpt lat="46.30408" lon="10.55503">
        <ele>1969.81</ele>
        <time>2018-09-14T13:51:05Z</time>
      </trkpt>
      <trkpt lat="46.30407" lon="10.55507">
        <ele>1970.786</ele>
        <time>2018-09-14T13:51:25Z</time>
      </trkpt>
      <trkpt lat="46.30406" lon="10.5551">
        <ele>1971.543</ele>
        <time>2018-09-14T13:51:45Z</time>
      </trkpt>
      <trkpt lat="46.30405" lon="10.55513">
        <ele>1972.476</ele>
        <time>2018-09-14T13:52:05Z</time>
      </trkpt>
      <trkpt lat="46.30404" lon="10.55516">
        <ele>1973.289</ele>
        <time>2018-09-14T13:52:25Z</time>
      </trkpt>
      <trkpt lat="46.30403" lon="10.55519">
        <ele>1973.942</ele>
        <time>2018-09-14T13:52:45Z</time>
      </trkpt>
      <trkpt lat="46.30402" lon="10.55522">
        <ele>1974.71</ele>
        <time>2018-09-14T13:53:05Z</time>
      </trkpt>
      <trkpt lat="46.30401" lon="10.55525">
        <ele>1975.417</ele>
        <time>2018-09-14T13:53:25Z</time>
      </trkpt>
      <trkpt lat="46.304" lon="10.55528">
        <ele>1976.176</ele>
        <time>2018-09-14T13:53:45Z</time>
      </trkpt>
      <trkpt lat="46.30399" lon="10.55531">
        <ele>1976.69</ele>
        <time>2018-09-14T13:54:05Z</time>
      </trkpt>
      <trkpt lat="46.30398" lon="10.55534">
        <ele>1977.119</ele>
        <time>2018-09-14T13:54:25Z</time>
      </trkpt>
      <trkpt lat="46.30397" lon="10.55537">
        <ele>1977.608</ele>
        <time>2018-09-14T13:54:45Z</time>
      </trkpt>
      <trkpt lat="46.30395" lon="10.55539">
        <ele>1978.089</ele>
        <time>2018-09-14T13:55:05Z</time>
      </trkpt>
      <trkpt lat="46.30394" lon="10.55542">
        <ele>1978.325</ele>
        <time>2018-09-14T13:55:25Z</time>
      </trkpt>
      <trkpt lat="46.30392" lon="10.55544">
        <ele>1978.552</ele>
        <time>2018-09-14T13:55:45Z</time>
      </trkpt>
      <trkpt lat="46.30391" lon="10.55547">
        <ele>1978.765</ele>
        <time>2018-09-14T13:56:05Z</time>
      </trkpt>
      <trkpt lat="46.30389" lon="10.55549">
        <ele>1978.828</ele>
        <time>2018-09-14T13:56:25Z</time>
      </trkpt>
      <trkpt lat="46.30387" lon="10.55551">
        <ele>1979.181</ele>
        <time>2018-09-14T13:56:45Z</time>
      </trkpt>
      <trkpt lat="46.30386" lon="10.55553">
        <ele>1979.499</ele>
        <time>2018-09-14T13:57:05Z</time>
      </trkpt>
      <trkpt lat="46.30384" lon="10.55555">
        <ele>1979.886</ele>
        <time>2018-09-14T13:57:25Z</time>
      </trkpt>
      <trkpt lat="46.30383" lon="10.55557">
        <ele>1980.247</ele>
        <time>2018-09-14T13:57:45Z</time>
      </trkpt>
      <trkpt lat="46.30381" lon="10.5556">
        <ele>1980.629</ele>
        <time>2018-09-14T13:58:05Z</time>
      </trkpt>
      <trkpt lat="46.3038" lon="10.55562">
        <ele>1981.021</ele>
        <time>2018-09-14T13:58:25Z</time>
      </trkpt>
      <trkpt lat="46.30378" lon="10.55564">
        <ele>1981.608</ele>
        <time>2018-09-14T13:58:45Z</time>
      </trkpt>
      <trkpt lat="46.30377" lon="10.55567">
        <ele>1982.216</ele>
        <time>2018-09-14T13:59:05Z</time>
      </trkpt>
      <trkpt lat="46.30376" lon="10.55569">
        <ele>1982.812</ele>
        <time>2018-09-14T13:59:25Z</time>
      </trkpt>
      <trkpt lat="46.30374" lon="10.55572">
        <ele>1983.479</ele>
        <time>2018-09-14T13:59:45Z</time>
      </trkpt>
      <trkpt lat="46.30373" lon="10.55574">
        <ele>1984.012</ele>
        <time>2018-09-14T14:00:05Z</time>
      </trkpt>
      <trkpt lat="46.30372" lon="10.55577">
        <ele>1984.785</ele>
        <time>2018-09-14T14:00:25Z</time>
      </trkpt>
      <trkpt lat="46.30371" lon="10.55579">
        <ele>1985.368</ele>
        <time>2018-09-14T14:00:45Z</time>
      </trkpt>
      <trkpt lat="46.3037" lon="10.55582">
        <ele>1986.066</ele>
        <time>2018-09-14T14:01:05Z</time>
      </trkpt>
      <trkpt lat="46.30369" lon="10.55584">
        <ele>1986.633</ele>
        <time>2018-09-14T14:01:25Z</time>
      </trkpt>
      <trkpt lat="46.30367" lon="10.55587">
        <ele>1987.218</ele>
        <time>2018-09-14T14:01:45Z</time>
      </trkpt>
      <trkpt lat="46.30366" lon="10.55589">
        <ele>1987.898</ele>
        <time>2018-09-14T14:02:05Z</time>
      </trkpt>
      <trkpt lat="46.30365" lon="10.55591">
        <ele>1988.517</ele>
        <time>2018-09-14T14:02:25Z</time>
      </trkpt>
      <trkpt lat="46.30364" lon="10.55594">
        <ele>1989.108</ele>
        <time>2018-09-14T14:02:45Z</time>
      </trkpt>
      <trkpt lat="46.30362" lon="10.55596">
        <ele>1989.673</ele>
        <time>2018-09-14T14:03:05Z</time>
      </trkpt>
      <trkpt lat="46.30361" lon="10.55598">
        <ele>1990.239</ele>
        <time>2018-09-14T14:03:25Z</time>
      </trkpt>
      <trkpt lat="46.30359" lon="10.556">
        <ele>1990.796</ele>
        <time>2018-09-14T14:03:45Z</time>
      </trkpt>
      <trkpt lat="46.30358" lon="10.55602">
        <ele>1991.069</ele>
        <time>2018-09-14T14:04:05Z</time>
      </trkpt>
      <trkpt lat="46.30356" lon="10.55604">
        <ele>1991.482</ele>
        <time>2018-09-14T14:04:25Z</time>
      </trkpt>
      <trkpt lat="46.30355" lon="10.55606">
        <ele>1991.755</ele>
        <time>2018-09-14T14:04:45Z</time>
      </trkpt>
      <trkpt lat="46.30353" lon="10.55607">
        <ele>1992.083</ele>
        <time>2018-09-14T14:05:05Z</time>
      </trkpt>
      <trkpt lat="46.30351" lon="10.55609">
        <ele>1992.31</ele>
        <time>2018-09-14T14:05:25Z</time>
      </trkpt>
      <trkpt lat="46.30349" lon="10.55611">
        <ele>1992.686</ele>
        <time>2018-09-14T14:05:45Z</time>
      </trkpt>
      <trkpt lat="46.30347" lon="10.55612">
        <ele>1992.86</ele>
        <time>2018-09-14T14:06:05Z</time>
      </trkpt>
      <trkpt lat="46.30345" lon="10.55613">
        <ele>1993.126</ele>
        <time>2018-09-14T14:06:25Z</time>
      </trkpt>
      <trkpt lat="46.30343" lon="10.55615">
        <ele>1993.308</ele>
        <time>2018-09-14T14:06:45Z</time>
      </trkpt>
      <trkpt lat="46.30341" lon="10.55617">
        <ele>1993.73</ele>
        <time>2018-09-14T14:07:05Z</time>
      </trkpt>
      <trkpt lat="46.30339" lon="10.55618">
        <ele>1994.086</ele>
        <time>2018-09-14T14:07:25Z</time>
      </trkpt>
      <trkpt lat="46.30337" lon="10.5562">
        <ele>1994.313</ele>
        <time>2018-09-14T14:07:45Z</time>
      </trkpt>
      <trkpt lat="46.30335" lon="10.55621">
        <ele>1994.686</ele>
        <time>2018-09-14T14:08:05Z</time>
      </trkpt>
      <trkpt lat="46.30333" lon="10.55623">
        <ele>1995.059</ele>
        <time>2018-09-14T14:08:25Z</time>
      </trkpt>
      <trkpt lat="46.30331" lon="10.55625">
        <ele>1995.492</ele>
        <time>2018-09-14T14:08:45Z</time>
      </trkpt>
      <trkpt lat="46.30329" lon="10.55627">
        <ele>1995.94</ele>
        <time>2018-09-14T14:09:05Z</time>
      </trkpt>
      <trkpt lat="46.30327" lon="10.55628">
        <ele>1996.437</ele>
        <time>2018-09-14T14:09:25Z</time>
      </trkpt>
      <trkpt lat="46.30325" lon="10.5563">
        <ele>1996.845</ele>
        <time>2018-09-14T14:09:45Z</time>
      </trkpt>
      <trkpt lat="46.30324" lon="10.55632">
        <ele>1997.247</ele>
        <time>2018-09-14T14:10:05Z</time>
      </trkpt>
      <trkpt lat="46.30322" lon="10.55634">
        <ele>1997.711</ele>
        <time>2018-09-14T14:10:25Z</time>
      </trkpt>
      <trkpt lat="46.30319" lon="10.55636">
        <ele>1998.108</ele>
        <time>2018-09-14T14:10:45Z</time>
      </trkpt>
      <trkpt lat="46.30317" lon="10.55637">
        <ele>1998.496</ele>
        <time>2018-09-14T14:11:05Z</time>
      </trkpt>
      <trkpt lat="46.30315" lon="10.55639">
        <ele>1998.812</ele>
        <time>2018-09-14T14:11:25Z</time>
      </trkpt>
      <trkpt lat="46.30313" lon="10.55641">
        <ele>1999.229</ele>
        <time>2018-09-14T14:11:45Z</time>
      </trkpt>
      <trkpt lat="46.30311" lon="10.55642">
        <ele>1999.672</ele>
        <time>2018-09-14T14:12:05Z</time>
      </trkpt>
      <trkpt lat="46.30309" lon="10.55644">
        <ele>2000.125</ele>
        <time>2018-09-14T14:12:25Z</time>
      </trkpt>
      <trkpt lat="46.30307" lon="10.55646">
        <ele>2000.698</ele>
        <time>2018-09-14T14:12:45Z</time>
      </trkpt>
      <trkpt lat="46.30305" lon="10.55648">
        <ele>2001.176</ele>
        <time>2018-09-14T14:13:05Z</time>
      </trkpt>
      <trkpt lat="46.30303" lon="10.55649">
        <ele>2001.783</ele>
        <time>2018-09-14T14:13:25Z</time>
      </trkpt>
      <trkpt lat="46.303" lon="10.55651">
        <ele>2002.277</ele>
        <time>2018-09-14T14:13:45Z</time>
      </trkpt>
      <trkpt lat="46.30298" lon="10.55653">
        <ele>2002.661</ele>
        <time>2018-09-14T14:14:05Z</time>
      </trkpt>
      <trkpt lat="46.30296" lon="10.55654">
        <ele>2003.027</ele>
        <time>2018-09-14T14:14:25Z</time>
      </trkpt>
      <trkpt lat="46.30294" lon="10.55656">
        <ele>2003.408</ele>
        <time>2018-09-14T14:14:45Z</time>
      </trkpt>
      <trkpt lat="46.30291" lon="10.55657">
        <ele>2003.819</ele>
        <time>2018-09-14T14:15:05Z</time>
      </trkpt>
      <trkpt lat="46.30289" lon="10.55659">
        <ele>2004.175</ele>
        <time>2018-09-14T14:15:25Z</time>
      </trkpt>
      <trkpt lat="46.30287" lon="10.5566">
        <ele>2004.372</ele>
        <time>2018-09-14T14:15:45Z</time>
      </trkpt>
      <trkpt lat="46.30284" lon="10.55661">
        <ele>2004.665</ele>
        <time>2018-09-14T14:16:05Z</time>
      </trkpt>
      <trkpt lat="46.30282" lon="10.55663">
        <ele>2004.898</ele>
        <time>2018-09-14T14:16:25Z</time>
      </trkpt>
      <trkpt lat="46.30279" lon="10.55664">
        <ele>2005.051</ele>
        <time>2018-09-14T14:16:45Z</time>
      </trkpt>
      <trkpt lat="46.30277" lon="10.55666">
        <ele>2005.169</ele>
        <time>2018-09-14T14:17:05Z</time>
      </trkpt>
      <trkpt lat="46.30274" lon="10.55667">
        <ele>2005.326</ele>
        <time>2018-09-14T14:17:25Z</time>
      </trkpt>
      <trkpt lat="46.30272" lon="10.55669">
        <ele>2005.595</ele>
        <time>2018-09-14T14:17:45Z</time>
      </trkpt>
      <trkpt lat="46.30269" lon="10.55671">
        <ele>2005.749</ele>
        <time>2018-09-14T14:18:05Z</time>
      </trkpt>
      <trkpt lat="46.30267" lon="10.55672">
        <ele>2006.023</ele>
        <time>2018-09-14T14:18:25Z</time>
      </trkpt>
      <trkpt lat="46.30265" lon="10.55674">
        <ele>2006.308</ele>
        <time>2018-09-14T14:18:45Z</time>
      </trkpt>
      <trkpt lat="46.30262" lon="10.55676">
        <ele>2006.671</ele>
        <time>2018-09-14T14:19:05Z</time>
      </trkpt>
      <trkpt lat="46.3026" lon="10.55679">
        <ele>2006.987</ele>
        <time>2018-09-14T14:19:25Z</time>
      </trkpt>
      <trkpt lat="46.30257" lon="10.55681">
        <ele>2007.284</ele>
        <time>2018-09-14T14:19:45Z</time>
      </trkpt>
      <trkpt lat="46.30255" lon="10.55683">
        <ele>2007.787</ele>
        <time>2018-09-14T14:20:05Z</time>
      </trkpt>
      <trkpt lat="46.30253" lon="10.55685">
        <ele>2008.07</ele>
        <time>2018-09-14T14:20:25Z</time>
      </trkpt>
      <trkpt lat="46.30251" lon="10.55688">
        <ele>2008.463</ele>
        <time>2018-09-14T14:20:45Z</time>
      </trkpt>
      <trkpt lat="46.30249" lon="10.5569">
        <ele>2008.881</ele>
        <time>2018-09-14T14:21:05Z</time>
      </trkpt>
      <trkpt lat="46.30246" lon="10.55692">
        <ele>2009.428</ele>
        <time>2018-09-14T14:21:25Z</time>
      </trkpt>
      <trkpt lat="46.30244" lon="10.55695">
        <ele>2010.013</ele>
        <time>2018-09-14T14:21:45Z</time>
      </trkpt>
      <trkpt lat="46.30242" lon="10.55697">
        <ele>2010.643</ele>
        <time>2018-09-14T14:22:05Z</time>
      </trkpt>
      <trkpt lat="46.3024" lon="10.557">
        <ele>2011.207</ele>
        <time>2018-09-14T14:22:25Z</time>
      </trkpt>
      <trkpt lat="46.30238" lon="10.55702">
        <ele>2011.708</ele>
        <time>2018-09-14T14:22:45Z</time>
      </trkpt>
      <trkpt lat="46.30236" lon="10.55704">
        <ele>2012.313</ele>
        <time>2018-09-14T14:23:05Z</time>
      </trkpt>
      <trkpt lat="46.30233" lon="10.55706">
        <ele>2012.829</ele>
        <time>2018-09-14T14:23:25Z</time>
      </trkpt>
      <trkpt lat="46.30231" lon="10.55708">
        <ele>2013.136</ele>
        <time>2018-09-14T14:23:45Z</time>
      </trkpt>
      <trkpt lat="46.30229" lon="10.55709">
        <ele>2013.469</ele>
        <time>2018-09-14T14:24:05Z</time>
      </trkpt>
      <trkpt lat="46.30226" lon="10.55711">
        <ele>2013.742</ele>
        <time>2018-09-14T14:24:25Z</time>
      </trkpt>
      <trkpt lat="46.30224" lon="10.55712">
        <ele>2013.925</ele>
        <time>2018-09-14T14:24:45Z</time>
      </trkpt>
      <trkpt lat="46.30221" lon="10.55714">
        <ele>2014.173</ele>
        <time>2018-09-14T14:25:05Z</time>
      </trkpt>
      <trkpt lat="46.30219" lon="10.55715">
        <ele>2014.19</ele>
        <time>2018-09-14T14:25:25Z</time>
      </trkpt>
      <trkpt lat="46.30217" lon="10.55716">
        <ele>2014.085</ele>
        <time>2018-09-14T14:25:45Z</time>
      </trkpt>
      <trkpt lat="46.30215" lon="10.55717">
        <ele>2013.989</ele>
        <time>2018-09-14T14:26:05Z</time>
      </trkpt>
      <trkpt lat="46.30213" lon="10.55718">
        <ele>2013.817</ele>
        <time>2018-09-14T14:26:25Z</time>
      </trkpt>
      <trkpt lat="46.30211" lon="10.5572">
        <ele>2014.408</ele>
        <time>2018-09-14T14:26:45Z</time>
      </trkpt>
      <trkpt lat="46.3021" lon="10.55723">
        <ele>2015.64</ele>
        <time>2018-09-14T14:27:05Z</time>
      </trkpt>
      <trkpt lat="46.3021" lon="10.55726">
        <ele>2017.196</ele>
        <time>2018-09-14T14:27:25Z</time>
      </trkpt>
      <trkpt lat="46.30212" lon="10.55727">
        <ele>2018.593</ele>
        <time>2018-09-14T14:27:45Z</time>
      </trkpt>
      <trkpt lat="46.30214" lon="10.55728">
        <ele>2019.226</ele>
        <time>2018-09-14T14:28:05Z</time>
      </trkpt>
      <trkpt lat="46.30217" lon="10.55728">
        <ele>2019.769</ele>
        <time>2018-09-14T14:28:25Z</time>
      </trkpt>
      <trkpt lat="46.30219" lon="10.55727">
        <ele>2019.912</ele>
        <time>2018-09-14T14:28:45Z</time>
      </trkpt>
      <trkpt lat="46.30221" lon="10.55727">
        <ele>2020.15</ele>
        <time>2018-09-14T14:29:05Z</time>
      </trkpt>
      <trkpt lat="46.30223" lon="10.55727">
        <ele>2020.377</ele>
        <time>2018-09-14T14:29:25Z</time>
      </trkpt>
      <trkpt lat="46.30225" lon="10.55726">
        <ele>2020.458</ele>
        <time>2018-09-14T14:29:45Z</time>
      </trkpt>
      <trkpt lat="46.30227" lon="10.55726">
        <ele>2020.452</ele>
        <time>2018-09-14T14:30:05Z</time>
      </trkpt>
      <trkpt lat="46.30229" lon="10.55725">
        <ele>2020.517</ele>
        <time>2018-09-14T14:30:25Z</time>
      </trkpt>
      <trkpt lat="46.30231" lon="10.55725">
        <ele>2020.608</ele>
        <time>2018-09-14T14:30:45Z</time>
      </trkpt>
      <trkpt lat="46.30233" lon="10.55725">
        <ele>2020.787</ele>
        <time>2018-09-14T14:31:05Z</time>
      </trkpt>
      <trkpt lat="46.30236" lon="10.55724">
        <ele>2020.833</ele>
        <time>2018-09-14T14:31:25Z</time>
      </trkpt>
      <trkpt lat="46.30238" lon="10.55724">
        <ele>2020.94</ele>
        <time>2018-09-14T14:31:45Z</time>
      </trkpt>
      <trkpt lat="46.3024" lon="10.55723">
        <ele>2020.933</ele>
        <time>2018-09-14T14:32:05Z</time>
      </trkpt>
      <trkpt lat="46.30242" lon="10.55723">
        <ele>2021.016</ele>
        <time>2018-09-14T14:32:25Z</time>
      </trkpt>
      <trkpt lat="46.30244" lon="10.55722">
        <ele>2021.179</ele>
        <time>2018-09-14T14:32:45Z</time>
      </trkpt>
      <trkpt lat="46.30247" lon="10.55722">
        <ele>2021.277</ele>
        <time>2018-09-14T14:33:05Z</time>
      </trkpt>
      <trkpt lat="46.30249" lon="10.55721">
        <ele>2021.264</ele>
        <time>2018-09-14T14:33:25Z</time>
      </trkpt>
      <trkpt lat="46.30251" lon="10.5572">
        <ele>2021.494</ele>
        <time>2018-09-14T14:33:45Z</time>
      </trkpt>
      <trkpt lat="46.30253" lon="10.5572">
        <ele>2021.657</ele>
        <time>2018-09-14T14:34:05Z</time>
      </trkpt>
      <trkpt lat="46.30255" lon="10.55719">
        <ele>2022.022</ele>
        <time>2018-09-14T14:34:25Z</time>
      </trkpt>
      <trkpt lat="46.30257" lon="10.55718">
        <ele>2022.308</ele>
        <time>2018-09-14T14:34:45Z</time>
      </trkpt>
      <trkpt lat="46.3026" lon="10.55718">
        <ele>2022.731</ele>
        <time>2018-09-14T14:35:05Z</time>
      </trkpt>
      <trkpt lat="46.30262" lon="10.55717">
        <ele>2023.037</ele>
        <time>2018-09-14T14:35:25Z</time>
      </trkpt>
      <trkpt lat="46.30264" lon="10.55717">
        <ele>2023.484</ele>
        <time>2018-09-14T14:35:45Z</time>
      </trkpt>
      <trkpt lat="46.30266" lon="10.55717">
        <ele>2023.867</ele>
        <time>2018-09-14T14:36:05Z</time>
      </trkpt>
      <trkpt lat="46.30269" lon="10.55716">
        <ele>2024.18</ele>
        <time>2018-09-14T14:36:25Z</time>
      </trkpt>
      <trkpt lat="46.30271" lon="10.55716">
        <ele>2024.533</ele>
        <time>2018-09-14T14:36:45Z</time>
      </trkpt>
      <trkpt lat="46.30273" lon="10.55715">
        <ele>2024.851</ele>
        <time>2018-09-14T14:37:05Z</time>
      </trkpt>
      <trkpt lat="46.30275" lon="10.55715">
        <ele>2025.228</ele>
        <time>2018-09-14T14:37:25Z</time>
      </trkpt>
      <trkpt lat="46.30277" lon="10.55715">
        <ele>2025.739</ele>
        <time>2018-09-14T14:37:45Z</time>
      </trkpt>
      <trkpt lat="46.30279" lon="10.55714">
        <ele>2026.201</ele>
        <time>2018-09-14T14:38:05Z</time>
      </trkpt>
      <trkpt lat="46.30281" lon="10.55714">
        <ele>2026.621</ele>
        <time>2018-09-14T14:38:25Z</time>
      </trkpt>
      <trkpt lat="46.30283" lon="10.55715">
        <ele>2027.208</ele>
        <time>2018-09-14T14:38:45Z</time>
      </trkpt>
      <trkpt lat="46.30285" lon="10.55715">
        <ele>2027.785</ele>
        <time>2018-09-14T14:39:05Z</time>
      </trkpt>
      <trkpt lat="46.30287" lon="10.55715">
        <ele>2028.321</ele>
        <time>2018-09-14T14:39:25Z</time>
      </trkpt>
      <trkpt lat="46.30289" lon="10.55716">
        <ele>2029.068</ele>
        <time>2018-09-14T14:39:45Z</time>
      </trkpt>
      <trkpt lat="46.30291" lon="10.55716">
        <ele>2029.661</ele>
        <time>2018-09-14T14:40:05Z</time>
      </trkpt>
      <trkpt lat="46.30293" lon="10.55717">
        <ele>2030.424</ele>
        <time>2018-09-14T14:40:25Z</time>
      </trkpt>
      <trkpt lat="46.30295" lon="10.55718">
        <ele>2031.157</ele>
        <time>2018-09-14T14:40:45Z</time>
      </trkpt>
      <trkpt lat="46.30297" lon="10.55719">
        <ele>2031.875</ele>
        <time>2018-09-14T14:41:05Z</time>
      </trkpt>
      <trkpt lat="46.30299" lon="10.55719">
        <ele>2032.382</ele>
        <time>2018-09-14T14:41:25Z</time>
      </trkpt>
      <trkpt lat="46.30301" lon="10.55719">
        <ele>2032.944</ele>
        <time>2018-09-14T14:41:45Z</time>
      </trkpt>
      <trkpt lat="46.30303" lon="10.55719">
        <ele>2033.405</ele>
        <time>2018-09-14T14:42:05Z</time>
      </trkpt>
      <trkpt lat="46.30305" lon="10.55719">
        <ele>2033.715</ele>
        <time>2018-09-14T14:42:25Z</time>
      </trkpt>
      <trkpt lat="46.30307" lon="10.55719">
        <ele>2034.008</ele>
        <time>2018-09-14T14:42:45Z</time>
      </trkpt>
      <trkpt lat="46.30309" lon="10.55719">
        <ele>2034.216</ele>
        <time>2018-09-14T14:43:05Z</time>
      </trkpt>
      <trkpt lat="46.30311" lon="10.55718">
        <ele>2034.342</ele>
        <time>2018-09-14T14:43:25Z</time>
      </trkpt>
      <trkpt lat="46.30313" lon="10.55717">
        <ele>2034.519</ele>
        <time>2018-09-14T14:43:45Z</time>
      </trkpt>
      <trkpt lat="46.30315" lon="10.55717">
        <ele>2034.732</ele>
        <time>2018-09-14T14:44:05Z</time>
      </trkpt>
      <trkpt lat="46.30317" lon="10.55717">
        <ele>2034.895</ele>
        <time>2018-09-14T14:44:25Z</time>
      </trkpt>
      <trkpt lat="46.30318" lon="10.55716">
        <ele>2035.068</ele>
        <time>2018-09-14T14:44:45Z</time>
      </trkpt>
      <trkpt lat="46.30367" lon="10.5571">
        <ele>2041.736</ele>
        <time>2018-09-14T14:45:05Z</time>
      </trkpt>
      <trkpt lat="46.30367" lon="10.5571">
        <ele>2041.723</ele>
        <time>2018-09-14T14:45:25Z</time>
      </trkpt>
      <trkpt lat="46.30369" lon="10.5571">
        <ele>2042.268</ele>
        <time>2018-09-14T14:45:45Z</time>
      </trkpt>
      <trkpt lat="46.30371" lon="10.5571">
        <ele>2042.742</ele>
        <time>2018-09-14T14:46:05Z</time>
      </trkpt>
      <trkpt lat="46.30373" lon="10.5571">
        <ele>2043.226</ele>
        <time>2018-09-14T14:46:25Z</time>
      </trkpt>
      <trkpt lat="46.30375" lon="10.55711">
        <ele>2043.808</ele>
        <time>2018-09-14T14:46:45Z</time>
      </trkpt>
      <trkpt lat="46.30377" lon="10.55711">
        <ele>2044.588</ele>
        <time>2018-09-14T14:47:05Z</time>
      </trkpt>
      <trkpt lat="46.30379" lon="10.55712">
        <ele>2045.044</ele>
        <time>2018-09-14T14:47:25Z</time>
      </trkpt>
      <trkpt lat="46.30381" lon="10.55712">
        <ele>2045.611</ele>
        <time>2018-09-14T14:47:45Z</time>
      </trkpt>
      <trkpt lat="46.30383" lon="10.55713">
        <ele>2046.374</ele>
        <time>2018-09-14T14:48:05Z</time>
      </trkpt>
      <trkpt lat="46.30385" lon="10.55713">
        <ele>2047.057</ele>
        <time>2018-09-14T14:48:25Z</time>
      </trkpt>
      <trkpt lat="46.30387" lon="10.55714">
        <ele>2047.74</ele>
        <time>2018-09-14T14:48:45Z</time>
      </trkpt>
      <trkpt lat="46.30389" lon="10.55714">
        <ele>2048.318</ele>
        <time>2018-09-14T14:49:05Z</time>
      </trkpt>
      <trkpt lat="46.30392" lon="10.55714">
        <ele>2049.075</ele>
        <time>2018-09-14T14:49:25Z</time>
      </trkpt>
      <trkpt lat="46.30394" lon="10.55714">
        <ele>2049.642</ele>
        <time>2018-09-14T14:49:45Z</time>
      </trkpt>
      <trkpt lat="46.30396" lon="10.55713">
        <ele>2049.922</ele>
        <time>2018-09-14T14:50:05Z</time>
      </trkpt>
      <trkpt lat="46.30398" lon="10.55713">
        <ele>2050.414</ele>
        <time>2018-09-14T14:50:25Z</time>
      </trkpt>
      <trkpt lat="46.304" lon="10.55712">
        <ele>2050.708</ele>
        <time>2018-09-14T14:50:45Z</time>
      </trkpt>
      <trkpt lat="46.30402" lon="10.55711">
        <ele>2051.016</ele>
        <time>2018-09-14T14:51:05Z</time>
      </trkpt>
      <trkpt lat="46.30405" lon="10.55711">
        <ele>2051.392</ele>
        <time>2018-09-14T14:51:25Z</time>
      </trkpt>
      <trkpt lat="46.30407" lon="10.5571">
        <ele>2051.779</ele>
        <time>2018-09-14T14:51:45Z</time>
      </trkpt>
      <trkpt lat="46.30409" lon="10.55709">
        <ele>2052.142</ele>
        <time>2018-09-14T14:52:05Z</time>
      </trkpt>
      <trkpt lat="46.30411" lon="10.55708">
        <ele>2052.445</ele>
        <time>2018-09-14T14:52:25Z</time>
      </trkpt>
      <trkpt lat="46.30413" lon="10.55708">
        <ele>2052.928</ele>
        <time>2018-09-14T14:52:45Z</time>
      </trkpt>
      <trkpt lat="46.30415" lon="10.55707">
        <ele>2053.556</ele>
        <time>2018-09-14T14:53:05Z</time>
      </trkpt>
      <trkpt lat="46.30417" lon="10.55707">
        <ele>2054.023</ele>
        <time>2018-09-14T14:53:25Z</time>
      </trkpt>
      <trkpt lat="46.3042" lon="10.55706">
        <ele>2054.492</ele>
        <time>2018-09-14T14:53:45Z</time>
      </trkpt>
      <trkpt lat="46.30422" lon="10.55706">
        <ele>2054.873</ele>
        <time>2018-09-14T14:54:05Z</time>
      </trkpt>
      <trkpt lat="46.30424" lon="10.55705">
        <ele>2055.22</ele>
        <time>2018-09-14T14:54:25Z</time>
      </trkpt>
      <trkpt lat="46.30426" lon="10.55705">
        <ele>2055.608</ele>
        <time>2018-09-14T14:54:45Z</time>
      </trkpt>
      <trkpt lat="46.30428" lon="10.55704">
        <ele>2056.121</ele>
        <time>2018-09-14T14:55:05Z</time>
      </trkpt>
      <trkpt lat="46.3043" lon="10.55704">
        <ele>2056.457</ele>
        <time>2018-09-14T14:55:25Z</time>
      </trkpt>
      <trkpt lat="46.30433" lon="10.55703">
        <ele>2056.834</ele>
        <time>2018-09-14T14:55:45Z</time>
      </trkpt>
      <trkpt lat="46.30435" lon="10.55702">
        <ele>2057.157</ele>
        <time>2018-09-14T14:56:05Z</time>
      </trkpt>
      <trkpt lat="46.30437" lon="10.55702">
        <ele>2057.47</ele>
        <time>2018-09-14T14:56:25Z</time>
      </trkpt>
      <trkpt lat="46.30439" lon="10.55701">
        <ele>2057.523</ele>
        <time>2018-09-14T14:56:45Z</time>
      </trkpt>
      <trkpt lat="46.30441" lon="10.55699">
        <ele>2057.751</ele>
        <time>2018-09-14T14:57:05Z</time>
      </trkpt>
      <trkpt lat="46.30443" lon="10.55698">
        <ele>2057.968</ele>
        <time>2018-09-14T14:57:25Z</time>
      </trkpt>
      <trkpt lat="46.30445" lon="10.55697">
        <ele>2058.139</ele>
        <time>2018-09-14T14:57:45Z</time>
      </trkpt>
      <trkpt lat="46.30446" lon="10.55697">
        <ele>2058.201</ele>
        <time>2018-09-14T14:58:05Z</time>
      </trkpt>
      <trkpt lat="46.30447" lon="10.55696">
        <ele>2058.321</ele>
        <time>2018-09-14T14:58:25Z</time>
      </trkpt>
      <trkpt lat="46.3045" lon="10.55695">
        <ele>2058.608</ele>
        <time>2018-09-14T14:58:45Z</time>
      </trkpt>
      <trkpt lat="46.30452" lon="10.55694">
        <ele>2058.925</ele>
        <time>2018-09-14T14:59:05Z</time>
      </trkpt>
      <trkpt lat="46.30454" lon="10.55692">
        <ele>2059.041</ele>
        <time>2018-09-14T14:59:25Z</time>
      </trkpt>
      <trkpt lat="46.30457" lon="10.5569">
        <ele>2059.038</ele>
        <time>2018-09-14T14:59:45Z</time>
      </trkpt>
      <trkpt lat="46.30459" lon="10.55688">
        <ele>2058.821</ele>
        <time>2018-09-14T15:00:05Z</time>
      </trkpt>
      <trkpt lat="46.3046" lon="10.55685">
        <ele>2058.754</ele>
        <time>2018-09-14T15:00:25Z</time>
      </trkpt>
      <trkpt lat="46.30462" lon="10.55683">
        <ele>2058.527</ele>
        <time>2018-09-14T15:00:45Z</time>
      </trkpt>
      <trkpt lat="46.30464" lon="10.5568">
        <ele>2058.265</ele>
        <time>2018-09-14T15:01:05Z</time>
      </trkpt>
      <trkpt lat="46.30466" lon="10.55678">
        <ele>2057.972</ele>
        <time>2018-09-14T15:01:25Z</time>
      </trkpt>
      <trkpt lat="46.30467" lon="10.55675">
        <ele>2057.762</ele>
        <time>2018-09-14T15:01:45Z</time>
      </trkpt>
      <trkpt lat="46.30469" lon="10.55673">
        <ele>2057.483</ele>
        <time>2018-09-14T15:02:05Z</time>
      </trkpt>
      <trkpt lat="46.3047" lon="10.5567">
        <ele>2057.111</ele>
        <time>2018-09-14T15:02:25Z</time>
      </trkpt>
      <trkpt lat="46.30472" lon="10.55667">
        <ele>2056.808</ele>
        <time>2018-09-14T15:02:45Z</time>
      </trkpt>
      <trkpt lat="46.30474" lon="10.55663">
        <ele>2056.998</ele>
        <time>2018-09-14T15:03:05Z</time>
      </trkpt>
      <trkpt lat="46.30476" lon="10.5566">
        <ele>2057.074</ele>
        <time>2018-09-14T15:03:25Z</time>
      </trkpt>
      <trkpt lat="46.30478" lon="10.55657">
        <ele>2057.121</ele>
        <time>2018-09-14T15:03:45Z</time>
      </trkpt>
      <trkpt lat="46.30479" lon="10.55654">
        <ele>2057.174</ele>
        <time>2018-09-14T15:04:05Z</time>
      </trkpt>
      <trkpt lat="46.30481" lon="10.55651">
        <ele>2057.137</ele>
        <time>2018-09-14T15:04:25Z</time>
      </trkpt>
      <trkpt lat="46.30483" lon="10.55648">
        <ele>2057.19</ele>
        <time>2018-09-14T15:04:45Z</time>
      </trkpt>
      <trkpt lat="46.30485" lon="10.55646">
        <ele>2057.288</ele>
        <time>2018-09-14T15:05:05Z</time>
      </trkpt>
      <trkpt lat="46.30487" lon="10.55644">
        <ele>2057.335</ele>
        <time>2018-09-14T15:05:25Z</time>
      </trkpt>
      <trkpt lat="46.30489" lon="10.55642">
        <ele>2057.454</ele>
        <time>2018-09-14T15:05:45Z</time>
      </trkpt>
      <trkpt lat="46.30491" lon="10.5564">
        <ele>2057.656</ele>
        <time>2018-09-14T15:06:05Z</time>
      </trkpt>
      <trkpt lat="46.30492" lon="10.55639">
        <ele>2057.811</ele>
        <time>2018-09-14T15:06:25Z</time>
      </trkpt>
      <trkpt lat="46.30494" lon="10.55638">
        <ele>2058.308</ele>
        <time>2018-09-14T15:06:45Z</time>
      </trkpt>
      <trkpt lat="46.30496" lon="10.55639">
        <ele>2059.417</ele>
        <time>2018-09-14T15:07:05Z</time>
      </trkpt>
      <trkpt lat="46.30497" lon="10.55641">
        <ele>2060.463</ele>
        <time>2018-09-14T15:07:25Z</time>
      </trkpt>
      <trkpt lat="46.30495" lon="10.55645">
        <ele>2060.86</ele>
        <time>2018-09-14T15:07:45Z</time>
      </trkpt>
      <trkpt lat="46.30493" lon="10.55647">
        <ele>2060.853</ele>
        <time>2018-09-14T15:08:05Z</time>
      </trkpt>
      <trkpt lat="46.30491" lon="10.55649">
        <ele>2060.776</ele>
        <time>2018-09-14T15:08:25Z</time>
      </trkpt>
      <trkpt lat="46.3049" lon="10.55651">
        <ele>2060.759</ele>
        <time>2018-09-14T15:08:45Z</time>
      </trkpt>
      <trkpt lat="46.30488" lon="10.55654">
        <ele>2060.867</ele>
        <time>2018-09-14T15:09:05Z</time>
      </trkpt>
      <trkpt lat="46.30487" lon="10.55657">
        <ele>2061.344</ele>
        <time>2018-09-14T15:09:25Z</time>
      </trkpt>
      <trkpt lat="46.30486" lon="10.5566">
        <ele>2061.758</ele>
        <time>2018-09-14T15:09:45Z</time>
      </trkpt>
      <trkpt lat="46.30485" lon="10.55663">
        <ele>2062.152</ele>
        <time>2018-09-14T15:10:05Z</time>
      </trkpt>
      <trkpt lat="46.30484" lon="10.55666">
        <ele>2062.617</ele>
        <time>2018-09-14T15:10:25Z</time>
      </trkpt>
      <trkpt lat="46.30483" lon="10.55669">
        <ele>2063.008</ele>
        <time>2018-09-14T15:10:45Z</time>
      </trkpt>
      <trkpt lat="46.30482" lon="10.55672">
        <ele>2063.567</ele>
        <time>2018-09-14T15:11:05Z</time>
      </trkpt>
      <trkpt lat="46.30481" lon="10.55675">
        <ele>2064.073</ele>
        <time>2018-09-14T15:11:25Z</time>
      </trkpt>
      <trkpt lat="46.30481" lon="10.55678">
        <ele>2064.55</ele>
        <time>2018-09-14T15:11:45Z</time>
      </trkpt>
      <trkpt lat="46.3048" lon="10.55682">
        <ele>2065.133</ele>
        <time>2018-09-14T15:12:05Z</time>
      </trkpt>
      <trkpt lat="46.30479" lon="10.55685">
        <ele>2065.736</ele>
        <time>2018-09-14T15:12:25Z</time>
      </trkpt>
      <trkpt lat="46.30478" lon="10.55688">
        <ele>2066.339</ele>
        <time>2018-09-14T15:12:45Z</time>
      </trkpt>
      <trkpt lat="46.30478" lon="10.55692">
        <ele>2066.957</ele>
        <time>2018-09-14T15:13:05Z</time>
      </trkpt>
      <trkpt lat="46.30477" lon="10.55695">
        <ele>2067.584</ele>
        <time>2018-09-14T15:13:25Z</time>
      </trkpt>
      <trkpt lat="46.30476" lon="10.55698">
        <ele>2068.167</ele>
        <time>2018-09-14T15:13:45Z</time>
      </trkpt>
      <trkpt lat="46.30476" lon="10.55702">
        <ele>2068.681</ele>
        <time>2018-09-14T15:14:05Z</time>
      </trkpt>
      <trkpt lat="46.30475" lon="10.55705">
        <ele>2069.219</ele>
        <time>2018-09-14T15:14:25Z</time>
      </trkpt>
      <trkpt lat="46.30474" lon="10.55708">
        <ele>2069.608</ele>
        <time>2018-09-14T15:14:45Z</time>
      </trkpt>
      <trkpt lat="46.30473" lon="10.55711">
        <ele>2070.088</ele>
        <time>2018-09-14T15:15:05Z</time>
      </trkpt>
      <trkpt lat="46.30472" lon="10.55714">
        <ele>2070.514</ele>
        <time>2018-09-14T15:15:25Z</time>
      </trkpt>
      <trkpt lat="46.30471" lon="10.55717">
        <ele>2071.031</ele>
        <time>2018-09-14T15:15:45Z</time>
      </trkpt>
      <trkpt lat="46.30469" lon="10.5572">
        <ele>2071.464</ele>
        <time>2018-09-14T15:16:05Z</time>
      </trkpt>
      <trkpt lat="46.30468" lon="10.55722">
        <ele>2071.847</ele>
        <time>2018-09-14T15:16:25Z</time>
      </trkpt>
      <trkpt lat="46.30466" lon="10.55725">
        <ele>2072.12</ele>
        <time>2018-09-14T15:16:45Z</time>
      </trkpt>
      <trkpt lat="46.30464" lon="10.55727">
        <ele>2072.448</ele>
        <time>2018-09-14T15:17:05Z</time>
      </trkpt>
      <trkpt lat="46.30462" lon="10.55729">
        <ele>2072.755</ele>
        <time>2018-09-14T15:17:25Z</time>
      </trkpt>
      <trkpt lat="46.3046" lon="10.55731">
        <ele>2072.914</ele>
        <time>2018-09-14T15:17:45Z</time>
      </trkpt>
      <trkpt lat="46.30458" lon="10.55733">
        <ele>2073.054</ele>
        <time>2018-09-14T15:18:05Z</time>
      </trkpt>
      <trkpt lat="46.30457" lon="10.55735">
        <ele>2073.209</ele>
        <time>2018-09-14T15:18:25Z</time>
      </trkpt>
      <trkpt lat="46.30454" lon="10.55737">
        <ele>2073.308</ele>
        <time>2018-09-14T15:18:45Z</time>
      </trkpt>
      <trkpt lat="46.30452" lon="10.5574">
        <ele>2073.583</ele>
        <time>2018-09-14T15:19:05Z</time>
      </trkpt>
      <trkpt lat="46.3045" lon="10.55742">
        <ele>2073.719</ele>
        <time>2018-09-14T15:19:25Z</time>
      </trkpt>
      <trkpt lat="46.30448" lon="10.55744">
        <ele>2073.836</ele>
        <time>2018-09-14T15:19:45Z</time>
      </trkpt>
      <trkpt lat="46.30447" lon="10.55745">
        <ele>2074.099</ele>
        <time>2018-09-14T15:20:05Z</time>
      </trkpt>
      <trkpt lat="46.30445" lon="10.55747">
        <ele>2074.172</ele>
        <time>2018-09-14T15:20:25Z</time>
      </trkpt>
      <trkpt lat="46.30443" lon="10.55749">
        <ele>2074.295</ele>
        <time>2018-09-14T15:20:45Z</time>
      </trkpt>
      <trkpt lat="46.30441" lon="10.55751">
        <ele>2074.463</ele>
        <time>2018-09-14T15:21:05Z</time>
      </trkpt>
      <trkpt lat="46.30439" lon="10.55752">
        <ele>2074.71</ele>
        <time>2018-09-14T15:21:25Z</time>
      </trkpt>
      <trkpt lat="46.30438" lon="10.55754">
        <ele>2074.951</ele>
        <time>2018-09-14T15:21:45Z</time>
      </trkpt>
      <trkpt lat="46.30436" lon="10.55756">
        <ele>2075.201</ele>
        <time>2018-09-14T15:22:05Z</time>
      </trkpt>
      <trkpt lat="46.30434" lon="10.55757">
        <ele>2075.411</ele>
        <time>2018-09-14T15:22:25Z</time>
      </trkpt>
      <trkpt lat="46.30432" lon="10.55759">
        <ele>2075.608</ele>
        <time>2018-09-14T15:22:45Z</time>
      </trkpt>
      <trkpt lat="46.3043" lon="10.55761">
        <ele>2075.887</ele>
        <time>2018-09-14T15:23:05Z</time>
      </trkpt>
      <trkpt lat="46.30428" lon="10.55762">
        <ele>2076.043</ele>
        <time>2018-09-14T15:23:25Z</time>
      </trkpt>
      <trkpt lat="46.30426" lon="10.55764">
        <ele>2076.21</ele>
        <time>2018-09-14T15:23:45Z</time>
      </trkpt>
      <trkpt lat="46.30425" lon="10.55765">
        <ele>2076.593</ele>
        <time>2018-09-14T15:24:05Z</time>
      </trkpt>
      <trkpt lat="46.30423" lon="10.55767">
        <ele>2076.976</ele>
        <time>2018-09-14T15:24:25Z</time>
      </trkpt>
      <trkpt lat="46.30421" lon="10.55769">
        <ele>2077.169</ele>
        <time>2018-09-14T15:24:45Z</time>
      </trkpt>
      <trkpt lat="46.30419" lon="10.5577">
        <ele>2077.497</ele>
        <time>2018-09-14T15:25:05Z</time>
      </trkpt>
      <trkpt lat="46.30418" lon="10.55772">
        <ele>2077.774</ele>
        <time>2018-09-14T15:25:25Z</time>
      </trkpt>
      <trkpt lat="46.30416" lon="10.55773">
        <ele>2077.892</ele>
        <time>2018-09-14T15:25:45Z</time>
      </trkpt>
      <trkpt lat="46.30414" lon="10.55774">
        <ele>2077.973</ele>
        <time>2018-09-14T15:26:05Z</time>
      </trkpt>
      <trkpt lat="46.30413" lon="10.55776">
        <ele>2077.92</ele>
        <time>2018-09-14T15:26:25Z</time>
      </trkpt>
      <trkpt lat="46.30411" lon="10.55777">
        <ele>2077.908</ele>
        <time>2018-09-14T15:26:45Z</time>
      </trkpt>
      <trkpt lat="46.3041" lon="10.55779">
        <ele>2078.171</ele>
        <time>2018-09-14T15:27:05Z</time>
      </trkpt>
      <trkpt lat="46.30408" lon="10.5578">
        <ele>2078.247</ele>
        <time>2018-09-14T15:27:25Z</time>
      </trkpt>
      <trkpt lat="46.30406" lon="10.55782">
        <ele>2078.444</ele>
        <time>2018-09-14T15:27:45Z</time>
      </trkpt>
      <trkpt lat="46.30405" lon="10.55784">
        <ele>2078.577</ele>
        <time>2018-09-14T15:28:05Z</time>
      </trkpt>
      <trkpt lat="46.30403" lon="10.55785">
        <ele>2078.61</ele>
        <time>2018-09-14T15:28:25Z</time>
      </trkpt>
      <trkpt lat="46.30402" lon="10.55787">
        <ele>2078.623</ele>
        <time>2018-09-14T15:28:45Z</time>
      </trkpt>
      <trkpt lat="46.30399" lon="10.55789">
        <ele>2078.681</ele>
        <time>2018-09-14T15:29:05Z</time>
      </trkpt>
      <trkpt lat="46.30397" lon="10.55791">
        <ele>2078.558</ele>
        <time>2018-09-14T15:29:25Z</time>
      </trkpt>
      <trkpt lat="46.30394" lon="10.55793">
        <ele>2078.383</ele>
        <time>2018-09-14T15:29:45Z</time>
      </trkpt>
      <trkpt lat="46.30393" lon="10.55794">
        <ele>2078.225</ele>
        <time>2018-09-14T15:30:05Z</time>
      </trkpt>
      <trkpt lat="46.30391" lon="10.55796">
        <ele>2078.117</ele>
        <time>2018-09-14T15:30:25Z</time>
      </trkpt>
      <trkpt lat="46.30389" lon="10.55798">
        <ele>2078.208</ele>
        <time>2018-09-14T15:30:45Z</time>
      </trkpt>
      <trkpt lat="46.30387" lon="10.558">
        <ele>2078.76</ele>
        <time>2018-09-14T15:31:05Z</time>
      </trkpt>
      <trkpt lat="46.30385" lon="10.55802">
        <ele>2079.396</ele>
        <time>2018-09-14T15:31:25Z</time>
      </trkpt>
      <trkpt lat="46.30384" lon="10.55804">
        <ele>2080.083</ele>
        <time>2018-09-14T15:31:45Z</time>
      </trkpt>
      <trkpt lat="46.30382" lon="10.55806">
        <ele>2080.756</ele>
        <time>2018-09-14T15:32:05Z</time>
      </trkpt>
      <trkpt lat="46.3038" lon="10.55808">
        <ele>2081.519</ele>
        <time>2018-09-14T15:32:25Z</time>
      </trkpt>
      <trkpt lat="46.30378" lon="10.55811">
        <ele>2082.272</ele>
        <time>2018-09-14T15:32:45Z</time>
      </trkpt>
      <trkpt lat="46.30376" lon="10.55813">
        <ele>2083.09</ele>
        <time>2018-09-14T15:33:05Z</time>
      </trkpt>
      <trkpt lat="46.30375" lon="10.55815">
        <ele>2083.787</ele>
        <time>2018-09-14T15:33:25Z</time>
      </trkpt>
      <trkpt lat="46.30373" lon="10.55817">
        <ele>2084.581</ele>
        <time>2018-09-14T15:33:45Z</time>
      </trkpt>
      <trkpt lat="46.30371" lon="10.55819">
        <ele>2085.161</ele>
        <time>2018-09-14T15:34:05Z</time>
      </trkpt>
      <trkpt lat="46.30369" lon="10.55821">
        <ele>2085.617</ele>
        <time>2018-09-14T15:34:25Z</time>
      </trkpt>
      <trkpt lat="46.30367" lon="10.55822">
        <ele>2086.008</ele>
        <time>2018-09-14T15:34:45Z</time>
      </trkpt>
      <trkpt lat="46.30365" lon="10.55823">
        <ele>2086.21</ele>
        <time>2018-09-14T15:35:05Z</time>
      </trkpt>
      <trkpt lat="46.30363" lon="10.55824">
        <ele>2086.336</ele>
        <time>2018-09-14T15:35:25Z</time>
      </trkpt>
      <trkpt lat="46.30361" lon="10.55824">
        <ele>2086.373</ele>
        <time>2018-09-14T15:35:45Z</time>
      </trkpt>
      <trkpt lat="46.30359" lon="10.55825">
        <ele>2086.516</ele>
        <time>2018-09-14T15:36:05Z</time>
      </trkpt>
      <trkpt lat="46.30356" lon="10.55826">
        <ele>2086.849</ele>
        <time>2018-09-14T15:36:25Z</time>
      </trkpt>
      <trkpt lat="46.30354" lon="10.55827">
        <ele>2087.232</ele>
        <time>2018-09-14T15:36:45Z</time>
      </trkpt>
      <trkpt lat="46.30351" lon="10.55828">
        <ele>2087.66</ele>
        <time>2018-09-14T15:37:05Z</time>
      </trkpt>
      <trkpt lat="46.30349" lon="10.55829">
        <ele>2088.167</ele>
        <time>2018-09-14T15:37:25Z</time>
      </trkpt>
      <trkpt lat="46.30347" lon="10.5583">
        <ele>2088.769</ele>
        <time>2018-09-14T15:37:45Z</time>
      </trkpt>
      <trkpt lat="46.30345" lon="10.55832">
        <ele>2089.304</ele>
        <time>2018-09-14T15:38:05Z</time>
      </trkpt>
      <trkpt lat="46.30342" lon="10.55833">
        <ele>2090.024</ele>
        <time>2018-09-14T15:38:25Z</time>
      </trkpt>
      <trkpt lat="46.3034" lon="10.55835">
        <ele>2090.608</ele>
        <time>2018-09-14T15:38:45Z</time>
      </trkpt>
      <trkpt lat="46.30338" lon="10.55836">
        <ele>2091.118</ele>
        <time>2018-09-14T15:39:05Z</time>
      </trkpt>
      <trkpt lat="46.30335" lon="10.55836">
        <ele>2091.554</ele>
        <time>2018-09-14T15:39:25Z</time>
      </trkpt>
      <trkpt lat="46.30333" lon="10.55837">
        <ele>2091.781</ele>
        <time>2018-09-14T15:39:45Z</time>
      </trkpt>
      <trkpt lat="46.30331" lon="10.55837">
        <ele>2091.834</ele>
        <time>2018-09-14T15:40:05Z</time>
      </trkpt>
      <trkpt lat="46.30328" lon="10.55837">
        <ele>2091.987</ele>
        <time>2018-09-14T15:40:25Z</time>
      </trkpt>
      <trkpt lat="46.30326" lon="10.55837">
        <ele>2091.94</ele>
        <time>2018-09-14T15:40:45Z</time>
      </trkpt>
      <trkpt lat="46.30323" lon="10.55837">
        <ele>2091.938</ele>
        <time>2018-09-14T15:41:05Z</time>
      </trkpt>
      <trkpt lat="46.30321" lon="10.55838">
        <ele>2092.095</ele>
        <time>2018-09-14T15:41:25Z</time>
      </trkpt>
      <trkpt lat="46.30318" lon="10.55838">
        <ele>2092.184</ele>
        <time>2018-09-14T15:41:45Z</time>
      </trkpt>
      <trkpt lat="46.30316" lon="10.55838">
        <ele>2092.107</ele>
        <time>2018-09-14T15:42:05Z</time>
      </trkpt>
      <trkpt lat="46.30313" lon="10.55838">
        <ele>2092.117</ele>
        <time>2018-09-14T15:42:25Z</time>
      </trkpt>
      <trkpt lat="46.30311" lon="10.55838">
        <ele>2092.308</ele>
        <time>2018-09-14T15:42:45Z</time>
      </trkpt>
      <trkpt lat="46.30308" lon="10.55839">
        <ele>2092.79</ele>
        <time>2018-09-14T15:43:05Z</time>
      </trkpt>
      <trkpt lat="46.30305" lon="10.5584">
        <ele>2093.066</ele>
        <time>2018-09-14T15:43:25Z</time>
      </trkpt>
      <trkpt lat="46.30303" lon="10.55841">
        <ele>2093.073</ele>
        <time>2018-09-14T15:43:45Z</time>
      </trkpt>
      <trkpt lat="46.303" lon="10.55842">
        <ele>2093.146</ele>
        <time>2018-09-14T15:44:05Z</time>
      </trkpt>
      <trkpt lat="46.30298" lon="10.55843">
        <ele>2093.039</ele>
        <time>2018-09-14T15:44:25Z</time>
      </trkpt>
      <trkpt lat="46.30295" lon="10.55844">
        <ele>2093.092</ele>
        <time>2018-09-14T15:44:45Z</time>
      </trkpt>
      <trkpt lat="46.30293" lon="10.55845">
        <ele>2093.08</ele>
        <time>2018-09-14T15:45:05Z</time>
      </trkpt>
      <trkpt lat="46.3029" lon="10.55846">
        <ele>2093.137</ele>
        <time>2018-09-14T15:45:25Z</time>
      </trkpt>
      <trkpt lat="46.30288" lon="10.55847">
        <ele>2093.122</ele>
        <time>2018-09-14T15:45:45Z</time>
      </trkpt>
      <trkpt lat="46.30285" lon="10.55847">
        <ele>2093.262</ele>
        <time>2018-09-14T15:46:05Z</time>
      </trkpt>
      <trkpt lat="46.30283" lon="10.55848">
        <ele>2093.208</ele>
        <time>2018-09-14T15:46:25Z</time>
      </trkpt>
      <trkpt lat="46.3028" lon="10.55849">
        <ele>2093.108</ele>
        <time>2018-09-14T15:46:45Z</time>
      </trkpt>
      <trkpt lat="46.30278" lon="10.55849">
        <ele>2092.924</ele>
        <time>2018-09-14T15:47:05Z</time>
      </trkpt>
      <trkpt lat="46.30275" lon="10.55849">
        <ele>2093.04</ele>
        <time>2018-09-14T15:47:25Z</time>
      </trkpt>
      <trkpt lat="46.30272" lon="10.55849">
        <ele>2093.147</ele>
        <time>2018-09-14T15:47:45Z</time>
      </trkpt>
      <trkpt lat="46.3027" lon="10.55849">
        <ele>2092.93</ele>
        <time>2018-09-14T15:48:05Z</time>
      </trkpt>
      <trkpt lat="46.30267" lon="10.55849">
        <ele>2092.713</ele>
        <time>2018-09-14T15:48:25Z</time>
      </trkpt>
      <trkpt lat="46.30265" lon="10.55848">
        <ele>2092.656</ele>
        <time>2018-09-14T15:48:45Z</time>
      </trkpt>
      <trkpt lat="46.30263" lon="10.55848">
        <ele>2092.514</ele>
        <time>2018-09-14T15:49:05Z</time>
      </trkpt>
      <trkpt lat="46.3026" lon="10.55848">
        <ele>2092.581</ele>
        <time>2018-09-14T15:49:25Z</time>
      </trkpt>
      <trkpt lat="46.30258" lon="10.55849">
        <ele>2092.785</ele>
        <time>2018-09-14T15:49:45Z</time>
      </trkpt>
      <trkpt lat="46.30255" lon="10.5585">
        <ele>2093.489</ele>
        <time>2018-09-14T15:50:05Z</time>
      </trkpt>
      <trkpt lat="46.30253" lon="10.55851">
        <ele>2094.417</ele>
        <time>2018-09-14T15:50:25Z</time>
      </trkpt>
      <trkpt lat="46.3025" lon="10.55853">
        <ele>2095.208</ele>
        <time>2018-09-14T15:50:45Z</time>
      </trkpt>
      <trkpt lat="46.30248" lon="10.55854">
        <ele>2095.91</ele>
        <time>2018-09-14T15:51:05Z</time>
      </trkpt>
      <trkpt lat="46.30245" lon="10.55855">
        <ele>2096.436</ele>
        <time>2018-09-14T15:51:25Z</time>
      </trkpt>
      <trkpt lat="46.30243" lon="10.55856">
        <ele>2096.873</ele>
        <time>2018-09-14T15:51:45Z</time>
      </trkpt>
      <trkpt lat="46.30241" lon="10.55855">
        <ele>2096.786</ele>
        <time>2018-09-14T15:52:05Z</time>
      </trkpt>
      <trkpt lat="46.30238" lon="10.55855">
        <ele>2096.459</ele>
        <time>2018-09-14T15:52:25Z</time>
      </trkpt>
      <trkpt lat="46.30236" lon="10.55854">
        <ele>2096.142</ele>
        <time>2018-09-14T15:52:45Z</time>
      </trkpt>
      <trkpt lat="46.30233" lon="10.55854">
        <ele>2095.72</ele>
        <time>2018-09-14T15:53:05Z</time>
      </trkpt>
      <trkpt lat="46.30231" lon="10.55853">
        <ele>2095.517</ele>
        <time>2018-09-14T15:53:25Z</time>
      </trkpt>
      <trkpt lat="46.30228" lon="10.55853">
        <ele>2095.227</ele>
        <time>2018-09-14T15:53:45Z</time>
      </trkpt>
      <trkpt lat="46.30226" lon="10.55853">
        <ele>2095.068</ele>
        <time>2018-09-14T15:54:05Z</time>
      </trkpt>
      <trkpt lat="46.30224" lon="10.55853">
        <ele>2095.014</ele>
        <time>2018-09-14T15:54:25Z</time>
      </trkpt>
      <trkpt lat="46.30221" lon="10.55852">
        <ele>2094.908</ele>
        <time>2018-09-14T15:54:45Z</time>
      </trkpt>
      <trkpt lat="46.30219" lon="10.55852">
        <ele>2095.054</ele>
        <time>2018-09-14T15:55:05Z</time>
      </trkpt>
      <trkpt lat="46.30216" lon="10.55852">
        <ele>2095.19</ele>
        <time>2018-09-14T15:55:25Z</time>
      </trkpt>
      <trkpt lat="46.30214" lon="10.55852">
        <ele>2095.467</ele>
        <time>2018-09-14T15:55:45Z</time>
      </trkpt>
      <trkpt lat="46.30212" lon="10.55852">
        <ele>2095.64</ele>
        <time>2018-09-14T15:56:05Z</time>
      </trkpt>
      <trkpt lat="46.30209" lon="10.55852">
        <ele>2095.923</ele>
        <time>2018-09-14T15:56:25Z</time>
      </trkpt>
      <trkpt lat="46.30207" lon="10.55852">
        <ele>2096.276</ele>
        <time>2018-09-14T15:56:45Z</time>
      </trkpt>
      <trkpt lat="46.30204" lon="10.55852">
        <ele>2096.514</ele>
        <time>2018-09-14T15:57:05Z</time>
      </trkpt>
      <trkpt lat="46.30201" lon="10.55853">
        <ele>2096.871</ele>
        <time>2018-09-14T15:57:25Z</time>
      </trkpt>
      <trkpt lat="46.30199" lon="10.55853">
        <ele>2097.473</ele>
        <time>2018-09-14T15:57:45Z</time>
      </trkpt>
      <trkpt lat="46.30196" lon="10.55854">
        <ele>2098.085</ele>
        <time>2018-09-14T15:58:05Z</time>
      </trkpt>
      <trkpt lat="46.30194" lon="10.55854">
        <ele>2098.513</ele>
        <time>2018-09-14T15:58:25Z</time>
      </trkpt>
      <trkpt lat="46.30191" lon="10.55855">
        <ele>2098.808</ele>
        <time>2018-09-14T15:58:45Z</time>
      </trkpt>
      <trkpt lat="46.30188" lon="10.55857">
        <ele>2099.479</ele>
        <time>2018-09-14T15:59:05Z</time>
      </trkpt>
      <trkpt lat="46.30186" lon="10.55858">
        <ele>2099.995</ele>
        <time>2018-09-14T15:59:25Z</time>
      </trkpt>
      <trkpt lat="46.30183" lon="10.55859">
        <ele>2100.582</ele>
        <time>2018-09-14T15:59:45Z</time>
      </trkpt>
      <trkpt lat="46.3018" lon="10.5586">
        <ele>2101.055</ele>
        <time>2018-09-14T16:00:05Z</time>
      </trkpt>
      <trkpt lat="46.30178" lon="10.55862">
        <ele>2101.488</ele>
        <time>2018-09-14T16:00:25Z</time>
      </trkpt>
      <trkpt lat="46.30174" lon="10.55863">
        <ele>2101.581</ele>
        <time>2018-09-14T16:00:45Z</time>
      </trkpt>
      <trkpt lat="46.30171" lon="10.55864">
        <ele>2101.589</ele>
        <time>2018-09-14T16:01:05Z</time>
      </trkpt>
      <trkpt lat="46.30168" lon="10.55864">
        <ele>2101.546</ele>
        <time>2018-09-14T16:01:25Z</time>
      </trkpt>
      <trkpt lat="46.30165" lon="10.55865">
        <ele>2101.489</ele>
        <time>2018-09-14T16:01:45Z</time>
      </trkpt>
      <trkpt lat="46.30162" lon="10.55865">
        <ele>2101.206</ele>
        <time>2018-09-14T16:02:05Z</time>
      </trkpt>
      <trkpt lat="46.3016" lon="10.55866">
        <ele>2101.126</ele>
        <time>2018-09-14T16:02:25Z</time>
      </trkpt>
      <trkpt lat="46.30157" lon="10.55866">
        <ele>2101.008</ele>
        <time>2018-09-14T16:02:45Z</time>
      </trkpt>
      <trkpt lat="46.30154" lon="10.55867">
        <ele>2101.01</ele>
        <time>2018-09-14T16:03:05Z</time>
      </trkpt>
      <trkpt lat="46.30151" lon="10.55868">
        <ele>2101.326</ele>
        <time>2018-09-14T16:03:25Z</time>
      </trkpt>
      <trkpt lat="46.30149" lon="10.55869">
        <ele>2101.823</ele>
        <time>2018-09-14T16:03:45Z</time>
      </trkpt>
      <trkpt lat="46.30146" lon="10.55871">
        <ele>2102.416</ele>
        <time>2018-09-14T16:04:05Z</time>
      </trkpt>
      <trkpt lat="46.30143" lon="10.55873">
        <ele>2103.059</ele>
        <time>2018-09-14T16:04:25Z</time>
      </trkpt>
      <trkpt lat="46.3014" lon="10.55875">
        <ele>2103.632</ele>
        <time>2018-09-14T16:04:45Z</time>
      </trkpt>
      <trkpt lat="46.30137" lon="10.55877">
        <ele>2104.28</ele>
        <time>2018-09-14T16:05:05Z</time>
      </trkpt>
      <trkpt lat="46.30134" lon="10.55878">
        <ele>2104.737</ele>
        <time>2018-09-14T16:05:25Z</time>
      </trkpt>
      <trkpt lat="46.30131" lon="10.55878">
        <ele>2104.859</ele>
        <time>2018-09-14T16:05:45Z</time>
      </trkpt>
      <trkpt lat="46.30129" lon="10.55878">
        <ele>2104.703</ele>
        <time>2018-09-14T16:06:05Z</time>
      </trkpt>
      <trkpt lat="46.30126" lon="10.55877">
        <ele>2104.523</ele>
        <time>2018-09-14T16:06:25Z</time>
      </trkpt>
      <trkpt lat="46.30123" lon="10.55876">
        <ele>2104.008</ele>
        <time>2018-09-14T16:06:45Z</time>
      </trkpt>
      <trkpt lat="46.30119" lon="10.55875">
        <ele>2103.547</ele>
        <time>2018-09-14T16:07:05Z</time>
      </trkpt>
      <trkpt lat="46.30116" lon="10.55874">
        <ele>2102.773</ele>
        <time>2018-09-14T16:07:25Z</time>
      </trkpt>
      <trkpt lat="46.30112" lon="10.55872">
        <ele>2102.07</ele>
        <time>2018-09-14T16:07:45Z</time>
      </trkpt>
      <trkpt lat="46.30109" lon="10.5587">
        <ele>2101.673</ele>
        <time>2018-09-14T16:08:05Z</time>
      </trkpt>
      <trkpt lat="46.30105" lon="10.55868">
        <ele>2101.466</ele>
        <time>2018-09-14T16:08:25Z</time>
      </trkpt>
      <trkpt lat="46.30102" lon="10.55867">
        <ele>2101.349</ele>
        <time>2018-09-14T16:08:45Z</time>
      </trkpt>
      <trkpt lat="46.30099" lon="10.55866">
        <ele>2101.397</ele>
        <time>2018-09-14T16:09:05Z</time>
      </trkpt>
      <trkpt lat="46.30096" lon="10.55865">
        <ele>2101.444</ele>
        <time>2018-09-14T16:09:25Z</time>
      </trkpt>
      <trkpt lat="46.30092" lon="10.55864">
        <ele>2101.638</ele>
        <time>2018-09-14T16:09:45Z</time>
      </trkpt>
      <trkpt lat="46.30089" lon="10.55863">
        <ele>2101.97</ele>
        <time>2018-09-14T16:10:05Z</time>
      </trkpt>
      <trkpt lat="46.30085" lon="10.55862">
        <ele>2102.117</ele>
        <time>2018-09-14T16:10:25Z</time>
      </trkpt>
      <trkpt lat="46.30081" lon="10.55861">
        <ele>2102.008</ele>
        <time>2018-09-14T16:10:45Z</time>
      </trkpt>
      <trkpt lat="46.30078" lon="10.55859">
        <ele>2101.645</ele>
        <time>2018-09-14T16:11:05Z</time>
      </trkpt>
      <trkpt lat="46.30074" lon="10.55857">
        <ele>2101.141</ele>
        <time>2018-09-14T16:11:25Z</time>
      </trkpt>
      <trkpt lat="46.3007" lon="10.55856">
        <ele>2100.678</ele>
        <time>2018-09-14T16:11:45Z</time>
      </trkpt>
      <trkpt lat="46.30067" lon="10.55854">
        <ele>2100.111</ele>
        <time>2018-09-14T16:12:05Z</time>
      </trkpt>
      <trkpt lat="46.30064" lon="10.55852">
        <ele>2099.974</ele>
        <time>2018-09-14T16:12:25Z</time>
      </trkpt>
      <trkpt lat="46.30062" lon="10.55852">
        <ele>2099.737</ele>
        <time>2018-09-14T16:12:45Z</time>
      </trkpt>
      <trkpt lat="46.30053" lon="10.55847">
        <ele>2098.795</ele>
        <time>2018-09-14T16:13:05Z</time>
      </trkpt>
      <trkpt lat="46.30051" lon="10.55846">
        <ele>2098.362</ele>
        <time>2018-09-14T16:13:25Z</time>
      </trkpt>
      <trkpt lat="46.30049" lon="10.55845">
        <ele>2098.142</ele>
        <time>2018-09-14T16:13:45Z</time>
      </trkpt>
      <trkpt lat="46.30047" lon="10.55844">
        <ele>2097.922</ele>
        <time>2018-09-14T16:14:05Z</time>
      </trkpt>
      <trkpt lat="46.30045" lon="10.55844">
        <ele>2097.714</ele>
        <time>2018-09-14T16:14:25Z</time>
      </trkpt>
      <trkpt lat="46.30042" lon="10.55843">
        <ele>2097.708</ele>
        <time>2018-09-14T16:14:45Z</time>
      </trkpt>
      <trkpt lat="46.3004" lon="10.55843">
        <ele>2098.026</ele>
        <time>2018-09-14T16:15:05Z</time>
      </trkpt>
      <trkpt lat="46.30038" lon="10.55844">
        <ele>2098.352</ele>
        <time>2018-09-14T16:15:25Z</time>
      </trkpt>
      <trkpt lat="46.30036" lon="10.55845">
        <ele>2099.089</ele>
        <time>2018-09-14T16:15:45Z</time>
      </trkpt>
      <trkpt lat="46.30035" lon="10.55846">
        <ele>2099.862</ele>
        <time>2018-09-14T16:16:05Z</time>
      </trkpt>
      <trkpt lat="46.30033" lon="10.55848">
        <ele>2100.765</ele>
        <time>2018-09-14T16:16:25Z</time>
      </trkpt>
      <trkpt lat="46.30031" lon="10.55849">
        <ele>2101.718</ele>
        <time>2018-09-14T16:16:45Z</time>
      </trkpt>
      <trkpt lat="46.3003" lon="10.55851">
        <ele>2102.776</ele>
        <time>2018-09-14T16:17:05Z</time>
      </trkpt>
      <trkpt lat="46.30028" lon="10.55853">
        <ele>2103.753</ele>
        <time>2018-09-14T16:17:25Z</time>
      </trkpt>
      <trkpt lat="46.30026" lon="10.55855">
        <ele>2104.521</ele>
        <time>2018-09-14T16:17:45Z</time>
      </trkpt>
      <trkpt lat="46.30024" lon="10.55856">
        <ele>2105.241</ele>
        <time>2018-09-14T16:18:05Z</time>
      </trkpt>
      <trkpt lat="46.30023" lon="10.55858">
        <ele>2105.905</ele>
        <time>2018-09-14T16:18:25Z</time>
      </trkpt>
      <trkpt lat="46.30021" lon="10.5586">
        <ele>2106.608</ele>
        <time>2018-09-14T16:18:45Z</time>
      </trkpt>
      <trkpt lat="46.30019" lon="10.55861">
        <ele>2107.334</ele>
        <time>2018-09-14T16:19:05Z</time>
      </trkpt>
      <trkpt lat="46.30017" lon="10.55862">
        <ele>2107.93</ele>
        <time>2018-09-14T16:19:25Z</time>
      </trkpt>
      <trkpt lat="46.30015" lon="10.55864">
        <ele>2108.497</ele>
        <time>2018-09-14T16:19:45Z</time>
      </trkpt>
      <trkpt lat="46.30013" lon="10.55865">
        <ele>2108.82</ele>
        <time>2018-09-14T16:20:05Z</time>
      </trkpt>
      <trkpt lat="46.30012" lon="10.55866">
        <ele>2109.293</ele>
        <time>2018-09-14T16:20:25Z</time>
      </trkpt>
      <trkpt lat="46.30009" lon="10.55867">
        <ele>2109.616</ele>
        <time>2018-09-14T16:20:45Z</time>
      </trkpt>
      <trkpt lat="46.30007" lon="10.55868">
        <ele>2109.974</ele>
        <time>2018-09-14T16:21:05Z</time>
      </trkpt>
      <trkpt lat="46.30005" lon="10.55869">
        <ele>2110.311</ele>
        <time>2018-09-14T16:21:25Z</time>
      </trkpt>
      <trkpt lat="46.30002" lon="10.5587">
        <ele>2110.677</ele>
        <time>2018-09-14T16:21:45Z</time>
      </trkpt>
      <trkpt lat="46.3" lon="10.55871">
        <ele>2110.961</ele>
        <time>2018-09-14T16:22:05Z</time>
      </trkpt>
      <trkpt lat="46.29997" lon="10.55872">
        <ele>2110.627</ele>
        <time>2018-09-14T16:22:25Z</time>
      </trkpt>
      <trkpt lat="46.29994" lon="10.55873">
        <ele>2110.208</ele>
        <time>2018-09-14T16:22:45Z</time>
      </trkpt>
      <trkpt lat="46.29991" lon="10.55874">
        <ele>2109.879</ele>
        <time>2018-09-14T16:23:05Z</time>
      </trkpt>
      <trkpt lat="46.29988" lon="10.55875">
        <ele>2109.375</ele>
        <time>2018-09-14T16:23:25Z</time>
      </trkpt>
      <trkpt lat="46.29985" lon="10.55876">
        <ele>2108.962</ele>
        <time>2018-09-14T16:23:45Z</time>
      </trkpt>
      <trkpt lat="46.29982" lon="10.55877">
        <ele>2108.415</ele>
        <time>2018-09-14T16:24:05Z</time>
      </trkpt>
      <trkpt lat="46.29979" lon="10.55878">
        <ele>2108.118</ele>
        <time>2018-09-14T16:24:25Z</time>
      </trkpt>
      <trkpt lat="46.29977" lon="10.55879">
        <ele>2107.961</ele>
        <time>2018-09-14T16:24:45Z</time>
      </trkpt>
      <trkpt lat="46.29974" lon="10.5588">
        <ele>2107.849</ele>
        <time>2018-09-14T16:25:05Z</time>
      </trkpt>
      <trkpt lat="46.29971" lon="10.55882">
        <ele>2108.026</ele>
        <time>2018-09-14T16:25:25Z</time>
      </trkpt>
      <trkpt lat="46.29969" lon="10.55884">
        <ele>2108.593</ele>
        <time>2018-09-14T16:25:45Z</time>
      </trkpt>
      <trkpt lat="46.29966" lon="10.55886">
        <ele>2109.065</ele>
        <time>2018-09-14T16:26:05Z</time>
      </trkpt>
      <trkpt lat="46.29964" lon="10.55887">
        <ele>2109.421</ele>
        <time>2018-09-14T16:26:25Z</time>
      </trkpt>
      <trkpt lat="46.29961" lon="10.55889">
        <ele>2109.808</ele>
        <time>2018-09-14T16:26:45Z</time>
      </trkpt>
      <trkpt lat="46.29958" lon="10.55891">
        <ele>2110.031</ele>
        <time>2018-09-14T16:27:05Z</time>
      </trkpt>
      <trkpt lat="46.29956" lon="10.55893">
        <ele>2110.137</ele>
        <time>2018-09-14T16:27:25Z</time>
      </trkpt>
      <trkpt lat="46.29953" lon="10.55894">
        <ele>2110.064</ele>
        <time>2018-09-14T16:27:45Z</time>
      </trkpt>
      <trkpt lat="46.2995" lon="10.55896">
        <ele>2109.967</ele>
        <time>2018-09-14T16:28:05Z</time>
      </trkpt>
      <trkpt lat="46.29947" lon="10.55898">
        <ele>2109.86</ele>
        <time>2018-09-14T16:28:25Z</time>
      </trkpt>
      <trkpt lat="46.29945" lon="10.55899">
        <ele>2109.693</ele>
        <time>2018-09-14T16:28:45Z</time>
      </trkpt>
      <trkpt lat="46.29942" lon="10.559">
        <ele>2109.781</ele>
        <time>2018-09-14T16:29:05Z</time>
      </trkpt>
      <trkpt lat="46.29939" lon="10.55902">
        <ele>2109.878</ele>
        <time>2018-09-14T16:29:25Z</time>
      </trkpt>
      <trkpt lat="46.29936" lon="10.55903">
        <ele>2110.087</ele>
        <time>2018-09-14T16:29:45Z</time>
      </trkpt>
      <trkpt lat="46.29933" lon="10.55905">
        <ele>2110.242</ele>
        <time>2018-09-14T16:30:05Z</time>
      </trkpt>
      <trkpt lat="46.29931" lon="10.55906">
        <ele>2110.226</ele>
        <time>2018-09-14T16:30:25Z</time>
      </trkpt>
      <trkpt lat="46.29929" lon="10.55907">
        <ele>2110.208</ele>
        <time>2018-09-14T16:30:45Z</time>
      </trkpt>
      <trkpt lat="46.29926" lon="10.55908">
        <ele>2110.39</ele>
        <time>2018-09-14T16:31:05Z</time>
      </trkpt>
      <trkpt lat="46.29924" lon="10.5591">
        <ele>2110.686</ele>
        <time>2018-09-14T16:31:25Z</time>
      </trkpt>
      <trkpt lat="46.29922" lon="10.55911">
        <ele>2110.983</ele>
        <time>2018-09-14T16:31:45Z</time>
      </trkpt>
      <trkpt lat="46.29919" lon="10.55913">
        <ele>2111.236</ele>
        <time>2018-09-14T16:32:05Z</time>
      </trkpt>
      <trkpt lat="46.29917" lon="10.55916">
        <ele>2111.659</ele>
        <time>2018-09-14T16:32:25Z</time>
      </trkpt>
      <trkpt lat="46.29915" lon="10.55918">
        <ele>2112.342</ele>
        <time>2018-09-14T16:32:45Z</time>
      </trkpt>
      <trkpt lat="46.29913" lon="10.5592">
        <ele>2113.01</ele>
        <time>2018-09-14T16:33:05Z</time>
      </trkpt>
      <trkpt lat="46.29911" lon="10.55923">
        <ele>2113.887</ele>
        <time>2018-09-14T16:33:25Z</time>
      </trkpt>
      <trkpt lat="46.29909" lon="10.55925">
        <ele>2114.557</ele>
        <time>2018-09-14T16:33:45Z</time>
      </trkpt>
      <trkpt lat="46.29907" lon="10.55927">
        <ele>2115.3</ele>
        <time>2018-09-14T16:34:05Z</time>
      </trkpt>
      <trkpt lat="46.29905" lon="10.5593">
        <ele>2116.32</ele>
        <time>2018-09-14T16:34:25Z</time>
      </trkpt>
      <trkpt lat="46.29903" lon="10.55933">
        <ele>2117.308</ele>
        <time>2018-09-14T16:34:45Z</time>
      </trkpt>
      <trkpt lat="46.29901" lon="10.55936">
        <ele>2118.377</ele>
        <time>2018-09-14T16:35:05Z</time>
      </trkpt>
      <trkpt lat="46.29899" lon="10.55938">
        <ele>2119.453</ele>
        <time>2018-09-14T16:35:25Z</time>
      </trkpt>
      <trkpt lat="46.29897" lon="10.55941">
        <ele>2120.41</ele>
        <time>2018-09-14T16:35:45Z</time>
      </trkpt>
      <trkpt lat="46.29896" lon="10.55944">
        <ele>2121.543</ele>
        <time>2018-09-14T16:36:05Z</time>
      </trkpt>
      <trkpt lat="46.29894" lon="10.55947">
        <ele>2123.266</ele>
        <time>2018-09-14T16:36:25Z</time>
      </trkpt>
      <trkpt lat="46.29892" lon="10.55951">
        <ele>2124.839</ele>
        <time>2018-09-14T16:36:45Z</time>
      </trkpt>
      <trkpt lat="46.2989" lon="10.55954">
        <ele>2126.337</ele>
        <time>2018-09-14T16:37:05Z</time>
      </trkpt>
      <trkpt lat="46.29887" lon="10.55956">
        <ele>2127.564</ele>
        <time>2018-09-14T16:37:25Z</time>
      </trkpt>
      <trkpt lat="46.29885" lon="10.55958">
        <ele>2128.668</ele>
        <time>2018-09-14T16:37:45Z</time>
      </trkpt>
      <trkpt lat="46.29883" lon="10.55959">
        <ele>2129.442</ele>
        <time>2018-09-14T16:38:05Z</time>
      </trkpt>
      <trkpt lat="46.2988" lon="10.5596">
        <ele>2130.226</ele>
        <time>2018-09-14T16:38:25Z</time>
      </trkpt>
      <trkpt lat="46.29878" lon="10.55961">
        <ele>2130.808</ele>
        <time>2018-09-14T16:38:45Z</time>
      </trkpt>
      <trkpt lat="46.29876" lon="10.55962">
        <ele>2131.218</ele>
        <time>2018-09-14T16:39:05Z</time>
      </trkpt>
      <trkpt lat="46.29874" lon="10.55962">
        <ele>2131.684</ele>
        <time>2018-09-14T16:39:25Z</time>
      </trkpt>
      <trkpt lat="46.29872" lon="10.55962">
        <ele>2131.721</ele>
        <time>2018-09-14T16:39:45Z</time>
      </trkpt>
      <trkpt lat="46.29868" lon="10.55962">
        <ele>2132.134</ele>
        <time>2018-09-14T16:40:05Z</time>
      </trkpt>
      <trkpt lat="46.29866" lon="10.55962">
        <ele>2132.197</ele>
        <time>2018-09-14T16:40:25Z</time>
      </trkpt>
      <trkpt lat="46.29864" lon="10.55961">
        <ele>2132.03</ele>
        <time>2018-09-14T16:40:45Z</time>
      </trkpt>
      <trkpt lat="46.29862" lon="10.55961">
        <ele>2131.838</ele>
        <time>2018-09-14T16:41:05Z</time>
      </trkpt>
      <trkpt lat="46.2986" lon="10.5596">
        <ele>2131.645</ele>
        <time>2018-09-14T16:41:25Z</time>
      </trkpt>
      <trkpt lat="46.29858" lon="10.55959">
        <ele>2131.313</ele>
        <time>2018-09-14T16:41:45Z</time>
      </trkpt>
      <trkpt lat="46.29856" lon="10.55958">
        <ele>2130.843</ele>
        <time>2018-09-14T16:42:05Z</time>
      </trkpt>
      <trkpt lat="46.29854" lon="10.55956">
        <ele>2130.307</ele>
        <time>2018-09-14T16:42:25Z</time>
      </trkpt>
      <trkpt lat="46.29852" lon="10.55955">
        <ele>2129.808</ele>
        <time>2018-09-14T16:42:45Z</time>
      </trkpt>
      <trkpt lat="46.2985" lon="10.55954">
        <ele>2129.343</ele>
        <time>2018-09-14T16:43:05Z</time>
      </trkpt>
      <trkpt lat="46.29848" lon="10.55953">
        <ele>2128.959</ele>
        <time>2018-09-14T16:43:25Z</time>
      </trkpt>
      <trkpt lat="46.29846" lon="10.55952">
        <ele>2128.526</ele>
        <time>2018-09-14T16:43:45Z</time>
      </trkpt>
      <trkpt lat="46.29843" lon="10.55951">
        <ele>2128.269</ele>
        <time>2018-09-14T16:44:05Z</time>
      </trkpt>
      <trkpt lat="46.29841" lon="10.5595">
        <ele>2128.042</ele>
        <time>2018-09-14T16:44:25Z</time>
      </trkpt>
      <trkpt lat="46.29839" lon="10.5595">
        <ele>2127.815</ele>
        <time>2018-09-14T16:44:45Z</time>
      </trkpt>
      <trkpt lat="46.29837" lon="10.5595">
        <ele>2127.833</ele>
        <time>2018-09-14T16:45:05Z</time>
      </trkpt>
      <trkpt lat="46.29835" lon="10.5595">
        <ele>2127.83</ele>
        <time>2018-09-14T16:45:25Z</time>
      </trkpt>
      <trkpt lat="46.29832" lon="10.5595">
        <ele>2128.281</ele>
        <time>2018-09-14T16:45:45Z</time>
      </trkpt>
      <trkpt lat="46.2983" lon="10.5595">
        <ele>2129.261</ele>
        <time>2018-09-14T16:46:05Z</time>
      </trkpt>
      <trkpt lat="46.29827" lon="10.55951">
        <ele>2130.217</ele>
        <time>2018-09-14T16:46:25Z</time>
      </trkpt>
      <trkpt lat="46.29825" lon="10.55951">
        <ele>2131.108</ele>
        <time>2018-09-14T16:46:45Z</time>
      </trkpt>
      <trkpt lat="46.29822" lon="10.55951">
        <ele>2132.13</ele>
        <time>2018-09-14T16:47:05Z</time>
      </trkpt>
      <trkpt lat="46.29819" lon="10.55951">
        <ele>2132.896</ele>
        <time>2018-09-14T16:47:25Z</time>
      </trkpt>
      <trkpt lat="46.29817" lon="10.55951">
        <ele>2133.363</ele>
        <time>2018-09-14T16:47:45Z</time>
      </trkpt>
      <trkpt lat="46.29814" lon="10.5595">
        <ele>2133.846</ele>
        <time>2018-09-14T16:48:05Z</time>
      </trkpt>
      <trkpt lat="46.29812" lon="10.55949">
        <ele>2134.289</ele>
        <time>2018-09-14T16:48:25Z</time>
      </trkpt>
      <trkpt lat="46.2981" lon="10.55949">
        <ele>2134.772</ele>
        <time>2018-09-14T16:48:45Z</time>
      </trkpt>
      <trkpt lat="46.29807" lon="10.55948">
        <ele>2135.04</ele>
        <time>2018-09-14T16:49:05Z</time>
      </trkpt>
      <trkpt lat="46.29805" lon="10.55947">
        <ele>2135.457</ele>
        <time>2018-09-14T16:49:25Z</time>
      </trkpt>
      <trkpt lat="46.29802" lon="10.55946">
        <ele>2135.576</ele>
        <time>2018-09-14T16:49:45Z</time>
      </trkpt>
      <trkpt lat="46.29799" lon="10.55945">
        <ele>2135.69</ele>
        <time>2018-09-14T16:50:05Z</time>
      </trkpt>
      <trkpt lat="46.29797" lon="10.55944">
        <ele>2135.719</ele>
        <time>2018-09-14T16:50:25Z</time>
      </trkpt>
      <trkpt lat="46.29794" lon="10.55942">
        <ele>2135.908</ele>
        <time>2018-09-14T16:50:45Z</time>
      </trkpt>
      <trkpt lat="46.29792" lon="10.55941">
        <ele>2136.119</ele>
        <time>2018-09-14T16:51:05Z</time>
      </trkpt>
      <trkpt lat="46.29789" lon="10.5594">
        <ele>2136.485</ele>
        <time>2018-09-14T16:51:25Z</time>
      </trkpt>
      <trkpt lat="46.29786" lon="10.55939">
        <ele>2136.832</ele>
        <time>2018-09-14T16:51:45Z</time>
      </trkpt>
      <trkpt lat="46.29784" lon="10.55939">
        <ele>2137.345</ele>
        <time>2018-09-14T16:52:05Z</time>
      </trkpt>
      <trkpt lat="46.29781" lon="10.55938">
        <ele>2137.718</ele>
        <time>2018-09-14T16:52:25Z</time>
      </trkpt>
      <trkpt lat="46.29779" lon="10.55937">
        <ele>2138.131</ele>
        <time>2018-09-14T16:52:45Z</time>
      </trkpt>
      <trkpt lat="46.29777" lon="10.55937">
        <ele>2138.679</ele>
        <time>2018-09-14T16:53:05Z</time>
      </trkpt>
      <trkpt lat="46.29775" lon="10.55936">
        <ele>2139.236</ele>
        <time>2018-09-14T16:53:25Z</time>
      </trkpt>
      <trkpt lat="46.29772" lon="10.55935">
        <ele>2139.879</ele>
        <time>2018-09-14T16:53:45Z</time>
      </trkpt>
      <trkpt lat="46.2977" lon="10.55934">
        <ele>2140.305</ele>
        <time>2018-09-14T16:54:05Z</time>
      </trkpt>
      <trkpt lat="46.29767" lon="10.55933">
        <ele>2140.725</ele>
        <time>2018-09-14T16:54:25Z</time>
      </trkpt>
      <trkpt lat="46.29765" lon="10.55931">
        <ele>2140.808</ele>
        <time>2018-09-14T16:54:45Z</time>
      </trkpt>
      <trkpt lat="46.29763" lon="10.55929">
        <ele>2140.969</ele>
        <time>2018-09-14T16:55:05Z</time>
      </trkpt>
      <trkpt lat="46.29761" lon="10.55927">
        <ele>2140.725</ele>
        <time>2018-09-14T16:55:25Z</time>
      </trkpt>
      <trkpt lat="46.29759" lon="10.55925">
        <ele>2140.462</ele>
        <time>2018-09-14T16:55:45Z</time>
      </trkpt>
      <trkpt lat="46.29757" lon="10.55923">
        <ele>2140.125</ele>
        <time>2018-09-14T16:56:05Z</time>
      </trkpt>
      <trkpt lat="46.29755" lon="10.5592">
        <ele>2139.878</ele>
        <time>2018-09-14T16:56:25Z</time>
      </trkpt>
      <trkpt lat="46.29752" lon="10.55917">
        <ele>2139.581</ele>
        <time>2018-09-14T16:56:45Z</time>
      </trkpt>
      <trkpt lat="46.2975" lon="10.55915">
        <ele>2139.489</ele>
        <time>2018-09-14T16:57:05Z</time>
      </trkpt>
      <trkpt lat="46.29747" lon="10.55913">
        <ele>2139.446</ele>
        <time>2018-09-14T16:57:25Z</time>
      </trkpt>
      <trkpt lat="46.29744" lon="10.55912">
        <ele>2139.616</ele>
        <time>2018-09-14T16:57:45Z</time>
      </trkpt>
      <trkpt lat="46.29741" lon="10.55911">
        <ele>2139.876</ele>
        <time>2018-09-14T16:58:05Z</time>
      </trkpt>
      <trkpt lat="46.29739" lon="10.5591">
        <ele>2140.113</ele>
        <time>2018-09-14T16:58:25Z</time>
      </trkpt>
      <trkpt lat="46.29736" lon="10.55909">
        <ele>2140.408</ele>
        <time>2018-09-14T16:58:45Z</time>
      </trkpt>
      <trkpt lat="46.29733" lon="10.55908">
        <ele>2140.893</ele>
        <time>2018-09-14T16:59:05Z</time>
      </trkpt>
      <trkpt lat="46.2973" lon="10.55907">
        <ele>2141.329</ele>
        <time>2018-09-14T16:59:25Z</time>
      </trkpt>
      <trkpt lat="46.29727" lon="10.55907">
        <ele>2141.846</ele>
        <time>2018-09-14T16:59:45Z</time>
      </trkpt>
      <trkpt lat="46.29724" lon="10.55907">
        <ele>2142.619</ele>
        <time>2018-09-14T17:00:05Z</time>
      </trkpt>
      <trkpt lat="46.2972" lon="10.55907">
        <ele>2143.162</ele>
        <time>2018-09-14T17:00:25Z</time>
      </trkpt>
      <trkpt lat="46.29717" lon="10.55907">
        <ele>2143.165</ele>
        <time>2018-09-14T17:00:45Z</time>
      </trkpt>
      <trkpt lat="46.29714" lon="10.55907">
        <ele>2143.173</ele>
        <time>2018-09-14T17:01:05Z</time>
      </trkpt>
      <trkpt lat="46.29711" lon="10.55907">
        <ele>2143.07</ele>
        <time>2018-09-14T17:01:25Z</time>
      </trkpt>
      <trkpt lat="46.29709" lon="10.55907">
        <ele>2142.917</ele>
        <time>2018-09-14T17:01:45Z</time>
      </trkpt>
      <trkpt lat="46.29706" lon="10.55907">
        <ele>2142.887</ele>
        <time>2018-09-14T17:02:05Z</time>
      </trkpt>
      <trkpt lat="46.29703" lon="10.55907">
        <ele>2142.815</ele>
        <time>2018-09-14T17:02:25Z</time>
      </trkpt>
      <trkpt lat="46.29701" lon="10.55907">
        <ele>2142.608</ele>
        <time>2018-09-14T17:02:45Z</time>
      </trkpt>
      <trkpt lat="46.29698" lon="10.55907">
        <ele>2142.693</ele>
        <time>2018-09-14T17:03:05Z</time>
      </trkpt>
      <trkpt lat="46.29695" lon="10.55907">
        <ele>2142.669</ele>
        <time>2018-09-14T17:03:25Z</time>
      </trkpt>
      <trkpt lat="46.29693" lon="10.55907">
        <ele>2143.016</ele>
        <time>2018-09-14T17:03:45Z</time>
      </trkpt>
      <trkpt lat="46.2969" lon="10.55908">
        <ele>2143.699</ele>
        <time>2018-09-14T17:04:05Z</time>
      </trkpt>
      <trkpt lat="46.29688" lon="10.55909">
        <ele>2144.232</ele>
        <time>2018-09-14T17:04:25Z</time>
      </trkpt>
      <trkpt lat="46.29685" lon="10.5591">
        <ele>2145.055</ele>
        <time>2018-09-14T17:04:45Z</time>
      </trkpt>
      <trkpt lat="46.29683" lon="10.55912">
        <ele>2145.943</ele>
        <time>2018-09-14T17:05:05Z</time>
      </trkpt>
      <trkpt lat="46.29681" lon="10.55913">
        <ele>2146.76</ele>
        <time>2018-09-14T17:05:25Z</time>
      </trkpt>
      <trkpt lat="46.29679" lon="10.55915">
        <ele>2148.039</ele>
        <time>2018-09-14T17:05:45Z</time>
      </trkpt>
      <trkpt lat="46.29679" lon="10.55918">
        <ele>2149.401</ele>
        <time>2018-09-14T17:06:05Z</time>
      </trkpt>
      <trkpt lat="46.29681" lon="10.55919">
        <ele>2149.621</ele>
        <time>2018-09-14T17:06:25Z</time>
      </trkpt>
      <trkpt lat="46.29685" lon="10.55919">
        <ele>2149.208</ele>
        <time>2018-09-14T17:06:45Z</time>
      </trkpt>
      <trkpt lat="46.29688" lon="10.55918">
        <ele>2148.485</ele>
        <time>2018-09-14T17:07:05Z</time>
      </trkpt>
      <trkpt lat="46.29691" lon="10.55918">
        <ele>2148.061</ele>
        <time>2018-09-14T17:07:25Z</time>
      </trkpt>
      <trkpt lat="46.29693" lon="10.55918">
        <ele>2147.698</ele>
        <time>2018-09-14T17:07:45Z</time>
      </trkpt>
      <trkpt lat="46.29695" lon="10.55918">
        <ele>2147.471</ele>
        <time>2018-09-14T17:08:05Z</time>
      </trkpt>
      <trkpt lat="46.29698" lon="10.55918">
        <ele>2147.694</ele>
        <time>2018-09-14T17:08:25Z</time>
      </trkpt>
      <trkpt lat="46.29701" lon="10.55919">
        <ele>2147.987</ele>
        <time>2018-09-14T17:08:45Z</time>
      </trkpt>
      <trkpt lat="46.29703" lon="10.55919">
        <ele>2148.265</ele>
        <time>2018-09-14T17:09:05Z</time>
      </trkpt>
      <trkpt lat="46.29706" lon="10.5592">
        <ele>2148.672</ele>
        <time>2018-09-14T17:09:25Z</time>
      </trkpt>
      <trkpt lat="46.29708" lon="10.55921">
        <ele>2149.042</ele>
        <time>2018-09-14T17:09:45Z</time>
      </trkpt>
      <trkpt lat="46.29711" lon="10.55922">
        <ele>2149.422</ele>
        <time>2018-09-14T17:10:05Z</time>
      </trkpt>
      <trkpt lat="46.29714" lon="10.55922">
        <ele>2149.714</ele>
        <time>2018-09-14T17:10:25Z</time>
      </trkpt>
      <trkpt lat="46.29716" lon="10.55923">
        <ele>2150.008</ele>
        <time>2018-09-14T17:10:45Z</time>
      </trkpt>
      <trkpt lat="46.29719" lon="10.55924">
        <ele>2150.256</ele>
        <time>2018-09-14T17:11:05Z</time>
      </trkpt>
      <trkpt lat="46.29722" lon="10.55924">
        <ele>2150.492</ele>
        <time>2018-09-14T17:11:25Z</time>
      </trkpt>
      <trkpt lat="46.29724" lon="10.55925">
        <ele>2150.259</ele>
        <time>2018-09-14T17:11:45Z</time>
      </trkpt>
      <trkpt lat="46.29727" lon="10.55926">
        <ele>2150.052</ele>
        <time>2018-09-14T17:12:05Z</time>
      </trkpt>
      <trkpt lat="46.29729" lon="10.55927">
        <ele>2149.935</ele>
        <time>2018-09-14T17:12:25Z</time>
      </trkpt>
      <trkpt lat="46.29731" lon="10.55928">
        <ele>2149.928</ele>
        <time>2018-09-14T17:12:45Z</time>
      </trkpt>
      <trkpt lat="46.29733" lon="10.5593">
        <ele>2150.016</ele>
        <time>2018-09-14T17:13:05Z</time>
      </trkpt>
      <trkpt lat="46.29736" lon="10.55932">
        <ele>2150.453</ele>
        <time>2018-09-14T17:13:25Z</time>
      </trkpt>
      <trkpt lat="46.29738" lon="10.55934">
        <ele>2150.848</ele>
        <time>2018-09-14T17:13:45Z</time>
      </trkpt>
      <trkpt lat="46.2974" lon="10.55937">
        <ele>2151.461</ele>
        <time>2018-09-14T17:14:05Z</time>
      </trkpt>
      <trkpt lat="46.29742" lon="10.55939">
        <ele>2152.117</ele>
        <time>2018-09-14T17:14:25Z</time>
      </trkpt>
      <trkpt lat="46.29743" lon="10.55942">
        <ele>2153.108</ele>
        <time>2018-09-14T17:14:45Z</time>
      </trkpt>
      <trkpt lat="46.29744" lon="10.55945">
        <ele>2153.926</ele>
        <time>2018-09-14T17:15:05Z</time>
      </trkpt>
      <trkpt lat="46.29745" lon="10.55948">
        <ele>2154.992</ele>
        <time>2018-09-14T17:15:25Z</time>
      </trkpt>
      <trkpt lat="46.29746" lon="10.55951">
        <ele>2156.089</ele>
        <time>2018-09-14T17:15:45Z</time>
      </trkpt>
      <trkpt lat="46.29747" lon="10.55954">
        <ele>2157.272</ele>
        <time>2018-09-14T17:16:05Z</time>
      </trkpt>
      <trkpt lat="46.29749" lon="10.55958">
        <ele>2158.545</ele>
        <time>2018-09-14T17:16:25Z</time>
      </trkpt>
      <trkpt lat="46.2975" lon="10.55961">
        <ele>2159.658</ele>
        <time>2018-09-14T17:16:45Z</time>
      </trkpt>
      <trkpt lat="46.29752" lon="10.55964">
        <ele>2160.436</ele>
        <time>2018-09-14T17:17:05Z</time>
      </trkpt>
      <trkpt lat="46.29754" lon="10.55967">
        <ele>2160.913</ele>
        <time>2018-09-14T17:17:25Z</time>
      </trkpt>
      <trkpt lat="46.29756" lon="10.55969">
        <ele>2161.166</ele>
        <time>2018-09-14T17:17:45Z</time>
      </trkpt>
      <trkpt lat="46.29759" lon="10.55971">
        <ele>2161.029</ele>
        <time>2018-09-14T17:18:05Z</time>
      </trkpt>
      <trkpt lat="46.29761" lon="10.55972">
        <ele>2160.621</ele>
        <time>2018-09-14T17:18:25Z</time>
      </trkpt>
      <trkpt lat="46.29763" lon="10.55973">
        <ele>2160.108</ele>
        <time>2018-09-14T17:18:45Z</time>
      </trkpt>
      <trkpt lat="46.29766" lon="10.55975">
        <ele>2159.848</ele>
        <time>2018-09-14T17:19:05Z</time>
      </trkpt>
      <trkpt lat="46.29768" lon="10.55977">
        <ele>2159.694</ele>
        <time>2018-09-14T17:19:25Z</time>
      </trkpt>
      <trkpt lat="46.2977" lon="10.55979">
        <ele>2159.621</ele>
        <time>2018-09-14T17:19:45Z</time>
      </trkpt>
      <trkpt lat="46.29772" lon="10.55982">
        <ele>2159.824</ele>
        <time>2018-09-14T17:20:05Z</time>
      </trkpt>
      <trkpt lat="46.29774" lon="10.55984">
        <ele>2160.087</ele>
        <time>2018-09-14T17:20:25Z</time>
      </trkpt>
      <trkpt lat="46.29775" lon="10.55987">
        <ele>2160.29</ele>
        <time>2018-09-14T17:20:45Z</time>
      </trkpt>
      <trkpt lat="46.29777" lon="10.55989">
        <ele>2160.158</ele>
        <time>2018-09-14T17:21:05Z</time>
      </trkpt>
      <trkpt lat="46.29779" lon="10.55991">
        <ele>2160.495</ele>
        <time>2018-09-14T17:21:25Z</time>
      </trkpt>
      <trkpt lat="46.29781" lon="10.55993">
        <ele>2160.653</ele>
        <time>2018-09-14T17:21:45Z</time>
      </trkpt>
      <trkpt lat="46.29784" lon="10.55994">
        <ele>2160.704</ele>
        <time>2018-09-14T17:22:05Z</time>
      </trkpt>
      <trkpt lat="46.29787" lon="10.55995">
        <ele>2160.614</ele>
        <time>2018-09-14T17:22:25Z</time>
      </trkpt>
      <trkpt lat="46.2979" lon="10.55996">
        <ele>2160.408</ele>
        <time>2018-09-14T17:22:45Z</time>
      </trkpt>
      <trkpt lat="46.29793" lon="10.55996">
        <ele>2160.287</ele>
        <time>2018-09-14T17:23:05Z</time>
      </trkpt>
      <trkpt lat="46.29796" lon="10.55997">
        <ele>2160.023</ele>
        <time>2018-09-14T17:23:25Z</time>
      </trkpt>
      <trkpt lat="46.29798" lon="10.55998">
        <ele>2160.07</ele>
        <time>2018-09-14T17:23:45Z</time>
      </trkpt>
      <trkpt lat="46.29801" lon="10.55999">
        <ele>2160.093</ele>
        <time>2018-09-14T17:24:05Z</time>
      </trkpt>
      <trkpt lat="46.29804" lon="10.55999">
        <ele>2159.996</ele>
        <time>2018-09-14T17:24:25Z</time>
      </trkpt>
      <trkpt lat="46.29806" lon="10.56">
        <ele>2159.889</ele>
        <time>2018-09-14T17:24:45Z</time>
      </trkpt>
      <trkpt lat="46.29809" lon="10.56001">
        <ele>2159.447</ele>
        <time>2018-09-14T17:25:05Z</time>
      </trkpt>
      <trkpt lat="46.29812" lon="10.56002">
        <ele>2158.914</ele>
        <time>2018-09-14T17:25:25Z</time>
      </trkpt>
      <trkpt lat="46.29814" lon="10.56003">
        <ele>2158.856</ele>
        <time>2018-09-14T17:25:45Z</time>
      </trkpt>
      <trkpt lat="46.29817" lon="10.56005">
        <ele>2158.759</ele>
        <time>2018-09-14T17:26:05Z</time>
      </trkpt>
      <trkpt lat="46.29819" lon="10.56006">
        <ele>2158.714</ele>
        <time>2018-09-14T17:26:25Z</time>
      </trkpt>
      <trkpt lat="46.2983" lon="10.56009">
        <ele>2157.408</ele>
        <time>2018-09-14T17:26:45Z</time>
      </trkpt>
      <trkpt lat="46.29832" lon="10.56012">
        <ele>2158.467</ele>
        <time>2018-09-14T17:27:05Z</time>
      </trkpt>
      <trkpt lat="46.29834" lon="10.56014">
        <ele>2158.973</ele>
        <time>2018-09-14T17:27:25Z</time>
      </trkpt>
      <trkpt lat="46.29836" lon="10.56016">
        <ele>2159.58</ele>
        <time>2018-09-14T17:27:45Z</time>
      </trkpt>
      <trkpt lat="46.29838" lon="10.56018">
        <ele>2160.363</ele>
        <time>2018-09-14T17:28:05Z</time>
      </trkpt>
      <trkpt lat="46.2984" lon="10.56021">
        <ele>2161.046</ele>
        <time>2018-09-14T17:28:25Z</time>
      </trkpt>
      <trkpt lat="46.29841" lon="10.56023">
        <ele>2161.629</ele>
        <time>2018-09-14T17:28:45Z</time>
      </trkpt>
      <trkpt lat="46.29843" lon="10.56025">
        <ele>2162.327</ele>
        <time>2018-09-14T17:29:05Z</time>
      </trkpt>
      <trkpt lat="46.29845" lon="10.56027">
        <ele>2163.064</ele>
        <time>2018-09-14T17:29:25Z</time>
      </trkpt>
      <trkpt lat="46.29846" lon="10.56029">
        <ele>2163.791</ele>
        <time>2018-09-14T17:29:45Z</time>
      </trkpt>
      <trkpt lat="46.29848" lon="10.56031">
        <ele>2164.481</ele>
        <time>2018-09-14T17:30:05Z</time>
      </trkpt>
      <trkpt lat="46.2985" lon="10.56034">
        <ele>2165.119</ele>
        <time>2018-09-14T17:30:25Z</time>
      </trkpt>
      <trkpt lat="46.29851" lon="10.56037">
        <ele>2166.008</ele>
        <time>2018-09-14T17:30:45Z</time>
      </trkpt>
      <trkpt lat="46.29853" lon="10.56039">
        <ele>2166.751</ele>
        <time>2018-09-14T17:31:05Z</time>
      </trkpt>
      <trkpt lat="46.29855" lon="10.56042">
        <ele>2167.527</ele>
        <time>2018-09-14T17:31:25Z</time>
      </trkpt>
      <trkpt lat="46.29857" lon="10.56045">
        <ele>2168.494</ele>
        <time>2018-09-14T17:31:45Z</time>
      </trkpt>
      <trkpt lat="46.29859" lon="10.56048">
        <ele>2169.287</ele>
        <time>2018-09-14T17:32:05Z</time>
      </trkpt>
      <trkpt lat="46.2986" lon="10.5605">
        <ele>2169.82</ele>
        <time>2018-09-14T17:32:25Z</time>
      </trkpt>
      <trkpt lat="46.29862" lon="10.56052">
        <ele>2170.633</ele>
        <time>2018-09-14T17:32:45Z</time>
      </trkpt>
      <trkpt lat="46.29864" lon="10.56054">
        <ele>2171.671</ele>
        <time>2018-09-14T17:33:05Z</time>
      </trkpt>
      <trkpt lat="46.29866" lon="10.56056">
        <ele>2172.628</ele>
        <time>2018-09-14T17:33:25Z</time>
      </trkpt>
      <trkpt lat="46.29868" lon="10.56057">
        <ele>2173.587</ele>
        <time>2018-09-14T17:33:45Z</time>
      </trkpt>
      <trkpt lat="46.29871" lon="10.56058">
        <ele>2174.242</ele>
        <time>2018-09-14T17:34:05Z</time>
      </trkpt>
      <trkpt lat="46.29873" lon="10.56058">
        <ele>2174.626</ele>
        <time>2018-09-14T17:34:25Z</time>
      </trkpt>
      <trkpt lat="46.29876" lon="10.56058">
        <ele>2175.008</ele>
        <time>2018-09-14T17:34:45Z</time>
      </trkpt>
      <trkpt lat="46.29879" lon="10.56059">
        <ele>2175.52</ele>
        <time>2018-09-14T17:35:05Z</time>
      </trkpt>
      <trkpt lat="46.29882" lon="10.56059">
        <ele>2176.046</ele>
        <time>2018-09-14T17:35:25Z</time>
      </trkpt>
      <trkpt lat="46.29885" lon="10.56059">
        <ele>2176.543</ele>
        <time>2018-09-14T17:35:45Z</time>
      </trkpt>
      <trkpt lat="46.29888" lon="10.5606">
        <ele>2177.216</ele>
        <time>2018-09-14T17:36:05Z</time>
      </trkpt>
      <trkpt lat="46.29891" lon="10.5606">
        <ele>2177.399</ele>
        <time>2018-09-14T17:36:25Z</time>
      </trkpt>
      <trkpt lat="46.29893" lon="10.56061">
        <ele>2177.382</ele>
        <time>2018-09-14T17:36:45Z</time>
      </trkpt>
      <trkpt lat="46.29895" lon="10.56061">
        <ele>2177.01</ele>
        <time>2018-09-14T17:37:05Z</time>
      </trkpt>
      <trkpt lat="46.29898" lon="10.56061">
        <ele>2176.757</ele>
        <time>2018-09-14T17:37:25Z</time>
      </trkpt>
      <trkpt lat="46.29901" lon="10.5606">
        <ele>2176.158</ele>
        <time>2018-09-14T17:37:45Z</time>
      </trkpt>
      <trkpt lat="46.29903" lon="10.56061">
        <ele>2176.152</ele>
        <time>2018-09-14T17:38:05Z</time>
      </trkpt>
      <trkpt lat="46.29906" lon="10.56061">
        <ele>2176.117</ele>
        <time>2018-09-14T17:38:25Z</time>
      </trkpt>
      <trkpt lat="46.29909" lon="10.56062">
        <ele>2176.108</ele>
        <time>2018-09-14T17:38:45Z</time>
      </trkpt>
      <trkpt lat="46.29911" lon="10.56062">
        <ele>2176.257</ele>
        <time>2018-09-14T17:39:05Z</time>
      </trkpt>
      <trkpt lat="46.2994" lon="10.5607">
        <ele>2178.853</ele>
        <time>2018-09-14T17:39:25Z</time>
      </trkpt>
      <trkpt lat="46.29943" lon="10.5607">
        <ele>2178.98</ele>
        <time>2018-09-14T17:39:45Z</time>
      </trkpt>
      <trkpt lat="46.29945" lon="10.5607">
        <ele>2179.133</ele>
        <time>2018-09-14T17:40:05Z</time>
      </trkpt>
      <trkpt lat="46.29948" lon="10.56071">
        <ele>2179.926</ele>
        <time>2018-09-14T17:40:25Z</time>
      </trkpt>
      <trkpt lat="46.29951" lon="10.56071">
        <ele>2180.679</ele>
        <time>2018-09-14T17:40:45Z</time>
      </trkpt>
      <trkpt lat="46.29979" lon="10.56073">
        <ele>2189.057</ele>
        <time>2018-09-14T17:41:05Z</time>
      </trkpt>
      <trkpt lat="46.29982" lon="10.56073">
        <ele>2189.644</ele>
        <time>2018-09-14T17:41:25Z</time>
      </trkpt>
      <trkpt lat="46.29985" lon="10.56073">
        <ele>2190.217</ele>
        <time>2018-09-14T17:41:45Z</time>
      </trkpt>
      <trkpt lat="46.29988" lon="10.56072">
        <ele>2190.687</ele>
        <time>2018-09-14T17:42:05Z</time>
      </trkpt>
      <trkpt lat="46.2999" lon="10.56071">
        <ele>2190.915</ele>
        <time>2018-09-14T17:42:25Z</time>
      </trkpt>
      <trkpt lat="46.29993" lon="10.56069">
        <ele>2191.108</ele>
        <time>2018-09-14T17:42:45Z</time>
      </trkpt>
      <trkpt lat="46.29995" lon="10.56067">
        <ele>2191.173</ele>
        <time>2018-09-14T17:43:05Z</time>
      </trkpt>
      <trkpt lat="46.30006" lon="10.5605">
        <ele>2188.119</ele>
        <time>2018-09-14T17:43:25Z</time>
      </trkpt>
      <trkpt lat="46.30007" lon="10.56046">
        <ele>2187.546</ele>
        <time>2018-09-14T17:43:45Z</time>
      </trkpt>
      <trkpt lat="46.30009" lon="10.56044">
        <ele>2187.049</ele>
        <time>2018-09-14T17:44:05Z</time>
      </trkpt>
      <trkpt lat="46.30011" lon="10.56041">
        <ele>2186.732</ele>
        <time>2018-09-14T17:44:25Z</time>
      </trkpt>
      <trkpt lat="46.30013" lon="10.56039">
        <ele>2186.515</ele>
        <time>2018-09-14T17:44:45Z</time>
      </trkpt>
      <trkpt lat="46.30015" lon="10.56038">
        <ele>2186.353</ele>
        <time>2018-09-14T17:45:05Z</time>
      </trkpt>
      <trkpt lat="46.30017" lon="10.56036">
        <ele>2186.36</ele>
        <time>2018-09-14T17:45:25Z</time>
      </trkpt>
      <trkpt lat="46.30019" lon="10.56035">
        <ele>2186.454</ele>
        <time>2018-09-14T17:45:45Z</time>
      </trkpt>
      <trkpt lat="46.30044" lon="10.56039">
        <ele>2187.256</ele>
        <time>2018-09-14T17:46:05Z</time>
      </trkpt>
      <trkpt lat="46.30046" lon="10.5604">
        <ele>2187.311</ele>
        <time>2018-09-14T17:46:25Z</time>
      </trkpt>
      <trkpt lat="46.30048" lon="10.56041">
        <ele>2187.408</ele>
        <time>2018-09-14T17:46:45Z</time>
      </trkpt>
      <trkpt lat="46.3005" lon="10.56043">
        <ele>2187.537</ele>
        <time>2018-09-14T17:47:05Z</time>
      </trkpt>
      <trkpt lat="46.30052" lon="10.56044">
        <ele>2187.693</ele>
        <time>2018-09-14T17:47:25Z</time>
      </trkpt>
      <trkpt lat="46.30055" lon="10.56045">
        <ele>2187.79</ele>
        <time>2018-09-14T17:47:45Z</time>
      </trkpt>
      <trkpt lat="46.30057" lon="10.56046">
        <ele>2187.783</ele>
        <time>2018-09-14T17:48:05Z</time>
      </trkpt>
      <trkpt lat="46.3006" lon="10.56047">
        <ele>2187.816</ele>
        <time>2018-09-14T17:48:25Z</time>
      </trkpt>
      <trkpt lat="46.30062" lon="10.56048">
        <ele>2187.919</ele>
        <time>2018-09-14T17:48:45Z</time>
      </trkpt>
      <trkpt lat="46.30065" lon="10.56049">
        <ele>2188.127</ele>
        <time>2018-09-14T17:49:05Z</time>
      </trkpt>
      <trkpt lat="46.30067" lon="10.56051">
        <ele>2188.454</ele>
        <time>2018-09-14T17:49:25Z</time>
      </trkpt>
      <trkpt lat="46.30069" lon="10.56053">
        <ele>2188.873</ele>
        <time>2018-09-14T17:49:45Z</time>
      </trkpt>
      <trkpt lat="46.30072" lon="10.56055">
        <ele>2189.185</ele>
        <time>2018-09-14T17:50:05Z</time>
      </trkpt>
      <trkpt lat="46.30074" lon="10.56056">
        <ele>2189.413</ele>
        <time>2018-09-14T17:50:25Z</time>
      </trkpt>
      <trkpt lat="46.30077" lon="10.56058">
        <ele>2189.708</ele>
        <time>2018-09-14T17:50:45Z</time>
      </trkpt>
      <trkpt lat="46.3008" lon="10.56059">
        <ele>2189.979</ele>
        <time>2018-09-14T17:51:05Z</time>
      </trkpt>
      <trkpt lat="46.30082" lon="10.5606">
        <ele>2190.155</ele>
        <time>2018-09-14T17:51:25Z</time>
      </trkpt>
      <trkpt lat="46.30085" lon="10.56061">
        <ele>2190.472</ele>
        <time>2018-09-14T17:51:45Z</time>
      </trkpt>
      <trkpt lat="46.30087" lon="10.56063">
        <ele>2190.685</ele>
        <time>2018-09-14T17:52:05Z</time>
      </trkpt>
      <trkpt lat="46.3009" lon="10.56065">
        <ele>2191.088</ele>
        <time>2018-09-14T17:52:25Z</time>
      </trkpt>
      <trkpt lat="46.30093" lon="10.56067">
        <ele>2191.581</ele>
        <time>2018-09-14T17:52:45Z</time>
      </trkpt>
      <trkpt lat="46.30095" lon="10.56069">
        <ele>2192.039</ele>
        <time>2018-09-14T17:53:05Z</time>
      </trkpt>
      <trkpt lat="46.30098" lon="10.5607">
        <ele>2192.486</ele>
        <time>2018-09-14T17:53:25Z</time>
      </trkpt>
      <trkpt lat="46.30101" lon="10.56072">
        <ele>2192.889</ele>
        <time>2018-09-14T17:53:45Z</time>
      </trkpt>
      <trkpt lat="46.30104" lon="10.56072">
        <ele>2192.906</ele>
        <time>2018-09-14T17:54:05Z</time>
      </trkpt>
      <trkpt lat="46.30107" lon="10.56072">
        <ele>2192.926</ele>
        <time>2018-09-14T17:54:25Z</time>
      </trkpt>
      <trkpt lat="46.30109" lon="10.56072">
        <ele>2192.808</ele>
        <time>2018-09-14T17:54:45Z</time>
      </trkpt>
      <trkpt lat="46.30112" lon="10.56072">
        <ele>2192.85</ele>
        <time>2018-09-14T17:55:05Z</time>
      </trkpt>
      <trkpt lat="46.30115" lon="10.56072">
        <ele>2192.876</ele>
        <time>2018-09-14T17:55:25Z</time>
      </trkpt>
      <trkpt lat="46.30118" lon="10.56072">
        <ele>2192.793</ele>
        <time>2018-09-14T17:55:45Z</time>
      </trkpt>
      <trkpt lat="46.30119" lon="10.56072">
        <ele>2192.666</ele>
        <time>2018-09-14T17:56:05Z</time>
      </trkpt>
      <trkpt lat="46.30138" lon="10.56075">
        <ele>2193.819</ele>
        <time>2018-09-14T17:56:25Z</time>
      </trkpt>
      <trkpt lat="46.3014" lon="10.56076">
        <ele>2194.172</ele>
        <time>2018-09-14T17:56:45Z</time>
      </trkpt>
      <trkpt lat="46.30142" lon="10.56078">
        <ele>2195.04</ele>
        <time>2018-09-14T17:57:05Z</time>
      </trkpt>
      <trkpt lat="46.30145" lon="10.56079">
        <ele>2195.947</ele>
        <time>2018-09-14T17:57:25Z</time>
      </trkpt>
      <trkpt lat="46.30148" lon="10.56081">
        <ele>2196.924</ele>
        <time>2018-09-14T17:57:45Z</time>
      </trkpt>
      <trkpt lat="46.3015" lon="10.56082">
        <ele>2197.704</ele>
        <time>2018-09-14T17:58:05Z</time>
      </trkpt>
      <trkpt lat="46.30153" lon="10.56083">
        <ele>2198.414</ele>
        <time>2018-09-14T17:58:25Z</time>
      </trkpt>
      <trkpt lat="46.30155" lon="10.56085">
        <ele>2199.508</ele>
        <time>2018-09-14T17:58:45Z</time>
      </trkpt>
      <trkpt lat="46.30158" lon="10.56086">
        <ele>2200.744</ele>
        <time>2018-09-14T17:59:05Z</time>
      </trkpt>
      <trkpt lat="46.3016" lon="10.56087">
        <ele>2202.06</ele>
        <time>2018-09-14T17:59:25Z</time>
      </trkpt>
      <trkpt lat="46.30163" lon="10.56089">
        <ele>2203.517</ele>
        <time>2018-09-14T17:59:45Z</time>
      </trkpt>
      <trkpt lat="46.30166" lon="10.56091">
        <ele>2205.13</ele>
        <time>2018-09-14T18:00:05Z</time>
      </trkpt>
      <trkpt lat="46.30168" lon="10.56092">
        <ele>2206.923</ele>
        <time>2018-09-14T18:00:25Z</time>
      </trkpt>
      <trkpt lat="46.30171" lon="10.56094">
        <ele>2208.596</ele>
        <time>2018-09-14T18:00:45Z</time>
      </trkpt>
      <trkpt lat="46.30173" lon="10.56095">
        <ele>2210.144</ele>
        <time>2018-09-14T18:01:05Z</time>
      </trkpt>
      <trkpt lat="46.30176" lon="10.56096">
        <ele>2211.621</ele>
        <time>2018-09-14T18:01:25Z</time>
      </trkpt>
      <trkpt lat="46.30179" lon="10.56097">
        <ele>2212.839</ele>
        <time>2018-09-14T18:01:45Z</time>
      </trkpt>
      <trkpt lat="46.30182" lon="10.56097">
        <ele>2213.801</ele>
        <time>2018-09-14T18:02:05Z</time>
      </trkpt>
      <trkpt lat="46.30185" lon="10.56097">
        <ele>2214.421</ele>
        <time>2018-09-14T18:02:25Z</time>
      </trkpt>
      <trkpt lat="46.30187" lon="10.56097">
        <ele>2214.708</ele>
        <time>2018-09-14T18:02:45Z</time>
      </trkpt>
      <trkpt lat="46.3019" lon="10.56095">
        <ele>2214.775</ele>
        <time>2018-09-14T18:03:05Z</time>
      </trkpt>
      <trkpt lat="46.30192" lon="10.56094">
        <ele>2214.591</ele>
        <time>2018-09-14T18:03:25Z</time>
      </trkpt>
      <trkpt lat="46.30194" lon="10.56093">
        <ele>2214.378</ele>
        <time>2018-09-14T18:03:45Z</time>
      </trkpt>
      <trkpt lat="46.30196" lon="10.56092">
        <ele>2214.661</ele>
        <time>2018-09-14T18:04:05Z</time>
      </trkpt>
      <trkpt lat="46.30198" lon="10.56093">
        <ele>2215.694</ele>
        <time>2018-09-14T18:04:25Z</time>
      </trkpt>
      <trkpt lat="46.302" lon="10.56095">
        <ele>2217.227</ele>
        <time>2018-09-14T18:04:45Z</time>
      </trkpt>
      <trkpt lat="46.30199" lon="10.56096">
        <ele>2217.465</ele>
        <time>2018-09-14T18:05:05Z</time>
      </trkpt>
      <trkpt lat="46.30196" lon="10.56097">
        <ele>2217.542</ele>
        <time>2018-09-14T18:05:25Z</time>
      </trkpt>
      <trkpt lat="46.30193" lon="10.56098">
        <ele>2216.868</ele>
        <time>2018-09-14T18:05:45Z</time>
      </trkpt>
      <trkpt lat="46.3019" lon="10.56099">
        <ele>2216.742</ele>
        <time>2018-09-14T18:06:05Z</time>
      </trkpt>
      <trkpt lat="46.30188" lon="10.56099">
        <ele>2216.626</ele>
        <time>2018-09-14T18:06:25Z</time>
      </trkpt>
      <trkpt lat="46.30186" lon="10.561">
        <ele>2216.608</ele>
        <time>2018-09-14T18:06:45Z</time>
      </trkpt>
      <trkpt lat="46.30184" lon="10.56101">
        <ele>2216.548</ele>
        <time>2018-09-14T18:07:05Z</time>
      </trkpt>
      <trkpt lat="46.30182" lon="10.56101">
        <ele>2216.314</ele>
        <time>2018-09-14T18:07:25Z</time>
      </trkpt>
      <trkpt lat="46.30179" lon="10.56101">
        <ele>2215.981</ele>
        <time>2018-09-14T18:07:45Z</time>
      </trkpt>
      <trkpt lat="46.30177" lon="10.56101">
        <ele>2215.314</ele>
        <time>2018-09-14T18:08:05Z</time>
      </trkpt>
      <trkpt lat="46.30175" lon="10.56101">
        <ele>2214.617</ele>
        <time>2018-09-14T18:08:25Z</time>
      </trkpt>
      <trkpt lat="46.30173" lon="10.56101">
        <ele>2213.89</ele>
        <time>2018-09-14T18:08:45Z</time>
      </trkpt>
      <trkpt lat="46.3017" lon="10.561">
        <ele>2213.158</ele>
        <time>2018-09-14T18:09:05Z</time>
      </trkpt>
      <trkpt lat="46.30168" lon="10.561">
        <ele>2212.375</ele>
        <time>2018-09-14T18:09:25Z</time>
      </trkpt>
      <trkpt lat="46.30166" lon="10.561">
        <ele>2211.899</ele>
        <time>2018-09-14T18:09:45Z</time>
      </trkpt>
      <trkpt lat="46.30163" lon="10.561">
        <ele>2211.507</ele>
        <time>2018-09-14T18:10:05Z</time>
      </trkpt>
      <trkpt lat="46.30161" lon="10.561">
        <ele>2211.127</ele>
        <time>2018-09-14T18:10:25Z</time>
      </trkpt>
      <trkpt lat="46.30159" lon="10.561">
        <ele>2210.708</ele>
        <time>2018-09-14T18:10:45Z</time>
      </trkpt>
      <trkpt lat="46.30156" lon="10.561">
        <ele>2210.421</ele>
        <time>2018-09-14T18:11:05Z</time>
      </trkpt>
      <trkpt lat="46.30154" lon="10.561">
        <ele>2210.027</ele>
        <time>2018-09-14T18:11:25Z</time>
      </trkpt>
      <trkpt lat="46.30152" lon="10.56099">
        <ele>2209.674</ele>
        <time>2018-09-14T18:11:45Z</time>
      </trkpt>
      <trkpt lat="46.30149" lon="10.56099">
        <ele>2209.277</ele>
        <time>2018-09-14T18:12:05Z</time>
      </trkpt>
      <trkpt lat="46.30147" lon="10.56099">
        <ele>2208.84</ele>
        <time>2018-09-14T18:12:25Z</time>
      </trkpt>
      <trkpt lat="46.30145" lon="10.56099">
        <ele>2208.553</ele>
        <time>2018-09-14T18:12:45Z</time>
      </trkpt>
      <trkpt lat="46.30142" lon="10.56099">
        <ele>2208.121</ele>
        <time>2018-09-14T18:13:05Z</time>
      </trkpt>
      <trkpt lat="46.3014" lon="10.56099">
        <ele>2207.958</ele>
        <time>2018-09-14T18:13:25Z</time>
      </trkpt>
      <trkpt lat="46.30138" lon="10.561">
        <ele>2208.133</ele>
        <time>2018-09-14T18:13:45Z</time>
      </trkpt>
      <trkpt lat="46.30135" lon="10.561">
        <ele>2208.323</ele>
        <time>2018-09-14T18:14:05Z</time>
      </trkpt>
      <trkpt lat="46.30133" lon="10.56101">
        <ele>2208.615</ele>
        <time>2018-09-14T18:14:25Z</time>
      </trkpt>
      <trkpt lat="46.30131" lon="10.56101">
        <ele>2208.908</ele>
        <time>2018-09-14T18:14:45Z</time>
      </trkpt>
      <trkpt lat="46.30128" lon="10.56102">
        <ele>2209.345</ele>
        <time>2018-09-14T18:15:05Z</time>
      </trkpt>
      <trkpt lat="46.30126" lon="10.56103">
        <ele>2209.861</ele>
        <time>2018-09-14T18:15:25Z</time>
      </trkpt>
      <trkpt lat="46.30124" lon="10.56104">
        <ele>2210.188</ele>
        <time>2018-09-14T18:15:45Z</time>
      </trkpt>
      <trkpt lat="46.30122" lon="10.56104">
        <ele>2210.091</ele>
        <time>2018-09-14T18:16:05Z</time>
      </trkpt>
      <trkpt lat="46.30119" lon="10.56104">
        <ele>2209.824</ele>
        <time>2018-09-14T18:16:25Z</time>
      </trkpt>
      <trkpt lat="46.30117" lon="10.56103">
        <ele>2209.167</ele>
        <time>2018-09-14T18:16:45Z</time>
      </trkpt>
      <trkpt lat="46.30115" lon="10.56102">
        <ele>2208.325</ele>
        <time>2018-09-14T18:17:05Z</time>
      </trkpt>
      <trkpt lat="46.30113" lon="10.56101">
        <ele>2207.782</ele>
        <time>2018-09-14T18:17:25Z</time>
      </trkpt>
      <trkpt lat="46.30111" lon="10.561">
        <ele>2207.019</ele>
        <time>2018-09-14T18:17:45Z</time>
      </trkpt>
      <trkpt lat="46.30108" lon="10.56099">
        <ele>2206.109</ele>
        <time>2018-09-14T18:18:05Z</time>
      </trkpt>
      <trkpt lat="46.30106" lon="10.56098">
        <ele>2205.219</ele>
        <time>2018-09-14T18:18:25Z</time>
      </trkpt>
      <trkpt lat="46.30104" lon="10.56097">
        <ele>2204.508</ele>
        <time>2018-09-14T18:18:45Z</time>
      </trkpt>
      <trkpt lat="46.30101" lon="10.56096">
        <ele>2203.833</ele>
        <time>2018-09-14T18:19:05Z</time>
      </trkpt>
      <trkpt lat="46.30099" lon="10.56096">
        <ele>2203.389</ele>
        <time>2018-09-14T18:19:25Z</time>
      </trkpt>
      <trkpt lat="46.30097" lon="10.56095">
        <ele>2202.816</ele>
        <time>2018-09-14T18:19:45Z</time>
      </trkpt>
      <trkpt lat="46.30095" lon="10.56095">
        <ele>2202.359</ele>
        <time>2018-09-14T18:20:05Z</time>
      </trkpt>
      <trkpt lat="46.30093" lon="10.56094">
        <ele>2201.672</ele>
        <time>2018-09-14T18:20:25Z</time>
      </trkpt>
      <trkpt lat="46.3009" lon="10.56093">
        <ele>2201.195</ele>
        <time>2018-09-14T18:20:45Z</time>
      </trkpt>
      <trkpt lat="46.30088" lon="10.56093">
        <ele>2200.933</ele>
        <time>2018-09-14T18:21:05Z</time>
      </trkpt>
      <trkpt lat="46.30086" lon="10.56094">
        <ele>2201.11</ele>
        <time>2018-09-14T18:21:25Z</time>
      </trkpt>
      <trkpt lat="46.30084" lon="10.56096">
        <ele>2201.841</ele>
        <time>2018-09-14T18:21:45Z</time>
      </trkpt>
      <trkpt lat="46.30082" lon="10.56098">
        <ele>2202.981</ele>
        <time>2018-09-14T18:22:05Z</time>
      </trkpt>
      <trkpt lat="46.3008" lon="10.56101">
        <ele>2204.009</ele>
        <time>2018-09-14T18:22:25Z</time>
      </trkpt>
      <trkpt lat="46.30079" lon="10.56104">
        <ele>2205.308</ele>
        <time>2018-09-14T18:22:45Z</time>
      </trkpt>
      <trkpt lat="46.30077" lon="10.56107">
        <ele>2206.796</ele>
        <time>2018-09-14T18:23:05Z</time>
      </trkpt>
      <trkpt lat="46.30076" lon="10.56111">
        <ele>2208.192</ele>
        <time>2018-09-14T18:23:25Z</time>
      </trkpt>
      <trkpt lat="46.30075" lon="10.56115">
        <ele>2210.099</ele>
        <time>2018-09-14T18:23:45Z</time>
      </trkpt>
      <trkpt lat="46.30074" lon="10.56118">
        <ele>2211.892</ele>
        <time>2018-09-14T18:24:05Z</time>
      </trkpt>
      <trkpt lat="46.30073" lon="10.56122">
        <ele>2213.625</ele>
        <time>2018-09-14T18:24:25Z</time>
      </trkpt>
      <trkpt lat="46.30071" lon="10.56126">
        <ele>2215.248</ele>
        <time>2018-09-14T18:24:45Z</time>
      </trkpt>
      <trkpt lat="46.3007" lon="10.5613">
        <ele>2216.896</ele>
        <time>2018-09-14T18:25:05Z</time>
      </trkpt>
      <trkpt lat="46.30068" lon="10.56133">
        <ele>2218.273</ele>
        <time>2018-09-14T18:25:25Z</time>
      </trkpt>
      <trkpt lat="46.30067" lon="10.56136">
        <ele>2219.421</ele>
        <time>2018-09-14T18:25:45Z</time>
      </trkpt>
      <trkpt lat="46.30065" lon="10.5614">
        <ele>2220.641</ele>
        <time>2018-09-14T18:26:05Z</time>
      </trkpt>
      <trkpt lat="46.30063" lon="10.56143">
        <ele>2221.505</ele>
        <time>2018-09-14T18:26:25Z</time>
      </trkpt>
      <trkpt lat="46.30062" lon="10.56146">
        <ele>2222.408</ele>
        <time>2018-09-14T18:26:45Z</time>
      </trkpt>
      <trkpt lat="46.3006" lon="10.56149">
        <ele>2223.184</ele>
        <time>2018-09-14T18:27:05Z</time>
      </trkpt>
      <trkpt lat="46.30058" lon="10.56152">
        <ele>2223.73</ele>
        <time>2018-09-14T18:27:25Z</time>
      </trkpt>
      <trkpt lat="46.30056" lon="10.56154">
        <ele>2224.297</ele>
        <time>2018-09-14T18:27:45Z</time>
      </trkpt>
      <trkpt lat="46.30055" lon="10.56157">
        <ele>2225.06</ele>
        <time>2018-09-14T18:28:05Z</time>
      </trkpt>
      <trkpt lat="46.30054" lon="10.56161">
        <ele>2226.443</ele>
        <time>2018-09-14T18:28:25Z</time>
      </trkpt>
      <trkpt lat="46.30055" lon="10.56165">
        <ele>2228.146</ele>
        <time>2018-09-14T18:28:45Z</time>
      </trkpt>
      <trkpt lat="46.30057" lon="10.56167">
        <ele>2229.784</ele>
        <time>2018-09-14T18:29:05Z</time>
      </trkpt>
      <trkpt lat="46.30059" lon="10.56168">
        <ele>2230.511</ele>
        <time>2018-09-14T18:29:25Z</time>
      </trkpt>
      <trkpt lat="46.30062" lon="10.56168">
        <ele>2231.271</ele>
        <time>2018-09-14T18:29:45Z</time>
      </trkpt>
      <trkpt lat="46.30064" lon="10.56168">
        <ele>2231.741</ele>
        <time>2018-09-14T18:30:05Z</time>
      </trkpt>
      <trkpt lat="46.30067" lon="10.56168">
        <ele>2232.315</ele>
        <time>2018-09-14T18:30:25Z</time>
      </trkpt>
      <trkpt lat="46.30069" lon="10.56168">
        <ele>2233.008</ele>
        <time>2018-09-14T18:30:45Z</time>
      </trkpt>
      <trkpt lat="46.30071" lon="10.56169">
        <ele>2233.779</ele>
        <time>2018-09-14T18:31:05Z</time>
      </trkpt>
      <trkpt lat="46.30074" lon="10.56169">
        <ele>2234.415</ele>
        <time>2018-09-14T18:31:25Z</time>
      </trkpt>
      <trkpt lat="46.30076" lon="10.56169">
        <ele>2235.132</ele>
        <time>2018-09-14T18:31:45Z</time>
      </trkpt>
      <trkpt lat="46.30078" lon="10.56169">
        <ele>2235.855</ele>
        <time>2018-09-14T18:32:05Z</time>
      </trkpt>
      <trkpt lat="46.30081" lon="10.56169">
        <ele>2236.268</ele>
        <time>2018-09-14T18:32:25Z</time>
      </trkpt>
      <trkpt lat="46.30083" lon="10.56168">
        <ele>2236.271</ele>
        <time>2018-09-14T18:32:45Z</time>
      </trkpt>
      <trkpt lat="46.30085" lon="10.56166">
        <ele>2236.489</ele>
        <time>2018-09-14T18:33:05Z</time>
      </trkpt>
      <trkpt lat="46.30087" lon="10.56164">
        <ele>2236.476</ele>
        <time>2018-09-14T18:33:25Z</time>
      </trkpt>
      <trkpt lat="46.30089" lon="10.56162">
        <ele>2236.338</ele>
        <time>2018-09-14T18:33:45Z</time>
      </trkpt>
      <trkpt lat="46.30092" lon="10.5616">
        <ele>2236.17</ele>
        <time>2018-09-14T18:34:05Z</time>
      </trkpt>
      <trkpt lat="46.30094" lon="10.56158">
        <ele>2235.817</ele>
        <time>2018-09-14T18:34:25Z</time>
      </trkpt>
      <trkpt lat="46.30096" lon="10.56156">
        <ele>2235.308</ele>
        <time>2018-09-14T18:34:45Z</time>
      </trkpt>
      <trkpt lat="46.30098" lon="10.56153">
        <ele>2234.515</ele>
        <time>2018-09-14T18:35:05Z</time>
      </trkpt>
      <trkpt lat="46.30099" lon="10.5615">
        <ele>2233.641</ele>
        <time>2018-09-14T18:35:25Z</time>
      </trkpt>
      <trkpt lat="46.30101" lon="10.56147">
        <ele>2232.718</ele>
        <time>2018-09-14T18:35:45Z</time>
      </trkpt>
      <trkpt lat="46.30103" lon="10.56145">
        <ele>2232.151</ele>
        <time>2018-09-14T18:36:05Z</time>
      </trkpt>
      <trkpt lat="46.30105" lon="10.56145">
        <ele>2232.634</ele>
        <time>2018-09-14T18:36:25Z</time>
      </trkpt>
      <trkpt lat="46.30106" lon="10.56147">
        <ele>2233.857</ele>
        <time>2018-09-14T18:36:45Z</time>
      </trkpt>
      <trkpt lat="46.30107" lon="10.56151">
        <ele>2236.475</ele>
        <time>2018-09-14T18:37:05Z</time>
      </trkpt>
      <trkpt lat="46.30106" lon="10.56154">
        <ele>2237.252</ele>
        <time>2018-09-14T18:37:25Z</time>
      </trkpt>
      <trkpt lat="46.30104" lon="10.56156">
        <ele>2238.134</ele>
        <time>2018-09-14T18:37:45Z</time>
      </trkpt>
      <trkpt lat="46.30103" lon="10.56159">
        <ele>2239.255</ele>
        <time>2018-09-14T18:38:05Z</time>
      </trkpt>
      <trkpt lat="46.30102" lon="10.56162">
        <ele>2240.41</ele>
        <time>2018-09-14T18:38:25Z</time>
      </trkpt>
      <trkpt lat="46.301" lon="10.56166">
        <ele>2241.608</ele>
        <time>2018-09-14T18:38:45Z</time>
      </trkpt>
      <trkpt lat="46.30099" lon="10.56169">
        <ele>2242.695</ele>
        <time>2018-09-14T18:39:05Z</time>
      </trkpt>
      <trkpt lat="46.30098" lon="10.56172">
        <ele>2243.581</ele>
        <time>2018-09-14T18:39:25Z</time>
      </trkpt>
      <trkpt lat="46.30096" lon="10.56176">
        <ele>2244.288</ele>
        <time>2018-09-14T18:39:45Z</time>
      </trkpt>
      <trkpt lat="46.30095" lon="10.56179">
        <ele>2244.831</ele>
        <time>2018-09-14T18:40:05Z</time>
      </trkpt>
      <trkpt lat="46.30093" lon="10.56181">
        <ele>2245.114</ele>
        <time>2018-09-14T18:40:25Z</time>
      </trkpt>
      <trkpt lat="46.30092" lon="10.56184">
        <ele>2245.637</ele>
        <time>2018-09-14T18:40:45Z</time>
      </trkpt>
      <trkpt lat="46.3009" lon="10.56187">
        <ele>2246.215</ele>
        <time>2018-09-14T18:41:05Z</time>
      </trkpt>
      <trkpt lat="46.30089" lon="10.5619">
        <ele>2246.952</ele>
        <time>2018-09-14T18:41:25Z</time>
      </trkpt>
      <trkpt lat="46.30088" lon="10.56193">
        <ele>2247.751</ele>
        <time>2018-09-14T18:41:45Z</time>
      </trkpt>
      <trkpt lat="46.30086" lon="10.56196">
        <ele>2248.501</ele>
        <time>2018-09-14T18:42:05Z</time>
      </trkpt>
      <trkpt lat="46.30085" lon="10.56199">
        <ele>2249.211</ele>
        <time>2018-09-14T18:42:25Z</time>
      </trkpt>
      <trkpt lat="46.30083" lon="10.56202">
        <ele>2249.708</ele>
        <time>2018-09-14T18:42:45Z</time>
      </trkpt>
      <trkpt lat="46.30081" lon="10.56205">
        <ele>2250.317</ele>
        <time>2018-09-14T18:43:05Z</time>
      </trkpt>
      <trkpt lat="46.30079" lon="10.56208">
        <ele>2251.093</ele>
        <time>2018-09-14T18:43:25Z</time>
      </trkpt>
      <trkpt lat="46.30077" lon="10.56211">
        <ele>2251.68</ele>
        <time>2018-09-14T18:43:45Z</time>
      </trkpt>
      <trkpt lat="46.30075" lon="10.56213">
        <ele>2252.143</ele>
        <time>2018-09-14T18:44:05Z</time>
      </trkpt>
      <trkpt lat="46.30073" lon="10.56216">
        <ele>2252.546</ele>
        <time>2018-09-14T18:44:25Z</time>
      </trkpt>
      <trkpt lat="46.30071" lon="10.56218">
        <ele>2253.069</ele>
        <time>2018-09-14T18:44:45Z</time>
      </trkpt>
      <trkpt lat="46.30069" lon="10.56221">
        <ele>2253.747</ele>
        <time>2018-09-14T18:45:05Z</time>
      </trkpt>
      <trkpt lat="46.30066" lon="10.56223">
        <ele>2254.374</ele>
        <time>2018-09-14T18:45:25Z</time>
      </trkpt>
      <trkpt lat="46.30064" lon="10.56226">
        <ele>2254.722</ele>
        <time>2018-09-14T18:45:45Z</time>
      </trkpt>
      <trkpt lat="46.30062" lon="10.56229">
        <ele>2255.362</ele>
        <time>2018-09-14T18:46:05Z</time>
      </trkpt>
      <trkpt lat="46.30059" lon="10.56231">
        <ele>2255.808</ele>
        <time>2018-09-14T18:46:25Z</time>
      </trkpt>
      <trkpt lat="46.30057" lon="10.56234">
        <ele>2256.408</ele>
        <time>2018-09-14T18:46:45Z</time>
      </trkpt>
      <trkpt lat="46.30054" lon="10.56236">
        <ele>2257.054</ele>
        <time>2018-09-14T18:47:05Z</time>
      </trkpt>
      <trkpt lat="46.30052" lon="10.56238">
        <ele>2257.97</ele>
        <time>2018-09-14T18:47:25Z</time>
      </trkpt>
      <trkpt lat="46.30049" lon="10.56239">
        <ele>2258.687</ele>
        <time>2018-09-14T18:47:45Z</time>
      </trkpt>
      <trkpt lat="46.30047" lon="10.56241">
        <ele>2259.38</ele>
        <time>2018-09-14T18:48:05Z</time>
      </trkpt>
      <trkpt lat="46.30044" lon="10.56242">
        <ele>2260.183</ele>
        <time>2018-09-14T18:48:25Z</time>
      </trkpt>
      <trkpt lat="46.30041" lon="10.56244">
        <ele>2260.866</ele>
        <time>2018-09-14T18:48:45Z</time>
      </trkpt>
      <trkpt lat="46.30038" lon="10.56245">
        <ele>2261.664</ele>
        <time>2018-09-14T18:49:05Z</time>
      </trkpt>
      <trkpt lat="46.30036" lon="10.56246">
        <ele>2262.321</ele>
        <time>2018-09-14T18:49:25Z</time>
      </trkpt>
      <trkpt lat="46.30033" lon="10.56246">
        <ele>2262.687</ele>
        <time>2018-09-14T18:49:45Z</time>
      </trkpt>
      <trkpt lat="46.30031" lon="10.56247">
        <ele>2263.142</ele>
        <time>2018-09-14T18:50:05Z</time>
      </trkpt>
      <trkpt lat="46.30028" lon="10.56247">
        <ele>2263.626</ele>
        <time>2018-09-14T18:50:25Z</time>
      </trkpt>
      <trkpt lat="46.30026" lon="10.56248">
        <ele>2264.108</ele>
        <time>2018-09-14T18:50:45Z</time>
      </trkpt>
      <trkpt lat="46.30024" lon="10.56248">
        <ele>2264.54</ele>
        <time>2018-09-14T18:51:05Z</time>
      </trkpt>
      <trkpt lat="46.30021" lon="10.56249">
        <ele>2265.056</ele>
        <time>2018-09-14T18:51:25Z</time>
      </trkpt>
      <trkpt lat="46.30019" lon="10.56249">
        <ele>2265.563</ele>
        <time>2018-09-14T18:51:45Z</time>
      </trkpt>
      <trkpt lat="46.30016" lon="10.5625">
        <ele>2266.026</ele>
        <time>2018-09-14T18:52:05Z</time>
      </trkpt>
      <trkpt lat="46.30013" lon="10.5625">
        <ele>2266.479</ele>
        <time>2018-09-14T18:52:25Z</time>
      </trkpt>
      <trkpt lat="46.3001" lon="10.5625">
        <ele>2266.712</ele>
        <time>2018-09-14T18:52:45Z</time>
      </trkpt>
      <trkpt lat="46.30008" lon="10.56249">
        <ele>2266.96</ele>
        <time>2018-09-14T18:53:05Z</time>
      </trkpt>
      <trkpt lat="46.30005" lon="10.56249">
        <ele>2267.027</ele>
        <time>2018-09-14T18:53:25Z</time>
      </trkpt>
      <trkpt lat="46.30003" lon="10.56248">
        <ele>2267.087</ele>
        <time>2018-09-14T18:53:45Z</time>
      </trkpt>
      <trkpt lat="46.3" lon="10.56247">
        <ele>2267.042</ele>
        <time>2018-09-14T18:54:05Z</time>
      </trkpt>
      <trkpt lat="46.29997" lon="10.56247">
        <ele>2267.126</ele>
        <time>2018-09-14T18:54:25Z</time>
      </trkpt>
      <trkpt lat="46.29995" lon="10.56246">
        <ele>2267.108</ele>
        <time>2018-09-14T18:54:45Z</time>
      </trkpt>
      <trkpt lat="46.29992" lon="10.56245">
        <ele>2267.29</ele>
        <time>2018-09-14T18:55:05Z</time>
      </trkpt>
      <trkpt lat="46.29989" lon="10.56244">
        <ele>2267.166</ele>
        <time>2018-09-14T18:55:25Z</time>
      </trkpt>
      <trkpt lat="46.29986" lon="10.56242">
        <ele>2267.193</ele>
        <time>2018-09-14T18:55:45Z</time>
      </trkpt>
      <trkpt lat="46.29983" lon="10.56242">
        <ele>2267.196</ele>
        <time>2018-09-14T18:56:05Z</time>
      </trkpt>
      <trkpt lat="46.2998" lon="10.56241">
        <ele>2267.239</ele>
        <time>2018-09-14T18:56:25Z</time>
      </trkpt>
      <trkpt lat="46.29977" lon="10.5624">
        <ele>2267.362</ele>
        <time>2018-09-14T18:56:45Z</time>
      </trkpt>
      <trkpt lat="46.29974" lon="10.56239">
        <ele>2267.52</ele>
        <time>2018-09-14T18:57:05Z</time>
      </trkpt>
      <trkpt lat="46.29972" lon="10.56239">
        <ele>2267.877</ele>
        <time>2018-09-14T18:57:25Z</time>
      </trkpt>
      <trkpt lat="46.29969" lon="10.56239">
        <ele>2267.935</ele>
        <time>2018-09-14T18:57:45Z</time>
      </trkpt>
      <trkpt lat="46.29967" lon="10.56237">
        <ele>2267.886</ele>
        <time>2018-09-14T18:58:05Z</time>
      </trkpt>
      <trkpt lat="46.29964" lon="10.56236">
        <ele>2267.614</ele>
        <time>2018-09-14T18:58:25Z</time>
      </trkpt>
      <trkpt lat="46.29962" lon="10.56234">
        <ele>2267.308</ele>
        <time>2018-09-14T18:58:45Z</time>
      </trkpt>
      <trkpt lat="46.2996" lon="10.56232">
        <ele>2266.945</ele>
        <time>2018-09-14T18:59:05Z</time>
      </trkpt>
      <trkpt lat="46.29957" lon="10.5623">
        <ele>2266.591</ele>
        <time>2018-09-14T18:59:25Z</time>
      </trkpt>
      <trkpt lat="46.29955" lon="10.56229">
        <ele>2266.228</ele>
        <time>2018-09-14T18:59:45Z</time>
      </trkpt>
      <trkpt lat="46.29952" lon="10.56227">
        <ele>2265.891</ele>
        <time>2018-09-14T19:00:05Z</time>
      </trkpt>
      <trkpt lat="46.2995" lon="10.56225">
        <ele>2265.484</ele>
        <time>2018-09-14T19:00:25Z</time>
      </trkpt>
      <trkpt lat="46.29949" lon="10.56223">
        <ele>2264.887</ele>
        <time>2018-09-14T19:00:45Z</time>
      </trkpt>
      <trkpt lat="46.29947" lon="10.56221">
        <ele>2263.975</ele>
        <time>2018-09-14T19:01:05Z</time>
      </trkpt>
      <trkpt lat="46.29946" lon="10.56218">
        <ele>2263.092</ele>
        <time>2018-09-14T19:01:25Z</time>
      </trkpt>
      <trkpt lat="46.29944" lon="10.56215">
        <ele>2262.257</ele>
        <time>2018-09-14T19:01:45Z</time>
      </trkpt>
      <trkpt lat="46.29942" lon="10.56213">
        <ele>2261.8</ele>
        <time>2018-09-14T19:02:05Z</time>
      </trkpt>
      <trkpt lat="46.29939" lon="10.56214">
        <ele>2262.22</ele>
        <time>2018-09-14T19:02:25Z</time>
      </trkpt>
      <trkpt lat="46.29937" lon="10.56216">
        <ele>2263.308</ele>
        <time>2018-09-14T19:02:45Z</time>
      </trkpt>
      <trkpt lat="46.29936" lon="10.56219">
        <ele>2264.887</ele>
        <time>2018-09-14T19:03:05Z</time>
      </trkpt>
      <trkpt lat="46.29936" lon="10.56223">
        <ele>2266.453</ele>
        <time>2018-09-14T19:03:25Z</time>
      </trkpt>
      <trkpt lat="46.29936" lon="10.56226">
        <ele>2267.88</ele>
        <time>2018-09-14T19:03:45Z</time>
      </trkpt>
      <trkpt lat="46.29937" lon="10.56229">
        <ele>2269.163</ele>
        <time>2018-09-14T19:04:05Z</time>
      </trkpt>
      <trkpt lat="46.29938" lon="10.56232">
        <ele>2270.376</ele>
        <time>2018-09-14T19:04:25Z</time>
      </trkpt>
      <trkpt lat="46.2994" lon="10.56235">
        <ele>2271.479</ele>
        <time>2018-09-14T19:04:45Z</time>
      </trkpt>
      <trkpt lat="46.29941" lon="10.56239">
        <ele>2272.677</ele>
        <time>2018-09-14T19:05:05Z</time>
      </trkpt>
      <trkpt lat="46.29943" lon="10.56242">
        <ele>2273.794</ele>
        <time>2018-09-14T19:05:25Z</time>
      </trkpt>
      <trkpt lat="46.29945" lon="10.56245">
        <ele>2274.797</ele>
        <time>2018-09-14T19:05:45Z</time>
      </trkpt>
      <trkpt lat="46.29947" lon="10.56248">
        <ele>2275.523</ele>
        <time>2018-09-14T19:06:05Z</time>
      </trkpt>
      <trkpt lat="46.29949" lon="10.56251">
        <ele>2276.325</ele>
        <time>2018-09-14T19:06:25Z</time>
      </trkpt>
      <trkpt lat="46.29952" lon="10.56253">
        <ele>2277.108</ele>
        <time>2018-09-14T19:06:45Z</time>
      </trkpt>
      <trkpt lat="46.29954" lon="10.56256">
        <ele>2277.841</ele>
        <time>2018-09-14T19:07:05Z</time>
      </trkpt>
      <trkpt lat="46.29956" lon="10.56259">
        <ele>2278.497</ele>
        <time>2018-09-14T19:07:25Z</time>
      </trkpt>
      <trkpt lat="46.29959" lon="10.56261">
        <ele>2279.094</ele>
        <time>2018-09-14T19:07:45Z</time>
      </trkpt>
      <trkpt lat="46.29962" lon="10.56264">
        <ele>2279.677</ele>
        <time>2018-09-14T19:08:05Z</time>
      </trkpt>
      <trkpt lat="46.29964" lon="10.56267">
        <ele>2280.26</ele>
        <time>2018-09-14T19:08:25Z</time>
      </trkpt>
      <trkpt lat="46.29967" lon="10.5627">
        <ele>2280.753</ele>
        <time>2018-09-14T19:08:45Z</time>
      </trkpt>
      <trkpt lat="46.29969" lon="10.56273">
        <ele>2281.231</ele>
        <time>2018-09-14T19:09:05Z</time>
      </trkpt>
      <trkpt lat="46.29971" lon="10.56277">
        <ele>2281.888</ele>
        <time>2018-09-14T19:09:25Z</time>
      </trkpt>
      <trkpt lat="46.29974" lon="10.5628">
        <ele>2282.545</ele>
        <time>2018-09-14T19:09:45Z</time>
      </trkpt>
      <trkpt lat="46.29976" lon="10.56283">
        <ele>2283.447</ele>
        <time>2018-09-14T19:10:05Z</time>
      </trkpt>
      <trkpt lat="46.29978" lon="10.56287">
        <ele>2284.111</ele>
        <time>2018-09-14T19:10:25Z</time>
      </trkpt>
      <trkpt lat="46.2998" lon="10.5629">
        <ele>2284.708</ele>
        <time>2018-09-14T19:10:45Z</time>
      </trkpt>
      <trkpt lat="46.29983" lon="10.56292">
        <ele>2285.186</ele>
        <time>2018-09-14T19:11:05Z</time>
      </trkpt>
      <trkpt lat="46.29985" lon="10.56295">
        <ele>2285.412</ele>
        <time>2018-09-14T19:11:25Z</time>
      </trkpt>
      <trkpt lat="46.29987" lon="10.56297">
        <ele>2285.739</ele>
        <time>2018-09-14T19:11:45Z</time>
      </trkpt>
      <trkpt lat="46.29989" lon="10.563">
        <ele>2286.062</ele>
        <time>2018-09-14T19:12:05Z</time>
      </trkpt>
      <trkpt lat="46.29992" lon="10.56303">
        <ele>2286.275</ele>
        <time>2018-09-14T19:12:25Z</time>
      </trkpt>
      <trkpt lat="46.29994" lon="10.56305">
        <ele>2286.398</ele>
        <time>2018-09-14T19:12:45Z</time>
      </trkpt>
      <trkpt lat="46.29996" lon="10.56307">
        <ele>2286.436</ele>
        <time>2018-09-14T19:13:05Z</time>
      </trkpt>
      <trkpt lat="46.29999" lon="10.56309">
        <ele>2286.443</ele>
        <time>2018-09-14T19:13:25Z</time>
      </trkpt>
      <trkpt lat="46.30001" lon="10.56311">
        <ele>2286.529</ele>
        <time>2018-09-14T19:13:45Z</time>
      </trkpt>
      <trkpt lat="46.30004" lon="10.56313">
        <ele>2286.9</ele>
        <time>2018-09-14T19:14:05Z</time>
      </trkpt>
      <trkpt lat="46.30006" lon="10.56315">
        <ele>2287.22</ele>
        <time>2018-09-14T19:14:25Z</time>
      </trkpt>
      <trkpt lat="46.30009" lon="10.56316">
        <ele>2287.408</ele>
        <time>2018-09-14T19:14:45Z</time>
      </trkpt>
      <trkpt lat="46.30012" lon="10.56318">
        <ele>2287.564</ele>
        <time>2018-09-14T19:15:05Z</time>
      </trkpt>
      <trkpt lat="46.30015" lon="10.56318">
        <ele>2287.68</ele>
        <time>2018-09-14T19:15:25Z</time>
      </trkpt>
      <trkpt lat="46.30018" lon="10.56319">
        <ele>2287.557</ele>
        <time>2018-09-14T19:15:45Z</time>
      </trkpt>
      <trkpt lat="46.30021" lon="10.56319">
        <ele>2287.47</ele>
        <time>2018-09-14T19:16:05Z</time>
      </trkpt>
      <trkpt lat="46.30023" lon="10.5632">
        <ele>2287.523</ele>
        <time>2018-09-14T19:16:25Z</time>
      </trkpt>
      <trkpt lat="46.30026" lon="10.56322">
        <ele>2287.816</ele>
        <time>2018-09-14T19:16:45Z</time>
      </trkpt>
      <trkpt lat="46.30029" lon="10.56324">
        <ele>2288.264</ele>
        <time>2018-09-14T19:17:05Z</time>
      </trkpt>
      <trkpt lat="46.30032" lon="10.56327">
        <ele>2288.781</ele>
        <time>2018-09-14T19:17:25Z</time>
      </trkpt>
      <trkpt lat="46.30035" lon="10.56329">
        <ele>2289.227</ele>
        <time>2018-09-14T19:17:45Z</time>
      </trkpt>
      <trkpt lat="46.30037" lon="10.56332">
        <ele>2289.768</ele>
        <time>2018-09-14T19:18:05Z</time>
      </trkpt>
      <trkpt lat="46.3004" lon="10.56334">
        <ele>2290.214</ele>
        <time>2018-09-14T19:18:25Z</time>
      </trkpt>
      <trkpt lat="46.30043" lon="10.56336">
        <ele>2290.608</ele>
        <time>2018-09-14T19:18:45Z</time>
      </trkpt>
      <trkpt lat="46.30046" lon="10.56338">
        <ele>2290.994</ele>
        <time>2018-09-14T19:19:05Z</time>
      </trkpt>
      <trkpt lat="46.30049" lon="10.5634">
        <ele>2291.21</ele>
        <time>2018-09-14T19:19:25Z</time>
      </trkpt>
      <trkpt lat="46.30052" lon="10.56342">
        <ele>2291.457</ele>
        <time>2018-09-14T19:19:45Z</time>
      </trkpt>
      <trkpt lat="46.30055" lon="10.56344">
        <ele>2291.75</ele>
        <time>2018-09-14T19:20:05Z</time>
      </trkpt>
      <trkpt lat="46.30058" lon="10.56346">
        <ele>2292.133</ele>
        <time>2018-09-14T19:20:25Z</time>
      </trkpt>
      <trkpt lat="46.30061" lon="10.56349">
        <ele>2292.696</ele>
        <time>2018-09-14T19:20:45Z</time>
      </trkpt>
      <trkpt lat="46.30063" lon="10.56351">
        <ele>2293.154</ele>
        <time>2018-09-14T19:21:05Z</time>
      </trkpt>
      <trkpt lat="46.30066" lon="10.56353">
        <ele>2293.691</ele>
        <time>2018-09-14T19:21:25Z</time>
      </trkpt>
      <trkpt lat="46.30067" lon="10.56356">
        <ele>2294.269</ele>
        <time>2018-09-14T19:21:45Z</time>
      </trkpt>
      <trkpt lat="46.30067" lon="10.56359">
        <ele>2295.004</ele>
        <time>2018-09-14T19:22:05Z</time>
      </trkpt>
      <trkpt lat="46.30065" lon="10.5636">
        <ele>2295.324</ele>
        <time>2018-09-14T19:22:25Z</time>
      </trkpt>
      <trkpt lat="46.30063" lon="10.56359">
        <ele>2295.208</ele>
        <time>2018-09-14T19:22:45Z</time>
      </trkpt>
      <trkpt lat="46.30062" lon="10.56359">
        <ele>2295.188</ele>
        <time>2018-09-14T19:23:05Z</time>
      </trkpt>
      <trkpt lat="46.30059" lon="10.56358">
        <ele>2294.944</ele>
        <time>2018-09-14T19:23:25Z</time>
      </trkpt>
      <trkpt lat="46.30057" lon="10.56357">
        <ele>2294.891</ele>
        <time>2018-09-14T19:23:45Z</time>
      </trkpt>
      <trkpt lat="46.30055" lon="10.56356">
        <ele>2294.884</ele>
        <time>2018-09-14T19:24:05Z</time>
      </trkpt>
      <trkpt lat="46.30053" lon="10.56356">
        <ele>2294.827</ele>
        <time>2018-09-14T19:24:25Z</time>
      </trkpt>
      <trkpt lat="46.30051" lon="10.56356">
        <ele>2294.95</ele>
        <time>2018-09-14T19:24:45Z</time>
      </trkpt>
      <trkpt lat="46.30048" lon="10.56355">
        <ele>2295.028</ele>
        <time>2018-09-14T19:25:05Z</time>
      </trkpt>
      <trkpt lat="46.30046" lon="10.56355">
        <ele>2295.235</ele>
        <time>2018-09-14T19:25:25Z</time>
      </trkpt>
      <trkpt lat="46.30043" lon="10.56355">
        <ele>2295.395</ele>
        <time>2018-09-14T19:25:45Z</time>
      </trkpt>
      <trkpt lat="46.30041" lon="10.56355">
        <ele>2295.549</ele>
        <time>2018-09-14T19:26:05Z</time>
      </trkpt>
      <trkpt lat="46.30038" lon="10.56355">
        <ele>2295.623</ele>
        <time>2018-09-14T19:26:25Z</time>
      </trkpt>
      <trkpt lat="46.30035" lon="10.56355">
        <ele>2295.808</ele>
        <time>2018-09-14T19:26:45Z</time>
      </trkpt>
      <trkpt lat="46.30033" lon="10.56355">
        <ele>2295.961</ele>
        <time>2018-09-14T19:27:05Z</time>
      </trkpt>
      <trkpt lat="46.3003" lon="10.56354">
        <ele>2296.147</ele>
        <time>2018-09-14T19:27:25Z</time>
      </trkpt>
      <trkpt lat="46.30027" lon="10.56354">
        <ele>2296.394</ele>
        <time>2018-09-14T19:27:45Z</time>
      </trkpt>
      <trkpt lat="46.30025" lon="10.56354">
        <ele>2296.887</ele>
        <time>2018-09-14T19:28:05Z</time>
      </trkpt>
      <trkpt lat="46.30022" lon="10.56354">
        <ele>2297.32</ele>
        <time>2018-09-14T19:28:25Z</time>
      </trkpt>
      <trkpt lat="46.30019" lon="10.56354">
        <ele>2297.933</ele>
        <time>2018-09-14T19:28:45Z</time>
      </trkpt>
      <trkpt lat="46.30016" lon="10.56354">
        <ele>2298.471</ele>
        <time>2018-09-14T19:29:05Z</time>
      </trkpt>
      <trkpt lat="46.30014" lon="10.56354">
        <ele>2299.068</ele>
        <time>2018-09-14T19:29:25Z</time>
      </trkpt>
      <trkpt lat="46.30011" lon="10.56354">
        <ele>2299.659</ele>
        <time>2018-09-14T19:29:45Z</time>
      </trkpt>
      <trkpt lat="46.30008" lon="10.56354">
        <ele>2300.203</ele>
        <time>2018-09-14T19:30:05Z</time>
      </trkpt>
      <trkpt lat="46.30005" lon="10.56354">
        <ele>2300.823</ele>
        <time>2018-09-14T19:30:25Z</time>
      </trkpt>
      <trkpt lat="46.30002" lon="10.56354">
        <ele>2301.308</ele>
        <time>2018-09-14T19:30:45Z</time>
      </trkpt>
      <trkpt lat="46.3" lon="10.56353">
        <ele>2301.497</ele>
        <time>2018-09-14T19:31:05Z</time>
      </trkpt>
      <trkpt lat="46.29998" lon="10.56352">
        <ele>2301.443</ele>
        <time>2018-09-14T19:31:25Z</time>
      </trkpt>
      <trkpt lat="46.29995" lon="10.5635">
        <ele>2301.19</ele>
        <time>2018-09-14T19:31:45Z</time>
      </trkpt>
      <trkpt lat="46.29994" lon="10.56347">
        <ele>2300.573</ele>
        <time>2018-09-14T19:32:05Z</time>
      </trkpt>
      <trkpt lat="46.29992" lon="10.56344">
        <ele>2299.776</ele>
        <time>2018-09-14T19:32:25Z</time>
      </trkpt>
      <trkpt lat="46.2999" lon="10.56341">
        <ele>2298.999</ele>
        <time>2018-09-14T19:32:45Z</time>
      </trkpt>
      <trkpt lat="46.29988" lon="10.56338">
        <ele>2298.167</ele>
        <time>2018-09-14T19:33:05Z</time>
      </trkpt>
      <trkpt lat="46.29987" lon="10.56336">
        <ele>2297.394</ele>
        <time>2018-09-14T19:33:25Z</time>
      </trkpt>
      <trkpt lat="46.29984" lon="10.56333">
        <ele>2296.853</ele>
        <time>2018-09-14T19:33:45Z</time>
      </trkpt>
      <trkpt lat="46.29982" lon="10.56331">
        <ele>2297.004</ele>
        <time>2018-09-14T19:34:05Z</time>
      </trkpt>
      <trkpt lat="46.29979" lon="10.5633">
        <ele>2297.314</ele>
        <time>2018-09-14T19:34:25Z</time>
      </trkpt>
      <trkpt lat="46.29976" lon="10.56329">
        <ele>2297.808</ele>
        <time>2018-09-14T19:34:45Z</time>
      </trkpt>
      <trkpt lat="46.29973" lon="10.56329">
        <ele>2298.447</ele>
        <time>2018-09-14T19:35:05Z</time>
      </trkpt>
      <trkpt lat="46.2997" lon="10.56329">
        <ele>2299.223</ele>
        <time>2018-09-14T19:35:25Z</time>
      </trkpt>
      <trkpt lat="46.29967" lon="10.5633">
        <ele>2300.19</ele>
        <time>2018-09-14T19:35:45Z</time>
      </trkpt>
      <trkpt lat="46.29965" lon="10.56332">
        <ele>2301.213</ele>
        <time>2018-09-14T19:36:05Z</time>
      </trkpt>
      <trkpt lat="46.29964" lon="10.56336">
        <ele>2302.736</ele>
        <time>2018-09-14T19:36:25Z</time>
      </trkpt>
      <trkpt lat="46.29962" lon="10.56339">
        <ele>2304.189</ele>
        <time>2018-09-14T19:36:45Z</time>
      </trkpt>
      <trkpt lat="46.29962" lon="10.56343">
        <ele>2305.627</ele>
        <time>2018-09-14T19:37:05Z</time>
      </trkpt>
      <trkpt lat="46.29961" lon="10.56347">
        <ele>2307.134</ele>
        <time>2018-09-14T19:37:25Z</time>
      </trkpt>
      <trkpt lat="46.2996" lon="10.56351">
        <ele>2308.524</ele>
        <time>2018-09-14T19:37:45Z</time>
      </trkpt>
      <trkpt lat="46.2996" lon="10.56355">
        <ele>2309.904</ele>
        <time>2018-09-14T19:38:05Z</time>
      </trkpt>
      <trkpt lat="46.29959" lon="10.56358">
        <ele>2311.014</ele>
        <time>2018-09-14T19:38:25Z</time>
      </trkpt>
      <trkpt lat="46.29958" lon="10.56361">
        <ele>2312.008</ele>
        <time>2018-09-14T19:38:45Z</time>
      </trkpt>
      <trkpt lat="46.29956" lon="10.56365">
        <ele>2313.184</ele>
        <time>2018-09-14T19:39:05Z</time>
      </trkpt>
      <trkpt lat="46.29954" lon="10.56368">
        <ele>2313.98</ele>
        <time>2018-09-14T19:39:25Z</time>
      </trkpt>
      <trkpt lat="46.29953" lon="10.5637">
        <ele>2314.697</ele>
        <time>2018-09-14T19:39:45Z</time>
      </trkpt>
      <trkpt lat="46.29951" lon="10.56373">
        <ele>2315.25</ele>
        <time>2018-09-14T19:40:05Z</time>
      </trkpt>
      <trkpt lat="46.29949" lon="10.56376">
        <ele>2315.753</ele>
        <time>2018-09-14T19:40:25Z</time>
      </trkpt>
      <trkpt lat="46.29947" lon="10.56379">
        <ele>2316.296</ele>
        <time>2018-09-14T19:40:45Z</time>
      </trkpt>
      <trkpt lat="46.29945" lon="10.56382">
        <ele>2316.654</ele>
        <time>2018-09-14T19:41:05Z</time>
      </trkpt>
      <trkpt lat="46.29944" lon="10.56385">
        <ele>2317.051</ele>
        <time>2018-09-14T19:41:25Z</time>
      </trkpt>
      <trkpt lat="46.29943" lon="10.56388">
        <ele>2317.733</ele>
        <time>2018-09-14T19:41:45Z</time>
      </trkpt>
      <trkpt lat="46.29941" lon="10.56391">
        <ele>2318.223</ele>
        <time>2018-09-14T19:42:05Z</time>
      </trkpt>
      <trkpt lat="46.2994" lon="10.56393">
        <ele>2318.715</ele>
        <time>2018-09-14T19:42:25Z</time>
      </trkpt>
      <trkpt lat="46.29938" lon="10.56395">
        <ele>2319.008</ele>
        <time>2018-09-14T19:42:45Z</time>
      </trkpt>
      <trkpt lat="46.29936" lon="10.56396">
        <ele>2319.265</ele>
        <time>2018-09-14T19:43:05Z</time>
      </trkpt>
      <trkpt lat="46.29932" lon="10.56394">
        <ele>2318.951</ele>
        <time>2018-09-14T19:43:25Z</time>
      </trkpt>
      <trkpt lat="46.29931" lon="10.56393">
        <ele>2318.758</ele>
        <time>2018-09-14T19:43:45Z</time>
      </trkpt>
      <trkpt lat="46.29929" lon="10.56392">
        <ele>2318.591</ele>
        <time>2018-09-14T19:44:05Z</time>
      </trkpt>
      <trkpt lat="46.29927" lon="10.56391">
        <ele>2318.344</ele>
        <time>2018-09-14T19:44:25Z</time>
      </trkpt>
      <trkpt lat="46.29927" lon="10.56391">
        <ele>2318.327</ele>
        <time>2018-09-14T19:44:45Z</time>
      </trkpt>
      <trkpt lat="46.29925" lon="10.5639">
        <ele>2318.255</ele>
        <time>2018-09-14T19:45:05Z</time>
      </trkpt>
      <trkpt lat="46.29923" lon="10.5639">
        <ele>2318.162</ele>
        <time>2018-09-14T19:45:25Z</time>
      </trkpt>
      <trkpt lat="46.29921" lon="10.5639">
        <ele>2318.285</ele>
        <time>2018-09-14T19:45:45Z</time>
      </trkpt>
      <trkpt lat="46.29919" lon="10.5639">
        <ele>2318.289</ele>
        <time>2018-09-14T19:46:05Z</time>
      </trkpt>
      <trkpt lat="46.29916" lon="10.56391">
        <ele>2318.417</ele>
        <time>2018-09-14T19:46:25Z</time>
      </trkpt>
      <trkpt lat="46.29914" lon="10.56392">
        <ele>2319.008</ele>
        <time>2018-09-14T19:46:45Z</time>
      </trkpt>
      <trkpt lat="46.29913" lon="10.56392">
        <ele>2319.07</ele>
        <time>2018-09-14T19:47:05Z</time>
      </trkpt>
      <trkpt lat="46.29895" lon="10.56398">
        <ele>2323.596</ele>
        <time>2018-09-14T19:47:25Z</time>
      </trkpt>
      <trkpt lat="46.29892" lon="10.56398">
        <ele>2324.093</ele>
        <time>2018-09-14T19:47:45Z</time>
      </trkpt>
      <trkpt lat="46.2989" lon="10.56399">
        <ele>2324.686</ele>
        <time>2018-09-14T19:48:05Z</time>
      </trkpt>
      <trkpt lat="46.29887" lon="10.56399">
        <ele>2325.159</ele>
        <time>2018-09-14T19:48:25Z</time>
      </trkpt>
      <trkpt lat="46.29885" lon="10.564">
        <ele>2325.562</ele>
        <time>2018-09-14T19:48:45Z</time>
      </trkpt>
      <trkpt lat="46.29882" lon="10.56401">
        <ele>2325.93</ele>
        <time>2018-09-14T19:49:05Z</time>
      </trkpt>
      <trkpt lat="46.2988" lon="10.56401">
        <ele>2326.477</ele>
        <time>2018-09-14T19:49:25Z</time>
      </trkpt>
      <trkpt lat="46.29877" lon="10.56402">
        <ele>2326.922</ele>
        <time>2018-09-14T19:49:45Z</time>
      </trkpt>
      <trkpt lat="46.29875" lon="10.56404">
        <ele>2327.462</ele>
        <time>2018-09-14T19:50:05Z</time>
      </trkpt>
      <trkpt lat="46.29872" lon="10.56406">
        <ele>2328.008</ele>
        <time>2018-09-14T19:50:25Z</time>
      </trkpt>
      <trkpt lat="46.2987" lon="10.56408">
        <ele>2328.708</ele>
        <time>2018-09-14T19:50:45Z</time>
      </trkpt>
      <trkpt lat="46.29868" lon="10.56411">
        <ele>2329.364</ele>
        <time>2018-09-14T19:51:05Z</time>
      </trkpt>
      <trkpt lat="46.29866" lon="10.56414">
        <ele>2329.99</ele>
        <time>2018-09-14T19:51:25Z</time>
      </trkpt>
      <trkpt lat="46.29864" lon="10.56417">
        <ele>2330.697</ele>
        <time>2018-09-14T19:51:45Z</time>
      </trkpt>
      <trkpt lat="46.29862" lon="10.5642">
        <ele>2331.31</ele>
        <time>2018-09-14T19:52:05Z</time>
      </trkpt>
      <trkpt lat="46.2986" lon="10.56423">
        <ele>2332.023</ele>
        <time>2018-09-14T19:52:25Z</time>
      </trkpt>
      <trkpt lat="46.29858" lon="10.56427">
        <ele>2332.556</ele>
        <time>2018-09-14T19:52:45Z</time>
      </trkpt>
      <trkpt lat="46.29856" lon="10.5643">
        <ele>2333.154</ele>
        <time>2018-09-14T19:53:05Z</time>
      </trkpt>
      <trkpt lat="46.29854" lon="10.56432">
        <ele>2333.521</ele>
        <time>2018-09-14T19:53:25Z</time>
      </trkpt>
      <trkpt lat="46.29853" lon="10.56435">
        <ele>2334.057</ele>
        <time>2018-09-14T19:53:45Z</time>
      </trkpt>
      <trkpt lat="46.29851" lon="10.56438">
        <ele>2334.4</ele>
        <time>2018-09-14T19:54:05Z</time>
      </trkpt>
      <trkpt lat="46.2985" lon="10.56441">
        <ele>2334.92</ele>
        <time>2018-09-14T19:54:25Z</time>
      </trkpt>
      <trkpt lat="46.29849" lon="10.56444">
        <ele>2335.308</ele>
        <time>2018-09-14T19:54:45Z</time>
      </trkpt>
      <trkpt lat="46.29848" lon="10.56448">
        <ele>2335.887</ele>
        <time>2018-09-14T19:55:05Z</time>
      </trkpt>
      <trkpt lat="46.29847" lon="10.56452">
        <ele>2336.293</ele>
        <time>2018-09-14T19:55:25Z</time>
      </trkpt>
      <trkpt lat="46.29847" lon="10.56456">
        <ele>2336.75</ele>
        <time>2018-09-14T19:55:45Z</time>
      </trkpt>
      <trkpt lat="46.29847" lon="10.56459">
        <ele>2337.173</ele>
        <time>2018-09-14T19:56:05Z</time>
      </trkpt>
      <trkpt lat="46.29847" lon="10.56463">
        <ele>2337.596</ele>
        <time>2018-09-14T19:56:25Z</time>
      </trkpt>
      <trkpt lat="46.29847" lon="10.56467">
        <ele>2337.839</ele>
        <time>2018-09-14T19:56:45Z</time>
      </trkpt>
      <trkpt lat="46.29848" lon="10.5647">
        <ele>2338.247</ele>
        <time>2018-09-14T19:57:05Z</time>
      </trkpt>
      <trkpt lat="46.29848" lon="10.56474">
        <ele>2338.614</ele>
        <time>2018-09-14T19:57:25Z</time>
      </trkpt>
      <trkpt lat="46.29849" lon="10.56477">
        <ele>2339.141</ele>
        <time>2018-09-14T19:57:45Z</time>
      </trkpt>
      <trkpt lat="46.29849" lon="10.56481">
        <ele>2339.681</ele>
        <time>2018-09-14T19:58:05Z</time>
      </trkpt>
      <trkpt lat="46.2985" lon="10.56484">
        <ele>2340.109</ele>
        <time>2018-09-14T19:58:25Z</time>
      </trkpt>
      <trkpt lat="46.2985" lon="10.56488">
        <ele>2340.608</ele>
        <time>2018-09-14T19:58:45Z</time>
      </trkpt>
      <trkpt lat="46.2985" lon="10.56491">
        <ele>2341.166</ele>
        <time>2018-09-14T19:59:05Z</time>
      </trkpt>
      <trkpt lat="46.2985" lon="10.56495">
        <ele>2341.642</ele>
        <time>2018-09-14T19:59:25Z</time>
      </trkpt>
      <trkpt lat="46.29849" lon="10.56497">
        <ele>2342.089</ele>
        <time>2018-09-14T19:59:45Z</time>
      </trkpt>
      <trkpt lat="46.29848" lon="10.565">
        <ele>2342.432</ele>
        <time>2018-09-14T20:00:05Z</time>
      </trkpt>
      <trkpt lat="46.29846" lon="10.56502">
        <ele>2342.725</ele>
        <time>2018-09-14T20:00:25Z</time>
      </trkpt>
      <trkpt lat="46.29844" lon="10.56503">
        <ele>2342.968</ele>
        <time>2018-09-14T20:00:45Z</time>
      </trkpt>
      <trkpt lat="46.29841" lon="10.56505">
        <ele>2343.286</ele>
        <time>2018-09-14T20:01:05Z</time>
      </trkpt>
      <trkpt lat="46.29839" lon="10.56507">
        <ele>2343.543</ele>
        <time>2018-09-14T20:01:25Z</time>
      </trkpt>
      <trkpt lat="46.29837" lon="10.56508">
        <ele>2343.797</ele>
        <time>2018-09-14T20:01:45Z</time>
      </trkpt>
      <trkpt lat="46.29835" lon="10.5651">
        <ele>2344.023</ele>
        <time>2018-09-14T20:02:05Z</time>
      </trkpt>
      <trkpt lat="46.29833" lon="10.56512">
        <ele>2344.225</ele>
        <time>2018-09-14T20:02:25Z</time>
      </trkpt>
      <trkpt lat="46.29831" lon="10.56514">
        <ele>2344.308</ele>
        <time>2018-09-14T20:02:45Z</time>
      </trkpt>
      <trkpt lat="46.29829" lon="10.56515">
        <ele>2344.481</ele>
        <time>2018-09-14T20:03:05Z</time>
      </trkpt>
      <trkpt lat="46.29827" lon="10.56517">
        <ele>2344.677</ele>
        <time>2018-09-14T20:03:25Z</time>
      </trkpt>
      <trkpt lat="46.29825" lon="10.56519">
        <ele>2344.784</ele>
        <time>2018-09-14T20:03:45Z</time>
      </trkpt>
      <trkpt lat="46.29823" lon="10.56521">
        <ele>2344.977</ele>
        <time>2018-09-14T20:04:05Z</time>
      </trkpt>
      <trkpt lat="46.29821" lon="10.56523">
        <ele>2345.06</ele>
        <time>2018-09-14T20:04:25Z</time>
      </trkpt>
      <trkpt lat="46.29819" lon="10.56525">
        <ele>2345.213</ele>
        <time>2018-09-14T20:04:45Z</time>
      </trkpt>
      <trkpt lat="46.29817" lon="10.56527">
        <ele>2345.331</ele>
        <time>2018-09-14T20:05:05Z</time>
      </trkpt>
      <trkpt lat="46.29815" lon="10.5653">
        <ele>2345.628</ele>
        <time>2018-09-14T20:05:25Z</time>
      </trkpt>
      <trkpt lat="46.29813" lon="10.56532">
        <ele>2345.862</ele>
        <time>2018-09-14T20:05:45Z</time>
      </trkpt>
      <trkpt lat="46.29811" lon="10.56534">
        <ele>2346.183</ele>
        <time>2018-09-14T20:06:05Z</time>
      </trkpt>
      <trkpt lat="46.29809" lon="10.56537">
        <ele>2346.311</ele>
        <time>2018-09-14T20:06:25Z</time>
      </trkpt>
      <trkpt lat="46.29807" lon="10.56539">
        <ele>2346.608</ele>
        <time>2018-09-14T20:06:45Z</time>
      </trkpt>
      <trkpt lat="46.29805" lon="10.56541">
        <ele>2346.948</ele>
        <time>2018-09-14T20:07:05Z</time>
      </trkpt>
      <trkpt lat="46.29804" lon="10.56545">
        <ele>2347.514</ele>
        <time>2018-09-14T20:07:25Z</time>
      </trkpt>
      <trkpt lat="46.29804" lon="10.5655">
        <ele>2348.281</ele>
        <time>2018-09-14T20:07:45Z</time>
      </trkpt>
      <trkpt lat="46.29806" lon="10.56553">
        <ele>2348.634</ele>
        <time>2018-09-14T20:08:05Z</time>
      </trkpt>
      <trkpt lat="46.29808" lon="10.56555">
        <ele>2349.017</ele>
        <time>2018-09-14T20:08:25Z</time>
      </trkpt>
      <trkpt lat="46.2981" lon="10.56557">
        <ele>2349.37</ele>
        <time>2018-09-14T20:08:45Z</time>
      </trkpt>
      <trkpt lat="46.29812" lon="10.56558">
        <ele>2349.598</ele>
        <time>2018-09-14T20:09:05Z</time>
      </trkpt>
      <trkpt lat="46.29815" lon="10.56559">
        <ele>2349.795</ele>
        <time>2018-09-14T20:09:25Z</time>
      </trkpt>
      <trkpt lat="46.29817" lon="10.5656">
        <ele>2350.023</ele>
        <time>2018-09-14T20:09:45Z</time>
      </trkpt>
      <trkpt lat="46.29819" lon="10.56561">
        <ele>2350.283</ele>
        <time>2018-09-14T20:10:05Z</time>
      </trkpt>
      <trkpt lat="46.29821" lon="10.56562">
        <ele>2350.411</ele>
        <time>2018-09-14T20:10:25Z</time>
      </trkpt>
      <trkpt lat="46.29824" lon="10.56563">
        <ele>2350.708</ele>
        <time>2018-09-14T20:10:45Z</time>
      </trkpt>
      <trkpt lat="46.29826" lon="10.56564">
        <ele>2350.994</ele>
        <time>2018-09-14T20:11:05Z</time>
      </trkpt>
      <trkpt lat="46.29862" lon="10.56587">
        <ele>2354.64</ele>
        <time>2018-09-14T20:11:25Z</time>
      </trkpt>
      <trkpt lat="46.29878" lon="10.56597">
        <ele>2357.117</ele>
        <time>2018-09-14T20:11:45Z</time>
      </trkpt>
      <trkpt lat="46.29919" lon="10.56623">
        <ele>2365.46</ele>
        <time>2018-09-14T20:12:05Z</time>
      </trkpt>
      <trkpt lat="46.2992" lon="10.56623">
        <ele>2365.633</ele>
        <time>2018-09-14T20:12:25Z</time>
      </trkpt>
      <trkpt lat="46.29922" lon="10.56625">
        <ele>2366.296</ele>
        <time>2018-09-14T20:12:45Z</time>
      </trkpt>
      <trkpt lat="46.29924" lon="10.56627">
        <ele>2366.874</ele>
        <time>2018-09-14T20:13:05Z</time>
      </trkpt>
      <trkpt lat="46.29926" lon="10.56628">
        <ele>2367.521</ele>
        <time>2018-09-14T20:13:25Z</time>
      </trkpt>
      <trkpt lat="46.29928" lon="10.5663">
        <ele>2368.264</ele>
        <time>2018-09-14T20:13:45Z</time>
      </trkpt>
      <trkpt lat="46.29929" lon="10.56631">
        <ele>2368.306</ele>
        <time>2018-09-14T20:14:05Z</time>
      </trkpt>
      <trkpt lat="46.2993" lon="10.56632">
        <ele>2368.916</ele>
        <time>2018-09-14T20:14:25Z</time>
      </trkpt>
      <trkpt lat="46.29933" lon="10.56634">
        <ele>2369.708</ele>
        <time>2018-09-14T20:14:45Z</time>
      </trkpt>
      <trkpt lat="46.29935" lon="10.56635">
        <ele>2370.438</ele>
        <time>2018-09-14T20:15:05Z</time>
      </trkpt>
      <trkpt lat="46.29938" lon="10.56636">
        <ele>2371.164</ele>
        <time>2018-09-14T20:15:25Z</time>
      </trkpt>
      <trkpt lat="46.29941" lon="10.56637">
        <ele>2371.861</ele>
        <time>2018-09-14T20:15:45Z</time>
      </trkpt>
      <trkpt lat="46.29943" lon="10.56638">
        <ele>2372.474</ele>
        <time>2018-09-14T20:16:05Z</time>
      </trkpt>
      <trkpt lat="46.29946" lon="10.56639">
        <ele>2372.717</ele>
        <time>2018-09-14T20:16:25Z</time>
      </trkpt>
      <trkpt lat="46.29948" lon="10.5664">
        <ele>2372.65</ele>
        <time>2018-09-14T20:16:45Z</time>
      </trkpt>
      <trkpt lat="46.29949" lon="10.56641">
        <ele>2372.558</ele>
        <time>2018-09-14T20:17:05Z</time>
      </trkpt>
      <trkpt lat="46.29951" lon="10.56643">
        <ele>2372.645</ele>
        <time>2018-09-14T20:17:25Z</time>
      </trkpt>
      <trkpt lat="46.29953" lon="10.56646">
        <ele>2372.961</ele>
        <time>2018-09-14T20:17:45Z</time>
      </trkpt>
      <trkpt lat="46.29954" lon="10.56649">
        <ele>2373.321</ele>
        <time>2018-09-14T20:18:05Z</time>
      </trkpt>
      <trkpt lat="46.29954" lon="10.56652">
        <ele>2373.813</ele>
        <time>2018-09-14T20:18:25Z</time>
      </trkpt>
      <trkpt lat="46.29955" lon="10.56655">
        <ele>2374.408</ele>
        <time>2018-09-14T20:18:45Z</time>
      </trkpt>
      <trkpt lat="46.29955" lon="10.56658">
        <ele>2375.038</ele>
        <time>2018-09-14T20:19:05Z</time>
      </trkpt>
      <trkpt lat="46.29955" lon="10.56661">
        <ele>2375.794</ele>
        <time>2018-09-14T20:19:25Z</time>
      </trkpt>
      <trkpt lat="46.29954" lon="10.56665">
        <ele>2376.511</ele>
        <time>2018-09-14T20:19:45Z</time>
      </trkpt>
      <trkpt lat="46.29954" lon="10.56668">
        <ele>2377.114</ele>
        <time>2018-09-14T20:20:05Z</time>
      </trkpt>
      <trkpt lat="46.29953" lon="10.56671">
        <ele>2377.647</ele>
        <time>2018-09-14T20:20:25Z</time>
      </trkpt>
      <trkpt lat="46.29952" lon="10.56674">
        <ele>2378.28</ele>
        <time>2018-09-14T20:20:45Z</time>
      </trkpt>
      <trkpt lat="46.29951" lon="10.56678">
        <ele>2378.728</ele>
        <time>2018-09-14T20:21:05Z</time>
      </trkpt>
      <trkpt lat="46.29951" lon="10.56681">
        <ele>2379.255</ele>
        <time>2018-09-14T20:21:25Z</time>
      </trkpt>
      <trkpt lat="46.2995" lon="10.56685">
        <ele>2379.891</ele>
        <time>2018-09-14T20:21:45Z</time>
      </trkpt>
      <trkpt lat="46.29949" lon="10.56688">
        <ele>2380.481</ele>
        <time>2018-09-14T20:22:05Z</time>
      </trkpt>
      <trkpt lat="46.29948" lon="10.56691">
        <ele>2381.019</ele>
        <time>2018-09-14T20:22:25Z</time>
      </trkpt>
      <trkpt lat="46.29947" lon="10.56695">
        <ele>2381.608</ele>
        <time>2018-09-14T20:22:45Z</time>
      </trkpt>
      <trkpt lat="46.29946" lon="10.56698">
        <ele>2382.031</ele>
        <time>2018-09-14T20:23:05Z</time>
      </trkpt>
      <trkpt lat="46.29945" lon="10.567">
        <ele>2382.567</ele>
        <time>2018-09-14T20:23:25Z</time>
      </trkpt>
      <trkpt lat="46.29943" lon="10.56702">
        <ele>2382.784</ele>
        <time>2018-09-14T20:23:45Z</time>
      </trkpt>
      <trkpt lat="46.29941" lon="10.56704">
        <ele>2382.677</ele>
        <time>2018-09-14T20:24:05Z</time>
      </trkpt>
      <trkpt lat="46.29939" lon="10.56705">
        <ele>2382.55</ele>
        <time>2018-09-14T20:24:25Z</time>
      </trkpt>
      <trkpt lat="46.29937" lon="10.56707">
        <ele>2382.343</ele>
        <time>2018-09-14T20:24:45Z</time>
      </trkpt>
      <trkpt lat="46.29935" lon="10.56708">
        <ele>2382.391</ele>
        <time>2018-09-14T20:25:05Z</time>
      </trkpt>
      <trkpt lat="46.29933" lon="10.56711">
        <ele>2382.338</ele>
        <time>2018-09-14T20:25:25Z</time>
      </trkpt>
      <trkpt lat="46.29932" lon="10.56713">
        <ele>2382.565</ele>
        <time>2018-09-14T20:25:45Z</time>
      </trkpt>
      <trkpt lat="46.2993" lon="10.56716">
        <ele>2382.668</ele>
        <time>2018-09-14T20:26:05Z</time>
      </trkpt>
      <trkpt lat="46.29929" lon="10.56719">
        <ele>2382.914</ele>
        <time>2018-09-14T20:26:25Z</time>
      </trkpt>
      <trkpt lat="46.29928" lon="10.56722">
        <ele>2383.108</ele>
        <time>2018-09-14T20:26:45Z</time>
      </trkpt>
      <trkpt lat="46.29927" lon="10.56725">
        <ele>2383.388</ele>
        <time>2018-09-14T20:27:05Z</time>
      </trkpt>
      <trkpt lat="46.29926" lon="10.56728">
        <ele>2383.594</ele>
        <time>2018-09-14T20:27:25Z</time>
      </trkpt>
      <trkpt lat="46.29924" lon="10.56731">
        <ele>2383.811</ele>
        <time>2018-09-14T20:27:45Z</time>
      </trkpt>
      <trkpt lat="46.29923" lon="10.56734">
        <ele>2384.084</ele>
        <time>2018-09-14T20:28:05Z</time>
      </trkpt>
      <trkpt lat="46.29922" lon="10.56737">
        <ele>2384.217</ele>
        <time>2018-09-14T20:28:25Z</time>
      </trkpt>
      <trkpt lat="46.29921" lon="10.5674">
        <ele>2384.57</ele>
        <time>2018-09-14T20:28:45Z</time>
      </trkpt>
      <trkpt lat="46.29921" lon="10.56744">
        <ele>2384.838</ele>
        <time>2018-09-14T20:29:05Z</time>
      </trkpt>
      <trkpt lat="46.2992" lon="10.56747">
        <ele>2385.135</ele>
        <time>2018-09-14T20:29:25Z</time>
      </trkpt>
      <trkpt lat="46.2992" lon="10.56751">
        <ele>2385.566</ele>
        <time>2018-09-14T20:29:45Z</time>
      </trkpt>
      <trkpt lat="46.29919" lon="10.56754">
        <ele>2385.929</ele>
        <time>2018-09-14T20:30:05Z</time>
      </trkpt>
      <trkpt lat="46.29919" lon="10.56758">
        <ele>2386.421</ele>
        <time>2018-09-14T20:30:25Z</time>
      </trkpt>
      <trkpt lat="46.29919" lon="10.56761">
        <ele>2386.908</ele>
        <time>2018-09-14T20:30:45Z</time>
      </trkpt>
      <trkpt lat="46.29918" lon="10.56765">
        <ele>2387.358</ele>
        <time>2018-09-14T20:31:05Z</time>
      </trkpt>
      <trkpt lat="46.29918" lon="10.56768">
        <ele>2387.894</ele>
        <time>2018-09-14T20:31:25Z</time>
      </trkpt>
      <trkpt lat="46.29918" lon="10.56772">
        <ele>2388.371</ele>
        <time>2018-09-14T20:31:45Z</time>
      </trkpt>
      <trkpt lat="46.29919" lon="10.56775">
        <ele>2388.944</ele>
        <time>2018-09-14T20:32:05Z</time>
      </trkpt>
      <trkpt lat="46.29919" lon="10.56779">
        <ele>2389.497</ele>
        <time>2018-09-14T20:32:25Z</time>
      </trkpt>
      <trkpt lat="46.29919" lon="10.56782">
        <ele>2390.02</ele>
        <time>2018-09-14T20:32:45Z</time>
      </trkpt>
      <trkpt lat="46.2992" lon="10.56786">
        <ele>2390.698</ele>
        <time>2018-09-14T20:33:05Z</time>
      </trkpt>
      <trkpt lat="46.29922" lon="10.56789">
        <ele>2391.325</ele>
        <time>2018-09-14T20:33:25Z</time>
      </trkpt>
      <trkpt lat="46.29923" lon="10.56791">
        <ele>2391.912</ele>
        <time>2018-09-14T20:33:45Z</time>
      </trkpt>
      <trkpt lat="46.29925" lon="10.56794">
        <ele>2392.532</ele>
        <time>2018-09-14T20:34:05Z</time>
      </trkpt>
      <trkpt lat="46.29927" lon="10.56796">
        <ele>2393.105</ele>
        <time>2018-09-14T20:34:25Z</time>
      </trkpt>
      <trkpt lat="46.29929" lon="10.56798">
        <ele>2393.708</ele>
        <time>2018-09-14T20:34:45Z</time>
      </trkpt>
      <trkpt lat="46.29931" lon="10.568">
        <ele>2394.213</ele>
        <time>2018-09-14T20:35:05Z</time>
      </trkpt>
      <trkpt lat="46.29941" lon="10.56808">
        <ele>2396.969</ele>
        <time>2018-09-14T20:35:25Z</time>
      </trkpt>
      <trkpt lat="46.29942" lon="10.56808">
        <ele>2397.156</ele>
        <time>2018-09-14T20:35:45Z</time>
      </trkpt>
      <trkpt lat="46.29944" lon="10.56809">
        <ele>2397.779</ele>
        <time>2018-09-14T20:36:05Z</time>
      </trkpt>
      <trkpt lat="46.29946" lon="10.5681">
        <ele>2397.912</ele>
        <time>2018-09-14T20:36:25Z</time>
      </trkpt>
      <trkpt lat="46.29949" lon="10.56811">
        <ele>2398.295</ele>
        <time>2018-09-14T20:36:45Z</time>
      </trkpt>
      <trkpt lat="46.29953" lon="10.56811">
        <ele>2398.363</ele>
        <time>2018-09-14T20:37:05Z</time>
      </trkpt>
      <trkpt lat="46.29964" lon="10.56814">
        <ele>2399.32</ele>
        <time>2018-09-14T20:37:25Z</time>
      </trkpt>
      <trkpt lat="46.29966" lon="10.56815">
        <ele>2399.645</ele>
        <time>2018-09-14T20:37:45Z</time>
      </trkpt>
      <trkpt lat="46.29968" lon="10.56816">
        <ele>2399.947</ele>
        <time>2018-09-14T20:38:05Z</time>
      </trkpt>
      <trkpt lat="46.29969" lon="10.56817">
        <ele>2400.211</ele>
        <time>2018-09-14T20:38:25Z</time>
      </trkpt>
      <trkpt lat="46.29971" lon="10.56818">
        <ele>2400.508</ele>
        <time>2018-09-14T20:38:45Z</time>
      </trkpt>
      <trkpt lat="46.29973" lon="10.56819">
        <ele>2400.846</ele>
        <time>2018-09-14T20:39:05Z</time>
      </trkpt>
      <trkpt lat="46.29975" lon="10.5682">
        <ele>2401.312</ele>
        <time>2018-09-14T20:39:25Z</time>
      </trkpt>
      <trkpt lat="46.29977" lon="10.56821">
        <ele>2401.719</ele>
        <time>2018-09-14T20:39:45Z</time>
      </trkpt>
      <trkpt lat="46.29979" lon="10.56822">
        <ele>2402.192</ele>
        <time>2018-09-14T20:40:05Z</time>
      </trkpt>
      <trkpt lat="46.29981" lon="10.56822">
        <ele>2402.495</ele>
        <time>2018-09-14T20:40:25Z</time>
      </trkpt>
      <trkpt lat="46.29983" lon="10.56822">
        <ele>2402.718</ele>
        <time>2018-09-14T20:40:45Z</time>
      </trkpt>
      <trkpt lat="46.29985" lon="10.56822">
        <ele>2402.846</ele>
        <time>2018-09-14T20:41:05Z</time>
      </trkpt>
      <trkpt lat="46.29987" lon="10.56822">
        <ele>2402.993</ele>
        <time>2018-09-14T20:41:25Z</time>
      </trkpt>
      <trkpt lat="46.29989" lon="10.56822">
        <ele>2403.047</ele>
        <time>2018-09-14T20:41:45Z</time>
      </trkpt>
      <trkpt lat="46.29991" lon="10.56821">
        <ele>2403.029</ele>
        <time>2018-09-14T20:42:05Z</time>
      </trkpt>
      <trkpt lat="46.29993" lon="10.56821">
        <ele>2402.821</ele>
        <time>2018-09-14T20:42:25Z</time>
      </trkpt>
      <trkpt lat="46.29995" lon="10.5682">
        <ele>2402.608</ele>
        <time>2018-09-14T20:42:45Z</time>
      </trkpt>
      <trkpt lat="46.29997" lon="10.56819">
        <ele>2402.336</ele>
        <time>2018-09-14T20:43:05Z</time>
      </trkpt>
      <trkpt lat="46.29999" lon="10.56817">
        <ele>2402.052</ele>
        <time>2018-09-14T20:43:25Z</time>
      </trkpt>
      <trkpt lat="46.30001" lon="10.56816">
        <ele>2401.899</ele>
        <time>2018-09-14T20:43:45Z</time>
      </trkpt>
      <trkpt lat="46.30003" lon="10.56815">
        <ele>2402.072</ele>
        <time>2018-09-14T20:44:05Z</time>
      </trkpt>
      <trkpt lat="46.30005" lon="10.56814">
        <ele>2402.285</ele>
        <time>2018-09-14T20:44:25Z</time>
      </trkpt>
      <trkpt lat="46.30007" lon="10.56813">
        <ele>2402.598</ele>
        <time>2018-09-14T20:44:45Z</time>
      </trkpt>
      <trkpt lat="46.3001" lon="10.56812">
        <ele>2403.076</ele>
        <time>2018-09-14T20:45:05Z</time>
      </trkpt>
      <trkpt lat="46.30012" lon="10.56811">
        <ele>2403.643</ele>
        <time>2018-09-14T20:45:25Z</time>
      </trkpt>
      <trkpt lat="46.30015" lon="10.56811">
        <ele>2404.452</ele>
        <time>2018-09-14T20:45:45Z</time>
      </trkpt>
      <trkpt lat="46.30017" lon="10.56811">
        <ele>2405.353</ele>
        <time>2018-09-14T20:46:05Z</time>
      </trkpt>
      <trkpt lat="46.3002" lon="10.56811">
        <ele>2406.308</ele>
        <time>2018-09-14T20:46:25Z</time>
      </trkpt>
      <trkpt lat="46.30022" lon="10.56812">
        <ele>2407.308</ele>
        <time>2018-09-14T20:46:45Z</time>
      </trkpt>
      <trkpt lat="46.30025" lon="10.56812">
        <ele>2408.367</ele>
        <time>2018-09-14T20:47:05Z</time>
      </trkpt>
      <trkpt lat="46.30027" lon="10.56813">
        <ele>2409.323</ele>
        <time>2018-09-14T20:47:25Z</time>
      </trkpt>
      <trkpt lat="46.3003" lon="10.56813">
        <ele>2409.98</ele>
        <time>2018-09-14T20:47:45Z</time>
      </trkpt>
      <trkpt lat="46.30032" lon="10.56814">
        <ele>2410.533</ele>
        <time>2018-09-14T20:48:05Z</time>
      </trkpt>
      <trkpt lat="46.30034" lon="10.56815">
        <ele>2411.266</ele>
        <time>2018-09-14T20:48:25Z</time>
      </trkpt>
      <trkpt lat="46.30037" lon="10.56817">
        <ele>2411.899</ele>
        <time>2018-09-14T20:48:45Z</time>
      </trkpt>
      <trkpt lat="46.30039" lon="10.56817">
        <ele>2412.367</ele>
        <time>2018-09-14T20:49:05Z</time>
      </trkpt>
      <trkpt lat="46.30042" lon="10.56818">
        <ele>2412.764</ele>
        <time>2018-09-14T20:49:25Z</time>
      </trkpt>
      <trkpt lat="46.30044" lon="10.56818">
        <ele>2412.922</ele>
        <time>2018-09-14T20:49:45Z</time>
      </trkpt>
      <trkpt lat="46.30047" lon="10.56818">
        <ele>2413.262</ele>
        <time>2018-09-14T20:50:05Z</time>
      </trkpt>
      <trkpt lat="46.30049" lon="10.56818">
        <ele>2413.508</ele>
        <time>2018-09-14T20:50:25Z</time>
      </trkpt>
      <trkpt lat="46.30051" lon="10.56819">
        <ele>2413.808</ele>
        <time>2018-09-14T20:50:45Z</time>
      </trkpt>
      <trkpt lat="46.30054" lon="10.56819">
        <ele>2414.284</ele>
        <time>2018-09-14T20:51:05Z</time>
      </trkpt>
      <trkpt lat="46.30056" lon="10.5682">
        <ele>2414.61</ele>
        <time>2018-09-14T20:51:25Z</time>
      </trkpt>
      <trkpt lat="46.30058" lon="10.56821">
        <ele>2415.067</ele>
        <time>2018-09-14T20:51:45Z</time>
      </trkpt>
      <trkpt lat="46.3006" lon="10.56822">
        <ele>2415.43</ele>
        <time>2018-09-14T20:52:05Z</time>
      </trkpt>
      <trkpt lat="46.30062" lon="10.56823">
        <ele>2415.993</ele>
        <time>2018-09-14T20:52:25Z</time>
      </trkpt>
      <trkpt lat="46.30065" lon="10.56825">
        <ele>2416.496</ele>
        <time>2018-09-14T20:52:45Z</time>
      </trkpt>
      <trkpt lat="46.30065" lon="10.56825">
        <ele>2416.494</ele>
        <time>2018-09-14T20:53:05Z</time>
      </trkpt>
      <trkpt lat="46.30086" lon="10.5682">
        <ele>2416.611</ele>
        <time>2018-09-14T20:53:25Z</time>
      </trkpt>
      <trkpt lat="46.30097" lon="10.5682">
        <ele>2417.039</ele>
        <time>2018-09-14T20:53:45Z</time>
      </trkpt>
      <trkpt lat="46.30121" lon="10.56823">
        <ele>2419.001</ele>
        <time>2018-09-14T20:54:05Z</time>
      </trkpt>
      <trkpt lat="46.30135" lon="10.5683">
        <ele>2421.221</ele>
        <time>2018-09-14T20:54:25Z</time>
      </trkpt>
      <trkpt lat="46.30149" lon="10.56834">
        <ele>2422.908</ele>
        <time>2018-09-14T20:54:45Z</time>
      </trkpt>
      <trkpt lat="46.30174" lon="10.56831">
        <ele>2424.365</ele>
        <time>2018-09-14T20:55:05Z</time>
      </trkpt>
      <trkpt lat="46.30203" lon="10.56816">
        <ele>2425.541</ele>
        <time>2018-09-14T20:55:25Z</time>
      </trkpt>
      <trkpt lat="46.30215" lon="10.56812">
        <ele>2425.998</ele>
        <time>2018-09-14T20:55:45Z</time>
      </trkpt>
      <trkpt lat="46.3023" lon="10.56813">
        <ele>2428.051</ele>
        <time>2018-09-14T20:56:05Z</time>
      </trkpt>
      <trkpt lat="46.3024" lon="10.56814">
        <ele>2429.424</ele>
        <time>2018-09-14T20:56:25Z</time>
      </trkpt>
      <trkpt lat="46.30255" lon="10.56806">
        <ele>2428.547</ele>
        <time>2018-09-14T20:56:45Z</time>
      </trkpt>
      <trkpt lat="46.30268" lon="10.56803">
        <ele>2432.575</ele>
        <time>2018-09-14T20:57:05Z</time>
      </trkpt>
      <trkpt lat="46.3028" lon="10.56797">
        <ele>2434.762</ele>
        <time>2018-09-14T20:57:25Z</time>
      </trkpt>
      <trkpt lat="46.30289" lon="10.56786">
        <ele>2434.758</ele>
        <time>2018-09-14T20:57:45Z</time>
      </trkpt>
      <trkpt lat="46.30296" lon="10.56762">
        <ele>2433.052</ele>
        <time>2018-09-14T20:58:05Z</time>
      </trkpt>
      <trkpt lat="46.30303" lon="10.5674">
        <ele>2433.717</ele>
        <time>2018-09-14T20:58:25Z</time>
      </trkpt>
      <trkpt lat="46.30312" lon="10.56724">
        <ele>2435.808</ele>
        <time>2018-09-14T20:58:45Z</time>
      </trkpt>
      <trkpt lat="46.30317" lon="10.56701">
        <ele>2436.687</ele>
        <time>2018-09-14T20:59:05Z</time>
      </trkpt>
      <trkpt lat="46.30327" lon="10.56689">
        <ele>2438.143</ele>
        <time>2018-09-14T20:59:25Z</time>
      </trkpt>
      <trkpt lat="46.30337" lon="10.5668">
        <ele>2439.67</ele>
        <time>2018-09-14T20:59:45Z</time>
      </trkpt>
      <trkpt lat="46.30347" lon="10.56668">
        <ele>2441.053</ele>
        <time>2018-09-14T21:00:05Z</time>
      </trkpt>
      <trkpt lat="46.30356" lon="10.56667">
        <ele>2442.236</ele>
        <time>2018-09-14T21:00:25Z</time>
      </trkpt>
      <trkpt lat="46.30356" lon="10.56682">
        <ele>2442.769</ele>
        <time>2018-09-14T21:00:45Z</time>
      </trkpt>
      <trkpt lat="46.30356" lon="10.56686">
        <ele>2442.837</ele>
        <time>2018-09-14T21:01:05Z</time>
      </trkpt>
      <trkpt lat="46.30366" lon="10.56717">
        <ele>2446.164</ele>
        <time>2018-09-14T21:01:25Z</time>
      </trkpt>
      <trkpt lat="46.30367" lon="10.56719">
        <ele>2446.454</ele>
        <time>2018-09-14T21:01:45Z</time>
      </trkpt>
      <trkpt lat="46.30368" lon="10.56722">
        <ele>2446.856</ele>
        <time>2018-09-14T21:02:05Z</time>
      </trkpt>
      <trkpt lat="46.30369" lon="10.56725">
        <ele>2447.311</ele>
        <time>2018-09-14T21:02:25Z</time>
      </trkpt>
      <trkpt lat="46.3037" lon="10.56727">
        <ele>2447.708</ele>
        <time>2018-09-14T21:02:45Z</time>
      </trkpt>
      <trkpt lat="46.30371" lon="10.56731">
        <ele>2448.157</ele>
        <time>2018-09-14T21:03:05Z</time>
      </trkpt>
      <trkpt lat="46.30372" lon="10.56734">
        <ele>2448.473</ele>
        <time>2018-09-14T21:03:25Z</time>
      </trkpt>
      <trkpt lat="46.30373" lon="10.56737">
        <ele>2448.83</ele>
        <time>2018-09-14T21:03:45Z</time>
      </trkpt>
      <trkpt lat="46.30374" lon="10.5674">
        <ele>2449.123</ele>
        <time>2018-09-14T21:04:05Z</time>
      </trkpt>
      <trkpt lat="46.30376" lon="10.56743">
        <ele>2449.566</ele>
        <time>2018-09-14T21:04:25Z</time>
      </trkpt>
      <trkpt lat="46.30377" lon="10.56746">
        <ele>2449.949</ele>
        <time>2018-09-14T21:04:45Z</time>
      </trkpt>
      <trkpt lat="46.30378" lon="10.56748">
        <ele>2450.217</ele>
        <time>2018-09-14T21:05:05Z</time>
      </trkpt>
      <trkpt lat="46.3038" lon="10.56751">
        <ele>2450.744</ele>
        <time>2018-09-14T21:05:25Z</time>
      </trkpt>
      <trkpt lat="46.30381" lon="10.56754">
        <ele>2451.395</ele>
        <time>2018-09-14T21:05:45Z</time>
      </trkpt>
      <trkpt lat="46.30382" lon="10.56757">
        <ele>2451.949</ele>
        <time>2018-09-14T21:06:05Z</time>
      </trkpt>
      <trkpt lat="46.30383" lon="10.56759">
        <ele>2452.623</ele>
        <time>2018-09-14T21:06:25Z</time>
      </trkpt>
      <trkpt lat="46.30385" lon="10.56761">
        <ele>2453.308</ele>
        <time>2018-09-14T21:06:45Z</time>
      </trkpt>
      <trkpt lat="46.30386" lon="10.56764">
        <ele>2454.061</ele>
        <time>2018-09-14T21:07:05Z</time>
      </trkpt>
      <trkpt lat="46.30387" lon="10.56766">
        <ele>2454.867</ele>
        <time>2018-09-14T21:07:25Z</time>
      </trkpt>
      <trkpt lat="46.30388" lon="10.56769">
        <ele>2455.514</ele>
        <time>2018-09-14T21:07:45Z</time>
      </trkpt>
      <trkpt lat="46.30389" lon="10.56772">
        <ele>2456.057</ele>
        <time>2018-09-14T21:08:05Z</time>
      </trkpt>
      <trkpt lat="46.30389" lon="10.56776">
        <ele>2456.76</ele>
        <time>2018-09-14T21:08:25Z</time>
      </trkpt>
      <trkpt lat="46.30388" lon="10.56779">
        <ele>2457.063</ele>
        <time>2018-09-14T21:08:45Z</time>
      </trkpt>
      <trkpt lat="46.30387" lon="10.56782">
        <ele>2457.141</ele>
        <time>2018-09-14T21:09:05Z</time>
      </trkpt>
      <trkpt lat="46.30387" lon="10.56785">
        <ele>2457.558</ele>
        <time>2018-09-14T21:09:25Z</time>
      </trkpt>
      <trkpt lat="46.30386" lon="10.56788">
        <ele>2457.595</ele>
        <time>2018-09-14T21:09:45Z</time>
      </trkpt>
      <trkpt lat="46.30384" lon="10.56791">
        <ele>2457.449</ele>
        <time>2018-09-14T21:10:05Z</time>
      </trkpt>
      <trkpt lat="46.30383" lon="10.56794">
        <ele>2457.423</ele>
        <time>2018-09-14T21:10:25Z</time>
      </trkpt>
      <trkpt lat="46.30382" lon="10.56797">
        <ele>2457.408</ele>
        <time>2018-09-14T21:10:45Z</time>
      </trkpt>
      <trkpt lat="46.30381" lon="10.568">
        <ele>2457.341</ele>
        <time>2018-09-14T21:11:05Z</time>
      </trkpt>
      <trkpt lat="46.3038" lon="10.56803">
        <ele>2457.117</ele>
        <time>2018-09-14T21:11:25Z</time>
      </trkpt>
      <trkpt lat="46.30379" lon="10.56806">
        <ele>2457.034</ele>
        <time>2018-09-14T21:11:45Z</time>
      </trkpt>
      <trkpt lat="46.30378" lon="10.56808">
        <ele>2456.657</ele>
        <time>2018-09-14T21:12:05Z</time>
      </trkpt>
      <trkpt lat="46.30376" lon="10.5681">
        <ele>2456.03</ele>
        <time>2018-09-14T21:12:25Z</time>
      </trkpt>
      <trkpt lat="46.30375" lon="10.56813">
        <ele>2455.963</ele>
        <time>2018-09-14T21:12:45Z</time>
      </trkpt>
      <trkpt lat="46.30373" lon="10.56816">
        <ele>2455.541</ele>
        <time>2018-09-14T21:13:05Z</time>
      </trkpt>
      <trkpt lat="46.30372" lon="10.56819">
        <ele>2455.118</ele>
        <time>2018-09-14T21:13:25Z</time>
      </trkpt>
      <trkpt lat="46.30371" lon="10.56821">
        <ele>2454.845</ele>
        <time>2018-09-14T21:13:45Z</time>
      </trkpt>
      <trkpt lat="46.3037" lon="10.56824">
        <ele>2454.547</ele>
        <time>2018-09-14T21:14:05Z</time>
      </trkpt>
      <trkpt lat="46.30369" lon="10.56827">
        <ele>2454.411</ele>
        <time>2018-09-14T21:14:25Z</time>
      </trkpt>
      <trkpt lat="46.30368" lon="10.56829">
        <ele>2453.908</ele>
        <time>2018-09-14T21:14:45Z</time>
      </trkpt>
      <trkpt lat="46.30367" lon="10.56832">
        <ele>2453.596</ele>
        <time>2018-09-14T21:15:05Z</time>
      </trkpt>
      <trkpt lat="46.30366" lon="10.56835">
        <ele>2453.462</ele>
        <time>2018-09-14T21:15:25Z</time>
      </trkpt>
      <trkpt lat="46.30365" lon="10.56837">
        <ele>2453.479</ele>
        <time>2018-09-14T21:15:45Z</time>
      </trkpt>
      <trkpt lat="46.30363" lon="10.5684">
        <ele>2453.522</ele>
        <time>2018-09-14T21:16:05Z</time>
      </trkpt>
      <trkpt lat="46.30362" lon="10.56843">
        <ele>2453.345</ele>
        <time>2018-09-14T21:16:25Z</time>
      </trkpt>
      <trkpt lat="46.3036" lon="10.56845">
        <ele>2453.658</ele>
        <time>2018-09-14T21:16:45Z</time>
      </trkpt>
      <trkpt lat="46.30359" lon="10.56848">
        <ele>2454.256</ele>
        <time>2018-09-14T21:17:05Z</time>
      </trkpt>
      <trkpt lat="46.30358" lon="10.56851">
        <ele>2454.843</ele>
        <time>2018-09-14T21:17:25Z</time>
      </trkpt>
      <trkpt lat="46.30357" lon="10.56853">
        <ele>2455.258</ele>
        <time>2018-09-14T21:17:45Z</time>
      </trkpt>
      <trkpt lat="46.30356" lon="10.56855">
        <ele>2455.652</ele>
        <time>2018-09-14T21:18:05Z</time>
      </trkpt>
      <trkpt lat="46.30354" lon="10.56857">
        <ele>2455.717</ele>
        <time>2018-09-14T21:18:25Z</time>
      </trkpt>
      <trkpt lat="46.30352" lon="10.56858">
        <ele>2455.408</ele>
        <time>2018-09-14T21:18:45Z</time>
      </trkpt>
      <trkpt lat="46.3035" lon="10.56859">
        <ele>2455.027</ele>
        <time>2018-09-14T21:19:05Z</time>
      </trkpt>
      <trkpt lat="46.30348" lon="10.5686">
        <ele>2454.693</ele>
        <time>2018-09-14T21:19:25Z</time>
      </trkpt>
      <trkpt lat="46.30346" lon="10.56861">
        <ele>2454.17</ele>
        <time>2018-09-14T21:19:45Z</time>
      </trkpt>
      <trkpt lat="46.30344" lon="10.56861">
        <ele>2453.513</ele>
        <time>2018-09-14T21:20:05Z</time>
      </trkpt>
      <trkpt lat="46.30343" lon="10.56862">
        <ele>2453.016</ele>
        <time>2018-09-14T21:20:25Z</time>
      </trkpt>
      <trkpt lat="46.3034" lon="10.56862">
        <ele>2452.429</ele>
        <time>2018-09-14T21:20:45Z</time>
      </trkpt>
      <trkpt lat="46.30338" lon="10.56862">
        <ele>2451.737</ele>
        <time>2018-09-14T21:21:05Z</time>
      </trkpt>
      <trkpt lat="46.30336" lon="10.56862">
        <ele>2451.044</ele>
        <time>2018-09-14T21:21:25Z</time>
      </trkpt>
      <trkpt lat="46.30334" lon="10.56862">
        <ele>2450.425</ele>
        <time>2018-09-14T21:21:45Z</time>
      </trkpt>
      <trkpt lat="46.30332" lon="10.56863">
        <ele>2450.026</ele>
        <time>2018-09-14T21:22:05Z</time>
      </trkpt>
      <trkpt lat="46.30329" lon="10.56863">
        <ele>2449.708</ele>
        <time>2018-09-14T21:22:25Z</time>
      </trkpt>
      <trkpt lat="46.30327" lon="10.56863">
        <ele>2449.408</ele>
        <time>2018-09-14T21:22:45Z</time>
      </trkpt>
      <trkpt lat="46.30325" lon="10.56863">
        <ele>2449.084</ele>
        <time>2018-09-14T21:23:05Z</time>
      </trkpt>
      <trkpt lat="46.30323" lon="10.56863">
        <ele>2448.71</ele>
        <time>2018-09-14T21:23:25Z</time>
      </trkpt>
      <trkpt lat="46.3032" lon="10.56863">
        <ele>2448.437</ele>
        <time>2018-09-14T21:23:45Z</time>
      </trkpt>
      <trkpt lat="46.30318" lon="10.56863">
        <ele>2448.08</ele>
        <time>2018-09-14T21:24:05Z</time>
      </trkpt>
      <trkpt lat="46.30316" lon="10.56862">
        <ele>2447.773</ele>
        <time>2018-09-14T21:24:25Z</time>
      </trkpt>
      <trkpt lat="46.30314" lon="10.56862">
        <ele>2447.386</ele>
        <time>2018-09-14T21:24:45Z</time>
      </trkpt>
      <trkpt lat="46.30311" lon="10.56862">
        <ele>2446.814</ele>
        <time>2018-09-14T21:25:05Z</time>
      </trkpt>
      <trkpt lat="46.30309" lon="10.56862">
        <ele>2446.561</ele>
        <time>2018-09-14T21:25:25Z</time>
      </trkpt>
      <trkpt lat="46.30307" lon="10.56862">
        <ele>2446.368</ele>
        <time>2018-09-14T21:25:45Z</time>
      </trkpt>
      <trkpt lat="46.30305" lon="10.56862">
        <ele>2446.042</ele>
        <time>2018-09-14T21:26:05Z</time>
      </trkpt>
      <trkpt lat="46.30303" lon="10.56863">
        <ele>2446.126</ele>
        <time>2018-09-14T21:26:25Z</time>
      </trkpt>
      <trkpt lat="46.30301" lon="10.56863">
        <ele>2446.108</ele>
        <time>2018-09-14T21:26:45Z</time>
      </trkpt>
      <trkpt lat="46.30299" lon="10.56863">
        <ele>2446.098</ele>
        <time>2018-09-14T21:27:05Z</time>
      </trkpt>
      <trkpt lat="46.30298" lon="10.56863">
        <ele>2445.944</ele>
        <time>2018-09-14T21:27:25Z</time>
      </trkpt>
      <trkpt lat="46.30298" lon="10.56864">
        <ele>2446.171</ele>
        <time>2018-09-14T21:27:45Z</time>
      </trkpt>
      <trkpt lat="46.30297" lon="10.56865">
        <ele>2446.324</ele>
        <time>2018-09-14T21:28:05Z</time>
      </trkpt>
      <trkpt lat="46.30295" lon="10.56867">
        <ele>2446.517</ele>
        <time>2018-09-14T21:28:25Z</time>
      </trkpt>
      <trkpt lat="46.30295" lon="10.5688">
        <ele>2448.61</ele>
        <time>2018-09-14T21:28:45Z</time>
      </trkpt>
      <trkpt lat="46.303" lon="10.56887">
        <ele>2449.618</ele>
        <time>2018-09-14T21:29:05Z</time>
      </trkpt>
      <trkpt lat="46.30299" lon="10.56889">
        <ele>2450.095</ele>
        <time>2018-09-14T21:29:25Z</time>
      </trkpt>
      <trkpt lat="46.30298" lon="10.56892">
        <ele>2450.352</ele>
        <time>2018-09-14T21:29:45Z</time>
      </trkpt>
      <trkpt lat="46.30297" lon="10.56895">
        <ele>2450.553</ele>
        <time>2018-09-14T21:30:05Z</time>
      </trkpt>
      <trkpt lat="46.30296" lon="10.56897">
        <ele>2450.708</ele>
        <time>2018-09-14T21:30:25Z</time>
      </trkpt>
      <trkpt lat="46.30295" lon="10.569">
        <ele>2451.008</ele>
        <time>2018-09-14T21:30:45Z</time>
      </trkpt>
      <trkpt lat="46.30294" lon="10.56903">
        <ele>2451.237</ele>
        <time>2018-09-14T21:31:05Z</time>
      </trkpt>
      <trkpt lat="46.30294" lon="10.56905">
        <ele>2451.523</ele>
        <time>2018-09-14T21:31:25Z</time>
      </trkpt>
      <trkpt lat="46.30294" lon="10.56908">
        <ele>2451.79</ele>
        <time>2018-09-14T21:31:45Z</time>
      </trkpt>
      <trkpt lat="46.30294" lon="10.56911">
        <ele>2452.073</ele>
        <time>2018-09-14T21:32:05Z</time>
      </trkpt>
      <trkpt lat="46.30294" lon="10.56914">
        <ele>2452.266</ele>
        <time>2018-09-14T21:32:25Z</time>
      </trkpt>
      <trkpt lat="46.30294" lon="10.56917">
        <ele>2452.549</ele>
        <time>2018-09-14T21:32:45Z</time>
      </trkpt>
      <trkpt lat="46.30296" lon="10.56919">
        <ele>2452.877</ele>
        <time>2018-09-14T21:33:05Z</time>
      </trkpt>
      <trkpt lat="46.30296" lon="10.56922">
        <ele>2453.134</ele>
        <time>2018-09-14T21:33:25Z</time>
      </trkpt>
      <trkpt lat="46.30296" lon="10.56925">
        <ele>2453.498</ele>
        <time>2018-09-14T21:33:45Z</time>
      </trkpt>
      <trkpt lat="46.30296" lon="10.56928">
        <ele>2453.715</ele>
        <time>2018-09-14T21:34:05Z</time>
      </trkpt>
      <trkpt lat="46.30297" lon="10.56931">
        <ele>2454.026</ele>
        <time>2018-09-14T21:34:25Z</time>
      </trkpt>
      <trkpt lat="46.30297" lon="10.56932">
        <ele>2454.108</ele>
        <time>2018-09-14T21:34:45Z</time>
      </trkpt>
      <trkpt lat="46.30297" lon="10.56935">
        <ele>2454.451</ele>
        <time>2018-09-14T21:35:05Z</time>
      </trkpt>
      <trkpt lat="46.30297" lon="10.56938">
        <ele>2454.777</ele>
        <time>2018-09-14T21:35:25Z</time>
      </trkpt>
      <trkpt lat="46.30298" lon="10.5694">
        <ele>2455.034</ele>
        <time>2018-09-14T21:35:45Z</time>
      </trkpt>
      <trkpt lat="46.30298" lon="10.56943">
        <ele>2455.397</ele>
        <time>2018-09-14T21:36:05Z</time>
      </trkpt>
      <trkpt lat="46.30299" lon="10.56945">
        <ele>2455.59</ele>
        <time>2018-09-14T21:36:25Z</time>
      </trkpt>
      <trkpt lat="46.30299" lon="10.56948">
        <ele>2455.773</ele>
        <time>2018-09-14T21:36:45Z</time>
      </trkpt>
      <trkpt lat="46.30299" lon="10.56949">
        <ele>2455.831</ele>
        <time>2018-09-14T21:37:05Z</time>
      </trkpt>
      <trkpt lat="46.30295" lon="10.56954">
        <ele>2455.838</ele>
        <time>2018-09-14T21:37:25Z</time>
      </trkpt>
      <trkpt lat="46.30288" lon="10.56959">
        <ele>2455.743</ele>
        <time>2018-09-14T21:37:45Z</time>
      </trkpt>
      <trkpt lat="46.30287" lon="10.56959">
        <ele>2455.764</ele>
        <time>2018-09-14T21:38:05Z</time>
      </trkpt>
      <trkpt lat="46.30287" lon="10.5696">
        <ele>2455.71</ele>
        <time>2018-09-14T21:38:25Z</time>
      </trkpt>
      <trkpt lat="46.30285" lon="10.56964">
        <ele>2455.908</ele>
        <time>2018-09-14T21:38:45Z</time>
      </trkpt>
      <trkpt lat="46.30285" lon="10.56965">
        <ele>2455.996</ele>
        <time>2018-09-14T21:39:05Z</time>
      </trkpt>
      <trkpt lat="46.30283" lon="10.56966">
        <ele>2455.972</ele>
        <time>2018-09-14T21:39:25Z</time>
      </trkpt>
      <trkpt lat="46.30283" lon="10.56969">
        <ele>2456.149</ele>
        <time>2018-09-14T21:39:45Z</time>
      </trkpt>
      <trkpt lat="46.30283" lon="10.56969">
        <ele>2456.132</ele>
        <time>2018-09-14T21:40:05Z</time>
      </trkpt>
      <trkpt lat="46.30282" lon="10.5697">
        <ele>2456.115</ele>
        <time>2018-09-14T21:40:25Z</time>
      </trkpt>
      <trkpt lat="46.30282" lon="10.56972">
        <ele>2456.218</ele>
        <time>2018-09-14T21:40:45Z</time>
      </trkpt>
      <trkpt lat="46.30281" lon="10.56973">
        <ele>2456.266</ele>
        <time>2018-09-14T21:41:05Z</time>
      </trkpt>
      <trkpt lat="46.30273" lon="10.56978">
        <ele>2456.723</ele>
        <time>2018-09-14T21:41:25Z</time>
      </trkpt>
      <trkpt lat="46.30253" lon="10.56993">
        <ele>2459.979</ele>
        <time>2018-09-14T21:41:45Z</time>
      </trkpt>
      <trkpt lat="46.30253" lon="10.56993">
        <ele>2459.905</ele>
        <time>2018-09-14T21:42:05Z</time>
      </trkpt>
      <trkpt lat="46.30252" lon="10.56993">
        <ele>2460.025</ele>
        <time>2018-09-14T21:42:25Z</time>
      </trkpt>
      <trkpt lat="46.3025" lon="10.56993">
        <ele>2460.208</ele>
        <time>2018-09-14T21:42:45Z</time>
      </trkpt>
      <trkpt lat="46.30248" lon="10.56993">
        <ele>2460.459</ele>
        <time>2018-09-14T21:43:05Z</time>
      </trkpt>
      <trkpt lat="46.30247" lon="10.56992">
        <ele>2460.515</ele>
        <time>2018-09-14T21:43:25Z</time>
      </trkpt>
      <trkpt lat="46.30236" lon="10.57006">
        <ele>2462.912</ele>
        <time>2018-09-14T21:43:45Z</time>
      </trkpt>
      <trkpt lat="46.30235" lon="10.57006">
        <ele>2463.075</ele>
        <time>2018-09-14T21:44:05Z</time>
      </trkpt>
      <trkpt lat="46.30226" lon="10.5701">
        <ele>2464.398</ele>
        <time>2018-09-14T21:44:25Z</time>
      </trkpt>
      <trkpt lat="46.30219" lon="10.57013">
        <ele>2464.491</ele>
        <time>2018-09-14T21:44:45Z</time>
      </trkpt>
      <trkpt lat="46.30217" lon="10.57014">
        <ele>2464.199</ele>
        <time>2018-09-14T21:45:05Z</time>
      </trkpt>
      <trkpt lat="46.30217" lon="10.57016">
        <ele>2464.256</ele>
        <time>2018-09-14T21:45:25Z</time>
      </trkpt>
      <trkpt lat="46.30217" lon="10.57019">
        <ele>2464.587</ele>
        <time>2018-09-14T21:45:45Z</time>
      </trkpt>
      <trkpt lat="46.30217" lon="10.5702">
        <ele>2464.642</ele>
        <time>2018-09-14T21:46:05Z</time>
      </trkpt>
      <trkpt lat="46.30215" lon="10.57022">
        <ele>2464.526</ele>
        <time>2018-09-14T21:46:25Z</time>
      </trkpt>
      <trkpt lat="46.30214" lon="10.57024">
        <ele>2464.408</ele>
        <time>2018-09-14T21:46:45Z</time>
      </trkpt>
      <trkpt lat="46.30212" lon="10.57026">
        <ele>2464.38</ele>
        <time>2018-09-14T21:47:05Z</time>
      </trkpt>
      <trkpt lat="46.3021" lon="10.57028">
        <ele>2464.346</ele>
        <time>2018-09-14T21:47:25Z</time>
      </trkpt>
      <trkpt lat="46.30208" lon="10.5703">
        <ele>2464.263</ele>
        <time>2018-09-14T21:47:45Z</time>
      </trkpt>
      <trkpt lat="46.30207" lon="10.57031">
        <ele>2464.236</ele>
        <time>2018-09-14T21:48:05Z</time>
      </trkpt>
      <trkpt lat="46.30205" lon="10.57033">
        <ele>2464.179</ele>
        <time>2018-09-14T21:48:25Z</time>
      </trkpt>
      <trkpt lat="46.30204" lon="10.57034">
        <ele>2464.112</ele>
        <time>2018-09-14T21:48:45Z</time>
      </trkpt>
      <trkpt lat="46.30202" lon="10.57035">
        <ele>2464.04</ele>
        <time>2018-09-14T21:49:05Z</time>
      </trkpt>
      <trkpt lat="46.302" lon="10.57037">
        <ele>2464.047</ele>
        <time>2018-09-14T21:49:25Z</time>
      </trkpt>
      <trkpt lat="46.30198" lon="10.57039">
        <ele>2464.053</ele>
        <time>2018-09-14T21:49:45Z</time>
      </trkpt>
      <trkpt lat="46.30196" lon="10.57041">
        <ele>2464.004</ele>
        <time>2018-09-14T21:50:05Z</time>
      </trkpt>
      <trkpt lat="46.30194" lon="10.57043">
        <ele>2464.014</ele>
        <time>2018-09-14T21:50:25Z</time>
      </trkpt>
      <trkpt lat="46.30191" lon="10.57044">
        <ele>2464.008</ele>
        <time>2018-09-14T21:50:45Z</time>
      </trkpt>
      <trkpt lat="46.3019" lon="10.57047">
        <ele>2464.287</ele>
        <time>2018-09-14T21:51:05Z</time>
      </trkpt>
      <trkpt lat="46.30188" lon="10.57049">
        <ele>2464.353</ele>
        <time>2018-09-14T21:51:25Z</time>
      </trkpt>
      <trkpt lat="46.30186" lon="10.57052">
        <ele>2464.57</ele>
        <time>2018-09-14T21:51:45Z</time>
      </trkpt>
      <trkpt lat="46.30185" lon="10.57055">
        <ele>2464.873</ele>
        <time>2018-09-14T21:52:05Z</time>
      </trkpt>
      <trkpt lat="46.30183" lon="10.57057">
        <ele>2465.066</ele>
        <time>2018-09-14T21:52:25Z</time>
      </trkpt>
      <trkpt lat="46.30182" lon="10.57061">
        <ele>2465.259</ele>
        <time>2018-09-14T21:52:45Z</time>
      </trkpt>
      <trkpt lat="46.30181" lon="10.57063">
        <ele>2465.447</ele>
        <time>2018-09-14T21:53:05Z</time>
      </trkpt>
      <trkpt lat="46.3018" lon="10.57067">
        <ele>2465.894</ele>
        <time>2018-09-14T21:53:25Z</time>
      </trkpt>
      <trkpt lat="46.3018" lon="10.5707">
        <ele>2466.149</ele>
        <time>2018-09-14T21:53:45Z</time>
      </trkpt>
      <trkpt lat="46.3018" lon="10.57073">
        <ele>2466.502</ele>
        <time>2018-09-14T21:54:05Z</time>
      </trkpt>
      <trkpt lat="46.30179" lon="10.57076">
        <ele>2466.922</ele>
        <time>2018-09-14T21:54:25Z</time>
      </trkpt>
      <trkpt lat="46.30179" lon="10.57079">
        <ele>2467.208</ele>
        <time>2018-09-14T21:54:45Z</time>
      </trkpt>
      <trkpt lat="46.30179" lon="10.57082">
        <ele>2467.576</ele>
        <time>2018-09-14T21:55:05Z</time>
      </trkpt>
      <trkpt lat="46.30179" lon="10.57085">
        <ele>2467.812</ele>
        <time>2018-09-14T21:55:25Z</time>
      </trkpt>
      <trkpt lat="46.30179" lon="10.57088">
        <ele>2468.139</ele>
        <time>2018-09-14T21:55:45Z</time>
      </trkpt>
      <trkpt lat="46.30179" lon="10.57091">
        <ele>2468.622</ele>
        <time>2018-09-14T21:56:05Z</time>
      </trkpt>
      <trkpt lat="46.3018" lon="10.57093">
        <ele>2469.085</ele>
        <time>2018-09-14T21:56:25Z</time>
      </trkpt>
      <trkpt lat="46.30181" lon="10.57096">
        <ele>2469.418</ele>
        <time>2018-09-14T21:56:45Z</time>
      </trkpt>
      <trkpt lat="46.30182" lon="10.571">
        <ele>2469.886</ele>
        <time>2018-09-14T21:57:05Z</time>
      </trkpt>
      <trkpt lat="46.30182" lon="10.57103">
        <ele>2470.283</ele>
        <time>2018-09-14T21:57:25Z</time>
      </trkpt>
      <trkpt lat="46.30183" lon="10.57106">
        <ele>2470.797</ele>
        <time>2018-09-14T21:57:45Z</time>
      </trkpt>
      <trkpt lat="46.30183" lon="10.57109">
        <ele>2471.123</ele>
        <time>2018-09-14T21:58:05Z</time>
      </trkpt>
      <trkpt lat="46.30183" lon="10.57112">
        <ele>2471.525</ele>
        <time>2018-09-14T21:58:25Z</time>
      </trkpt>
      <trkpt lat="46.30183" lon="10.57116">
        <ele>2471.908</ele>
        <time>2018-09-14T21:58:45Z</time>
      </trkpt>
      <trkpt lat="46.30184" lon="10.57119">
        <ele>2472.441</ele>
        <time>2018-09-14T21:59:05Z</time>
      </trkpt>
      <trkpt lat="46.30184" lon="10.57122">
        <ele>2472.897</ele>
        <time>2018-09-14T21:59:25Z</time>
      </trkpt>
      <trkpt lat="46.30183" lon="10.57125">
        <ele>2473.194</ele>
        <time>2018-09-14T21:59:45Z</time>
      </trkpt>
      <trkpt lat="46.30182" lon="10.57128">
        <ele>2473.397</ele>
        <time>2018-09-14T22:00:05Z</time>
      </trkpt>
      <trkpt lat="46.30181" lon="10.57131">
        <ele>2473.51</ele>
        <time>2018-09-14T22:00:25Z</time>
      </trkpt>
      <trkpt lat="46.30179" lon="10.57134">
        <ele>2473.643</ele>
        <time>2018-09-14T22:00:45Z</time>
      </trkpt>
      <trkpt lat="46.30178" lon="10.57136">
        <ele>2473.791</ele>
        <time>2018-09-14T22:01:05Z</time>
      </trkpt>
      <trkpt lat="46.30177" lon="10.57138">
        <ele>2473.688</ele>
        <time>2018-09-14T22:01:25Z</time>
      </trkpt>
      <trkpt lat="46.30176" lon="10.5714">
        <ele>2473.759</ele>
        <time>2018-09-14T22:01:45Z</time>
      </trkpt>
      <trkpt lat="46.30174" lon="10.57143">
        <ele>2473.803</ele>
        <time>2018-09-14T22:02:05Z</time>
      </trkpt>
      <trkpt lat="46.30172" lon="10.57146">
        <ele>2473.823</ele>
        <time>2018-09-14T22:02:25Z</time>
      </trkpt>
      <trkpt lat="46.30171" lon="10.57149">
        <ele>2473.808</ele>
        <time>2018-09-14T22:02:45Z</time>
      </trkpt>
      <trkpt lat="46.30169" lon="10.57151">
        <ele>2473.827</ele>
        <time>2018-09-14T22:03:05Z</time>
      </trkpt>
      <trkpt lat="46.30168" lon="10.57153">
        <ele>2473.823</ele>
        <time>2018-09-14T22:03:25Z</time>
      </trkpt>
      <trkpt lat="46.30166" lon="10.57155">
        <ele>2473.76</ele>
        <time>2018-09-14T22:03:45Z</time>
      </trkpt>
      <trkpt lat="46.30164" lon="10.57157">
        <ele>2473.823</ele>
        <time>2018-09-14T22:04:05Z</time>
      </trkpt>
      <trkpt lat="46.30163" lon="10.57159">
        <ele>2473.916</ele>
        <time>2018-09-14T22:04:25Z</time>
      </trkpt>
      <trkpt lat="46.30161" lon="10.57161">
        <ele>2474.079</ele>
        <time>2018-09-14T22:04:45Z</time>
      </trkpt>
      <trkpt lat="46.30159" lon="10.57163">
        <ele>2474.117</ele>
        <time>2018-09-14T22:05:05Z</time>
      </trkpt>
      <trkpt lat="46.30157" lon="10.57164">
        <ele>2474.014</ele>
        <time>2018-09-14T22:05:25Z</time>
      </trkpt>
      <trkpt lat="46.30155" lon="10.57165">
        <ele>2473.971</ele>
        <time>2018-09-14T22:05:45Z</time>
      </trkpt>
      <trkpt lat="46.30153" lon="10.57166">
        <ele>2473.941</ele>
        <time>2018-09-14T22:06:05Z</time>
      </trkpt>
      <trkpt lat="46.30151" lon="10.57167">
        <ele>2473.915</ele>
        <time>2018-09-14T22:06:25Z</time>
      </trkpt>
      <trkpt lat="46.30146" lon="10.5717">
        <ele>2474.308</ele>
        <time>2018-09-14T22:06:45Z</time>
      </trkpt>
      <trkpt lat="46.30143" lon="10.57171">
        <ele>2474.299</ele>
        <time>2018-09-14T22:07:05Z</time>
      </trkpt>
      <trkpt lat="46.30141" lon="10.5717">
        <ele>2474.135</ele>
        <time>2018-09-14T22:07:25Z</time>
      </trkpt>
      <trkpt lat="46.30139" lon="10.57172">
        <ele>2474.242</ele>
        <time>2018-09-14T22:07:45Z</time>
      </trkpt>
      <trkpt lat="46.30137" lon="10.57174">
        <ele>2474.715</ele>
        <time>2018-09-14T22:08:05Z</time>
      </trkpt>
      <trkpt lat="46.30134" lon="10.57175">
        <ele>2475.178</ele>
        <time>2018-09-14T22:08:25Z</time>
      </trkpt>
      <trkpt lat="46.30132" lon="10.57177">
        <ele>2475.571</ele>
        <time>2018-09-14T22:08:45Z</time>
      </trkpt>
      <trkpt lat="46.3013" lon="10.57179">
        <ele>2476.149</ele>
        <time>2018-09-14T22:09:05Z</time>
      </trkpt>
      <trkpt lat="46.30128" lon="10.5718">
        <ele>2476.396</ele>
        <time>2018-09-14T22:09:25Z</time>
      </trkpt>
      <trkpt lat="46.30125" lon="10.5718">
        <ele>2476.429</ele>
        <time>2018-09-14T22:09:45Z</time>
      </trkpt>
      <trkpt lat="46.30123" lon="10.57183">
        <ele>2477</ele>
        <time>2018-09-14T22:10:05Z</time>
      </trkpt>
      <trkpt lat="46.30121" lon="10.57184">
        <ele>2477.22</ele>
        <time>2018-09-14T22:10:25Z</time>
      </trkpt>
      <trkpt lat="46.30119" lon="10.57185">
        <ele>2477.608</ele>
        <time>2018-09-14T22:10:45Z</time>
      </trkpt>
      <trkpt lat="46.30117" lon="10.57186">
        <ele>2477.814</ele>
        <time>2018-09-14T22:11:05Z</time>
      </trkpt>
      <trkpt lat="46.30115" lon="10.57187">
        <ele>2478.11</ele>
        <time>2018-09-14T22:11:25Z</time>
      </trkpt>
      <trkpt lat="46.30113" lon="10.57189">
        <ele>2478.557</ele>
        <time>2018-09-14T22:11:45Z</time>
      </trkpt>
      <trkpt lat="46.30111" lon="10.57191">
        <ele>2479.24</ele>
        <time>2018-09-14T22:12:05Z</time>
      </trkpt>
      <trkpt lat="46.3011" lon="10.57194">
        <ele>2479.743</ele>
        <time>2018-09-14T22:12:25Z</time>
      </trkpt>
      <trkpt lat="46.30109" lon="10.57196">
        <ele>2480.386</ele>
        <time>2018-09-14T22:12:45Z</time>
      </trkpt>
      <trkpt lat="46.30107" lon="10.57198">
        <ele>2480.864</ele>
        <time>2018-09-14T22:13:05Z</time>
      </trkpt>
      <trkpt lat="46.30105" lon="10.57199">
        <ele>2481.121</ele>
        <time>2018-09-14T22:13:25Z</time>
      </trkpt>
      <trkpt lat="46.30102" lon="10.572">
        <ele>2481.212</ele>
        <time>2018-09-14T22:13:45Z</time>
      </trkpt>
      <trkpt lat="46.301" lon="10.57201">
        <ele>2481.432</ele>
        <time>2018-09-14T22:14:05Z</time>
      </trkpt>
      <trkpt lat="46.30098" lon="10.57202">
        <ele>2481.705</ele>
        <time>2018-09-14T22:14:25Z</time>
      </trkpt>
      <trkpt lat="46.30097" lon="10.57203">
        <ele>2481.908</ele>
        <time>2018-09-14T22:14:45Z</time>
      </trkpt>
      <trkpt lat="46.30095" lon="10.57203">
        <ele>2482.093</ele>
        <time>2018-09-14T22:15:05Z</time>
      </trkpt>
      <trkpt lat="46.30093" lon="10.57204">
        <ele>2482.279</ele>
        <time>2018-09-14T22:15:25Z</time>
      </trkpt>
      <trkpt lat="46.30091" lon="10.57206">
        <ele>2482.536</ele>
        <time>2018-09-14T22:15:45Z</time>
      </trkpt>
      <trkpt lat="46.30089" lon="10.57207">
        <ele>2482.759</ele>
        <time>2018-09-14T22:16:05Z</time>
      </trkpt>
      <trkpt lat="46.30086" lon="10.57207">
        <ele>2482.792</ele>
        <time>2018-09-14T22:16:25Z</time>
      </trkpt>
      <trkpt lat="46.30084" lon="10.57208">
        <ele>2482.955</ele>
        <time>2018-09-14T22:16:45Z</time>
      </trkpt>
      <trkpt lat="46.30083" lon="10.57209">
        <ele>2483.163</ele>
        <time>2018-09-14T22:17:05Z</time>
      </trkpt>
      <trkpt lat="46.30081" lon="10.57211">
        <ele>2483.36</ele>
        <time>2018-09-14T22:17:25Z</time>
      </trkpt>
      <trkpt lat="46.30079" lon="10.57211">
        <ele>2483.337</ele>
        <time>2018-09-14T22:17:45Z</time>
      </trkpt>
      <trkpt lat="46.30077" lon="10.57211">
        <ele>2483.049</ele>
        <time>2018-09-14T22:18:05Z</time>
      </trkpt>
      <trkpt lat="46.30075" lon="10.57211">
        <ele>2482.913</ele>
        <time>2018-09-14T22:18:25Z</time>
      </trkpt>
      <trkpt lat="46.30072" lon="10.57211">
        <ele>2482.608</ele>
        <time>2018-09-14T22:18:45Z</time>
      </trkpt>
      <trkpt lat="46.3007" lon="10.57211">
        <ele>2482.435</ele>
        <time>2018-09-14T22:19:05Z</time>
      </trkpt>
      <trkpt lat="46.30068" lon="10.57212">
        <ele>2482.341</ele>
        <time>2018-09-14T22:19:25Z</time>
      </trkpt>
      <trkpt lat="46.30066" lon="10.57213">
        <ele>2482.698</ele>
        <time>2018-09-14T22:19:45Z</time>
      </trkpt>
      <trkpt lat="46.30065" lon="10.57215">
        <ele>2482.841</ele>
        <time>2018-09-14T22:20:05Z</time>
      </trkpt>
      <trkpt lat="46.30057" lon="10.57224">
        <ele>2484.754</ele>
        <time>2018-09-14T22:20:25Z</time>
      </trkpt>
      <trkpt lat="46.30057" lon="10.57225">
        <ele>2484.857</ele>
        <time>2018-09-14T22:20:45Z</time>
      </trkpt>
      <trkpt lat="46.30055" lon="10.57226">
        <ele>2485.155</ele>
        <time>2018-09-14T22:21:05Z</time>
      </trkpt>
      <trkpt lat="46.30053" lon="10.57228">
        <ele>2485.692</ele>
        <time>2018-09-14T22:21:25Z</time>
      </trkpt>
      <trkpt lat="46.30051" lon="10.5723">
        <ele>2486.094</ele>
        <time>2018-09-14T22:21:45Z</time>
      </trkpt>
      <trkpt lat="46.30049" lon="10.57231">
        <ele>2486.357</ele>
        <time>2018-09-14T22:22:05Z</time>
      </trkpt>
      <trkpt lat="46.30047" lon="10.57233">
        <ele>2486.622</ele>
        <time>2018-09-14T22:22:25Z</time>
      </trkpt>
      <trkpt lat="46.30044" lon="10.57235">
        <ele>2487.108</ele>
        <time>2018-09-14T22:22:45Z</time>
      </trkpt>
      <trkpt lat="46.30042" lon="10.57236">
        <ele>2487.371</ele>
        <time>2018-09-14T22:23:05Z</time>
      </trkpt>
      <trkpt lat="46.3004" lon="10.57237">
        <ele>2487.537</ele>
        <time>2018-09-14T22:23:25Z</time>
      </trkpt>
      <trkpt lat="46.30038" lon="10.57238">
        <ele>2487.724</ele>
        <time>2018-09-14T22:23:45Z</time>
      </trkpt>
      <trkpt lat="46.30036" lon="10.57238">
        <ele>2487.817</ele>
        <time>2018-09-14T22:24:05Z</time>
      </trkpt>
      <trkpt lat="46.30034" lon="10.57239">
        <ele>2487.94</ele>
        <time>2018-09-14T22:24:25Z</time>
      </trkpt>
      <trkpt lat="46.30032" lon="10.57239">
        <ele>2488.043</ele>
        <time>2018-09-14T22:24:45Z</time>
      </trkpt>
      <trkpt lat="46.30029" lon="10.5724">
        <ele>2488.191</ele>
        <time>2018-09-14T22:25:05Z</time>
      </trkpt>
      <trkpt lat="46.30028" lon="10.57241">
        <ele>2488.288</ele>
        <time>2018-09-14T22:25:25Z</time>
      </trkpt>
      <trkpt lat="46.30026" lon="10.57241">
        <ele>2488.581</ele>
        <time>2018-09-14T22:25:45Z</time>
      </trkpt>
      <trkpt lat="46.30024" lon="10.57243">
        <ele>2488.961</ele>
        <time>2018-09-14T22:26:05Z</time>
      </trkpt>
      <trkpt lat="46.30022" lon="10.57244">
        <ele>2489.317</ele>
        <time>2018-09-14T22:26:25Z</time>
      </trkpt>
      <trkpt lat="46.3002" lon="10.57246">
        <ele>2489.708</ele>
        <time>2018-09-14T22:26:45Z</time>
      </trkpt>
      <trkpt lat="46.30018" lon="10.57247">
        <ele>2490.01</ele>
        <time>2018-09-14T22:27:05Z</time>
      </trkpt>
      <trkpt lat="46.30017" lon="10.57248">
        <ele>2490.566</ele>
        <time>2018-09-14T22:27:25Z</time>
      </trkpt>
      <trkpt lat="46.30015" lon="10.5725">
        <ele>2491.043</ele>
        <time>2018-09-14T22:27:45Z</time>
      </trkpt>
      <trkpt lat="46.30013" lon="10.57252">
        <ele>2491.346</ele>
        <time>2018-09-14T22:28:05Z</time>
      </trkpt>
      <trkpt lat="46.30011" lon="10.57253">
        <ele>2491.749</ele>
        <time>2018-09-14T22:28:25Z</time>
      </trkpt>
      <trkpt lat="46.30009" lon="10.57254">
        <ele>2492.022</ele>
        <time>2018-09-14T22:28:45Z</time>
      </trkpt>
      <trkpt lat="46.30007" lon="10.57256">
        <ele>2492.42</ele>
        <time>2018-09-14T22:29:05Z</time>
      </trkpt>
      <trkpt lat="46.30005" lon="10.57257">
        <ele>2492.717</ele>
        <time>2018-09-14T22:29:25Z</time>
      </trkpt>
      <trkpt lat="46.30003" lon="10.57258">
        <ele>2493.053</ele>
        <time>2018-09-14T22:29:45Z</time>
      </trkpt>
      <trkpt lat="46.30001" lon="10.5726">
        <ele>2493.404</ele>
        <time>2018-09-14T22:30:05Z</time>
      </trkpt>
      <trkpt lat="46.29999" lon="10.57261">
        <ele>2493.914</ele>
        <time>2018-09-14T22:30:25Z</time>
      </trkpt>
      <trkpt lat="46.29998" lon="10.57263">
        <ele>2494.508</ele>
        <time>2018-09-14T22:30:45Z</time>
      </trkpt>
      <trkpt lat="46.29995" lon="10.57263">
        <ele>2495.047</ele>
        <time>2018-09-14T22:31:05Z</time>
      </trkpt>
      <trkpt lat="46.29993" lon="10.57264">
        <ele>2495.683</ele>
        <time>2018-09-14T22:31:25Z</time>
      </trkpt>
      <trkpt lat="46.29991" lon="10.57265">
        <ele>2496.34</ele>
        <time>2018-09-14T22:31:45Z</time>
      </trkpt>
      <trkpt lat="46.29989" lon="10.57266">
        <ele>2496.883</ele>
        <time>2018-09-14T22:32:05Z</time>
      </trkpt>
      <trkpt lat="46.29987" lon="10.57267">
        <ele>2497.436</ele>
        <time>2018-09-14T22:32:25Z</time>
      </trkpt>
      <trkpt lat="46.29985" lon="10.57268">
        <ele>2498.089</ele>
        <time>2018-09-14T22:32:45Z</time>
      </trkpt>
      <trkpt lat="46.29983" lon="10.57269">
        <ele>2498.627</ele>
        <time>2018-09-14T22:33:05Z</time>
      </trkpt>
      <trkpt lat="46.29982" lon="10.5727">
        <ele>2499.014</ele>
        <time>2018-09-14T22:33:25Z</time>
      </trkpt>
      <trkpt lat="46.2998" lon="10.5727">
        <ele>2499.566</ele>
        <time>2018-09-14T22:33:45Z</time>
      </trkpt>
      <trkpt lat="46.29978" lon="10.5727">
        <ele>2499.829</ele>
        <time>2018-09-14T22:34:05Z</time>
      </trkpt>
      <trkpt lat="46.29975" lon="10.5727">
        <ele>2500.321</ele>
        <time>2018-09-14T22:34:25Z</time>
      </trkpt>
      <trkpt lat="46.29973" lon="10.57271">
        <ele>2500.708</ele>
        <time>2018-09-14T22:34:45Z</time>
      </trkpt>
      <trkpt lat="46.29971" lon="10.57271">
        <ele>2501.058</ele>
        <time>2018-09-14T22:35:05Z</time>
      </trkpt>
      <trkpt lat="46.29969" lon="10.5727">
        <ele>2501.224</ele>
        <time>2018-09-14T22:35:25Z</time>
      </trkpt>
      <trkpt lat="46.29967" lon="10.57269">
        <ele>2501.321</ele>
        <time>2018-09-14T22:35:45Z</time>
      </trkpt>
      <trkpt lat="46.29965" lon="10.57268">
        <ele>2501.364</ele>
        <time>2018-09-14T22:36:05Z</time>
      </trkpt>
      <trkpt lat="46.29965" lon="10.57268">
        <ele>2501.317</ele>
        <time>2018-09-14T22:36:25Z</time>
      </trkpt>
      <trkpt lat="46.29946" lon="10.57256">
        <ele>2500.06</ele>
        <time>2018-09-14T22:36:45Z</time>
      </trkpt>
      <trkpt lat="46.29944" lon="10.57255">
        <ele>2499.918</ele>
        <time>2018-09-14T22:37:05Z</time>
      </trkpt>
      <trkpt lat="46.29942" lon="10.57254">
        <ele>2499.935</ele>
        <time>2018-09-14T22:37:25Z</time>
      </trkpt>
      <trkpt lat="46.2994" lon="10.57254">
        <ele>2500.082</ele>
        <time>2018-09-14T22:37:45Z</time>
      </trkpt>
      <trkpt lat="46.29938" lon="10.57253">
        <ele>2500.143</ele>
        <time>2018-09-14T22:38:05Z</time>
      </trkpt>
      <trkpt lat="46.29936" lon="10.57253">
        <ele>2500.217</ele>
        <time>2018-09-14T22:38:25Z</time>
      </trkpt>
      <trkpt lat="46.29934" lon="10.57253">
        <ele>2500.608</ele>
        <time>2018-09-14T22:38:45Z</time>
      </trkpt>
      <trkpt lat="46.29932" lon="10.57254">
        <ele>2501.13</ele>
        <time>2018-09-14T22:39:05Z</time>
      </trkpt>
      <trkpt lat="46.2993" lon="10.57254">
        <ele>2501.356</ele>
        <time>2018-09-14T22:39:25Z</time>
      </trkpt>
      <trkpt lat="46.29929" lon="10.57254">
        <ele>2501.763</ele>
        <time>2018-09-14T22:39:45Z</time>
      </trkpt>
      <trkpt lat="46.29927" lon="10.57254">
        <ele>2502.046</ele>
        <time>2018-09-14T22:40:05Z</time>
      </trkpt>
      <trkpt lat="46.29925" lon="10.57254">
        <ele>2502.129</ele>
        <time>2018-09-14T22:40:25Z</time>
      </trkpt>
      <trkpt lat="46.29923" lon="10.57253">
        <ele>2502.062</ele>
        <time>2018-09-14T22:40:45Z</time>
      </trkpt>
      <trkpt lat="46.29921" lon="10.57252">
        <ele>2502.05</ele>
        <time>2018-09-14T22:41:05Z</time>
      </trkpt>
      <trkpt lat="46.29919" lon="10.57251">
        <ele>2502.137</ele>
        <time>2018-09-14T22:41:25Z</time>
      </trkpt>
      <trkpt lat="46.29917" lon="10.57251">
        <ele>2502.224</ele>
        <time>2018-09-14T22:41:45Z</time>
      </trkpt>
      <trkpt lat="46.29915" lon="10.5725">
        <ele>2502.204</ele>
        <time>2018-09-14T22:42:05Z</time>
      </trkpt>
      <trkpt lat="46.29913" lon="10.5725">
        <ele>2502.114</ele>
        <time>2018-09-14T22:42:25Z</time>
      </trkpt>
      <trkpt lat="46.29911" lon="10.57249">
        <ele>2502.008</ele>
        <time>2018-09-14T22:42:45Z</time>
      </trkpt>
      <trkpt lat="46.29909" lon="10.57249">
        <ele>2502.124</ele>
        <time>2018-09-14T22:43:05Z</time>
      </trkpt>
      <trkpt lat="46.29907" lon="10.5725">
        <ele>2502.57</ele>
        <time>2018-09-14T22:43:25Z</time>
      </trkpt>
      <trkpt lat="46.29905" lon="10.57249">
        <ele>2502.527</ele>
        <time>2018-09-14T22:43:45Z</time>
      </trkpt>
      <trkpt lat="46.29903" lon="10.57249">
        <ele>2502.68</ele>
        <time>2018-09-14T22:44:05Z</time>
      </trkpt>
      <trkpt lat="46.299" lon="10.57249">
        <ele>2502.793</ele>
        <time>2018-09-14T22:44:25Z</time>
      </trkpt>
      <trkpt lat="46.29898" lon="10.57248">
        <ele>2502.856</ele>
        <time>2018-09-14T22:44:45Z</time>
      </trkpt>
      <trkpt lat="46.29896" lon="10.57248">
        <ele>2502.864</ele>
        <time>2018-09-14T22:45:05Z</time>
      </trkpt>
      <trkpt lat="46.29894" lon="10.57248">
        <ele>2502.831</ele>
        <time>2018-09-14T22:45:25Z</time>
      </trkpt>
      <trkpt lat="46.29891" lon="10.57248">
        <ele>2502.973</ele>
        <time>2018-09-14T22:45:45Z</time>
      </trkpt>
      <trkpt lat="46.2989" lon="10.57247">
        <ele>2502.885</ele>
        <time>2018-09-14T22:46:05Z</time>
      </trkpt>
      <trkpt lat="46.29888" lon="10.57246">
        <ele>2502.613</ele>
        <time>2018-09-14T22:46:25Z</time>
      </trkpt>
      <trkpt lat="46.29886" lon="10.57246">
        <ele>2502.708</ele>
        <time>2018-09-14T22:46:45Z</time>
      </trkpt>
      <trkpt lat="46.29884" lon="10.57246">
        <ele>2502.749</ele>
        <time>2018-09-14T22:47:05Z</time>
      </trkpt>
      <trkpt lat="46.29882" lon="10.57246">
        <ele>2502.985</ele>
        <time>2018-09-14T22:47:25Z</time>
      </trkpt>
      <trkpt lat="46.29879" lon="10.57246">
        <ele>2503.122</ele>
        <time>2018-09-14T22:47:45Z</time>
      </trkpt>
      <trkpt lat="46.29877" lon="10.57246">
        <ele>2503.465</ele>
        <time>2018-09-14T22:48:05Z</time>
      </trkpt>
      <trkpt lat="46.29875" lon="10.57246">
        <ele>2503.668</ele>
        <time>2018-09-14T22:48:25Z</time>
      </trkpt>
      <trkpt lat="46.29873" lon="10.57247">
        <ele>2503.991</ele>
        <time>2018-09-14T22:48:45Z</time>
      </trkpt>
      <trkpt lat="46.29871" lon="10.57247">
        <ele>2504.199</ele>
        <time>2018-09-14T22:49:05Z</time>
      </trkpt>
      <trkpt lat="46.29868" lon="10.57247">
        <ele>2504.286</ele>
        <time>2018-09-14T22:49:25Z</time>
      </trkpt>
      <trkpt lat="46.29866" lon="10.57247">
        <ele>2504.542</ele>
        <time>2018-09-14T22:49:45Z</time>
      </trkpt>
      <trkpt lat="46.29864" lon="10.57247">
        <ele>2504.622</ele>
        <time>2018-09-14T22:50:05Z</time>
      </trkpt>
      <trkpt lat="46.29862" lon="10.57247">
        <ele>2504.814</ele>
        <time>2018-09-14T22:50:25Z</time>
      </trkpt>
      <trkpt lat="46.2986" lon="10.57247">
        <ele>2504.908</ele>
        <time>2018-09-14T22:50:45Z</time>
      </trkpt>
      <trkpt lat="46.29858" lon="10.57248">
        <ele>2505.036</ele>
        <time>2018-09-14T22:51:05Z</time>
      </trkpt>
      <trkpt lat="46.29856" lon="10.57249">
        <ele>2505.192</ele>
        <time>2018-09-14T22:51:25Z</time>
      </trkpt>
      <trkpt lat="46.29854" lon="10.57249">
        <ele>2505.179</ele>
        <time>2018-09-14T22:51:45Z</time>
      </trkpt>
      <trkpt lat="46.29852" lon="10.57249">
        <ele>2504.992</ele>
        <time>2018-09-14T22:52:05Z</time>
      </trkpt>
      <trkpt lat="46.2985" lon="10.5725">
        <ele>2505.175</ele>
        <time>2018-09-14T22:52:25Z</time>
      </trkpt>
      <trkpt lat="46.29847" lon="10.57251">
        <ele>2505.268</ele>
        <time>2018-09-14T22:52:45Z</time>
      </trkpt>
      <trkpt lat="46.29845" lon="10.57252">
        <ele>2505.396</ele>
        <time>2018-09-14T22:53:05Z</time>
      </trkpt>
      <trkpt lat="46.29843" lon="10.57252">
        <ele>2505.453</ele>
        <time>2018-09-14T22:53:25Z</time>
      </trkpt>
      <trkpt lat="46.29841" lon="10.57252">
        <ele>2505.247</ele>
        <time>2018-09-14T22:53:45Z</time>
      </trkpt>
      <trkpt lat="46.29839" lon="10.57252">
        <ele>2505.229</ele>
        <time>2018-09-14T22:54:05Z</time>
      </trkpt>
      <trkpt lat="46.29837" lon="10.57253">
        <ele>2505.221</ele>
        <time>2018-09-14T22:54:25Z</time>
      </trkpt>
      <trkpt lat="46.29835" lon="10.57254">
        <ele>2505.408</ele>
        <time>2018-09-14T22:54:45Z</time>
      </trkpt>
      <trkpt lat="46.29833" lon="10.57254">
        <ele>2505.576</ele>
        <time>2018-09-14T22:55:05Z</time>
      </trkpt>
      <trkpt lat="46.29832" lon="10.57255">
        <ele>2505.652</ele>
        <time>2018-09-14T22:55:25Z</time>
      </trkpt>
      <trkpt lat="46.29829" lon="10.57257">
        <ele>2505.759</ele>
        <time>2018-09-14T22:55:45Z</time>
      </trkpt>
      <trkpt lat="46.29827" lon="10.57259">
        <ele>2506.172</ele>
        <time>2018-09-14T22:56:05Z</time>
      </trkpt>
      <trkpt lat="46.29825" lon="10.5726">
        <ele>2506.265</ele>
        <time>2018-09-14T22:56:25Z</time>
      </trkpt>
      <trkpt lat="46.29823" lon="10.57261">
        <ele>2506.438</ele>
        <time>2018-09-14T22:56:45Z</time>
      </trkpt>
      <trkpt lat="46.2982" lon="10.57262">
        <ele>2506.446</ele>
        <time>2018-09-14T22:57:05Z</time>
      </trkpt>
      <trkpt lat="46.29818" lon="10.57263">
        <ele>2506.413</ele>
        <time>2018-09-14T22:57:25Z</time>
      </trkpt>
      <trkpt lat="46.29816" lon="10.57264">
        <ele>2506.632</ele>
        <time>2018-09-14T22:57:45Z</time>
      </trkpt>
      <trkpt lat="46.29814" lon="10.57265">
        <ele>2506.692</ele>
        <time>2018-09-14T22:58:05Z</time>
      </trkpt>
      <trkpt lat="46.29812" lon="10.57266">
        <ele>2506.611</ele>
        <time>2018-09-14T22:58:25Z</time>
      </trkpt>
      <trkpt lat="46.2981" lon="10.57267">
        <ele>2506.508</ele>
        <time>2018-09-14T22:58:45Z</time>
      </trkpt>
      <trkpt lat="46.29808" lon="10.57267">
        <ele>2506.565</ele>
        <time>2018-09-14T22:59:05Z</time>
      </trkpt>
      <trkpt lat="46.29806" lon="10.57269">
        <ele>2506.691</ele>
        <time>2018-09-14T22:59:25Z</time>
      </trkpt>
      <trkpt lat="46.29804" lon="10.57269">
        <ele>2506.518</ele>
        <time>2018-09-14T22:59:45Z</time>
      </trkpt>
      <trkpt lat="46.29802" lon="10.5727">
        <ele>2506.571</ele>
        <time>2018-09-14T23:00:05Z</time>
      </trkpt>
      <trkpt lat="46.298" lon="10.57271">
        <ele>2506.674</ele>
        <time>2018-09-14T23:00:25Z</time>
      </trkpt>
      <trkpt lat="46.29799" lon="10.57273">
        <ele>2506.877</ele>
        <time>2018-09-14T23:00:45Z</time>
      </trkpt>
      <trkpt lat="46.29796" lon="10.57275">
        <ele>2507.225</ele>
        <time>2018-09-14T23:01:05Z</time>
      </trkpt>
      <trkpt lat="46.29795" lon="10.57277">
        <ele>2507.742</ele>
        <time>2018-09-14T23:01:25Z</time>
      </trkpt>
      <trkpt lat="46.29793" lon="10.57278">
        <ele>2507.922</ele>
        <time>2018-09-14T23:01:45Z</time>
      </trkpt>
      <trkpt lat="46.29791" lon="10.5728">
        <ele>2508.062</ele>
        <time>2018-09-14T23:02:05Z</time>
      </trkpt>
      <trkpt lat="46.29789" lon="10.57281">
        <ele>2508.208</ele>
        <time>2018-09-14T23:02:25Z</time>
      </trkpt>
      <trkpt lat="46.29786" lon="10.57283">
        <ele>2508.608</ele>
        <time>2018-09-14T23:02:45Z</time>
      </trkpt>
      <trkpt lat="46.29784" lon="10.57285">
        <ele>2509.134</ele>
        <time>2018-09-14T23:03:05Z</time>
      </trkpt>
      <trkpt lat="46.29782" lon="10.57286">
        <ele>2509.26</ele>
        <time>2018-09-14T23:03:25Z</time>
      </trkpt>
      <trkpt lat="46.2978" lon="10.57287">
        <ele>2509.417</ele>
        <time>2018-09-14T23:03:45Z</time>
      </trkpt>
      <trkpt lat="46.29778" lon="10.57288">
        <ele>2509.45</ele>
        <time>2018-09-14T23:04:05Z</time>
      </trkpt>
      <trkpt lat="46.29776" lon="10.5729">
        <ele>2510.313</ele>
        <time>2018-09-14T23:04:25Z</time>
      </trkpt>
      <trkpt lat="46.29774" lon="10.57291">
        <ele>2511.436</ele>
        <time>2018-09-14T23:04:45Z</time>
      </trkpt>
      <trkpt lat="46.29772" lon="10.57292">
        <ele>2512.264</ele>
        <time>2018-09-14T23:05:05Z</time>
      </trkpt>
      <trkpt lat="46.2977" lon="10.57293">
        <ele>2513.111</ele>
        <time>2018-09-14T23:05:25Z</time>
      </trkpt>
      <trkpt lat="46.29768" lon="10.57294">
        <ele>2513.944</ele>
        <time>2018-09-14T23:05:45Z</time>
      </trkpt>
      <trkpt lat="46.29766" lon="10.57295">
        <ele>2514.905</ele>
        <time>2018-09-14T23:06:05Z</time>
      </trkpt>
      <trkpt lat="46.29764" lon="10.57296">
        <ele>2515.815</ele>
        <time>2018-09-14T23:06:25Z</time>
      </trkpt>
      <trkpt lat="46.29762" lon="10.57297">
        <ele>2516.508</ele>
        <time>2018-09-14T23:06:45Z</time>
      </trkpt>
      <trkpt lat="46.2976" lon="10.57297">
        <ele>2517.156</ele>
        <time>2018-09-14T23:07:05Z</time>
      </trkpt>
      <trkpt lat="46.29758" lon="10.57297">
        <ele>2517.752</ele>
        <time>2018-09-14T23:07:25Z</time>
      </trkpt>
      <trkpt lat="46.29756" lon="10.57297">
        <ele>2518.139</ele>
        <time>2018-09-14T23:07:45Z</time>
      </trkpt>
      <trkpt lat="46.29754" lon="10.57296">
        <ele>2518.282</ele>
        <time>2018-09-14T23:08:05Z</time>
      </trkpt>
      <trkpt lat="46.29752" lon="10.57295">
        <ele>2517.955</ele>
        <time>2018-09-14T23:08:25Z</time>
      </trkpt>
      <trkpt lat="46.2975" lon="10.57294">
        <ele>2517.668</ele>
        <time>2018-09-14T23:08:45Z</time>
      </trkpt>
      <trkpt lat="46.29748" lon="10.57292">
        <ele>2517.586</ele>
        <time>2018-09-14T23:09:05Z</time>
      </trkpt>
      <trkpt lat="46.29746" lon="10.5729">
        <ele>2517.223</ele>
        <time>2018-09-14T23:09:25Z</time>
      </trkpt>
      <trkpt lat="46.29744" lon="10.57289">
        <ele>2517.342</ele>
        <time>2018-09-14T23:09:45Z</time>
      </trkpt>
      <trkpt lat="46.29742" lon="10.57288">
        <ele>2517.922</ele>
        <time>2018-09-14T23:10:05Z</time>
      </trkpt>
      <trkpt lat="46.2974" lon="10.57287">
        <ele>2518.314</ele>
        <time>2018-09-14T23:10:25Z</time>
      </trkpt>
      <trkpt lat="46.29738" lon="10.57286">
        <ele>2518.608</ele>
        <time>2018-09-14T23:10:45Z</time>
      </trkpt>
      <trkpt lat="46.29736" lon="10.57286">
        <ele>2519.296</ele>
        <time>2018-09-14T23:11:05Z</time>
      </trkpt>
      <trkpt lat="46.29734" lon="10.57285">
        <ele>2519.772</ele>
        <time>2018-09-14T23:11:25Z</time>
      </trkpt>
      <trkpt lat="46.29732" lon="10.57285">
        <ele>2520.559</ele>
        <time>2018-09-14T23:11:45Z</time>
      </trkpt>
      <trkpt lat="46.2973" lon="10.57284">
        <ele>2521.252</ele>
        <time>2018-09-14T23:12:05Z</time>
      </trkpt>
      <trkpt lat="46.29728" lon="10.57283">
        <ele>2521.755</ele>
        <time>2018-09-14T23:12:25Z</time>
      </trkpt>
      <trkpt lat="46.29725" lon="10.57283">
        <ele>2522.618</ele>
        <time>2018-09-14T23:12:45Z</time>
      </trkpt>
      <trkpt lat="46.29723" lon="10.57282">
        <ele>2523.476</ele>
        <time>2018-09-14T23:13:05Z</time>
      </trkpt>
      <trkpt lat="46.29721" lon="10.57282">
        <ele>2524.543</ele>
        <time>2018-09-14T23:13:25Z</time>
      </trkpt>
      <trkpt lat="46.29718" lon="10.57282">
        <ele>2525.155</ele>
        <time>2018-09-14T23:13:45Z</time>
      </trkpt>
      <trkpt lat="46.29716" lon="10.57282">
        <ele>2525.807</ele>
        <time>2018-09-14T23:14:05Z</time>
      </trkpt>
      <trkpt lat="46.29714" lon="10.57282">
        <ele>2526.717</ele>
        <time>2018-09-14T23:14:25Z</time>
      </trkpt>
      <trkpt lat="46.29711" lon="10.57282">
        <ele>2527.608</ele>
        <time>2018-09-14T23:14:45Z</time>
      </trkpt>
      <trkpt lat="46.29709" lon="10.57282">
        <ele>2528.227</ele>
        <time>2018-09-14T23:15:05Z</time>
      </trkpt>
      <trkpt lat="46.29707" lon="10.57283">
        <ele>2529.173</ele>
        <time>2018-09-14T23:15:25Z</time>
      </trkpt>
      <trkpt lat="46.29706" lon="10.57283">
        <ele>2530.24</ele>
        <time>2018-09-14T23:15:45Z</time>
      </trkpt>
      <trkpt lat="46.29704" lon="10.57284">
        <ele>2531.263</ele>
        <time>2018-09-14T23:16:05Z</time>
      </trkpt>
      <trkpt lat="46.29702" lon="10.57285">
        <ele>2532.336</ele>
        <time>2018-09-14T23:16:25Z</time>
      </trkpt>
      <trkpt lat="46.297" lon="10.57285">
        <ele>2533.199</ele>
        <time>2018-09-14T23:16:45Z</time>
      </trkpt>
      <trkpt lat="46.29698" lon="10.57286">
        <ele>2534.427</ele>
        <time>2018-09-14T23:17:05Z</time>
      </trkpt>
      <trkpt lat="46.29696" lon="10.57287">
        <ele>2535.664</ele>
        <time>2018-09-14T23:17:25Z</time>
      </trkpt>
      <trkpt lat="46.29694" lon="10.57288">
        <ele>2536.672</ele>
        <time>2018-09-14T23:17:45Z</time>
      </trkpt>
      <trkpt lat="46.29692" lon="10.57289">
        <ele>2537.613</ele>
        <time>2018-09-14T23:18:05Z</time>
      </trkpt>
      <trkpt lat="46.29689" lon="10.57289">
        <ele>2538.814</ele>
        <time>2018-09-14T23:18:25Z</time>
      </trkpt>
      <trkpt lat="46.29687" lon="10.5729">
        <ele>2539.908</ele>
        <time>2018-09-14T23:18:45Z</time>
      </trkpt>
      <trkpt lat="46.29685" lon="10.57291">
        <ele>2541.289</ele>
        <time>2018-09-14T23:19:05Z</time>
      </trkpt>
      <trkpt lat="46.29682" lon="10.57292">
        <ele>2542.885</ele>
        <time>2018-09-14T23:19:25Z</time>
      </trkpt>
      <trkpt lat="46.2968" lon="10.57293">
        <ele>2543.882</ele>
        <time>2018-09-14T23:19:45Z</time>
      </trkpt>
      <trkpt lat="46.29679" lon="10.57294">
        <ele>2545.265</ele>
        <time>2018-09-14T23:20:05Z</time>
      </trkpt>
      <trkpt lat="46.29677" lon="10.57293">
        <ele>2545.798</ele>
        <time>2018-09-14T23:20:25Z</time>
      </trkpt>
      <trkpt lat="46.29674" lon="10.57294">
        <ele>2546.661</ele>
        <time>2018-09-14T23:20:45Z</time>
      </trkpt>
      <trkpt lat="46.29672" lon="10.57293">
        <ele>2546.769</ele>
        <time>2018-09-14T23:21:05Z</time>
      </trkpt>
      <trkpt lat="46.29671" lon="10.57291">
        <ele>2545.966</ele>
        <time>2018-09-14T23:21:25Z</time>
      </trkpt>
      <trkpt lat="46.2967" lon="10.57289">
        <ele>2544.952</ele>
        <time>2018-09-14T23:21:45Z</time>
      </trkpt>
      <trkpt lat="46.29668" lon="10.57286">
        <ele>2543.553</ele>
        <time>2018-09-14T23:22:05Z</time>
      </trkpt>
      <trkpt lat="46.29667" lon="10.57284">
        <ele>2542.608</ele>
        <time>2018-09-14T23:22:25Z</time>
      </trkpt>
      <trkpt lat="46.29665" lon="10.57284">
        <ele>2543.508</ele>
        <time>2018-09-14T23:22:45Z</time>
      </trkpt>
      <trkpt lat="46.29663" lon="10.57283">
        <ele>2544.177</ele>
        <time>2018-09-14T23:23:05Z</time>
      </trkpt>
      <trkpt lat="46.29661" lon="10.57282">
        <ele>2543.283</ele>
        <time>2018-09-14T23:23:25Z</time>
      </trkpt>
      <trkpt lat="46.2966" lon="10.5728">
        <ele>2541.69</ele>
        <time>2018-09-14T23:23:45Z</time>
      </trkpt>
      <trkpt lat="46.29658" lon="10.57279">
        <ele>2540.943</ele>
        <time>2018-09-14T23:24:05Z</time>
      </trkpt>
      <trkpt lat="46.29656" lon="10.57276">
        <ele>2539.976</ele>
        <time>2018-09-14T23:24:25Z</time>
      </trkpt>
      <trkpt lat="46.29655" lon="10.57274">
        <ele>2539.469</ele>
        <time>2018-09-14T23:24:45Z</time>
      </trkpt>
      <trkpt lat="46.29653" lon="10.57273">
        <ele>2539.197</ele>
        <time>2018-09-14T23:25:05Z</time>
      </trkpt>
      <trkpt lat="46.29651" lon="10.57272">
        <ele>2539.174</ele>
        <time>2018-09-14T23:25:25Z</time>
      </trkpt>
      <trkpt lat="46.29649" lon="10.57272">
        <ele>2539.538</ele>
        <time>2018-09-14T23:25:45Z</time>
      </trkpt>
      <trkpt lat="46.29647" lon="10.57271">
        <ele>2539.87</ele>
        <time>2018-09-14T23:26:05Z</time>
      </trkpt>
      <trkpt lat="46.29645" lon="10.57272">
        <ele>2540.517</ele>
        <time>2018-09-14T23:26:25Z</time>
      </trkpt>
      <trkpt lat="46.29643" lon="10.57271">
        <ele>2540.708</ele>
        <time>2018-09-14T23:26:45Z</time>
      </trkpt>
      <trkpt lat="46.29641" lon="10.5727">
        <ele>2540.985</ele>
        <time>2018-09-14T23:27:05Z</time>
      </trkpt>
      <trkpt lat="46.29639" lon="10.57272">
        <ele>2542.451</ele>
        <time>2018-09-14T23:27:25Z</time>
      </trkpt>
      <trkpt lat="46.29637" lon="10.57272">
        <ele>2545.028</ele>
        <time>2018-09-14T23:27:45Z</time>
      </trkpt>
      <trkpt lat="46.29635" lon="10.57273">
        <ele>2547.811</ele>
        <time>2018-09-14T23:28:05Z</time>
      </trkpt>
      <trkpt lat="46.29633" lon="10.57273">
        <ele>2551.134</ele>
        <time>2018-09-14T23:28:25Z</time>
      </trkpt>
      <trkpt lat="46.29631" lon="10.57273">
        <ele>2553.867</ele>
        <time>2018-09-14T23:28:45Z</time>
      </trkpt>
      <trkpt lat="46.29629" lon="10.57273">
        <ele>2556.565</ele>
        <time>2018-09-14T23:29:05Z</time>
      </trkpt>
      <trkpt lat="46.29627" lon="10.57271">
        <ele>2557.772</ele>
        <time>2018-09-14T23:29:25Z</time>
      </trkpt>
      <trkpt lat="46.29625" lon="10.5727">
        <ele>2560.235</ele>
        <time>2018-09-14T23:29:45Z</time>
      </trkpt>
      <trkpt lat="46.29623" lon="10.5727">
        <ele>2563.586</ele>
        <time>2018-09-14T23:30:05Z</time>
      </trkpt>
      <trkpt lat="46.2962" lon="10.57271">
        <ele>2566.914</ele>
        <time>2018-09-14T23:30:25Z</time>
      </trkpt>
      <trkpt lat="46.29618" lon="10.57269">
        <ele>2568.908</ele>
        <time>2018-09-14T23:30:45Z</time>
      </trkpt>
      <trkpt lat="46.29616" lon="10.57269">
        <ele>2570.825</ele>
        <time>2018-09-14T23:31:05Z</time>
      </trkpt>
      <trkpt lat="46.29614" lon="10.57267">
        <ele>2572.771</ele>
        <time>2018-09-14T23:31:25Z</time>
      </trkpt>
      <trkpt lat="46.29612" lon="10.57268">
        <ele>2576.728</ele>
        <time>2018-09-14T23:31:45Z</time>
      </trkpt>
      <trkpt lat="46.2961" lon="10.57269">
        <ele>2579.611</ele>
        <time>2018-09-14T23:32:05Z</time>
      </trkpt>
      <trkpt lat="46.29608" lon="10.57271">
        <ele>2582.674</ele>
        <time>2018-09-14T23:32:25Z</time>
      </trkpt>
      <trkpt lat="46.29606" lon="10.57272">
        <ele>2585.437</ele>
        <time>2018-09-14T23:32:45Z</time>
      </trkpt>
      <trkpt lat="46.29604" lon="10.57272">
        <ele>2587.135</ele>
        <time>2018-09-14T23:33:05Z</time>
      </trkpt>
      <trkpt lat="46.29601" lon="10.57273">
        <ele>2589.712</ele>
        <time>2018-09-14T23:33:25Z</time>
      </trkpt>
      <trkpt lat="46.296" lon="10.57272">
        <ele>2590.499</ele>
        <time>2018-09-14T23:33:45Z</time>
      </trkpt>
      <trkpt lat="46.29598" lon="10.57269">
        <ele>2588.907</ele>
        <time>2018-09-14T23:34:05Z</time>
      </trkpt>
      <trkpt lat="46.29597" lon="10.57267">
        <ele>2588.927</ele>
        <time>2018-09-14T23:34:25Z</time>
      </trkpt>
      <trkpt lat="46.29595" lon="10.57265">
        <ele>2588.408</ele>
        <time>2018-09-14T23:34:45Z</time>
      </trkpt>
      <trkpt lat="46.29593" lon="10.57263">
        <ele>2588.181</ele>
        <time>2018-09-14T23:35:05Z</time>
      </trkpt>
      <trkpt lat="46.29591" lon="10.57262">
        <ele>2588.147</ele>
        <time>2018-09-14T23:35:25Z</time>
      </trkpt>
      <trkpt lat="46.29589" lon="10.5726">
        <ele>2587.734</ele>
        <time>2018-09-14T23:35:45Z</time>
      </trkpt>
      <trkpt lat="46.29588" lon="10.57258">
        <ele>2587.247</ele>
        <time>2018-09-14T23:36:05Z</time>
      </trkpt>
      <trkpt lat="46.29586" lon="10.57257">
        <ele>2587.88</ele>
        <time>2018-09-14T23:36:25Z</time>
      </trkpt>
      <trkpt lat="46.29584" lon="10.57256">
        <ele>2588.043</ele>
        <time>2018-09-14T23:36:45Z</time>
      </trkpt>
      <trkpt lat="46.29582" lon="10.57254">
        <ele>2587.771</ele>
        <time>2018-09-14T23:37:05Z</time>
      </trkpt>
      <trkpt lat="46.2958" lon="10.57252">
        <ele>2587.488</ele>
        <time>2018-09-14T23:37:25Z</time>
      </trkpt>
      <trkpt lat="46.29578" lon="10.57251">
        <ele>2588.478</ele>
        <time>2018-09-14T23:37:45Z</time>
      </trkpt>
      <trkpt lat="46.29575" lon="10.5725">
        <ele>2589.433</ele>
        <time>2018-09-14T23:38:05Z</time>
      </trkpt>
      <trkpt lat="46.29574" lon="10.57249">
        <ele>2590.126</ele>
        <time>2018-09-14T23:38:25Z</time>
      </trkpt>
      <trkpt lat="46.29564" lon="10.57245">
        <ele>2595.008</ele>
        <time>2018-09-14T23:38:45Z</time>
      </trkpt>
      <trkpt lat="46.29563" lon="10.57244">
        <ele>2595.369</ele>
        <time>2018-09-14T23:39:05Z</time>
      </trkpt>
      <trkpt lat="46.29561" lon="10.57244">
        <ele>2596.765</ele>
        <time>2018-09-14T23:39:25Z</time>
      </trkpt>
      <trkpt lat="46.29559" lon="10.57243">
        <ele>2597.692</ele>
        <time>2018-09-14T23:39:45Z</time>
      </trkpt>
      <trkpt lat="46.29557" lon="10.57241">
        <ele>2597.795</ele>
        <time>2018-09-14T23:40:05Z</time>
      </trkpt>
      <trkpt lat="46.29556" lon="10.5724">
        <ele>2598.458</ele>
        <time>2018-09-14T23:40:25Z</time>
      </trkpt>
      <trkpt lat="46.29554" lon="10.5724">
        <ele>2600.541</ele>
        <time>2018-09-14T23:40:45Z</time>
      </trkpt>
      <trkpt lat="46.29552" lon="10.5724">
        <ele>2602.879</ele>
        <time>2018-09-14T23:41:05Z</time>
      </trkpt>
      <trkpt lat="46.2955" lon="10.5724">
        <ele>2604.366</ele>
        <time>2018-09-14T23:41:25Z</time>
      </trkpt>
      <trkpt lat="46.29548" lon="10.57239">
        <ele>2605.852</ele>
        <time>2018-09-14T23:41:45Z</time>
      </trkpt>
      <trkpt lat="46.29546" lon="10.57239">
        <ele>2608.053</ele>
        <time>2018-09-14T23:42:05Z</time>
      </trkpt>
      <trkpt lat="46.29544" lon="10.57238">
        <ele>2608.808</ele>
        <time>2018-09-14T23:42:25Z</time>
      </trkpt>
      <trkpt lat="46.29542" lon="10.57239">
        <ele>2612.108</ele>
        <time>2018-09-14T23:42:45Z</time>
      </trkpt>
      <trkpt lat="46.2954" lon="10.57238">
        <ele>2613.377</ele>
        <time>2018-09-14T23:43:05Z</time>
      </trkpt>
      <trkpt lat="46.29538" lon="10.57237">
        <ele>2614.813</ele>
        <time>2018-09-14T23:43:25Z</time>
      </trkpt>
      <trkpt lat="46.29536" lon="10.57236">
        <ele>2615.27</ele>
        <time>2018-09-14T23:43:45Z</time>
      </trkpt>
      <trkpt lat="46.29535" lon="10.57234">
        <ele>2615.193</ele>
        <time>2018-09-14T23:44:05Z</time>
      </trkpt>
      <trkpt lat="46.29526" lon="10.57223">
        <ele>2611.616</ele>
        <time>2018-09-14T23:44:25Z</time>
      </trkpt>
      <trkpt lat="46.29525" lon="10.57221">
        <ele>2610.989</ele>
        <time>2018-09-14T23:44:45Z</time>
      </trkpt>
      <trkpt lat="46.29524" lon="10.57218">
        <ele>2609.397</ele>
        <time>2018-09-14T23:45:05Z</time>
      </trkpt>
      <trkpt lat="46.29524" lon="10.57215">
        <ele>2606.294</ele>
        <time>2018-09-14T23:45:25Z</time>
      </trkpt>
      <trkpt lat="46.29523" lon="10.57212">
        <ele>2604.912</ele>
        <time>2018-09-14T23:45:45Z</time>
      </trkpt>
      <trkpt lat="46.29522" lon="10.5721">
        <ele>2603.732</ele>
        <time>2018-09-14T23:46:05Z</time>
      </trkpt>
      <trkpt lat="46.29521" lon="10.57208">
        <ele>2602.905</ele>
        <time>2018-09-14T23:46:25Z</time>
      </trkpt>
      <trkpt lat="46.29519" lon="10.57206">
        <ele>2602.508</ele>
        <time>2018-09-14T23:46:45Z</time>
      </trkpt>
      <trkpt lat="46.29518" lon="10.57204">
        <ele>2602.563</ele>
        <time>2018-09-14T23:47:05Z</time>
      </trkpt>
      <trkpt lat="46.29516" lon="10.57202">
        <ele>2603.749</ele>
        <time>2018-09-14T23:47:25Z</time>
      </trkpt>
      <trkpt lat="46.29513" lon="10.57202">
        <ele>2606.296</ele>
        <time>2018-09-14T23:47:45Z</time>
      </trkpt>
      <trkpt lat="46.29511" lon="10.57202">
        <ele>2608.719</ele>
        <time>2018-09-14T23:48:05Z</time>
      </trkpt>
      <trkpt lat="46.29509" lon="10.57202">
        <ele>2610.862</ele>
        <time>2018-09-14T23:48:25Z</time>
      </trkpt>
      <trkpt lat="46.29507" lon="10.57202">
        <ele>2613.395</ele>
        <time>2018-09-14T23:48:45Z</time>
      </trkpt>
      <trkpt lat="46.29505" lon="10.57201">
        <ele>2615.743</ele>
        <time>2018-09-14T23:49:05Z</time>
      </trkpt>
      <trkpt lat="46.29503" lon="10.57199">
        <ele>2616.81</ele>
        <time>2018-09-14T23:49:25Z</time>
      </trkpt>
      <trkpt lat="46.29501" lon="10.57197">
        <ele>2617.628</ele>
        <time>2018-09-14T23:49:45Z</time>
      </trkpt>
      <trkpt lat="46.29499" lon="10.57195">
        <ele>2618.089</ele>
        <time>2018-09-14T23:50:05Z</time>
      </trkpt>
      <trkpt lat="46.29497" lon="10.57193">
        <ele>2618.817</ele>
        <time>2018-09-14T23:50:25Z</time>
      </trkpt>
      <trkpt lat="46.29495" lon="10.57192">
        <ele>2619.508</ele>
        <time>2018-09-14T23:50:45Z</time>
      </trkpt>
      <trkpt lat="46.29493" lon="10.57189">
        <ele>2619.724</ele>
        <time>2018-09-14T23:51:05Z</time>
      </trkpt>
      <trkpt lat="46.29492" lon="10.57188">
        <ele>2620.47</ele>
        <time>2018-09-14T23:51:25Z</time>
      </trkpt>
      <trkpt lat="46.2949" lon="10.57185">
        <ele>2620.467</ele>
        <time>2018-09-14T23:51:45Z</time>
      </trkpt>
      <trkpt lat="46.29489" lon="10.57183">
        <ele>2620.76</ele>
        <time>2018-09-14T23:52:05Z</time>
      </trkpt>
      <trkpt lat="46.29487" lon="10.57181">
        <ele>2621.153</ele>
        <time>2018-09-14T23:52:25Z</time>
      </trkpt>
      <trkpt lat="46.29485" lon="10.57179">
        <ele>2621.856</ele>
        <time>2018-09-14T23:52:45Z</time>
      </trkpt>
      <trkpt lat="46.29483" lon="10.57177">
        <ele>2622.124</ele>
        <time>2018-09-14T23:53:05Z</time>
      </trkpt>
      <trkpt lat="46.29482" lon="10.57175">
        <ele>2622.621</ele>
        <time>2018-09-14T23:53:25Z</time>
      </trkpt>
      <trkpt lat="46.2948" lon="10.57173">
        <ele>2623.748</ele>
        <time>2018-09-14T23:53:45Z</time>
      </trkpt>
      <trkpt lat="46.29478" lon="10.57171">
        <ele>2624.061</ele>
        <time>2018-09-14T23:54:05Z</time>
      </trkpt>
      <trkpt lat="46.29476" lon="10.5717">
        <ele>2625.817</ele>
        <time>2018-09-14T23:54:25Z</time>
      </trkpt>
      <trkpt lat="46.29474" lon="10.57168">
        <ele>2626.608</ele>
        <time>2018-09-14T23:54:45Z</time>
      </trkpt>
      <trkpt lat="46.29472" lon="10.57167">
        <ele>2627.756</ele>
        <time>2018-09-14T23:55:05Z</time>
      </trkpt>
      <trkpt lat="46.2947" lon="10.57165">
        <ele>2628.222</ele>
        <time>2018-09-14T23:55:25Z</time>
      </trkpt>
      <trkpt lat="46.29468" lon="10.57164">
        <ele>2629.129</ele>
        <time>2018-09-14T23:55:45Z</time>
      </trkpt>
      <trkpt lat="46.29466" lon="10.57162">
        <ele>2629.912</ele>
        <time>2018-09-14T23:56:05Z</time>
      </trkpt>
      <trkpt lat="46.29464" lon="10.57161">
        <ele>2630.345</ele>
        <time>2018-09-14T23:56:25Z</time>
      </trkpt>
      <trkpt lat="46.29462" lon="10.57158">
        <ele>2630.398</ele>
        <time>2018-09-14T23:56:45Z</time>
      </trkpt>
      <trkpt lat="46.2946" lon="10.57157">
        <ele>2631.726</ele>
        <time>2018-09-14T23:57:05Z</time>
      </trkpt>
      <trkpt lat="46.29458" lon="10.57155">
        <ele>2632.793</ele>
        <time>2018-09-14T23:57:25Z</time>
      </trkpt>
      <trkpt lat="46.29455" lon="10.57154">
        <ele>2634.338</ele>
        <time>2018-09-14T23:57:45Z</time>
      </trkpt>
      <trkpt lat="46.29453" lon="10.57153">
        <ele>2635.37</ele>
        <time>2018-09-14T23:58:05Z</time>
      </trkpt>
      <trkpt lat="46.29451" lon="10.57151">
        <ele>2636.417</ele>
        <time>2018-09-14T23:58:25Z</time>
      </trkpt>
      <trkpt lat="46.29449" lon="10.5715">
        <ele>2637.808</ele>
        <time>2018-09-14T23:58:45Z</time>
      </trkpt>
      <trkpt lat="46.29447" lon="10.57149">
        <ele>2638.895</ele>
        <time>2018-09-14T23:59:05Z</time>
      </trkpt>
      <trkpt lat="46.29445" lon="10.57147">
        <ele>2639.351</ele>
        <time>2018-09-14T23:59:25Z</time>
      </trkpt>
      <trkpt lat="46.29443" lon="10.57145">
        <ele>2639.718</ele>
        <time>2018-09-14T23:59:45Z</time>
      </trkpt>
      <trkpt lat="46.29441" lon="10.57143">
        <ele>2639.641</ele>
        <time>2018-09-15T00:00:05Z</time>
      </trkpt>
      <trkpt lat="46.2944" lon="10.57141">
        <ele>2639.194</ele>
        <time>2018-09-15T00:00:25Z</time>
      </trkpt>
      <trkpt lat="46.29438" lon="10.57139">
        <ele>2639.247</ele>
        <time>2018-09-15T00:00:45Z</time>
      </trkpt>
      <trkpt lat="46.29435" lon="10.57138">
        <ele>2640.355</ele>
        <time>2018-09-15T00:01:05Z</time>
      </trkpt>
      <trkpt lat="46.29434" lon="10.57137">
        <ele>2641.232</ele>
        <time>2018-09-15T00:01:25Z</time>
      </trkpt>
      <trkpt lat="46.29432" lon="10.57135">
        <ele>2642.011</ele>
        <time>2018-09-15T00:01:45Z</time>
      </trkpt>
      <trkpt lat="46.2943" lon="10.57134">
        <ele>2642.221</ele>
        <time>2018-09-15T00:02:05Z</time>
      </trkpt>
      <trkpt lat="46.29429" lon="10.57131">
        <ele>2642.103</ele>
        <time>2018-09-15T00:02:25Z</time>
      </trkpt>
      <trkpt lat="46.29426" lon="10.57128">
        <ele>2643.408</ele>
        <time>2018-09-15T00:02:45Z</time>
      </trkpt>
      <trkpt lat="46.29424" lon="10.57126">
        <ele>2643.923</ele>
        <time>2018-09-15T00:03:05Z</time>
      </trkpt>
      <trkpt lat="46.29422" lon="10.57126">
        <ele>2646.499</ele>
        <time>2018-09-15T00:03:25Z</time>
      </trkpt>
      <trkpt lat="46.29421" lon="10.57124">
        <ele>2646.856</ele>
        <time>2018-09-15T00:03:45Z</time>
      </trkpt>
      <trkpt lat="46.29418" lon="10.57122">
        <ele>2648.079</ele>
        <time>2018-09-15T00:04:05Z</time>
      </trkpt>
      <trkpt lat="46.29417" lon="10.5712">
        <ele>2649.292</ele>
        <time>2018-09-15T00:04:25Z</time>
      </trkpt>
      <trkpt lat="46.29415" lon="10.57119">
        <ele>2649.955</ele>
        <time>2018-09-15T00:04:45Z</time>
      </trkpt>
      <trkpt lat="46.29413" lon="10.57119">
        <ele>2650.813</ele>
        <time>2018-09-15T00:05:05Z</time>
      </trkpt>
      <trkpt lat="46.29411" lon="10.57118">
        <ele>2651.87</ele>
        <time>2018-09-15T00:05:25Z</time>
      </trkpt>
      <trkpt lat="46.29408" lon="10.57117">
        <ele>2652.741</ele>
        <time>2018-09-15T00:05:45Z</time>
      </trkpt>
      <trkpt lat="46.29407" lon="10.57115">
        <ele>2652.781</ele>
        <time>2018-09-15T00:06:05Z</time>
      </trkpt>
      <trkpt lat="46.29405" lon="10.57116">
        <ele>2653.809</ele>
        <time>2018-09-15T00:06:25Z</time>
      </trkpt>
      <trkpt lat="46.29403" lon="10.57115">
        <ele>2654.708</ele>
        <time>2018-09-15T00:06:45Z</time>
      </trkpt>
      <trkpt lat="46.29402" lon="10.57113">
        <ele>2655.016</ele>
        <time>2018-09-15T00:07:05Z</time>
      </trkpt>
      <trkpt lat="46.294" lon="10.57111">
        <ele>2654.942</ele>
        <time>2018-09-15T00:07:25Z</time>
      </trkpt>
      <trkpt lat="46.29398" lon="10.57112">
        <ele>2656.069</ele>
        <time>2018-09-15T00:07:45Z</time>
      </trkpt>
      <trkpt lat="46.29397" lon="10.57114">
        <ele>2657.692</ele>
        <time>2018-09-15T00:08:05Z</time>
      </trkpt>
      <trkpt lat="46.29396" lon="10.57116">
        <ele>2659.175</ele>
        <time>2018-09-15T00:08:25Z</time>
      </trkpt>
      <trkpt lat="46.29396" lon="10.57119">
        <ele>2660.448</ele>
        <time>2018-09-15T00:08:45Z</time>
      </trkpt>
      <trkpt lat="46.29395" lon="10.57122">
        <ele>2661.866</ele>
        <time>2018-09-15T00:09:05Z</time>
      </trkpt>
      <trkpt lat="46.29396" lon="10.57125">
        <ele>2662.513</ele>
        <time>2018-09-15T00:09:25Z</time>
      </trkpt>
      <trkpt lat="46.29397" lon="10.57128">
        <ele>2662.711</ele>
        <time>2018-09-15T00:09:45Z</time>
      </trkpt>
      <trkpt lat="46.29399" lon="10.5713">
        <ele>2662.721</ele>
        <time>2018-09-15T00:10:05Z</time>
      </trkpt>
      <trkpt lat="46.29401" lon="10.5713">
        <ele>2661.603</ele>
        <time>2018-09-15T00:10:25Z</time>
      </trkpt>
      <trkpt lat="46.29403" lon="10.57132">
        <ele>2660.908</ele>
        <time>2018-09-15T00:10:45Z</time>
      </trkpt>
      <trkpt lat="46.29407" lon="10.57133">
        <ele>2659.633</ele>
        <time>2018-09-15T00:11:05Z</time>
      </trkpt>
      <trkpt lat="46.29408" lon="10.57135">
        <ele>2659.919</ele>
        <time>2018-09-15T00:11:25Z</time>
      </trkpt>
      <trkpt lat="46.29408" lon="10.57138">
        <ele>2660.896</ele>
        <time>2018-09-15T00:11:45Z</time>
      </trkpt>
      <trkpt lat="46.29409" lon="10.57141">
        <ele>2661.939</ele>
        <time>2018-09-15T00:12:05Z</time>
      </trkpt>
      <trkpt lat="46.29409" lon="10.57144">
        <ele>2663.482</ele>
        <time>2018-09-15T00:12:25Z</time>
      </trkpt>
      <trkpt lat="46.2941" lon="10.57147">
        <ele>2664.725</ele>
        <time>2018-09-15T00:12:45Z</time>
      </trkpt>
      <trkpt lat="46.29411" lon="10.57149">
        <ele>2665.573</ele>
        <time>2018-09-15T00:13:05Z</time>
      </trkpt>
      <trkpt lat="46.29412" lon="10.57151">
        <ele>2665.98</ele>
        <time>2018-09-15T00:13:25Z</time>
      </trkpt>
      <trkpt lat="46.29414" lon="10.57154">
        <ele>2666.683</ele>
        <time>2018-09-15T00:13:45Z</time>
      </trkpt>
      <trkpt lat="46.29416" lon="10.57155">
        <ele>2666.625</ele>
        <time>2018-09-15T00:14:05Z</time>
      </trkpt>
      <trkpt lat="46.29417" lon="10.57157">
        <ele>2666.417</ele>
        <time>2018-09-15T00:14:25Z</time>
      </trkpt>
      <trkpt lat="46.29419" lon="10.57157">
        <ele>2665.308</ele>
        <time>2018-09-15T00:14:45Z</time>
      </trkpt>
      <trkpt lat="46.29421" lon="10.57159">
        <ele>2665.35</ele>
        <time>2018-09-15T00:15:05Z</time>
      </trkpt>
      <trkpt lat="46.29422" lon="10.57162">
        <ele>2667.186</ele>
        <time>2018-09-15T00:15:25Z</time>
      </trkpt>
      <trkpt lat="46.29421" lon="10.57166">
        <ele>2669.363</ele>
        <time>2018-09-15T00:15:45Z</time>
      </trkpt>
      <trkpt lat="46.29422" lon="10.57168">
        <ele>2671.086</ele>
        <time>2018-09-15T00:16:05Z</time>
      </trkpt>
      <trkpt lat="46.29422" lon="10.57171">
        <ele>2672.589</ele>
        <time>2018-09-15T00:16:25Z</time>
      </trkpt>
      <trkpt lat="46.29422" lon="10.57174">
        <ele>2674.472</ele>
        <time>2018-09-15T00:16:45Z</time>
      </trkpt>
      <trkpt lat="46.2942" lon="10.57175">
        <ele>2676.24</ele>
        <time>2018-09-15T00:17:05Z</time>
      </trkpt>
      <trkpt lat="46.29418" lon="10.57173">
        <ele>2676.337</ele>
        <time>2018-09-15T00:17:25Z</time>
      </trkpt>
      <trkpt lat="46.29417" lon="10.57171">
        <ele>2675.527</ele>
        <time>2018-09-15T00:17:45Z</time>
      </trkpt>
      <trkpt lat="46.29415" lon="10.57169">
        <ele>2675.068</ele>
        <time>2018-09-15T00:18:05Z</time>
      </trkpt>
      <trkpt lat="46.29414" lon="10.57168">
        <ele>2675.614</ele>
        <time>2018-09-15T00:18:25Z</time>
      </trkpt>
      <trkpt lat="46.29412" lon="10.57168">
        <ele>2676.208</ele>
        <time>2018-09-15T00:18:45Z</time>
      </trkpt>
      <trkpt lat="46.29409" lon="10.57166">
        <ele>2676.414</ele>
        <time>2018-09-15T00:19:05Z</time>
      </trkpt>
      <trkpt lat="46.29407" lon="10.57165">
        <ele>2676.77</ele>
        <time>2018-09-15T00:19:25Z</time>
      </trkpt>
      <trkpt lat="46.29405" lon="10.57164">
        <ele>2677.287</ele>
        <time>2018-09-15T00:19:45Z</time>
      </trkpt>
      <trkpt lat="46.29404" lon="10.57164">
        <ele>2678.03</ele>
        <time>2018-09-15T00:20:05Z</time>
      </trkpt>
      <trkpt lat="46.29401" lon="10.57164">
        <ele>2679.023</ele>
        <time>2018-09-15T00:20:25Z</time>
      </trkpt>
      <trkpt lat="46.29399" lon="10.57164">
        <ele>2680.426</ele>
        <time>2018-09-15T00:20:45Z</time>
      </trkpt>
      <trkpt lat="46.29397" lon="10.57163">
        <ele>2681.034</ele>
        <time>2018-09-15T00:21:05Z</time>
      </trkpt>
      <trkpt lat="46.29395" lon="10.57162">
        <ele>2681.361</ele>
        <time>2018-09-15T00:21:25Z</time>
      </trkpt>
      <trkpt lat="46.29393" lon="10.57161">
        <ele>2681.523</ele>
        <time>2018-09-15T00:21:45Z</time>
      </trkpt>
      <trkpt lat="46.29391" lon="10.57159">
        <ele>2681.883</ele>
        <time>2018-09-15T00:22:05Z</time>
      </trkpt>
      <trkpt lat="46.29389" lon="10.57157">
        <ele>2681.711</ele>
        <time>2018-09-15T00:22:25Z</time>
      </trkpt>
      <trkpt lat="46.29388" lon="10.57155">
        <ele>2681.008</ele>
        <time>2018-09-15T00:22:45Z</time>
      </trkpt>
      <trkpt lat="46.29387" lon="10.57153">
        <ele>2680.394</ele>
        <time>2018-09-15T00:23:05Z</time>
      </trkpt>
      <trkpt lat="46.29385" lon="10.57151">
        <ele>2679.43</ele>
        <time>2018-09-15T00:23:25Z</time>
      </trkpt>
      <trkpt lat="46.29384" lon="10.5715">
        <ele>2679.317</ele>
        <time>2018-09-15T00:23:45Z</time>
      </trkpt>
      <trkpt lat="46.29382" lon="10.5715">
        <ele>2679.65</ele>
        <time>2018-09-15T00:24:05Z</time>
      </trkpt>
      <trkpt lat="46.29359" lon="10.57134">
        <ele>2681.313</ele>
        <time>2018-09-15T00:24:25Z</time>
      </trkpt>
      <trkpt lat="46.29359" lon="10.57134">
        <ele>2681.436</ele>
        <time>2018-09-15T00:24:45Z</time>
      </trkpt>
      <trkpt lat="46.29357" lon="10.57133">
        <ele>2681.674</ele>
        <time>2018-09-15T00:25:05Z</time>
      </trkpt>
      <trkpt lat="46.29355" lon="10.57131">
        <ele>2681.621</ele>
        <time>2018-09-15T00:25:25Z</time>
      </trkpt>
      <trkpt lat="46.29354" lon="10.57129">
        <ele>2681.562</ele>
        <time>2018-09-15T00:25:45Z</time>
      </trkpt>
      <trkpt lat="46.29352" lon="10.57127">
        <ele>2681.683</ele>
        <time>2018-09-15T00:26:05Z</time>
      </trkpt>
      <trkpt lat="46.2935" lon="10.57126">
        <ele>2681.911</ele>
        <time>2018-09-15T00:26:25Z</time>
      </trkpt>
      <trkpt lat="46.29348" lon="10.57124">
        <ele>2682.208</ele>
        <time>2018-09-15T00:26:45Z</time>
      </trkpt>
      <trkpt lat="46.29347" lon="10.57123">
        <ele>2682.498</ele>
        <time>2018-09-15T00:27:05Z</time>
      </trkpt>
      <trkpt lat="46.29345" lon="10.57121">
        <ele>2682.694</ele>
        <time>2018-09-15T00:27:25Z</time>
      </trkpt>
      <trkpt lat="46.29343" lon="10.57119">
        <ele>2682.941</ele>
        <time>2018-09-15T00:27:45Z</time>
      </trkpt>
      <trkpt lat="46.29341" lon="10.57119">
        <ele>2683.424</ele>
        <time>2018-09-15T00:28:05Z</time>
      </trkpt>
      <trkpt lat="46.29339" lon="10.57118">
        <ele>2683.977</ele>
        <time>2018-09-15T00:28:25Z</time>
      </trkpt>
      <trkpt lat="46.29338" lon="10.57115">
        <ele>2684.02</ele>
        <time>2018-09-15T00:28:45Z</time>
      </trkpt>
      <trkpt lat="46.29337" lon="10.57113">
        <ele>2683.748</ele>
        <time>2018-09-15T00:29:05Z</time>
      </trkpt>
      <trkpt lat="46.29337" lon="10.5711">
        <ele>2683.365</ele>
        <time>2018-09-15T00:29:25Z</time>
      </trkpt>
      <trkpt lat="46.29337" lon="10.57107">
        <ele>2682.652</ele>
        <time>2018-09-15T00:29:45Z</time>
      </trkpt>
      <trkpt lat="46.29336" lon="10.57104">
        <ele>2682.253</ele>
        <time>2018-09-15T00:30:05Z</time>
      </trkpt>
      <trkpt lat="46.29336" lon="10.57101">
        <ele>2681.908</ele>
        <time>2018-09-15T00:30:25Z</time>
      </trkpt>
      <trkpt lat="46.29335" lon="10.57098">
        <ele>2681.308</ele>
        <time>2018-09-15T00:30:45Z</time>
      </trkpt>
      <trkpt lat="46.29335" lon="10.57094">
        <ele>2680.757</ele>
        <time>2018-09-15T00:31:05Z</time>
      </trkpt>
      <trkpt lat="46.29335" lon="10.57091">
        <ele>2680.023</ele>
        <time>2018-09-15T00:31:25Z</time>
      </trkpt>
      <trkpt lat="46.29335" lon="10.57088">
        <ele>2679.52</ele>
        <time>2018-09-15T00:31:45Z</time>
      </trkpt>
      <trkpt lat="46.29335" lon="10.57085">
        <ele>2678.843</ele>
        <time>2018-09-15T00:32:05Z</time>
      </trkpt>
      <trkpt lat="46.29335" lon="10.57082">
        <ele>2677.986</ele>
        <time>2018-09-15T00:32:25Z</time>
      </trkpt>
      <trkpt lat="46.29336" lon="10.57079">
        <ele>2677.089</ele>
        <time>2018-09-15T00:32:45Z</time>
      </trkpt>
      <trkpt lat="46.29337" lon="10.57076">
        <ele>2676.177</ele>
        <time>2018-09-15T00:33:05Z</time>
      </trkpt>
      <trkpt lat="46.29337" lon="10.57073">
        <ele>2675.354</ele>
        <time>2018-09-15T00:33:25Z</time>
      </trkpt>
      <trkpt lat="46.29337" lon="10.5707">
        <ele>2674.687</ele>
        <time>2018-09-15T00:33:45Z</time>
      </trkpt>
      <trkpt lat="46.29337" lon="10.57067">
        <ele>2673.842</ele>
        <time>2018-09-15T00:34:05Z</time>
      </trkpt>
      <trkpt lat="46.29337" lon="10.57064">
        <ele>2673.426</ele>
        <time>2018-09-15T00:34:25Z</time>
      </trkpt>
      <trkpt lat="46.29335" lon="10.57062">
        <ele>2673.508</ele>
        <time>2018-09-15T00:34:45Z</time>
      </trkpt>
      <trkpt lat="46.29333" lon="10.57061">
        <ele>2674.03</ele>
        <time>2018-09-15T00:35:05Z</time>
      </trkpt>
      <trkpt lat="46.29332" lon="10.5706">
        <ele>2674.386</ele>
        <time>2018-09-15T00:35:25Z</time>
      </trkpt>
      <trkpt lat="46.2933" lon="10.57059">
        <ele>2674.653</ele>
        <time>2018-09-15T00:35:45Z</time>
      </trkpt>
      <trkpt lat="46.29328" lon="10.57059">
        <ele>2674.946</ele>
        <time>2018-09-15T00:36:05Z</time>
      </trkpt>
      <trkpt lat="46.29326" lon="10.57058">
        <ele>2675.139</ele>
        <time>2018-09-15T00:36:25Z</time>
      </trkpt>
      <trkpt lat="46.29324" lon="10.57057">
        <ele>2675.442</ele>
        <time>2018-09-15T00:36:45Z</time>
      </trkpt>
      <trkpt lat="46.29323" lon="10.57055">
        <ele>2675.55</ele>
        <time>2018-09-15T00:37:05Z</time>
      </trkpt>
      <trkpt lat="46.29321" lon="10.57053">
        <ele>2675.727</ele>
        <time>2018-09-15T00:37:25Z</time>
      </trkpt>
      <trkpt lat="46.29319" lon="10.57054">
        <ele>2676.498</ele>
        <time>2018-09-15T00:37:45Z</time>
      </trkpt>
      <trkpt lat="46.29317" lon="10.57054">
        <ele>2676.715</ele>
        <time>2018-09-15T00:38:05Z</time>
      </trkpt>
      <trkpt lat="46.29316" lon="10.57055">
        <ele>2677.426</ele>
        <time>2018-09-15T00:38:25Z</time>
      </trkpt>
      <trkpt lat="46.29316" lon="10.57058">
        <ele>2677.708</ele>
        <time>2018-09-15T00:38:45Z</time>
      </trkpt>
      <trkpt lat="46.29316" lon="10.57061">
        <ele>2677.981</ele>
        <time>2018-09-15T00:39:05Z</time>
      </trkpt>
      <trkpt lat="46.29315" lon="10.57063">
        <ele>2678.567</ele>
        <time>2018-09-15T00:39:25Z</time>
      </trkpt>
      <trkpt lat="46.29314" lon="10.57066">
        <ele>2679.164</ele>
        <time>2018-09-15T00:39:45Z</time>
      </trkpt>
      <trkpt lat="46.29312" lon="10.57067">
        <ele>2679.577</ele>
        <time>2018-09-15T00:40:05Z</time>
      </trkpt>
      <trkpt lat="46.2931" lon="10.57068">
        <ele>2680.02</ele>
        <time>2018-09-15T00:40:25Z</time>
      </trkpt>
      <trkpt lat="46.29309" lon="10.5707">
        <ele>2680.473</ele>
        <time>2018-09-15T00:40:45Z</time>
      </trkpt>
      <trkpt lat="46.29305" lon="10.57083">
        <ele>2681.911</ele>
        <time>2018-09-15T00:41:05Z</time>
      </trkpt>
      <trkpt lat="46.29308" lon="10.57098">
        <ele>2682.078</ele>
        <time>2018-09-15T00:41:25Z</time>
      </trkpt>
      <trkpt lat="46.2931" lon="10.57117">
        <ele>2681.777</ele>
        <time>2018-09-15T00:41:45Z</time>
      </trkpt>
      <trkpt lat="46.2931" lon="10.57133">
        <ele>2679.861</ele>
        <time>2018-09-15T00:42:05Z</time>
      </trkpt>
      <trkpt lat="46.29312" lon="10.57142">
        <ele>2679.327</ele>
        <time>2018-09-15T00:42:25Z</time>
      </trkpt>
      <trkpt lat="46.2932" lon="10.57149">
        <ele>2681.908</ele>
        <time>2018-09-15T00:42:45Z</time>
      </trkpt>
      <trkpt lat="46.29327" lon="10.5716">
        <ele>2684.319</ele>
        <time>2018-09-15T00:43:05Z</time>
      </trkpt>
      <trkpt lat="46.29326" lon="10.5717">
        <ele>2682.695</ele>
        <time>2018-09-15T00:43:25Z</time>
      </trkpt>
      <trkpt lat="46.29308" lon="10.57192">
        <ele>2666.762</ele>
        <time>2018-09-15T00:43:45Z</time>
      </trkpt>
      <trkpt lat="46.29295" lon="10.572">
        <ele>2656.855</ele>
        <time>2018-09-15T00:44:05Z</time>
      </trkpt>
      <trkpt lat="46.29273" lon="10.57204">
        <ele>2641.918</ele>
        <time>2018-09-15T00:44:25Z</time>
      </trkpt>
      <trkpt lat="46.2927" lon="10.57219">
        <ele>2637.641</ele>
        <time>2018-09-15T00:44:45Z</time>
      </trkpt>
      <trkpt lat="46.29266" lon="10.57242">
        <ele>2631.989</ele>
        <time>2018-09-15T00:45:05Z</time>
      </trkpt>
      <trkpt lat="46.2926" lon="10.57263">
        <ele>2625.996</ele>
        <time>2018-09-15T00:45:25Z</time>
      </trkpt>
      <trkpt lat="46.2924" lon="10.57307">
        <ele>2609.929</ele>
        <time>2018-09-15T00:45:45Z</time>
      </trkpt>
      <trkpt lat="46.2922" lon="10.57318">
        <ele>2598</ele>
        <time>2018-09-15T00:46:05Z</time>
      </trkpt>
      <trkpt lat="46.29213" lon="10.57332">
        <ele>2594.52</ele>
        <time>2018-09-15T00:46:25Z</time>
      </trkpt>
      <trkpt lat="46.29204" lon="10.57336">
        <ele>2591.408</ele>
        <time>2018-09-15T00:46:45Z</time>
      </trkpt>
      <trkpt lat="46.29195" lon="10.57346">
        <ele>2587.784</ele>
        <time>2018-09-15T00:47:05Z</time>
      </trkpt>
      <trkpt lat="46.29187" lon="10.5736">
        <ele>2584.27</ele>
        <time>2018-09-15T00:47:25Z</time>
      </trkpt>
      <trkpt lat="46.29185" lon="10.57377">
        <ele>2581.177</ele>
        <time>2018-09-15T00:47:45Z</time>
      </trkpt>
      <trkpt lat="46.29175" lon="10.57395">
        <ele>2575.26</ele>
        <time>2018-09-15T00:48:05Z</time>
      </trkpt>
      <trkpt lat="46.29169" lon="10.5742">
        <ele>2569.153</ele>
        <time>2018-09-15T00:48:25Z</time>
      </trkpt>
      <trkpt lat="46.29146" lon="10.57436">
        <ele>2563.426</ele>
        <time>2018-09-15T00:48:45Z</time>
      </trkpt>
      <trkpt lat="46.29126" lon="10.57467">
        <ele>2558.114</ele>
        <time>2018-09-15T00:49:05Z</time>
      </trkpt>
      <trkpt lat="46.29103" lon="10.57519">
        <ele>2548.611</ele>
        <time>2018-09-15T00:49:25Z</time>
      </trkpt>
      <trkpt lat="46.29086" lon="10.57551">
        <ele>2540.236</ele>
        <time>2018-09-15T00:49:45Z</time>
      </trkpt>
      <trkpt lat="46.29063" lon="10.57585">
        <ele>2528.617</ele>
        <time>2018-09-15T00:50:05Z</time>
      </trkpt>
      <trkpt lat="46.29038" lon="10.57624">
        <ele>2516.418</ele>
        <time>2018-09-15T00:50:25Z</time>
      </trkpt>
      <trkpt lat="46.29013" lon="10.57656">
        <ele>2509.008</ele>
        <time>2018-09-15T00:50:45Z</time>
      </trkpt>
      <trkpt lat="46.28996" lon="10.57689">
        <ele>2502.485</ele>
        <time>2018-09-15T00:51:05Z</time>
      </trkpt>
      <trkpt lat="46.28994" lon="10.57727">
        <ele>2498.461</ele>
        <time>2018-09-15T00:51:25Z</time>
      </trkpt>
      <trkpt lat="46.28987" lon="10.57779">
        <ele>2495.078</ele>
        <time>2018-09-15T00:51:45Z</time>
      </trkpt>
      <trkpt lat="46.28981" lon="10.57823">
        <ele>2497.921</ele>
        <time>2018-09-15T00:52:05Z</time>
      </trkpt>
      <trkpt lat="46.28966" lon="10.5784">
        <ele>2493.874</ele>
        <time>2018-09-15T00:52:25Z</time>
      </trkpt>
      <trkpt lat="46.2893" lon="10.5787">
        <ele>2485.327</ele>
        <time>2018-09-15T00:52:45Z</time>
      </trkpt>
      <trkpt lat="46.289" lon="10.57893">
        <ele>2482.965</ele>
        <time>2018-09-15T00:53:05Z</time>
      </trkpt>
      <trkpt lat="46.2885" lon="10.57902">
        <ele>2473.982</ele>
        <time>2018-09-15T00:53:25Z</time>
      </trkpt>
      <trkpt lat="46.28824" lon="10.57892">
        <ele>2466.665</ele>
        <time>2018-09-15T00:53:45Z</time>
      </trkpt>
      <trkpt lat="46.28812" lon="10.57873">
        <ele>2463.968</ele>
        <time>2018-09-15T00:54:05Z</time>
      </trkpt>
      <trkpt lat="46.28799" lon="10.5784">
        <ele>2461.914</ele>
        <time>2018-09-15T00:54:25Z</time>
      </trkpt>
      <trkpt lat="46.28771" lon="10.57779">
        <ele>2456.208</ele>
        <time>2018-09-15T00:54:45Z</time>
      </trkpt>
      <trkpt lat="46.28751" lon="10.57758">
        <ele>2449.728</ele>
        <time>2018-09-15T00:55:05Z</time>
      </trkpt>
      <trkpt lat="46.28726" lon="10.57747">
        <ele>2440.844</ele>
        <time>2018-09-15T00:55:25Z</time>
      </trkpt>
      <trkpt lat="46.28699" lon="10.57738">
        <ele>2427.151</ele>
        <time>2018-09-15T00:55:45Z</time>
      </trkpt>
      <trkpt lat="46.28669" lon="10.5773">
        <ele>2414.834</ele>
        <time>2018-09-15T00:56:05Z</time>
      </trkpt>
      <trkpt lat="46.2865" lon="10.57714">
        <ele>2411.877</ele>
        <time>2018-09-15T00:56:25Z</time>
      </trkpt>
      <trkpt lat="46.28616" lon="10.57697">
        <ele>2407.78</ele>
        <time>2018-09-15T00:56:45Z</time>
      </trkpt>
      <trkpt lat="46.28549" lon="10.57661">
        <ele>2390.228</ele>
        <time>2018-09-15T00:57:05Z</time>
      </trkpt>
      <trkpt lat="46.28515" lon="10.57652">
        <ele>2381.455</ele>
        <time>2018-09-15T00:57:25Z</time>
      </trkpt>
      <trkpt lat="46.28497" lon="10.57661">
        <ele>2375.195</ele>
        <time>2018-09-15T00:57:45Z</time>
      </trkpt>
      <trkpt lat="46.2847" lon="10.57692">
        <ele>2359.449</ele>
        <time>2018-09-15T00:58:05Z</time>
      </trkpt>
      <trkpt lat="46.28469" lon="10.57692">
        <ele>2359.023</ele>
        <time>2018-09-15T00:58:25Z</time>
      </trkpt>
      <trkpt lat="46.28443" lon="10.57709">
        <ele>2343.508</ele>
        <time>2018-09-15T00:58:45Z</time>
      </trkpt>
      <trkpt lat="46.28431" lon="10.57715">
        <ele>2337.471</ele>
        <time>2018-09-15T00:59:05Z</time>
      </trkpt>
      <trkpt lat="46.28419" lon="10.57733">
        <ele>2328.177</ele>
        <time>2018-09-15T00:59:25Z</time>
      </trkpt>
      <trkpt lat="46.28413" lon="10.57755">
        <ele>2320.884</ele>
        <time>2018-09-15T00:59:45Z</time>
      </trkpt>
      <trkpt lat="46.28398" lon="10.57777">
        <ele>2310.437</ele>
        <time>2018-09-15T01:00:05Z</time>
      </trkpt>
      <trkpt lat="46.28369" lon="10.578">
        <ele>2296.37</ele>
        <time>2018-09-15T01:00:25Z</time>
      </trkpt>
      <trkpt lat="46.28328" lon="10.57825">
        <ele>2284.653</ele>
        <time>2018-09-15T01:00:45Z</time>
      </trkpt>
      <trkpt lat="46.28296" lon="10.57836">
        <ele>2281.341</ele>
        <time>2018-09-15T01:01:05Z</time>
      </trkpt>
      <trkpt lat="46.28271" lon="10.5784">
        <ele>2279.848</ele>
        <time>2018-09-15T01:01:25Z</time>
      </trkpt>
      <trkpt lat="46.28265" lon="10.57839">
        <ele>2279.759</ele>
        <time>2018-09-15T01:01:45Z</time>
      </trkpt>
      <trkpt lat="46.28246" lon="10.57865">
        <ele>2273.003</ele>
        <time>2018-09-15T01:02:05Z</time>
      </trkpt>
      <trkpt lat="46.28241" lon="10.57872">
        <ele>2271.423</ele>
        <time>2018-09-15T01:02:25Z</time>
      </trkpt>
      <trkpt lat="46.28235" lon="10.57881">
        <ele>2269.108</ele>
        <time>2018-09-15T01:02:45Z</time>
      </trkpt>
      <trkpt lat="46.2823" lon="10.57892">
        <ele>2266.517</ele>
        <time>2018-09-15T01:03:05Z</time>
      </trkpt>
      <trkpt lat="46.28224" lon="10.57903">
        <ele>2263.923</ele>
        <time>2018-09-15T01:03:25Z</time>
      </trkpt>
      <trkpt lat="46.28212" lon="10.57914">
        <ele>2261.14</ele>
        <time>2018-09-15T01:03:45Z</time>
      </trkpt>
      <trkpt lat="46.28205" lon="10.57919">
        <ele>2259.783</ele>
        <time>2018-09-15T01:04:05Z</time>
      </trkpt>
      <trkpt lat="46.28198" lon="10.57924">
        <ele>2258.476</ele>
        <time>2018-09-15T01:04:25Z</time>
      </trkpt>
      <trkpt lat="46.28193" lon="10.57927">
        <ele>2257.939</ele>
        <time>2018-09-15T01:04:45Z</time>
      </trkpt>
      <trkpt lat="46.28191" lon="10.57933">
        <ele>2256.987</ele>
        <time>2018-09-15T01:05:05Z</time>
      </trkpt>
      <trkpt lat="46.28187" lon="10.57945">
        <ele>2254.914</ele>
        <time>2018-09-15T01:05:25Z</time>
      </trkpt>
      <trkpt lat="46.28182" lon="10.57953">
        <ele>2254.131</ele>
        <time>2018-09-15T01:05:45Z</time>
      </trkpt>
      <trkpt lat="46.28178" lon="10.57956">
        <ele>2254.261</ele>
        <time>2018-09-15T01:06:05Z</time>
      </trkpt>
      <trkpt lat="46.28173" lon="10.57965">
        <ele>2253.707</ele>
        <time>2018-09-15T01:06:25Z</time>
      </trkpt>
      <trkpt lat="46.28168" lon="10.57972">
        <ele>2253.808</ele>
        <time>2018-09-15T01:06:45Z</time>
      </trkpt>
      <trkpt lat="46.28163" lon="10.57975">
        <ele>2253.385</ele>
        <time>2018-09-15T01:07:05Z</time>
      </trkpt>
      <trkpt lat="46.28158" lon="10.57979">
        <ele>2252.561</ele>
        <time>2018-09-15T01:07:25Z</time>
      </trkpt>
      <trkpt lat="46.28152" lon="10.57991">
        <ele>2250.218</ele>
        <time>2018-09-15T01:07:45Z</time>
      </trkpt>
      <trkpt lat="46.28148" lon="10.58006">
        <ele>2247.231</ele>
        <time>2018-09-15T01:08:05Z</time>
      </trkpt>
      <trkpt lat="46.28143" lon="10.58026">
        <ele>2243.374</ele>
        <time>2018-09-15T01:08:25Z</time>
      </trkpt>
      <trkpt lat="46.28137" lon="10.58038">
        <ele>2241.147</ele>
        <time>2018-09-15T01:08:45Z</time>
      </trkpt>
      <trkpt lat="46.28127" lon="10.58046">
        <ele>2240.235</ele>
        <time>2018-09-15T01:09:05Z</time>
      </trkpt>
      <trkpt lat="46.28116" lon="10.58053">
        <ele>2239.932</ele>
        <time>2018-09-15T01:09:25Z</time>
      </trkpt>
      <trkpt lat="46.28096" lon="10.58062">
        <ele>2237.656</ele>
        <time>2018-09-15T01:09:45Z</time>
      </trkpt>
      <trkpt lat="46.2808" lon="10.58078">
        <ele>2234.959</ele>
        <time>2018-09-15T01:10:05Z</time>
      </trkpt>
      <trkpt lat="46.281" lon="10.58076">
        <ele>2236.314</ele>
        <time>2018-09-15T01:10:25Z</time>
      </trkpt>
      <trkpt lat="46.28108" lon="10.58083">
        <ele>2235.908</ele>
        <time>2018-09-15T01:10:45Z</time>
      </trkpt>
      <trkpt lat="46.28109" lon="10.581">
        <ele>2232.927</ele>
        <time>2018-09-15T01:11:05Z</time>
      </trkpt>
      <trkpt lat="46.28106" lon="10.58117">
        <ele>2229.883</ele>
        <time>2018-09-15T01:11:25Z</time>
      </trkpt>
      <trkpt lat="46.281" lon="10.58134">
        <ele>2226.32</ele>
        <time>2018-09-15T01:11:45Z</time>
      </trkpt>
      <trkpt lat="46.2809" lon="10.58151">
        <ele>2221.473</ele>
        <time>2018-09-15T01:12:05Z</time>
      </trkpt>
      <trkpt lat="46.28081" lon="10.5817">
        <ele>2215.676</ele>
        <time>2018-09-15T01:12:25Z</time>
      </trkpt>
      <trkpt lat="46.28076" lon="10.58193">
        <ele>2211.089</ele>
        <time>2018-09-15T01:12:45Z</time>
      </trkpt>
      <trkpt lat="46.28071" lon="10.58216">
        <ele>2206.827</ele>
        <time>2018-09-15T01:13:05Z</time>
      </trkpt>
      <trkpt lat="46.28063" lon="10.58241">
        <ele>2202.444</ele>
        <time>2018-09-15T01:13:25Z</time>
      </trkpt>
      <trkpt lat="46.28055" lon="10.58261">
        <ele>2199.112</ele>
        <time>2018-09-15T01:13:45Z</time>
      </trkpt>
      <trkpt lat="46.28051" lon="10.58288">
        <ele>2195.332</ele>
        <time>2018-09-15T01:14:05Z</time>
      </trkpt>
      <trkpt lat="46.28048" lon="10.58303">
        <ele>2194.105</ele>
        <time>2018-09-15T01:14:25Z</time>
      </trkpt>
      <trkpt lat="46.28038" lon="10.58324">
        <ele>2193.908</ele>
        <time>2018-09-15T01:14:45Z</time>
      </trkpt>
      <trkpt lat="46.28034" lon="10.58338">
        <ele>2194.693</ele>
        <time>2018-09-15T01:15:05Z</time>
      </trkpt>
      <trkpt lat="46.2803" lon="10.58355">
        <ele>2197.249</ele>
        <time>2018-09-15T01:15:25Z</time>
      </trkpt>
      <trkpt lat="46.28026" lon="10.58372">
        <ele>2199.716</ele>
        <time>2018-09-15T01:15:45Z</time>
      </trkpt>
      <trkpt lat="46.28022" lon="10.5838">
        <ele>2200.359</ele>
        <time>2018-09-15T01:16:05Z</time>
      </trkpt>
      <trkpt lat="46.2799" lon="10.58443">
        <ele>2200.522</ele>
        <time>2018-09-15T01:16:25Z</time>
      </trkpt>
      <trkpt lat="46.2799" lon="10.58443">
        <ele>2200.595</ele>
        <time>2018-09-15T01:16:45Z</time>
      </trkpt>
      <trkpt lat="46.27979" lon="10.58465">
        <ele>2200.683</ele>
        <time>2018-09-15T01:17:05Z</time>
      </trkpt>
      <trkpt lat="46.27978" lon="10.58478">
        <ele>2201.57</ele>
        <time>2018-09-15T01:17:25Z</time>
      </trkpt>
      <trkpt lat="46.27975" lon="10.58491">
        <ele>2201.299</ele>
        <time>2018-09-15T01:17:45Z</time>
      </trkpt>
      <trkpt lat="46.27971" lon="10.58501">
        <ele>2200.707</ele>
        <time>2018-09-15T01:18:05Z</time>
      </trkpt>
      <trkpt lat="46.27968" lon="10.58513">
        <ele>2200.227</ele>
        <time>2018-09-15T01:18:25Z</time>
      </trkpt>
      <trkpt lat="46.27968" lon="10.58524">
        <ele>2200.608</ele>
        <time>2018-09-15T01:18:45Z</time>
      </trkpt>
      <trkpt lat="46.27966" lon="10.58535">
        <ele>2200.161</ele>
        <time>2018-09-15T01:19:05Z</time>
      </trkpt>
      <trkpt lat="46.27965" lon="10.58544">
        <ele>2199.997</ele>
        <time>2018-09-15T01:19:25Z</time>
      </trkpt>
      <trkpt lat="46.27963" lon="10.58555">
        <ele>2199.694</ele>
        <time>2018-09-15T01:19:45Z</time>
      </trkpt>
      <trkpt lat="46.27957" lon="10.58563">
        <ele>2198.217</ele>
        <time>2018-09-15T01:20:05Z</time>
      </trkpt>
      <trkpt lat="46.27949" lon="10.58582">
        <ele>2196.83</ele>
        <time>2018-09-15T01:20:25Z</time>
      </trkpt>
      <trkpt lat="46.27941" lon="10.58594">
        <ele>2194.593</ele>
        <time>2018-09-15T01:20:45Z</time>
      </trkpt>
      <trkpt lat="46.27935" lon="10.58602">
        <ele>2193.121</ele>
        <time>2018-09-15T01:21:05Z</time>
      </trkpt>
      <trkpt lat="46.27928" lon="10.58614">
        <ele>2191.318</ele>
        <time>2018-09-15T01:21:25Z</time>
      </trkpt>
      <trkpt lat="46.27921" lon="10.58625">
        <ele>2189.631</ele>
        <time>2018-09-15T01:21:45Z</time>
      </trkpt>
      <trkpt lat="46.27916" lon="10.58637">
        <ele>2188.061</ele>
        <time>2018-09-15T01:22:05Z</time>
      </trkpt>
      <trkpt lat="46.27909" lon="10.58646">
        <ele>2186.807</ele>
        <time>2018-09-15T01:22:25Z</time>
      </trkpt>
      <trkpt lat="46.27902" lon="10.58658">
        <ele>2185.508</ele>
        <time>2018-09-15T01:22:45Z</time>
      </trkpt>
      <trkpt lat="46.27892" lon="10.58675">
        <ele>2183.245</ele>
        <time>2018-09-15T01:23:05Z</time>
      </trkpt>
      <trkpt lat="46.27889" lon="10.58682">
        <ele>2182.421</ele>
        <time>2018-09-15T01:23:25Z</time>
      </trkpt>
      <trkpt lat="46.27882" lon="10.58702">
        <ele>2180.838</ele>
        <time>2018-09-15T01:23:45Z</time>
      </trkpt>
      <trkpt lat="46.27875" lon="10.58714">
        <ele>2179.611</ele>
        <time>2018-09-15T01:24:05Z</time>
      </trkpt>
      <trkpt lat="46.27871" lon="10.58724">
        <ele>2178.794</ele>
        <time>2018-09-15T01:24:25Z</time>
      </trkpt>
      <trkpt lat="46.27866" lon="10.5874">
        <ele>2177.837</ele>
        <time>2018-09-15T01:24:45Z</time>
      </trkpt>
      <trkpt lat="46.27853" lon="10.58761">
        <ele>2175.835</ele>
        <time>2018-09-15T01:25:05Z</time>
      </trkpt>
      <trkpt lat="46.27845" lon="10.5877">
        <ele>2174.482</ele>
        <time>2018-09-15T01:25:25Z</time>
      </trkpt>
      <trkpt lat="46.27839" lon="10.58782">
        <ele>2173.544</ele>
        <time>2018-09-15T01:25:45Z</time>
      </trkpt>
      <trkpt lat="46.27832" lon="10.58792">
        <ele>2173.105</ele>
        <time>2018-09-15T01:26:05Z</time>
      </trkpt>
      <trkpt lat="46.2782" lon="10.58807">
        <ele>2171.015</ele>
        <time>2018-09-15T01:26:25Z</time>
      </trkpt>
      <trkpt lat="46.27812" lon="10.58815">
        <ele>2169.408</ele>
        <time>2018-09-15T01:26:45Z</time>
      </trkpt>
      <trkpt lat="46.27801" lon="10.58826">
        <ele>2167.286</ele>
        <time>2018-09-15T01:27:05Z</time>
      </trkpt>
      <trkpt lat="46.27783" lon="10.58843">
        <ele>2162.922</ele>
        <time>2018-09-15T01:27:25Z</time>
      </trkpt>
      <trkpt lat="46.27786" lon="10.58856">
        <ele>2163.399</ele>
        <time>2018-09-15T01:27:45Z</time>
      </trkpt>
      <trkpt lat="46.27795" lon="10.58887">
        <ele>2167.432</ele>
        <time>2018-09-15T01:28:05Z</time>
      </trkpt>
      <trkpt lat="46.27801" lon="10.58911">
        <ele>2172.215</ele>
        <time>2018-09-15T01:28:25Z</time>
      </trkpt>
      <trkpt lat="46.27787" lon="10.58942">
        <ele>2174.678</ele>
        <time>2018-09-15T01:28:45Z</time>
      </trkpt>
      <trkpt lat="46.27784" lon="10.5899">
        <ele>2184.456</ele>
        <time>2018-09-15T01:29:05Z</time>
      </trkpt>
      <trkpt lat="46.27774" lon="10.59029">
        <ele>2190.063</ele>
        <time>2018-09-15T01:29:25Z</time>
      </trkpt>
      <trkpt lat="46.27766" lon="10.59065">
        <ele>2195.983</ele>
        <time>2018-09-15T01:29:45Z</time>
      </trkpt>
      <trkpt lat="46.27751" lon="10.59107">
        <ele>2201.325</ele>
        <time>2018-09-15T01:30:05Z</time>
      </trkpt>
      <trkpt lat="46.27725" lon="10.59151">
        <ele>2209.217</ele>
        <time>2018-09-15T01:30:25Z</time>
      </trkpt>
      <trkpt lat="46.27711" lon="10.59175">
        <ele>2212.208</ele>
        <time>2018-09-15T01:30:45Z</time>
      </trkpt>
      <trkpt lat="46.277" lon="10.59199">
        <ele>2217.35</ele>
        <time>2018-09-15T01:31:05Z</time>
      </trkpt>
      <trkpt lat="46.2769" lon="10.59222">
        <ele>2222.676</ele>
        <time>2018-09-15T01:31:25Z</time>
      </trkpt>
      <trkpt lat="46.27679" lon="10.59242">
        <ele>2225.593</ele>
        <time>2018-09-15T01:31:45Z</time>
      </trkpt>
      <trkpt lat="46.27675" lon="10.59259">
        <ele>2229.726</ele>
        <time>2018-09-15T01:32:05Z</time>
      </trkpt>
      <trkpt lat="46.27713" lon="10.59238">
        <ele>2238.619</ele>
        <time>2018-09-15T01:32:25Z</time>
      </trkpt>
      <trkpt lat="46.27742" lon="10.59223">
        <ele>2247.582</ele>
        <time>2018-09-15T01:32:45Z</time>
      </trkpt>
      <trkpt lat="46.27761" lon="10.59207">
        <ele>2249.19</ele>
        <time>2018-09-15T01:33:05Z</time>
      </trkpt>
      <trkpt lat="46.27778" lon="10.59197">
        <ele>2251.127</ele>
        <time>2018-09-15T01:33:25Z</time>
      </trkpt>
      <trkpt lat="46.27815" lon="10.5919">
        <ele>2261.656</ele>
        <time>2018-09-15T01:33:45Z</time>
      </trkpt>
      <trkpt lat="46.27826" lon="10.5919">
        <ele>2266.159</ele>
        <time>2018-09-15T01:34:05Z</time>
      </trkpt>
      <trkpt lat="46.27832" lon="10.5919">
        <ele>2268.414</ele>
        <time>2018-09-15T01:34:25Z</time>
      </trkpt>
      <trkpt lat="46.2782" lon="10.59211">
        <ele>2273.108</ele>
        <time>2018-09-15T01:34:45Z</time>
      </trkpt>
      <trkpt lat="46.27809" lon="10.59232">
        <ele>2280.437</ele>
        <time>2018-09-15T01:35:05Z</time>
      </trkpt>
      <trkpt lat="46.27829" lon="10.59229">
        <ele>2285.463</ele>
        <time>2018-09-15T01:35:25Z</time>
      </trkpt>
      <trkpt lat="46.27841" lon="10.59226">
        <ele>2286.78</ele>
        <time>2018-09-15T01:35:45Z</time>
      </trkpt>
      <trkpt lat="46.27836" lon="10.59239">
        <ele>2292.083</ele>
        <time>2018-09-15T01:36:05Z</time>
      </trkpt>
      <trkpt lat="46.2783" lon="10.59247">
        <ele>2294.416</ele>
        <time>2018-09-15T01:36:25Z</time>
      </trkpt>
      <trkpt lat="46.27824" lon="10.59256">
        <ele>2296.339</ele>
        <time>2018-09-15T01:36:45Z</time>
      </trkpt>
      <trkpt lat="46.27817" lon="10.59267">
        <ele>2298.247</ele>
        <time>2018-09-15T01:37:05Z</time>
      </trkpt>
      <trkpt lat="46.27814" lon="10.59277">
        <ele>2301.534</ele>
        <time>2018-09-15T01:37:25Z</time>
      </trkpt>
      <trkpt lat="46.27844" lon="10.59276">
        <ele>2309.694</ele>
        <time>2018-09-15T01:37:45Z</time>
      </trkpt>
      <trkpt lat="46.2786" lon="10.59276">
        <ele>2313.857</ele>
        <time>2018-09-15T01:38:05Z</time>
      </trkpt>
      <trkpt lat="46.27874" lon="10.59276">
        <ele>2318.622</ele>
        <time>2018-09-15T01:38:25Z</time>
      </trkpt>
      <trkpt lat="46.27884" lon="10.5928">
        <ele>2322.908</ele>
        <time>2018-09-15T01:38:45Z</time>
      </trkpt>
      <trkpt lat="46.27868" lon="10.59297">
        <ele>2326.361</ele>
        <time>2018-09-15T01:39:05Z</time>
      </trkpt>
      <trkpt lat="46.2786" lon="10.59309">
        <ele>2329.737</ele>
        <time>2018-09-15T01:39:25Z</time>
      </trkpt>
      <trkpt lat="46.27855" lon="10.5932">
        <ele>2331.564</ele>
        <time>2018-09-15T01:39:45Z</time>
      </trkpt>
      <trkpt lat="46.27856" lon="10.59332">
        <ele>2335.467</ele>
        <time>2018-09-15T01:40:05Z</time>
      </trkpt>
      <trkpt lat="46.27856" lon="10.59342">
        <ele>2338.49</ele>
        <time>2018-09-15T01:40:25Z</time>
      </trkpt>
      <trkpt lat="46.27852" lon="10.59353">
        <ele>2340.563</ele>
        <time>2018-09-15T01:40:45Z</time>
      </trkpt>
      <trkpt lat="46.27846" lon="10.59371">
        <ele>2343.351</ele>
        <time>2018-09-15T01:41:05Z</time>
      </trkpt>
      <trkpt lat="46.27845" lon="10.59387">
        <ele>2346.788</ele>
        <time>2018-09-15T01:41:25Z</time>
      </trkpt>
      <trkpt lat="46.27846" lon="10.594">
        <ele>2348.629</ele>
        <time>2018-09-15T01:41:45Z</time>
      </trkpt>
      <trkpt lat="46.27849" lon="10.59408">
        <ele>2351.3</ele>
        <time>2018-09-15T01:42:05Z</time>
      </trkpt>
      <trkpt lat="46.27854" lon="10.59413">
        <ele>2354.12</ele>
        <time>2018-09-15T01:42:25Z</time>
      </trkpt>
      <trkpt lat="46.2786" lon="10.59409">
        <ele>2356.508</ele>
        <time>2018-09-15T01:42:45Z</time>
      </trkpt>
      <trkpt lat="46.27866" lon="10.59418">
        <ele>2359.784</ele>
        <time>2018-09-15T01:43:05Z</time>
      </trkpt>
      <trkpt lat="46.27869" lon="10.5943">
        <ele>2359.68</ele>
        <time>2018-09-15T01:43:25Z</time>
      </trkpt>
      <trkpt lat="46.27896" lon="10.59463">
        <ele>2364.967</ele>
        <time>2018-09-15T01:43:45Z</time>
      </trkpt>
      <trkpt lat="46.27906" lon="10.59473">
        <ele>2366.71</ele>
        <time>2018-09-15T01:44:05Z</time>
      </trkpt>
      <trkpt lat="46.27918" lon="10.59486">
        <ele>2368.313</ele>
        <time>2018-09-15T01:44:25Z</time>
      </trkpt>
      <trkpt lat="46.27927" lon="10.59493">
        <ele>2370.536</ele>
        <time>2018-09-15T01:44:45Z</time>
      </trkpt>
      <trkpt lat="46.27958" lon="10.59503">
        <ele>2381.324</ele>
        <time>2018-09-15T01:45:05Z</time>
      </trkpt>
      <trkpt lat="46.2798" lon="10.59512">
        <ele>2387.591</ele>
        <time>2018-09-15T01:45:25Z</time>
      </trkpt>
      <trkpt lat="46.27995" lon="10.59517">
        <ele>2391.868</ele>
        <time>2018-09-15T01:45:45Z</time>
      </trkpt>
      <trkpt lat="46.28016" lon="10.59529">
        <ele>2395.742</ele>
        <time>2018-09-15T01:46:05Z</time>
      </trkpt>
      <trkpt lat="46.28027" lon="10.59537">
        <ele>2397.526</ele>
        <time>2018-09-15T01:46:25Z</time>
      </trkpt>
      <trkpt lat="46.28044" lon="10.59547">
        <ele>2402.308</ele>
        <time>2018-09-15T01:46:45Z</time>
      </trkpt>
      <trkpt lat="46.28053" lon="10.59554">
        <ele>2404.718</ele>
        <time>2018-09-15T01:47:05Z</time>
      </trkpt>
      <trkpt lat="46.28059" lon="10.59563">
        <ele>2407.354</ele>
        <time>2018-09-15T01:47:25Z</time>
      </trkpt>
      <trkpt lat="46.28063" lon="10.59572">
        <ele>2408.761</ele>
        <time>2018-09-15T01:47:45Z</time>
      </trkpt>
      <trkpt lat="46.28064" lon="10.59588">
        <ele>2410.374</ele>
        <time>2018-09-15T01:48:05Z</time>
      </trkpt>
      <trkpt lat="46.28064" lon="10.59607">
        <ele>2414.497</ele>
        <time>2018-09-15T01:48:25Z</time>
      </trkpt>
      <trkpt lat="46.2806" lon="10.59625">
        <ele>2415.84</ele>
        <time>2018-09-15T01:48:45Z</time>
      </trkpt>
      <trkpt lat="46.28059" lon="10.5964">
        <ele>2417.618</ele>
        <time>2018-09-15T01:49:05Z</time>
      </trkpt>
      <trkpt lat="46.28066" lon="10.59652">
        <ele>2422.965</ele>
        <time>2018-09-15T01:49:25Z</time>
      </trkpt>
      <trkpt lat="46.28069" lon="10.59676">
        <ele>2427.238</ele>
        <time>2018-09-15T01:49:45Z</time>
      </trkpt>
      <trkpt lat="46.28072" lon="10.5971">
        <ele>2432.67</ele>
        <time>2018-09-15T01:50:05Z</time>
      </trkpt>
      <trkpt lat="46.28077" lon="10.59749">
        <ele>2439.617</ele>
        <time>2018-09-15T01:50:25Z</time>
      </trkpt>
      <trkpt lat="46.2808" lon="10.59758">
        <ele>2442.808</ele>
        <time>2018-09-15T01:50:45Z</time>
      </trkpt>
      <trkpt lat="46.28081" lon="10.59776">
        <ele>2446.345</ele>
        <time>2018-09-15T01:51:05Z</time>
      </trkpt>
      <trkpt lat="46.28079" lon="10.59791">
        <ele>2448.441</ele>
        <time>2018-09-15T01:51:25Z</time>
      </trkpt>
      <trkpt lat="46.28079" lon="10.59809">
        <ele>2451.438</ele>
        <time>2018-09-15T01:51:45Z</time>
      </trkpt>
      <trkpt lat="46.28079" lon="10.5982">
        <ele>2452.461</ele>
        <time>2018-09-15T01:52:05Z</time>
      </trkpt>
      <trkpt lat="46.28085" lon="10.5983">
        <ele>2455.114</ele>
        <time>2018-09-15T01:52:25Z</time>
      </trkpt>
      <trkpt lat="46.28091" lon="10.59819">
        <ele>2456.857</ele>
        <time>2018-09-15T01:52:45Z</time>
      </trkpt>
      <trkpt lat="46.28094" lon="10.59813">
        <ele>2458.555</ele>
        <time>2018-09-15T01:53:05Z</time>
      </trkpt>
      <trkpt lat="46.28103" lon="10.59812">
        <ele>2461.972</ele>
        <time>2018-09-15T01:53:25Z</time>
      </trkpt>
      <trkpt lat="46.28114" lon="10.59818">
        <ele>2465.183</ele>
        <time>2018-09-15T01:53:45Z</time>
      </trkpt>
      <trkpt lat="46.28127" lon="10.59819">
        <ele>2470.325</ele>
        <time>2018-09-15T01:54:05Z</time>
      </trkpt>
      <trkpt lat="46.28158" lon="10.59822">
        <ele>2479.317</ele>
        <time>2018-09-15T01:54:25Z</time>
      </trkpt>
      <trkpt lat="46.28171" lon="10.59821">
        <ele>2484.308</ele>
        <time>2018-09-15T01:54:45Z</time>
      </trkpt>
      <trkpt lat="46.28173" lon="10.59817">
        <ele>2487.79</ele>
        <time>2018-09-15T01:55:05Z</time>
      </trkpt>
      <trkpt lat="46.28198" lon="10.59796">
        <ele>2508.746</ele>
        <time>2018-09-15T01:55:25Z</time>
      </trkpt>
      <trkpt lat="46.28189" lon="10.59788">
        <ele>2507.983</ele>
        <time>2018-09-15T01:55:45Z</time>
      </trkpt>
      <trkpt lat="46.28186" lon="10.59779">
        <ele>2509.866</ele>
        <time>2018-09-15T01:56:05Z</time>
      </trkpt>
      <trkpt lat="46.28191" lon="10.59773">
        <ele>2513.019</ele>
        <time>2018-09-15T01:56:25Z</time>
      </trkpt>
      <trkpt lat="46.28197" lon="10.59774">
        <ele>2515.712</ele>
        <time>2018-09-15T01:56:45Z</time>
      </trkpt>
      <trkpt lat="46.28204" lon="10.59768">
        <ele>2518.95</ele>
        <time>2018-09-15T01:57:05Z</time>
      </trkpt>
      <trkpt lat="46.28218" lon="10.59758">
        <ele>2526.597</ele>
        <time>2018-09-15T01:57:25Z</time>
      </trkpt>
      <trkpt lat="46.28222" lon="10.59752">
        <ele>2529.515</ele>
        <time>2018-09-15T01:57:45Z</time>
      </trkpt>
      <trkpt lat="46.28228" lon="10.59744">
        <ele>2531.265</ele>
        <time>2018-09-15T01:58:05Z</time>
      </trkpt>
      <trkpt lat="46.28235" lon="10.5974">
        <ele>2533.411</ele>
        <time>2018-09-15T01:58:25Z</time>
      </trkpt>
      <trkpt lat="46.28239" lon="10.59743">
        <ele>2535.308</ele>
        <time>2018-09-15T01:58:45Z</time>
      </trkpt>
      <trkpt lat="46.28247" lon="10.59748">
        <ele>2538.973</ele>
        <time>2018-09-15T01:59:05Z</time>
      </trkpt>
      <trkpt lat="46.28254" lon="10.59751">
        <ele>2542.299</ele>
        <time>2018-09-15T01:59:25Z</time>
      </trkpt>
      <trkpt lat="46.28257" lon="10.59761">
        <ele>2541.236</ele>
        <time>2018-09-15T01:59:45Z</time>
      </trkpt>
      <trkpt lat="46.28265" lon="10.5976">
        <ele>2546.219</ele>
        <time>2018-09-15T02:00:05Z</time>
      </trkpt>
      <trkpt lat="46.28275" lon="10.59761">
        <ele>2551.272</ele>
        <time>2018-09-15T02:00:25Z</time>
      </trkpt>
      <trkpt lat="46.28296" lon="10.59772">
        <ele>2556.535</ele>
        <time>2018-09-15T02:00:45Z</time>
      </trkpt>
      <trkpt lat="46.28306" lon="10.59776">
        <ele>2559.243</ele>
        <time>2018-09-15T02:01:05Z</time>
      </trkpt>
      <trkpt lat="46.28315" lon="10.59777">
        <ele>2562.58</ele>
        <time>2018-09-15T02:01:25Z</time>
      </trkpt>
      <trkpt lat="46.28327" lon="10.59788">
        <ele>2561.397</ele>
        <time>2018-09-15T02:01:45Z</time>
      </trkpt>
      <trkpt lat="46.28339" lon="10.59794">
        <ele>2563.623</ele>
        <time>2018-09-15T02:02:05Z</time>
      </trkpt>
      <trkpt lat="46.28346" lon="10.59794">
        <ele>2567.725</ele>
        <time>2018-09-15T02:02:25Z</time>
      </trkpt>
      <trkpt lat="46.28352" lon="10.59801">
        <ele>2567.208</ele>
        <time>2018-09-15T02:02:45Z</time>
      </trkpt>
      <trkpt lat="46.28359" lon="10.59803">
        <ele>2570.671</ele>
        <time>2018-09-15T02:03:05Z</time>
      </trkpt>
      <trkpt lat="46.28371" lon="10.59814">
        <ele>2571.757</ele>
        <time>2018-09-15T02:03:25Z</time>
      </trkpt>
      <trkpt lat="46.28376" lon="10.59826">
        <ele>2568.644</ele>
        <time>2018-09-15T02:03:45Z</time>
      </trkpt>
      <trkpt lat="46.28383" lon="10.59842">
        <ele>2565.537</ele>
        <time>2018-09-15T02:04:05Z</time>
      </trkpt>
      <trkpt lat="46.28405" lon="10.5987">
        <ele>2571.01</ele>
        <time>2018-09-15T02:04:25Z</time>
      </trkpt>
      <trkpt lat="46.28411" lon="10.59877">
        <ele>2572.113</ele>
        <time>2018-09-15T02:04:45Z</time>
      </trkpt>
      <trkpt lat="46.28418" lon="10.59886">
        <ele>2573.661</ele>
        <time>2018-09-15T02:05:05Z</time>
      </trkpt>
      <trkpt lat="46.28425" lon="10.59897">
        <ele>2572.648</ele>
        <time>2018-09-15T02:05:25Z</time>
      </trkpt>
      <trkpt lat="46.28429" lon="10.59903">
        <ele>2572.585</ele>
        <time>2018-09-15T02:05:45Z</time>
      </trkpt>
      <trkpt lat="46.28432" lon="10.59905">
        <ele>2573.389</ele>
        <time>2018-09-15T02:06:05Z</time>
      </trkpt>
      <trkpt lat="46.28436" lon="10.59905">
        <ele>2574.617</ele>
        <time>2018-09-15T02:06:25Z</time>
      </trkpt>
      <trkpt lat="46.28442" lon="10.59904">
        <ele>2577.208</ele>
        <time>2018-09-15T02:06:45Z</time>
      </trkpt>
      <trkpt lat="46.28468" lon="10.59991">
        <ele>2555.23</ele>
        <time>2018-09-15T02:07:05Z</time>
      </trkpt>
      <trkpt lat="46.28469" lon="10.59998">
        <ele>2553.836</ele>
        <time>2018-09-15T02:07:25Z</time>
      </trkpt>
      <trkpt lat="46.28469" lon="10.59999">
        <ele>2553.693</ele>
        <time>2018-09-15T02:07:45Z</time>
      </trkpt>
      <trkpt lat="46.28469" lon="10.60001">
        <ele>2553.496</ele>
        <time>2018-09-15T02:08:05Z</time>
      </trkpt>
      <trkpt lat="46.28471" lon="10.60013">
        <ele>2551.149</ele>
        <time>2018-09-15T02:08:25Z</time>
      </trkpt>
      <trkpt lat="46.28472" lon="10.60024">
        <ele>2549.412</ele>
        <time>2018-09-15T02:08:45Z</time>
      </trkpt>
      <trkpt lat="46.28473" lon="10.60031">
        <ele>2547.82</ele>
        <time>2018-09-15T02:09:05Z</time>
      </trkpt>
      <trkpt lat="46.28473" lon="10.60032">
        <ele>2547.727</ele>
        <time>2018-09-15T02:09:25Z</time>
      </trkpt>
      <trkpt lat="46.28473" lon="10.60043">
        <ele>2546.773</ele>
        <time>2018-09-15T02:09:45Z</time>
      </trkpt>
      <trkpt lat="46.28477" lon="10.6003">
        <ele>2545.185</ele>
        <time>2018-09-15T02:10:05Z</time>
      </trkpt>
      <trkpt lat="46.28478" lon="10.60022">
        <ele>2545.313</ele>
        <time>2018-09-15T02:10:25Z</time>
      </trkpt>
      <trkpt lat="46.28479" lon="10.60014">
        <ele>2545.408</ele>
        <time>2018-09-15T02:10:45Z</time>
      </trkpt>
      <trkpt lat="46.2848" lon="10.60012">
        <ele>2545.089</ele>
        <time>2018-09-15T02:11:05Z</time>
      </trkpt>
      <trkpt lat="46.28483" lon="10.60003">
        <ele>2543.455</ele>
        <time>2018-09-15T02:11:25Z</time>
      </trkpt>
      <trkpt lat="46.28493" lon="10.59988">
        <ele>2537.292</ele>
        <time>2018-09-15T02:11:45Z</time>
      </trkpt>
      <trkpt lat="46.28498" lon="10.5998">
        <ele>2533.955</ele>
        <time>2018-09-15T02:12:05Z</time>
      </trkpt>
      <trkpt lat="46.28506" lon="10.59969">
        <ele>2530.458</ele>
        <time>2018-09-15T02:12:25Z</time>
      </trkpt>
      <trkpt lat="46.28512" lon="10.59977">
        <ele>2527.411</ele>
        <time>2018-09-15T02:12:45Z</time>
      </trkpt>
      <trkpt lat="46.2852" lon="10.59991">
        <ele>2523.199</ele>
        <time>2018-09-15T02:13:05Z</time>
      </trkpt>
      <trkpt lat="46.28522" lon="10.60002">
        <ele>2521.486</ele>
        <time>2018-09-15T02:13:25Z</time>
      </trkpt>
      <trkpt lat="46.28522" lon="10.60011">
        <ele>2519.466</ele>
        <time>2018-09-15T02:13:45Z</time>
      </trkpt>
      <trkpt lat="46.28562" lon="10.60016">
        <ele>2509.029</ele>
        <time>2018-09-15T02:14:05Z</time>
      </trkpt>
      <trkpt lat="46.28567" lon="10.60038">
        <ele>2505.121</ele>
        <time>2018-09-15T02:14:25Z</time>
      </trkpt>
      <trkpt lat="46.2857" lon="10.60045">
        <ele>2503.908</ele>
        <time>2018-09-15T02:14:45Z</time>
      </trkpt>
      <trkpt lat="46.28572" lon="10.60049">
        <ele>2503.288</ele>
        <time>2018-09-15T02:15:05Z</time>
      </trkpt>
      <trkpt lat="46.28569" lon="10.60069">
        <ele>2500.574</ele>
        <time>2018-09-15T02:15:25Z</time>
      </trkpt>
      <trkpt lat="46.28572" lon="10.60085">
        <ele>2498.791</ele>
        <time>2018-09-15T02:15:45Z</time>
      </trkpt>
      <trkpt lat="46.2858" lon="10.60115">
        <ele>2493.744</ele>
        <time>2018-09-15T02:16:05Z</time>
      </trkpt>
      <trkpt lat="46.28576" lon="10.60125">
        <ele>2490.997</ele>
        <time>2018-09-15T02:16:25Z</time>
      </trkpt>
      <trkpt lat="46.28567" lon="10.60127">
        <ele>2490.29</ele>
        <time>2018-09-15T02:16:45Z</time>
      </trkpt>
      <trkpt lat="46.28554" lon="10.6013">
        <ele>2489.568</ele>
        <time>2018-09-15T02:17:05Z</time>
      </trkpt>
      <trkpt lat="46.2855" lon="10.6014">
        <ele>2488.175</ele>
        <time>2018-09-15T02:17:25Z</time>
      </trkpt>
      <trkpt lat="46.28562" lon="10.60141">
        <ele>2486.551</ele>
        <time>2018-09-15T02:17:45Z</time>
      </trkpt>
      <trkpt lat="46.2857" lon="10.60157">
        <ele>2482.401</ele>
        <time>2018-09-15T02:18:05Z</time>
      </trkpt>
      <trkpt lat="46.28575" lon="10.60163">
        <ele>2480.511</ele>
        <time>2018-09-15T02:18:25Z</time>
      </trkpt>
      <trkpt lat="46.28575" lon="10.60175">
        <ele>2478.208</ele>
        <time>2018-09-15T02:18:45Z</time>
      </trkpt>
      <trkpt lat="46.28569" lon="10.60181">
        <ele>2477.947</ele>
        <time>2018-09-15T02:19:05Z</time>
      </trkpt>
      <trkpt lat="46.28565" lon="10.60194">
        <ele>2476.713</ele>
        <time>2018-09-15T02:19:25Z</time>
      </trkpt>
      <trkpt lat="46.28568" lon="10.60201">
        <ele>2476.04</ele>
        <time>2018-09-15T02:19:45Z</time>
      </trkpt>
      <trkpt lat="46.28577" lon="10.60211">
        <ele>2473.313</ele>
        <time>2018-09-15T02:20:05Z</time>
      </trkpt>
      <trkpt lat="46.28588" lon="10.60215">
        <ele>2470.296</ele>
        <time>2018-09-15T02:20:25Z</time>
      </trkpt>
      <trkpt lat="46.286" lon="10.60212">
        <ele>2468.449</ele>
        <time>2018-09-15T02:20:45Z</time>
      </trkpt>
      <trkpt lat="46.28614" lon="10.60215">
        <ele>2465.267</ele>
        <time>2018-09-15T02:21:05Z</time>
      </trkpt>
      <trkpt lat="46.28624" lon="10.60217">
        <ele>2461.324</ele>
        <time>2018-09-15T02:21:25Z</time>
      </trkpt>
      <trkpt lat="46.28634" lon="10.60225">
        <ele>2457.342</ele>
        <time>2018-09-15T02:21:45Z</time>
      </trkpt>
      <trkpt lat="46.28655" lon="10.60234">
        <ele>2449.322</ele>
        <time>2018-09-15T02:22:05Z</time>
      </trkpt>
      <trkpt lat="46.28664" lon="10.60243">
        <ele>2446.414</ele>
        <time>2018-09-15T02:22:25Z</time>
      </trkpt>
      <trkpt lat="46.28672" lon="10.60246">
        <ele>2444.108</ele>
        <time>2018-09-15T02:22:45Z</time>
      </trkpt>
      <trkpt lat="46.2868" lon="10.60251">
        <ele>2441.746</ele>
        <time>2018-09-15T02:23:05Z</time>
      </trkpt>
      <trkpt lat="46.28686" lon="10.60237">
        <ele>2438.572</ele>
        <time>2018-09-15T02:23:25Z</time>
      </trkpt>
      <trkpt lat="46.28685" lon="10.6022">
        <ele>2437.279</ele>
        <time>2018-09-15T02:23:45Z</time>
      </trkpt>
      <trkpt lat="46.28697" lon="10.60217">
        <ele>2432.642</ele>
        <time>2018-09-15T02:24:05Z</time>
      </trkpt>
      <trkpt lat="46.28709" lon="10.60222">
        <ele>2429.175</ele>
        <time>2018-09-15T02:24:25Z</time>
      </trkpt>
      <trkpt lat="46.2874" lon="10.60235">
        <ele>2421.888</ele>
        <time>2018-09-15T02:24:45Z</time>
      </trkpt>
      <trkpt lat="46.28751" lon="10.6024">
        <ele>2419.626</ele>
        <time>2018-09-15T02:25:05Z</time>
      </trkpt>
      <trkpt lat="46.28768" lon="10.6025">
        <ele>2418.693</ele>
        <time>2018-09-15T02:25:25Z</time>
      </trkpt>
      <trkpt lat="46.28773" lon="10.60259">
        <ele>2417.229</ele>
        <time>2018-09-15T02:25:45Z</time>
      </trkpt>
      <trkpt lat="46.28774" lon="10.60271">
        <ele>2415.6</ele>
        <time>2018-09-15T02:26:05Z</time>
      </trkpt>
      <trkpt lat="46.28772" lon="10.60282">
        <ele>2414.62</ele>
        <time>2018-09-15T02:26:25Z</time>
      </trkpt>
      <trkpt lat="46.2877" lon="10.60291">
        <ele>2413.808</ele>
        <time>2018-09-15T02:26:45Z</time>
      </trkpt>
      <trkpt lat="46.28779" lon="10.60287">
        <ele>2412.594</ele>
        <time>2018-09-15T02:27:05Z</time>
      </trkpt>
      <trkpt lat="46.2878" lon="10.60302">
        <ele>2410.05</ele>
        <time>2018-09-15T02:27:25Z</time>
      </trkpt>
      <trkpt lat="46.2878" lon="10.60314">
        <ele>2408.427</ele>
        <time>2018-09-15T02:27:45Z</time>
      </trkpt>
      <trkpt lat="46.28783" lon="10.6033">
        <ele>2405.31</ele>
        <time>2018-09-15T02:28:05Z</time>
      </trkpt>
      <trkpt lat="46.28789" lon="10.60333">
        <ele>2402.193</ele>
        <time>2018-09-15T02:28:25Z</time>
      </trkpt>
      <trkpt lat="46.28796" lon="10.60324">
        <ele>2401.196</ele>
        <time>2018-09-15T02:28:45Z</time>
      </trkpt>
      <trkpt lat="46.28803" lon="10.60316">
        <ele>2400.754</ele>
        <time>2018-09-15T02:29:05Z</time>
      </trkpt>
      <trkpt lat="46.28807" lon="10.60331">
        <ele>2395.081</ele>
        <time>2018-09-15T02:29:25Z</time>
      </trkpt>
      <trkpt lat="46.28811" lon="10.60341">
        <ele>2390.734</ele>
        <time>2018-09-15T02:29:45Z</time>
      </trkpt>
      <trkpt lat="46.28813" lon="10.60348">
        <ele>2388.155</ele>
        <time>2018-09-15T02:30:05Z</time>
      </trkpt>
      <trkpt lat="46.28823" lon="10.6034">
        <ele>2384.21</ele>
        <time>2018-09-15T02:30:25Z</time>
      </trkpt>
      <trkpt lat="46.28831" lon="10.60333">
        <ele>2380.608</ele>
        <time>2018-09-15T02:30:45Z</time>
      </trkpt>
      <trkpt lat="46.28835" lon="10.60339">
        <ele>2377.755</ele>
        <time>2018-09-15T02:31:05Z</time>
      </trkpt>
      <trkpt lat="46.2884" lon="10.6035">
        <ele>2374.421</ele>
        <time>2018-09-15T02:31:25Z</time>
      </trkpt>
      <trkpt lat="46.28857" lon="10.60349">
        <ele>2368.898</ele>
        <time>2018-09-15T02:31:45Z</time>
      </trkpt>
      <trkpt lat="46.28875" lon="10.60371">
        <ele>2362.831</ele>
        <time>2018-09-15T02:32:05Z</time>
      </trkpt>
      <trkpt lat="46.28888" lon="10.6038">
        <ele>2359.844</ele>
        <time>2018-09-15T02:32:25Z</time>
      </trkpt>
      <trkpt lat="46.28902" lon="10.60388">
        <ele>2356.447</ele>
        <time>2018-09-15T02:32:45Z</time>
      </trkpt>
      <trkpt lat="46.28903" lon="10.60388">
        <ele>2356.165</ele>
        <time>2018-09-15T02:33:05Z</time>
      </trkpt>
      <trkpt lat="46.28912" lon="10.60392">
        <ele>2354.082</ele>
        <time>2018-09-15T02:33:25Z</time>
      </trkpt>
      <trkpt lat="46.28914" lon="10.60393">
        <ele>2353.599</ele>
        <time>2018-09-15T02:33:45Z</time>
      </trkpt>
      <trkpt lat="46.28923" lon="10.60406">
        <ele>2349.607</ele>
        <time>2018-09-15T02:34:05Z</time>
      </trkpt>
      <trkpt lat="46.28931" lon="10.6042">
        <ele>2345.327</ele>
        <time>2018-09-15T02:34:25Z</time>
      </trkpt>
      <trkpt lat="46.28936" lon="10.60439">
        <ele>2339.808</ele>
        <time>2018-09-15T02:34:45Z</time>
      </trkpt>
      <trkpt lat="46.28943" lon="10.6045">
        <ele>2335.981</ele>
        <time>2018-09-15T02:35:05Z</time>
      </trkpt>
      <trkpt lat="46.28949" lon="10.60454">
        <ele>2334.457</ele>
        <time>2018-09-15T02:35:25Z</time>
      </trkpt>
      <trkpt lat="46.28948" lon="10.60467">
        <ele>2331.474</ele>
        <time>2018-09-15T02:35:45Z</time>
      </trkpt>
      <trkpt lat="46.28943" lon="10.6048">
        <ele>2329.677</ele>
        <time>2018-09-15T02:36:05Z</time>
      </trkpt>
      <trkpt lat="46.28942" lon="10.60493">
        <ele>2327.06</ele>
        <time>2018-09-15T02:36:25Z</time>
      </trkpt>
      <trkpt lat="46.28944" lon="10.60509">
        <ele>2323.433</ele>
        <time>2018-09-15T02:36:45Z</time>
      </trkpt>
      <trkpt lat="46.28949" lon="10.6052">
        <ele>2320.421</ele>
        <time>2018-09-15T02:37:05Z</time>
      </trkpt>
      <trkpt lat="46.28952" lon="10.60533">
        <ele>2317.258</ele>
        <time>2018-09-15T02:37:25Z</time>
      </trkpt>
      <trkpt lat="46.28958" lon="10.60541">
        <ele>2314.384</ele>
        <time>2018-09-15T02:37:45Z</time>
      </trkpt>
      <trkpt lat="46.28969" lon="10.6054">
        <ele>2311.807</ele>
        <time>2018-09-15T02:38:05Z</time>
      </trkpt>
      <trkpt lat="46.28978" lon="10.60529">
        <ele>2312.117</ele>
        <time>2018-09-15T02:38:25Z</time>
      </trkpt>
      <trkpt lat="46.28987" lon="10.60522">
        <ele>2311.708</ele>
        <time>2018-09-15T02:38:45Z</time>
      </trkpt>
      <trkpt lat="46.28999" lon="10.60519">
        <ele>2309.75</ele>
        <time>2018-09-15T02:39:05Z</time>
      </trkpt>
      <trkpt lat="46.29009" lon="10.60528">
        <ele>2308.666</ele>
        <time>2018-09-15T02:39:25Z</time>
      </trkpt>
      <trkpt lat="46.29039" lon="10.60542">
        <ele>2305.053</ele>
        <time>2018-09-15T02:39:45Z</time>
      </trkpt>
      <trkpt lat="46.29049" lon="10.60549">
        <ele>2301.566</ele>
        <time>2018-09-15T02:40:05Z</time>
      </trkpt>
      <trkpt lat="46.29063" lon="10.6055">
        <ele>2300.489</ele>
        <time>2018-09-15T02:40:25Z</time>
      </trkpt>
      <trkpt lat="46.29075" lon="10.60554">
        <ele>2295.922</ele>
        <time>2018-09-15T02:40:45Z</time>
      </trkpt>
      <trkpt lat="46.29082" lon="10.60554">
        <ele>2294.72</ele>
        <time>2018-09-15T02:41:05Z</time>
      </trkpt>
      <trkpt lat="46.29077" lon="10.60566">
        <ele>2291.227</ele>
        <time>2018-09-15T02:41:25Z</time>
      </trkpt>
      <trkpt lat="46.29056" lon="10.60563">
        <ele>2294.411</ele>
        <time>2018-09-15T02:41:45Z</time>
      </trkpt>
      <trkpt lat="46.2904" lon="10.60566">
        <ele>2291.321</ele>
        <time>2018-09-15T02:42:05Z</time>
      </trkpt>
      <trkpt lat="46.29029" lon="10.60571">
        <ele>2287.703</ele>
        <time>2018-09-15T02:42:25Z</time>
      </trkpt>
      <trkpt lat="46.29018" lon="10.60582">
        <ele>2285.008</ele>
        <time>2018-09-15T02:42:45Z</time>
      </trkpt>
      <trkpt lat="46.29011" lon="10.60594">
        <ele>2282.093</ele>
        <time>2018-09-15T02:43:05Z</time>
      </trkpt>
      <trkpt lat="46.29007" lon="10.60602">
        <ele>2279.849</ele>
        <time>2018-09-15T02:43:25Z</time>
      </trkpt>
      <trkpt lat="46.29006" lon="10.6061">
        <ele>2276.716</ele>
        <time>2018-09-15T02:43:45Z</time>
      </trkpt>
      <trkpt lat="46.29023" lon="10.60612">
        <ele>2271.849</ele>
        <time>2018-09-15T02:44:05Z</time>
      </trkpt>
      <trkpt lat="46.29034" lon="10.60615">
        <ele>2269.652</ele>
        <time>2018-09-15T02:44:25Z</time>
      </trkpt>
      <trkpt lat="46.29041" lon="10.60622">
        <ele>2266.735</ele>
        <time>2018-09-15T02:44:45Z</time>
      </trkpt>
      <trkpt lat="46.29052" lon="10.60627">
        <ele>2264.413</ele>
        <time>2018-09-15T02:45:05Z</time>
      </trkpt>
      <trkpt lat="46.2906" lon="10.60638">
        <ele>2259.29</ele>
        <time>2018-09-15T02:45:25Z</time>
      </trkpt>
      <trkpt lat="46.2907" lon="10.60646">
        <ele>2256.437</ele>
        <time>2018-09-15T02:45:45Z</time>
      </trkpt>
      <trkpt lat="46.29079" lon="10.60661">
        <ele>2251.149</ele>
        <time>2018-09-15T02:46:05Z</time>
      </trkpt>
      <trkpt lat="46.29082" lon="10.60668">
        <ele>2248.713</ele>
        <time>2018-09-15T02:46:25Z</time>
      </trkpt>
      <trkpt lat="46.29083" lon="10.60691">
        <ele>2243.808</ele>
        <time>2018-09-15T02:46:45Z</time>
      </trkpt>
      <trkpt lat="46.2909" lon="10.60709">
        <ele>2239.125</ele>
        <time>2018-09-15T02:47:05Z</time>
      </trkpt>
      <trkpt lat="46.29097" lon="10.60718">
        <ele>2235.991</ele>
        <time>2018-09-15T02:47:25Z</time>
      </trkpt>
      <trkpt lat="46.29103" lon="10.60725">
        <ele>2233.678</ele>
        <time>2018-09-15T02:47:45Z</time>
      </trkpt>
      <trkpt lat="46.29112" lon="10.60723">
        <ele>2231.531</ele>
        <time>2018-09-15T02:48:05Z</time>
      </trkpt>
      <trkpt lat="46.29115" lon="10.60709">
        <ele>2233.344</ele>
        <time>2018-09-15T02:48:25Z</time>
      </trkpt>
      <trkpt lat="46.29125" lon="10.60697">
        <ele>2232.397</ele>
        <time>2018-09-15T02:48:45Z</time>
      </trkpt>
      <trkpt lat="46.29141" lon="10.6069">
        <ele>2228.335</ele>
        <time>2018-09-15T02:49:05Z</time>
      </trkpt>
      <trkpt lat="46.29151" lon="10.60684">
        <ele>2223.592</ele>
        <time>2018-09-15T02:49:25Z</time>
      </trkpt>
      <trkpt lat="46.29162" lon="10.60677">
        <ele>2217.871</ele>
        <time>2018-09-15T02:49:45Z</time>
      </trkpt>
      <trkpt lat="46.29169" lon="10.60666">
        <ele>2216.241</ele>
        <time>2018-09-15T02:50:05Z</time>
      </trkpt>
      <trkpt lat="46.29169" lon="10.60645">
        <ele>2221.115</ele>
        <time>2018-09-15T02:50:25Z</time>
      </trkpt>
      <trkpt lat="46.29186" lon="10.60621">
        <ele>2218.908</ele>
        <time>2018-09-15T02:50:45Z</time>
      </trkpt>
      <trkpt lat="46.29195" lon="10.60616">
        <ele>2216.139</ele>
        <time>2018-09-15T02:51:05Z</time>
      </trkpt>
      <trkpt lat="46.29203" lon="10.60615">
        <ele>2215.375</ele>
        <time>2018-09-15T02:51:25Z</time>
      </trkpt>
      <trkpt lat="46.29212" lon="10.60626">
        <ele>2210.082</ele>
        <time>2018-09-15T02:51:45Z</time>
      </trkpt>
      <trkpt lat="46.29214" lon="10.60639">
        <ele>2205.185</ele>
        <time>2018-09-15T02:52:05Z</time>
      </trkpt>
      <trkpt lat="46.29214" lon="10.60671">
        <ele>2198.938</ele>
        <time>2018-09-15T02:52:25Z</time>
      </trkpt>
      <trkpt lat="46.29219" lon="10.60701">
        <ele>2194.161</ele>
        <time>2018-09-15T02:52:45Z</time>
      </trkpt>
      <trkpt lat="46.29225" lon="10.60707">
        <ele>2193.399</ele>
        <time>2018-09-15T02:53:05Z</time>
      </trkpt>
      <trkpt lat="46.29231" lon="10.60717">
        <ele>2192.226</ele>
        <time>2018-09-15T02:53:25Z</time>
      </trkpt>
      <trkpt lat="46.29233" lon="10.60729">
        <ele>2190.248</ele>
        <time>2018-09-15T02:53:45Z</time>
      </trkpt>
      <trkpt lat="46.29236" lon="10.60746">
        <ele>2187.361</ele>
        <time>2018-09-15T02:54:05Z</time>
      </trkpt>
      <trkpt lat="46.29239" lon="10.60754">
        <ele>2185.517</ele>
        <time>2018-09-15T02:54:25Z</time>
      </trkpt>
      <trkpt lat="46.29238" lon="10.60769">
        <ele>2182.708</ele>
        <time>2018-09-15T02:54:45Z</time>
      </trkpt>
      <trkpt lat="46.29239" lon="10.60784">
        <ele>2179.676</ele>
        <time>2018-09-15T02:55:05Z</time>
      </trkpt>
      <trkpt lat="46.29242" lon="10.60796">
        <ele>2177.242</ele>
        <time>2018-09-15T02:55:25Z</time>
      </trkpt>
      <trkpt lat="46.2924" lon="10.60812">
        <ele>2174.079</ele>
        <time>2018-09-15T02:55:45Z</time>
      </trkpt>
      <trkpt lat="46.29247" lon="10.60819">
        <ele>2171.722</ele>
        <time>2018-09-15T02:56:05Z</time>
      </trkpt>
      <trkpt lat="46.2926" lon="10.60818">
        <ele>2171.215</ele>
        <time>2018-09-15T02:56:25Z</time>
      </trkpt>
      <trkpt lat="46.29264" lon="10.60826">
        <ele>2169.078</ele>
        <time>2018-09-15T02:56:45Z</time>
      </trkpt>
      <trkpt lat="46.29256" lon="10.60836">
        <ele>2166.616</ele>
        <time>2018-09-15T02:57:05Z</time>
      </trkpt>
      <trkpt lat="46.29252" lon="10.60846">
        <ele>2164.273</ele>
        <time>2018-09-15T02:57:25Z</time>
      </trkpt>
      <trkpt lat="46.29258" lon="10.60854">
        <ele>2160.868</ele>
        <time>2018-09-15T02:57:45Z</time>
      </trkpt>
      <trkpt lat="46.29265" lon="10.60865">
        <ele>2156.442</ele>
        <time>2018-09-15T02:58:05Z</time>
      </trkpt>
      <trkpt lat="46.29258" lon="10.6088">
        <ele>2152.326</ele>
        <time>2018-09-15T02:58:25Z</time>
      </trkpt>
      <trkpt lat="46.29249" lon="10.60889">
        <ele>2149.908</ele>
        <time>2018-09-15T02:58:45Z</time>
      </trkpt>
      <trkpt lat="46.29246" lon="10.60905">
        <ele>2145.048</ele>
        <time>2018-09-15T02:59:05Z</time>
      </trkpt>
      <trkpt lat="46.29255" lon="10.60922">
        <ele>2140.064</ele>
        <time>2018-09-15T02:59:25Z</time>
      </trkpt>
      <trkpt lat="46.29276" lon="10.60945">
        <ele>2131.841</ele>
        <time>2018-09-15T02:59:45Z</time>
      </trkpt>
      <trkpt lat="46.29285" lon="10.60962">
        <ele>2126.964</ele>
        <time>2018-09-15T03:00:05Z</time>
      </trkpt>
      <trkpt lat="46.29297" lon="10.60971">
        <ele>2125.497</ele>
        <time>2018-09-15T03:00:25Z</time>
      </trkpt>
      <trkpt lat="46.29312" lon="10.60971">
        <ele>2126.42</ele>
        <time>2018-09-15T03:00:45Z</time>
      </trkpt>
      <trkpt lat="46.29323" lon="10.60969">
        <ele>2127.388</ele>
        <time>2018-09-15T03:01:05Z</time>
      </trkpt>
      <trkpt lat="46.29334" lon="10.60974">
        <ele>2126.175</ele>
        <time>2018-09-15T03:01:25Z</time>
      </trkpt>
      <trkpt lat="46.29342" lon="10.60975">
        <ele>2124.169</ele>
        <time>2018-09-15T03:01:45Z</time>
      </trkpt>
      <trkpt lat="46.29346" lon="10.60986">
        <ele>2119.204</ele>
        <time>2018-09-15T03:02:05Z</time>
      </trkpt>
      <trkpt lat="46.29334" lon="10.60992">
        <ele>2120.324</ele>
        <time>2018-09-15T03:02:25Z</time>
      </trkpt>
      <trkpt lat="46.29324" lon="10.61015">
        <ele>2112.108</ele>
        <time>2018-09-15T03:02:45Z</time>
      </trkpt>
      <trkpt lat="46.29314" lon="10.61025">
        <ele>2107.988</ele>
        <time>2018-09-15T03:03:05Z</time>
      </trkpt>
      <trkpt lat="46.29301" lon="10.6103">
        <ele>2105.534</ele>
        <time>2018-09-15T03:03:25Z</time>
      </trkpt>
      <trkpt lat="46.29287" lon="10.61037">
        <ele>2101.291</ele>
        <time>2018-09-15T03:03:45Z</time>
      </trkpt>
      <trkpt lat="46.29274" lon="10.61048">
        <ele>2095.564</ele>
        <time>2018-09-15T03:04:05Z</time>
      </trkpt>
      <trkpt lat="46.29263" lon="10.61061">
        <ele>2090.167</ele>
        <time>2018-09-15T03:04:25Z</time>
      </trkpt>
      <trkpt lat="46.29244" lon="10.61074">
        <ele>2081.75</ele>
        <time>2018-09-15T03:04:45Z</time>
      </trkpt>
      <trkpt lat="46.29236" lon="10.61077">
        <ele>2077.458</ele>
        <time>2018-09-15T03:05:05Z</time>
      </trkpt>
      <trkpt lat="46.29221" lon="10.61076">
        <ele>2072.715</ele>
        <time>2018-09-15T03:05:25Z</time>
      </trkpt>
      <trkpt lat="46.29211" lon="10.61074">
        <ele>2073.255</ele>
        <time>2018-09-15T03:05:45Z</time>
      </trkpt>
      <trkpt lat="46.292" lon="10.61075">
        <ele>2072.407</ele>
        <time>2018-09-15T03:06:05Z</time>
      </trkpt>
      <trkpt lat="46.29193" lon="10.61087">
        <ele>2067.617</ele>
        <time>2018-09-15T03:06:25Z</time>
      </trkpt>
      <trkpt lat="46.29191" lon="10.61107">
        <ele>2059.508</ele>
        <time>2018-09-15T03:06:45Z</time>
      </trkpt>
      <trkpt lat="46.29193" lon="10.61121">
        <ele>2054.157</ele>
        <time>2018-09-15T03:07:05Z</time>
      </trkpt>
      <trkpt lat="46.29195" lon="10.61126">
        <ele>2052.333</ele>
        <time>2018-09-15T03:07:25Z</time>
      </trkpt>
      <trkpt lat="46.29186" lon="10.61132">
        <ele>2050.72</ele>
        <time>2018-09-15T03:07:45Z</time>
      </trkpt>
      <trkpt lat="46.29179" lon="10.61144">
        <ele>2047.243</ele>
        <time>2018-09-15T03:08:05Z</time>
      </trkpt>
      <trkpt lat="46.29173" lon="10.61157">
        <ele>2043.956</ele>
        <time>2018-09-15T03:08:25Z</time>
      </trkpt>
      <trkpt lat="46.29172" lon="10.61166">
        <ele>2041.789</ele>
        <time>2018-09-15T03:08:45Z</time>
      </trkpt>
      <trkpt lat="46.29164" lon="10.61174">
        <ele>2040.037</ele>
        <time>2018-09-15T03:09:05Z</time>
      </trkpt>
      <trkpt lat="46.29155" lon="10.61181">
        <ele>2038.264</ele>
        <time>2018-09-15T03:09:25Z</time>
      </trkpt>
      <trkpt lat="46.29145" lon="10.61188">
        <ele>2036.141</ele>
        <time>2018-09-15T03:09:45Z</time>
      </trkpt>
      <trkpt lat="46.29133" lon="10.61197">
        <ele>2033.681</ele>
        <time>2018-09-15T03:10:05Z</time>
      </trkpt>
      <trkpt lat="46.29124" lon="10.6121">
        <ele>2030.609</ele>
        <time>2018-09-15T03:10:25Z</time>
      </trkpt>
      <trkpt lat="46.29115" lon="10.61227">
        <ele>2026.308</ele>
        <time>2018-09-15T03:10:45Z</time>
      </trkpt>
      <trkpt lat="46.29106" lon="10.61251">
        <ele>2021.576</ele>
        <time>2018-09-15T03:11:05Z</time>
      </trkpt>
      <trkpt lat="46.29101" lon="10.61268">
        <ele>2019.162</ele>
        <time>2018-09-15T03:11:25Z</time>
      </trkpt>
      <trkpt lat="46.29093" lon="10.61285">
        <ele>2017.359</ele>
        <time>2018-09-15T03:11:45Z</time>
      </trkpt>
      <trkpt lat="46.29092" lon="10.61289">
        <ele>2016.622</ele>
        <time>2018-09-15T03:12:05Z</time>
      </trkpt>
      <trkpt lat="46.29068" lon="10.61356">
        <ele>2004.715</ele>
        <time>2018-09-15T03:12:25Z</time>
      </trkpt>
      <trkpt lat="46.29067" lon="10.61368">
        <ele>2001.828</ele>
        <time>2018-09-15T03:12:45Z</time>
      </trkpt>
      <trkpt lat="46.29066" lon="10.61381">
        <ele>1999.076</ele>
        <time>2018-09-15T03:13:05Z</time>
      </trkpt>
      <trkpt lat="46.29062" lon="10.61402">
        <ele>1995.433</ele>
        <time>2018-09-15T03:13:25Z</time>
      </trkpt>
      <trkpt lat="46.2905" lon="10.61431">
        <ele>1992.028</ele>
        <time>2018-09-15T03:13:45Z</time>
      </trkpt>
      <trkpt lat="46.2904" lon="10.61454">
        <ele>1988.989</ele>
        <time>2018-09-15T03:14:05Z</time>
      </trkpt>
      <trkpt lat="46.29031" lon="10.61474">
        <ele>1987.317</ele>
        <time>2018-09-15T03:14:25Z</time>
      </trkpt>
      <trkpt lat="46.29024" lon="10.61487">
        <ele>1986.308</ele>
        <time>2018-09-15T03:14:45Z</time>
      </trkpt>
      <trkpt lat="46.2902" lon="10.61502">
        <ele>1984.784</ele>
        <time>2018-09-15T03:15:05Z</time>
      </trkpt>
      <trkpt lat="46.29012" lon="10.61534">
        <ele>1980.48</ele>
        <time>2018-09-15T03:15:25Z</time>
      </trkpt>
      <trkpt lat="46.29003" lon="10.61563">
        <ele>1978.587</ele>
        <time>2018-09-15T03:15:45Z</time>
      </trkpt>
      <trkpt lat="46.28996" lon="10.61596">
        <ele>1976.19</ele>
        <time>2018-09-15T03:16:05Z</time>
      </trkpt>
      <trkpt lat="46.2899" lon="10.61622">
        <ele>1973.273</ele>
        <time>2018-09-15T03:16:25Z</time>
      </trkpt>
      <trkpt lat="46.28981" lon="10.61641">
        <ele>1970.616</ele>
        <time>2018-09-15T03:16:45Z</time>
      </trkpt>
      <trkpt lat="46.28964" lon="10.6168">
        <ele>1965.334</ele>
        <time>2018-09-15T03:17:05Z</time>
      </trkpt>
      <trkpt lat="46.28959" lon="10.61693">
        <ele>1963.281</ele>
        <time>2018-09-15T03:17:25Z</time>
      </trkpt>
      <trkpt lat="46.28956" lon="10.61704">
        <ele>1960.439</ele>
        <time>2018-09-15T03:17:45Z</time>
      </trkpt>
      <trkpt lat="46.2895" lon="10.61718">
        <ele>1956.801</ele>
        <time>2018-09-15T03:18:05Z</time>
      </trkpt>
      <trkpt lat="46.28944" lon="10.61733">
        <ele>1953.321</ele>
        <time>2018-09-15T03:18:25Z</time>
      </trkpt>
      <trkpt lat="46.28933" lon="10.61752">
        <ele>1948.808</ele>
        <time>2018-09-15T03:18:45Z</time>
      </trkpt>
      <trkpt lat="46.28903" lon="10.61745">
        <ele>1952.315</ele>
        <time>2018-09-15T03:19:05Z</time>
      </trkpt>
      <trkpt lat="46.28889" lon="10.61741">
        <ele>1954.271</ele>
        <time>2018-09-15T03:19:25Z</time>
      </trkpt>
      <trkpt lat="46.28861" lon="10.61756">
        <ele>1952.288</ele>
        <time>2018-09-15T03:19:45Z</time>
      </trkpt>
      <trkpt lat="46.28844" lon="10.61764">
        <ele>1949.191</ele>
        <time>2018-09-15T03:20:05Z</time>
      </trkpt>
      <trkpt lat="46.28824" lon="10.61785">
        <ele>1945.194</ele>
        <time>2018-09-15T03:20:25Z</time>
      </trkpt>
      <trkpt lat="46.28805" lon="10.61797">
        <ele>1944.617</ele>
        <time>2018-09-15T03:20:45Z</time>
      </trkpt>
      <trkpt lat="46.28748" lon="10.61819">
        <ele>1952.385</ele>
        <time>2018-09-15T03:21:05Z</time>
      </trkpt>
      <trkpt lat="46.28692" lon="10.61854">
        <ele>1965.572</ele>
        <time>2018-09-15T03:21:25Z</time>
      </trkpt>
      <trkpt lat="46.28667" lon="10.61863">
        <ele>1971.563</ele>
        <time>2018-09-15T03:21:45Z</time>
      </trkpt>
      <trkpt lat="46.28648" lon="10.61853">
        <ele>1982.044</ele>
        <time>2018-09-15T03:22:05Z</time>
      </trkpt>
      <trkpt lat="46.28655" lon="10.6182">
        <ele>1989.818</ele>
        <time>2018-09-15T03:22:25Z</time>
      </trkpt>
      <trkpt lat="46.28661" lon="10.6178">
        <ele>1996.908</ele>
        <time>2018-09-15T03:22:45Z</time>
      </trkpt>
      <trkpt lat="46.28679" lon="10.61729">
        <ele>2002.698</ele>
        <time>2018-09-15T03:23:05Z</time>
      </trkpt>
      <trkpt lat="46.28658" lon="10.61728">
        <ele>2012.584</ele>
        <time>2018-09-15T03:23:25Z</time>
      </trkpt>
      <trkpt lat="46.28647" lon="10.61737">
        <ele>2015.021</ele>
        <time>2018-09-15T03:23:45Z</time>
      </trkpt>
      <trkpt lat="46.2863" lon="10.61737">
        <ele>2023.474</ele>
        <time>2018-09-15T03:24:05Z</time>
      </trkpt>
      <trkpt lat="46.28615" lon="10.61745">
        <ele>2027.527</ele>
        <time>2018-09-15T03:24:25Z</time>
      </trkpt>
      <trkpt lat="46.28588" lon="10.61757">
        <ele>2039.47</ele>
        <time>2018-09-15T03:24:45Z</time>
      </trkpt>
      <trkpt lat="46.28566" lon="10.61774">
        <ele>2046.898</ele>
        <time>2018-09-15T03:25:05Z</time>
      </trkpt>
      <trkpt lat="46.28547" lon="10.61795">
        <ele>2051.535</ele>
        <time>2018-09-15T03:25:25Z</time>
      </trkpt>
      <trkpt lat="46.28523" lon="10.6181">
        <ele>2060.951</ele>
        <time>2018-09-15T03:25:45Z</time>
      </trkpt>
      <trkpt lat="46.28504" lon="10.61837">
        <ele>2064.801</ele>
        <time>2018-09-15T03:26:05Z</time>
      </trkpt>
      <trkpt lat="46.28493" lon="10.6187">
        <ele>2061.711</ele>
        <time>2018-09-15T03:26:25Z</time>
      </trkpt>
      <trkpt lat="46.28482" lon="10.61894">
        <ele>2070.808</ele>
        <time>2018-09-15T03:26:45Z</time>
      </trkpt>
      <trkpt lat="46.28462" lon="10.6193">
        <ele>2089.417</ele>
        <time>2018-09-15T03:27:05Z</time>
      </trkpt>
      <trkpt lat="46.28443" lon="10.61969">
        <ele>2102.513</ele>
        <time>2018-09-15T03:27:25Z</time>
      </trkpt>
      <trkpt lat="46.28419" lon="10.62014">
        <ele>2098.17</ele>
        <time>2018-09-15T03:27:45Z</time>
      </trkpt>
      <trkpt lat="46.28389" lon="10.62038">
        <ele>2097.423</ele>
        <time>2018-09-15T03:28:05Z</time>
      </trkpt>
      <trkpt lat="46.28357" lon="10.62064">
        <ele>2097.286</ele>
        <time>2018-09-15T03:28:25Z</time>
      </trkpt>
      <trkpt lat="46.28325" lon="10.62088">
        <ele>2100.939</ele>
        <time>2018-09-15T03:28:45Z</time>
      </trkpt>
      <trkpt lat="46.28293" lon="10.62108">
        <ele>2104.117</ele>
        <time>2018-09-15T03:29:05Z</time>
      </trkpt>
      <trkpt lat="46.28267" lon="10.62129">
        <ele>2107.594</ele>
        <time>2018-09-15T03:29:25Z</time>
      </trkpt>
      <trkpt lat="46.28245" lon="10.62165">
        <ele>2100.167</ele>
        <time>2018-09-15T03:29:45Z</time>
      </trkpt>
      <trkpt lat="46.28226" lon="10.62201">
        <ele>2091.381</ele>
        <time>2018-09-15T03:30:05Z</time>
      </trkpt>
      <trkpt lat="46.28189" lon="10.62246">
        <ele>2087.219</ele>
        <time>2018-09-15T03:30:25Z</time>
      </trkpt>
      <trkpt lat="46.28157" lon="10.62275">
        <ele>2082.108</ele>
        <time>2018-09-15T03:30:45Z</time>
      </trkpt>
      <trkpt lat="46.28129" lon="10.62302">
        <ele>2080.628</ele>
        <time>2018-09-15T03:31:05Z</time>
      </trkpt>
      <trkpt lat="46.28101" lon="10.62323">
        <ele>2083.874</ele>
        <time>2018-09-15T03:31:25Z</time>
      </trkpt>
      <trkpt lat="46.28069" lon="10.62349">
        <ele>2091.121</ele>
        <time>2018-09-15T03:31:45Z</time>
      </trkpt>
      <trkpt lat="46.28041" lon="10.62386">
        <ele>2088.294</ele>
        <time>2018-09-15T03:32:05Z</time>
      </trkpt>
      <trkpt lat="46.2803" lon="10.62404">
        <ele>2083.517</ele>
        <time>2018-09-15T03:32:25Z</time>
      </trkpt>
      <trkpt lat="46.2798" lon="10.62407">
        <ele>2066.96</ele>
        <time>2018-09-15T03:32:45Z</time>
      </trkpt>
      <trkpt lat="46.27976" lon="10.62406">
        <ele>2065.358</ele>
        <time>2018-09-15T03:33:05Z</time>
      </trkpt>
      <trkpt lat="46.27961" lon="10.62387">
        <ele>2059.865</ele>
        <time>2018-09-15T03:33:25Z</time>
      </trkpt>
      <trkpt lat="46.27935" lon="10.62362">
        <ele>2047.017</ele>
        <time>2018-09-15T03:33:45Z</time>
      </trkpt>
      <trkpt lat="46.27916" lon="10.62342">
        <ele>2039.487</ele>
        <time>2018-09-15T03:34:05Z</time>
      </trkpt>
      <trkpt lat="46.27893" lon="10.62323">
        <ele>2030.215</ele>
        <time>2018-09-15T03:34:25Z</time>
      </trkpt>
      <trkpt lat="46.27883" lon="10.62298">
        <ele>2029.508</ele>
        <time>2018-09-15T03:34:45Z</time>
      </trkpt>
      <trkpt lat="46.27876" lon="10.62284">
        <ele>2029.423</ele>
        <time>2018-09-15T03:35:05Z</time>
      </trkpt>
      <trkpt lat="46.27869" lon="10.62272">
        <ele>2028.329</ele>
        <time>2018-09-15T03:35:25Z</time>
      </trkpt>
      <trkpt lat="46.27861" lon="10.6226">
        <ele>2026.956</ele>
        <time>2018-09-15T03:35:45Z</time>
      </trkpt>
      <trkpt lat="46.27845" lon="10.62241">
        <ele>2024.719</ele>
        <time>2018-09-15T03:36:05Z</time>
      </trkpt>
      <trkpt lat="46.27834" lon="10.62213">
        <ele>2024.852</ele>
        <time>2018-09-15T03:36:25Z</time>
      </trkpt>
      <trkpt lat="46.27826" lon="10.62197">
        <ele>2023.255</ele>
        <time>2018-09-15T03:36:45Z</time>
      </trkpt>
      <trkpt lat="46.27814" lon="10.62162">
        <ele>2020.173</ele>
        <time>2018-09-15T03:37:05Z</time>
      </trkpt>
      <trkpt lat="46.27803" lon="10.6214">
        <ele>2016.83</ele>
        <time>2018-09-15T03:37:25Z</time>
      </trkpt>
      <trkpt lat="46.27794" lon="10.62108">
        <ele>2017.723</ele>
        <time>2018-09-15T03:37:45Z</time>
      </trkpt>
      <trkpt lat="46.27789" lon="10.62075">
        <ele>2021.683</ele>
        <time>2018-09-15T03:38:05Z</time>
      </trkpt>
      <trkpt lat="46.27783" lon="10.62051">
        <ele>2022.011</ele>
        <time>2018-09-15T03:38:25Z</time>
      </trkpt>
      <trkpt lat="46.27772" lon="10.62037">
        <ele>2017.308</ele>
        <time>2018-09-15T03:38:45Z</time>
      </trkpt>
      <trkpt lat="46.27765" lon="10.61993">
        <ele>2016.264</ele>
        <time>2018-09-15T03:39:05Z</time>
      </trkpt>
      <trkpt lat="46.27755" lon="10.6196">
        <ele>2015.95</ele>
        <time>2018-09-15T03:39:25Z</time>
      </trkpt>
      <trkpt lat="46.27714" lon="10.61862">
        <ele>2013.777</ele>
        <time>2018-09-15T03:39:45Z</time>
      </trkpt>
      <trkpt lat="46.2771" lon="10.61843">
        <ele>2012.24</ele>
        <time>2018-09-15T03:40:05Z</time>
      </trkpt>
      <trkpt lat="46.27673" lon="10.61713">
        <ele>2007.553</ele>
        <time>2018-09-15T03:40:25Z</time>
      </trkpt>
      <trkpt lat="46.27667" lon="10.61692">
        <ele>2008.136</ele>
        <time>2018-09-15T03:40:45Z</time>
      </trkpt>
      <trkpt lat="46.27656" lon="10.6166">
        <ele>2004.414</ele>
        <time>2018-09-15T03:41:05Z</time>
      </trkpt>
      <trkpt lat="46.27637" lon="10.61601">
        <ele>2001.961</ele>
        <time>2018-09-15T03:41:25Z</time>
      </trkpt>
      <trkpt lat="46.27628" lon="10.61575">
        <ele>2003.172</ele>
        <time>2018-09-15T03:41:45Z</time>
      </trkpt>
      <trkpt lat="46.27601" lon="10.61492">
        <ele>2002.513</ele>
        <time>2018-09-15T03:42:05Z</time>
      </trkpt>
      <trkpt lat="46.27581" lon="10.61437">
        <ele>2004.014</ele>
        <time>2018-09-15T03:42:25Z</time>
      </trkpt>
      <trkpt lat="46.2754" lon="10.61357">
        <ele>2000.708</ele>
        <time>2018-09-15T03:42:45Z</time>
      </trkpt>
      <trkpt lat="46.27519" lon="10.61305">
        <ele>2002.089</ele>
        <time>2018-09-15T03:43:05Z</time>
      </trkpt>
      <trkpt lat="46.27475" lon="10.61196">
        <ele>1999.835</ele>
        <time>2018-09-15T03:43:25Z</time>
      </trkpt>
      <trkpt lat="46.27468" lon="10.61176">
        <ele>2000.862</ele>
        <time>2018-09-15T03:43:45Z</time>
      </trkpt>
      <trkpt lat="46.27457" lon="10.61145">
        <ele>2002.195</ele>
        <time>2018-09-15T03:44:05Z</time>
      </trkpt>
      <trkpt lat="46.27457" lon="10.61144">
        <ele>2002.148</ele>
        <time>2018-09-15T03:44:25Z</time>
      </trkpt>
      <trkpt lat="46.27457" lon="10.61144">
        <ele>2002.161</ele>
        <time>2018-09-15T03:44:45Z</time>
      </trkpt>
      <trkpt lat="46.27419" lon="10.6106">
        <ele>1997.439</ele>
        <time>2018-09-15T03:45:05Z</time>
      </trkpt>
      <trkpt lat="46.27404" lon="10.61031">
        <ele>1995.636</ele>
        <time>2018-09-15T03:45:25Z</time>
      </trkpt>
      <trkpt lat="46.2739" lon="10.60973">
        <ele>1998.314</ele>
        <time>2018-09-15T03:45:45Z</time>
      </trkpt>
      <trkpt lat="46.27393" lon="10.60926">
        <ele>2002.754</ele>
        <time>2018-09-15T03:46:05Z</time>
      </trkpt>
      <trkpt lat="46.27393" lon="10.60879">
        <ele>2005.509</ele>
        <time>2018-09-15T03:46:25Z</time>
      </trkpt>
      <trkpt lat="46.2737" lon="10.60839">
        <ele>2004.108</ele>
        <time>2018-09-15T03:46:45Z</time>
      </trkpt>
      <trkpt lat="46.27345" lon="10.60866">
        <ele>1995.053</ele>
        <time>2018-09-15T03:47:05Z</time>
      </trkpt>
      <trkpt lat="46.27333" lon="10.60876">
        <ele>1990.869</ele>
        <time>2018-09-15T03:47:25Z</time>
      </trkpt>
      <trkpt lat="46.27315" lon="10.60895">
        <ele>1983.816</ele>
        <time>2018-09-15T03:47:45Z</time>
      </trkpt>
      <trkpt lat="46.27287" lon="10.60909">
        <ele>1975.279</ele>
        <time>2018-09-15T03:48:05Z</time>
      </trkpt>
      <trkpt lat="46.2727" lon="10.60926">
        <ele>1969.642</ele>
        <time>2018-09-15T03:48:25Z</time>
      </trkpt>
      <trkpt lat="46.27248" lon="10.6095">
        <ele>1962.635</ele>
        <time>2018-09-15T03:48:45Z</time>
      </trkpt>
      <trkpt lat="46.27234" lon="10.60964">
        <ele>1956.493</ele>
        <time>2018-09-15T03:49:05Z</time>
      </trkpt>
      <trkpt lat="46.27215" lon="10.60983">
        <ele>1949.02</ele>
        <time>2018-09-15T03:49:25Z</time>
      </trkpt>
      <trkpt lat="46.27199" lon="10.60996">
        <ele>1943.569</ele>
        <time>2018-09-15T03:49:45Z</time>
      </trkpt>
      <trkpt lat="46.27187" lon="10.61002">
        <ele>1940.604</ele>
        <time>2018-09-15T03:50:05Z</time>
      </trkpt>
      <trkpt lat="46.27176" lon="10.6101">
        <ele>1938.124</ele>
        <time>2018-09-15T03:50:25Z</time>
      </trkpt>
      <trkpt lat="46.27155" lon="10.61036">
        <ele>1932.108</ele>
        <time>2018-09-15T03:50:45Z</time>
      </trkpt>
      <trkpt lat="46.27146" lon="10.61009">
        <ele>1932.278</ele>
        <time>2018-09-15T03:51:05Z</time>
      </trkpt>
      <trkpt lat="46.27143" lon="10.60998">
        <ele>1932.184</ele>
        <time>2018-09-15T03:51:25Z</time>
      </trkpt>
      <trkpt lat="46.27143" lon="10.60984">
        <ele>1933.261</ele>
        <time>2018-09-15T03:51:45Z</time>
      </trkpt>
      <trkpt lat="46.27136" lon="10.60967">
        <ele>1933.654</ele>
        <time>2018-09-15T03:52:05Z</time>
      </trkpt>
      <trkpt lat="46.27129" lon="10.60954">
        <ele>1934.637</ele>
        <time>2018-09-15T03:52:25Z</time>
      </trkpt>
      <trkpt lat="46.27125" lon="10.6093">
        <ele>1937.07</ele>
        <time>2018-09-15T03:52:45Z</time>
      </trkpt>
      <trkpt lat="46.27117" lon="10.60933">
        <ele>1935.218</ele>
        <time>2018-09-15T03:53:05Z</time>
      </trkpt>
      <trkpt lat="46.27117" lon="10.60933">
        <ele>1935.215</ele>
        <time>2018-09-15T03:53:25Z</time>
      </trkpt>
      <trkpt lat="46.27109" lon="10.60939">
        <ele>1933.236</ele>
        <time>2018-09-15T03:53:45Z</time>
      </trkpt>
      <trkpt lat="46.2707" lon="10.6097">
        <ele>1925.717</ele>
        <time>2018-09-15T03:54:05Z</time>
      </trkpt>
      <trkpt lat="46.27058" lon="10.60977">
        <ele>1924.018</ele>
        <time>2018-09-15T03:54:25Z</time>
      </trkpt>
      <trkpt lat="46.27036" lon="10.60986">
        <ele>1921.008</ele>
        <time>2018-09-15T03:54:45Z</time>
      </trkpt>
      <trkpt lat="46.27014" lon="10.60999">
        <ele>1917.095</ele>
        <time>2018-09-15T03:55:05Z</time>
      </trkpt>
      <trkpt lat="46.27006" lon="10.61018">
        <ele>1914.611</ele>
        <time>2018-09-15T03:55:25Z</time>
      </trkpt>
      <trkpt lat="46.26989" lon="10.61046">
        <ele>1910.468</ele>
        <time>2018-09-15T03:55:45Z</time>
      </trkpt>
      <trkpt lat="46.26976" lon="10.61065">
        <ele>1907.391</ele>
        <time>2018-09-15T03:56:05Z</time>
      </trkpt>
      <trkpt lat="46.2694" lon="10.61098">
        <ele>1900.544</ele>
        <time>2018-09-15T03:56:25Z</time>
      </trkpt>
      <trkpt lat="46.26923" lon="10.61114">
        <ele>1897.967</ele>
        <time>2018-09-15T03:56:45Z</time>
      </trkpt>
      <trkpt lat="46.26909" lon="10.61126">
        <ele>1895.635</ele>
        <time>2018-09-15T03:57:05Z</time>
      </trkpt>
      <trkpt lat="46.26897" lon="10.6113">
        <ele>1894.372</ele>
        <time>2018-09-15T03:57:25Z</time>
      </trkpt>
      <trkpt lat="46.26884" lon="10.61142">
        <ele>1891.895</ele>
        <time>2018-09-15T03:57:45Z</time>
      </trkpt>
      <trkpt lat="46.26863" lon="10.61151">
        <ele>1888.849</ele>
        <time>2018-09-15T03:58:05Z</time>
      </trkpt>
      <trkpt lat="46.26845" lon="10.61142">
        <ele>1887.323</ele>
        <time>2018-09-15T03:58:25Z</time>
      </trkpt>
      <trkpt lat="46.2683" lon="10.61131">
        <ele>1886.208</ele>
        <time>2018-09-15T03:58:45Z</time>
      </trkpt>
      <trkpt lat="46.26815" lon="10.61125">
        <ele>1884.291</ele>
        <time>2018-09-15T03:59:05Z</time>
      </trkpt>
      <trkpt lat="46.26803" lon="10.61114">
        <ele>1883.077</ele>
        <time>2018-09-15T03:59:25Z</time>
      </trkpt>
      <trkpt lat="46.26794" lon="10.61102">
        <ele>1881.784</ele>
        <time>2018-09-15T03:59:45Z</time>
      </trkpt>
      <trkpt lat="46.26775" lon="10.61087">
        <ele>1877.917</ele>
        <time>2018-09-15T04:00:05Z</time>
      </trkpt>
      <trkpt lat="46.26762" lon="10.61071">
        <ele>1875.59</ele>
        <time>2018-09-15T04:00:25Z</time>
      </trkpt>
      <trkpt lat="46.26748" lon="10.61069">
        <ele>1872.033</ele>
        <time>2018-09-15T04:00:45Z</time>
      </trkpt>
      <trkpt lat="46.2674" lon="10.61061">
        <ele>1870.241</ele>
        <time>2018-09-15T04:01:05Z</time>
      </trkpt>
      <trkpt lat="46.26717" lon="10.61045">
        <ele>1865.388</ele>
        <time>2018-09-15T04:01:25Z</time>
      </trkpt>
      <trkpt lat="46.26702" lon="10.61028">
        <ele>1862.655</ele>
        <time>2018-09-15T04:01:45Z</time>
      </trkpt>
      <trkpt lat="46.26687" lon="10.61014">
        <ele>1860.007</ele>
        <time>2018-09-15T04:02:05Z</time>
      </trkpt>
      <trkpt lat="46.26672" lon="10.61">
        <ele>1857.117</ele>
        <time>2018-09-15T04:02:25Z</time>
      </trkpt>
      <trkpt lat="46.26664" lon="10.60987">
        <ele>1855.708</ele>
        <time>2018-09-15T04:02:45Z</time>
      </trkpt>
      <trkpt lat="46.26655" lon="10.60967">
        <ele>1854.087</ele>
        <time>2018-09-15T04:03:05Z</time>
      </trkpt>
      <trkpt lat="46.26651" lon="10.60951">
        <ele>1852.643</ele>
        <time>2018-09-15T04:03:25Z</time>
      </trkpt>
      <trkpt lat="46.26646" lon="10.60939">
        <ele>1851.79</ele>
        <time>2018-09-15T04:03:45Z</time>
      </trkpt>
      <trkpt lat="46.26646" lon="10.60918">
        <ele>1852.353</ele>
        <time>2018-09-15T04:04:05Z</time>
      </trkpt>
      <trkpt lat="46.26645" lon="10.60891">
        <ele>1853.936</ele>
        <time>2018-09-15T04:04:25Z</time>
      </trkpt>
      <trkpt lat="46.26648" lon="10.60852">
        <ele>1857.319</ele>
        <time>2018-09-15T04:04:45Z</time>
      </trkpt>
      <trkpt lat="46.26651" lon="10.60811">
        <ele>1859.947</ele>
        <time>2018-09-15T04:05:05Z</time>
      </trkpt>
      <trkpt lat="46.26645" lon="10.60733">
        <ele>1862.554</ele>
        <time>2018-09-15T04:05:25Z</time>
      </trkpt>
      <trkpt lat="46.26638" lon="10.60675">
        <ele>1864.298</ele>
        <time>2018-09-15T04:05:45Z</time>
      </trkpt>
      <trkpt lat="46.26527" lon="10.60125">
        <ele>1892.415</ele>
        <time>2018-09-15T04:06:05Z</time>
      </trkpt>
      <trkpt lat="46.26513" lon="10.60044">
        <ele>1893.626</ele>
        <time>2018-09-15T04:06:25Z</time>
      </trkpt>
      <trkpt lat="46.26466" lon="10.60006">
        <ele>1892.108</ele>
        <time>2018-09-15T04:06:45Z</time>
      </trkpt>
      <trkpt lat="46.26372" lon="10.6007">
        <ele>1878.041</ele>
        <time>2018-09-15T04:07:05Z</time>
      </trkpt>
      <trkpt lat="46.26349" lon="10.60061">
        <ele>1875.067</ele>
        <time>2018-09-15T04:07:25Z</time>
      </trkpt>
      <trkpt lat="46.26326" lon="10.60061">
        <ele>1871.974</ele>
        <time>2018-09-15T04:07:45Z</time>
      </trkpt>
      <trkpt lat="46.26324" lon="10.60066">
        <ele>1871.497</ele>
        <time>2018-09-15T04:08:05Z</time>
      </trkpt>
      <trkpt lat="46.2631" lon="10.60099">
        <ele>1868.77</ele>
        <time>2018-09-15T04:08:25Z</time>
      </trkpt>
      <trkpt lat="46.26308" lon="10.60104">
        <ele>1868.453</ele>
        <time>2018-09-15T04:08:45Z</time>
      </trkpt>
      <trkpt lat="46.26297" lon="10.60144">
        <ele>1867.351</ele>
        <time>2018-09-15T04:09:05Z</time>
      </trkpt>
      <trkpt lat="46.26296" lon="10.60149">
        <ele>1867.248</ele>
        <time>2018-09-15T04:09:25Z</time>
      </trkpt>
      <trkpt lat="46.26283" lon="10.60205">
        <ele>1864.181</ele>
        <time>2018-09-15T04:09:45Z</time>
      </trkpt>
      <trkpt lat="46.26281" lon="10.60214">
        <ele>1863.661</ele>
        <time>2018-09-15T04:10:05Z</time>
      </trkpt>
      <trkpt lat="46.26273" lon="10.60258">
        <ele>1861.317</ele>
        <time>2018-09-15T04:10:25Z</time>
      </trkpt>
      <trkpt lat="46.26271" lon="10.60282">
        <ele>1860.008</ele>
        <time>2018-09-15T04:10:45Z</time>
      </trkpt>
      <trkpt lat="46.26271" lon="10.60295">
        <ele>1860.07</ele>
        <time>2018-09-15T04:11:05Z</time>
      </trkpt>
      <trkpt lat="46.26269" lon="10.60312">
        <ele>1860.086</ele>
        <time>2018-09-15T04:11:25Z</time>
      </trkpt>
      <trkpt lat="46.26268" lon="10.60331">
        <ele>1860.033</ele>
        <time>2018-09-15T04:11:45Z</time>
      </trkpt>
      <trkpt lat="46.2627" lon="10.60351">
        <ele>1860.466</ele>
        <time>2018-09-15T04:12:05Z</time>
      </trkpt>
      <trkpt lat="46.26273" lon="10.60375">
        <ele>1860.369</ele>
        <time>2018-09-15T04:12:25Z</time>
      </trkpt>
      <trkpt lat="46.26277" lon="10.60402">
        <ele>1859.922</ele>
        <time>2018-09-15T04:12:45Z</time>
      </trkpt>
      <trkpt lat="46.26277" lon="10.60436">
        <ele>1859.02</ele>
        <time>2018-09-15T04:13:05Z</time>
      </trkpt>
      <trkpt lat="46.26278" lon="10.60465">
        <ele>1858.147</ele>
        <time>2018-09-15T04:13:25Z</time>
      </trkpt>
      <trkpt lat="46.26275" lon="10.60486">
        <ele>1856.416</ele>
        <time>2018-09-15T04:13:45Z</time>
      </trkpt>
      <trkpt lat="46.2627" lon="10.60516">
        <ele>1853.276</ele>
        <time>2018-09-15T04:14:05Z</time>
      </trkpt>
      <trkpt lat="46.26265" lon="10.60542">
        <ele>1851.313</ele>
        <time>2018-09-15T04:14:25Z</time>
      </trkpt>
      <trkpt lat="46.26249" lon="10.6061">
        <ele>1849.808</ele>
        <time>2018-09-15T04:14:45Z</time>
      </trkpt>
      <trkpt lat="46.26237" lon="10.60643">
        <ele>1848.463</ele>
        <time>2018-09-15T04:15:05Z</time>
      </trkpt>
      <trkpt lat="46.26231" lon="10.60654">
        <ele>1847.759</ele>
        <time>2018-09-15T04:15:25Z</time>
      </trkpt>
      <trkpt lat="46.26227" lon="10.60677">
        <ele>1846.616</ele>
        <time>2018-09-15T04:15:45Z</time>
      </trkpt>
      <trkpt lat="46.26223" lon="10.60705">
        <ele>1844.359</ele>
        <time>2018-09-15T04:16:05Z</time>
      </trkpt>
      <trkpt lat="46.26215" lon="10.60745">
        <ele>1840.262</ele>
        <time>2018-09-15T04:16:25Z</time>
      </trkpt>
      <trkpt lat="46.26205" lon="10.60778">
        <ele>1836.115</ele>
        <time>2018-09-15T04:16:45Z</time>
      </trkpt>
      <trkpt lat="46.26195" lon="10.60801">
        <ele>1833.233</ele>
        <time>2018-09-15T04:17:05Z</time>
      </trkpt>
      <trkpt lat="46.26189" lon="10.60814">
        <ele>1830.66</ele>
        <time>2018-09-15T04:17:25Z</time>
      </trkpt>
      <trkpt lat="46.26179" lon="10.60827">
        <ele>1827.569</ele>
        <time>2018-09-15T04:17:45Z</time>
      </trkpt>
      <trkpt lat="46.26169" lon="10.60827">
        <ele>1825.304</ele>
        <time>2018-09-15T04:18:05Z</time>
      </trkpt>
      <trkpt lat="46.26151" lon="10.60834">
        <ele>1821.524</ele>
        <time>2018-09-15T04:18:25Z</time>
      </trkpt>
      <trkpt lat="46.26143" lon="10.60839">
        <ele>1819.708</ele>
        <time>2018-09-15T04:18:45Z</time>
      </trkpt>
      <trkpt lat="46.2612" lon="10.60849">
        <ele>1812.868</ele>
        <time>2018-09-15T04:19:05Z</time>
      </trkpt>
      <trkpt lat="46.26115" lon="10.60856">
        <ele>1810.094</ele>
        <time>2018-09-15T04:19:25Z</time>
      </trkpt>
      <trkpt lat="46.26109" lon="10.60861">
        <ele>1807.571</ele>
        <time>2018-09-15T04:19:45Z</time>
      </trkpt>
      <trkpt lat="46.26098" lon="10.6085">
        <ele>1807.024</ele>
        <time>2018-09-15T04:20:05Z</time>
      </trkpt>
      <trkpt lat="46.26093" lon="10.60844">
        <ele>1806.987</ele>
        <time>2018-09-15T04:20:25Z</time>
      </trkpt>
      <trkpt lat="46.26087" lon="10.60835">
        <ele>1807.46</ele>
        <time>2018-09-15T04:20:45Z</time>
      </trkpt>
      <trkpt lat="46.26082" lon="10.60827">
        <ele>1807.958</ele>
        <time>2018-09-15T04:21:05Z</time>
      </trkpt>
      <trkpt lat="46.26076" lon="10.6082">
        <ele>1807.815</ele>
        <time>2018-09-15T04:21:25Z</time>
      </trkpt>
      <trkpt lat="46.26069" lon="10.60818">
        <ele>1807.067</ele>
        <time>2018-09-15T04:21:45Z</time>
      </trkpt>
      <trkpt lat="46.26062" lon="10.60814">
        <ele>1806.181</ele>
        <time>2018-09-15T04:22:05Z</time>
      </trkpt>
      <trkpt lat="46.26055" lon="10.60809">
        <ele>1805.319</ele>
        <time>2018-09-15T04:22:25Z</time>
      </trkpt>
      <trkpt lat="46.26041" lon="10.60786">
        <ele>1803.208</ele>
        <time>2018-09-15T04:22:45Z</time>
      </trkpt>
      <trkpt lat="46.26029" lon="10.6075">
        <ele>1803.418</ele>
        <time>2018-09-15T04:23:05Z</time>
      </trkpt>
      <trkpt lat="46.26021" lon="10.60715">
        <ele>1802.484</ele>
        <time>2018-09-15T04:23:25Z</time>
      </trkpt>
      <trkpt lat="46.26015" lon="10.60694">
        <ele>1801.511</ele>
        <time>2018-09-15T04:23:45Z</time>
      </trkpt>
      <trkpt lat="46.26005" lon="10.60638">
        <ele>1800.624</ele>
        <time>2018-09-15T04:24:05Z</time>
      </trkpt>
      <trkpt lat="46.26" lon="10.60589">
        <ele>1799.737</ele>
        <time>2018-09-15T04:24:25Z</time>
      </trkpt>
      <trkpt lat="46.25996" lon="10.60545">
        <ele>1798.78</ele>
        <time>2018-09-15T04:24:45Z</time>
      </trkpt>
      <trkpt lat="46.25989" lon="10.60509">
        <ele>1797.758</ele>
        <time>2018-09-15T04:25:05Z</time>
      </trkpt>
      <trkpt lat="46.25982" lon="10.60475">
        <ele>1796.955</ele>
        <time>2018-09-15T04:25:25Z</time>
      </trkpt>
      <trkpt lat="46.25973" lon="10.60464">
        <ele>1795.112</ele>
        <time>2018-09-15T04:25:45Z</time>
      </trkpt>
      <trkpt lat="46.25968" lon="10.60458">
        <ele>1795.032</ele>
        <time>2018-09-15T04:26:05Z</time>
      </trkpt>
      <trkpt lat="46.2596" lon="10.60457">
        <ele>1795.005</ele>
        <time>2018-09-15T04:26:25Z</time>
      </trkpt>
      <trkpt lat="46.25945" lon="10.60461">
        <ele>1795.008</ele>
        <time>2018-09-15T04:26:45Z</time>
      </trkpt>
      <trkpt lat="46.25933" lon="10.6047">
        <ele>1796.663</ele>
        <time>2018-09-15T04:27:05Z</time>
      </trkpt>
      <trkpt lat="46.25928" lon="10.60482">
        <ele>1797.229</ele>
        <time>2018-09-15T04:27:25Z</time>
      </trkpt>
      <trkpt lat="46.25924" lon="10.60501">
        <ele>1798.296</ele>
        <time>2018-09-15T04:27:45Z</time>
      </trkpt>
      <trkpt lat="46.25918" lon="10.60531">
        <ele>1800.759</ele>
        <time>2018-09-15T04:28:05Z</time>
      </trkpt>
      <trkpt lat="46.25916" lon="10.60549">
        <ele>1801.852</ele>
        <time>2018-09-15T04:28:25Z</time>
      </trkpt>
      <trkpt lat="46.25919" lon="10.60573">
        <ele>1801.055</ele>
        <time>2018-09-15T04:28:45Z</time>
      </trkpt>
      <trkpt lat="46.25916" lon="10.60592">
        <ele>1802.233</ele>
        <time>2018-09-15T04:29:05Z</time>
      </trkpt>
      <trkpt lat="46.25912" lon="10.60602">
        <ele>1803.39</ele>
        <time>2018-09-15T04:29:25Z</time>
      </trkpt>
      <trkpt lat="46.25898" lon="10.60606">
        <ele>1806.873</ele>
        <time>2018-09-15T04:29:45Z</time>
      </trkpt>
      <trkpt lat="46.25893" lon="10.606">
        <ele>1808.385</ele>
        <time>2018-09-15T04:30:05Z</time>
      </trkpt>
      <trkpt lat="46.25892" lon="10.60599">
        <ele>1808.513</ele>
        <time>2018-09-15T04:30:25Z</time>
      </trkpt>
      <trkpt lat="46.25883" lon="10.60587">
        <ele>1810.908</ele>
        <time>2018-09-15T04:30:45Z</time>
      </trkpt>
      <trkpt lat="46.25872" lon="10.60568">
        <ele>1812.889</ele>
        <time>2018-09-15T04:31:05Z</time>
      </trkpt>
      <trkpt lat="46.25868" lon="10.60559">
        <ele>1813.555</ele>
        <time>2018-09-15T04:31:25Z</time>
      </trkpt>
      <trkpt lat="46.25843" lon="10.60534">
        <ele>1817.562</ele>
        <time>2018-09-15T04:31:45Z</time>
      </trkpt>
      <trkpt lat="46.2584" lon="10.6053">
        <ele>1817.925</ele>
        <time>2018-09-15T04:32:05Z</time>
      </trkpt>
      <trkpt lat="46.25818" lon="10.60502">
        <ele>1821.888</ele>
        <time>2018-09-15T04:32:25Z</time>
      </trkpt>
      <trkpt lat="46.25796" lon="10.60465">
        <ele>1827.361</ele>
        <time>2018-09-15T04:32:45Z</time>
      </trkpt>
      <trkpt lat="46.25791" lon="10.60451">
        <ele>1828.749</ele>
        <time>2018-09-15T04:33:05Z</time>
      </trkpt>
      <trkpt lat="46.25785" lon="10.60438">
        <ele>1830.046</ele>
        <time>2018-09-15T04:33:25Z</time>
      </trkpt>
      <trkpt lat="46.25784" lon="10.60435">
        <ele>1830.068</ele>
        <time>2018-09-15T04:33:45Z</time>
      </trkpt>
      <trkpt lat="46.2578" lon="10.60427">
        <ele>1830.942</ele>
        <time>2018-09-15T04:34:05Z</time>
      </trkpt>
      <trkpt lat="46.25773" lon="10.60421">
        <ele>1833.126</ele>
        <time>2018-09-15T04:34:25Z</time>
      </trkpt>
      <trkpt lat="46.25771" lon="10.6041">
        <ele>1833.708</ele>
        <time>2018-09-15T04:34:45Z</time>
      </trkpt>
      <trkpt lat="46.25765" lon="10.60391">
        <ele>1836.658</ele>
        <time>2018-09-15T04:35:05Z</time>
      </trkpt>
      <trkpt lat="46.25763" lon="10.60359">
        <ele>1832.414</ele>
        <time>2018-09-15T04:35:25Z</time>
      </trkpt>
      <trkpt lat="46.25762" lon="10.6033">
        <ele>1829.221</ele>
        <time>2018-09-15T04:35:45Z</time>
      </trkpt>
      <trkpt lat="46.25751" lon="10.60266">
        <ele>1832.214</ele>
        <time>2018-09-15T04:36:05Z</time>
      </trkpt>
      <trkpt lat="46.25743" lon="10.60194">
        <ele>1835.167</ele>
        <time>2018-09-15T04:36:25Z</time>
      </trkpt>
      <trkpt lat="46.25714" lon="10.60036">
        <ele>1842.13</ele>
        <time>2018-09-15T04:36:45Z</time>
      </trkpt>
      <trkpt lat="46.25699" lon="10.59946">
        <ele>1845.058</ele>
        <time>2018-09-15T04:37:05Z</time>
      </trkpt>
      <trkpt lat="46.25691" lon="10.59878">
        <ele>1845.675</ele>
        <time>2018-09-15T04:37:25Z</time>
      </trkpt>
      <trkpt lat="46.25683" lon="10.59834">
        <ele>1848.383</ele>
        <time>2018-09-15T04:37:45Z</time>
      </trkpt>
      <trkpt lat="46.25676" lon="10.59792">
        <ele>1849.625</ele>
        <time>2018-09-15T04:38:05Z</time>
      </trkpt>
      <trkpt lat="46.25671" lon="10.59757">
        <ele>1851.117</ele>
        <time>2018-09-15T04:38:25Z</time>
      </trkpt>
      <trkpt lat="46.25665" lon="10.59711">
        <ele>1852.708</ele>
        <time>2018-09-15T04:38:45Z</time>
      </trkpt>
      <trkpt lat="46.25662" lon="10.59656">
        <ele>1853.49</ele>
        <time>2018-09-15T04:39:05Z</time>
      </trkpt>
      <trkpt lat="46.25651" lon="10.59616">
        <ele>1857.136</ele>
        <time>2018-09-15T04:39:25Z</time>
      </trkpt>
      <trkpt lat="46.25651" lon="10.59528">
        <ele>1859.493</ele>
        <time>2018-09-15T04:39:45Z</time>
      </trkpt>
      <trkpt lat="46.25665" lon="10.59475">
        <ele>1859.296</ele>
        <time>2018-09-15T04:40:05Z</time>
      </trkpt>
      <trkpt lat="46.2567" lon="10.59415">
        <ele>1864.469</ele>
        <time>2018-09-15T04:40:25Z</time>
      </trkpt>
      <trkpt lat="46.25682" lon="10.59381">
        <ele>1864.882</ele>
        <time>2018-09-15T04:40:45Z</time>
      </trkpt>
      <trkpt lat="46.2569" lon="10.59349">
        <ele>1864.39</ele>
        <time>2018-09-15T04:41:05Z</time>
      </trkpt>
      <trkpt lat="46.25682" lon="10.59314">
        <ele>1867.977</ele>
        <time>2018-09-15T04:41:25Z</time>
      </trkpt>
      <trkpt lat="46.25681" lon="10.59286">
        <ele>1868.825</ele>
        <time>2018-09-15T04:41:45Z</time>
      </trkpt>
      <trkpt lat="46.25676" lon="10.59253">
        <ele>1869.626</ele>
        <time>2018-09-15T04:42:05Z</time>
      </trkpt>
      <trkpt lat="46.25668" lon="10.59219">
        <ele>1871.108</ele>
        <time>2018-09-15T04:42:25Z</time>
      </trkpt>
      <trkpt lat="46.25648" lon="10.59113">
        <ele>1869.408</ele>
        <time>2018-09-15T04:42:45Z</time>
      </trkpt>
      <trkpt lat="46.25644" lon="10.59091">
        <ele>1870.634</ele>
        <time>2018-09-15T04:43:05Z</time>
      </trkpt>
      <trkpt lat="46.25642" lon="10.59082">
        <ele>1871.13</ele>
        <time>2018-09-15T04:43:25Z</time>
      </trkpt>
      <trkpt lat="46.25642" lon="10.59009">
        <ele>1869.487</ele>
        <time>2018-09-15T04:43:45Z</time>
      </trkpt>
      <trkpt lat="46.25636" lon="10.5898">
        <ele>1869.99</ele>
        <time>2018-09-15T04:44:05Z</time>
      </trkpt>
      <trkpt lat="46.25619" lon="10.58954">
        <ele>1872.743</ele>
        <time>2018-09-15T04:44:25Z</time>
      </trkpt>
      <trkpt lat="46.25616" lon="10.58934">
        <ele>1872.936</ele>
        <time>2018-09-15T04:44:45Z</time>
      </trkpt>
      <trkpt lat="46.25615" lon="10.58913">
        <ele>1873.824</ele>
        <time>2018-09-15T04:45:05Z</time>
      </trkpt>
      <trkpt lat="46.25629" lon="10.58782">
        <ele>1877.571</ele>
        <time>2018-09-15T04:45:25Z</time>
      </trkpt>
      <trkpt lat="46.25631" lon="10.58772">
        <ele>1877.771</ele>
        <time>2018-09-15T04:45:45Z</time>
      </trkpt>
      <trkpt lat="46.25642" lon="10.58699">
        <ele>1880.041</ele>
        <time>2018-09-15T04:46:05Z</time>
      </trkpt>
      <trkpt lat="46.25645" lon="10.58655">
        <ele>1881.215</ele>
        <time>2018-09-15T04:46:25Z</time>
      </trkpt>
      <trkpt lat="46.25646" lon="10.58603">
        <ele>1883.308</ele>
        <time>2018-09-15T04:46:45Z</time>
      </trkpt>
      <trkpt lat="46.25649" lon="10.58586">
        <ele>1884.329</ele>
        <time>2018-09-15T04:47:05Z</time>
      </trkpt>
      <trkpt lat="46.2565" lon="10.58576">
        <ele>1884.755</ele>
        <time>2018-09-15T04:47:25Z</time>
      </trkpt>
      <trkpt lat="46.25646" lon="10.58435">
        <ele>1889.572</ele>
        <time>2018-09-15T04:47:45Z</time>
      </trkpt>
      <trkpt lat="46.2565" lon="10.58289">
        <ele>1890.155</ele>
        <time>2018-09-15T04:48:05Z</time>
      </trkpt>
      <trkpt lat="46.25663" lon="10.58254">
        <ele>1888.498</ele>
        <time>2018-09-15T04:48:25Z</time>
      </trkpt>
      <trkpt lat="46.25684" lon="10.58238">
        <ele>1886.731</ele>
        <time>2018-09-15T04:48:45Z</time>
      </trkpt>
      <trkpt lat="46.257" lon="10.58212">
        <ele>1885.519</ele>
        <time>2018-09-15T04:49:05Z</time>
      </trkpt>
      <trkpt lat="46.25698" lon="10.58194">
        <ele>1885.756</ele>
        <time>2018-09-15T04:49:25Z</time>
      </trkpt>
      <trkpt lat="46.25696" lon="10.58167">
        <ele>1885.842</ele>
        <time>2018-09-15T04:49:45Z</time>
      </trkpt>
      <trkpt lat="46.25694" lon="10.58136">
        <ele>1884.922</ele>
        <time>2018-09-15T04:50:05Z</time>
      </trkpt>
      <trkpt lat="46.25691" lon="10.58115">
        <ele>1884.214</ele>
        <time>2018-09-15T04:50:25Z</time>
      </trkpt>
      <trkpt lat="46.25685" lon="10.58083">
        <ele>1884.008</ele>
        <time>2018-09-15T04:50:45Z</time>
      </trkpt>
      <trkpt lat="46.25684" lon="10.58066">
        <ele>1883.646</ele>
        <time>2018-09-15T04:51:05Z</time>
      </trkpt>
      <trkpt lat="46.2568" lon="10.58049">
        <ele>1883.262</ele>
        <time>2018-09-15T04:51:25Z</time>
      </trkpt>
      <trkpt lat="46.2568" lon="10.58023">
        <ele>1882.329</ele>
        <time>2018-09-15T04:51:45Z</time>
      </trkpt>
      <trkpt lat="46.25679" lon="10.57984">
        <ele>1880.992</ele>
        <time>2018-09-15T04:52:05Z</time>
      </trkpt>
      <trkpt lat="46.25678" lon="10.5796">
        <ele>1880.595</ele>
        <time>2018-09-15T04:52:25Z</time>
      </trkpt>
      <trkpt lat="46.25675" lon="10.57916">
        <ele>1876.618</ele>
        <time>2018-09-15T04:52:45Z</time>
      </trkpt>
      <trkpt lat="46.25676" lon="10.57883">
        <ele>1876.456</ele>
        <time>2018-09-15T04:53:05Z</time>
      </trkpt>
      <trkpt lat="46.2568" lon="10.57849">
        <ele>1875.513</ele>
        <time>2018-09-15T04:53:25Z</time>
      </trkpt>
      <trkpt lat="46.25677" lon="10.57817">
        <ele>1875.264</ele>
        <time>2018-09-15T04:53:45Z</time>
      </trkpt>
      <trkpt lat="46.25679" lon="10.57788">
        <ele>1875.006</ele>
        <time>2018-09-15T04:54:05Z</time>
      </trkpt>
      <trkpt lat="46.2568" lon="10.57775">
        <ele>1874.716</ele>
        <time>2018-09-15T04:54:25Z</time>
      </trkpt>
      <trkpt lat="46.25674" lon="10.57724">
        <ele>1872.008</ele>
        <time>2018-09-15T04:54:45Z</time>
      </trkpt>
      <trkpt lat="46.25673" lon="10.57721">
        <ele>1871.878</ele>
        <time>2018-09-15T04:55:05Z</time>
      </trkpt>
      <trkpt lat="46.25654" lon="10.57665">
        <ele>1869.384</ele>
        <time>2018-09-15T04:55:25Z</time>
      </trkpt>
      <trkpt lat="46.25647" lon="10.57635">
        <ele>1867.461</ele>
        <time>2018-09-15T04:55:45Z</time>
      </trkpt>
      <trkpt lat="46.25642" lon="10.57612">
        <ele>1866.074</ele>
        <time>2018-09-15T04:56:05Z</time>
      </trkpt>
      <trkpt lat="46.25635" lon="10.57588">
        <ele>1864.727</ele>
        <time>2018-09-15T04:56:25Z</time>
      </trkpt>
      <trkpt lat="46.25622" lon="10.57563">
        <ele>1863.94</ele>
        <time>2018-09-15T04:56:45Z</time>
      </trkpt>
      <trkpt lat="46.25605" lon="10.5755">
        <ele>1864.238</ele>
        <time>2018-09-15T04:57:05Z</time>
      </trkpt>
      <trkpt lat="46.25594" lon="10.57525">
        <ele>1862.545</ele>
        <time>2018-09-15T04:57:25Z</time>
      </trkpt>
      <trkpt lat="46.25581" lon="10.57504">
        <ele>1861.719</ele>
        <time>2018-09-15T04:57:45Z</time>
      </trkpt>
      <trkpt lat="46.25497" lon="10.57419">
        <ele>1867.909</ele>
        <time>2018-09-15T04:58:05Z</time>
      </trkpt>
      <trkpt lat="46.25485" lon="10.57388">
        <ele>1870.419</ele>
        <time>2018-09-15T04:58:25Z</time>
      </trkpt>
      <trkpt lat="46.25466" lon="10.57344">
        <ele>1871.808</ele>
        <time>2018-09-15T04:58:45Z</time>
      </trkpt>
      <trkpt lat="46.25458" lon="10.57313">
        <ele>1871.073</ele>
        <time>2018-09-15T04:59:05Z</time>
      </trkpt>
      <trkpt lat="46.25446" lon="10.57249">
        <ele>1870.619</ele>
        <time>2018-09-15T04:59:25Z</time>
      </trkpt>
      <trkpt lat="46.25437" lon="10.57216">
        <ele>1873.276</ele>
        <time>2018-09-15T04:59:45Z</time>
      </trkpt>
      <trkpt lat="46.2542" lon="10.57185">
        <ele>1875.049</ele>
        <time>2018-09-15T05:00:05Z</time>
      </trkpt>
      <trkpt lat="46.25375" lon="10.57077">
        <ele>1869.382</ele>
        <time>2018-09-15T05:00:25Z</time>
      </trkpt>
      <trkpt lat="46.25371" lon="10.57053">
        <ele>1866.665</ele>
        <time>2018-09-15T05:00:45Z</time>
      </trkpt>
      <trkpt lat="46.25368" lon="10.57022">
        <ele>1863.313</ele>
        <time>2018-09-15T05:01:05Z</time>
      </trkpt>
      <trkpt lat="46.2537" lon="10.5699">
        <ele>1860.09</ele>
        <time>2018-09-15T05:01:25Z</time>
      </trkpt>
      <trkpt lat="46.25382" lon="10.56966">
        <ele>1858.853</ele>
        <time>2018-09-15T05:01:45Z</time>
      </trkpt>
      <trkpt lat="46.25386" lon="10.5693">
        <ele>1854.804</ele>
        <time>2018-09-15T05:02:05Z</time>
      </trkpt>
      <trkpt lat="46.25379" lon="10.56908">
        <ele>1852.114</ele>
        <time>2018-09-15T05:02:25Z</time>
      </trkpt>
      <trkpt lat="46.25368" lon="10.56892">
        <ele>1850.908</ele>
        <time>2018-09-15T05:02:45Z</time>
      </trkpt>
      <trkpt lat="46.25341" lon="10.56872">
        <ele>1848.127</ele>
        <time>2018-09-15T05:03:05Z</time>
      </trkpt>
      <trkpt lat="46.25324" lon="10.56863">
        <ele>1847.643</ele>
        <time>2018-09-15T05:03:25Z</time>
      </trkpt>
      <trkpt lat="46.25313" lon="10.56852">
        <ele>1846.28</ele>
        <time>2018-09-15T05:03:45Z</time>
      </trkpt>
      <trkpt lat="46.25315" lon="10.56827">
        <ele>1838.373</ele>
        <time>2018-09-15T05:04:05Z</time>
      </trkpt>
      <trkpt lat="46.25335" lon="10.5681">
        <ele>1833.486</ele>
        <time>2018-09-15T05:04:25Z</time>
      </trkpt>
      <trkpt lat="46.25349" lon="10.56797">
        <ele>1832.429</ele>
        <time>2018-09-15T05:04:45Z</time>
      </trkpt>
      <trkpt lat="46.25351" lon="10.56795">
        <ele>1832.357</ele>
        <time>2018-09-15T05:05:05Z</time>
      </trkpt>
      <trkpt lat="46.25394" lon="10.56716">
        <ele>1816.864</ele>
        <time>2018-09-15T05:05:25Z</time>
      </trkpt>
      <trkpt lat="46.25417" lon="10.5667">
        <ele>1806.536</ele>
        <time>2018-09-15T05:05:45Z</time>
      </trkpt>
      <trkpt lat="46.25437" lon="10.56597">
        <ele>1795.217</ele>
        <time>2018-09-15T05:06:05Z</time>
      </trkpt>
      <trkpt lat="46.25455" lon="10.56453">
        <ele>1779.918</ele>
        <time>2018-09-15T05:06:25Z</time>
      </trkpt>
      <trkpt lat="46.25489" lon="10.56113">
        <ele>1755.708</ele>
        <time>2018-09-15T05:06:45Z</time>
      </trkpt>
      <trkpt lat="46.25495" lon="10.56036">
        <ele>1750.035</ele>
        <time>2018-09-15T05:07:05Z</time>
      </trkpt>
      <trkpt lat="46.25501" lon="10.55956">
        <ele>1740.111</ele>
        <time>2018-09-15T05:07:25Z</time>
      </trkpt>
      <trkpt lat="46.25504" lon="10.55892">
        <ele>1731.158</ele>
        <time>2018-09-15T05:07:45Z</time>
      </trkpt>
      <trkpt lat="46.2553" lon="10.558">
        <ele>1725.231</ele>
        <time>2018-09-15T05:08:05Z</time>
      </trkpt>
      <trkpt lat="46.2553" lon="10.55797">
        <ele>1725.244</ele>
        <time>2018-09-15T05:08:25Z</time>
      </trkpt>
      <trkpt lat="46.25524" lon="10.55776">
        <ele>1724.797</ele>
        <time>2018-09-15T05:08:45Z</time>
      </trkpt>
      <trkpt lat="46.25514" lon="10.5574">
        <ele>1723.175</ele>
        <time>2018-09-15T05:09:05Z</time>
      </trkpt>
      <trkpt lat="46.25506" lon="10.55711">
        <ele>1721.282</ele>
        <time>2018-09-15T05:09:25Z</time>
      </trkpt>
      <trkpt lat="46.25502" lon="10.55697">
        <ele>1720.313</ele>
        <time>2018-09-15T05:09:45Z</time>
      </trkpt>
      <trkpt lat="46.25494" lon="10.55672">
        <ele>1719.143</ele>
        <time>2018-09-15T05:10:05Z</time>
      </trkpt>
      <trkpt lat="46.25488" lon="10.55651">
        <ele>1717.707</ele>
        <time>2018-09-15T05:10:25Z</time>
      </trkpt>
      <trkpt lat="46.25471" lon="10.55596">
        <ele>1713.808</ele>
        <time>2018-09-15T05:10:45Z</time>
      </trkpt>
      <trkpt lat="46.25457" lon="10.55553">
        <ele>1713.913</ele>
        <time>2018-09-15T05:11:05Z</time>
      </trkpt>
      <trkpt lat="46.25441" lon="10.55505">
        <ele>1713.239</ele>
        <time>2018-09-15T05:11:25Z</time>
      </trkpt>
      <trkpt lat="46.25441" lon="10.55503">
        <ele>1713.266</ele>
        <time>2018-09-15T05:11:45Z</time>
      </trkpt>
      <trkpt lat="46.25431" lon="10.55459">
        <ele>1714.069</ele>
        <time>2018-09-15T05:12:05Z</time>
      </trkpt>
      <trkpt lat="46.2543" lon="10.55457">
        <ele>1713.962</ele>
        <time>2018-09-15T05:12:25Z</time>
      </trkpt>
      <trkpt lat="46.25414" lon="10.55416">
        <ele>1713.315</ele>
        <time>2018-09-15T05:12:45Z</time>
      </trkpt>
      <trkpt lat="46.25384" lon="10.55368">
        <ele>1708.863</ele>
        <time>2018-09-15T05:13:05Z</time>
      </trkpt>
      <trkpt lat="46.25381" lon="10.55363">
        <ele>1708.27</ele>
        <time>2018-09-15T05:13:25Z</time>
      </trkpt>
      <trkpt lat="46.25371" lon="10.55331">
        <ele>1704.055</ele>
        <time>2018-09-15T05:13:45Z</time>
      </trkpt>
      <trkpt lat="46.25372" lon="10.55326">
        <ele>1704.007</ele>
        <time>2018-09-15T05:14:05Z</time>
      </trkpt>
      <trkpt lat="46.2537" lon="10.55317">
        <ele>1702.817</ele>
        <time>2018-09-15T05:14:25Z</time>
      </trkpt>
      <trkpt lat="46.25369" lon="10.55314">
        <ele>1702.508</ele>
        <time>2018-09-15T05:14:45Z</time>
      </trkpt>
      <trkpt lat="46.25364" lon="10.5529">
        <ele>1700.257</ele>
        <time>2018-09-15T05:15:05Z</time>
      </trkpt>
      <trkpt lat="46.25364" lon="10.55289">
        <ele>1700.173</ele>
        <time>2018-09-15T05:15:25Z</time>
      </trkpt>
      <trkpt lat="46.25354" lon="10.55264">
        <ele>1698.51</ele>
        <time>2018-09-15T05:15:45Z</time>
      </trkpt>
      <trkpt lat="46.25349" lon="10.5524">
        <ele>1698.283</ele>
        <time>2018-09-15T05:16:05Z</time>
      </trkpt>
      <trkpt lat="46.25347" lon="10.55232">
        <ele>1697.926</ele>
        <time>2018-09-15T05:16:25Z</time>
      </trkpt>
      <trkpt lat="46.25344" lon="10.55201">
        <ele>1697.439</ele>
        <time>2018-09-15T05:16:45Z</time>
      </trkpt>
      <trkpt lat="46.25341" lon="10.55189">
        <ele>1696.997</ele>
        <time>2018-09-15T05:17:05Z</time>
      </trkpt>
      <trkpt lat="46.2534" lon="10.55177">
        <ele>1696.324</ele>
        <time>2018-09-15T05:17:25Z</time>
      </trkpt>
      <trkpt lat="46.2534" lon="10.55177">
        <ele>1696.379</ele>
        <time>2018-09-15T05:17:45Z</time>
      </trkpt>
      <trkpt lat="46.2534" lon="10.55166">
        <ele>1695.905</ele>
        <time>2018-09-15T05:18:05Z</time>
      </trkpt>
      <trkpt lat="46.25338" lon="10.55135">
        <ele>1693.425</ele>
        <time>2018-09-15T05:18:25Z</time>
      </trkpt>
      <trkpt lat="46.25336" lon="10.55047">
        <ele>1688.608</ele>
        <time>2018-09-15T05:18:45Z</time>
      </trkpt>
      <trkpt lat="46.25331" lon="10.54903">
        <ele>1680.329</ele>
        <time>2018-09-15T05:19:05Z</time>
      </trkpt>
      <trkpt lat="46.2533" lon="10.54899">
        <ele>1679.895</ele>
        <time>2018-09-15T05:19:25Z</time>
      </trkpt>
      <trkpt lat="46.2533" lon="10.54882">
        <ele>1678.872</ele>
        <time>2018-09-15T05:19:45Z</time>
      </trkpt>
      <trkpt lat="46.25325" lon="10.54794">
        <ele>1673.385</ele>
        <time>2018-09-15T05:20:05Z</time>
      </trkpt>
      <trkpt lat="46.25325" lon="10.54717">
        <ele>1666.148</ele>
        <time>2018-09-15T05:20:25Z</time>
      </trkpt>
      <trkpt lat="46.25356" lon="10.54682">
        <ele>1667.331</ele>
        <time>2018-09-15T05:20:45Z</time>
      </trkpt>
      <trkpt lat="46.25371" lon="10.54666">
        <ele>1667.959</ele>
        <time>2018-09-15T05:21:05Z</time>
      </trkpt>
      <trkpt lat="46.25377" lon="10.54652">
        <ele>1667.736</ele>
        <time>2018-09-15T05:21:25Z</time>
      </trkpt>
      <trkpt lat="46.25389" lon="10.54632">
        <ele>1668.699</ele>
        <time>2018-09-15T05:21:45Z</time>
      </trkpt>
      <trkpt lat="46.25393" lon="10.5462">
        <ele>1668.607</ele>
        <time>2018-09-15T05:22:05Z</time>
      </trkpt>
      <trkpt lat="46.25401" lon="10.54603">
        <ele>1669.827</ele>
        <time>2018-09-15T05:22:25Z</time>
      </trkpt>
      <trkpt lat="46.25407" lon="10.54595">
        <ele>1671.408</ele>
        <time>2018-09-15T05:22:45Z</time>
      </trkpt>
      <trkpt lat="46.25409" lon="10.54593">
        <ele>1671.751</ele>
        <time>2018-09-15T05:23:05Z</time>
      </trkpt>
      <trkpt lat="46.25415" lon="10.54568">
        <ele>1674.627</ele>
        <time>2018-09-15T05:23:25Z</time>
      </trkpt>
      <trkpt lat="46.25419" lon="10.54555">
        <ele>1676.554</ele>
        <time>2018-09-15T05:23:45Z</time>
      </trkpt>
      <trkpt lat="46.25419" lon="10.54549">
        <ele>1676.627</ele>
        <time>2018-09-15T05:24:05Z</time>
      </trkpt>
      <trkpt lat="46.25419" lon="10.54549">
        <ele>1676.64</ele>
        <time>2018-09-15T05:24:25Z</time>
      </trkpt>
      <trkpt lat="46.25423" lon="10.54538">
        <ele>1677.943</ele>
        <time>2018-09-15T05:24:45Z</time>
      </trkpt>
      <trkpt lat="46.25433" lon="10.54498">
        <ele>1682.461</ele>
        <time>2018-09-15T05:25:05Z</time>
      </trkpt>
      <trkpt lat="46.25434" lon="10.54495">
        <ele>1682.748</ele>
        <time>2018-09-15T05:25:25Z</time>
      </trkpt>
      <trkpt lat="46.25436" lon="10.54448">
        <ele>1684.986</ele>
        <time>2018-09-15T05:25:45Z</time>
      </trkpt>
      <trkpt lat="46.25438" lon="10.54398">
        <ele>1688.26</ele>
        <time>2018-09-15T05:26:05Z</time>
      </trkpt>
      <trkpt lat="46.25438" lon="10.54336">
        <ele>1689.726</ele>
        <time>2018-09-15T05:26:25Z</time>
      </trkpt>
      <trkpt lat="46.25438" lon="10.5433">
        <ele>1690.008</ele>
        <time>2018-09-15T05:26:45Z</time>
      </trkpt>
      <trkpt lat="46.25439" lon="10.54318">
        <ele>1690.93</ele>
        <time>2018-09-15T05:27:05Z</time>
      </trkpt>
      <trkpt lat="46.25442" lon="10.54281">
        <ele>1693.976</ele>
        <time>2018-09-15T05:27:25Z</time>
      </trkpt>
      <trkpt lat="46.25442" lon="10.54276">
        <ele>1694.073</ele>
        <time>2018-09-15T05:27:45Z</time>
      </trkpt>
      <trkpt lat="46.25441" lon="10.54253">
        <ele>1695.456</ele>
        <time>2018-09-15T05:28:05Z</time>
      </trkpt>
      <trkpt lat="46.25437" lon="10.54236">
        <ele>1693.869</ele>
        <time>2018-09-15T05:28:25Z</time>
      </trkpt>
      <trkpt lat="46.25429" lon="10.54211">
        <ele>1690.172</ele>
        <time>2018-09-15T05:28:45Z</time>
      </trkpt>
      <trkpt lat="46.25424" lon="10.54199">
        <ele>1687.29</ele>
        <time>2018-09-15T05:29:05Z</time>
      </trkpt>
      <trkpt lat="46.25424" lon="10.54194">
        <ele>1687.217</ele>
        <time>2018-09-15T05:29:25Z</time>
      </trkpt>
      <trkpt lat="46.25424" lon="10.54194">
        <ele>1687.197</ele>
        <time>2018-09-15T05:29:45Z</time>
      </trkpt>
      <trkpt lat="46.25423" lon="10.54162">
        <ele>1688.923</ele>
        <time>2018-09-15T05:30:05Z</time>
      </trkpt>
      <trkpt lat="46.25423" lon="10.54158">
        <ele>1689.125</ele>
        <time>2018-09-15T05:30:25Z</time>
      </trkpt>
      <trkpt lat="46.25421" lon="10.54114">
        <ele>1691.708</ele>
        <time>2018-09-15T05:30:45Z</time>
      </trkpt>
      <trkpt lat="46.2542" lon="10.54063">
        <ele>1694.241</ele>
        <time>2018-09-15T05:31:05Z</time>
      </trkpt>
      <trkpt lat="46.25419" lon="10.53987">
        <ele>1693.167</ele>
        <time>2018-09-15T05:31:25Z</time>
      </trkpt>
      <trkpt lat="46.2542" lon="10.53941">
        <ele>1691.984</ele>
        <time>2018-09-15T05:31:45Z</time>
      </trkpt>
      <trkpt lat="46.25421" lon="10.53878">
        <ele>1691.547</ele>
        <time>2018-09-15T05:32:05Z</time>
      </trkpt>
      <trkpt lat="46.25422" lon="10.53851">
        <ele>1691.95</ele>
        <time>2018-09-15T05:32:25Z</time>
      </trkpt>
      <trkpt lat="46.25422" lon="10.53827">
        <ele>1692.533</ele>
        <time>2018-09-15T05:32:45Z</time>
      </trkpt>
      <trkpt lat="46.25422" lon="10.53827">
        <ele>1692.581</ele>
        <time>2018-09-15T05:33:05Z</time>
      </trkpt>
      <trkpt lat="46.25418" lon="10.53808">
        <ele>1691.528</ele>
        <time>2018-09-15T05:33:25Z</time>
      </trkpt>
      <trkpt lat="46.2542" lon="10.53797">
        <ele>1692.121</ele>
        <time>2018-09-15T05:33:45Z</time>
      </trkpt>
      <trkpt lat="46.25424" lon="10.53779">
        <ele>1693.641</ele>
        <time>2018-09-15T05:34:05Z</time>
      </trkpt>
      <trkpt lat="46.25429" lon="10.53767">
        <ele>1695.505</ele>
        <time>2018-09-15T05:34:25Z</time>
      </trkpt>
      <trkpt lat="46.25429" lon="10.53767">
        <ele>1695.608</ele>
        <time>2018-09-15T05:34:45Z</time>
      </trkpt>
      <trkpt lat="46.25435" lon="10.53752">
        <ele>1698.074</ele>
        <time>2018-09-15T05:35:05Z</time>
      </trkpt>
      <trkpt lat="46.25441" lon="10.53734">
        <ele>1701.71</ele>
        <time>2018-09-15T05:35:25Z</time>
      </trkpt>
      <trkpt lat="46.25445" lon="10.53717">
        <ele>1704.657</ele>
        <time>2018-09-15T05:35:45Z</time>
      </trkpt>
      <trkpt lat="46.25449" lon="10.53703">
        <ele>1706.61</ele>
        <time>2018-09-15T05:36:05Z</time>
      </trkpt>
      <trkpt lat="46.25453" lon="10.53694">
        <ele>1708.453</ele>
        <time>2018-09-15T05:36:25Z</time>
      </trkpt>
      <trkpt lat="46.2546" lon="10.53675">
        <ele>1706.426</ele>
        <time>2018-09-15T05:36:45Z</time>
      </trkpt>
      <trkpt lat="46.25467" lon="10.53665">
        <ele>1706.084</ele>
        <time>2018-09-15T05:37:05Z</time>
      </trkpt>
      <trkpt lat="46.25479" lon="10.53657">
        <ele>1706.341</ele>
        <time>2018-09-15T05:37:25Z</time>
      </trkpt>
      <trkpt lat="46.25492" lon="10.53651">
        <ele>1705.985</ele>
        <time>2018-09-15T05:37:45Z</time>
      </trkpt>
      <trkpt lat="46.25503" lon="10.53642">
        <ele>1704.789</ele>
        <time>2018-09-15T05:38:05Z</time>
      </trkpt>
      <trkpt lat="46.25516" lon="10.53636">
        <ele>1707.917</ele>
        <time>2018-09-15T05:38:25Z</time>
      </trkpt>
      <trkpt lat="46.25529" lon="10.53634">
        <ele>1712.908</ele>
        <time>2018-09-15T05:38:45Z</time>
      </trkpt>
      <trkpt lat="46.25535" lon="10.53629">
        <ele>1713.24</ele>
        <time>2018-09-15T05:39:05Z</time>
      </trkpt>
      <trkpt lat="46.2554" lon="10.53621">
        <ele>1712.426</ele>
        <time>2018-09-15T05:39:25Z</time>
      </trkpt>
      <trkpt lat="46.25545" lon="10.53614">
        <ele>1712.383</ele>
        <time>2018-09-15T05:39:45Z</time>
      </trkpt>
      <trkpt lat="46.25546" lon="10.5361">
        <ele>1711.926</ele>
        <time>2018-09-15T05:40:05Z</time>
      </trkpt>
      <trkpt lat="46.25555" lon="10.53601">
        <ele>1713.689</ele>
        <time>2018-09-15T05:40:25Z</time>
      </trkpt>
      <trkpt lat="46.25563" lon="10.53587">
        <ele>1712.632</ele>
        <time>2018-09-15T05:40:45Z</time>
      </trkpt>
      <trkpt lat="46.25568" lon="10.53575">
        <ele>1711.77</ele>
        <time>2018-09-15T05:41:05Z</time>
      </trkpt>
      <trkpt lat="46.2557" lon="10.5357">
        <ele>1711.367</ele>
        <time>2018-09-15T05:41:25Z</time>
      </trkpt>
      <trkpt lat="46.25588" lon="10.53574">
        <ele>1712.497</ele>
        <time>2018-09-15T05:41:45Z</time>
      </trkpt>
      <trkpt lat="46.25591" lon="10.53574">
        <ele>1712.623</ele>
        <time>2018-09-15T05:42:05Z</time>
      </trkpt>
      <trkpt lat="46.25596" lon="10.53574">
        <ele>1712.725</ele>
        <time>2018-09-15T05:42:25Z</time>
      </trkpt>
      <trkpt lat="46.256" lon="10.53574">
        <ele>1712.908</ele>
        <time>2018-09-15T05:42:45Z</time>
      </trkpt>
      <trkpt lat="46.256" lon="10.53574">
        <ele>1712.931</ele>
        <time>2018-09-15T05:43:05Z</time>
      </trkpt>
      <trkpt lat="46.25614" lon="10.53573">
        <ele>1713.487</ele>
        <time>2018-09-15T05:43:25Z</time>
      </trkpt>
      <trkpt lat="46.25619" lon="10.53572">
        <ele>1713.864</ele>
        <time>2018-09-15T05:43:45Z</time>
      </trkpt>
      <trkpt lat="46.25624" lon="10.53569">
        <ele>1714.057</ele>
        <time>2018-09-15T05:44:05Z</time>
      </trkpt>
      <trkpt lat="46.25631" lon="10.53564">
        <ele>1714.21</ele>
        <time>2018-09-15T05:44:25Z</time>
      </trkpt>
      <trkpt lat="46.25638" lon="10.53551">
        <ele>1713.463</ele>
        <time>2018-09-15T05:44:45Z</time>
      </trkpt>
      <trkpt lat="46.25653" lon="10.53527">
        <ele>1711.451</ele>
        <time>2018-09-15T05:45:05Z</time>
      </trkpt>
      <trkpt lat="46.2566" lon="10.53517">
        <ele>1710.248</ele>
        <time>2018-09-15T05:45:25Z</time>
      </trkpt>
      <trkpt lat="46.25671" lon="10.53507">
        <ele>1709.424</ele>
        <time>2018-09-15T05:45:45Z</time>
      </trkpt>
      <trkpt lat="46.25683" lon="10.53493">
        <ele>1708.504</ele>
        <time>2018-09-15T05:46:05Z</time>
      </trkpt>
      <trkpt lat="46.2569" lon="10.53483">
        <ele>1707.514</ele>
        <time>2018-09-15T05:46:25Z</time>
      </trkpt>
      <trkpt lat="46.257" lon="10.53473">
        <ele>1707.708</ele>
        <time>2018-09-15T05:46:45Z</time>
      </trkpt>
      <trkpt lat="46.25707" lon="10.53458">
        <ele>1707.014</ele>
        <time>2018-09-15T05:47:05Z</time>
      </trkpt>
      <trkpt lat="46.25712" lon="10.53438">
        <ele>1705.06</ele>
        <time>2018-09-15T05:47:25Z</time>
      </trkpt>
      <trkpt lat="46.25718" lon="10.53422">
        <ele>1704.537</ele>
        <time>2018-09-15T05:47:45Z</time>
      </trkpt>
      <trkpt lat="46.25729" lon="10.53405">
        <ele>1704.22</ele>
        <time>2018-09-15T05:48:05Z</time>
      </trkpt>
      <trkpt lat="46.25738" lon="10.53397">
        <ele>1704.373</ele>
        <time>2018-09-15T05:48:25Z</time>
      </trkpt>
      <trkpt lat="46.25752" lon="10.5339">
        <ele>1705.246</ele>
        <time>2018-09-15T05:48:45Z</time>
      </trkpt>
      <trkpt lat="46.25765" lon="10.53385">
        <ele>1703.934</ele>
        <time>2018-09-15T05:49:05Z</time>
      </trkpt>
      <trkpt lat="46.25779" lon="10.53379">
        <ele>1702.971</ele>
        <time>2018-09-15T05:49:25Z</time>
      </trkpt>
      <trkpt lat="46.25789" lon="10.53377">
        <ele>1705.566</ele>
        <time>2018-09-15T05:49:45Z</time>
      </trkpt>
      <trkpt lat="46.25798" lon="10.53368">
        <ele>1706.829</ele>
        <time>2018-09-15T05:50:05Z</time>
      </trkpt>
      <trkpt lat="46.25804" lon="10.53358">
        <ele>1706.721</ele>
        <time>2018-09-15T05:50:25Z</time>
      </trkpt>
      <trkpt lat="46.25809" lon="10.53345">
        <ele>1706.208</ele>
        <time>2018-09-15T05:50:45Z</time>
      </trkpt>
      <trkpt lat="46.25818" lon="10.5333">
        <ele>1707.028</ele>
        <time>2018-09-15T05:51:05Z</time>
      </trkpt>
      <trkpt lat="46.25819" lon="10.53328">
        <ele>1707.294</ele>
        <time>2018-09-15T05:51:25Z</time>
      </trkpt>
      <trkpt lat="46.25825" lon="10.53314">
        <ele>1707.391</ele>
        <time>2018-09-15T05:51:45Z</time>
      </trkpt>
      <trkpt lat="46.25838" lon="10.53297">
        <ele>1706.764</ele>
        <time>2018-09-15T05:52:05Z</time>
      </trkpt>
      <trkpt lat="46.25846" lon="10.5329">
        <ele>1705.687</ele>
        <time>2018-09-15T05:52:25Z</time>
      </trkpt>
      <trkpt lat="46.25859" lon="10.5329">
        <ele>1706.47</ele>
        <time>2018-09-15T05:52:45Z</time>
      </trkpt>
      <trkpt lat="46.2588" lon="10.53292">
        <ele>1704.428</ele>
        <time>2018-09-15T05:53:05Z</time>
      </trkpt>
      <trkpt lat="46.25889" lon="10.53292">
        <ele>1703.225</ele>
        <time>2018-09-15T05:53:25Z</time>
      </trkpt>
      <trkpt lat="46.25899" lon="10.53293">
        <ele>1701.688</ele>
        <time>2018-09-15T05:53:45Z</time>
      </trkpt>
      <trkpt lat="46.25912" lon="10.53293">
        <ele>1699.624</ele>
        <time>2018-09-15T05:54:05Z</time>
      </trkpt>
      <trkpt lat="46.25918" lon="10.53293">
        <ele>1698.826</ele>
        <time>2018-09-15T05:54:25Z</time>
      </trkpt>
      <trkpt lat="46.25932" lon="10.53294">
        <ele>1697.908</ele>
        <time>2018-09-15T05:54:45Z</time>
      </trkpt>
      <trkpt lat="46.25941" lon="10.53288">
        <ele>1695.52</ele>
        <time>2018-09-15T05:55:05Z</time>
      </trkpt>
      <trkpt lat="46.25952" lon="10.53287">
        <ele>1693.816</ele>
        <time>2018-09-15T05:55:25Z</time>
      </trkpt>
      <trkpt lat="46.25963" lon="10.53287">
        <ele>1692.643</ele>
        <time>2018-09-15T05:55:45Z</time>
      </trkpt>
      <trkpt lat="46.2597" lon="10.53287">
        <ele>1691.786</ele>
        <time>2018-09-15T05:56:05Z</time>
      </trkpt>
      <trkpt lat="46.25972" lon="10.53287">
        <ele>1691.579</ele>
        <time>2018-09-15T05:56:25Z</time>
      </trkpt>
      <trkpt lat="46.25973" lon="10.53287">
        <ele>1690.732</ele>
        <time>2018-09-15T05:56:45Z</time>
      </trkpt>
      <trkpt lat="46.25983" lon="10.53282">
        <ele>1685.69</ele>
        <time>2018-09-15T05:57:05Z</time>
      </trkpt>
      <trkpt lat="46.25997" lon="10.53281">
        <ele>1680.117</ele>
        <time>2018-09-15T05:57:25Z</time>
      </trkpt>
      <trkpt lat="46.26002" lon="10.53281">
        <ele>1679.774</ele>
        <time>2018-09-15T05:57:45Z</time>
      </trkpt>
      <trkpt lat="46.26016" lon="10.5325">
        <ele>1678.756</ele>
        <time>2018-09-15T05:58:05Z</time>
      </trkpt>
      <trkpt lat="46.26025" lon="10.5323">
        <ele>1679.021</ele>
        <time>2018-09-15T05:58:25Z</time>
      </trkpt>
      <trkpt lat="46.26033" lon="10.53211">
        <ele>1683.408</ele>
        <time>2018-09-15T05:58:45Z</time>
      </trkpt>
      <trkpt lat="46.26033" lon="10.5321">
        <ele>1683.329</ele>
        <time>2018-09-15T05:59:05Z</time>
      </trkpt>
      <trkpt lat="46.26033" lon="10.53207">
        <ele>1683.045</ele>
        <time>2018-09-15T05:59:25Z</time>
      </trkpt>
      <trkpt lat="46.26033" lon="10.53199">
        <ele>1682.152</ele>
        <time>2018-09-15T05:59:45Z</time>
      </trkpt>
      <trkpt lat="46.26033" lon="10.53194">
        <ele>1681.845</ele>
        <time>2018-09-15T06:00:05Z</time>
      </trkpt>
      <trkpt lat="46.26033" lon="10.53191">
        <ele>1681.868</ele>
        <time>2018-09-15T06:00:25Z</time>
      </trkpt>
      <trkpt lat="46.26033" lon="10.53189">
        <ele>1681.881</ele>
        <time>2018-09-15T06:00:45Z</time>
      </trkpt>
      <trkpt lat="46.26033" lon="10.53187">
        <ele>1681.729</ele>
        <time>2018-09-15T06:01:05Z</time>
      </trkpt>
      <trkpt lat="46.26033" lon="10.53182">
        <ele>1681.266</ele>
        <time>2018-09-15T06:01:25Z</time>
      </trkpt>
      <trkpt lat="46.26032" lon="10.53176">
        <ele>1680.516</ele>
        <time>2018-09-15T06:01:45Z</time>
      </trkpt>
      <trkpt lat="46.26032" lon="10.5317">
        <ele>1679.976</ele>
        <time>2018-09-15T06:02:05Z</time>
      </trkpt>
      <trkpt lat="46.26032" lon="10.53166">
        <ele>1679.613</ele>
        <time>2018-09-15T06:02:25Z</time>
      </trkpt>
      <trkpt lat="46.26031" lon="10.5316">
        <ele>1678.808</ele>
        <time>2018-09-15T06:02:45Z</time>
      </trkpt>
      <trkpt lat="46.2603" lon="10.53154">
        <ele>1677.913</ele>
        <time>2018-09-15T06:03:05Z</time>
      </trkpt>
      <trkpt lat="46.2603" lon="10.53147">
        <ele>1677.089</ele>
        <time>2018-09-15T06:03:25Z</time>
      </trkpt>
      <trkpt lat="46.26029" lon="10.53145">
        <ele>1676.846</ele>
        <time>2018-09-15T06:03:45Z</time>
      </trkpt>
      <trkpt lat="46.26029" lon="10.53138">
        <ele>1676.529</ele>
        <time>2018-09-15T06:04:05Z</time>
      </trkpt>
      <trkpt lat="46.26029" lon="10.53132">
        <ele>1676.612</ele>
        <time>2018-09-15T06:04:25Z</time>
      </trkpt>
      <trkpt lat="46.2603" lon="10.53123">
        <ele>1676.975</ele>
        <time>2018-09-15T06:04:45Z</time>
      </trkpt>
      <trkpt lat="46.2603" lon="10.53119">
        <ele>1677.253</ele>
        <time>2018-09-15T06:05:05Z</time>
      </trkpt>
      <trkpt lat="46.2603" lon="10.53115">
        <ele>1677.34</ele>
        <time>2018-09-15T06:05:25Z</time>
      </trkpt>
      <trkpt lat="46.2603" lon="10.53107">
        <ele>1677.685</ele>
        <time>2018-09-15T06:05:45Z</time>
      </trkpt>
      <trkpt lat="46.26031" lon="10.53102">
        <ele>1677.789</ele>
        <time>2018-09-15T06:06:05Z</time>
      </trkpt>
      <trkpt lat="46.26031" lon="10.53096">
        <ele>1678.217</ele>
        <time>2018-09-15T06:06:25Z</time>
      </trkpt>
      <trkpt lat="46.26032" lon="10.53091">
        <ele>1678.608</ele>
        <time>2018-09-15T06:06:45Z</time>
      </trkpt>
      <trkpt lat="46.26032" lon="10.53083">
        <ele>1679.43</ele>
        <time>2018-09-15T06:07:05Z</time>
      </trkpt>
      <trkpt lat="46.26033" lon="10.53076">
        <ele>1680.166</ele>
        <time>2018-09-15T06:07:25Z</time>
      </trkpt>
      <trkpt lat="46.26034" lon="10.5307">
        <ele>1680.513</ele>
        <time>2018-09-15T06:07:45Z</time>
      </trkpt>
      <trkpt lat="46.26035" lon="10.53063">
        <ele>1681.236</ele>
        <time>2018-09-15T06:08:05Z</time>
      </trkpt>
      <trkpt lat="46.26035" lon="10.53059">
        <ele>1681.579</ele>
        <time>2018-09-15T06:08:25Z</time>
      </trkpt>
      <trkpt lat="46.26035" lon="10.53056">
        <ele>1681.832</ele>
        <time>2018-09-15T06:08:45Z</time>
      </trkpt>
      <trkpt lat="46.26035" lon="10.53053">
        <ele>1681.92</ele>
        <time>2018-09-15T06:09:05Z</time>
      </trkpt>
      <trkpt lat="46.26035" lon="10.5305">
        <ele>1682.047</ele>
        <time>2018-09-15T06:09:25Z</time>
      </trkpt>
      <trkpt lat="46.26036" lon="10.53046">
        <ele>1682.997</ele>
        <time>2018-09-15T06:09:45Z</time>
      </trkpt>
      <trkpt lat="46.26037" lon="10.53023">
        <ele>1683.523</ele>
        <time>2018-09-15T06:10:05Z</time>
      </trkpt>
      <trkpt lat="46.26037" lon="10.53017">
        <ele>1683.225</ele>
        <time>2018-09-15T06:10:25Z</time>
      </trkpt>
      <trkpt lat="46.26037" lon="10.53011">
        <ele>1682.808</ele>
        <time>2018-09-15T06:10:45Z</time>
      </trkpt>
      <trkpt lat="46.26039" lon="10.5299">
        <ele>1683.861</ele>
        <time>2018-09-15T06:11:05Z</time>
      </trkpt>
      <trkpt lat="46.26043" lon="10.5298">
        <ele>1686.517</ele>
        <time>2018-09-15T06:11:25Z</time>
      </trkpt>
      <trkpt lat="46.26045" lon="10.52968">
        <ele>1687.464</ele>
        <time>2018-09-15T06:11:45Z</time>
      </trkpt>
      <trkpt lat="46.26046" lon="10.52962">
        <ele>1687.757</ele>
        <time>2018-09-15T06:12:05Z</time>
      </trkpt>
      <trkpt lat="46.26047" lon="10.52959">
        <ele>1687.71</ele>
        <time>2018-09-15T06:12:25Z</time>
      </trkpt>
      <trkpt lat="46.26048" lon="10.52945">
        <ele>1687.443</ele>
        <time>2018-09-15T06:12:45Z</time>
      </trkpt>
      <trkpt lat="46.26048" lon="10.52925">
        <ele>1685.491</ele>
        <time>2018-09-15T06:13:05Z</time>
      </trkpt>
      <trkpt lat="46.26047" lon="10.52903">
        <ele>1683.028</ele>
        <time>2018-09-15T06:13:25Z</time>
      </trkpt>
      <trkpt lat="46.2605" lon="10.5289">
        <ele>1683.957</ele>
        <time>2018-09-15T06:13:45Z</time>
      </trkpt>
      <trkpt lat="46.26052" lon="10.52874">
        <ele>1682.9</ele>
        <time>2018-09-15T06:14:05Z</time>
      </trkpt>
      <trkpt lat="46.26052" lon="10.52858">
        <ele>1681.42</ele>
        <time>2018-09-15T06:14:25Z</time>
      </trkpt>
      <trkpt lat="46.26051" lon="10.52838">
        <ele>1679.408</ele>
        <time>2018-09-15T06:14:45Z</time>
      </trkpt>
      <trkpt lat="46.26052" lon="10.52816">
        <ele>1678.577</ele>
        <time>2018-09-15T06:15:05Z</time>
      </trkpt>
      <trkpt lat="46.26056" lon="10.5279">
        <ele>1678.443</ele>
        <time>2018-09-15T06:15:25Z</time>
      </trkpt>
      <trkpt lat="46.26061" lon="10.52761">
        <ele>1680.02</ele>
        <time>2018-09-15T06:15:45Z</time>
      </trkpt>
      <trkpt lat="46.26062" lon="10.52759">
        <ele>1680.383</ele>
        <time>2018-09-15T06:16:05Z</time>
      </trkpt>
      <trkpt lat="46.26066" lon="10.52745">
        <ele>1682.146</ele>
        <time>2018-09-15T06:16:25Z</time>
      </trkpt>
      <trkpt lat="46.26071" lon="10.52732">
        <ele>1683.189</ele>
        <time>2018-09-15T06:16:45Z</time>
      </trkpt>
      <trkpt lat="46.26073" lon="10.52716">
        <ele>1681.827</ele>
        <time>2018-09-15T06:17:05Z</time>
      </trkpt>
      <trkpt lat="46.26075" lon="10.52695">
        <ele>1679.344</ele>
        <time>2018-09-15T06:17:25Z</time>
      </trkpt>
      <trkpt lat="46.2608" lon="10.52677">
        <ele>1678.628</ele>
        <time>2018-09-15T06:17:45Z</time>
      </trkpt>
      <trkpt lat="46.26087" lon="10.52665">
        <ele>1679.589</ele>
        <time>2018-09-15T06:18:05Z</time>
      </trkpt>
      <trkpt lat="46.26093" lon="10.52652">
        <ele>1680.917</ele>
        <time>2018-09-15T06:18:25Z</time>
      </trkpt>
      <trkpt lat="46.26098" lon="10.52636">
        <ele>1681.408</ele>
        <time>2018-09-15T06:18:45Z</time>
      </trkpt>
      <trkpt lat="46.26105" lon="10.52619">
        <ele>1683.394</ele>
        <time>2018-09-15T06:19:05Z</time>
      </trkpt>
      <trkpt lat="46.26114" lon="10.52606">
        <ele>1685.81</ele>
        <time>2018-09-15T06:19:25Z</time>
      </trkpt>
      <trkpt lat="46.26122" lon="10.52589">
        <ele>1685.447</ele>
        <time>2018-09-15T06:19:45Z</time>
      </trkpt>
      <trkpt lat="46.26127" lon="10.52571">
        <ele>1684.24</ele>
        <time>2018-09-15T06:20:05Z</time>
      </trkpt>
      <trkpt lat="46.26135" lon="10.52556">
        <ele>1684.193</ele>
        <time>2018-09-15T06:20:25Z</time>
      </trkpt>
      <trkpt lat="46.26143" lon="10.52536">
        <ele>1683.266</ele>
        <time>2018-09-15T06:20:45Z</time>
      </trkpt>
      <trkpt lat="46.26149" lon="10.52523">
        <ele>1683.164</ele>
        <time>2018-09-15T06:21:05Z</time>
      </trkpt>
      <trkpt lat="46.26156" lon="10.52514">
        <ele>1683.561</ele>
        <time>2018-09-15T06:21:25Z</time>
      </trkpt>
      <trkpt lat="46.26167" lon="10.52493">
        <ele>1681.883</ele>
        <time>2018-09-15T06:21:45Z</time>
      </trkpt>
      <trkpt lat="46.26178" lon="10.5249">
        <ele>1684.325</ele>
        <time>2018-09-15T06:22:05Z</time>
      </trkpt>
      <trkpt lat="46.26185" lon="10.52487">
        <ele>1685.117</ele>
        <time>2018-09-15T06:22:25Z</time>
      </trkpt>
      <trkpt lat="46.26201" lon="10.52481">
        <ele>1684.108</ele>
        <time>2018-09-15T06:22:45Z</time>
      </trkpt>
      <trkpt lat="46.26211" lon="10.52479">
        <ele>1682.81</ele>
        <time>2018-09-15T06:23:05Z</time>
      </trkpt>
      <trkpt lat="46.26218" lon="10.5248">
        <ele>1682.736</ele>
        <time>2018-09-15T06:23:25Z</time>
      </trkpt>
      <trkpt lat="46.26223" lon="10.52482">
        <ele>1683.323</ele>
        <time>2018-09-15T06:23:45Z</time>
      </trkpt>
      <trkpt lat="46.26236" lon="10.52489">
        <ele>1683.796</ele>
        <time>2018-09-15T06:24:05Z</time>
      </trkpt>
      <trkpt lat="46.2624" lon="10.5249">
        <ele>1683.549</ele>
        <time>2018-09-15T06:24:25Z</time>
      </trkpt>
      <trkpt lat="46.26245" lon="10.5249">
        <ele>1682.412</ele>
        <time>2018-09-15T06:24:45Z</time>
      </trkpt>
      <trkpt lat="46.26245" lon="10.5249">
        <ele>1682.47</ele>
        <time>2018-09-15T06:25:05Z</time>
      </trkpt>
      <trkpt lat="46.26253" lon="10.52495">
        <ele>1682.857</ele>
        <time>2018-09-15T06:25:25Z</time>
      </trkpt>
      <trkpt lat="46.26264" lon="10.52499">
        <ele>1681.586</ele>
        <time>2018-09-15T06:25:45Z</time>
      </trkpt>
      <trkpt lat="46.26277" lon="10.52508">
        <ele>1681.26</ele>
        <time>2018-09-15T06:26:05Z</time>
      </trkpt>
      <trkpt lat="46.2629" lon="10.52522">
        <ele>1681.426</ele>
        <time>2018-09-15T06:26:25Z</time>
      </trkpt>
      <trkpt lat="46.26297" lon="10.52529">
        <ele>1681.708</ele>
        <time>2018-09-15T06:26:45Z</time>
      </trkpt>
      <trkpt lat="46.26306" lon="10.52545">
        <ele>1683.64</ele>
        <time>2018-09-15T06:27:05Z</time>
      </trkpt>
      <trkpt lat="46.26308" lon="10.52548">
        <ele>1684.086</ele>
        <time>2018-09-15T06:27:25Z</time>
      </trkpt>
      <trkpt lat="46.26314" lon="10.52558">
        <ele>1685.773</ele>
        <time>2018-09-15T06:27:45Z</time>
      </trkpt>
      <trkpt lat="46.26348" lon="10.52585">
        <ele>1684.476</ele>
        <time>2018-09-15T06:28:05Z</time>
      </trkpt>
      <trkpt lat="46.26349" lon="10.52585">
        <ele>1684.349</ele>
        <time>2018-09-15T06:28:25Z</time>
      </trkpt>
      <trkpt lat="46.26351" lon="10.52586">
        <ele>1684.042</ele>
        <time>2018-09-15T06:28:45Z</time>
      </trkpt>
      <trkpt lat="46.26359" lon="10.52588">
        <ele>1683.25</ele>
        <time>2018-09-15T06:29:05Z</time>
      </trkpt>
      <trkpt lat="46.26367" lon="10.5259">
        <ele>1682.427</ele>
        <time>2018-09-15T06:29:25Z</time>
      </trkpt>
      <trkpt lat="46.26383" lon="10.52596">
        <ele>1683.398</ele>
        <time>2018-09-15T06:29:45Z</time>
      </trkpt>
      <trkpt lat="46.26385" lon="10.52596">
        <ele>1683.315</ele>
        <time>2018-09-15T06:30:05Z</time>
      </trkpt>
      <trkpt lat="46.26412" lon="10.52597">
        <ele>1679.626</ele>
        <time>2018-09-15T06:30:25Z</time>
      </trkpt>
      <trkpt lat="46.26415" lon="10.52598">
        <ele>1679.508</ele>
        <time>2018-09-15T06:30:45Z</time>
      </trkpt>
      <trkpt lat="46.26421" lon="10.52599">
        <ele>1678.181</ele>
        <time>2018-09-15T06:31:05Z</time>
      </trkpt>
      <trkpt lat="46.26429" lon="10.52601">
        <ele>1675.047</ele>
        <time>2018-09-15T06:31:25Z</time>
      </trkpt>
      <trkpt lat="46.26451" lon="10.52606">
        <ele>1666.374</ele>
        <time>2018-09-15T06:31:45Z</time>
      </trkpt>
      <trkpt lat="46.26458" lon="10.52614">
        <ele>1665.087</ele>
        <time>2018-09-15T06:32:05Z</time>
      </trkpt>
      <trkpt lat="46.26482" lon="10.52639">
        <ele>1658.24</ele>
        <time>2018-09-15T06:32:25Z</time>
      </trkpt>
      <trkpt lat="46.26488" lon="10.52647">
        <ele>1655.863</ele>
        <time>2018-09-15T06:32:45Z</time>
      </trkpt>
      <trkpt lat="46.26492" lon="10.52652">
        <ele>1654.231</ele>
        <time>2018-09-15T06:33:05Z</time>
      </trkpt>
      <trkpt lat="46.26505" lon="10.52669">
        <ele>1650.598</ele>
        <time>2018-09-15T06:33:25Z</time>
      </trkpt>
      <trkpt lat="46.2651" lon="10.52683">
        <ele>1653.847</ele>
        <time>2018-09-15T06:33:45Z</time>
      </trkpt>
      <trkpt lat="46.26519" lon="10.52691">
        <ele>1651.129</ele>
        <time>2018-09-15T06:34:05Z</time>
      </trkpt>
      <trkpt lat="46.26524" lon="10.52696">
        <ele>1649.321</ele>
        <time>2018-09-15T06:34:25Z</time>
      </trkpt>
      <trkpt lat="46.26534" lon="10.52708">
        <ele>1646.408</ele>
        <time>2018-09-15T06:34:45Z</time>
      </trkpt>
      <trkpt lat="46.26535" lon="10.5271">
        <ele>1646.176</ele>
        <time>2018-09-15T06:35:05Z</time>
      </trkpt>
      <trkpt lat="46.26544" lon="10.52717">
        <ele>1642.542</ele>
        <time>2018-09-15T06:35:25Z</time>
      </trkpt>
      <trkpt lat="46.26546" lon="10.52718">
        <ele>1641.689</ele>
        <time>2018-09-15T06:35:45Z</time>
      </trkpt>
      <trkpt lat="46.26555" lon="10.52716">
        <ele>1634.032</ele>
        <time>2018-09-15T06:36:05Z</time>
      </trkpt>
      <trkpt lat="46.26558" lon="10.52717">
        <ele>1633.895</ele>
        <time>2018-09-15T06:36:25Z</time>
      </trkpt>
      <trkpt lat="46.26567" lon="10.52714">
        <ele>1632.098</ele>
        <time>2018-09-15T06:36:45Z</time>
      </trkpt>
      <trkpt lat="46.26567" lon="10.52714">
        <ele>1632.086</ele>
        <time>2018-09-15T06:37:05Z</time>
      </trkpt>
      <trkpt lat="46.26568" lon="10.52714">
        <ele>1631.883</ele>
        <time>2018-09-15T06:37:25Z</time>
      </trkpt>
      <trkpt lat="46.26588" lon="10.52656">
        <ele>1608.031</ele>
        <time>2018-09-15T06:37:45Z</time>
      </trkpt>
      <trkpt lat="46.26589" lon="10.52655">
        <ele>1608.061</ele>
        <time>2018-09-15T06:38:05Z</time>
      </trkpt>
      <trkpt lat="46.26595" lon="10.52651">
        <ele>1608.907</ele>
        <time>2018-09-15T06:38:25Z</time>
      </trkpt>
      <trkpt lat="46.26607" lon="10.52637">
        <ele>1609.208</ele>
        <time>2018-09-15T06:38:45Z</time>
      </trkpt>
      <trkpt lat="46.26621" lon="10.52629">
        <ele>1612.785</ele>
        <time>2018-09-15T06:39:05Z</time>
      </trkpt>
      <trkpt lat="46.26631" lon="10.52622">
        <ele>1614.311</ele>
        <time>2018-09-15T06:39:25Z</time>
      </trkpt>
      <trkpt lat="46.26641" lon="10.52615">
        <ele>1614.828</ele>
        <time>2018-09-15T06:39:45Z</time>
      </trkpt>
      <trkpt lat="46.26645" lon="10.52611">
        <ele>1614.261</ele>
        <time>2018-09-15T06:40:05Z</time>
      </trkpt>
      <trkpt lat="46.26651" lon="10.52606">
        <ele>1613.314</ele>
        <time>2018-09-15T06:40:25Z</time>
      </trkpt>
      <trkpt lat="46.26668" lon="10.52597">
        <ele>1612.067</ele>
        <time>2018-09-15T06:40:45Z</time>
      </trkpt>
      <trkpt lat="46.267" lon="10.52587">
        <ele>1607.485</ele>
        <time>2018-09-15T06:41:05Z</time>
      </trkpt>
      <trkpt lat="46.26704" lon="10.52587">
        <ele>1607.122</ele>
        <time>2018-09-15T06:41:25Z</time>
      </trkpt>
      <trkpt lat="46.26719" lon="10.52585">
        <ele>1604.139</ele>
        <time>2018-09-15T06:41:45Z</time>
      </trkpt>
      <trkpt lat="46.26725" lon="10.52584">
        <ele>1602.501</ele>
        <time>2018-09-15T06:42:05Z</time>
      </trkpt>
      <trkpt lat="46.26741" lon="10.52581">
        <ele>1596.921</ele>
        <time>2018-09-15T06:42:25Z</time>
      </trkpt>
      <trkpt lat="46.26753" lon="10.52579">
        <ele>1592.908</ele>
        <time>2018-09-15T06:42:45Z</time>
      </trkpt>
      <trkpt lat="46.26772" lon="10.52587">
        <ele>1594.985</ele>
        <time>2018-09-15T06:43:05Z</time>
      </trkpt>
      <trkpt lat="46.26774" lon="10.52588">
        <ele>1595.011</ele>
        <time>2018-09-15T06:43:25Z</time>
      </trkpt>
      <trkpt lat="46.26774" lon="10.52588">
        <ele>1595.048</ele>
        <time>2018-09-15T06:43:45Z</time>
      </trkpt>
      <trkpt lat="46.26817" lon="10.52621">
        <ele>1593.051</ele>
        <time>2018-09-15T06:44:05Z</time>
      </trkpt>
      <trkpt lat="46.26829" lon="10.5263">
        <ele>1588.114</ele>
        <time>2018-09-15T06:44:25Z</time>
      </trkpt>
      <trkpt lat="46.26841" lon="10.52641">
        <ele>1582.237</ele>
        <time>2018-09-15T06:44:45Z</time>
      </trkpt>
      <trkpt lat="46.26849" lon="10.52652">
        <ele>1577.735</ele>
        <time>2018-09-15T06:45:05Z</time>
      </trkpt>
      <trkpt lat="46.26852" lon="10.52656">
        <ele>1575.932</ele>
        <time>2018-09-15T06:45:25Z</time>
      </trkpt>
      <trkpt lat="46.2686" lon="10.52671">
        <ele>1571.874</ele>
        <time>2018-09-15T06:45:45Z</time>
      </trkpt>
      <trkpt lat="46.26882" lon="10.52714">
        <ele>1564.156</ele>
        <time>2018-09-15T06:46:05Z</time>
      </trkpt>
      <trkpt lat="46.26883" lon="10.52705">
        <ele>1560.821</ele>
        <time>2018-09-15T06:46:25Z</time>
      </trkpt>
      <trkpt lat="46.26888" lon="10.52715">
        <ele>1560.908</ele>
        <time>2018-09-15T06:46:45Z</time>
      </trkpt>
      <trkpt lat="46.2689" lon="10.52703">
        <ele>1556.169</ele>
        <time>2018-09-15T06:47:05Z</time>
      </trkpt>
      <trkpt lat="46.2689" lon="10.52703">
        <ele>1556.135</ele>
        <time>2018-09-15T06:47:25Z</time>
      </trkpt>
      <trkpt lat="46.26897" lon="10.52689">
        <ele>1552.512</ele>
        <time>2018-09-15T06:47:45Z</time>
      </trkpt>
      <trkpt lat="46.269" lon="10.52684">
        <ele>1551.615</ele>
        <time>2018-09-15T06:48:05Z</time>
      </trkpt>
      <trkpt lat="46.26902" lon="10.52676">
        <ele>1548.888</ele>
        <time>2018-09-15T06:48:25Z</time>
      </trkpt>
      <trkpt lat="46.26902" lon="10.5267">
        <ele>1547.041</ele>
        <time>2018-09-15T06:48:45Z</time>
      </trkpt>
      <trkpt lat="46.26909" lon="10.52657">
        <ele>1543.249</ele>
        <time>2018-09-15T06:49:05Z</time>
      </trkpt>
      <trkpt lat="46.26912" lon="10.52652">
        <ele>1541.786</ele>
        <time>2018-09-15T06:49:25Z</time>
      </trkpt>
      <trkpt lat="46.2692" lon="10.52646">
        <ele>1541.878</ele>
        <time>2018-09-15T06:49:45Z</time>
      </trkpt>
      <trkpt lat="46.26943" lon="10.52607">
        <ele>1541.833</ele>
        <time>2018-09-15T06:50:05Z</time>
      </trkpt>
      <trkpt lat="46.26955" lon="10.52592">
        <ele>1542.726</ele>
        <time>2018-09-15T06:50:25Z</time>
      </trkpt>
      <trkpt lat="46.26962" lon="10.52584">
        <ele>1543.108</ele>
        <time>2018-09-15T06:50:45Z</time>
      </trkpt>
      <trkpt lat="46.26964" lon="10.52582">
        <ele>1543.989</ele>
        <time>2018-09-15T06:51:05Z</time>
      </trkpt>
      <trkpt lat="46.26974" lon="10.52578">
        <ele>1547.895</ele>
        <time>2018-09-15T06:51:25Z</time>
      </trkpt>
      <trkpt lat="46.2701" lon="10.52561">
        <ele>1548.552</ele>
        <time>2018-09-15T06:51:45Z</time>
      </trkpt>
      <trkpt lat="46.27043" lon="10.52551">
        <ele>1546.945</ele>
        <time>2018-09-15T06:52:05Z</time>
      </trkpt>
      <trkpt lat="46.27051" lon="10.52543">
        <ele>1544.598</ele>
        <time>2018-09-15T06:52:25Z</time>
      </trkpt>
      <trkpt lat="46.27068" lon="10.52525">
        <ele>1538.041</ele>
        <time>2018-09-15T06:52:45Z</time>
      </trkpt>
      <trkpt lat="46.27068" lon="10.52525">
        <ele>1537.869</ele>
        <time>2018-09-15T06:53:05Z</time>
      </trkpt>
      <trkpt lat="46.27073" lon="10.52516">
        <ele>1534.946</ele>
        <time>2018-09-15T06:53:25Z</time>
      </trkpt>
      <trkpt lat="46.27083" lon="10.52502">
        <ele>1529.757</ele>
        <time>2018-09-15T06:53:45Z</time>
      </trkpt>
      <trkpt lat="46.27093" lon="10.52497">
        <ele>1527.5</ele>
        <time>2018-09-15T06:54:05Z</time>
      </trkpt>
      <trkpt lat="46.27099" lon="10.52488">
        <ele>1524.82</ele>
        <time>2018-09-15T06:54:25Z</time>
      </trkpt>
      <trkpt lat="46.27107" lon="10.52472">
        <ele>1520.008</ele>
        <time>2018-09-15T06:54:45Z</time>
      </trkpt>
      <trkpt lat="46.27108" lon="10.52468">
        <ele>1518.857</ele>
        <time>2018-09-15T06:55:05Z</time>
      </trkpt>
      <trkpt lat="46.27113" lon="10.52452">
        <ele>1514.783</ele>
        <time>2018-09-15T06:55:25Z</time>
      </trkpt>
      <trkpt lat="46.27118" lon="10.52429">
        <ele>1508.67</ele>
        <time>2018-09-15T06:55:45Z</time>
      </trkpt>
      <trkpt lat="46.27122" lon="10.52405">
        <ele>1503.113</ele>
        <time>2018-09-15T06:56:05Z</time>
      </trkpt>
      <trkpt lat="46.27122" lon="10.52405">
        <ele>1503.146</ele>
        <time>2018-09-15T06:56:25Z</time>
      </trkpt>
      <trkpt lat="46.27123" lon="10.52401">
        <ele>1502.559</ele>
        <time>2018-09-15T06:56:45Z</time>
      </trkpt>
      <trkpt lat="46.27135" lon="10.52382">
        <ele>1498.597</ele>
        <time>2018-09-15T06:57:05Z</time>
      </trkpt>
      <trkpt lat="46.27135" lon="10.52379">
        <ele>1497.854</ele>
        <time>2018-09-15T06:57:25Z</time>
      </trkpt>
      <trkpt lat="46.27136" lon="10.52375">
        <ele>1497.071</ele>
        <time>2018-09-15T06:57:45Z</time>
      </trkpt>
      <trkpt lat="46.27136" lon="10.52373">
        <ele>1496.641</ele>
        <time>2018-09-15T06:58:05Z</time>
      </trkpt>
      <trkpt lat="46.27136" lon="10.52372">
        <ele>1496.315</ele>
        <time>2018-09-15T06:58:25Z</time>
      </trkpt>
      <trkpt lat="46.27141" lon="10.52365">
        <ele>1494.008</ele>
        <time>2018-09-15T06:58:45Z</time>
      </trkpt>
      <trkpt lat="46.27152" lon="10.52341">
        <ele>1486.439</ele>
        <time>2018-09-15T06:59:05Z</time>
      </trkpt>
      <trkpt lat="46.27151" lon="10.52331">
        <ele>1485.075</ele>
        <time>2018-09-15T06:59:25Z</time>
      </trkpt>
      <trkpt lat="46.27147" lon="10.52325">
        <ele>1485.072</ele>
        <time>2018-09-15T06:59:45Z</time>
      </trkpt>
      <trkpt lat="46.27142" lon="10.52321">
        <ele>1485.435</ele>
        <time>2018-09-15T07:00:05Z</time>
      </trkpt>
      <trkpt lat="46.2714" lon="10.52319">
        <ele>1485.638</ele>
        <time>2018-09-15T07:00:25Z</time>
      </trkpt>
      <trkpt lat="46.27132" lon="10.52323">
        <ele>1486.651</ele>
        <time>2018-09-15T07:00:45Z</time>
      </trkpt>
      <trkpt lat="46.27123" lon="10.52331">
        <ele>1488.569</ele>
        <time>2018-09-15T07:01:05Z</time>
      </trkpt>
      <trkpt lat="46.27113" lon="10.52336">
        <ele>1489.476</ele>
        <time>2018-09-15T07:01:25Z</time>
      </trkpt>
      <trkpt lat="46.27113" lon="10.52336">
        <ele>1489.447</ele>
        <time>2018-09-15T07:01:45Z</time>
      </trkpt>
      <trkpt lat="46.27111" lon="10.52333">
        <ele>1488.929</ele>
        <time>2018-09-15T07:02:05Z</time>
      </trkpt>
      <trkpt lat="46.27101" lon="10.52319">
        <ele>1484.621</ele>
        <time>2018-09-15T07:02:25Z</time>
      </trkpt>
      <trkpt lat="46.27093" lon="10.52307">
        <ele>1481.308</ele>
        <time>2018-09-15T07:02:45Z</time>
      </trkpt>
      <trkpt lat="46.27091" lon="10.52304">
        <ele>1480.416</ele>
        <time>2018-09-15T07:03:05Z</time>
      </trkpt>
      <trkpt lat="46.2709" lon="10.52301">
        <ele>1479.892</ele>
        <time>2018-09-15T07:03:25Z</time>
      </trkpt>
      <trkpt lat="46.27088" lon="10.52299">
        <ele>1479.249</ele>
        <time>2018-09-15T07:03:45Z</time>
      </trkpt>
      <trkpt lat="46.27087" lon="10.52295">
        <ele>1478.532</ele>
        <time>2018-09-15T07:04:05Z</time>
      </trkpt>
      <trkpt lat="46.27085" lon="10.52293">
        <ele>1477.945</ele>
        <time>2018-09-15T07:04:25Z</time>
      </trkpt>
      <trkpt lat="46.27084" lon="10.52292">
        <ele>1477.628</ele>
        <time>2018-09-15T07:04:45Z</time>
      </trkpt>
      <trkpt lat="46.27082" lon="10.5229">
        <ele>1476.626</ele>
        <time>2018-09-15T07:05:05Z</time>
      </trkpt>
      <trkpt lat="46.2708" lon="10.52289">
        <ele>1475.973</ele>
        <time>2018-09-15T07:05:25Z</time>
      </trkpt>
      <trkpt lat="46.27073" lon="10.52288">
        <ele>1473.237</ele>
        <time>2018-09-15T07:05:45Z</time>
      </trkpt>
      <trkpt lat="46.27072" lon="10.52288">
        <ele>1472.849</ele>
        <time>2018-09-15T07:06:05Z</time>
      </trkpt>
      <trkpt lat="46.27062" lon="10.52288">
        <ele>1469.613</ele>
        <time>2018-09-15T07:06:25Z</time>
      </trkpt>
      <trkpt lat="46.27062" lon="10.52287">
        <ele>1469.308</ele>
        <time>2018-09-15T07:06:45Z</time>
      </trkpt>
      <trkpt lat="46.27056" lon="10.52287">
        <ele>1467.385</ele>
        <time>2018-09-15T07:07:05Z</time>
      </trkpt>
      <trkpt lat="46.27055" lon="10.52284">
        <ele>1465.881</ele>
        <time>2018-09-15T07:07:25Z</time>
      </trkpt>
      <trkpt lat="46.27053" lon="10.52277">
        <ele>1462.988</ele>
        <time>2018-09-15T07:07:45Z</time>
      </trkpt>
      <trkpt lat="46.27051" lon="10.52267">
        <ele>1459.111</ele>
        <time>2018-09-15T07:08:05Z</time>
      </trkpt>
      <trkpt lat="46.27058" lon="10.52245">
        <ele>1454.244</ele>
        <time>2018-09-15T07:08:25Z</time>
      </trkpt>
      <trkpt lat="46.27113" lon="10.52218">
        <ele>1453.367</ele>
        <time>2018-09-15T07:08:45Z</time>
      </trkpt>
      <trkpt lat="46.27141" lon="10.52206">
        <ele>1449.295</ele>
        <time>2018-09-15T07:09:05Z</time>
      </trkpt>
      <trkpt lat="46.27165" lon="10.5219">
        <ele>1443.882</ele>
        <time>2018-09-15T07:09:25Z</time>
      </trkpt>
      <trkpt lat="46.27182" lon="10.52172">
        <ele>1438.686</ele>
        <time>2018-09-15T07:09:45Z</time>
      </trkpt>
      <trkpt lat="46.27169" lon="10.52153">
        <ele>1434.46</ele>
        <time>2018-09-15T07:10:05Z</time>
      </trkpt>
      <trkpt lat="46.27166" lon="10.52147">
        <ele>1433.026</ele>
        <time>2018-09-15T07:10:25Z</time>
      </trkpt>
      <trkpt lat="46.27158" lon="10.52145">
        <ele>1431.608</ele>
        <time>2018-09-15T07:10:45Z</time>
      </trkpt>
      <trkpt lat="46.27144" lon="10.5214">
        <ele>1428.85</ele>
        <time>2018-09-15T07:11:05Z</time>
      </trkpt>
      <trkpt lat="46.27124" lon="10.52128">
        <ele>1423.426</ele>
        <time>2018-09-15T07:11:25Z</time>
      </trkpt>
      <trkpt lat="46.27102" lon="10.52109">
        <ele>1416.623</ele>
        <time>2018-09-15T07:11:45Z</time>
      </trkpt>
      <trkpt lat="46.2709" lon="10.52088">
        <ele>1410.376</ele>
        <time>2018-09-15T07:12:05Z</time>
      </trkpt>
      <trkpt lat="46.27083" lon="10.52077">
        <ele>1407.359</ele>
        <time>2018-09-15T07:12:25Z</time>
      </trkpt>
      <trkpt lat="46.27072" lon="10.52063">
        <ele>1402.142</ele>
        <time>2018-09-15T07:12:45Z</time>
      </trkpt>
      <trkpt lat="46.2707" lon="10.52055">
        <ele>1399.33</ele>
        <time>2018-09-15T07:13:05Z</time>
      </trkpt>
      <trkpt lat="46.2707" lon="10.52055">
        <ele>1399.217</ele>
        <time>2018-09-15T07:13:25Z</time>
      </trkpt>
      <trkpt lat="46.27068" lon="10.52052">
        <ele>1397.527</ele>
        <time>2018-09-15T07:13:45Z</time>
      </trkpt>
      <trkpt lat="46.27068" lon="10.52051">
        <ele>1396.968</ele>
        <time>2018-09-15T07:14:05Z</time>
      </trkpt>
      <trkpt lat="46.27067" lon="10.5205">
        <ele>1396.114</ele>
        <time>2018-09-15T07:14:25Z</time>
      </trkpt>
      <trkpt lat="46.27067" lon="10.52048">
        <ele>1395.108</ele>
        <time>2018-09-15T07:14:45Z</time>
      </trkpt>
      <trkpt lat="46.27068" lon="10.52046">
        <ele>1394.314</ele>
        <time>2018-09-15T07:15:05Z</time>
      </trkpt>
      <trkpt lat="46.2707" lon="10.52044">
        <ele>1393.56</ele>
        <time>2018-09-15T07:15:25Z</time>
      </trkpt>
      <trkpt lat="46.27073" lon="10.52041">
        <ele>1392.547</ele>
        <time>2018-09-15T07:15:45Z</time>
      </trkpt>
      <trkpt lat="46.27075" lon="10.5204">
        <ele>1392.13</ele>
        <time>2018-09-15T07:16:05Z</time>
      </trkpt>
      <trkpt lat="46.27077" lon="10.52039">
        <ele>1391.853</ele>
        <time>2018-09-15T07:16:25Z</time>
      </trkpt>
      <trkpt lat="46.27082" lon="10.52037">
        <ele>1391.726</ele>
        <time>2018-09-15T07:16:45Z</time>
      </trkpt>
      <trkpt lat="46.27084" lon="10.52037">
        <ele>1391.734</ele>
        <time>2018-09-15T07:17:05Z</time>
      </trkpt>
      <trkpt lat="46.27086" lon="10.52037">
        <ele>1391.551</ele>
        <time>2018-09-15T07:17:25Z</time>
      </trkpt>
      <trkpt lat="46.27096" lon="10.52037">
        <ele>1391.115</ele>
        <time>2018-09-15T07:17:45Z</time>
      </trkpt>
      <trkpt lat="46.27108" lon="10.52037">
        <ele>1390.465</ele>
        <time>2018-09-15T07:18:05Z</time>
      </trkpt>
      <trkpt lat="46.27118" lon="10.52035">
        <ele>1389.011</ele>
        <time>2018-09-15T07:18:25Z</time>
      </trkpt>
      <trkpt lat="46.2712" lon="10.52036">
        <ele>1389.208</ele>
        <time>2018-09-15T07:18:45Z</time>
      </trkpt>
      <trkpt lat="46.27122" lon="10.52036">
        <ele>1389.443</ele>
        <time>2018-09-15T07:19:05Z</time>
      </trkpt>
      <trkpt lat="46.27127" lon="10.52037">
        <ele>1389.629</ele>
        <time>2018-09-15T07:19:25Z</time>
      </trkpt>
      <trkpt lat="46.27133" lon="10.52037">
        <ele>1389.426</ele>
        <time>2018-09-15T07:19:45Z</time>
      </trkpt>
      <trkpt lat="46.27137" lon="10.52037">
        <ele>1389.259</ele>
        <time>2018-09-15T07:20:05Z</time>
      </trkpt>
      <trkpt lat="46.27139" lon="10.52036">
        <ele>1388.742</ele>
        <time>2018-09-15T07:20:25Z</time>
      </trkpt>
      <trkpt lat="46.27141" lon="10.52035">
        <ele>1388.115</ele>
        <time>2018-09-15T07:20:45Z</time>
      </trkpt>
      <trkpt lat="46.27143" lon="10.52034">
        <ele>1387.493</ele>
        <time>2018-09-15T07:21:05Z</time>
      </trkpt>
      <trkpt lat="46.27145" lon="10.52032">
        <ele>1386.49</ele>
        <time>2018-09-15T07:21:25Z</time>
      </trkpt>
      <trkpt lat="46.27148" lon="10.52029">
        <ele>1384.723</ele>
        <time>2018-09-15T07:21:45Z</time>
      </trkpt>
      <trkpt lat="46.27151" lon="10.52026">
        <ele>1383.483</ele>
        <time>2018-09-15T07:22:05Z</time>
      </trkpt>
      <trkpt lat="46.27153" lon="10.52024">
        <ele>1382.911</ele>
        <time>2018-09-15T07:22:25Z</time>
      </trkpt>
      <trkpt lat="46.27156" lon="10.52023">
        <ele>1382.208</ele>
        <time>2018-09-15T07:22:45Z</time>
      </trkpt>
      <trkpt lat="46.27159" lon="10.52021">
        <ele>1381.674</ele>
        <time>2018-09-15T07:23:05Z</time>
      </trkpt>
      <trkpt lat="46.27166" lon="10.52016">
        <ele>1379.99</ele>
        <time>2018-09-15T07:23:25Z</time>
      </trkpt>
      <trkpt lat="46.27169" lon="10.52014">
        <ele>1379.117</ele>
        <time>2018-09-15T07:23:45Z</time>
      </trkpt>
      <trkpt lat="46.27171" lon="10.52012">
        <ele>1378.45</ele>
        <time>2018-09-15T07:24:05Z</time>
      </trkpt>
      <trkpt lat="46.27176" lon="10.52008">
        <ele>1376.843</ele>
        <time>2018-09-15T07:24:25Z</time>
      </trkpt>
      <trkpt lat="46.27179" lon="10.52005">
        <ele>1376.076</ele>
        <time>2018-09-15T07:24:45Z</time>
      </trkpt>
      <trkpt lat="46.27184" lon="10.52">
        <ele>1374.384</ele>
        <time>2018-09-15T07:25:05Z</time>
      </trkpt>
      <trkpt lat="46.27187" lon="10.51999">
        <ele>1373.921</ele>
        <time>2018-09-15T07:25:25Z</time>
      </trkpt>
      <trkpt lat="46.27189" lon="10.51997">
        <ele>1373.711</ele>
        <time>2018-09-15T07:25:45Z</time>
      </trkpt>
      <trkpt lat="46.27192" lon="10.51995">
        <ele>1373.321</ele>
        <time>2018-09-15T07:26:05Z</time>
      </trkpt>
      <trkpt lat="46.27194" lon="10.51994">
        <ele>1373.003</ele>
        <time>2018-09-15T07:26:25Z</time>
      </trkpt>
      <trkpt lat="46.27198" lon="10.51991">
        <ele>1372.208</ele>
        <time>2018-09-15T07:26:45Z</time>
      </trkpt>
      <trkpt lat="46.27201" lon="10.51989">
        <ele>1371.793</ele>
        <time>2018-09-15T07:27:05Z</time>
      </trkpt>
      <trkpt lat="46.27205" lon="10.51987">
        <ele>1371.299</ele>
        <time>2018-09-15T07:27:25Z</time>
      </trkpt>
      <trkpt lat="46.27214" lon="10.51984">
        <ele>1370.426</ele>
        <time>2018-09-15T07:27:45Z</time>
      </trkpt>
      <trkpt lat="46.2722" lon="10.51982">
        <ele>1369.959</ele>
        <time>2018-09-15T07:28:05Z</time>
      </trkpt>
      <trkpt lat="46.27228" lon="10.5198">
        <ele>1368.642</ele>
        <time>2018-09-15T07:28:25Z</time>
      </trkpt>
      <trkpt lat="46.27234" lon="10.51979">
        <ele>1367.435</ele>
        <time>2018-09-15T07:28:45Z</time>
      </trkpt>
      <trkpt lat="46.2724" lon="10.51978">
        <ele>1366.513</ele>
        <time>2018-09-15T07:29:05Z</time>
      </trkpt>
      <trkpt lat="46.27241" lon="10.51978">
        <ele>1366.37</ele>
        <time>2018-09-15T07:29:25Z</time>
      </trkpt>
      <trkpt lat="46.27245" lon="10.51976">
        <ele>1364.848</ele>
        <time>2018-09-15T07:29:45Z</time>
      </trkpt>
      <trkpt lat="46.27245" lon="10.51972">
        <ele>1363.761</ele>
        <time>2018-09-15T07:30:05Z</time>
      </trkpt>
      <trkpt lat="46.27211" lon="10.51945">
        <ele>1357.517</ele>
        <time>2018-09-15T07:30:25Z</time>
      </trkpt>
      <trkpt lat="46.27188" lon="10.51934">
        <ele>1354.608</ele>
        <time>2018-09-15T07:30:45Z</time>
      </trkpt>
      <trkpt lat="46.27157" lon="10.51926">
        <ele>1349.316</ele>
        <time>2018-09-15T07:31:05Z</time>
      </trkpt>
      <trkpt lat="46.27114" lon="10.51906">
        <ele>1332.432</ele>
        <time>2018-09-15T07:31:25Z</time>
      </trkpt>
      <trkpt lat="46.27085" lon="10.51895">
        <ele>1326.149</ele>
        <time>2018-09-15T07:31:45Z</time>
      </trkpt>
      <trkpt lat="46.27069" lon="10.51875">
        <ele>1325.092</ele>
        <time>2018-09-15T07:32:05Z</time>
      </trkpt>
      <trkpt lat="46.27062" lon="10.51868">
        <ele>1325.085</ele>
        <time>2018-09-15T07:32:25Z</time>
      </trkpt>
      <trkpt lat="46.2706" lon="10.51865">
        <ele>1325.038</ele>
        <time>2018-09-15T07:32:45Z</time>
      </trkpt>
      <trkpt lat="46.27053" lon="10.51852">
        <ele>1325.046</ele>
        <time>2018-09-15T07:33:05Z</time>
      </trkpt>
      <trkpt lat="46.27044" lon="10.51843">
        <ele>1325.043</ele>
        <time>2018-09-15T07:33:25Z</time>
      </trkpt>
      <trkpt lat="46.2704" lon="10.51838">
        <ele>1325.048</ele>
        <time>2018-09-15T07:33:45Z</time>
      </trkpt>
      <trkpt lat="46.27025" lon="10.51828">
        <ele>1325.061</ele>
        <time>2018-09-15T07:34:05Z</time>
      </trkpt>
      <trkpt lat="46.27011" lon="10.51819">
        <ele>1325.017</ele>
        <time>2018-09-15T07:34:25Z</time>
      </trkpt>
      <trkpt lat="46.27011" lon="10.51818">
        <ele>1325.008</ele>
        <time>2018-09-15T07:34:45Z</time>
      </trkpt>
      <trkpt lat="46.27009" lon="10.51818">
        <ele>1325.056</ele>
        <time>2018-09-15T07:35:05Z</time>
      </trkpt>
      <trkpt lat="46.26991" lon="10.51806">
        <ele>1325.052</ele>
        <time>2018-09-15T07:35:25Z</time>
      </trkpt>
      <trkpt lat="46.26949" lon="10.51788">
        <ele>1325.069</ele>
        <time>2018-09-15T07:35:45Z</time>
      </trkpt>
      <trkpt lat="46.26929" lon="10.51781">
        <ele>1322.272</ele>
        <time>2018-09-15T07:36:05Z</time>
      </trkpt>
      <trkpt lat="46.26922" lon="10.51779">
        <ele>1320.985</ele>
        <time>2018-09-15T07:36:25Z</time>
      </trkpt>
      <trkpt lat="46.26901" lon="10.51775">
        <ele>1319.078</ele>
        <time>2018-09-15T07:36:45Z</time>
      </trkpt>
      <trkpt lat="46.26897" lon="10.51774">
        <ele>1318.876</ele>
        <time>2018-09-15T07:37:05Z</time>
      </trkpt>
      <trkpt lat="46.26854" lon="10.51797">
        <ele>1307.193</ele>
        <time>2018-09-15T07:37:25Z</time>
      </trkpt>
      <trkpt lat="46.26832" lon="10.51813">
        <ele>1300.088</ele>
        <time>2018-09-15T07:37:45Z</time>
      </trkpt>
      <trkpt lat="46.26798" lon="10.51817">
        <ele>1300.024</ele>
        <time>2018-09-15T07:38:05Z</time>
      </trkpt>
      <trkpt lat="46.26795" lon="10.51816">
        <ele>1300.026</ele>
        <time>2018-09-15T07:38:25Z</time>
      </trkpt>
      <trkpt lat="46.26769" lon="10.51806">
        <ele>1300.008</ele>
        <time>2018-09-15T07:38:45Z</time>
      </trkpt>
      <trkpt lat="46.26729" lon="10.51782">
        <ele>1300.04</ele>
        <time>2018-09-15T07:39:05Z</time>
      </trkpt>
      <trkpt lat="46.2671" lon="10.51765">
        <ele>1300.046</ele>
        <time>2018-09-15T07:39:25Z</time>
      </trkpt>
      <trkpt lat="46.26698" lon="10.51747">
        <ele>1300.253</ele>
        <time>2018-09-15T07:39:45Z</time>
      </trkpt>
      <trkpt lat="46.26706" lon="10.51721">
        <ele>1304.026</ele>
        <time>2018-09-15T07:40:05Z</time>
      </trkpt>
      <trkpt lat="46.26671" lon="10.51683">
        <ele>1307.439</ele>
        <time>2018-09-15T07:40:25Z</time>
      </trkpt>
      <trkpt lat="46.26664" lon="10.51675">
        <ele>1307.852</ele>
        <time>2018-09-15T07:40:45Z</time>
      </trkpt>
      <trkpt lat="46.26652" lon="10.51661">
        <ele>1307.92</ele>
        <time>2018-09-15T07:41:05Z</time>
      </trkpt>
      <trkpt lat="46.26612" lon="10.51656">
        <ele>1300.977</ele>
        <time>2018-09-15T07:41:25Z</time>
      </trkpt>
      <trkpt lat="46.26611" lon="10.51655">
        <ele>1300.848</ele>
        <time>2018-09-15T07:41:45Z</time>
      </trkpt>
      <trkpt lat="46.26569" lon="10.51653">
        <ele>1300.061</ele>
        <time>2018-09-15T07:42:05Z</time>
      </trkpt>
      <trkpt lat="46.26568" lon="10.51653">
        <ele>1300.017</ele>
        <time>2018-09-15T07:42:25Z</time>
      </trkpt>
      <trkpt lat="46.26563" lon="10.51652">
        <ele>1300.008</ele>
        <time>2018-09-15T07:42:45Z</time>
      </trkpt>
      <trkpt lat="46.26547" lon="10.51647">
        <ele>1299.726</ele>
        <time>2018-09-15T07:43:05Z</time>
      </trkpt>
      <trkpt lat="46.26525" lon="10.51639">
        <ele>1298.692</ele>
        <time>2018-09-15T07:43:25Z</time>
      </trkpt>
      <trkpt lat="46.26495" lon="10.51621">
        <ele>1295.529</ele>
        <time>2018-09-15T07:43:45Z</time>
      </trkpt>
      <trkpt lat="46.26481" lon="10.51613">
        <ele>1294.012</ele>
        <time>2018-09-15T07:44:05Z</time>
      </trkpt>
      <trkpt lat="46.26425" lon="10.51566">
        <ele>1285.055</ele>
        <time>2018-09-15T07:44:25Z</time>
      </trkpt>
      <trkpt lat="46.26401" lon="10.5154">
        <ele>1284.668</ele>
        <time>2018-09-15T07:44:45Z</time>
      </trkpt>
      <trkpt lat="46.26369" lon="10.51504">
        <ele>1284.916</ele>
        <time>2018-09-15T07:45:05Z</time>
      </trkpt>
      <trkpt lat="46.26332" lon="10.51469">
        <ele>1282.153</ele>
        <time>2018-09-15T07:45:25Z</time>
      </trkpt>
      <trkpt lat="46.26327" lon="10.51463">
        <ele>1281.892</ele>
        <time>2018-09-15T07:45:45Z</time>
      </trkpt>
      <trkpt lat="46.26323" lon="10.5146">
        <ele>1281.773</ele>
        <time>2018-09-15T07:46:05Z</time>
      </trkpt>
      <trkpt lat="46.26313" lon="10.51448">
        <ele>1281.52</ele>
        <time>2018-09-15T07:46:25Z</time>
      </trkpt>
      <trkpt lat="46.26294" lon="10.51436">
        <ele>1279.508</ele>
        <time>2018-09-15T07:46:45Z</time>
      </trkpt>
      <trkpt lat="46.26287" lon="10.51428">
        <ele>1279.111</ele>
        <time>2018-09-15T07:47:05Z</time>
      </trkpt>
      <trkpt lat="46.26271" lon="10.51409">
        <ele>1278.617</ele>
        <time>2018-09-15T07:47:25Z</time>
      </trkpt>
      <trkpt lat="46.26266" lon="10.51401">
        <ele>1278.374</ele>
        <time>2018-09-15T07:47:45Z</time>
      </trkpt>
      <trkpt lat="46.26261" lon="10.51386">
        <ele>1277.837</ele>
        <time>2018-09-15T07:48:05Z</time>
      </trkpt>
      <trkpt lat="46.26254" lon="10.51365">
        <ele>1276.29</ele>
        <time>2018-09-15T07:48:25Z</time>
      </trkpt>
      <trkpt lat="46.26245" lon="10.51343">
        <ele>1275.073</ele>
        <time>2018-09-15T07:48:45Z</time>
      </trkpt>
      <trkpt lat="46.2624" lon="10.51324">
        <ele>1275.611</ele>
        <time>2018-09-15T07:49:05Z</time>
      </trkpt>
      <trkpt lat="46.26228" lon="10.51303">
        <ele>1275.628</ele>
        <time>2018-09-15T07:49:25Z</time>
      </trkpt>
      <trkpt lat="46.26218" lon="10.51288">
        <ele>1274.791</ele>
        <time>2018-09-15T07:49:45Z</time>
      </trkpt>
      <trkpt lat="46.26207" lon="10.51265">
        <ele>1273.981</ele>
        <time>2018-09-15T07:50:05Z</time>
      </trkpt>
      <trkpt lat="46.26201" lon="10.51248">
        <ele>1273.519</ele>
        <time>2018-09-15T07:50:25Z</time>
      </trkpt>
      <trkpt lat="46.26189" lon="10.51193">
        <ele>1273.308</ele>
        <time>2018-09-15T07:50:45Z</time>
      </trkpt>
      <trkpt lat="46.26187" lon="10.51175">
        <ele>1273.161</ele>
        <time>2018-09-15T07:51:05Z</time>
      </trkpt>
      <trkpt lat="46.26179" lon="10.51149">
        <ele>1272.377</ele>
        <time>2018-09-15T07:51:25Z</time>
      </trkpt>
      <trkpt lat="46.26176" lon="10.51129">
        <ele>1272.034</ele>
        <time>2018-09-15T07:51:45Z</time>
      </trkpt>
      <trkpt lat="46.2616" lon="10.51099">
        <ele>1270.457</ele>
        <time>2018-09-15T07:52:05Z</time>
      </trkpt>
      <trkpt lat="46.26146" lon="10.51072">
        <ele>1269.94</ele>
        <time>2018-09-15T07:52:25Z</time>
      </trkpt>
      <trkpt lat="46.26132" lon="10.51052">
        <ele>1269.383</ele>
        <time>2018-09-15T07:52:45Z</time>
      </trkpt>
      <trkpt lat="46.26117" lon="10.51032">
        <ele>1267.761</ele>
        <time>2018-09-15T07:53:05Z</time>
      </trkpt>
      <trkpt lat="46.26106" lon="10.51013">
        <ele>1266.128</ele>
        <time>2018-09-15T07:53:25Z</time>
      </trkpt>
      <trkpt lat="46.26091" lon="10.51004">
        <ele>1262.251</ele>
        <time>2018-09-15T07:53:45Z</time>
      </trkpt>
      <trkpt lat="46.26078" lon="10.50994">
        <ele>1258.001</ele>
        <time>2018-09-15T07:54:05Z</time>
      </trkpt>
      <trkpt lat="46.26067" lon="10.50986">
        <ele>1254.611</ele>
        <time>2018-09-15T07:54:25Z</time>
      </trkpt>
      <trkpt lat="46.2606" lon="10.50977">
        <ele>1251.608</ele>
        <time>2018-09-15T07:54:45Z</time>
      </trkpt>
      <trkpt lat="46.26055" lon="10.50975">
        <ele>1250.177</ele>
        <time>2018-09-15T07:55:05Z</time>
      </trkpt>
      <trkpt lat="46.26053" lon="10.50972">
        <ele>1250.083</ele>
        <time>2018-09-15T07:55:25Z</time>
      </trkpt>
      <trkpt lat="46.26045" lon="10.50964">
        <ele>1250.09</ele>
        <time>2018-09-15T07:55:45Z</time>
      </trkpt>
      <trkpt lat="46.26038" lon="10.50986">
        <ele>1250.323</ele>
        <time>2018-09-15T07:56:05Z</time>
      </trkpt>
      <trkpt lat="46.26036" lon="10.50989">
        <ele>1250.336</ele>
        <time>2018-09-15T07:56:25Z</time>
      </trkpt>
      <trkpt lat="46.26031" lon="10.51">
        <ele>1250.269</ele>
        <time>2018-09-15T07:56:45Z</time>
      </trkpt>
      <trkpt lat="46.26022" lon="10.51005">
        <ele>1250.437</ele>
        <time>2018-09-15T07:57:05Z</time>
      </trkpt>
      <trkpt lat="46.26015" lon="10.51011">
        <ele>1250.734</ele>
        <time>2018-09-15T07:57:25Z</time>
      </trkpt>
      <trkpt lat="46.26003" lon="10.51025">
        <ele>1251.118</ele>
        <time>2018-09-15T07:57:45Z</time>
      </trkpt>
      <trkpt lat="46.25998" lon="10.51036">
        <ele>1251.498</ele>
        <time>2018-09-15T07:58:05Z</time>
      </trkpt>
      <trkpt lat="46.25996" lon="10.51047">
        <ele>1252.017</ele>
        <time>2018-09-15T07:58:25Z</time>
      </trkpt>
      <trkpt lat="46.25994" lon="10.51058">
        <ele>1252.408</ele>
        <time>2018-09-15T07:58:45Z</time>
      </trkpt>
      <trkpt lat="46.25984" lon="10.51096">
        <ele>1252.363</ele>
        <time>2018-09-15T07:59:05Z</time>
      </trkpt>
      <trkpt lat="46.25971" lon="10.51183">
        <ele>1250.099</ele>
        <time>2018-09-15T07:59:25Z</time>
      </trkpt>
      <trkpt lat="46.2597" lon="10.51208">
        <ele>1250.096</ele>
        <time>2018-09-15T07:59:45Z</time>
      </trkpt>
      <trkpt lat="46.25931" lon="10.51332">
        <ele>1250.059</ele>
        <time>2018-09-15T08:00:05Z</time>
      </trkpt>
      <trkpt lat="46.25922" lon="10.51369">
        <ele>1250.192</ele>
        <time>2018-09-15T08:00:25Z</time>
      </trkpt>
      <trkpt lat="46.25915" lon="10.51399">
        <ele>1251.365</ele>
        <time>2018-09-15T08:00:45Z</time>
      </trkpt>
      <trkpt lat="46.25908" lon="10.51418">
        <ele>1253.823</ele>
        <time>2018-09-15T08:01:05Z</time>
      </trkpt>
      <trkpt lat="46.25892" lon="10.51437">
        <ele>1255.27</ele>
        <time>2018-09-15T08:01:25Z</time>
      </trkpt>
      <trkpt lat="46.25866" lon="10.51481">
        <ele>1258.138</ele>
        <time>2018-09-15T08:01:45Z</time>
      </trkpt>
      <trkpt lat="46.25851" lon="10.51503">
        <ele>1259.87</ele>
        <time>2018-09-15T08:02:05Z</time>
      </trkpt>
      <trkpt lat="46.25824" lon="10.51546">
        <ele>1261.717</ele>
        <time>2018-09-15T08:02:25Z</time>
      </trkpt>
      <trkpt lat="46.25804" lon="10.51577">
        <ele>1262.408</ele>
        <time>2018-09-15T08:02:45Z</time>
      </trkpt>
      <trkpt lat="46.25755" lon="10.51626">
        <ele>1262.865</ele>
        <time>2018-09-15T08:03:05Z</time>
      </trkpt>
      <trkpt lat="46.25737" lon="10.51641">
        <ele>1263.161</ele>
        <time>2018-09-15T08:03:25Z</time>
      </trkpt>
      <trkpt lat="46.2572" lon="10.51655">
        <ele>1263.528</ele>
        <time>2018-09-15T08:03:45Z</time>
      </trkpt>
      <trkpt lat="46.25711" lon="10.51676">
        <ele>1263.991</ele>
        <time>2018-09-15T08:04:05Z</time>
      </trkpt>
      <trkpt lat="46.25709" lon="10.51681">
        <ele>1264.054</ele>
        <time>2018-09-15T08:04:25Z</time>
      </trkpt>
      <trkpt lat="46.25638" lon="10.51626">
        <ele>1262.527</ele>
        <time>2018-09-15T08:04:45Z</time>
      </trkpt>
      <trkpt lat="46.25607" lon="10.51633">
        <ele>1264.095</ele>
        <time>2018-09-15T08:05:05Z</time>
      </trkpt>
      <trkpt lat="46.25607" lon="10.51633">
        <ele>1264.162</ele>
        <time>2018-09-15T08:05:25Z</time>
      </trkpt>
      <trkpt lat="46.25574" lon="10.51688">
        <ele>1267.145</ele>
        <time>2018-09-15T08:05:45Z</time>
      </trkpt>
      <trkpt lat="46.2557" lon="10.51694">
        <ele>1267.447</ele>
        <time>2018-09-15T08:06:05Z</time>
      </trkpt>
      <trkpt lat="46.25542" lon="10.51668">
        <ele>1267.511</ele>
        <time>2018-09-15T08:06:25Z</time>
      </trkpt>
      <trkpt lat="46.25502" lon="10.51632">
        <ele>1268.908</ele>
        <time>2018-09-15T08:06:45Z</time>
      </trkpt>
      <trkpt lat="46.25492" lon="10.51631">
        <ele>1269.356</ele>
        <time>2018-09-15T08:07:05Z</time>
      </trkpt>
      <trkpt lat="46.25486" lon="10.51629">
        <ele>1269.472</ele>
        <time>2018-09-15T08:07:25Z</time>
      </trkpt>
      <trkpt lat="46.25479" lon="10.51625">
        <ele>1269.739</ele>
        <time>2018-09-15T08:07:45Z</time>
      </trkpt>
      <trkpt lat="46.25478" lon="10.51625">
        <ele>1269.732</ele>
        <time>2018-09-15T08:08:05Z</time>
      </trkpt>
      <trkpt lat="46.25451" lon="10.51661">
        <ele>1271.525</ele>
        <time>2018-09-15T08:08:25Z</time>
      </trkpt>
      <trkpt lat="46.25447" lon="10.51668">
        <ele>1271.718</ele>
        <time>2018-09-15T08:08:45Z</time>
      </trkpt>
      <trkpt lat="46.25437" lon="10.51689">
        <ele>1272.296</ele>
        <time>2018-09-15T08:09:05Z</time>
      </trkpt>
      <trkpt lat="46.25435" lon="10.51692">
        <ele>1272.313</ele>
        <time>2018-09-15T08:09:25Z</time>
      </trkpt>
      <trkpt lat="46.25374" lon="10.51815">
        <ele>1274.016</ele>
        <time>2018-09-15T08:09:45Z</time>
      </trkpt>
      <trkpt lat="46.25357" lon="10.51853">
        <ele>1274.176</ele>
        <time>2018-09-15T08:10:05Z</time>
      </trkpt>
      <trkpt lat="46.25336" lon="10.51908">
        <ele>1274.013</ele>
        <time>2018-09-15T08:10:25Z</time>
      </trkpt>
      <trkpt lat="46.25292" lon="10.51998">
        <ele>1275.608</ele>
        <time>2018-09-15T08:10:45Z</time>
      </trkpt>
      <trkpt lat="46.25249" lon="10.5207">
        <ele>1287.183</ele>
        <time>2018-09-15T08:11:05Z</time>
      </trkpt>
      <trkpt lat="46.25243" lon="10.52079">
        <ele>1288.889</ele>
        <time>2018-09-15T08:11:25Z</time>
      </trkpt>
      <trkpt lat="46.2523" lon="10.52095">
        <ele>1294.366</ele>
        <time>2018-09-15T08:11:45Z</time>
      </trkpt>
      <trkpt lat="46.25237" lon="10.52026">
        <ele>1302.759</ele>
        <time>2018-09-15T08:12:05Z</time>
      </trkpt>
      <trkpt lat="46.25203" lon="10.52078">
        <ele>1312.462</ele>
        <time>2018-09-15T08:12:25Z</time>
      </trkpt>
      <trkpt lat="46.25209" lon="10.52035">
        <ele>1319.735</ele>
        <time>2018-09-15T08:12:45Z</time>
      </trkpt>
      <trkpt lat="46.25194" lon="10.52051">
        <ele>1326.953</ele>
        <time>2018-09-15T08:13:05Z</time>
      </trkpt>
      <trkpt lat="46.25168" lon="10.52072">
        <ele>1330.46</ele>
        <time>2018-09-15T08:13:25Z</time>
      </trkpt>
      <trkpt lat="46.25143" lon="10.52085">
        <ele>1336.145</ele>
        <time>2018-09-15T08:13:45Z</time>
      </trkpt>
      <trkpt lat="46.25137" lon="10.5209">
        <ele>1337.247</ele>
        <time>2018-09-15T08:14:05Z</time>
      </trkpt>
      <trkpt lat="46.25147" lon="10.52062">
        <ele>1339.311</ele>
        <time>2018-09-15T08:14:25Z</time>
      </trkpt>
      <trkpt lat="46.25162" lon="10.52024">
        <ele>1341.908</ele>
        <time>2018-09-15T08:14:45Z</time>
      </trkpt>
      <trkpt lat="46.25162" lon="10.52023">
        <ele>1342.036</ele>
        <time>2018-09-15T08:15:05Z</time>
      </trkpt>
      <trkpt lat="46.2515" lon="10.5203">
        <ele>1344.582</ele>
        <time>2018-09-15T08:15:25Z</time>
      </trkpt>
      <trkpt lat="46.25155" lon="10.52025">
        <ele>1343.929</ele>
        <time>2018-09-15T08:15:45Z</time>
      </trkpt>
      <trkpt lat="46.25163" lon="10.52018">
        <ele>1342.932</ele>
        <time>2018-09-15T08:16:05Z</time>
      </trkpt>
      <trkpt lat="46.25163" lon="10.52009">
        <ele>1344.425</ele>
        <time>2018-09-15T08:16:25Z</time>
      </trkpt>
      <trkpt lat="46.25149" lon="10.52021">
        <ele>1346.298</ele>
        <time>2018-09-15T08:16:45Z</time>
      </trkpt>
      <trkpt lat="46.25148" lon="10.5199">
        <ele>1351.946</ele>
        <time>2018-09-15T08:17:05Z</time>
      </trkpt>
      <trkpt lat="46.25153" lon="10.51968">
        <ele>1353.883</ele>
        <time>2018-09-15T08:17:25Z</time>
      </trkpt>
      <trkpt lat="46.25152" lon="10.51947">
        <ele>1357.031</ele>
        <time>2018-09-15T08:17:45Z</time>
      </trkpt>
      <trkpt lat="46.25149" lon="10.51904">
        <ele>1364.061</ele>
        <time>2018-09-15T08:18:05Z</time>
      </trkpt>
      <trkpt lat="46.25139" lon="10.51884">
        <ele>1370.107</ele>
        <time>2018-09-15T08:18:25Z</time>
      </trkpt>
      <trkpt lat="46.25131" lon="10.51872">
        <ele>1374.508</ele>
        <time>2018-09-15T08:18:45Z</time>
      </trkpt>
      <trkpt lat="46.25128" lon="10.51846">
        <ele>1377.865</ele>
        <time>2018-09-15T08:19:05Z</time>
      </trkpt>
      <trkpt lat="46.251" lon="10.51835">
        <ele>1390.381</ele>
        <time>2018-09-15T08:19:25Z</time>
      </trkpt>
      <trkpt lat="46.25095" lon="10.51842">
        <ele>1390.218</ele>
        <time>2018-09-15T08:19:45Z</time>
      </trkpt>
      <trkpt lat="46.2509" lon="10.51818">
        <ele>1393.731</ele>
        <time>2018-09-15T08:20:05Z</time>
      </trkpt>
      <trkpt lat="46.25082" lon="10.5184">
        <ele>1393.534</ele>
        <time>2018-09-15T08:20:25Z</time>
      </trkpt>
      <trkpt lat="46.25072" lon="10.51818">
        <ele>1402.137</ele>
        <time>2018-09-15T08:20:45Z</time>
      </trkpt>
      <trkpt lat="46.25065" lon="10.51839">
        <ele>1406.685</ele>
        <time>2018-09-15T08:21:05Z</time>
      </trkpt>
      <trkpt lat="46.25054" lon="10.51827">
        <ele>1416.582</ele>
        <time>2018-09-15T08:21:25Z</time>
      </trkpt>
      <trkpt lat="46.25042" lon="10.51843">
        <ele>1430.473</ele>
        <time>2018-09-15T08:21:45Z</time>
      </trkpt>
      <trkpt lat="46.25036" lon="10.51829">
        <ele>1440.185</ele>
        <time>2018-09-15T08:22:05Z</time>
      </trkpt>
      <trkpt lat="46.25024" lon="10.51828">
        <ele>1452.413</ele>
        <time>2018-09-15T08:22:25Z</time>
      </trkpt>
      <trkpt lat="46.25005" lon="10.51847">
        <ele>1460.008</ele>
        <time>2018-09-15T08:22:45Z</time>
      </trkpt>
      <trkpt lat="46.25004" lon="10.51823">
        <ele>1465.119</ele>
        <time>2018-09-15T08:23:05Z</time>
      </trkpt>
      <trkpt lat="46.24994" lon="10.5183">
        <ele>1470.575</ele>
        <time>2018-09-15T08:23:25Z</time>
      </trkpt>
      <trkpt lat="46.24987" lon="10.51823">
        <ele>1474.572</ele>
        <time>2018-09-15T08:23:45Z</time>
      </trkpt>
      <trkpt lat="46.24974" lon="10.51813">
        <ele>1482.355</ele>
        <time>2018-09-15T08:24:05Z</time>
      </trkpt>
      <trkpt lat="46.24961" lon="10.51788">
        <ele>1490.818</ele>
        <time>2018-09-15T08:24:25Z</time>
      </trkpt>
      <trkpt lat="46.24948" lon="10.51788">
        <ele>1500.041</ele>
        <time>2018-09-15T08:24:45Z</time>
      </trkpt>
      <trkpt lat="46.24936" lon="10.51785">
        <ele>1505.849</ele>
        <time>2018-09-15T08:25:05Z</time>
      </trkpt>
      <trkpt lat="46.24928" lon="10.51773">
        <ele>1510.436</ele>
        <time>2018-09-15T08:25:25Z</time>
      </trkpt>
      <trkpt lat="46.24936" lon="10.5173">
        <ele>1513.836</ele>
        <time>2018-09-15T08:25:45Z</time>
      </trkpt>
      <trkpt lat="46.24943" lon="10.51678">
        <ele>1518.917</ele>
        <time>2018-09-15T08:26:05Z</time>
      </trkpt>
      <trkpt lat="46.24958" lon="10.51654">
        <ele>1510.018</ele>
        <time>2018-09-15T08:26:25Z</time>
      </trkpt>
      <trkpt lat="46.24977" lon="10.51643">
        <ele>1502.308</ele>
        <time>2018-09-15T08:26:45Z</time>
      </trkpt>
      <trkpt lat="46.24995" lon="10.51629">
        <ele>1508.895</ele>
        <time>2018-09-15T08:27:05Z</time>
      </trkpt>
      <trkpt lat="46.25015" lon="10.51613">
        <ele>1513.841</ele>
        <time>2018-09-15T08:27:25Z</time>
      </trkpt>
      <trkpt lat="46.2502" lon="10.51601">
        <ele>1517.938</ele>
        <time>2018-09-15T08:27:45Z</time>
      </trkpt>
      <trkpt lat="46.25028" lon="10.51572">
        <ele>1526.211</ele>
        <time>2018-09-15T08:28:05Z</time>
      </trkpt>
      <trkpt lat="46.25029" lon="10.51569">
        <ele>1526.284</ele>
        <time>2018-09-15T08:28:25Z</time>
      </trkpt>
      <trkpt lat="46.25034" lon="10.51544">
        <ele>1527.717</ele>
        <time>2018-09-15T08:28:45Z</time>
      </trkpt>
      <trkpt lat="46.25038" lon="10.51503">
        <ele>1524.545</ele>
        <time>2018-09-15T08:29:05Z</time>
      </trkpt>
      <trkpt lat="46.2504" lon="10.51463">
        <ele>1518.582</ele>
        <time>2018-09-15T08:29:25Z</time>
      </trkpt>
      <trkpt lat="46.25041" lon="10.51435">
        <ele>1515.839</ele>
        <time>2018-09-15T08:29:45Z</time>
      </trkpt>
      <trkpt lat="46.25041" lon="10.51408">
        <ele>1513.201</ele>
        <time>2018-09-15T08:30:05Z</time>
      </trkpt>
      <trkpt lat="46.25041" lon="10.51372">
        <ele>1510.221</ele>
        <time>2018-09-15T08:30:25Z</time>
      </trkpt>
      <trkpt lat="46.25041" lon="10.51358">
        <ele>1508.908</ele>
        <time>2018-09-15T08:30:45Z</time>
      </trkpt>
      <trkpt lat="46.25042" lon="10.51344">
        <ele>1508.185</ele>
        <time>2018-09-15T08:31:05Z</time>
      </trkpt>
      <trkpt lat="46.25041" lon="10.51322">
        <ele>1506.991</ele>
        <time>2018-09-15T08:31:25Z</time>
      </trkpt>
      <trkpt lat="46.25039" lon="10.51309">
        <ele>1506.798</ele>
        <time>2018-09-15T08:31:45Z</time>
      </trkpt>
      <trkpt lat="46.25036" lon="10.51295">
        <ele>1506.931</ele>
        <time>2018-09-15T08:32:05Z</time>
      </trkpt>
      <trkpt lat="46.25034" lon="10.51283">
        <ele>1506.714</ele>
        <time>2018-09-15T08:32:25Z</time>
      </trkpt>
      <trkpt lat="46.25028" lon="10.5126">
        <ele>1506.137</ele>
        <time>2018-09-15T08:32:45Z</time>
      </trkpt>
      <trkpt lat="46.25028" lon="10.51244">
        <ele>1504.565</ele>
        <time>2018-09-15T08:33:05Z</time>
      </trkpt>
      <trkpt lat="46.25029" lon="10.51231">
        <ele>1503.172</ele>
        <time>2018-09-15T08:33:25Z</time>
      </trkpt>
      <trkpt lat="46.25027" lon="10.51225">
        <ele>1503.389</ele>
        <time>2018-09-15T08:33:45Z</time>
      </trkpt>
      <trkpt lat="46.25026" lon="10.5121">
        <ele>1502.806</ele>
        <time>2018-09-15T08:34:05Z</time>
      </trkpt>
      <trkpt lat="46.25023" lon="10.51198">
        <ele>1502.926</ele>
        <time>2018-09-15T08:34:25Z</time>
      </trkpt>
      <trkpt lat="46.25019" lon="10.51186">
        <ele>1503.908</ele>
        <time>2018-09-15T08:34:45Z</time>
      </trkpt>
      <trkpt lat="46.25018" lon="10.51174">
        <ele>1502.99</ele>
        <time>2018-09-15T08:35:05Z</time>
      </trkpt>
      <trkpt lat="46.25014" lon="10.51151">
        <ele>1501.676</ele>
        <time>2018-09-15T08:35:25Z</time>
      </trkpt>
      <trkpt lat="46.25013" lon="10.51146">
        <ele>1501.523</ele>
        <time>2018-09-15T08:35:45Z</time>
      </trkpt>
      <trkpt lat="46.24972" lon="10.51088">
        <ele>1508.026</ele>
        <time>2018-09-15T08:36:05Z</time>
      </trkpt>
      <trkpt lat="46.24966" lon="10.51076">
        <ele>1508.719</ele>
        <time>2018-09-15T08:36:25Z</time>
      </trkpt>
      <trkpt lat="46.24958" lon="10.51055">
        <ele>1508.872</ele>
        <time>2018-09-15T08:36:45Z</time>
      </trkpt>
      <trkpt lat="46.24957" lon="10.51054">
        <ele>1508.86</ele>
        <time>2018-09-15T08:37:05Z</time>
      </trkpt>
      <trkpt lat="46.24949" lon="10.51023">
        <ele>1508.837</ele>
        <time>2018-09-15T08:37:25Z</time>
      </trkpt>
      <trkpt lat="46.24949" lon="10.51012">
        <ele>1506.784</ele>
        <time>2018-09-15T08:37:45Z</time>
      </trkpt>
      <trkpt lat="46.24951" lon="10.51007">
        <ele>1505.007</ele>
        <time>2018-09-15T08:38:05Z</time>
      </trkpt>
      <trkpt lat="46.24953" lon="10.50995">
        <ele>1501.317</ele>
        <time>2018-09-15T08:38:25Z</time>
      </trkpt>
      <trkpt lat="46.24951" lon="10.50983">
        <ele>1500.408</ele>
        <time>2018-09-15T08:38:45Z</time>
      </trkpt>
      <trkpt lat="46.2495" lon="10.50971">
        <ele>1499.34</ele>
        <time>2018-09-15T08:39:05Z</time>
      </trkpt>
      <trkpt lat="46.24947" lon="10.50965">
        <ele>1499.866</ele>
        <time>2018-09-15T08:39:25Z</time>
      </trkpt>
      <trkpt lat="46.24936" lon="10.50958">
        <ele>1500.423</ele>
        <time>2018-09-15T08:39:45Z</time>
      </trkpt>
      <trkpt lat="46.24928" lon="10.50958">
        <ele>1501.196</ele>
        <time>2018-09-15T08:40:05Z</time>
      </trkpt>
      <trkpt lat="46.24916" lon="10.50959">
        <ele>1502.889</ele>
        <time>2018-09-15T08:40:25Z</time>
      </trkpt>
      <trkpt lat="46.24905" lon="10.50959">
        <ele>1505.992</ele>
        <time>2018-09-15T08:40:45Z</time>
      </trkpt>
      <trkpt lat="46.24895" lon="10.50956">
        <ele>1508.24</ele>
        <time>2018-09-15T08:41:05Z</time>
      </trkpt>
      <trkpt lat="46.24883" lon="10.50947">
        <ele>1510.247</ele>
        <time>2018-09-15T08:41:25Z</time>
      </trkpt>
      <trkpt lat="46.24876" lon="10.50935">
        <ele>1510.895</ele>
        <time>2018-09-15T08:41:45Z</time>
      </trkpt>
      <trkpt lat="46.2487" lon="10.50924">
        <ele>1511.349</ele>
        <time>2018-09-15T08:42:05Z</time>
      </trkpt>
      <trkpt lat="46.24857" lon="10.50913">
        <ele>1513.623</ele>
        <time>2018-09-15T08:42:25Z</time>
      </trkpt>
      <trkpt lat="46.24851" lon="10.50902">
        <ele>1512.208</ele>
        <time>2018-09-15T08:42:45Z</time>
      </trkpt>
      <trkpt lat="46.24851" lon="10.50889">
        <ele>1509.481</ele>
        <time>2018-09-15T08:43:05Z</time>
      </trkpt>
      <trkpt lat="46.2485" lon="10.50881">
        <ele>1508.167</ele>
        <time>2018-09-15T08:43:25Z</time>
      </trkpt>
      <trkpt lat="46.24844" lon="10.50878">
        <ele>1508.354</ele>
        <time>2018-09-15T08:43:45Z</time>
      </trkpt>
      <trkpt lat="46.24839" lon="10.50875">
        <ele>1508.757</ele>
        <time>2018-09-15T08:44:05Z</time>
      </trkpt>
      <trkpt lat="46.24832" lon="10.50876">
        <ele>1509.83</ele>
        <time>2018-09-15T08:44:25Z</time>
      </trkpt>
      <trkpt lat="46.24824" lon="10.50875">
        <ele>1510.483</ele>
        <time>2018-09-15T08:44:45Z</time>
      </trkpt>
      <trkpt lat="46.24818" lon="10.50872">
        <ele>1510.681</ele>
        <time>2018-09-15T08:45:05Z</time>
      </trkpt>
      <trkpt lat="46.24811" lon="10.50861">
        <ele>1509.328</ele>
        <time>2018-09-15T08:45:25Z</time>
      </trkpt>
      <trkpt lat="46.24807" lon="10.50849">
        <ele>1509.774</ele>
        <time>2018-09-15T08:45:45Z</time>
      </trkpt>
      <trkpt lat="46.24803" lon="10.50826">
        <ele>1510.356</ele>
        <time>2018-09-15T08:46:05Z</time>
      </trkpt>
      <trkpt lat="46.24803" lon="10.50822">
        <ele>1510.421</ele>
        <time>2018-09-15T08:46:25Z</time>
      </trkpt>
      <trkpt lat="46.248" lon="10.50808">
        <ele>1510.708</ele>
        <time>2018-09-15T08:46:45Z</time>
      </trkpt>
      <trkpt lat="46.24803" lon="10.50802">
        <ele>1510.339</ele>
        <time>2018-09-15T08:47:05Z</time>
      </trkpt>
      <trkpt lat="46.24803" lon="10.508">
        <ele>1510.395</ele>
        <time>2018-09-15T08:47:25Z</time>
      </trkpt>
      <trkpt lat="46.24804" lon="10.50794">
        <ele>1510.252</ele>
        <time>2018-09-15T08:47:45Z</time>
      </trkpt>
      <trkpt lat="46.24804" lon="10.50791">
        <ele>1510.145</ele>
        <time>2018-09-15T08:48:05Z</time>
      </trkpt>
      <trkpt lat="46.24796" lon="10.50785">
        <ele>1511.388</ele>
        <time>2018-09-15T08:48:25Z</time>
      </trkpt>
      <trkpt lat="46.24796" lon="10.50785">
        <ele>1511.441</ele>
        <time>2018-09-15T08:48:45Z</time>
      </trkpt>
      <trkpt lat="46.24791" lon="10.50782">
        <ele>1512.099</ele>
        <time>2018-09-15T08:49:05Z</time>
      </trkpt>
      <trkpt lat="46.2479" lon="10.50781">
        <ele>1512.246</ele>
        <time>2018-09-15T08:49:25Z</time>
      </trkpt>
      <trkpt lat="46.24786" lon="10.50779">
        <ele>1512.795</ele>
        <time>2018-09-15T08:49:45Z</time>
      </trkpt>
      <trkpt lat="46.24779" lon="10.5078">
        <ele>1513.849</ele>
        <time>2018-09-15T08:50:05Z</time>
      </trkpt>
      <trkpt lat="46.24767" lon="10.50784">
        <ele>1515.623</ele>
        <time>2018-09-15T08:50:25Z</time>
      </trkpt>
      <trkpt lat="46.24755" lon="10.50786">
        <ele>1517.508</ele>
        <time>2018-09-15T08:50:45Z</time>
      </trkpt>
      <trkpt lat="46.2474" lon="10.50779">
        <ele>1519.811</ele>
        <time>2018-09-15T08:51:05Z</time>
      </trkpt>
      <trkpt lat="46.24722" lon="10.5077">
        <ele>1522.957</ele>
        <time>2018-09-15T08:51:25Z</time>
      </trkpt>
      <trkpt lat="46.24707" lon="10.50755">
        <ele>1523.524</ele>
        <time>2018-09-15T08:51:45Z</time>
      </trkpt>
      <trkpt lat="46.24705" lon="10.50752">
        <ele>1523.657</ele>
        <time>2018-09-15T08:52:05Z</time>
      </trkpt>
      <trkpt lat="46.24693" lon="10.50736">
        <ele>1524.09</ele>
        <time>2018-09-15T08:52:25Z</time>
      </trkpt>
      <trkpt lat="46.24681" lon="10.5072">
        <ele>1524.023</ele>
        <time>2018-09-15T08:52:45Z</time>
      </trkpt>
      <trkpt lat="46.24679" lon="10.50717">
        <ele>1524.081</ele>
        <time>2018-09-15T08:53:05Z</time>
      </trkpt>
      <trkpt lat="46.24665" lon="10.50698">
        <ele>1524.018</ele>
        <time>2018-09-15T08:53:25Z</time>
      </trkpt>
      <trkpt lat="46.24641" lon="10.50673">
        <ele>1524.076</ele>
        <time>2018-09-15T08:53:45Z</time>
      </trkpt>
      <trkpt lat="46.24618" lon="10.50649">
        <ele>1524.09</ele>
        <time>2018-09-15T08:54:05Z</time>
      </trkpt>
      <trkpt lat="46.24562" lon="10.50636">
        <ele>1524.019</ele>
        <time>2018-09-15T08:54:25Z</time>
      </trkpt>
      <trkpt lat="46.24555" lon="10.50623">
        <ele>1524.008</ele>
        <time>2018-09-15T08:54:45Z</time>
      </trkpt>
      <trkpt lat="46.24545" lon="10.50604">
        <ele>1524.039</ele>
        <time>2018-09-15T08:55:05Z</time>
      </trkpt>
      <trkpt lat="46.24453" lon="10.50615">
        <ele>1524.035</ele>
        <time>2018-09-15T08:55:25Z</time>
      </trkpt>
      <trkpt lat="46.24436" lon="10.50624">
        <ele>1524.042</ele>
        <time>2018-09-15T08:55:45Z</time>
      </trkpt>
      <trkpt lat="46.2441" lon="10.50628">
        <ele>1525.195</ele>
        <time>2018-09-15T08:56:05Z</time>
      </trkpt>
      <trkpt lat="46.24402" lon="10.50631">
        <ele>1526.038</ele>
        <time>2018-09-15T08:56:25Z</time>
      </trkpt>
      <trkpt lat="46.24385" lon="10.50634">
        <ele>1528.381</ele>
        <time>2018-09-15T08:56:45Z</time>
      </trkpt>
      <trkpt lat="46.2438" lon="10.50639">
        <ele>1528.899</ele>
        <time>2018-09-15T08:57:05Z</time>
      </trkpt>
      <trkpt lat="46.24374" lon="10.50644">
        <ele>1530.776</ele>
        <time>2018-09-15T08:57:25Z</time>
      </trkpt>
      <trkpt lat="46.24367" lon="10.50653">
        <ele>1531.819</ele>
        <time>2018-09-15T08:57:45Z</time>
      </trkpt>
      <trkpt lat="46.24353" lon="10.50667">
        <ele>1532.109</ele>
        <time>2018-09-15T08:58:05Z</time>
      </trkpt>
      <trkpt lat="46.24343" lon="10.50669">
        <ele>1534.619</ele>
        <time>2018-09-15T08:58:25Z</time>
      </trkpt>
      <trkpt lat="46.24337" lon="10.50673">
        <ele>1536.308</ele>
        <time>2018-09-15T08:58:45Z</time>
      </trkpt>
      <trkpt lat="46.2432" lon="10.50676">
        <ele>1539.953</ele>
        <time>2018-09-15T08:59:05Z</time>
      </trkpt>
      <trkpt lat="46.24304" lon="10.50681">
        <ele>1543.229</ele>
        <time>2018-09-15T08:59:25Z</time>
      </trkpt>
      <trkpt lat="46.24303" lon="10.50682">
        <ele>1543.576</ele>
        <time>2018-09-15T08:59:45Z</time>
      </trkpt>
      <trkpt lat="46.243" lon="10.50687">
        <ele>1544.219</ele>
        <time>2018-09-15T09:00:05Z</time>
      </trkpt>
      <trkpt lat="46.24292" lon="10.50702">
        <ele>1545.922</ele>
        <time>2018-09-15T09:00:25Z</time>
      </trkpt>
      <trkpt lat="46.24283" lon="10.50718">
        <ele>1548.195</ele>
        <time>2018-09-15T09:00:45Z</time>
      </trkpt>
      <trkpt lat="46.24264" lon="10.50742">
        <ele>1549.013</ele>
        <time>2018-09-15T09:01:05Z</time>
      </trkpt>
      <trkpt lat="46.24248" lon="10.50753">
        <ele>1549.01</ele>
        <time>2018-09-15T09:01:25Z</time>
      </trkpt>
      <trkpt lat="46.24231" lon="10.50762">
        <ele>1549.068</ele>
        <time>2018-09-15T09:01:45Z</time>
      </trkpt>
      <trkpt lat="46.24222" lon="10.50759">
        <ele>1549.042</ele>
        <time>2018-09-15T09:02:05Z</time>
      </trkpt>
      <trkpt lat="46.24203" lon="10.50761">
        <ele>1549.026</ele>
        <time>2018-09-15T09:02:25Z</time>
      </trkpt>
      <trkpt lat="46.24181" lon="10.50769">
        <ele>1549.008</ele>
        <time>2018-09-15T09:02:45Z</time>
      </trkpt>
      <trkpt lat="46.24162" lon="10.50786">
        <ele>1549.098</ele>
        <time>2018-09-15T09:03:05Z</time>
      </trkpt>
      <trkpt lat="46.24148" lon="10.50797">
        <ele>1549.064</ele>
        <time>2018-09-15T09:03:25Z</time>
      </trkpt>
      <trkpt lat="46.24147" lon="10.50797">
        <ele>1549.071</ele>
        <time>2018-09-15T09:03:45Z</time>
      </trkpt>
      <trkpt lat="46.24143" lon="10.508">
        <ele>1549.014</ele>
        <time>2018-09-15T09:04:05Z</time>
      </trkpt>
      <trkpt lat="46.24138" lon="10.50802">
        <ele>1549.117</ele>
        <time>2018-09-15T09:04:25Z</time>
      </trkpt>
      <trkpt lat="46.24133" lon="10.50803">
        <ele>1549.44</ele>
        <time>2018-09-15T09:04:45Z</time>
      </trkpt>
      <trkpt lat="46.24131" lon="10.50804">
        <ele>1549.448</ele>
        <time>2018-09-15T09:05:05Z</time>
      </trkpt>
      <trkpt lat="46.24128" lon="10.50805">
        <ele>1549.455</ele>
        <time>2018-09-15T09:05:25Z</time>
      </trkpt>
      <trkpt lat="46.24107" lon="10.5081">
        <ele>1552.651</ele>
        <time>2018-09-15T09:05:45Z</time>
      </trkpt>
      <trkpt lat="46.24107" lon="10.5081">
        <ele>1552.701</ele>
        <time>2018-09-15T09:06:05Z</time>
      </trkpt>
      <trkpt lat="46.24104" lon="10.50812">
        <ele>1554.511</ele>
        <time>2018-09-15T09:06:25Z</time>
      </trkpt>
      <trkpt lat="46.241" lon="10.50814">
        <ele>1557.108</ele>
        <time>2018-09-15T09:06:45Z</time>
      </trkpt>
      <trkpt lat="46.24084" lon="10.50826">
        <ele>1565.867</ele>
        <time>2018-09-15T09:07:05Z</time>
      </trkpt>
      <trkpt lat="46.24073" lon="10.50834">
        <ele>1566.753</ele>
        <time>2018-09-15T09:07:25Z</time>
      </trkpt>
      <trkpt lat="46.2406" lon="10.50843">
        <ele>1567.93</ele>
        <time>2018-09-15T09:07:45Z</time>
      </trkpt>
      <trkpt lat="46.24058" lon="10.50844">
        <ele>1567.943</ele>
        <time>2018-09-15T09:08:05Z</time>
      </trkpt>
      <trkpt lat="46.24055" lon="10.50848">
        <ele>1568.236</ele>
        <time>2018-09-15T09:08:25Z</time>
      </trkpt>
      <trkpt lat="46.24054" lon="10.50849">
        <ele>1568.349</ele>
        <time>2018-09-15T09:08:45Z</time>
      </trkpt>
      <trkpt lat="46.24053" lon="10.50851">
        <ele>1568.357</ele>
        <time>2018-09-15T09:09:05Z</time>
      </trkpt>
      <trkpt lat="46.24051" lon="10.50854">
        <ele>1568.394</ele>
        <time>2018-09-15T09:09:25Z</time>
      </trkpt>
      <trkpt lat="46.2405" lon="10.50855">
        <ele>1568.434</ele>
        <time>2018-09-15T09:09:45Z</time>
      </trkpt>
      <trkpt lat="46.24048" lon="10.50857">
        <ele>1568.655</ele>
        <time>2018-09-15T09:10:05Z</time>
      </trkpt>
      <trkpt lat="46.24043" lon="10.50863">
        <ele>1569.51</ele>
        <time>2018-09-15T09:10:25Z</time>
      </trkpt>
      <trkpt lat="46.2403" lon="10.50875">
        <ele>1571.408</ele>
        <time>2018-09-15T09:10:45Z</time>
      </trkpt>
      <trkpt lat="46.24021" lon="10.50884">
        <ele>1572.165</ele>
        <time>2018-09-15T09:11:05Z</time>
      </trkpt>
      <trkpt lat="46.24017" lon="10.50887">
        <ele>1572.291</ele>
        <time>2018-09-15T09:11:25Z</time>
      </trkpt>
      <trkpt lat="46.24015" lon="10.5089">
        <ele>1572.288</ele>
        <time>2018-09-15T09:11:45Z</time>
      </trkpt>
      <trkpt lat="46.24013" lon="10.50893">
        <ele>1572.331</ele>
        <time>2018-09-15T09:12:05Z</time>
      </trkpt>
      <trkpt lat="46.24013" lon="10.50893">
        <ele>1572.344</ele>
        <time>2018-09-15T09:12:25Z</time>
      </trkpt>
      <trkpt lat="46.24013" lon="10.50897">
        <ele>1571.917</ele>
        <time>2018-09-15T09:12:45Z</time>
      </trkpt>
      <trkpt lat="46.24005" lon="10.50908">
        <ele>1572.725</ele>
        <time>2018-09-15T09:13:05Z</time>
      </trkpt>
      <trkpt lat="46.23992" lon="10.50925">
        <ele>1574.862</ele>
        <time>2018-09-15T09:13:25Z</time>
      </trkpt>
      <trkpt lat="46.23979" lon="10.5095">
        <ele>1575.374</ele>
        <time>2018-09-15T09:13:45Z</time>
      </trkpt>
      <trkpt lat="46.23978" lon="10.50952">
        <ele>1575.356</ele>
        <time>2018-09-15T09:14:05Z</time>
      </trkpt>
      <trkpt lat="46.23965" lon="10.50977">
        <ele>1576.121</ele>
        <time>2018-09-15T09:14:25Z</time>
      </trkpt>
      <trkpt lat="46.23946" lon="10.51009">
        <ele>1577.108</ele>
        <time>2018-09-15T09:14:45Z</time>
      </trkpt>
      <trkpt lat="46.23939" lon="10.51019">
        <ele>1577.089</ele>
        <time>2018-09-15T09:15:05Z</time>
      </trkpt>
      <trkpt lat="46.23938" lon="10.51021">
        <ele>1576.835</ele>
        <time>2018-09-15T09:15:25Z</time>
      </trkpt>
      <trkpt lat="46.23933" lon="10.51027">
        <ele>1577.182</ele>
        <time>2018-09-15T09:15:45Z</time>
      </trkpt>
      <trkpt lat="46.23921" lon="10.5104">
        <ele>1578.075</ele>
        <time>2018-09-15T09:16:05Z</time>
      </trkpt>
      <trkpt lat="46.23918" lon="10.51042">
        <ele>1578.128</ele>
        <time>2018-09-15T09:16:25Z</time>
      </trkpt>
      <trkpt lat="46.2391" lon="10.51045">
        <ele>1579.361</ele>
        <time>2018-09-15T09:16:45Z</time>
      </trkpt>
      <trkpt lat="46.23894" lon="10.51056">
        <ele>1580.929</ele>
        <time>2018-09-15T09:17:05Z</time>
      </trkpt>
      <trkpt lat="46.23879" lon="10.51065">
        <ele>1582.566</ele>
        <time>2018-09-15T09:17:25Z</time>
      </trkpt>
      <trkpt lat="46.23868" lon="10.51081">
        <ele>1581.923</ele>
        <time>2018-09-15T09:17:45Z</time>
      </trkpt>
      <trkpt lat="46.23854" lon="10.51105">
        <ele>1581.483</ele>
        <time>2018-09-15T09:18:05Z</time>
      </trkpt>
      <trkpt lat="46.23844" lon="10.51116">
        <ele>1582.711</ele>
        <time>2018-09-15T09:18:25Z</time>
      </trkpt>
      <trkpt lat="46.23835" lon="10.51122">
        <ele>1585.008</ele>
        <time>2018-09-15T09:18:45Z</time>
      </trkpt>
      <trkpt lat="46.23826" lon="10.51161">
        <ele>1581.494</ele>
        <time>2018-09-15T09:19:05Z</time>
      </trkpt>
      <trkpt lat="46.23824" lon="10.51191">
        <ele>1578.16</ele>
        <time>2018-09-15T09:19:25Z</time>
      </trkpt>
      <trkpt lat="46.23827" lon="10.51203">
        <ele>1578.647</ele>
        <time>2018-09-15T09:19:45Z</time>
      </trkpt>
      <trkpt lat="46.23832" lon="10.51218">
        <ele>1580.46</ele>
        <time>2018-09-15T09:20:05Z</time>
      </trkpt>
      <trkpt lat="46.23842" lon="10.5123">
        <ele>1581.143</ele>
        <time>2018-09-15T09:20:25Z</time>
      </trkpt>
      <trkpt lat="46.23857" lon="10.51235">
        <ele>1580.116</ele>
        <time>2018-09-15T09:20:45Z</time>
      </trkpt>
      <trkpt lat="46.23869" lon="10.51233">
        <ele>1581.174</ele>
        <time>2018-09-15T09:21:05Z</time>
      </trkpt>
      <trkpt lat="46.23884" lon="10.51233">
        <ele>1584.321</ele>
        <time>2018-09-15T09:21:25Z</time>
      </trkpt>
      <trkpt lat="46.23896" lon="10.51233">
        <ele>1587.578</ele>
        <time>2018-09-15T09:21:45Z</time>
      </trkpt>
      <trkpt lat="46.23907" lon="10.51235">
        <ele>1590.633</ele>
        <time>2018-09-15T09:22:05Z</time>
      </trkpt>
      <trkpt lat="46.23921" lon="10.51228">
        <ele>1591.326</ele>
        <time>2018-09-15T09:22:25Z</time>
      </trkpt>
      <trkpt lat="46.23943" lon="10.51216">
        <ele>1591.108</ele>
        <time>2018-09-15T09:22:45Z</time>
      </trkpt>
      <trkpt lat="46.23952" lon="10.51207">
        <ele>1589.759</ele>
        <time>2018-09-15T09:23:05Z</time>
      </trkpt>
      <trkpt lat="46.23968" lon="10.51194">
        <ele>1588.325</ele>
        <time>2018-09-15T09:23:25Z</time>
      </trkpt>
      <trkpt lat="46.23985" lon="10.51189">
        <ele>1588.232</ele>
        <time>2018-09-15T09:23:45Z</time>
      </trkpt>
      <trkpt lat="46.23999" lon="10.51181">
        <ele>1587.085</ele>
        <time>2018-09-15T09:24:05Z</time>
      </trkpt>
      <trkpt lat="46.24024" lon="10.51168">
        <ele>1585.298</ele>
        <time>2018-09-15T09:24:25Z</time>
      </trkpt>
      <trkpt lat="46.2404" lon="10.51161">
        <ele>1584.151</ele>
        <time>2018-09-15T09:24:45Z</time>
      </trkpt>
      <trkpt lat="46.24055" lon="10.51152">
        <ele>1582.729</ele>
        <time>2018-09-15T09:25:05Z</time>
      </trkpt>
      <trkpt lat="46.24068" lon="10.51148">
        <ele>1582.776</ele>
        <time>2018-09-15T09:25:25Z</time>
      </trkpt>
      <trkpt lat="46.24086" lon="10.51144">
        <ele>1582.745</ele>
        <time>2018-09-15T09:25:45Z</time>
      </trkpt>
      <trkpt lat="46.24099" lon="10.51148">
        <ele>1584.347</ele>
        <time>2018-09-15T09:26:05Z</time>
      </trkpt>
      <trkpt lat="46.24111" lon="10.51152">
        <ele>1586.111</ele>
        <time>2018-09-15T09:26:25Z</time>
      </trkpt>
      <trkpt lat="46.24096" lon="10.51164">
        <ele>1589.008</ele>
        <time>2018-09-15T09:26:45Z</time>
      </trkpt>
      <trkpt lat="46.24081" lon="10.51172">
        <ele>1590.096</ele>
        <time>2018-09-15T09:27:05Z</time>
      </trkpt>
      <trkpt lat="46.2407" lon="10.51178">
        <ele>1590.242</ele>
        <time>2018-09-15T09:27:25Z</time>
      </trkpt>
      <trkpt lat="46.24051" lon="10.51185">
        <ele>1590.219</ele>
        <time>2018-09-15T09:27:45Z</time>
      </trkpt>
      <trkpt lat="46.24032" lon="10.51191">
        <ele>1590.592</ele>
        <time>2018-09-15T09:28:05Z</time>
      </trkpt>
      <trkpt lat="46.2403" lon="10.51194">
        <ele>1591.065</ele>
        <time>2018-09-15T09:28:25Z</time>
      </trkpt>
      <trkpt lat="46.24026" lon="10.51201">
        <ele>1592.258</ele>
        <time>2018-09-15T09:28:45Z</time>
      </trkpt>
      <trkpt lat="46.24026" lon="10.512">
        <ele>1592.066</ele>
        <time>2018-09-15T09:29:05Z</time>
      </trkpt>
      <trkpt lat="46.24026" lon="10.51199">
        <ele>1591.973</ele>
        <time>2018-09-15T09:29:25Z</time>
      </trkpt>
      <trkpt lat="46.24025" lon="10.512">
        <ele>1592.034</ele>
        <time>2018-09-15T09:29:45Z</time>
      </trkpt>
      <trkpt lat="46.24011" lon="10.51214">
        <ele>1594.655</ele>
        <time>2018-09-15T09:30:05Z</time>
      </trkpt>
      <trkpt lat="46.24002" lon="10.51216">
        <ele>1594.61</ele>
        <time>2018-09-15T09:30:25Z</time>
      </trkpt>
      <trkpt lat="46.24001" lon="10.51216">
        <ele>1594.608</ele>
        <time>2018-09-15T09:30:45Z</time>
      </trkpt>
      <trkpt lat="46.23984" lon="10.51231">
        <ele>1598.055</ele>
        <time>2018-09-15T09:31:05Z</time>
      </trkpt>
      <trkpt lat="46.23982" lon="10.51233">
        <ele>1598.721</ele>
        <time>2018-09-15T09:31:25Z</time>
      </trkpt>
      <trkpt lat="46.23972" lon="10.51237">
        <ele>1599.398</ele>
        <time>2018-09-15T09:31:45Z</time>
      </trkpt>
      <trkpt lat="46.23969" lon="10.51242">
        <ele>1600.491</ele>
        <time>2018-09-15T09:32:05Z</time>
      </trkpt>
      <trkpt lat="46.23956" lon="10.51263">
        <ele>1607.764</ele>
        <time>2018-09-15T09:32:25Z</time>
      </trkpt>
      <trkpt lat="46.23954" lon="10.51266">
        <ele>1609.027</ele>
        <time>2018-09-15T09:32:45Z</time>
      </trkpt>
      <trkpt lat="46.23945" lon="10.51281">
        <ele>1614.935</ele>
        <time>2018-09-15T09:33:05Z</time>
      </trkpt>
      <trkpt lat="46.23964" lon="10.51273">
        <ele>1613.862</ele>
        <time>2018-09-15T09:33:25Z</time>
      </trkpt>
      <trkpt lat="46.23964" lon="10.51273">
        <ele>1613.852</ele>
        <time>2018-09-15T09:33:45Z</time>
      </trkpt>
      <trkpt lat="46.23984" lon="10.5126">
        <ele>1609.753</ele>
        <time>2018-09-15T09:34:05Z</time>
      </trkpt>
      <trkpt lat="46.23986" lon="10.5126">
        <ele>1609.608</ele>
        <time>2018-09-15T09:34:25Z</time>
      </trkpt>
      <trkpt lat="46.24001" lon="10.51265">
        <ele>1614.408</ele>
        <time>2018-09-15T09:34:45Z</time>
      </trkpt>
      <trkpt lat="46.24005" lon="10.51265">
        <ele>1615.087</ele>
        <time>2018-09-15T09:35:05Z</time>
      </trkpt>
      <trkpt lat="46.24012" lon="10.51263">
        <ele>1615.133</ele>
        <time>2018-09-15T09:35:25Z</time>
      </trkpt>
      <trkpt lat="46.24027" lon="10.51256">
        <ele>1613.95</ele>
        <time>2018-09-15T09:35:45Z</time>
      </trkpt>
      <trkpt lat="46.24037" lon="10.51255">
        <ele>1616.573</ele>
        <time>2018-09-15T09:36:05Z</time>
      </trkpt>
      <trkpt lat="46.24048" lon="10.51252">
        <ele>1618.656</ele>
        <time>2018-09-15T09:36:25Z</time>
      </trkpt>
      <trkpt lat="46.24057" lon="10.51248">
        <ele>1618.739</ele>
        <time>2018-09-15T09:36:45Z</time>
      </trkpt>
      <trkpt lat="46.24068" lon="10.51241">
        <ele>1617.187</ele>
        <time>2018-09-15T09:37:05Z</time>
      </trkpt>
      <trkpt lat="46.24075" lon="10.51239">
        <ele>1618.364</ele>
        <time>2018-09-15T09:37:25Z</time>
      </trkpt>
      <trkpt lat="46.2408" lon="10.5124">
        <ele>1620.598</ele>
        <time>2018-09-15T09:37:45Z</time>
      </trkpt>
      <trkpt lat="46.24122" lon="10.51251">
        <ele>1634.515</ele>
        <time>2018-09-15T09:38:05Z</time>
      </trkpt>
      <trkpt lat="46.24128" lon="10.51254">
        <ele>1635.226</ele>
        <time>2018-09-15T09:38:25Z</time>
      </trkpt>
      <trkpt lat="46.24138" lon="10.51258">
        <ele>1635.908</ele>
        <time>2018-09-15T09:38:45Z</time>
      </trkpt>
      <trkpt lat="46.24166" lon="10.51274">
        <ele>1638.381</ele>
        <time>2018-09-15T09:39:05Z</time>
      </trkpt>
      <trkpt lat="46.24182" lon="10.51286">
        <ele>1645.477</ele>
        <time>2018-09-15T09:39:25Z</time>
      </trkpt>
      <trkpt lat="46.24199" lon="10.51298">
        <ele>1653.614</ele>
        <time>2018-09-15T09:39:45Z</time>
      </trkpt>
      <trkpt lat="46.24203" lon="10.51299">
        <ele>1654.667</ele>
        <time>2018-09-15T09:40:05Z</time>
      </trkpt>
      <trkpt lat="46.24209" lon="10.51299">
        <ele>1654.86</ele>
        <time>2018-09-15T09:40:25Z</time>
      </trkpt>
      <trkpt lat="46.24224" lon="10.51293">
        <ele>1652.573</ele>
        <time>2018-09-15T09:40:45Z</time>
      </trkpt>
      <trkpt lat="46.24251" lon="10.51297">
        <ele>1655.121</ele>
        <time>2018-09-15T09:41:05Z</time>
      </trkpt>
      <trkpt lat="46.24268" lon="10.51303">
        <ele>1657.758</ele>
        <time>2018-09-15T09:41:25Z</time>
      </trkpt>
      <trkpt lat="46.24272" lon="10.51305">
        <ele>1658.884</ele>
        <time>2018-09-15T09:41:45Z</time>
      </trkpt>
      <trkpt lat="46.24279" lon="10.51314">
        <ele>1662.107</ele>
        <time>2018-09-15T09:42:05Z</time>
      </trkpt>
      <trkpt lat="46.24289" lon="10.51325">
        <ele>1667.817</ele>
        <time>2018-09-15T09:42:25Z</time>
      </trkpt>
      <trkpt lat="46.24292" lon="10.51326">
        <ele>1668.608</ele>
        <time>2018-09-15T09:42:45Z</time>
      </trkpt>
      <trkpt lat="46.24315" lon="10.51332">
        <ele>1674.93</ele>
        <time>2018-09-15T09:43:05Z</time>
      </trkpt>
      <trkpt lat="46.2433" lon="10.51336">
        <ele>1679.216</ele>
        <time>2018-09-15T09:43:25Z</time>
      </trkpt>
      <trkpt lat="46.24336" lon="10.51337">
        <ele>1680.353</ele>
        <time>2018-09-15T09:43:45Z</time>
      </trkpt>
      <trkpt lat="46.24349" lon="10.51337">
        <ele>1681.336</ele>
        <time>2018-09-15T09:44:05Z</time>
      </trkpt>
      <trkpt lat="46.24365" lon="10.51335">
        <ele>1681.539</ele>
        <time>2018-09-15T09:44:25Z</time>
      </trkpt>
      <trkpt lat="46.24373" lon="10.51334">
        <ele>1681.372</ele>
        <time>2018-09-15T09:44:45Z</time>
      </trkpt>
      <trkpt lat="46.24376" lon="10.51335">
        <ele>1681.76</ele>
        <time>2018-09-15T09:45:05Z</time>
      </trkpt>
      <trkpt lat="46.24388" lon="10.51344">
        <ele>1685.767</ele>
        <time>2018-09-15T09:45:25Z</time>
      </trkpt>
      <trkpt lat="46.24409" lon="10.51339">
        <ele>1685.391</ele>
        <time>2018-09-15T09:45:45Z</time>
      </trkpt>
      <trkpt lat="46.24426" lon="10.51336">
        <ele>1686.581</ele>
        <time>2018-09-15T09:46:05Z</time>
      </trkpt>
      <trkpt lat="46.2443" lon="10.51333">
        <ele>1686.419</ele>
        <time>2018-09-15T09:46:25Z</time>
      </trkpt>
      <trkpt lat="46.24435" lon="10.5133">
        <ele>1685.808</ele>
        <time>2018-09-15T09:46:45Z</time>
      </trkpt>
      <trkpt lat="46.24452" lon="10.51313">
        <ele>1682.611</ele>
        <time>2018-09-15T09:47:05Z</time>
      </trkpt>
      <trkpt lat="46.24458" lon="10.51309">
        <ele>1682.247</ele>
        <time>2018-09-15T09:47:25Z</time>
      </trkpt>
      <trkpt lat="46.24467" lon="10.5131">
        <ele>1683.824</ele>
        <time>2018-09-15T09:47:45Z</time>
      </trkpt>
      <trkpt lat="46.24488" lon="10.51315">
        <ele>1685.857</ele>
        <time>2018-09-15T09:48:05Z</time>
      </trkpt>
      <trkpt lat="46.24502" lon="10.51323">
        <ele>1688.22</ele>
        <time>2018-09-15T09:48:25Z</time>
      </trkpt>
      <trkpt lat="46.24538" lon="10.5134">
        <ele>1693.273</ele>
        <time>2018-09-15T09:48:45Z</time>
      </trkpt>
      <trkpt lat="46.24551" lon="10.51346">
        <ele>1695.251</ele>
        <time>2018-09-15T09:49:05Z</time>
      </trkpt>
      <trkpt lat="46.24563" lon="10.51355">
        <ele>1698.938</ele>
        <time>2018-09-15T09:49:25Z</time>
      </trkpt>
      <trkpt lat="46.24581" lon="10.5137">
        <ele>1704.544</ele>
        <time>2018-09-15T09:49:45Z</time>
      </trkpt>
      <trkpt lat="46.24588" lon="10.51376">
        <ele>1706.205</ele>
        <time>2018-09-15T09:50:05Z</time>
      </trkpt>
      <trkpt lat="46.24596" lon="10.51381">
        <ele>1707.115</ele>
        <time>2018-09-15T09:50:25Z</time>
      </trkpt>
      <trkpt lat="46.24609" lon="10.51386">
        <ele>1707.408</ele>
        <time>2018-09-15T09:50:45Z</time>
      </trkpt>
      <trkpt lat="46.2462" lon="10.51389">
        <ele>1707.896</ele>
        <time>2018-09-15T09:51:05Z</time>
      </trkpt>
      <trkpt lat="46.24631" lon="10.51389">
        <ele>1708.142</ele>
        <time>2018-09-15T09:51:25Z</time>
      </trkpt>
      <trkpt lat="46.24634" lon="10.5139">
        <ele>1708.299</ele>
        <time>2018-09-15T09:51:45Z</time>
      </trkpt>
      <trkpt lat="46.24646" lon="10.51394">
        <ele>1709.572</ele>
        <time>2018-09-15T09:52:05Z</time>
      </trkpt>
      <trkpt lat="46.24661" lon="10.51409">
        <ele>1714.365</ele>
        <time>2018-09-15T09:52:25Z</time>
      </trkpt>
      <trkpt lat="46.24667" lon="10.51423">
        <ele>1718.848</ele>
        <time>2018-09-15T09:52:45Z</time>
      </trkpt>
      <trkpt lat="46.24665" lon="10.51452">
        <ele>1725.066</ele>
        <time>2018-09-15T09:53:05Z</time>
      </trkpt>
      <trkpt lat="46.24652" lon="10.51458">
        <ele>1725.033</ele>
        <time>2018-09-15T09:53:25Z</time>
      </trkpt>
      <trkpt lat="46.24618" lon="10.51478">
        <ele>1730.657</ele>
        <time>2018-09-15T09:53:45Z</time>
      </trkpt>
      <trkpt lat="46.24595" lon="10.51477">
        <ele>1743.2</ele>
        <time>2018-09-15T09:54:05Z</time>
      </trkpt>
      <trkpt lat="46.24566" lon="10.5148">
        <ele>1757.92</ele>
        <time>2018-09-15T09:54:25Z</time>
      </trkpt>
      <trkpt lat="46.24529" lon="10.51485">
        <ele>1768.408</ele>
        <time>2018-09-15T09:54:45Z</time>
      </trkpt>
      <trkpt lat="46.24483" lon="10.51505">
        <ele>1770.787</ele>
        <time>2018-09-15T09:55:05Z</time>
      </trkpt>
      <trkpt lat="46.24473" lon="10.51515">
        <ele>1774.393</ele>
        <time>2018-09-15T09:55:25Z</time>
      </trkpt>
      <trkpt lat="46.24463" lon="10.51537">
        <ele>1781.51</ele>
        <time>2018-09-15T09:55:45Z</time>
      </trkpt>
      <trkpt lat="46.24452" lon="10.51551">
        <ele>1786.673</ele>
        <time>2018-09-15T09:56:05Z</time>
      </trkpt>
      <trkpt lat="46.24446" lon="10.51566">
        <ele>1792.756</ele>
        <time>2018-09-15T09:56:25Z</time>
      </trkpt>
      <trkpt lat="46.24453" lon="10.51578">
        <ele>1798.329</ele>
        <time>2018-09-15T09:56:45Z</time>
      </trkpt>
      <trkpt lat="46.24465" lon="10.51574">
        <ele>1796.747</ele>
        <time>2018-09-15T09:57:05Z</time>
      </trkpt>
      <trkpt lat="46.24475" lon="10.51575">
        <ele>1796.894</ele>
        <time>2018-09-15T09:57:25Z</time>
      </trkpt>
      <trkpt lat="46.24486" lon="10.51593">
        <ele>1800.376</ele>
        <time>2018-09-15T09:57:45Z</time>
      </trkpt>
      <trkpt lat="46.24459" lon="10.51621">
        <ele>1805.09</ele>
        <time>2018-09-15T09:58:05Z</time>
      </trkpt>
      <trkpt lat="46.24422" lon="10.51672">
        <ele>1825.119</ele>
        <time>2018-09-15T09:58:25Z</time>
      </trkpt>
      <trkpt lat="46.24373" lon="10.51708">
        <ele>1840.008</ele>
        <time>2018-09-15T09:58:45Z</time>
      </trkpt>
      <trkpt lat="46.24336" lon="10.51725">
        <ele>1855.319</ele>
        <time>2018-09-15T09:59:05Z</time>
      </trkpt>
      <trkpt lat="46.24287" lon="10.51757">
        <ele>1876.925</ele>
        <time>2018-09-15T09:59:25Z</time>
      </trkpt>
      <trkpt lat="46.24259" lon="10.51779">
        <ele>1893.642</ele>
        <time>2018-09-15T09:59:45Z</time>
      </trkpt>
      <trkpt lat="46.24207" lon="10.51835">
        <ele>1903.325</ele>
        <time>2018-09-15T10:00:05Z</time>
      </trkpt>
      <trkpt lat="46.24191" lon="10.51853">
        <ele>1909.678</ele>
        <time>2018-09-15T10:00:25Z</time>
      </trkpt>
      <trkpt lat="46.24156" lon="10.51893">
        <ele>1925.831</ele>
        <time>2018-09-15T10:00:45Z</time>
      </trkpt>
      <trkpt lat="46.24138" lon="10.51918">
        <ele>1929.249</ele>
        <time>2018-09-15T10:01:05Z</time>
      </trkpt>
      <trkpt lat="46.24132" lon="10.51925">
        <ele>1930.736</ele>
        <time>2018-09-15T10:01:25Z</time>
      </trkpt>
      <trkpt lat="46.24113" lon="10.51942">
        <ele>1936.388</ele>
        <time>2018-09-15T10:01:45Z</time>
      </trkpt>
      <trkpt lat="46.24099" lon="10.51952">
        <ele>1941.524</ele>
        <time>2018-09-15T10:02:05Z</time>
      </trkpt>
      <trkpt lat="46.2407" lon="10.5195">
        <ele>1947.626</ele>
        <time>2018-09-15T10:02:25Z</time>
      </trkpt>
      <trkpt lat="46.2405" lon="10.51938">
        <ele>1947.608</ele>
        <time>2018-09-15T10:02:45Z</time>
      </trkpt>
      <trkpt lat="46.24035" lon="10.51924">
        <ele>1942.01</ele>
        <time>2018-09-15T10:03:05Z</time>
      </trkpt>
      <trkpt lat="46.24005" lon="10.51923">
        <ele>1942.596</ele>
        <time>2018-09-15T10:03:25Z</time>
      </trkpt>
      <trkpt lat="46.23971" lon="10.51937">
        <ele>1950.983</ele>
        <time>2018-09-15T10:03:45Z</time>
      </trkpt>
      <trkpt lat="46.23945" lon="10.51952">
        <ele>1958.926</ele>
        <time>2018-09-15T10:04:05Z</time>
      </trkpt>
      <trkpt lat="46.23926" lon="10.51957">
        <ele>1961.259</ele>
        <time>2018-09-15T10:04:25Z</time>
      </trkpt>
      <trkpt lat="46.23916" lon="10.51959">
        <ele>1962.142</ele>
        <time>2018-09-15T10:04:45Z</time>
      </trkpt>
      <trkpt lat="46.23905" lon="10.51967">
        <ele>1964.18</ele>
        <time>2018-09-15T10:05:05Z</time>
      </trkpt>
      <trkpt lat="46.23897" lon="10.51972">
        <ele>1965.157</ele>
        <time>2018-09-15T10:05:25Z</time>
      </trkpt>
      <trkpt lat="46.2389" lon="10.51986">
        <ele>1969.587</ele>
        <time>2018-09-15T10:05:45Z</time>
      </trkpt>
      <trkpt lat="46.23882" lon="10.52009">
        <ele>1978.342</ele>
        <time>2018-09-15T10:06:05Z</time>
      </trkpt>
      <trkpt lat="46.23876" lon="10.52021">
        <ele>1983.126</ele>
        <time>2018-09-15T10:06:25Z</time>
      </trkpt>
      <trkpt lat="46.23874" lon="10.52026">
        <ele>1984.908</ele>
        <time>2018-09-15T10:06:45Z</time>
      </trkpt>
      <trkpt lat="46.23866" lon="10.52025">
        <ele>1983.45</ele>
        <time>2018-09-15T10:07:05Z</time>
      </trkpt>
      <trkpt lat="46.23858" lon="10.52021">
        <ele>1981.276</ele>
        <time>2018-09-15T10:07:25Z</time>
      </trkpt>
      <trkpt lat="46.2384" lon="10.52008">
        <ele>1977.643</ele>
        <time>2018-09-15T10:07:45Z</time>
      </trkpt>
      <trkpt lat="46.23834" lon="10.52006">
        <ele>1978.066</ele>
        <time>2018-09-15T10:08:05Z</time>
      </trkpt>
      <trkpt lat="46.23818" lon="10.52006">
        <ele>1979.229</ele>
        <time>2018-09-15T10:08:25Z</time>
      </trkpt>
      <trkpt lat="46.2381" lon="10.52001">
        <ele>1978.722</ele>
        <time>2018-09-15T10:08:45Z</time>
      </trkpt>
      <trkpt lat="46.238" lon="10.51988">
        <ele>1974.68</ele>
        <time>2018-09-15T10:09:05Z</time>
      </trkpt>
      <trkpt lat="46.23756" lon="10.51987">
        <ele>1979.467</ele>
        <time>2018-09-15T10:09:25Z</time>
      </trkpt>
      <trkpt lat="46.23748" lon="10.51996">
        <ele>1982.119</ele>
        <time>2018-09-15T10:09:45Z</time>
      </trkpt>
      <trkpt lat="46.23741" lon="10.51997">
        <ele>1983.009</ele>
        <time>2018-09-15T10:10:05Z</time>
      </trkpt>
      <trkpt lat="46.2374" lon="10.51997">
        <ele>1983.019</ele>
        <time>2018-09-15T10:10:25Z</time>
      </trkpt>
      <trkpt lat="46.23724" lon="10.5199">
        <ele>1982.408</ele>
        <time>2018-09-15T10:10:45Z</time>
      </trkpt>
      <trkpt lat="46.23707" lon="10.51973">
        <ele>1978.193</ele>
        <time>2018-09-15T10:11:05Z</time>
      </trkpt>
      <trkpt lat="46.23693" lon="10.51966">
        <ele>1975.259</ele>
        <time>2018-09-15T10:11:25Z</time>
      </trkpt>
      <trkpt lat="46.23689" lon="10.51969">
        <ele>1975.176</ele>
        <time>2018-09-15T10:11:45Z</time>
      </trkpt>
      <trkpt lat="46.23683" lon="10.51976">
        <ele>1976.369</ele>
        <time>2018-09-15T10:12:05Z</time>
      </trkpt>
      <trkpt lat="46.23679" lon="10.51984">
        <ele>1978.562</ele>
        <time>2018-09-15T10:12:25Z</time>
      </trkpt>
      <trkpt lat="46.23679" lon="10.52004">
        <ele>1986.585</ele>
        <time>2018-09-15T10:12:45Z</time>
      </trkpt>
      <trkpt lat="46.23672" lon="10.52017">
        <ele>1991.783</ele>
        <time>2018-09-15T10:13:05Z</time>
      </trkpt>
      <trkpt lat="46.23659" lon="10.52015">
        <ele>1985.27</ele>
        <time>2018-09-15T10:13:25Z</time>
      </trkpt>
      <trkpt lat="46.23654" lon="10.52021">
        <ele>1985.716</ele>
        <time>2018-09-15T10:13:45Z</time>
      </trkpt>
      <trkpt lat="46.23652" lon="10.52023">
        <ele>1985.276</ele>
        <time>2018-09-15T10:14:05Z</time>
      </trkpt>
      <trkpt lat="46.23647" lon="10.52024">
        <ele>1982.913</ele>
        <time>2018-09-15T10:14:25Z</time>
      </trkpt>
      <trkpt lat="46.23625" lon="10.52029">
        <ele>1980.008</ele>
        <time>2018-09-15T10:14:45Z</time>
      </trkpt>
      <trkpt lat="46.23592" lon="10.5207">
        <ele>1986.493</ele>
        <time>2018-09-15T10:15:05Z</time>
      </trkpt>
      <trkpt lat="46.2359" lon="10.52078">
        <ele>1987.559</ele>
        <time>2018-09-15T10:15:25Z</time>
      </trkpt>
      <trkpt lat="46.23588" lon="10.52088">
        <ele>1989.516</ele>
        <time>2018-09-15T10:15:45Z</time>
      </trkpt>
      <trkpt lat="46.23584" lon="10.52097">
        <ele>1989.819</ele>
        <time>2018-09-15T10:16:05Z</time>
      </trkpt>
      <trkpt lat="46.23562" lon="10.52111">
        <ele>1990.732</ele>
        <time>2018-09-15T10:16:25Z</time>
      </trkpt>
      <trkpt lat="46.23551" lon="10.52109">
        <ele>1989.965</ele>
        <time>2018-09-15T10:16:45Z</time>
      </trkpt>
      <trkpt lat="46.23546" lon="10.52107">
        <ele>1989.983</ele>
        <time>2018-09-15T10:17:05Z</time>
      </trkpt>
      <trkpt lat="46.2352" lon="10.52098">
        <ele>1987.47</ele>
        <time>2018-09-15T10:17:25Z</time>
      </trkpt>
      <trkpt lat="46.23515" lon="10.52096">
        <ele>1986.322</ele>
        <time>2018-09-15T10:17:45Z</time>
      </trkpt>
      <trkpt lat="46.23511" lon="10.52097">
        <ele>1986.562</ele>
        <time>2018-09-15T10:18:05Z</time>
      </trkpt>
      <trkpt lat="46.23486" lon="10.521">
        <ele>1994.508</ele>
        <time>2018-09-15T10:18:25Z</time>
      </trkpt>
      <trkpt lat="46.2348" lon="10.52102">
        <ele>1998.208</ele>
        <time>2018-09-15T10:18:45Z</time>
      </trkpt>
      <trkpt lat="46.23468" lon="10.52096">
        <ele>1998.334</ele>
        <time>2018-09-15T10:19:05Z</time>
      </trkpt>
      <trkpt lat="46.23461" lon="10.52091">
        <ele>1997.73</ele>
        <time>2018-09-15T10:19:25Z</time>
      </trkpt>
      <trkpt lat="46.23451" lon="10.52082">
        <ele>1995.557</ele>
        <time>2018-09-15T10:19:45Z</time>
      </trkpt>
      <trkpt lat="46.23437" lon="10.52066">
        <ele>1979.59</ele>
        <time>2018-09-15T10:20:05Z</time>
      </trkpt>
      <trkpt lat="46.23437" lon="10.52069">
        <ele>1982.763</ele>
        <time>2018-09-15T10:20:25Z</time>
      </trkpt>
      <trkpt lat="46.23424" lon="10.52079">
        <ele>1989.336</ele>
        <time>2018-09-15T10:20:45Z</time>
      </trkpt>
      <trkpt lat="46.23416" lon="10.52084">
        <ele>1990.434</ele>
        <time>2018-09-15T10:21:05Z</time>
      </trkpt>
      <trkpt lat="46.2341" lon="10.52086">
        <ele>1987.321</ele>
        <time>2018-09-15T10:21:25Z</time>
      </trkpt>
      <trkpt lat="46.23396" lon="10.52089">
        <ele>1977.118</ele>
        <time>2018-09-15T10:21:45Z</time>
      </trkpt>
      <trkpt lat="46.23394" lon="10.52094">
        <ele>1978.898</ele>
        <time>2018-09-15T10:22:05Z</time>
      </trkpt>
      <trkpt lat="46.23389" lon="10.52103">
        <ele>1980.717</ele>
        <time>2018-09-15T10:22:25Z</time>
      </trkpt>
      <trkpt lat="46.23385" lon="10.52107">
        <ele>1980.708</ele>
        <time>2018-09-15T10:22:45Z</time>
      </trkpt>
      <trkpt lat="46.2337" lon="10.52118">
        <ele>1973.383</ele>
        <time>2018-09-15T10:23:05Z</time>
      </trkpt>
      <trkpt lat="46.23369" lon="10.52121">
        <ele>1973.239</ele>
        <time>2018-09-15T10:23:25Z</time>
      </trkpt>
      <trkpt lat="46.23367" lon="10.52129">
        <ele>1974.466</ele>
        <time>2018-09-15T10:23:45Z</time>
      </trkpt>
      <trkpt lat="46.23366" lon="10.52152">
        <ele>1983.179</ele>
        <time>2018-09-15T10:24:05Z</time>
      </trkpt>
      <trkpt lat="46.23364" lon="10.5218">
        <ele>1993.782</ele>
        <time>2018-09-15T10:24:25Z</time>
      </trkpt>
      <trkpt lat="46.23363" lon="10.52186">
        <ele>1994.945</ele>
        <time>2018-09-15T10:24:45Z</time>
      </trkpt>
      <trkpt lat="46.23355" lon="10.522">
        <ele>1999.133</ele>
        <time>2018-09-15T10:25:05Z</time>
      </trkpt>
      <trkpt lat="46.23353" lon="10.52202">
        <ele>2000.62</ele>
        <time>2018-09-15T10:25:25Z</time>
      </trkpt>
      <trkpt lat="46.23343" lon="10.52208">
        <ele>2004.247</ele>
        <time>2018-09-15T10:25:45Z</time>
      </trkpt>
      <trkpt lat="46.23339" lon="10.52208">
        <ele>2004.029</ele>
        <time>2018-09-15T10:26:05Z</time>
      </trkpt>
      <trkpt lat="46.2332" lon="10.52201">
        <ele>2001.121</ele>
        <time>2018-09-15T10:26:25Z</time>
      </trkpt>
      <trkpt lat="46.23315" lon="10.52196">
        <ele>1998.408</ele>
        <time>2018-09-15T10:26:45Z</time>
      </trkpt>
      <trkpt lat="46.23299" lon="10.52182">
        <ele>1990.246</ele>
        <time>2018-09-15T10:27:05Z</time>
      </trkpt>
      <trkpt lat="46.23295" lon="10.52181">
        <ele>1990.662</ele>
        <time>2018-09-15T10:27:25Z</time>
      </trkpt>
      <trkpt lat="46.23281" lon="10.52183">
        <ele>1995.959</ele>
        <time>2018-09-15T10:27:45Z</time>
      </trkpt>
      <trkpt lat="46.23257" lon="10.52155">
        <ele>1985.642</ele>
        <time>2018-09-15T10:28:05Z</time>
      </trkpt>
      <trkpt lat="46.23241" lon="10.52134">
        <ele>1982.115</ele>
        <time>2018-09-15T10:28:25Z</time>
      </trkpt>
      <trkpt lat="46.23238" lon="10.52131">
        <ele>1981.648</ele>
        <time>2018-09-15T10:28:45Z</time>
      </trkpt>
      <trkpt lat="46.23206" lon="10.52109">
        <ele>1979.796</ele>
        <time>2018-09-15T10:29:05Z</time>
      </trkpt>
      <trkpt lat="46.23194" lon="10.52101">
        <ele>1976.893</ele>
        <time>2018-09-15T10:29:25Z</time>
      </trkpt>
      <trkpt lat="46.23191" lon="10.52101">
        <ele>1977.197</ele>
        <time>2018-09-15T10:29:45Z</time>
      </trkpt>
      <trkpt lat="46.23184" lon="10.52102">
        <ele>1978.023</ele>
        <time>2018-09-15T10:30:05Z</time>
      </trkpt>
      <trkpt lat="46.23171" lon="10.5211">
        <ele>1983.825</ele>
        <time>2018-09-15T10:30:25Z</time>
      </trkpt>
      <trkpt lat="46.23163" lon="10.52115">
        <ele>1988.008</ele>
        <time>2018-09-15T10:30:45Z</time>
      </trkpt>
      <trkpt lat="46.23156" lon="10.52117">
        <ele>1990.361</ele>
        <time>2018-09-15T10:31:05Z</time>
      </trkpt>
      <trkpt lat="46.23144" lon="10.52118">
        <ele>1992.327</ele>
        <time>2018-09-15T10:31:25Z</time>
      </trkpt>
      <trkpt lat="46.23139" lon="10.52117">
        <ele>1991.914</ele>
        <time>2018-09-15T10:31:45Z</time>
      </trkpt>
      <trkpt lat="46.23125" lon="10.52112">
        <ele>1988.967</ele>
        <time>2018-09-15T10:32:05Z</time>
      </trkpt>
      <trkpt lat="46.23114" lon="10.5211">
        <ele>1988.16</ele>
        <time>2018-09-15T10:32:25Z</time>
      </trkpt>
      <trkpt lat="46.23104" lon="10.5211">
        <ele>1986.463</ele>
        <time>2018-09-15T10:32:45Z</time>
      </trkpt>
      <trkpt lat="46.23096" lon="10.52113">
        <ele>1986.161</ele>
        <time>2018-09-15T10:33:05Z</time>
      </trkpt>
      <trkpt lat="46.23087" lon="10.52112">
        <ele>1983.838</ele>
        <time>2018-09-15T10:33:25Z</time>
      </trkpt>
      <trkpt lat="46.23087" lon="10.52113">
        <ele>1983.992</ele>
        <time>2018-09-15T10:33:45Z</time>
      </trkpt>
      <trkpt lat="46.23075" lon="10.52118">
        <ele>1981.773</ele>
        <time>2018-09-15T10:34:05Z</time>
      </trkpt>
      <trkpt lat="46.23072" lon="10.52125">
        <ele>1984.02</ele>
        <time>2018-09-15T10:34:25Z</time>
      </trkpt>
      <trkpt lat="46.23068" lon="10.52132">
        <ele>1986.308</ele>
        <time>2018-09-15T10:34:45Z</time>
      </trkpt>
      <trkpt lat="46.23067" lon="10.52142">
        <ele>1991.281</ele>
        <time>2018-09-15T10:35:05Z</time>
      </trkpt>
      <trkpt lat="46.23063" lon="10.52151">
        <ele>1995.547</ele>
        <time>2018-09-15T10:35:25Z</time>
      </trkpt>
      <trkpt lat="46.23061" lon="10.52156">
        <ele>1997.444</ele>
        <time>2018-09-15T10:35:45Z</time>
      </trkpt>
      <trkpt lat="46.23047" lon="10.52164">
        <ele>1995.327</ele>
        <time>2018-09-15T10:36:05Z</time>
      </trkpt>
      <trkpt lat="46.2304" lon="10.52166">
        <ele>1993.92</ele>
        <time>2018-09-15T10:36:25Z</time>
      </trkpt>
      <trkpt lat="46.23033" lon="10.52166">
        <ele>1991.863</ele>
        <time>2018-09-15T10:36:45Z</time>
      </trkpt>
      <trkpt lat="46.23027" lon="10.5217">
        <ele>1992.541</ele>
        <time>2018-09-15T10:37:05Z</time>
      </trkpt>
      <trkpt lat="46.23022" lon="10.52174">
        <ele>1995.888</ele>
        <time>2018-09-15T10:37:25Z</time>
      </trkpt>
      <trkpt lat="46.23015" lon="10.52172">
        <ele>1996.334</ele>
        <time>2018-09-15T10:37:45Z</time>
      </trkpt>
      <trkpt lat="46.23006" lon="10.52169">
        <ele>1996.155</ele>
        <time>2018-09-15T10:38:05Z</time>
      </trkpt>
      <trkpt lat="46.22988" lon="10.52163">
        <ele>1995.91</ele>
        <time>2018-09-15T10:38:25Z</time>
      </trkpt>
      <trkpt lat="46.22979" lon="10.5216">
        <ele>1995.508</ele>
        <time>2018-09-15T10:38:45Z</time>
      </trkpt>
      <trkpt lat="46.22972" lon="10.52164">
        <ele>1998.685</ele>
        <time>2018-09-15T10:39:05Z</time>
      </trkpt>
      <trkpt lat="46.22963" lon="10.52169">
        <ele>2004.081</ele>
        <time>2018-09-15T10:39:25Z</time>
      </trkpt>
      <trkpt lat="46.22943" lon="10.52168">
        <ele>2008.368</ele>
        <time>2018-09-15T10:39:45Z</time>
      </trkpt>
      <trkpt lat="46.22935" lon="10.52159">
        <ele>2005.851</ele>
        <time>2018-09-15T10:40:05Z</time>
      </trkpt>
      <trkpt lat="46.22928" lon="10.52149">
        <ele>2002.764</ele>
        <time>2018-09-15T10:40:25Z</time>
      </trkpt>
      <trkpt lat="46.22913" lon="10.52135">
        <ele>2001.287</ele>
        <time>2018-09-15T10:40:45Z</time>
      </trkpt>
      <trkpt lat="46.22898" lon="10.52125">
        <ele>2002.355</ele>
        <time>2018-09-15T10:41:05Z</time>
      </trkpt>
      <trkpt lat="46.2287" lon="10.52107">
        <ele>2008.942</ele>
        <time>2018-09-15T10:41:25Z</time>
      </trkpt>
      <trkpt lat="46.22856" lon="10.52095">
        <ele>2009.762</ele>
        <time>2018-09-15T10:41:45Z</time>
      </trkpt>
      <trkpt lat="46.22837" lon="10.52077">
        <ele>2009.983</ele>
        <time>2018-09-15T10:42:05Z</time>
      </trkpt>
      <trkpt lat="46.22829" lon="10.52076">
        <ele>2012.711</ele>
        <time>2018-09-15T10:42:25Z</time>
      </trkpt>
      <trkpt lat="46.22821" lon="10.52072">
        <ele>2013.208</ele>
        <time>2018-09-15T10:42:45Z</time>
      </trkpt>
      <trkpt lat="46.22809" lon="10.52058">
        <ele>2010.718</ele>
        <time>2018-09-15T10:43:05Z</time>
      </trkpt>
      <trkpt lat="46.22804" lon="10.52046">
        <ele>2008.154</ele>
        <time>2018-09-15T10:43:25Z</time>
      </trkpt>
      <trkpt lat="46.22797" lon="10.52032">
        <ele>2005.891</ele>
        <time>2018-09-15T10:43:45Z</time>
      </trkpt>
      <trkpt lat="46.22785" lon="10.52009">
        <ele>2002.734</ele>
        <time>2018-09-15T10:44:05Z</time>
      </trkpt>
      <trkpt lat="46.22777" lon="10.52">
        <ele>2003.157</ele>
        <time>2018-09-15T10:44:25Z</time>
      </trkpt>
      <trkpt lat="46.22771" lon="10.51998">
        <ele>2004.47</ele>
        <time>2018-09-15T10:44:45Z</time>
      </trkpt>
      <trkpt lat="46.2277" lon="10.51999">
        <ele>2004.998</ele>
        <time>2018-09-15T10:45:05Z</time>
      </trkpt>
      <trkpt lat="46.22763" lon="10.52001">
        <ele>2007.465</ele>
        <time>2018-09-15T10:45:25Z</time>
      </trkpt>
      <trkpt lat="46.22763" lon="10.52001">
        <ele>2007.599</ele>
        <time>2018-09-15T10:45:45Z</time>
      </trkpt>
      <trkpt lat="46.22758" lon="10.52005">
        <ele>2009.907</ele>
        <time>2018-09-15T10:46:05Z</time>
      </trkpt>
      <trkpt lat="46.22753" lon="10.52005">
        <ele>2011.327</ele>
        <time>2018-09-15T10:46:25Z</time>
      </trkpt>
      <trkpt lat="46.22749" lon="10.52006">
        <ele>2012.308</ele>
        <time>2018-09-15T10:46:45Z</time>
      </trkpt>
      <trkpt lat="46.22745" lon="10.52006">
        <ele>2012.621</ele>
        <time>2018-09-15T10:47:05Z</time>
      </trkpt>
      <trkpt lat="46.22743" lon="10.52006">
        <ele>2012.987</ele>
        <time>2018-09-15T10:47:25Z</time>
      </trkpt>
      <trkpt lat="46.22737" lon="10.52006">
        <ele>2013.524</ele>
        <time>2018-09-15T10:47:45Z</time>
      </trkpt>
      <trkpt lat="46.22727" lon="10.52003">
        <ele>2014.087</ele>
        <time>2018-09-15T10:48:05Z</time>
      </trkpt>
      <trkpt lat="46.2272" lon="10.51998">
        <ele>2013.89</ele>
        <time>2018-09-15T10:48:25Z</time>
      </trkpt>
      <trkpt lat="46.2272" lon="10.51997">
        <ele>2013.763</ele>
        <time>2018-09-15T10:48:45Z</time>
      </trkpt>
      <trkpt lat="46.2272" lon="10.51996">
        <ele>2013.541</ele>
        <time>2018-09-15T10:49:05Z</time>
      </trkpt>
      <trkpt lat="46.2272" lon="10.51996">
        <ele>2013.478</ele>
        <time>2018-09-15T10:49:25Z</time>
      </trkpt>
      <trkpt lat="46.2272" lon="10.51992">
        <ele>2012.629</ele>
        <time>2018-09-15T10:49:45Z</time>
      </trkpt>
      <trkpt lat="46.2272" lon="10.5199">
        <ele>2012.1</ele>
        <time>2018-09-15T10:50:05Z</time>
      </trkpt>
      <trkpt lat="46.2272" lon="10.51983">
        <ele>2010.72</ele>
        <time>2018-09-15T10:50:25Z</time>
      </trkpt>
      <trkpt lat="46.22725" lon="10.51971">
        <ele>2008.508</ele>
        <time>2018-09-15T10:50:45Z</time>
      </trkpt>
      <trkpt lat="46.2273" lon="10.51962">
        <ele>2011.384</ele>
        <time>2018-09-15T10:51:05Z</time>
      </trkpt>
      <trkpt lat="46.22728" lon="10.51955">
        <ele>2015.54</ele>
        <time>2018-09-15T10:51:25Z</time>
      </trkpt>
      <trkpt lat="46.22722" lon="10.51932">
        <ele>2025.047</ele>
        <time>2018-09-15T10:51:45Z</time>
      </trkpt>
      <trkpt lat="46.22719" lon="10.51902">
        <ele>2022.19</ele>
        <time>2018-09-15T10:52:05Z</time>
      </trkpt>
      <trkpt lat="46.22719" lon="10.519">
        <ele>2021.823</ele>
        <time>2018-09-15T10:52:25Z</time>
      </trkpt>
      <trkpt lat="46.22715" lon="10.51879">
        <ele>2018.326</ele>
        <time>2018-09-15T10:52:45Z</time>
      </trkpt>
      <trkpt lat="46.22713" lon="10.51872">
        <ele>2017.084</ele>
        <time>2018-09-15T10:53:05Z</time>
      </trkpt>
      <trkpt lat="46.22713" lon="10.51866">
        <ele>2016.261</ele>
        <time>2018-09-15T10:53:25Z</time>
      </trkpt>
      <trkpt lat="46.2271" lon="10.51853">
        <ele>2015.131</ele>
        <time>2018-09-15T10:53:45Z</time>
      </trkpt>
      <trkpt lat="46.22703" lon="10.51836">
        <ele>2018.161</ele>
        <time>2018-09-15T10:54:05Z</time>
      </trkpt>
      <trkpt lat="46.22695" lon="10.5181">
        <ele>2023.907</ele>
        <time>2018-09-15T10:54:25Z</time>
      </trkpt>
      <trkpt lat="46.22693" lon="10.51804">
        <ele>2024.908</ele>
        <time>2018-09-15T10:54:45Z</time>
      </trkpt>
      <trkpt lat="46.22684" lon="10.51792">
        <ele>2024.395</ele>
        <time>2018-09-15T10:55:05Z</time>
      </trkpt>
      <trkpt lat="46.22684" lon="10.51787">
        <ele>2024.221</ele>
        <time>2018-09-15T10:55:25Z</time>
      </trkpt>
      <trkpt lat="46.2268" lon="10.51759">
        <ele>2021.718</ele>
        <time>2018-09-15T10:55:45Z</time>
      </trkpt>
      <trkpt lat="46.22679" lon="10.51745">
        <ele>2020.341</ele>
        <time>2018-09-15T10:56:05Z</time>
      </trkpt>
      <trkpt lat="46.22671" lon="10.51721">
        <ele>2022.024</ele>
        <time>2018-09-15T10:56:25Z</time>
      </trkpt>
      <trkpt lat="46.22667" lon="10.51711">
        <ele>2021.997</ele>
        <time>2018-09-15T10:56:45Z</time>
      </trkpt>
      <trkpt lat="46.22661" lon="10.51693">
        <ele>2019.415</ele>
        <time>2018-09-15T10:57:05Z</time>
      </trkpt>
      <trkpt lat="46.22646" lon="10.51671">
        <ele>2022.032</ele>
        <time>2018-09-15T10:57:25Z</time>
      </trkpt>
      <trkpt lat="46.22645" lon="10.51669">
        <ele>2022.269</ele>
        <time>2018-09-15T10:57:45Z</time>
      </trkpt>
      <trkpt lat="46.22643" lon="10.51666">
        <ele>2022.904</ele>
        <time>2018-09-15T10:58:05Z</time>
      </trkpt>
      <trkpt lat="46.22637" lon="10.5165">
        <ele>2024.724</ele>
        <time>2018-09-15T10:58:25Z</time>
      </trkpt>
      <trkpt lat="46.22634" lon="10.51645">
        <ele>2025.608</ele>
        <time>2018-09-15T10:58:45Z</time>
      </trkpt>
      <trkpt lat="46.22629" lon="10.5162">
        <ele>2028.458</ele>
        <time>2018-09-15T10:59:05Z</time>
      </trkpt>
      <trkpt lat="46.22626" lon="10.51613">
        <ele>2030.094</ele>
        <time>2018-09-15T10:59:25Z</time>
      </trkpt>
      <trkpt lat="46.22617" lon="10.51596">
        <ele>2035.191</ele>
        <time>2018-09-15T10:59:45Z</time>
      </trkpt>
      <trkpt lat="46.22608" lon="10.51581">
        <ele>2040.714</ele>
        <time>2018-09-15T11:00:05Z</time>
      </trkpt>
      <trkpt lat="46.22609" lon="10.51562">
        <ele>2041.317</ele>
        <time>2018-09-15T11:00:25Z</time>
      </trkpt>
      <trkpt lat="46.22606" lon="10.51562">
        <ele>2042.67</ele>
        <time>2018-09-15T11:00:45Z</time>
      </trkpt>
      <trkpt lat="46.22598" lon="10.51565">
        <ele>2047.118</ele>
        <time>2018-09-15T11:01:05Z</time>
      </trkpt>
      <trkpt lat="46.22596" lon="10.51567">
        <ele>2048.185</ele>
        <time>2018-09-15T11:01:25Z</time>
      </trkpt>
      <trkpt lat="46.22591" lon="10.51572">
        <ele>2050.487</ele>
        <time>2018-09-15T11:01:45Z</time>
      </trkpt>
      <trkpt lat="46.22591" lon="10.51558">
        <ele>2052.842</ele>
        <time>2018-09-15T11:02:05Z</time>
      </trkpt>
      <trkpt lat="46.22597" lon="10.51531">
        <ele>2055.126</ele>
        <time>2018-09-15T11:02:25Z</time>
      </trkpt>
      <trkpt lat="46.226" lon="10.51509">
        <ele>2057.608</ele>
        <time>2018-09-15T11:02:45Z</time>
      </trkpt>
      <trkpt lat="46.22599" lon="10.51504">
        <ele>2059.87</ele>
        <time>2018-09-15T11:03:05Z</time>
      </trkpt>
      <trkpt lat="46.22594" lon="10.51502">
        <ele>2062.946</ele>
        <time>2018-09-15T11:03:25Z</time>
      </trkpt>
      <trkpt lat="46.22594" lon="10.51502">
        <ele>2063.253</ele>
        <time>2018-09-15T11:03:45Z</time>
      </trkpt>
      <trkpt lat="46.22593" lon="10.51502">
        <ele>2063.466</ele>
        <time>2018-09-15T11:04:05Z</time>
      </trkpt>
      <trkpt lat="46.2259" lon="10.51506">
        <ele>2064.729</ele>
        <time>2018-09-15T11:04:25Z</time>
      </trkpt>
      <trkpt lat="46.22575" lon="10.51513">
        <ele>2070.682</ele>
        <time>2018-09-15T11:04:45Z</time>
      </trkpt>
      <trkpt lat="46.22569" lon="10.51517">
        <ele>2072.19</ele>
        <time>2018-09-15T11:05:05Z</time>
      </trkpt>
      <trkpt lat="46.22568" lon="10.51511">
        <ele>2074.377</ele>
        <time>2018-09-15T11:05:25Z</time>
      </trkpt>
      <trkpt lat="46.22568" lon="10.51509">
        <ele>2075.074</ele>
        <time>2018-09-15T11:05:45Z</time>
      </trkpt>
      <trkpt lat="46.22569" lon="10.51507">
        <ele>2074.956</ele>
        <time>2018-09-15T11:06:05Z</time>
      </trkpt>
      <trkpt lat="46.22571" lon="10.51501">
        <ele>2075.921</ele>
        <time>2018-09-15T11:06:25Z</time>
      </trkpt>
      <trkpt lat="46.22578" lon="10.51486">
        <ele>2077.508</ele>
        <time>2018-09-15T11:06:45Z</time>
      </trkpt>
      <trkpt lat="46.22578" lon="10.51471">
        <ele>2082.779</ele>
        <time>2018-09-15T11:07:05Z</time>
      </trkpt>
      <trkpt lat="46.22563" lon="10.51484">
        <ele>2087.615</ele>
        <time>2018-09-15T11:07:25Z</time>
      </trkpt>
      <trkpt lat="46.22546" lon="10.5149">
        <ele>2093.422</ele>
        <time>2018-09-15T11:07:45Z</time>
      </trkpt>
      <trkpt lat="46.22538" lon="10.51485">
        <ele>2099.435</ele>
        <time>2018-09-15T11:08:05Z</time>
      </trkpt>
      <trkpt lat="46.22539" lon="10.51483">
        <ele>2099.638</ele>
        <time>2018-09-15T11:08:25Z</time>
      </trkpt>
      <trkpt lat="46.22541" lon="10.51481">
        <ele>2099.931</ele>
        <time>2018-09-15T11:08:45Z</time>
      </trkpt>
      <trkpt lat="46.2255" lon="10.51467">
        <ele>2102.029</ele>
        <time>2018-09-15T11:09:05Z</time>
      </trkpt>
      <trkpt lat="46.22554" lon="10.51465">
        <ele>2101.186</ele>
        <time>2018-09-15T11:09:25Z</time>
      </trkpt>
      <trkpt lat="46.22558" lon="10.51459">
        <ele>2100.851</ele>
        <time>2018-09-15T11:09:45Z</time>
      </trkpt>
      <trkpt lat="46.22552" lon="10.5145">
        <ele>2107.001</ele>
        <time>2018-09-15T11:10:05Z</time>
      </trkpt>
      <trkpt lat="46.2255" lon="10.51447">
        <ele>2109.111</ele>
        <time>2018-09-15T11:10:25Z</time>
      </trkpt>
      <trkpt lat="46.22537" lon="10.51448">
        <ele>2113.408</ele>
        <time>2018-09-15T11:10:45Z</time>
      </trkpt>
      <trkpt lat="46.22532" lon="10.51452">
        <ele>2113.957</ele>
        <time>2018-09-15T11:11:05Z</time>
      </trkpt>
      <trkpt lat="46.22522" lon="10.51452">
        <ele>2117.353</ele>
        <time>2018-09-15T11:11:25Z</time>
      </trkpt>
      <trkpt lat="46.22522" lon="10.51451">
        <ele>2117.61</ele>
        <time>2018-09-15T11:11:45Z</time>
      </trkpt>
      <trkpt lat="46.22525" lon="10.51444">
        <ele>2118.813</ele>
        <time>2018-09-15T11:12:05Z</time>
      </trkpt>
      <trkpt lat="46.22539" lon="10.51425">
        <ele>2121.416</ele>
        <time>2018-09-15T11:12:25Z</time>
      </trkpt>
      <trkpt lat="46.22543" lon="10.51417">
        <ele>2122.339</ele>
        <time>2018-09-15T11:12:45Z</time>
      </trkpt>
      <trkpt lat="46.22544" lon="10.514">
        <ele>2131.637</ele>
        <time>2018-09-15T11:13:05Z</time>
      </trkpt>
      <trkpt lat="46.22544" lon="10.51399">
        <ele>2132.594</ele>
        <time>2018-09-15T11:13:25Z</time>
      </trkpt>
      <trkpt lat="46.2254" lon="10.51395">
        <ele>2137.278</ele>
        <time>2018-09-15T11:13:45Z</time>
      </trkpt>
      <trkpt lat="46.22528" lon="10.51401">
        <ele>2140.533</ele>
        <time>2018-09-15T11:14:05Z</time>
      </trkpt>
      <trkpt lat="46.22517" lon="10.51408">
        <ele>2139.026</ele>
        <time>2018-09-15T11:14:25Z</time>
      </trkpt>
      <trkpt lat="46.22513" lon="10.51407">
        <ele>2140.408</ele>
        <time>2018-09-15T11:14:45Z</time>
      </trkpt>
      <trkpt lat="46.22508" lon="10.51406">
        <ele>2142.639</ele>
        <time>2018-09-15T11:15:05Z</time>
      </trkpt>
      <trkpt lat="46.22522" lon="10.51396">
        <ele>2145.725</ele>
        <time>2018-09-15T11:15:25Z</time>
      </trkpt>
      <trkpt lat="46.2253" lon="10.5138">
        <ele>2154.242</ele>
        <time>2018-09-15T11:15:45Z</time>
      </trkpt>
      <trkpt lat="46.22531" lon="10.51378">
        <ele>2155.095</ele>
        <time>2018-09-15T11:16:05Z</time>
      </trkpt>
      <trkpt lat="46.22536" lon="10.51367">
        <ele>2159.778</ele>
        <time>2018-09-15T11:16:25Z</time>
      </trkpt>
      <trkpt lat="46.22523" lon="10.51378">
        <ele>2157.631</ele>
        <time>2018-09-15T11:16:45Z</time>
      </trkpt>
      <trkpt lat="46.22508" lon="10.51376">
        <ele>2160.189</ele>
        <time>2018-09-15T11:17:05Z</time>
      </trkpt>
      <trkpt lat="46.22503" lon="10.51373">
        <ele>2162.546</ele>
        <time>2018-09-15T11:17:25Z</time>
      </trkpt>
      <trkpt lat="46.22482" lon="10.51352">
        <ele>2175.933</ele>
        <time>2018-09-15T11:17:45Z</time>
      </trkpt>
      <trkpt lat="46.22476" lon="10.51344">
        <ele>2180.123</ele>
        <time>2018-09-15T11:18:05Z</time>
      </trkpt>
      <trkpt lat="46.22469" lon="10.51346">
        <ele>2180.215</ele>
        <time>2018-09-15T11:18:25Z</time>
      </trkpt>
      <trkpt lat="46.22463" lon="10.51352">
        <ele>2178.708</ele>
        <time>2018-09-15T11:18:45Z</time>
      </trkpt>
      <trkpt lat="46.22449" lon="10.51365">
        <ele>2176.255</ele>
        <time>2018-09-15T11:19:05Z</time>
      </trkpt>
      <trkpt lat="46.22449" lon="10.51365">
        <ele>2176.241</ele>
        <time>2018-09-15T11:19:25Z</time>
      </trkpt>
      <trkpt lat="46.22444" lon="10.51368">
        <ele>2176.038</ele>
        <time>2018-09-15T11:19:45Z</time>
      </trkpt>
      <trkpt lat="46.22445" lon="10.51364">
        <ele>2177.621</ele>
        <time>2018-09-15T11:20:05Z</time>
      </trkpt>
      <trkpt lat="46.22446" lon="10.5136">
        <ele>2179.174</ele>
        <time>2018-09-15T11:20:25Z</time>
      </trkpt>
      <trkpt lat="46.22447" lon="10.51354">
        <ele>2180.937</ele>
        <time>2018-09-15T11:20:45Z</time>
      </trkpt>
      <trkpt lat="46.22452" lon="10.51336">
        <ele>2186.845</ele>
        <time>2018-09-15T11:21:05Z</time>
      </trkpt>
      <trkpt lat="46.22454" lon="10.51333">
        <ele>2187.632</ele>
        <time>2018-09-15T11:21:25Z</time>
      </trkpt>
      <trkpt lat="46.22447" lon="10.51333">
        <ele>2188.814</ele>
        <time>2018-09-15T11:21:45Z</time>
      </trkpt>
      <trkpt lat="46.22438" lon="10.51332">
        <ele>2190.154</ele>
        <time>2018-09-15T11:22:05Z</time>
      </trkpt>
      <trkpt lat="46.22417" lon="10.51327">
        <ele>2193.309</ele>
        <time>2018-09-15T11:22:25Z</time>
      </trkpt>
      <trkpt lat="46.22419" lon="10.51313">
        <ele>2196.408</ele>
        <time>2018-09-15T11:22:45Z</time>
      </trkpt>
      <trkpt lat="46.22428" lon="10.51305">
        <ele>2198.433</ele>
        <time>2018-09-15T11:23:05Z</time>
      </trkpt>
      <trkpt lat="46.22431" lon="10.51305">
        <ele>2198.719</ele>
        <time>2018-09-15T11:23:25Z</time>
      </trkpt>
      <trkpt lat="46.22443" lon="10.51303">
        <ele>2200.366</ele>
        <time>2018-09-15T11:23:45Z</time>
      </trkpt>
      <trkpt lat="46.22455" lon="10.51302">
        <ele>2200.049</ele>
        <time>2018-09-15T11:24:05Z</time>
      </trkpt>
      <trkpt lat="46.22465" lon="10.513">
        <ele>2199.962</ele>
        <time>2018-09-15T11:24:25Z</time>
      </trkpt>
      <trkpt lat="46.22443" lon="10.51287">
        <ele>2208.115</ele>
        <time>2018-09-15T11:24:45Z</time>
      </trkpt>
      <trkpt lat="46.2245" lon="10.51285">
        <ele>2209.023</ele>
        <time>2018-09-15T11:25:05Z</time>
      </trkpt>
      <trkpt lat="46.2246" lon="10.51279">
        <ele>2212.38</ele>
        <time>2018-09-15T11:25:25Z</time>
      </trkpt>
      <trkpt lat="46.22457" lon="10.51273">
        <ele>2216.018</ele>
        <time>2018-09-15T11:25:45Z</time>
      </trkpt>
      <trkpt lat="46.22454" lon="10.51269">
        <ele>2218.398</ele>
        <time>2018-09-15T11:26:05Z</time>
      </trkpt>
      <trkpt lat="46.22447" lon="10.51259">
        <ele>2223.817</ele>
        <time>2018-09-15T11:26:25Z</time>
      </trkpt>
      <trkpt lat="46.22437" lon="10.51254">
        <ele>2225.208</ele>
        <time>2018-09-15T11:26:45Z</time>
      </trkpt>
      <trkpt lat="46.22426" lon="10.51249">
        <ele>2225.763</ele>
        <time>2018-09-15T11:27:05Z</time>
      </trkpt>
      <trkpt lat="46.22395" lon="10.51237">
        <ele>2232.349</ele>
        <time>2018-09-15T11:27:25Z</time>
      </trkpt>
      <trkpt lat="46.22386" lon="10.51234">
        <ele>2234.356</ele>
        <time>2018-09-15T11:27:45Z</time>
      </trkpt>
      <trkpt lat="46.22373" lon="10.51224">
        <ele>2238.489</ele>
        <time>2018-09-15T11:28:05Z</time>
      </trkpt>
      <trkpt lat="46.2237" lon="10.51221">
        <ele>2239.522</ele>
        <time>2018-09-15T11:28:25Z</time>
      </trkpt>
      <trkpt lat="46.22362" lon="10.51213">
        <ele>2242.775</ele>
        <time>2018-09-15T11:28:45Z</time>
      </trkpt>
      <trkpt lat="46.2236" lon="10.51211">
        <ele>2243.463</ele>
        <time>2018-09-15T11:29:05Z</time>
      </trkpt>
      <trkpt lat="46.22356" lon="10.51207">
        <ele>2244.77</ele>
        <time>2018-09-15T11:29:25Z</time>
      </trkpt>
      <trkpt lat="46.22352" lon="10.51206">
        <ele>2245.235</ele>
        <time>2018-09-15T11:29:45Z</time>
      </trkpt>
      <trkpt lat="46.22331" lon="10.51209">
        <ele>2243.586</ele>
        <time>2018-09-15T11:30:05Z</time>
      </trkpt>
      <trkpt lat="46.22334" lon="10.51205">
        <ele>2245.414</ele>
        <time>2018-09-15T11:30:25Z</time>
      </trkpt>
      <trkpt lat="46.22353" lon="10.51194">
        <ele>2250.308</ele>
        <time>2018-09-15T11:30:45Z</time>
      </trkpt>
      <trkpt lat="46.22383" lon="10.51197">
        <ele>2249.195</ele>
        <time>2018-09-15T11:31:05Z</time>
      </trkpt>
      <trkpt lat="46.22397" lon="10.51194">
        <ele>2250.911</ele>
        <time>2018-09-15T11:31:25Z</time>
      </trkpt>
      <trkpt lat="46.224" lon="10.51193">
        <ele>2251.928</ele>
        <time>2018-09-15T11:31:45Z</time>
      </trkpt>
      <trkpt lat="46.22399" lon="10.51188">
        <ele>2253.931</ele>
        <time>2018-09-15T11:32:05Z</time>
      </trkpt>
      <trkpt lat="46.22376" lon="10.51182">
        <ele>2255.854</ele>
        <time>2018-09-15T11:32:25Z</time>
      </trkpt>
      <trkpt lat="46.22353" lon="10.51169">
        <ele>2260.877</ele>
        <time>2018-09-15T11:32:45Z</time>
      </trkpt>
      <trkpt lat="46.22343" lon="10.51159">
        <ele>2264.285</ele>
        <time>2018-09-15T11:33:05Z</time>
      </trkpt>
      <trkpt lat="46.22341" lon="10.51144">
        <ele>2269.822</ele>
        <time>2018-09-15T11:33:25Z</time>
      </trkpt>
      <trkpt lat="46.22342" lon="10.51142">
        <ele>2270.381</ele>
        <time>2018-09-15T11:33:45Z</time>
      </trkpt>
      <trkpt lat="46.2233" lon="10.51134">
        <ele>2272.761</ele>
        <time>2018-09-15T11:34:05Z</time>
      </trkpt>
      <trkpt lat="46.22321" lon="10.51132">
        <ele>2272.117</ele>
        <time>2018-09-15T11:34:25Z</time>
      </trkpt>
      <trkpt lat="46.22335" lon="10.51122">
        <ele>2278.908</ele>
        <time>2018-09-15T11:34:45Z</time>
      </trkpt>
      <trkpt lat="46.22352" lon="10.51123">
        <ele>2279.53</ele>
        <time>2018-09-15T11:35:05Z</time>
      </trkpt>
      <trkpt lat="46.22354" lon="10.51123">
        <ele>2279.626</ele>
        <time>2018-09-15T11:35:25Z</time>
      </trkpt>
      <trkpt lat="46.22373" lon="10.51124">
        <ele>2280.913</ele>
        <time>2018-09-15T11:35:45Z</time>
      </trkpt>
      <trkpt lat="46.22374" lon="10.51124">
        <ele>2281.026</ele>
        <time>2018-09-15T11:36:05Z</time>
      </trkpt>
      <trkpt lat="46.22391" lon="10.5112">
        <ele>2285.339</ele>
        <time>2018-09-15T11:36:25Z</time>
      </trkpt>
      <trkpt lat="46.22406" lon="10.51122">
        <ele>2288.562</ele>
        <time>2018-09-15T11:36:45Z</time>
      </trkpt>
      <trkpt lat="46.22411" lon="10.5112">
        <ele>2290.88</ele>
        <time>2018-09-15T11:37:05Z</time>
      </trkpt>
      <trkpt lat="46.2242" lon="10.51116">
        <ele>2295.687</ele>
        <time>2018-09-15T11:37:25Z</time>
      </trkpt>
      <trkpt lat="46.22413" lon="10.51109">
        <ele>2296.858</ele>
        <time>2018-09-15T11:37:45Z</time>
      </trkpt>
      <trkpt lat="46.22403" lon="10.51099">
        <ele>2299.352</ele>
        <time>2018-09-15T11:38:05Z</time>
      </trkpt>
      <trkpt lat="46.22386" lon="10.51087">
        <ele>2301.317</ele>
        <time>2018-09-15T11:38:25Z</time>
      </trkpt>
      <trkpt lat="46.22375" lon="10.51079">
        <ele>2302.808</ele>
        <time>2018-09-15T11:38:45Z</time>
      </trkpt>
      <trkpt lat="46.22365" lon="10.51074">
        <ele>2302.987</ele>
        <time>2018-09-15T11:39:05Z</time>
      </trkpt>
      <trkpt lat="46.22351" lon="10.51066">
        <ele>2307.493</ele>
        <time>2018-09-15T11:39:25Z</time>
      </trkpt>
      <trkpt lat="46.22349" lon="10.5106">
        <ele>2311.25</ele>
        <time>2018-09-15T11:39:45Z</time>
      </trkpt>
      <trkpt lat="46.22361" lon="10.51058">
        <ele>2313.533</ele>
        <time>2018-09-15T11:40:05Z</time>
      </trkpt>
      <trkpt lat="46.22367" lon="10.51055">
        <ele>2316.446</ele>
        <time>2018-09-15T11:40:25Z</time>
      </trkpt>
      <trkpt lat="46.2238" lon="10.51054">
        <ele>2318.779</ele>
        <time>2018-09-15T11:40:45Z</time>
      </trkpt>
      <trkpt lat="46.22399" lon="10.51047">
        <ele>2325.977</ele>
        <time>2018-09-15T11:41:05Z</time>
      </trkpt>
      <trkpt lat="46.22414" lon="10.51043">
        <ele>2331.724</ele>
        <time>2018-09-15T11:41:25Z</time>
      </trkpt>
      <trkpt lat="46.22426" lon="10.51045">
        <ele>2336.655</ele>
        <time>2018-09-15T11:41:45Z</time>
      </trkpt>
      <trkpt lat="46.22427" lon="10.51045">
        <ele>2337.207</ele>
        <time>2018-09-15T11:42:05Z</time>
      </trkpt>
      <trkpt lat="46.22434" lon="10.51043">
        <ele>2342.517</ele>
        <time>2018-09-15T11:42:25Z</time>
      </trkpt>
      <trkpt lat="46.22424" lon="10.51033">
        <ele>2342.108</ele>
        <time>2018-09-15T11:42:45Z</time>
      </trkpt>
      <trkpt lat="46.22418" lon="10.51028">
        <ele>2341.867</ele>
        <time>2018-09-15T11:43:05Z</time>
      </trkpt>
      <trkpt lat="46.22415" lon="10.51015">
        <ele>2348.143</ele>
        <time>2018-09-15T11:43:25Z</time>
      </trkpt>
      <trkpt lat="46.22415" lon="10.51015">
        <ele>2348.13</ele>
        <time>2018-09-15T11:43:45Z</time>
      </trkpt>
      <trkpt lat="46.22422" lon="10.51014">
        <ele>2351.913</ele>
        <time>2018-09-15T11:44:05Z</time>
      </trkpt>
      <trkpt lat="46.22431" lon="10.51019">
        <ele>2353.536</ele>
        <time>2018-09-15T11:44:25Z</time>
      </trkpt>
      <trkpt lat="46.22445" lon="10.51023">
        <ele>2359.029</ele>
        <time>2018-09-15T11:44:45Z</time>
      </trkpt>
      <trkpt lat="46.22451" lon="10.51035">
        <ele>2355.627</ele>
        <time>2018-09-15T11:45:05Z</time>
      </trkpt>
      <trkpt lat="46.22452" lon="10.51036">
        <ele>2355.824</ele>
        <time>2018-09-15T11:45:25Z</time>
      </trkpt>
      <trkpt lat="46.22457" lon="10.5104">
        <ele>2356.178</ele>
        <time>2018-09-15T11:45:45Z</time>
      </trkpt>
      <trkpt lat="46.22461" lon="10.5104">
        <ele>2358.433</ele>
        <time>2018-09-15T11:46:05Z</time>
      </trkpt>
      <trkpt lat="46.2246" lon="10.51024">
        <ele>2365.526</ele>
        <time>2018-09-15T11:46:25Z</time>
      </trkpt>
      <trkpt lat="46.22454" lon="10.51006">
        <ele>2370.808</ele>
        <time>2018-09-15T11:46:45Z</time>
      </trkpt>
      <trkpt lat="46.22441" lon="10.50991">
        <ele>2373.129</ele>
        <time>2018-09-15T11:47:05Z</time>
      </trkpt>
      <trkpt lat="46.22433" lon="10.50982">
        <ele>2375.135</ele>
        <time>2018-09-15T11:47:25Z</time>
      </trkpt>
      <trkpt lat="46.22432" lon="10.50982">
        <ele>2375.272</ele>
        <time>2018-09-15T11:47:45Z</time>
      </trkpt>
      <trkpt lat="46.22441" lon="10.50981">
        <ele>2378.655</ele>
        <time>2018-09-15T11:48:05Z</time>
      </trkpt>
      <trkpt lat="46.22451" lon="10.50985">
        <ele>2380.348</ele>
        <time>2018-09-15T11:48:25Z</time>
      </trkpt>
      <trkpt lat="46.22462" lon="10.5099">
        <ele>2382.121</ele>
        <time>2018-09-15T11:48:45Z</time>
      </trkpt>
      <trkpt lat="46.22465" lon="10.50992">
        <ele>2381.989</ele>
        <time>2018-09-15T11:49:05Z</time>
      </trkpt>
      <trkpt lat="46.22473" lon="10.50999">
        <ele>2381.726</ele>
        <time>2018-09-15T11:49:25Z</time>
      </trkpt>
      <trkpt lat="46.22467" lon="10.50986">
        <ele>2385.592</ele>
        <time>2018-09-15T11:49:45Z</time>
      </trkpt>
      <trkpt lat="46.22459" lon="10.50969">
        <ele>2391.073</ele>
        <time>2018-09-15T11:50:05Z</time>
      </trkpt>
      <trkpt lat="46.22457" lon="10.50965">
        <ele>2391.72</ele>
        <time>2018-09-15T11:50:25Z</time>
      </trkpt>
      <trkpt lat="46.22455" lon="10.50959">
        <ele>2394.008</ele>
        <time>2018-09-15T11:50:45Z</time>
      </trkpt>
      <trkpt lat="46.2245" lon="10.50944">
        <ele>2400.071</ele>
        <time>2018-09-15T11:51:05Z</time>
      </trkpt>
      <trkpt lat="46.22472" lon="10.5096">
        <ele>2396.557</ele>
        <time>2018-09-15T11:51:25Z</time>
      </trkpt>
      <trkpt lat="46.22484" lon="10.50974">
        <ele>2392.634</ele>
        <time>2018-09-15T11:51:45Z</time>
      </trkpt>
      <trkpt lat="46.22491" lon="10.50978">
        <ele>2391.537</ele>
        <time>2018-09-15T11:52:05Z</time>
      </trkpt>
      <trkpt lat="46.22497" lon="10.5098">
        <ele>2391.53</ele>
        <time>2018-09-15T11:52:25Z</time>
      </trkpt>
      <trkpt lat="46.22502" lon="10.50976">
        <ele>2391.353</ele>
        <time>2018-09-15T11:52:45Z</time>
      </trkpt>
      <trkpt lat="46.22509" lon="10.50981">
        <ele>2390.181</ele>
        <time>2018-09-15T11:53:05Z</time>
      </trkpt>
      <trkpt lat="46.22516" lon="10.50985">
        <ele>2390.598</ele>
        <time>2018-09-15T11:53:25Z</time>
      </trkpt>
      <trkpt lat="46.22515" lon="10.50982">
        <ele>2389.546</ele>
        <time>2018-09-15T11:53:45Z</time>
      </trkpt>
      <trkpt lat="46.22521" lon="10.50974">
        <ele>2384.388</ele>
        <time>2018-09-15T11:54:05Z</time>
      </trkpt>
      <trkpt lat="46.22524" lon="10.50972">
        <ele>2382.216</ele>
        <time>2018-09-15T11:54:25Z</time>
      </trkpt>
      <trkpt lat="46.22518" lon="10.50962">
        <ele>2379.608</ele>
        <time>2018-09-15T11:54:45Z</time>
      </trkpt>
      <trkpt lat="46.22522" lon="10.50963">
        <ele>2377.326</ele>
        <time>2018-09-15T11:55:05Z</time>
      </trkpt>
      <trkpt lat="46.22536" lon="10.50966">
        <ele>2372.892</ele>
        <time>2018-09-15T11:55:25Z</time>
      </trkpt>
      <trkpt lat="46.22532" lon="10.50957">
        <ele>2367.069</ele>
        <time>2018-09-15T11:55:45Z</time>
      </trkpt>
      <trkpt lat="46.22527" lon="10.50944">
        <ele>2361.022</ele>
        <time>2018-09-15T11:56:05Z</time>
      </trkpt>
      <trkpt lat="46.22536" lon="10.50945">
        <ele>2356.465</ele>
        <time>2018-09-15T11:56:25Z</time>
      </trkpt>
      <trkpt lat="46.22544" lon="10.5095">
        <ele>2356.238</ele>
        <time>2018-09-15T11:56:45Z</time>
      </trkpt>
      <trkpt lat="46.22548" lon="10.50943">
        <ele>2347.756</ele>
        <time>2018-09-15T11:57:05Z</time>
      </trkpt>
      <trkpt lat="46.22546" lon="10.50927">
        <ele>2338.843</ele>
        <time>2018-09-15T11:57:25Z</time>
      </trkpt>
      <trkpt lat="46.22545" lon="10.50923">
        <ele>2336.518</ele>
        <time>2018-09-15T11:57:45Z</time>
      </trkpt>
      <trkpt lat="46.22543" lon="10.50914">
        <ele>2333.198</ele>
        <time>2018-09-15T11:58:05Z</time>
      </trkpt>
      <trkpt lat="46.22542" lon="10.50903">
        <ele>2329.017</ele>
        <time>2018-09-15T11:58:25Z</time>
      </trkpt>
      <trkpt lat="46.2255" lon="10.50909">
        <ele>2325.908</ele>
        <time>2018-09-15T11:58:45Z</time>
      </trkpt>
      <trkpt lat="46.22562" lon="10.50911">
        <ele>2320.623</ele>
        <time>2018-09-15T11:59:05Z</time>
      </trkpt>
      <trkpt lat="46.22574" lon="10.50911">
        <ele>2316.149</ele>
        <time>2018-09-15T11:59:25Z</time>
      </trkpt>
      <trkpt lat="46.22587" lon="10.50913">
        <ele>2311.746</ele>
        <time>2018-09-15T11:59:45Z</time>
      </trkpt>
      <trkpt lat="46.22604" lon="10.50921">
        <ele>2306.959</ele>
        <time>2018-09-15T12:00:05Z</time>
      </trkpt>
      <trkpt lat="46.22617" lon="10.5092">
        <ele>2301.292</ele>
        <time>2018-09-15T12:00:25Z</time>
      </trkpt>
      <trkpt lat="46.2262" lon="10.5092">
        <ele>2300.635</ele>
        <time>2018-09-15T12:00:45Z</time>
      </trkpt>
      <trkpt lat="46.22621" lon="10.5092">
        <ele>2299.743</ele>
        <time>2018-09-15T12:01:05Z</time>
      </trkpt>
      <trkpt lat="46.22667" lon="10.50914">
        <ele>2288.75</ele>
        <time>2018-09-15T12:01:25Z</time>
      </trkpt>
      <trkpt lat="46.22672" lon="10.50913">
        <ele>2287.817</ele>
        <time>2018-09-15T12:01:45Z</time>
      </trkpt>
      <trkpt lat="46.22681" lon="10.5091">
        <ele>2285.787</ele>
        <time>2018-09-15T12:02:05Z</time>
      </trkpt>
      <trkpt lat="46.22692" lon="10.50912">
        <ele>2287.315</ele>
        <time>2018-09-15T12:02:25Z</time>
      </trkpt>
      <trkpt lat="46.22705" lon="10.50908">
        <ele>2281.608</ele>
        <time>2018-09-15T12:02:45Z</time>
      </trkpt>
      <trkpt lat="46.22715" lon="10.50902">
        <ele>2275.223</ele>
        <time>2018-09-15T12:03:05Z</time>
      </trkpt>
      <trkpt lat="46.22724" lon="10.50895">
        <ele>2269.649</ele>
        <time>2018-09-15T12:03:25Z</time>
      </trkpt>
      <trkpt lat="46.22733" lon="10.50893">
        <ele>2266.436</ele>
        <time>2018-09-15T12:03:45Z</time>
      </trkpt>
      <trkpt lat="46.22747" lon="10.5088">
        <ele>2257.089</ele>
        <time>2018-09-15T12:04:05Z</time>
      </trkpt>
      <trkpt lat="46.22758" lon="10.50868">
        <ele>2249.982</ele>
        <time>2018-09-15T12:04:25Z</time>
      </trkpt>
      <trkpt lat="46.22767" lon="10.5086">
        <ele>2247.625</ele>
        <time>2018-09-15T12:04:45Z</time>
      </trkpt>
      <trkpt lat="46.22772" lon="10.50855">
        <ele>2245.593</ele>
        <time>2018-09-15T12:05:05Z</time>
      </trkpt>
      <trkpt lat="46.22784" lon="10.50848">
        <ele>2243.41</ele>
        <time>2018-09-15T12:05:25Z</time>
      </trkpt>
      <trkpt lat="46.22791" lon="10.50844">
        <ele>2242.192</ele>
        <time>2018-09-15T12:05:45Z</time>
      </trkpt>
      <trkpt lat="46.22799" lon="10.50838">
        <ele>2240.273</ele>
        <time>2018-09-15T12:06:05Z</time>
      </trkpt>
      <trkpt lat="46.22812" lon="10.50835">
        <ele>2237.22</ele>
        <time>2018-09-15T12:06:25Z</time>
      </trkpt>
      <trkpt lat="46.22818" lon="10.50832">
        <ele>2233.008</ele>
        <time>2018-09-15T12:06:45Z</time>
      </trkpt>
      <trkpt lat="46.22825" lon="10.50826">
        <ele>2225.351</ele>
        <time>2018-09-15T12:07:05Z</time>
      </trkpt>
      <trkpt lat="46.22832" lon="10.50826">
        <ele>2222.337</ele>
        <time>2018-09-15T12:07:25Z</time>
      </trkpt>
      <trkpt lat="46.22845" lon="10.50833">
        <ele>2224.454</ele>
        <time>2018-09-15T12:07:45Z</time>
      </trkpt>
      <trkpt lat="46.22855" lon="10.50828">
        <ele>2217.117</ele>
        <time>2018-09-15T12:08:05Z</time>
      </trkpt>
      <trkpt lat="46.22867" lon="10.5082">
        <ele>2206.92</ele>
        <time>2018-09-15T12:08:25Z</time>
      </trkpt>
      <trkpt lat="46.22877" lon="10.50824">
        <ele>2207.343</ele>
        <time>2018-09-15T12:08:45Z</time>
      </trkpt>
      <trkpt lat="46.2288" lon="10.50824">
        <ele>2206.461</ele>
        <time>2018-09-15T12:09:05Z</time>
      </trkpt>
      <trkpt lat="46.22889" lon="10.5082">
        <ele>2200.768</ele>
        <time>2018-09-15T12:09:25Z</time>
      </trkpt>
      <trkpt lat="46.22919" lon="10.50837">
        <ele>2189.332</ele>
        <time>2018-09-15T12:09:45Z</time>
      </trkpt>
      <trkpt lat="46.22936" lon="10.50853">
        <ele>2188.892</ele>
        <time>2018-09-15T12:10:05Z</time>
      </trkpt>
      <trkpt lat="46.22951" lon="10.50855">
        <ele>2183.411</ele>
        <time>2018-09-15T12:10:25Z</time>
      </trkpt>
      <trkpt lat="46.22964" lon="10.50866">
        <ele>2180.808</ele>
        <time>2018-09-15T12:10:45Z</time>
      </trkpt>
      <trkpt lat="46.2298" lon="10.50879">
        <ele>2177.895</ele>
        <time>2018-09-15T12:11:05Z</time>
      </trkpt>
      <trkpt lat="46.2299" lon="10.50887">
        <ele>2178.321</ele>
        <time>2018-09-15T12:11:25Z</time>
      </trkpt>
      <trkpt lat="46.23003" lon="10.50881">
        <ele>2175.868</ele>
        <time>2018-09-15T12:11:45Z</time>
      </trkpt>
      <trkpt lat="46.23003" lon="10.50878">
        <ele>2174.931</ele>
        <time>2018-09-15T12:12:05Z</time>
      </trkpt>
      <trkpt lat="46.23006" lon="10.50879">
        <ele>2175.164</ele>
        <time>2018-09-15T12:12:25Z</time>
      </trkpt>
      <trkpt lat="46.2301" lon="10.50878">
        <ele>2175.047</ele>
        <time>2018-09-15T12:12:45Z</time>
      </trkpt>
      <trkpt lat="46.23012" lon="10.50875">
        <ele>2174.775</ele>
        <time>2018-09-15T12:13:05Z</time>
      </trkpt>
      <trkpt lat="46.23011" lon="10.50868">
        <ele>2173.292</ele>
        <time>2018-09-15T12:13:25Z</time>
      </trkpt>
      <trkpt lat="46.2301" lon="10.50866">
        <ele>2172.678</ele>
        <time>2018-09-15T12:13:45Z</time>
      </trkpt>
      <trkpt lat="46.23004" lon="10.5086">
        <ele>2169.633</ele>
        <time>2018-09-15T12:14:05Z</time>
      </trkpt>
      <trkpt lat="46.23001" lon="10.50851">
        <ele>2162.326</ele>
        <time>2018-09-15T12:14:25Z</time>
      </trkpt>
      <trkpt lat="46.2299" lon="10.50835">
        <ele>2155.308</ele>
        <time>2018-09-15T12:14:45Z</time>
      </trkpt>
      <trkpt lat="46.22988" lon="10.50831">
        <ele>2153.529</ele>
        <time>2018-09-15T12:15:05Z</time>
      </trkpt>
      <trkpt lat="46.22983" lon="10.50825">
        <ele>2151.365</ele>
        <time>2018-09-15T12:15:25Z</time>
      </trkpt>
      <trkpt lat="46.22978" lon="10.50819">
        <ele>2150.112</ele>
        <time>2018-09-15T12:15:45Z</time>
      </trkpt>
      <trkpt lat="46.22972" lon="10.50807">
        <ele>2145.955</ele>
        <time>2018-09-15T12:16:05Z</time>
      </trkpt>
      <trkpt lat="46.22967" lon="10.50802">
        <ele>2144.778</ele>
        <time>2018-09-15T12:16:25Z</time>
      </trkpt>
      <trkpt lat="46.2296" lon="10.50796">
        <ele>2144.791</ele>
        <time>2018-09-15T12:16:45Z</time>
      </trkpt>
      <trkpt lat="46.22954" lon="10.50791">
        <ele>2144.239</ele>
        <time>2018-09-15T12:17:05Z</time>
      </trkpt>
      <trkpt lat="46.22951" lon="10.50784">
        <ele>2142.226</ele>
        <time>2018-09-15T12:17:25Z</time>
      </trkpt>
      <trkpt lat="46.22947" lon="10.50777">
        <ele>2139.665</ele>
        <time>2018-09-15T12:17:45Z</time>
      </trkpt>
      <trkpt lat="46.22942" lon="10.5077">
        <ele>2138.468</ele>
        <time>2018-09-15T12:18:05Z</time>
      </trkpt>
      <trkpt lat="46.22936" lon="10.50763">
        <ele>2137.114</ele>
        <time>2018-09-15T12:18:25Z</time>
      </trkpt>
      <trkpt lat="46.2293" lon="10.50754">
        <ele>2136.008</ele>
        <time>2018-09-15T12:18:45Z</time>
      </trkpt>
      <trkpt lat="46.22918" lon="10.50734">
        <ele>2136.868</ele>
        <time>2018-09-15T12:19:05Z</time>
      </trkpt>
      <trkpt lat="46.22916" lon="10.50728">
        <ele>2135.954</ele>
        <time>2018-09-15T12:19:25Z</time>
      </trkpt>
      <trkpt lat="46.22917" lon="10.50721">
        <ele>2133.551</ele>
        <time>2018-09-15T12:19:45Z</time>
      </trkpt>
      <trkpt lat="46.22918" lon="10.50713">
        <ele>2130.864</ele>
        <time>2018-09-15T12:20:05Z</time>
      </trkpt>
      <trkpt lat="46.22919" lon="10.50708">
        <ele>2129.247</ele>
        <time>2018-09-15T12:20:25Z</time>
      </trkpt>
      <trkpt lat="46.22918" lon="10.50701">
        <ele>2127.91</ele>
        <time>2018-09-15T12:20:45Z</time>
      </trkpt>
      <trkpt lat="46.22918" lon="10.50694">
        <ele>2126.228</ele>
        <time>2018-09-15T12:21:05Z</time>
      </trkpt>
      <trkpt lat="46.22918" lon="10.50694">
        <ele>2126.285</ele>
        <time>2018-09-15T12:21:25Z</time>
      </trkpt>
      <trkpt lat="46.22919" lon="10.50687">
        <ele>2126.069</ele>
        <time>2018-09-15T12:21:45Z</time>
      </trkpt>
      <trkpt lat="46.22923" lon="10.50682">
        <ele>2123.304</ele>
        <time>2018-09-15T12:22:05Z</time>
      </trkpt>
      <trkpt lat="46.22929" lon="10.50673">
        <ele>2119.124</ele>
        <time>2018-09-15T12:22:25Z</time>
      </trkpt>
      <trkpt lat="46.22929" lon="10.50666">
        <ele>2119.008</ele>
        <time>2018-09-15T12:22:45Z</time>
      </trkpt>
      <trkpt lat="46.22927" lon="10.50658">
        <ele>2120.838</ele>
        <time>2018-09-15T12:23:05Z</time>
      </trkpt>
      <trkpt lat="46.22927" lon="10.50649">
        <ele>2121.914</ele>
        <time>2018-09-15T12:23:25Z</time>
      </trkpt>
      <trkpt lat="46.22928" lon="10.50645">
        <ele>2121.241</ele>
        <time>2018-09-15T12:23:45Z</time>
      </trkpt>
      <trkpt lat="46.22932" lon="10.50642">
        <ele>2118.224</ele>
        <time>2018-09-15T12:24:05Z</time>
      </trkpt>
      <trkpt lat="46.22934" lon="10.50645">
        <ele>2116.247</ele>
        <time>2018-09-15T12:24:25Z</time>
      </trkpt>
      <trkpt lat="46.22935" lon="10.50627">
        <ele>2116.43</ele>
        <time>2018-09-15T12:24:45Z</time>
      </trkpt>
      <trkpt lat="46.22938" lon="10.50622">
        <ele>2114.398</ele>
        <time>2018-09-15T12:25:05Z</time>
      </trkpt>
      <trkpt lat="46.22941" lon="10.50622">
        <ele>2112.155</ele>
        <time>2018-09-15T12:25:25Z</time>
      </trkpt>
      <trkpt lat="46.22945" lon="10.50632">
        <ele>2108.868</ele>
        <time>2018-09-15T12:25:45Z</time>
      </trkpt>
      <trkpt lat="46.22946" lon="10.50655">
        <ele>2107.442</ele>
        <time>2018-09-15T12:26:05Z</time>
      </trkpt>
      <trkpt lat="46.22949" lon="10.50667">
        <ele>2105.926</ele>
        <time>2018-09-15T12:26:25Z</time>
      </trkpt>
      <trkpt lat="46.22953" lon="10.50682">
        <ele>2105.708</ele>
        <time>2018-09-15T12:26:45Z</time>
      </trkpt>
      <trkpt lat="46.22944" lon="10.50702">
        <ele>2113.828</ele>
        <time>2018-09-15T12:27:05Z</time>
      </trkpt>
      <trkpt lat="46.22945" lon="10.50714">
        <ele>2115.754</ele>
        <time>2018-09-15T12:27:25Z</time>
      </trkpt>
      <trkpt lat="46.22952" lon="10.50723">
        <ele>2113.451</ele>
        <time>2018-09-15T12:27:45Z</time>
      </trkpt>
      <trkpt lat="46.22965" lon="10.50737">
        <ele>2109.484</ele>
        <time>2018-09-15T12:28:05Z</time>
      </trkpt>
      <trkpt lat="46.22973" lon="10.50745">
        <ele>2108.217</ele>
        <time>2018-09-15T12:28:25Z</time>
      </trkpt>
      <trkpt lat="46.22994" lon="10.50757">
        <ele>2105.65</ele>
        <time>2018-09-15T12:28:45Z</time>
      </trkpt>
      <trkpt lat="46.22999" lon="10.50759">
        <ele>2104.678</ele>
        <time>2018-09-15T12:29:05Z</time>
      </trkpt>
      <trkpt lat="46.23" lon="10.50759">
        <ele>2104.295</ele>
        <time>2018-09-15T12:29:25Z</time>
      </trkpt>
      <trkpt lat="46.23001" lon="10.5076">
        <ele>2104.266</ele>
        <time>2018-09-15T12:29:45Z</time>
      </trkpt>
      <trkpt lat="46.23029" lon="10.50761">
        <ele>2096.129</ele>
        <time>2018-09-15T12:30:05Z</time>
      </trkpt>
      <trkpt lat="46.23046" lon="10.50751">
        <ele>2090.721</ele>
        <time>2018-09-15T12:30:25Z</time>
      </trkpt>
      <trkpt lat="46.23068" lon="10.50742">
        <ele>2087.008</ele>
        <time>2018-09-15T12:30:45Z</time>
      </trkpt>
      <trkpt lat="46.23069" lon="10.50742">
        <ele>2086.968</ele>
        <time>2018-09-15T12:31:05Z</time>
      </trkpt>
      <trkpt lat="46.23075" lon="10.50738">
        <ele>2085.654</ele>
        <time>2018-09-15T12:31:25Z</time>
      </trkpt>
      <trkpt lat="46.23137" lon="10.50698">
        <ele>2070.691</ele>
        <time>2018-09-15T12:31:45Z</time>
      </trkpt>
      <trkpt lat="46.23147" lon="10.50689">
        <ele>2066.714</ele>
        <time>2018-09-15T12:32:05Z</time>
      </trkpt>
      <trkpt lat="46.23158" lon="10.50682">
        <ele>2064.987</ele>
        <time>2018-09-15T12:32:25Z</time>
      </trkpt>
      <trkpt lat="46.23174" lon="10.5067">
        <ele>2062.19</ele>
        <time>2018-09-15T12:32:45Z</time>
      </trkpt>
      <trkpt lat="46.23181" lon="10.50664">
        <ele>2061.278</ele>
        <time>2018-09-15T12:33:05Z</time>
      </trkpt>
      <trkpt lat="46.23192" lon="10.50654">
        <ele>2060.075</ele>
        <time>2018-09-15T12:33:25Z</time>
      </trkpt>
      <trkpt lat="46.23195" lon="10.50651">
        <ele>2059.777</ele>
        <time>2018-09-15T12:33:45Z</time>
      </trkpt>
      <trkpt lat="46.23208" lon="10.50638">
        <ele>2057.561</ele>
        <time>2018-09-15T12:34:05Z</time>
      </trkpt>
      <trkpt lat="46.23227" lon="10.50614">
        <ele>2051.227</ele>
        <time>2018-09-15T12:34:25Z</time>
      </trkpt>
      <trkpt lat="46.23248" lon="10.50583">
        <ele>2044.408</ele>
        <time>2018-09-15T12:34:45Z</time>
      </trkpt>
      <trkpt lat="46.23266" lon="10.50561">
        <ele>2039.779</ele>
        <time>2018-09-15T12:35:05Z</time>
      </trkpt>
      <trkpt lat="46.2328" lon="10.50545">
        <ele>2035.225</ele>
        <time>2018-09-15T12:35:25Z</time>
      </trkpt>
      <trkpt lat="46.23296" lon="10.5053">
        <ele>2031.622</ele>
        <time>2018-09-15T12:35:45Z</time>
      </trkpt>
      <trkpt lat="46.23313" lon="10.50518">
        <ele>2029.475</ele>
        <time>2018-09-15T12:36:05Z</time>
      </trkpt>
      <trkpt lat="46.23337" lon="10.50508">
        <ele>2028.098</ele>
        <time>2018-09-15T12:36:25Z</time>
      </trkpt>
      <trkpt lat="46.23372" lon="10.50496">
        <ele>2021.881</ele>
        <time>2018-09-15T12:36:45Z</time>
      </trkpt>
      <trkpt lat="46.23374" lon="10.50495">
        <ele>2021.139</ele>
        <time>2018-09-15T12:37:05Z</time>
      </trkpt>
      <trkpt lat="46.23427" lon="10.50467">
        <ele>2009.176</ele>
        <time>2018-09-15T12:37:25Z</time>
      </trkpt>
      <trkpt lat="46.23443" lon="10.50457">
        <ele>2006.498</ele>
        <time>2018-09-15T12:37:45Z</time>
      </trkpt>
      <trkpt lat="46.23457" lon="10.50449">
        <ele>2005.315</ele>
        <time>2018-09-15T12:38:05Z</time>
      </trkpt>
      <trkpt lat="46.23485" lon="10.50429">
        <ele>1999.326</ele>
        <time>2018-09-15T12:38:25Z</time>
      </trkpt>
      <trkpt lat="46.23488" lon="10.50427">
        <ele>1998.408</ele>
        <time>2018-09-15T12:38:45Z</time>
      </trkpt>
      <trkpt lat="46.2351" lon="10.50414">
        <ele>1993.731</ele>
        <time>2018-09-15T12:39:05Z</time>
      </trkpt>
      <trkpt lat="46.2353" lon="10.50404">
        <ele>1990.777</ele>
        <time>2018-09-15T12:39:25Z</time>
      </trkpt>
      <trkpt lat="46.23548" lon="10.50397">
        <ele>1987.264</ele>
        <time>2018-09-15T12:39:45Z</time>
      </trkpt>
      <trkpt lat="46.23568" lon="10.5039">
        <ele>1981.577</ele>
        <time>2018-09-15T12:40:05Z</time>
      </trkpt>
      <trkpt lat="46.23592" lon="10.50378">
        <ele>1974.53</ele>
        <time>2018-09-15T12:40:25Z</time>
      </trkpt>
      <trkpt lat="46.23611" lon="10.50366">
        <ele>1969.813</ele>
        <time>2018-09-15T12:40:45Z</time>
      </trkpt>
      <trkpt lat="46.23626" lon="10.50361">
        <ele>1970.191</ele>
        <time>2018-09-15T12:41:05Z</time>
      </trkpt>
      <trkpt lat="46.23634" lon="10.50361">
        <ele>1970.938</ele>
        <time>2018-09-15T12:41:25Z</time>
      </trkpt>
      <trkpt lat="46.23649" lon="10.5036">
        <ele>1971.497</ele>
        <time>2018-09-15T12:41:45Z</time>
      </trkpt>
      <trkpt lat="46.23654" lon="10.50357">
        <ele>1970.123</ele>
        <time>2018-09-15T12:42:05Z</time>
      </trkpt>
      <trkpt lat="46.23662" lon="10.50347">
        <ele>1965.725</ele>
        <time>2018-09-15T12:42:25Z</time>
      </trkpt>
      <trkpt lat="46.23674" lon="10.5034">
        <ele>1962.908</ele>
        <time>2018-09-15T12:42:45Z</time>
      </trkpt>
      <trkpt lat="46.23703" lon="10.50321">
        <ele>1955.921</ele>
        <time>2018-09-15T12:43:05Z</time>
      </trkpt>
      <trkpt lat="46.23719" lon="10.50315">
        <ele>1953.317</ele>
        <time>2018-09-15T12:43:25Z</time>
      </trkpt>
      <trkpt lat="46.23731" lon="10.50316">
        <ele>1952.854</ele>
        <time>2018-09-15T12:43:45Z</time>
      </trkpt>
      <trkpt lat="46.23746" lon="10.5032">
        <ele>1951.547</ele>
        <time>2018-09-15T12:44:05Z</time>
      </trkpt>
      <trkpt lat="46.23748" lon="10.5032">
        <ele>1951.21</ele>
        <time>2018-09-15T12:44:25Z</time>
      </trkpt>
      <trkpt lat="46.23751" lon="10.5032">
        <ele>1950.853</ele>
        <time>2018-09-15T12:44:45Z</time>
      </trkpt>
      <trkpt lat="46.23763" lon="10.50319">
        <ele>1949.051</ele>
        <time>2018-09-15T12:45:05Z</time>
      </trkpt>
      <trkpt lat="46.23784" lon="10.50319">
        <ele>1945.428</ele>
        <time>2018-09-15T12:45:25Z</time>
      </trkpt>
      <trkpt lat="46.23798" lon="10.5032">
        <ele>1942.762</ele>
        <time>2018-09-15T12:45:45Z</time>
      </trkpt>
      <trkpt lat="46.23802" lon="10.5032">
        <ele>1942.083</ele>
        <time>2018-09-15T12:46:05Z</time>
      </trkpt>
      <trkpt lat="46.23799" lon="10.50311">
        <ele>1939.111</ele>
        <time>2018-09-15T12:46:25Z</time>
      </trkpt>
      <trkpt lat="46.23797" lon="10.50308">
        <ele>1938.908</ele>
        <time>2018-09-15T12:46:45Z</time>
      </trkpt>
      <trkpt lat="46.2378" lon="10.503">
        <ele>1940.328</ele>
        <time>2018-09-15T12:47:05Z</time>
      </trkpt>
      <trkpt lat="46.23768" lon="10.50295">
        <ele>1940.734</ele>
        <time>2018-09-15T12:47:25Z</time>
      </trkpt>
      <trkpt lat="46.23753" lon="10.50287">
        <ele>1938.961</ele>
        <time>2018-09-15T12:47:45Z</time>
      </trkpt>
      <trkpt lat="46.23741" lon="10.50276">
        <ele>1933.414</ele>
        <time>2018-09-15T12:48:05Z</time>
      </trkpt>
      <trkpt lat="46.23732" lon="10.5026">
        <ele>1924.947</ele>
        <time>2018-09-15T12:48:25Z</time>
      </trkpt>
      <trkpt lat="46.23728" lon="10.50255">
        <ele>1922.86</ele>
        <time>2018-09-15T12:48:45Z</time>
      </trkpt>
      <trkpt lat="46.23704" lon="10.50244">
        <ele>1918.878</ele>
        <time>2018-09-15T12:49:05Z</time>
      </trkpt>
      <trkpt lat="46.23678" lon="10.50237">
        <ele>1914.715</ele>
        <time>2018-09-15T12:49:25Z</time>
      </trkpt>
      <trkpt lat="46.23627" lon="10.50227">
        <ele>1905.815</ele>
        <time>2018-09-15T12:49:45Z</time>
      </trkpt>
      <trkpt lat="46.23614" lon="10.50223">
        <ele>1904.265</ele>
        <time>2018-09-15T12:50:05Z</time>
      </trkpt>
      <trkpt lat="46.23607" lon="10.50223">
        <ele>1904.311</ele>
        <time>2018-09-15T12:50:25Z</time>
      </trkpt>
      <trkpt lat="46.23598" lon="10.50219">
        <ele>1903.408</ele>
        <time>2018-09-15T12:50:45Z</time>
      </trkpt>
      <trkpt lat="46.23584" lon="10.50213">
        <ele>1902.143</ele>
        <time>2018-09-15T12:51:05Z</time>
      </trkpt>
      <trkpt lat="46.23574" lon="10.50206">
        <ele>1899.879</ele>
        <time>2018-09-15T12:51:25Z</time>
      </trkpt>
      <trkpt lat="46.23565" lon="10.50196">
        <ele>1896.686</ele>
        <time>2018-09-15T12:51:45Z</time>
      </trkpt>
      <trkpt lat="46.23559" lon="10.50189">
        <ele>1894.499</ele>
        <time>2018-09-15T12:52:05Z</time>
      </trkpt>
      <trkpt lat="46.23552" lon="10.50172">
        <ele>1890.782</ele>
        <time>2018-09-15T12:52:25Z</time>
      </trkpt>
      <trkpt lat="46.23544" lon="10.5016">
        <ele>1887.735</ele>
        <time>2018-09-15T12:52:45Z</time>
      </trkpt>
      <trkpt lat="46.23531" lon="10.50151">
        <ele>1885.693</ele>
        <time>2018-09-15T12:53:05Z</time>
      </trkpt>
      <trkpt lat="46.23511" lon="10.50141">
        <ele>1882.68</ele>
        <time>2018-09-15T12:53:25Z</time>
      </trkpt>
      <trkpt lat="46.23486" lon="10.50138">
        <ele>1882.189</ele>
        <time>2018-09-15T12:53:45Z</time>
      </trkpt>
      <trkpt lat="46.23455" lon="10.50121">
        <ele>1877.206</ele>
        <time>2018-09-15T12:54:05Z</time>
      </trkpt>
      <trkpt lat="46.23495" lon="10.50107">
        <ele>1870.026</ele>
        <time>2018-09-15T12:54:25Z</time>
      </trkpt>
      <trkpt lat="46.2353" lon="10.5007">
        <ele>1857.308</ele>
        <time>2018-09-15T12:54:45Z</time>
      </trkpt>
      <trkpt lat="46.23553" lon="10.50052">
        <ele>1850.97</ele>
        <time>2018-09-15T12:55:05Z</time>
      </trkpt>
      <trkpt lat="46.23568" lon="10.50058">
        <ele>1851.076</ele>
        <time>2018-09-15T12:55:25Z</time>
      </trkpt>
      <trkpt lat="46.23577" lon="10.50054">
        <ele>1848.453</ele>
        <time>2018-09-15T12:55:45Z</time>
      </trkpt>
      <trkpt lat="46.2363" lon="10.50025">
        <ele>1837.336</ele>
        <time>2018-09-15T12:56:05Z</time>
      </trkpt>
      <trkpt lat="46.23695" lon="10.50013">
        <ele>1826.029</ele>
        <time>2018-09-15T12:56:25Z</time>
      </trkpt>
      <trkpt lat="46.2371" lon="10.50015">
        <ele>1822.652</ele>
        <time>2018-09-15T12:56:45Z</time>
      </trkpt>
      <trkpt lat="46.23716" lon="10.50016">
        <ele>1821.16</ele>
        <time>2018-09-15T12:57:05Z</time>
      </trkpt>
      <trkpt lat="46.23733" lon="10.50018">
        <ele>1818.267</ele>
        <time>2018-09-15T12:57:25Z</time>
      </trkpt>
      <trkpt lat="46.23734" lon="10.50018">
        <ele>1818.053</ele>
        <time>2018-09-15T12:57:45Z</time>
      </trkpt>
      <trkpt lat="46.23757" lon="10.50027">
        <ele>1816.204</ele>
        <time>2018-09-15T12:58:05Z</time>
      </trkpt>
      <trkpt lat="46.23808" lon="10.50029">
        <ele>1806.914</ele>
        <time>2018-09-15T12:58:25Z</time>
      </trkpt>
      <trkpt lat="46.2381" lon="10.50029">
        <ele>1806.308</ele>
        <time>2018-09-15T12:58:45Z</time>
      </trkpt>
      <trkpt lat="46.23836" lon="10.50044">
        <ele>1805.427</ele>
        <time>2018-09-15T12:59:05Z</time>
      </trkpt>
      <trkpt lat="46.23857" lon="10.50054">
        <ele>1801.413</ele>
        <time>2018-09-15T12:59:25Z</time>
      </trkpt>
      <trkpt lat="46.23869" lon="10.50055">
        <ele>1797.89</ele>
        <time>2018-09-15T12:59:45Z</time>
      </trkpt>
      <trkpt lat="46.23881" lon="10.50055">
        <ele>1794.673</ele>
        <time>2018-09-15T13:00:05Z</time>
      </trkpt>
      <trkpt lat="46.23904" lon="10.50039">
        <ele>1785.516</ele>
        <time>2018-09-15T13:00:25Z</time>
      </trkpt>
      <trkpt lat="46.23902" lon="10.5001">
        <ele>1778.189</ele>
        <time>2018-09-15T13:00:45Z</time>
      </trkpt>
      <trkpt lat="46.23904" lon="10.49975">
        <ele>1770.337</ele>
        <time>2018-09-15T13:01:05Z</time>
      </trkpt>
      <trkpt lat="46.23851" lon="10.49972">
        <ele>1779.524</ele>
        <time>2018-09-15T13:01:25Z</time>
      </trkpt>
      <trkpt lat="46.23823" lon="10.49958">
        <ele>1782.137</ele>
        <time>2018-09-15T13:01:45Z</time>
      </trkpt>
      <trkpt lat="46.23817" lon="10.49956">
        <ele>1782.549</ele>
        <time>2018-09-15T13:02:05Z</time>
      </trkpt>
      <trkpt lat="46.2381" lon="10.49953">
        <ele>1782.913</ele>
        <time>2018-09-15T13:02:25Z</time>
      </trkpt>
      <trkpt lat="46.2381" lon="10.49953">
        <ele>1782.908</ele>
        <time>2018-09-15T13:02:45Z</time>
      </trkpt>
      <trkpt lat="46.23792" lon="10.49946">
        <ele>1783.355</ele>
        <time>2018-09-15T13:03:05Z</time>
      </trkpt>
      <trkpt lat="46.23779" lon="10.49943">
        <ele>1784.241</ele>
        <time>2018-09-15T13:03:25Z</time>
      </trkpt>
      <trkpt lat="46.23763" lon="10.49933">
        <ele>1784.448</ele>
        <time>2018-09-15T13:03:45Z</time>
      </trkpt>
      <trkpt lat="46.23751" lon="10.49929">
        <ele>1785.141</ele>
        <time>2018-09-15T13:04:05Z</time>
      </trkpt>
      <trkpt lat="46.23741" lon="10.49925">
        <ele>1785.734</ele>
        <time>2018-09-15T13:04:25Z</time>
      </trkpt>
      <trkpt lat="46.23728" lon="10.49924">
        <ele>1787.937</ele>
        <time>2018-09-15T13:04:45Z</time>
      </trkpt>
      <trkpt lat="46.2372" lon="10.4992">
        <ele>1787.785</ele>
        <time>2018-09-15T13:05:05Z</time>
      </trkpt>
      <trkpt lat="46.23717" lon="10.49918">
        <ele>1787.772</ele>
        <time>2018-09-15T13:05:25Z</time>
      </trkpt>
      <trkpt lat="46.23705" lon="10.49912">
        <ele>1788.374</ele>
        <time>2018-09-15T13:05:45Z</time>
      </trkpt>
      <trkpt lat="46.2369" lon="10.49905">
        <ele>1788.856</ele>
        <time>2018-09-15T13:06:05Z</time>
      </trkpt>
      <trkpt lat="46.23684" lon="10.49902">
        <ele>1788.821</ele>
        <time>2018-09-15T13:06:25Z</time>
      </trkpt>
      <trkpt lat="46.23671" lon="10.49895">
        <ele>1789.208</ele>
        <time>2018-09-15T13:06:45Z</time>
      </trkpt>
      <trkpt lat="46.23659" lon="10.4988">
        <ele>1790.259</ele>
        <time>2018-09-15T13:07:05Z</time>
      </trkpt>
      <trkpt lat="46.23659" lon="10.49878">
        <ele>1790.215</ele>
        <time>2018-09-15T13:07:25Z</time>
      </trkpt>
      <trkpt lat="46.23657" lon="10.49878">
        <ele>1790.642</ele>
        <time>2018-09-15T13:07:45Z</time>
      </trkpt>
      <trkpt lat="46.23658" lon="10.49875">
        <ele>1790.765</ele>
        <time>2018-09-15T13:08:05Z</time>
      </trkpt>
      <trkpt lat="46.23657" lon="10.49865">
        <ele>1791.738</ele>
        <time>2018-09-15T13:08:25Z</time>
      </trkpt>
      <trkpt lat="46.23657" lon="10.49849">
        <ele>1795.851</ele>
        <time>2018-09-15T13:08:45Z</time>
      </trkpt>
      <trkpt lat="46.23654" lon="10.49833">
        <ele>1800.839</ele>
        <time>2018-09-15T13:09:05Z</time>
      </trkpt>
      <trkpt lat="46.23654" lon="10.49821">
        <ele>1804.366</ele>
        <time>2018-09-15T13:09:25Z</time>
      </trkpt>
      <trkpt lat="46.23659" lon="10.4981">
        <ele>1806.982</ele>
        <time>2018-09-15T13:09:45Z</time>
      </trkpt>
      <trkpt lat="46.23648" lon="10.49813">
        <ele>1807.543</ele>
        <time>2018-09-15T13:10:05Z</time>
      </trkpt>
      <trkpt lat="46.23639" lon="10.49815">
        <ele>1808.317</ele>
        <time>2018-09-15T13:10:25Z</time>
      </trkpt>
      <trkpt lat="46.23632" lon="10.49821">
        <ele>1807.908</ele>
        <time>2018-09-15T13:10:45Z</time>
      </trkpt>
      <trkpt lat="46.23625" lon="10.49831">
        <ele>1806.37</ele>
        <time>2018-09-15T13:11:05Z</time>
      </trkpt>
      <trkpt lat="46.2362" lon="10.49823">
        <ele>1809.326</ele>
        <time>2018-09-15T13:11:25Z</time>
      </trkpt>
      <trkpt lat="46.2362" lon="10.49822">
        <ele>1809.553</ele>
        <time>2018-09-15T13:11:45Z</time>
      </trkpt>
      <trkpt lat="46.2362" lon="10.49822">
        <ele>1809.656</ele>
        <time>2018-09-15T13:12:05Z</time>
      </trkpt>
      <trkpt lat="46.23622" lon="10.49809">
        <ele>1813.119</ele>
        <time>2018-09-15T13:12:25Z</time>
      </trkpt>
      <trkpt lat="46.23626" lon="10.49801">
        <ele>1814.382</ele>
        <time>2018-09-15T13:12:45Z</time>
      </trkpt>
      <trkpt lat="46.23634" lon="10.49791">
        <ele>1815.75</ele>
        <time>2018-09-15T13:13:05Z</time>
      </trkpt>
      <trkpt lat="46.2364" lon="10.49776">
        <ele>1818.217</ele>
        <time>2018-09-15T13:13:25Z</time>
      </trkpt>
      <trkpt lat="46.23647" lon="10.49764">
        <ele>1820.861</ele>
        <time>2018-09-15T13:13:45Z</time>
      </trkpt>
      <trkpt lat="46.23654" lon="10.49756">
        <ele>1822.721</ele>
        <time>2018-09-15T13:14:05Z</time>
      </trkpt>
      <trkpt lat="46.23659" lon="10.49749">
        <ele>1824.713</ele>
        <time>2018-09-15T13:14:25Z</time>
      </trkpt>
      <trkpt lat="46.23664" lon="10.49748">
        <ele>1824.808</ele>
        <time>2018-09-15T13:14:45Z</time>
      </trkpt>
      <trkpt lat="46.23671" lon="10.49743">
        <ele>1825.918</ele>
        <time>2018-09-15T13:15:05Z</time>
      </trkpt>
      <trkpt lat="46.23674" lon="10.49741">
        <ele>1826.314</ele>
        <time>2018-09-15T13:15:25Z</time>
      </trkpt>
      <trkpt lat="46.23678" lon="10.49734">
        <ele>1828.391</ele>
        <time>2018-09-15T13:15:45Z</time>
      </trkpt>
      <trkpt lat="46.23683" lon="10.49732">
        <ele>1827.954</ele>
        <time>2018-09-15T13:16:05Z</time>
      </trkpt>
      <trkpt lat="46.23689" lon="10.49728">
        <ele>1827.637</ele>
        <time>2018-09-15T13:16:25Z</time>
      </trkpt>
      <trkpt lat="46.23691" lon="10.49718">
        <ele>1830.12</ele>
        <time>2018-09-15T13:16:45Z</time>
      </trkpt>
      <trkpt lat="46.2369" lon="10.49696">
        <ele>1835.358</ele>
        <time>2018-09-15T13:17:05Z</time>
      </trkpt>
      <trkpt lat="46.23689" lon="10.49683">
        <ele>1838.385</ele>
        <time>2018-09-15T13:17:25Z</time>
      </trkpt>
      <trkpt lat="46.23692" lon="10.4967">
        <ele>1839.171</ele>
        <time>2018-09-15T13:17:45Z</time>
      </trkpt>
      <trkpt lat="46.23688" lon="10.49645">
        <ele>1845.741</ele>
        <time>2018-09-15T13:18:05Z</time>
      </trkpt>
      <trkpt lat="46.23676" lon="10.49621">
        <ele>1854.115</ele>
        <time>2018-09-15T13:18:25Z</time>
      </trkpt>
      <trkpt lat="46.23649" lon="10.496">
        <ele>1862.608</ele>
        <time>2018-09-15T13:18:45Z</time>
      </trkpt>
      <trkpt lat="46.23628" lon="10.49579">
        <ele>1867.499</ele>
        <time>2018-09-15T13:19:05Z</time>
      </trkpt>
      <trkpt lat="46.23613" lon="10.4956">
        <ele>1869.825</ele>
        <time>2018-09-15T13:19:25Z</time>
      </trkpt>
      <trkpt lat="46.23593" lon="10.49531">
        <ele>1870.832</ele>
        <time>2018-09-15T13:19:45Z</time>
      </trkpt>
      <trkpt lat="46.23575" lon="10.49513">
        <ele>1872.045</ele>
        <time>2018-09-15T13:20:05Z</time>
      </trkpt>
      <trkpt lat="46.23534" lon="10.49516">
        <ele>1879.128</ele>
        <time>2018-09-15T13:20:25Z</time>
      </trkpt>
      <trkpt lat="46.23495" lon="10.49531">
        <ele>1878.751</ele>
        <time>2018-09-15T13:20:45Z</time>
      </trkpt>
      <trkpt lat="46.23482" lon="10.4954">
        <ele>1878.689</ele>
        <time>2018-09-15T13:21:05Z</time>
      </trkpt>
      <trkpt lat="46.23468" lon="10.49551">
        <ele>1879.246</ele>
        <time>2018-09-15T13:21:25Z</time>
      </trkpt>
      <trkpt lat="46.23456" lon="10.49562">
        <ele>1881.184</ele>
        <time>2018-09-15T13:21:45Z</time>
      </trkpt>
      <trkpt lat="46.2343" lon="10.49584">
        <ele>1886.707</ele>
        <time>2018-09-15T13:22:05Z</time>
      </trkpt>
      <trkpt lat="46.23395" lon="10.49583">
        <ele>1881.817</ele>
        <time>2018-09-15T13:22:25Z</time>
      </trkpt>
      <trkpt lat="46.2337" lon="10.49575">
        <ele>1876.708</ele>
        <time>2018-09-15T13:22:45Z</time>
      </trkpt>
      <trkpt lat="46.23355" lon="10.49571">
        <ele>1876.31</ele>
        <time>2018-09-15T13:23:05Z</time>
      </trkpt>
      <trkpt lat="46.23343" lon="10.49552">
        <ele>1871.026</ele>
        <time>2018-09-15T13:23:25Z</time>
      </trkpt>
      <trkpt lat="46.23315" lon="10.49539">
        <ele>1874.663</ele>
        <time>2018-09-15T13:23:45Z</time>
      </trkpt>
      <trkpt lat="46.23306" lon="10.49524">
        <ele>1873.476</ele>
        <time>2018-09-15T13:24:05Z</time>
      </trkpt>
      <trkpt lat="46.23292" lon="10.49521">
        <ele>1874.639</ele>
        <time>2018-09-15T13:24:25Z</time>
      </trkpt>
      <trkpt lat="46.23277" lon="10.49514">
        <ele>1875.132</ele>
        <time>2018-09-15T13:24:45Z</time>
      </trkpt>
      <trkpt lat="46.23263" lon="10.49511">
        <ele>1875.65</ele>
        <time>2018-09-15T13:25:05Z</time>
      </trkpt>
      <trkpt lat="46.23255" lon="10.49477">
        <ele>1867.787</ele>
        <time>2018-09-15T13:25:25Z</time>
      </trkpt>
      <trkpt lat="46.23229" lon="10.49471">
        <ele>1866.094</ele>
        <time>2018-09-15T13:25:45Z</time>
      </trkpt>
      <trkpt lat="46.23222" lon="10.49473">
        <ele>1866.157</ele>
        <time>2018-09-15T13:26:05Z</time>
      </trkpt>
      <trkpt lat="46.23212" lon="10.49468">
        <ele>1864.122</ele>
        <time>2018-09-15T13:26:25Z</time>
      </trkpt>
      <trkpt lat="46.23217" lon="10.49451">
        <ele>1861.008</ele>
        <time>2018-09-15T13:26:45Z</time>
      </trkpt>
      <trkpt lat="46.2322" lon="10.49448">
        <ele>1860.521</ele>
        <time>2018-09-15T13:27:05Z</time>
      </trkpt>
      <trkpt lat="46.23242" lon="10.4943">
        <ele>1855.327</ele>
        <time>2018-09-15T13:27:25Z</time>
      </trkpt>
      <trkpt lat="46.23249" lon="10.49427">
        <ele>1854.134</ele>
        <time>2018-09-15T13:27:45Z</time>
      </trkpt>
      <trkpt lat="46.23255" lon="10.49425">
        <ele>1852.447</ele>
        <time>2018-09-15T13:28:05Z</time>
      </trkpt>
      <trkpt lat="46.23256" lon="10.49424">
        <ele>1852.19</ele>
        <time>2018-09-15T13:28:25Z</time>
      </trkpt>
      <trkpt lat="46.23265" lon="10.49416">
        <ele>1847.953</ele>
        <time>2018-09-15T13:28:45Z</time>
      </trkpt>
      <trkpt lat="46.23271" lon="10.49414">
        <ele>1846.191</ele>
        <time>2018-09-15T13:29:05Z</time>
      </trkpt>
      <trkpt lat="46.2328" lon="10.49418">
        <ele>1845.258</ele>
        <time>2018-09-15T13:29:25Z</time>
      </trkpt>
      <trkpt lat="46.23297" lon="10.49439">
        <ele>1844.716</ele>
        <time>2018-09-15T13:29:45Z</time>
      </trkpt>
      <trkpt lat="46.23316" lon="10.49453">
        <ele>1841.576</ele>
        <time>2018-09-15T13:30:05Z</time>
      </trkpt>
      <trkpt lat="46.23333" lon="10.49468">
        <ele>1838.513</ele>
        <time>2018-09-15T13:30:25Z</time>
      </trkpt>
      <trkpt lat="46.23339" lon="10.49471">
        <ele>1839.008</ele>
        <time>2018-09-15T13:30:45Z</time>
      </trkpt>
      <trkpt lat="46.23371" lon="10.49449">
        <ele>1831.433</ele>
        <time>2018-09-15T13:31:05Z</time>
      </trkpt>
      <trkpt lat="46.23372" lon="10.49443">
        <ele>1829.629</ele>
        <time>2018-09-15T13:31:25Z</time>
      </trkpt>
      <trkpt lat="46.23382" lon="10.49431">
        <ele>1826.246</ele>
        <time>2018-09-15T13:31:45Z</time>
      </trkpt>
      <trkpt lat="46.23394" lon="10.49421">
        <ele>1823.149</ele>
        <time>2018-09-15T13:32:05Z</time>
      </trkpt>
      <trkpt lat="46.23398" lon="10.49408">
        <ele>1819.642</ele>
        <time>2018-09-15T13:32:25Z</time>
      </trkpt>
      <trkpt lat="46.23405" lon="10.49389">
        <ele>1814.595</ele>
        <time>2018-09-15T13:32:45Z</time>
      </trkpt>
      <trkpt lat="46.23412" lon="10.49382">
        <ele>1812.493</ele>
        <time>2018-09-15T13:33:05Z</time>
      </trkpt>
      <trkpt lat="46.2342" lon="10.49377">
        <ele>1810.67</ele>
        <time>2018-09-15T13:33:25Z</time>
      </trkpt>
      <trkpt lat="46.23437" lon="10.49387">
        <ele>1811.941</ele>
        <time>2018-09-15T13:33:45Z</time>
      </trkpt>
      <trkpt lat="46.23443" lon="10.49376">
        <ele>1808.381</ele>
        <time>2018-09-15T13:34:05Z</time>
      </trkpt>
      <trkpt lat="46.23443" lon="10.49371">
        <ele>1807.009</ele>
        <time>2018-09-15T13:34:25Z</time>
      </trkpt>
      <trkpt lat="46.2344" lon="10.49362">
        <ele>1804.708</ele>
        <time>2018-09-15T13:34:45Z</time>
      </trkpt>
      <trkpt lat="46.23435" lon="10.49355">
        <ele>1803.386</ele>
        <time>2018-09-15T13:35:05Z</time>
      </trkpt>
      <trkpt lat="46.23429" lon="10.4935">
        <ele>1802.532</ele>
        <time>2018-09-15T13:35:25Z</time>
      </trkpt>
      <trkpt lat="46.23424" lon="10.49344">
        <ele>1801.699</ele>
        <time>2018-09-15T13:35:45Z</time>
      </trkpt>
      <trkpt lat="46.23421" lon="10.49337">
        <ele>1800.172</ele>
        <time>2018-09-15T13:36:05Z</time>
      </trkpt>
      <trkpt lat="46.23423" lon="10.49328">
        <ele>1796.675</ele>
        <time>2018-09-15T13:36:25Z</time>
      </trkpt>
      <trkpt lat="46.23434" lon="10.49315">
        <ele>1789.618</ele>
        <time>2018-09-15T13:36:45Z</time>
      </trkpt>
      <trkpt lat="46.23449" lon="10.49302">
        <ele>1783.516</ele>
        <time>2018-09-15T13:37:05Z</time>
      </trkpt>
      <trkpt lat="46.23458" lon="10.493">
        <ele>1782.123</ele>
        <time>2018-09-15T13:37:25Z</time>
      </trkpt>
      <trkpt lat="46.23459" lon="10.49294">
        <ele>1779.669</ele>
        <time>2018-09-15T13:37:45Z</time>
      </trkpt>
      <trkpt lat="46.23458" lon="10.4929">
        <ele>1778.404</ele>
        <time>2018-09-15T13:38:05Z</time>
      </trkpt>
      <trkpt lat="46.23447" lon="10.49281">
        <ele>1776.124</ele>
        <time>2018-09-15T13:38:25Z</time>
      </trkpt>
      <trkpt lat="46.23439" lon="10.49274">
        <ele>1773.708</ele>
        <time>2018-09-15T13:38:45Z</time>
      </trkpt>
      <trkpt lat="46.23437" lon="10.49268">
        <ele>1771.848</ele>
        <time>2018-09-15T13:39:05Z</time>
      </trkpt>
      <trkpt lat="46.23446" lon="10.49257">
        <ele>1768.014</ele>
        <time>2018-09-15T13:39:25Z</time>
      </trkpt>
      <trkpt lat="46.23429" lon="10.49243">
        <ele>1763.941</ele>
        <time>2018-09-15T13:39:45Z</time>
      </trkpt>
      <trkpt lat="46.23416" lon="10.49236">
        <ele>1761.964</ele>
        <time>2018-09-15T13:40:05Z</time>
      </trkpt>
      <trkpt lat="46.23406" lon="10.49222">
        <ele>1757.117</ele>
        <time>2018-09-15T13:40:25Z</time>
      </trkpt>
      <trkpt lat="46.23396" lon="10.49215">
        <ele>1754.48</ele>
        <time>2018-09-15T13:40:45Z</time>
      </trkpt>
      <trkpt lat="46.2339" lon="10.49208">
        <ele>1752.138</ele>
        <time>2018-09-15T13:41:05Z</time>
      </trkpt>
      <trkpt lat="46.2339" lon="10.49204">
        <ele>1750.865</ele>
        <time>2018-09-15T13:41:25Z</time>
      </trkpt>
      <trkpt lat="46.2339" lon="10.4919">
        <ele>1747.057</ele>
        <time>2018-09-15T13:41:45Z</time>
      </trkpt>
      <trkpt lat="46.23392" lon="10.49181">
        <ele>1745.1</ele>
        <time>2018-09-15T13:42:05Z</time>
      </trkpt>
      <trkpt lat="46.23381" lon="10.49176">
        <ele>1742.82</ele>
        <time>2018-09-15T13:42:25Z</time>
      </trkpt>
      <trkpt lat="46.2337" lon="10.49168">
        <ele>1739.608</ele>
        <time>2018-09-15T13:42:45Z</time>
      </trkpt>
      <trkpt lat="46.23366" lon="10.49157">
        <ele>1736.547</ele>
        <time>2018-09-15T13:43:05Z</time>
      </trkpt>
      <trkpt lat="46.23362" lon="10.49135">
        <ele>1731.383</ele>
        <time>2018-09-15T13:43:25Z</time>
      </trkpt>
      <trkpt lat="46.23357" lon="10.49128">
        <ele>1728.55</ele>
        <time>2018-09-15T13:43:45Z</time>
      </trkpt>
      <trkpt lat="46.23349" lon="10.49122">
        <ele>1724.663</ele>
        <time>2018-09-15T13:44:05Z</time>
      </trkpt>
      <trkpt lat="46.23336" lon="10.49106">
        <ele>1716.886</ele>
        <time>2018-09-15T13:44:25Z</time>
      </trkpt>
      <trkpt lat="46.23326" lon="10.49089">
        <ele>1711.749</ele>
        <time>2018-09-15T13:44:45Z</time>
      </trkpt>
      <trkpt lat="46.2331" lon="10.49082">
        <ele>1707.597</ele>
        <time>2018-09-15T13:45:05Z</time>
      </trkpt>
      <trkpt lat="46.23302" lon="10.49066">
        <ele>1703.294</ele>
        <time>2018-09-15T13:45:25Z</time>
      </trkpt>
      <trkpt lat="46.23288" lon="10.49057">
        <ele>1700.624</ele>
        <time>2018-09-15T13:45:45Z</time>
      </trkpt>
      <trkpt lat="46.23285" lon="10.49048">
        <ele>1698.604</ele>
        <time>2018-09-15T13:46:05Z</time>
      </trkpt>
      <trkpt lat="46.23286" lon="10.49048">
        <ele>1698.714</ele>
        <time>2018-09-15T13:46:25Z</time>
      </trkpt>
      <trkpt lat="46.23281" lon="10.49039">
        <ele>1696.408</ele>
        <time>2018-09-15T13:46:45Z</time>
      </trkpt>
      <trkpt lat="46.23274" lon="10.49033">
        <ele>1695.994</ele>
        <time>2018-09-15T13:47:05Z</time>
      </trkpt>
      <trkpt lat="46.23265" lon="10.49019">
        <ele>1694.67</ele>
        <time>2018-09-15T13:47:25Z</time>
      </trkpt>
      <trkpt lat="46.23259" lon="10.49003">
        <ele>1691.837</ele>
        <time>2018-09-15T13:47:45Z</time>
      </trkpt>
      <trkpt lat="46.23255" lon="10.48998">
        <ele>1691.05</ele>
        <time>2018-09-15T13:48:05Z</time>
      </trkpt>
      <trkpt lat="46.23252" lon="10.48998">
        <ele>1691.323</ele>
        <time>2018-09-15T13:48:25Z</time>
      </trkpt>
      <trkpt lat="46.23247" lon="10.48998">
        <ele>1691.646</ele>
        <time>2018-09-15T13:48:45Z</time>
      </trkpt>
      <trkpt lat="46.23244" lon="10.48999">
        <ele>1692.124</ele>
        <time>2018-09-15T13:49:05Z</time>
      </trkpt>
      <trkpt lat="46.23236" lon="10.49003">
        <ele>1694.161</ele>
        <time>2018-09-15T13:49:25Z</time>
      </trkpt>
      <trkpt lat="46.23228" lon="10.49002">
        <ele>1694.013</ele>
        <time>2018-09-15T13:49:45Z</time>
      </trkpt>
      <trkpt lat="46.23224" lon="10.48992">
        <ele>1690.943</ele>
        <time>2018-09-15T13:50:05Z</time>
      </trkpt>
      <trkpt lat="46.23225" lon="10.48983">
        <ele>1687.707</ele>
        <time>2018-09-15T13:50:25Z</time>
      </trkpt>
      <trkpt lat="46.23226" lon="10.48982">
        <ele>1687.308</ele>
        <time>2018-09-15T13:50:45Z</time>
      </trkpt>
      <trkpt lat="46.23227" lon="10.48979">
        <ele>1686.693</ele>
        <time>2018-09-15T13:51:05Z</time>
      </trkpt>
      <trkpt lat="46.23229" lon="10.48977">
        <ele>1685.919</ele>
        <time>2018-09-15T13:51:25Z</time>
      </trkpt>
      <trkpt lat="46.23234" lon="10.48972">
        <ele>1684.276</ele>
        <time>2018-09-15T13:51:45Z</time>
      </trkpt>
      <trkpt lat="46.23234" lon="10.48971">
        <ele>1684.189</ele>
        <time>2018-09-15T13:52:05Z</time>
      </trkpt>
      <trkpt lat="46.23235" lon="10.4897">
        <ele>1683.772</ele>
        <time>2018-09-15T13:52:25Z</time>
      </trkpt>
      <trkpt lat="46.23244" lon="10.48959">
        <ele>1680.875</ele>
        <time>2018-09-15T13:52:45Z</time>
      </trkpt>
      <trkpt lat="46.23248" lon="10.48952">
        <ele>1679.043</ele>
        <time>2018-09-15T13:53:05Z</time>
      </trkpt>
      <trkpt lat="46.23251" lon="10.48944">
        <ele>1676.84</ele>
        <time>2018-09-15T13:53:25Z</time>
      </trkpt>
      <trkpt lat="46.23262" lon="10.48926">
        <ele>1673.322</ele>
        <time>2018-09-15T13:53:45Z</time>
      </trkpt>
      <trkpt lat="46.23272" lon="10.48918">
        <ele>1672.062</ele>
        <time>2018-09-15T13:54:05Z</time>
      </trkpt>
      <trkpt lat="46.23277" lon="10.48916">
        <ele>1671.708</ele>
        <time>2018-09-15T13:54:25Z</time>
      </trkpt>
      <trkpt lat="46.2329" lon="10.48909">
        <ele>1671.508</ele>
        <time>2018-09-15T13:54:45Z</time>
      </trkpt>
      <trkpt lat="46.23295" lon="10.48905">
        <ele>1671.184</ele>
        <time>2018-09-15T13:55:05Z</time>
      </trkpt>
      <trkpt lat="46.23314" lon="10.48886">
        <ele>1668.66</ele>
        <time>2018-09-15T13:55:25Z</time>
      </trkpt>
      <trkpt lat="46.23321" lon="10.48875">
        <ele>1667.097</ele>
        <time>2018-09-15T13:55:45Z</time>
      </trkpt>
      <trkpt lat="46.23324" lon="10.48871">
        <ele>1666.33</ele>
        <time>2018-09-15T13:56:05Z</time>
      </trkpt>
      <trkpt lat="46.23331" lon="10.48858">
        <ele>1664.253</ele>
        <time>2018-09-15T13:56:25Z</time>
      </trkpt>
      <trkpt lat="46.23335" lon="10.48853">
        <ele>1663.266</ele>
        <time>2018-09-15T13:56:45Z</time>
      </trkpt>
      <trkpt lat="46.23341" lon="10.48844">
        <ele>1661.214</ele>
        <time>2018-09-15T13:57:05Z</time>
      </trkpt>
      <trkpt lat="46.23346" lon="10.48837">
        <ele>1659.741</ele>
        <time>2018-09-15T13:57:25Z</time>
      </trkpt>
      <trkpt lat="46.2335" lon="10.48817">
        <ele>1655.588</ele>
        <time>2018-09-15T13:57:45Z</time>
      </trkpt>
      <trkpt lat="46.23353" lon="10.48805">
        <ele>1653.224</ele>
        <time>2018-09-15T13:58:05Z</time>
      </trkpt>
      <trkpt lat="46.23354" lon="10.48804">
        <ele>1652.826</ele>
        <time>2018-09-15T13:58:25Z</time>
      </trkpt>
      <trkpt lat="46.23357" lon="10.48801">
        <ele>1651.908</ele>
        <time>2018-09-15T13:58:45Z</time>
      </trkpt>
      <trkpt lat="46.2336" lon="10.48799">
        <ele>1651.26</ele>
        <time>2018-09-15T13:59:05Z</time>
      </trkpt>
      <trkpt lat="46.23367" lon="10.48794">
        <ele>1649.416</ele>
        <time>2018-09-15T13:59:25Z</time>
      </trkpt>
      <trkpt lat="46.23371" lon="10.48792">
        <ele>1648.073</ele>
        <time>2018-09-15T13:59:45Z</time>
      </trkpt>
      <trkpt lat="46.23376" lon="10.4879">
        <ele>1646.956</ele>
        <time>2018-09-15T14:00:05Z</time>
      </trkpt>
      <trkpt lat="46.23386" lon="10.48787">
        <ele>1644.519</ele>
        <time>2018-09-15T14:00:25Z</time>
      </trkpt>
      <trkpt lat="46.23405" lon="10.48782">
        <ele>1641.722</ele>
        <time>2018-09-15T14:00:45Z</time>
      </trkpt>
      <trkpt lat="46.23408" lon="10.48781">
        <ele>1641.36</ele>
        <time>2018-09-15T14:01:05Z</time>
      </trkpt>
      <trkpt lat="46.23414" lon="10.48781">
        <ele>1640.867</ele>
        <time>2018-09-15T14:01:25Z</time>
      </trkpt>
      <trkpt lat="46.23419" lon="10.4878">
        <ele>1640.267</ele>
        <time>2018-09-15T14:01:45Z</time>
      </trkpt>
      <trkpt lat="46.23425" lon="10.48776">
        <ele>1638.681</ele>
        <time>2018-09-15T14:02:05Z</time>
      </trkpt>
      <trkpt lat="46.2346" lon="10.48766">
        <ele>1630.719</ele>
        <time>2018-09-15T14:02:25Z</time>
      </trkpt>
      <trkpt lat="46.23463" lon="10.48765">
        <ele>1630.008</ele>
        <time>2018-09-15T14:02:45Z</time>
      </trkpt>
      <trkpt lat="46.23478" lon="10.48763">
        <ele>1627.188</ele>
        <time>2018-09-15T14:03:05Z</time>
      </trkpt>
      <trkpt lat="46.23483" lon="10.48763">
        <ele>1626.354</ele>
        <time>2018-09-15T14:03:25Z</time>
      </trkpt>
      <trkpt lat="46.23487" lon="10.4876">
        <ele>1624.751</ele>
        <time>2018-09-15T14:03:45Z</time>
      </trkpt>
      <trkpt lat="46.23503" lon="10.48754">
        <ele>1620.894</ele>
        <time>2018-09-15T14:04:05Z</time>
      </trkpt>
      <trkpt lat="46.23503" lon="10.48753">
        <ele>1620.767</ele>
        <time>2018-09-15T14:04:25Z</time>
      </trkpt>
      <trkpt lat="46.23514" lon="10.48749">
        <ele>1619.13</ele>
        <time>2018-09-15T14:04:45Z</time>
      </trkpt>
      <trkpt lat="46.23522" lon="10.48747">
        <ele>1618.278</ele>
        <time>2018-09-15T14:05:05Z</time>
      </trkpt>
      <trkpt lat="46.23529" lon="10.48745">
        <ele>1617.325</ele>
        <time>2018-09-15T14:05:25Z</time>
      </trkpt>
      <trkpt lat="46.23532" lon="10.48742">
        <ele>1616.276</ele>
        <time>2018-09-15T14:05:45Z</time>
      </trkpt>
      <trkpt lat="46.23536" lon="10.48738">
        <ele>1615.09</ele>
        <time>2018-09-15T14:06:05Z</time>
      </trkpt>
      <trkpt lat="46.2354" lon="10.48733">
        <ele>1613.219</ele>
        <time>2018-09-15T14:06:25Z</time>
      </trkpt>
      <trkpt lat="46.23543" lon="10.48722">
        <ele>1610.408</ele>
        <time>2018-09-15T14:06:45Z</time>
      </trkpt>
      <trkpt lat="46.2356" lon="10.48695">
        <ele>1603.089</ele>
        <time>2018-09-15T14:07:05Z</time>
      </trkpt>
      <trkpt lat="46.23567" lon="10.48677">
        <ele>1599.125</ele>
        <time>2018-09-15T14:07:25Z</time>
      </trkpt>
      <trkpt lat="46.2357" lon="10.48671">
        <ele>1597.932</ele>
        <time>2018-09-15T14:07:45Z</time>
      </trkpt>
      <trkpt lat="46.23572" lon="10.48664">
        <ele>1596.445</ele>
        <time>2018-09-15T14:08:05Z</time>
      </trkpt>
      <trkpt lat="46.23573" lon="10.48662">
        <ele>1596.178</ele>
        <time>2018-09-15T14:08:25Z</time>
      </trkpt>
      <trkpt lat="46.23574" lon="10.4866">
        <ele>1595.821</ele>
        <time>2018-09-15T14:08:45Z</time>
      </trkpt>
      <trkpt lat="46.23576" lon="10.48657">
        <ele>1595.319</ele>
        <time>2018-09-15T14:09:05Z</time>
      </trkpt>
      <trkpt lat="46.23587" lon="10.48643">
        <ele>1592.756</ele>
        <time>2018-09-15T14:09:25Z</time>
      </trkpt>
      <trkpt lat="46.23593" lon="10.48633">
        <ele>1590.715</ele>
        <time>2018-09-15T14:09:45Z</time>
      </trkpt>
      <trkpt lat="46.23595" lon="10.4863">
        <ele>1590.165</ele>
        <time>2018-09-15T14:10:05Z</time>
      </trkpt>
      <trkpt lat="46.23597" lon="10.48628">
        <ele>1589.611</ele>
        <time>2018-09-15T14:10:25Z</time>
      </trkpt>
      <trkpt lat="46.23598" lon="10.48627">
        <ele>1589.308</ele>
        <time>2018-09-15T14:10:45Z</time>
      </trkpt>
      <trkpt lat="46.236" lon="10.48621">
        <ele>1588.033</ele>
        <time>2018-09-15T14:11:05Z</time>
      </trkpt>
      <trkpt lat="46.23603" lon="10.48598">
        <ele>1583.279</ele>
        <time>2018-09-15T14:11:25Z</time>
      </trkpt>
      <trkpt lat="46.23609" lon="10.4857">
        <ele>1577.646</ele>
        <time>2018-09-15T14:11:45Z</time>
      </trkpt>
      <trkpt lat="46.23606" lon="10.48551">
        <ele>1573.889</ele>
        <time>2018-09-15T14:12:05Z</time>
      </trkpt>
      <trkpt lat="46.23605" lon="10.48549">
        <ele>1573.452</ele>
        <time>2018-09-15T14:12:25Z</time>
      </trkpt>
      <trkpt lat="46.23605" lon="10.48549">
        <ele>1573.285</ele>
        <time>2018-09-15T14:12:45Z</time>
      </trkpt>
      <trkpt lat="46.23608" lon="10.48542">
        <ele>1571.183</ele>
        <time>2018-09-15T14:13:05Z</time>
      </trkpt>
      <trkpt lat="46.23623" lon="10.48534">
        <ele>1566.57</ele>
        <time>2018-09-15T14:13:25Z</time>
      </trkpt>
      <trkpt lat="46.23637" lon="10.48533">
        <ele>1563.747</ele>
        <time>2018-09-15T14:13:45Z</time>
      </trkpt>
      <trkpt lat="46.23647" lon="10.48533">
        <ele>1563.029</ele>
        <time>2018-09-15T14:14:05Z</time>
      </trkpt>
      <trkpt lat="46.23651" lon="10.48534">
        <ele>1562.921</ele>
        <time>2018-09-15T14:14:25Z</time>
      </trkpt>
      <trkpt lat="46.23665" lon="10.4853">
        <ele>1560.808</ele>
        <time>2018-09-15T14:14:45Z</time>
      </trkpt>
      <trkpt lat="46.23673" lon="10.48531">
        <ele>1559.716</ele>
        <time>2018-09-15T14:15:05Z</time>
      </trkpt>
      <trkpt lat="46.23689" lon="10.48535">
        <ele>1558.962</ele>
        <time>2018-09-15T14:15:25Z</time>
      </trkpt>
      <trkpt lat="46.23695" lon="10.48537">
        <ele>1559.099</ele>
        <time>2018-09-15T14:15:45Z</time>
      </trkpt>
      <trkpt lat="46.23704" lon="10.4854">
        <ele>1561.112</ele>
        <time>2018-09-15T14:16:05Z</time>
      </trkpt>
      <trkpt lat="46.23711" lon="10.48543">
        <ele>1562.985</ele>
        <time>2018-09-15T14:16:25Z</time>
      </trkpt>
      <trkpt lat="46.23715" lon="10.48539">
        <ele>1561.628</ele>
        <time>2018-09-15T14:16:45Z</time>
      </trkpt>
      <trkpt lat="46.23725" lon="10.48535">
        <ele>1560.546</ele>
        <time>2018-09-15T14:17:05Z</time>
      </trkpt>
      <trkpt lat="46.2373" lon="10.48531">
        <ele>1560.293</ele>
        <time>2018-09-15T14:17:25Z</time>
      </trkpt>
      <trkpt lat="46.23736" lon="10.48522">
        <ele>1557.718</ele>
        <time>2018-09-15T14:17:45Z</time>
      </trkpt>
      <trkpt lat="46.23738" lon="10.48517">
        <ele>1555.998</ele>
        <time>2018-09-15T14:18:05Z</time>
      </trkpt>
      <trkpt lat="46.23745" lon="10.48491">
        <ele>1545.617</ele>
        <time>2018-09-15T14:18:25Z</time>
      </trkpt>
      <trkpt lat="46.2375" lon="10.48479">
        <ele>1541.808</ele>
        <time>2018-09-15T14:18:45Z</time>
      </trkpt>
      <trkpt lat="46.23756" lon="10.4847">
        <ele>1539.793</ele>
        <time>2018-09-15T14:19:05Z</time>
      </trkpt>
      <trkpt lat="46.23757" lon="10.48468">
        <ele>1539.399</ele>
        <time>2018-09-15T14:19:25Z</time>
      </trkpt>
      <trkpt lat="46.23758" lon="10.48467">
        <ele>1539.186</ele>
        <time>2018-09-15T14:19:45Z</time>
      </trkpt>
      <trkpt lat="46.23761" lon="10.48463">
        <ele>1538.749</ele>
        <time>2018-09-15T14:20:05Z</time>
      </trkpt>
      <trkpt lat="46.23766" lon="10.48459">
        <ele>1538.392</ele>
        <time>2018-09-15T14:20:25Z</time>
      </trkpt>
      <trkpt lat="46.2377" lon="10.48454">
        <ele>1537.855</ele>
        <time>2018-09-15T14:20:45Z</time>
      </trkpt>
      <trkpt lat="46.23776" lon="10.48444">
        <ele>1536.413</ele>
        <time>2018-09-15T14:21:05Z</time>
      </trkpt>
      <trkpt lat="46.23794" lon="10.48406">
        <ele>1533.29</ele>
        <time>2018-09-15T14:21:25Z</time>
      </trkpt>
      <trkpt lat="46.23795" lon="10.48401">
        <ele>1532.797</ele>
        <time>2018-09-15T14:21:45Z</time>
      </trkpt>
      <trkpt lat="46.23799" lon="10.48389">
        <ele>1531.623</ele>
        <time>2018-09-15T14:22:05Z</time>
      </trkpt>
      <trkpt lat="46.23805" lon="10.48381">
        <ele>1531.825</ele>
        <time>2018-09-15T14:22:25Z</time>
      </trkpt>
      <trkpt lat="46.23814" lon="10.48367">
        <ele>1529.808</ele>
        <time>2018-09-15T14:22:45Z</time>
      </trkpt>
      <trkpt lat="46.23819" lon="10.48362">
        <ele>1529.121</ele>
        <time>2018-09-15T14:23:05Z</time>
      </trkpt>
      <trkpt lat="46.23822" lon="10.48359">
        <ele>1528.897</ele>
        <time>2018-09-15T14:23:25Z</time>
      </trkpt>
      <trkpt lat="46.23835" lon="10.48355">
        <ele>1530.274</ele>
        <time>2018-09-15T14:23:45Z</time>
      </trkpt>
      <trkpt lat="46.23857" lon="10.48334">
        <ele>1526.327</ele>
        <time>2018-09-15T14:24:05Z</time>
      </trkpt>
      <trkpt lat="46.23863" lon="10.4833">
        <ele>1526.22</ele>
        <time>2018-09-15T14:24:25Z</time>
      </trkpt>
      <trkpt lat="46.23868" lon="10.48319">
        <ele>1522.973</ele>
        <time>2018-09-15T14:24:45Z</time>
      </trkpt>
      <trkpt lat="46.2387" lon="10.48313">
        <ele>1520.871</ele>
        <time>2018-09-15T14:25:05Z</time>
      </trkpt>
      <trkpt lat="46.23872" lon="10.48306">
        <ele>1518.018</ele>
        <time>2018-09-15T14:25:25Z</time>
      </trkpt>
      <trkpt lat="46.23876" lon="10.48295">
        <ele>1515.322</ele>
        <time>2018-09-15T14:25:45Z</time>
      </trkpt>
      <trkpt lat="46.23884" lon="10.48284">
        <ele>1514.762</ele>
        <time>2018-09-15T14:26:05Z</time>
      </trkpt>
      <trkpt lat="46.23892" lon="10.48272">
        <ele>1514.208</ele>
        <time>2018-09-15T14:26:25Z</time>
      </trkpt>
      <trkpt lat="46.239" lon="10.48261">
        <ele>1513.008</ele>
        <time>2018-09-15T14:26:45Z</time>
      </trkpt>
      <trkpt lat="46.23903" lon="10.48257">
        <ele>1512.574</ele>
        <time>2018-09-15T14:27:05Z</time>
      </trkpt>
      <trkpt lat="46.23917" lon="10.4824">
        <ele>1510.62</ele>
        <time>2018-09-15T14:27:25Z</time>
      </trkpt>
      <trkpt lat="46.23925" lon="10.48234">
        <ele>1509.657</ele>
        <time>2018-09-15T14:27:45Z</time>
      </trkpt>
      <trkpt lat="46.23936" lon="10.48222">
        <ele>1506.83</ele>
        <time>2018-09-15T14:28:05Z</time>
      </trkpt>
      <trkpt lat="46.23945" lon="10.48217">
        <ele>1505.523</ele>
        <time>2018-09-15T14:28:25Z</time>
      </trkpt>
      <trkpt lat="46.23955" lon="10.48213">
        <ele>1503.436</ele>
        <time>2018-09-15T14:28:45Z</time>
      </trkpt>
      <trkpt lat="46.2396" lon="10.48212">
        <ele>1503.394</ele>
        <time>2018-09-15T14:29:05Z</time>
      </trkpt>
      <trkpt lat="46.2397" lon="10.48213">
        <ele>1503.651</ele>
        <time>2018-09-15T14:29:25Z</time>
      </trkpt>
      <trkpt lat="46.23979" lon="10.48213">
        <ele>1502.845</ele>
        <time>2018-09-15T14:29:45Z</time>
      </trkpt>
      <trkpt lat="46.23987" lon="10.48212">
        <ele>1501.647</ele>
        <time>2018-09-15T14:30:05Z</time>
      </trkpt>
      <trkpt lat="46.23992" lon="10.48211">
        <ele>1500.511</ele>
        <time>2018-09-15T14:30:25Z</time>
      </trkpt>
      <trkpt lat="46.23998" lon="10.48211">
        <ele>1499.908</ele>
        <time>2018-09-15T14:30:45Z</time>
      </trkpt>
      <trkpt lat="46.24006" lon="10.48215">
        <ele>1501.276</ele>
        <time>2018-09-15T14:31:05Z</time>
      </trkpt>
      <trkpt lat="46.24013" lon="10.48214">
        <ele>1499.782</ele>
        <time>2018-09-15T14:31:25Z</time>
      </trkpt>
      <trkpt lat="46.24019" lon="10.48212">
        <ele>1497.569</ele>
        <time>2018-09-15T14:31:45Z</time>
      </trkpt>
      <trkpt lat="46.24029" lon="10.48211">
        <ele>1495.952</ele>
        <time>2018-09-15T14:32:05Z</time>
      </trkpt>
      <trkpt lat="46.24036" lon="10.48204">
        <ele>1492.515</ele>
        <time>2018-09-15T14:32:25Z</time>
      </trkpt>
      <trkpt lat="46.2404" lon="10.48202">
        <ele>1491.668</ele>
        <time>2018-09-15T14:32:45Z</time>
      </trkpt>
      <trkpt lat="46.24045" lon="10.48199">
        <ele>1490.766</ele>
        <time>2018-09-15T14:33:05Z</time>
      </trkpt>
      <trkpt lat="46.24052" lon="10.48194">
        <ele>1489.093</ele>
        <time>2018-09-15T14:33:25Z</time>
      </trkpt>
      <trkpt lat="46.24059" lon="10.48192">
        <ele>1488.034</ele>
        <time>2018-09-15T14:33:45Z</time>
      </trkpt>
      <trkpt lat="46.24069" lon="10.48191">
        <ele>1486.755</ele>
        <time>2018-09-15T14:34:05Z</time>
      </trkpt>
      <trkpt lat="46.24073" lon="10.48192">
        <ele>1486.51</ele>
        <time>2018-09-15T14:34:25Z</time>
      </trkpt>
      <trkpt lat="46.24076" lon="10.48193">
        <ele>1486.908</ele>
        <time>2018-09-15T14:34:45Z</time>
      </trkpt>
      <trkpt lat="46.24079" lon="10.48195">
        <ele>1487.745</ele>
        <time>2018-09-15T14:35:05Z</time>
      </trkpt>
      <trkpt lat="46.24083" lon="10.48199">
        <ele>1489.351</ele>
        <time>2018-09-15T14:35:25Z</time>
      </trkpt>
      <trkpt lat="46.24088" lon="10.48202">
        <ele>1490.438</ele>
        <time>2018-09-15T14:35:45Z</time>
      </trkpt>
      <trkpt lat="46.24093" lon="10.48204">
        <ele>1490.951</ele>
        <time>2018-09-15T14:36:05Z</time>
      </trkpt>
      <trkpt lat="46.24096" lon="10.48203">
        <ele>1490.594</ele>
        <time>2018-09-15T14:36:25Z</time>
      </trkpt>
      <trkpt lat="46.24114" lon="10.48196">
        <ele>1484.797</ele>
        <time>2018-09-15T14:36:45Z</time>
      </trkpt>
      <trkpt lat="46.24123" lon="10.48191">
        <ele>1482.315</ele>
        <time>2018-09-15T14:37:05Z</time>
      </trkpt>
      <trkpt lat="46.24125" lon="10.48189">
        <ele>1481.582</ele>
        <time>2018-09-15T14:37:25Z</time>
      </trkpt>
      <trkpt lat="46.24129" lon="10.48188">
        <ele>1481.091</ele>
        <time>2018-09-15T14:37:45Z</time>
      </trkpt>
      <trkpt lat="46.24151" lon="10.48172">
        <ele>1477.081</ele>
        <time>2018-09-15T14:38:05Z</time>
      </trkpt>
      <trkpt lat="46.24155" lon="10.48166">
        <ele>1475.319</ele>
        <time>2018-09-15T14:38:25Z</time>
      </trkpt>
      <trkpt lat="46.24167" lon="10.48156">
        <ele>1474.808</ele>
        <time>2018-09-15T14:38:45Z</time>
      </trkpt>
      <trkpt lat="46.24176" lon="10.48148">
        <ele>1473.741</ele>
        <time>2018-09-15T14:39:05Z</time>
      </trkpt>
      <trkpt lat="46.24208" lon="10.48095">
        <ele>1460.857</ele>
        <time>2018-09-15T14:39:25Z</time>
      </trkpt>
      <trkpt lat="46.24212" lon="10.48078">
        <ele>1455.634</ele>
        <time>2018-09-15T14:39:45Z</time>
      </trkpt>
      <trkpt lat="46.24215" lon="10.48064">
        <ele>1451.597</ele>
        <time>2018-09-15T14:40:05Z</time>
      </trkpt>
      <trkpt lat="46.24217" lon="10.48049">
        <ele>1446.09</ele>
        <time>2018-09-15T14:40:25Z</time>
      </trkpt>
      <trkpt lat="46.2422" lon="10.48039">
        <ele>1443.423</ele>
        <time>2018-09-15T14:40:45Z</time>
      </trkpt>
      <trkpt lat="46.24235" lon="10.48022">
        <ele>1440.411</ele>
        <time>2018-09-15T14:41:05Z</time>
      </trkpt>
      <trkpt lat="46.24247" lon="10.48013">
        <ele>1438.768</ele>
        <time>2018-09-15T14:41:25Z</time>
      </trkpt>
      <trkpt lat="46.24255" lon="10.48005">
        <ele>1436.171</ele>
        <time>2018-09-15T14:41:45Z</time>
      </trkpt>
      <trkpt lat="46.2428" lon="10.47992">
        <ele>1433.541</ele>
        <time>2018-09-15T14:42:05Z</time>
      </trkpt>
      <trkpt lat="46.24287" lon="10.47987">
        <ele>1431.615</ele>
        <time>2018-09-15T14:42:25Z</time>
      </trkpt>
      <trkpt lat="46.24292" lon="10.47986">
        <ele>1431.408</ele>
        <time>2018-09-15T14:42:45Z</time>
      </trkpt>
      <trkpt lat="46.243" lon="10.47982">
        <ele>1430.469</ele>
        <time>2018-09-15T14:43:05Z</time>
      </trkpt>
      <trkpt lat="46.24304" lon="10.47978">
        <ele>1429.555</ele>
        <time>2018-09-15T14:43:25Z</time>
      </trkpt>
      <trkpt lat="46.24311" lon="10.47966">
        <ele>1424.852</ele>
        <time>2018-09-15T14:43:45Z</time>
      </trkpt>
      <trkpt lat="46.24323" lon="10.47964">
        <ele>1423.375</ele>
        <time>2018-09-15T14:44:05Z</time>
      </trkpt>
      <trkpt lat="46.24329" lon="10.47965">
        <ele>1423.228</ele>
        <time>2018-09-15T14:44:25Z</time>
      </trkpt>
      <trkpt lat="46.24339" lon="10.47965">
        <ele>1421.631</ele>
        <time>2018-09-15T14:44:45Z</time>
      </trkpt>
      <trkpt lat="46.24339" lon="10.47965">
        <ele>1421.589</ele>
        <time>2018-09-15T14:45:05Z</time>
      </trkpt>
      <trkpt lat="46.24347" lon="10.47965">
        <ele>1419.266</ele>
        <time>2018-09-15T14:45:25Z</time>
      </trkpt>
      <trkpt lat="46.24351" lon="10.47967">
        <ele>1418.995</ele>
        <time>2018-09-15T14:45:45Z</time>
      </trkpt>
      <trkpt lat="46.24362" lon="10.47968">
        <ele>1415.849</ele>
        <time>2018-09-15T14:46:05Z</time>
      </trkpt>
      <trkpt lat="46.24367" lon="10.47964">
        <ele>1411.823</ele>
        <time>2018-09-15T14:46:25Z</time>
      </trkpt>
      <trkpt lat="46.24372" lon="10.47965">
        <ele>1409.408</ele>
        <time>2018-09-15T14:46:45Z</time>
      </trkpt>
      <trkpt lat="46.24377" lon="10.47966">
        <ele>1407.821</ele>
        <time>2018-09-15T14:47:05Z</time>
      </trkpt>
      <trkpt lat="46.24382" lon="10.47971">
        <ele>1407.057</ele>
        <time>2018-09-15T14:47:25Z</time>
      </trkpt>
      <trkpt lat="46.24393" lon="10.47987">
        <ele>1407.524</ele>
        <time>2018-09-15T14:47:45Z</time>
      </trkpt>
      <trkpt lat="46.24401" lon="10.47994">
        <ele>1406.717</ele>
        <time>2018-09-15T14:48:05Z</time>
      </trkpt>
      <trkpt lat="46.24407" lon="10.48001">
        <ele>1407.55</ele>
        <time>2018-09-15T14:48:25Z</time>
      </trkpt>
      <trkpt lat="46.24419" lon="10.48014">
        <ele>1406.283</ele>
        <time>2018-09-15T14:48:45Z</time>
      </trkpt>
      <trkpt lat="46.24431" lon="10.48019">
        <ele>1401.351</ele>
        <time>2018-09-15T14:49:05Z</time>
      </trkpt>
      <trkpt lat="46.24436" lon="10.48022">
        <ele>1400.728</ele>
        <time>2018-09-15T14:49:25Z</time>
      </trkpt>
      <trkpt lat="46.24441" lon="10.48023">
        <ele>1399.174</ele>
        <time>2018-09-15T14:49:45Z</time>
      </trkpt>
      <trkpt lat="46.24443" lon="10.48018">
        <ele>1394.656</ele>
        <time>2018-09-15T14:50:05Z</time>
      </trkpt>
      <trkpt lat="46.2444" lon="10.48001">
        <ele>1384.421</ele>
        <time>2018-09-15T14:50:25Z</time>
      </trkpt>
      <trkpt lat="46.24437" lon="10.47987">
        <ele>1380.808</ele>
        <time>2018-09-15T14:50:45Z</time>
      </trkpt>
      <trkpt lat="46.24434" lon="10.47976">
        <ele>1378.029</ele>
        <time>2018-09-15T14:51:05Z</time>
      </trkpt>
      <trkpt lat="46.2443" lon="10.47962">
        <ele>1374.945</ele>
        <time>2018-09-15T14:51:25Z</time>
      </trkpt>
      <trkpt lat="46.24424" lon="10.47952">
        <ele>1373.882</ele>
        <time>2018-09-15T14:51:45Z</time>
      </trkpt>
      <trkpt lat="46.24421" lon="10.4794">
        <ele>1369.625</ele>
        <time>2018-09-15T14:52:05Z</time>
      </trkpt>
      <trkpt lat="46.24419" lon="10.47922">
        <ele>1365.328</ele>
        <time>2018-09-15T14:52:25Z</time>
      </trkpt>
      <trkpt lat="46.24414" lon="10.47912">
        <ele>1364.811</ele>
        <time>2018-09-15T14:52:45Z</time>
      </trkpt>
      <trkpt lat="46.24413" lon="10.47901">
        <ele>1361.539</ele>
        <time>2018-09-15T14:53:05Z</time>
      </trkpt>
      <trkpt lat="46.24414" lon="10.47896">
        <ele>1359.276</ele>
        <time>2018-09-15T14:53:25Z</time>
      </trkpt>
      <trkpt lat="46.24428" lon="10.47896">
        <ele>1354.147</ele>
        <time>2018-09-15T14:53:45Z</time>
      </trkpt>
      <trkpt lat="46.24443" lon="10.47903">
        <ele>1350.529</ele>
        <time>2018-09-15T14:54:05Z</time>
      </trkpt>
      <trkpt lat="46.24459" lon="10.47905">
        <ele>1342.421</ele>
        <time>2018-09-15T14:54:25Z</time>
      </trkpt>
      <trkpt lat="46.24467" lon="10.47906">
        <ele>1338.408</ele>
        <time>2018-09-15T14:54:45Z</time>
      </trkpt>
      <trkpt lat="46.24467" lon="10.47906">
        <ele>1338.486</ele>
        <time>2018-09-15T14:55:05Z</time>
      </trkpt>
      <trkpt lat="46.24473" lon="10.47906">
        <ele>1335.172</ele>
        <time>2018-09-15T14:55:25Z</time>
      </trkpt>
      <trkpt lat="46.24474" lon="10.47906">
        <ele>1333.559</ele>
        <time>2018-09-15T14:55:45Z</time>
      </trkpt>
      <trkpt lat="46.24479" lon="10.4791">
        <ele>1330.822</ele>
        <time>2018-09-15T14:56:05Z</time>
      </trkpt>
      <trkpt lat="46.24483" lon="10.47917">
        <ele>1329.025</ele>
        <time>2018-09-15T14:56:25Z</time>
      </trkpt>
      <trkpt lat="46.24484" lon="10.47926">
        <ele>1330.348</ele>
        <time>2018-09-15T14:56:45Z</time>
      </trkpt>
      <trkpt lat="46.24486" lon="10.47931">
        <ele>1329.576</ele>
        <time>2018-09-15T14:57:05Z</time>
      </trkpt>
      <trkpt lat="46.24499" lon="10.47954">
        <ele>1323.153</ele>
        <time>2018-09-15T14:57:25Z</time>
      </trkpt>
      <trkpt lat="46.24511" lon="10.47976">
        <ele>1320.961</ele>
        <time>2018-09-15T14:57:45Z</time>
      </trkpt>
      <trkpt lat="46.24517" lon="10.47996">
        <ele>1327.021</ele>
        <time>2018-09-15T14:58:05Z</time>
      </trkpt>
      <trkpt lat="46.24519" lon="10.48008">
        <ele>1328.813</ele>
        <time>2018-09-15T14:58:25Z</time>
      </trkpt>
      <trkpt lat="46.24522" lon="10.48014">
        <ele>1327.708</ele>
        <time>2018-09-15T14:58:45Z</time>
      </trkpt>
      <trkpt lat="46.2453" lon="10.48029">
        <ele>1324.048</ele>
        <time>2018-09-15T14:59:05Z</time>
      </trkpt>
      <trkpt lat="46.24532" lon="10.48035">
        <ele>1323.884</ele>
        <time>2018-09-15T14:59:25Z</time>
      </trkpt>
      <trkpt lat="46.24534" lon="10.48036">
        <ele>1322.191</ele>
        <time>2018-09-15T14:59:45Z</time>
      </trkpt>
      <trkpt lat="46.24539" lon="10.48047">
        <ele>1320.574</ele>
        <time>2018-09-15T15:00:05Z</time>
      </trkpt>
      <trkpt lat="46.24545" lon="10.48062">
        <ele>1318.757</ele>
        <time>2018-09-15T15:00:25Z</time>
      </trkpt>
      <trkpt lat="46.24553" lon="10.48082">
        <ele>1313.41</ele>
        <time>2018-09-15T15:00:45Z</time>
      </trkpt>
      <trkpt lat="46.24564" lon="10.48123">
        <ele>1312.888</ele>
        <time>2018-09-15T15:01:05Z</time>
      </trkpt>
      <trkpt lat="46.24565" lon="10.48126">
        <ele>1312.475</ele>
        <time>2018-09-15T15:01:25Z</time>
      </trkpt>
      <trkpt lat="46.24569" lon="10.48131">
        <ele>1310.984</ele>
        <time>2018-09-15T15:01:45Z</time>
      </trkpt>
      <trkpt lat="46.24579" lon="10.48138">
        <ele>1305.307</ele>
        <time>2018-09-15T15:02:05Z</time>
      </trkpt>
      <trkpt lat="46.24587" lon="10.48146">
        <ele>1301.517</ele>
        <time>2018-09-15T15:02:25Z</time>
      </trkpt>
      <trkpt lat="46.24596" lon="10.48159">
        <ele>1298.408</ele>
        <time>2018-09-15T15:02:45Z</time>
      </trkpt>
      <trkpt lat="46.24604" lon="10.48171">
        <ele>1295.21</ele>
        <time>2018-09-15T15:03:05Z</time>
      </trkpt>
      <trkpt lat="46.24613" lon="10.48186">
        <ele>1291.826</ele>
        <time>2018-09-15T15:03:25Z</time>
      </trkpt>
      <trkpt lat="46.24623" lon="10.48205">
        <ele>1290.983</ele>
        <time>2018-09-15T15:03:45Z</time>
      </trkpt>
      <trkpt lat="46.2463" lon="10.48221">
        <ele>1290.656</ele>
        <time>2018-09-15T15:04:05Z</time>
      </trkpt>
      <trkpt lat="46.24639" lon="10.48236">
        <ele>1289.269</ele>
        <time>2018-09-15T15:04:25Z</time>
      </trkpt>
      <trkpt lat="46.24644" lon="10.48242">
        <ele>1288.432</ele>
        <time>2018-09-15T15:04:45Z</time>
      </trkpt>
      <trkpt lat="46.24652" lon="10.48249">
        <ele>1286.03</ele>
        <time>2018-09-15T15:05:05Z</time>
      </trkpt>
      <trkpt lat="46.24659" lon="10.48258">
        <ele>1284.557</ele>
        <time>2018-09-15T15:05:25Z</time>
      </trkpt>
      <trkpt lat="46.24663" lon="10.48266">
        <ele>1283.956</ele>
        <time>2018-09-15T15:05:45Z</time>
      </trkpt>
      <trkpt lat="46.24666" lon="10.48272">
        <ele>1283.359</ele>
        <time>2018-09-15T15:06:05Z</time>
      </trkpt>
      <trkpt lat="46.2469" lon="10.48301">
        <ele>1276.014</ele>
        <time>2018-09-15T15:06:25Z</time>
      </trkpt>
      <trkpt lat="46.24697" lon="10.4831">
        <ele>1273.508</ele>
        <time>2018-09-15T15:06:45Z</time>
      </trkpt>
      <trkpt lat="46.24706" lon="10.48317">
        <ele>1267.277</ele>
        <time>2018-09-15T15:07:05Z</time>
      </trkpt>
      <trkpt lat="46.24712" lon="10.48325">
        <ele>1263.763</ele>
        <time>2018-09-15T15:07:25Z</time>
      </trkpt>
      <trkpt lat="46.24714" lon="10.48328">
        <ele>1262.98</ele>
        <time>2018-09-15T15:07:45Z</time>
      </trkpt>
      <trkpt lat="46.24737" lon="10.4836">
        <ele>1254.663</ele>
        <time>2018-09-15T15:08:05Z</time>
      </trkpt>
      <trkpt lat="46.2474" lon="10.48362">
        <ele>1253.736</ele>
        <time>2018-09-15T15:08:25Z</time>
      </trkpt>
      <trkpt lat="46.24756" lon="10.4838">
        <ele>1248.469</ele>
        <time>2018-09-15T15:08:45Z</time>
      </trkpt>
      <trkpt lat="46.2476" lon="10.48385">
        <ele>1246.957</ele>
        <time>2018-09-15T15:09:05Z</time>
      </trkpt>
      <trkpt lat="46.24768" lon="10.48393">
        <ele>1243.714</ele>
        <time>2018-09-15T15:09:25Z</time>
      </trkpt>
      <trkpt lat="46.24773" lon="10.48396">
        <ele>1241.554</ele>
        <time>2018-09-15T15:09:45Z</time>
      </trkpt>
      <trkpt lat="46.24777" lon="10.48399">
        <ele>1239.356</ele>
        <time>2018-09-15T15:10:05Z</time>
      </trkpt>
      <trkpt lat="46.24785" lon="10.48413">
        <ele>1238.911</ele>
        <time>2018-09-15T15:10:25Z</time>
      </trkpt>
      <trkpt lat="46.24801" lon="10.48431">
        <ele>1237.508</ele>
        <time>2018-09-15T15:10:45Z</time>
      </trkpt>
      <trkpt lat="46.24812" lon="10.48443">
        <ele>1236.027</ele>
        <time>2018-09-15T15:11:05Z</time>
      </trkpt>
      <trkpt lat="46.24819" lon="10.48449">
        <ele>1234.733</ele>
        <time>2018-09-15T15:11:25Z</time>
      </trkpt>
      <trkpt lat="46.24835" lon="10.48452">
        <ele>1229.07</ele>
        <time>2018-09-15T15:11:45Z</time>
      </trkpt>
      <trkpt lat="46.24838" lon="10.48389">
        <ele>1218.923</ele>
        <time>2018-09-15T15:12:05Z</time>
      </trkpt>
      <trkpt lat="46.2484" lon="10.4837">
        <ele>1215.886</ele>
        <time>2018-09-15T15:12:25Z</time>
      </trkpt>
      <trkpt lat="46.24841" lon="10.48354">
        <ele>1213.949</ele>
        <time>2018-09-15T15:12:45Z</time>
      </trkpt>
      <trkpt lat="46.24835" lon="10.48328">
        <ele>1211.947</ele>
        <time>2018-09-15T15:13:05Z</time>
      </trkpt>
      <trkpt lat="46.24824" lon="10.48313">
        <ele>1211.634</ele>
        <time>2018-09-15T15:13:25Z</time>
      </trkpt>
      <trkpt lat="46.24813" lon="10.483">
        <ele>1211.825</ele>
        <time>2018-09-15T15:13:45Z</time>
      </trkpt>
      <trkpt lat="46.24814" lon="10.48298">
        <ele>1211.526</ele>
        <time>2018-09-15T15:14:05Z</time>
      </trkpt>
      <trkpt lat="46.2482" lon="10.48271">
        <ele>1207.108</ele>
        <time>2018-09-15T15:14:25Z</time>
      </trkpt>
      <trkpt lat="46.24824" lon="10.48246">
        <ele>1203.508</ele>
        <time>2018-09-15T15:14:45Z</time>
      </trkpt>
      <trkpt lat="46.24825" lon="10.48239">
        <ele>1202.644</ele>
        <time>2018-09-15T15:15:05Z</time>
      </trkpt>
      <trkpt lat="46.24832" lon="10.48219">
        <ele>1199.38</ele>
        <time>2018-09-15T15:15:25Z</time>
      </trkpt>
      <trkpt lat="46.24834" lon="10.48217">
        <ele>1198.697</ele>
        <time>2018-09-15T15:15:45Z</time>
      </trkpt>
      <trkpt lat="46.24836" lon="10.48207">
        <ele>1195.69</ele>
        <time>2018-09-15T15:16:05Z</time>
      </trkpt>
      <trkpt lat="46.24838" lon="10.48201">
        <ele>1193.733</ele>
        <time>2018-09-15T15:16:25Z</time>
      </trkpt>
      <trkpt lat="46.24839" lon="10.48195">
        <ele>1192.136</ele>
        <time>2018-09-15T15:16:45Z</time>
      </trkpt>
      <trkpt lat="46.24843" lon="10.48187">
        <ele>1189.684</ele>
        <time>2018-09-15T15:17:05Z</time>
      </trkpt>
      <trkpt lat="46.24846" lon="10.48178">
        <ele>1187.071</ele>
        <time>2018-09-15T15:17:25Z</time>
      </trkpt>
      <trkpt lat="46.24854" lon="10.48169">
        <ele>1183.899</ele>
        <time>2018-09-15T15:17:45Z</time>
      </trkpt>
      <trkpt lat="46.24864" lon="10.48163">
        <ele>1180.807</ele>
        <time>2018-09-15T15:18:05Z</time>
      </trkpt>
      <trkpt lat="46.24867" lon="10.4816">
        <ele>1180.027</ele>
        <time>2018-09-15T15:18:25Z</time>
      </trkpt>
      <trkpt lat="46.24874" lon="10.48158">
        <ele>1178.808</ele>
        <time>2018-09-15T15:18:45Z</time>
      </trkpt>
      <trkpt lat="46.24883" lon="10.48157">
        <ele>1177.721</ele>
        <time>2018-09-15T15:19:05Z</time>
      </trkpt>
      <trkpt lat="46.24885" lon="10.48156">
        <ele>1177.537</ele>
        <time>2018-09-15T15:19:25Z</time>
      </trkpt>
      <trkpt lat="46.24899" lon="10.48156">
        <ele>1176.444</ele>
        <time>2018-09-15T15:19:45Z</time>
      </trkpt>
      <trkpt lat="46.24902" lon="10.48156">
        <ele>1176.247</ele>
        <time>2018-09-15T15:20:05Z</time>
      </trkpt>
      <trkpt lat="46.2491" lon="10.48155">
        <ele>1175.72</ele>
        <time>2018-09-15T15:20:25Z</time>
      </trkpt>
      <trkpt lat="46.24917" lon="10.48156">
        <ele>1175.433</ele>
        <time>2018-09-15T15:20:45Z</time>
      </trkpt>
      <trkpt lat="46.2492" lon="10.48156">
        <ele>1175.231</ele>
        <time>2018-09-15T15:21:05Z</time>
      </trkpt>
      <trkpt lat="46.24927" lon="10.48154">
        <ele>1174.658</ele>
        <time>2018-09-15T15:21:25Z</time>
      </trkpt>
      <trkpt lat="46.24935" lon="10.4815">
        <ele>1173.629</ele>
        <time>2018-09-15T15:21:45Z</time>
      </trkpt>
      <trkpt lat="46.24939" lon="10.48148">
        <ele>1173.1</ele>
        <time>2018-09-15T15:22:05Z</time>
      </trkpt>
      <trkpt lat="46.24939" lon="10.48148">
        <ele>1173.12</ele>
        <time>2018-09-15T15:22:25Z</time>
      </trkpt>
      <trkpt lat="46.24946" lon="10.48145">
        <ele>1172.308</ele>
        <time>2018-09-15T15:22:45Z</time>
      </trkpt>
      <trkpt lat="46.2495" lon="10.48144">
        <ele>1171.654</ele>
        <time>2018-09-15T15:23:05Z</time>
      </trkpt>
      <trkpt lat="46.24954" lon="10.48144">
        <ele>1170.98</ele>
        <time>2018-09-15T15:23:25Z</time>
      </trkpt>
      <trkpt lat="46.24972" lon="10.48154">
        <ele>1169.017</ele>
        <time>2018-09-15T15:23:45Z</time>
      </trkpt>
      <trkpt lat="46.24988" lon="10.4816">
        <ele>1165.54</ele>
        <time>2018-09-15T15:24:05Z</time>
      </trkpt>
      <trkpt lat="46.24993" lon="10.48159">
        <ele>1164.123</ele>
        <time>2018-09-15T15:24:25Z</time>
      </trkpt>
      <trkpt lat="46.25003" lon="10.48156">
        <ele>1161.236</ele>
        <time>2018-09-15T15:24:45Z</time>
      </trkpt>
      <trkpt lat="46.25008" lon="10.48151">
        <ele>1159.574</ele>
        <time>2018-09-15T15:25:05Z</time>
      </trkpt>
      <trkpt lat="46.25018" lon="10.48144">
        <ele>1156.561</ele>
        <time>2018-09-15T15:25:25Z</time>
      </trkpt>
      <trkpt lat="46.25026" lon="10.48141">
        <ele>1154.631</ele>
        <time>2018-09-15T15:25:45Z</time>
      </trkpt>
      <trkpt lat="46.25034" lon="10.48137">
        <ele>1153.361</ele>
        <time>2018-09-15T15:26:05Z</time>
      </trkpt>
      <trkpt lat="46.25045" lon="10.48132">
        <ele>1152.207</ele>
        <time>2018-09-15T15:26:25Z</time>
      </trkpt>
      <trkpt lat="46.25048" lon="10.48131">
        <ele>1151.808</ele>
        <time>2018-09-15T15:26:45Z</time>
      </trkpt>
      <trkpt lat="46.25051" lon="10.48129">
        <ele>1151.565</ele>
        <time>2018-09-15T15:27:05Z</time>
      </trkpt>
      <trkpt lat="46.25054" lon="10.48125">
        <ele>1151.031</ele>
        <time>2018-09-15T15:27:25Z</time>
      </trkpt>
      <trkpt lat="46.25055" lon="10.48124">
        <ele>1151.058</ele>
        <time>2018-09-15T15:27:45Z</time>
      </trkpt>
      <trkpt lat="46.25045" lon="10.48067">
        <ele>1150.011</ele>
        <time>2018-09-15T15:28:05Z</time>
      </trkpt>
      <trkpt lat="46.25036" lon="10.48041">
        <ele>1150.044</ele>
        <time>2018-09-15T15:28:25Z</time>
      </trkpt>
      <trkpt lat="46.25003" lon="10.47949">
        <ele>1144.747</ele>
        <time>2018-09-15T15:28:45Z</time>
      </trkpt>
      <trkpt lat="46.24997" lon="10.47914">
        <ele>1142.185</ele>
        <time>2018-09-15T15:29:05Z</time>
      </trkpt>
      <trkpt lat="46.24993" lon="10.4789">
        <ele>1141.592</ele>
        <time>2018-09-15T15:29:25Z</time>
      </trkpt>
      <trkpt lat="46.24989" lon="10.47866">
        <ele>1140.154</ele>
        <time>2018-09-15T15:29:45Z</time>
      </trkpt>
      <trkpt lat="46.24976" lon="10.47801">
        <ele>1137.356</ele>
        <time>2018-09-15T15:30:05Z</time>
      </trkpt>
      <trkpt lat="46.24967" lon="10.47781">
        <ele>1136.611</ele>
        <time>2018-09-15T15:30:25Z</time>
      </trkpt>
      <trkpt lat="46.24948" lon="10.47743">
        <ele>1135.208</ele>
        <time>2018-09-15T15:30:45Z</time>
      </trkpt>
      <trkpt lat="46.24914" lon="10.47695">
        <ele>1132.077</ele>
        <time>2018-09-15T15:31:05Z</time>
      </trkpt>
      <trkpt lat="46.24891" lon="10.47671">
        <ele>1130.333</ele>
        <time>2018-09-15T15:31:25Z</time>
      </trkpt>
      <trkpt lat="46.24876" lon="10.47658">
        <ele>1128.98</ele>
        <time>2018-09-15T15:31:45Z</time>
      </trkpt>
      <trkpt lat="46.24858" lon="10.47627">
        <ele>1126.073</ele>
        <time>2018-09-15T15:32:05Z</time>
      </trkpt>
      <trkpt lat="46.24849" lon="10.4761">
        <ele>1125.026</ele>
        <time>2018-09-15T15:32:25Z</time>
      </trkpt>
      <trkpt lat="46.2483" lon="10.47576">
        <ele>1125.049</ele>
        <time>2018-09-15T15:32:45Z</time>
      </trkpt>
      <trkpt lat="46.24816" lon="10.47562">
        <ele>1125.017</ele>
        <time>2018-09-15T15:33:05Z</time>
      </trkpt>
      <trkpt lat="46.24794" lon="10.47527">
        <ele>1125.024</ele>
        <time>2018-09-15T15:33:25Z</time>
      </trkpt>
      <trkpt lat="46.24788" lon="10.47516">
        <ele>1125.027</ele>
        <time>2018-09-15T15:33:45Z</time>
      </trkpt>
      <trkpt lat="46.24772" lon="10.47495">
        <ele>1125.068</ele>
        <time>2018-09-15T15:34:05Z</time>
      </trkpt>
      <trkpt lat="46.2477" lon="10.47493">
        <ele>1125.014</ele>
        <time>2018-09-15T15:34:25Z</time>
      </trkpt>
      <trkpt lat="46.24754" lon="10.47468">
        <ele>1125.008</ele>
        <time>2018-09-15T15:34:45Z</time>
      </trkpt>
      <trkpt lat="46.24734" lon="10.4745">
        <ele>1125.014</ele>
        <time>2018-09-15T15:35:05Z</time>
      </trkpt>
      <trkpt lat="46.24704" lon="10.47413">
        <ele>1123.96</ele>
        <time>2018-09-15T15:35:25Z</time>
      </trkpt>
      <trkpt lat="46.24692" lon="10.47387">
        <ele>1123.117</ele>
        <time>2018-09-15T15:35:45Z</time>
      </trkpt>
      <trkpt lat="46.24674" lon="10.47338">
        <ele>1122.91</ele>
        <time>2018-09-15T15:36:05Z</time>
      </trkpt>
      <trkpt lat="46.24662" lon="10.47302">
        <ele>1123.043</ele>
        <time>2018-09-15T15:36:25Z</time>
      </trkpt>
      <trkpt lat="46.24658" lon="10.47312">
        <ele>1123.446</ele>
        <time>2018-09-15T15:36:45Z</time>
      </trkpt>
      <trkpt lat="46.2465" lon="10.47322">
        <ele>1123.934</ele>
        <time>2018-09-15T15:37:05Z</time>
      </trkpt>
      <trkpt lat="46.24643" lon="10.47332">
        <ele>1124.681</ele>
        <time>2018-09-15T15:37:25Z</time>
      </trkpt>
      <trkpt lat="46.24633" lon="10.47345">
        <ele>1128.193</ele>
        <time>2018-09-15T15:37:45Z</time>
      </trkpt>
      <trkpt lat="46.24625" lon="10.47356">
        <ele>1131.665</ele>
        <time>2018-09-15T15:38:05Z</time>
      </trkpt>
      <trkpt lat="46.24623" lon="10.47358">
        <ele>1132.421</ele>
        <time>2018-09-15T15:38:25Z</time>
      </trkpt>
      <trkpt lat="46.24614" lon="10.47357">
        <ele>1134.808</ele>
        <time>2018-09-15T15:38:45Z</time>
      </trkpt>
      <trkpt lat="46.24606" lon="10.47355">
        <ele>1136.531</ele>
        <time>2018-09-15T15:39:05Z</time>
      </trkpt>
      <trkpt lat="46.24598" lon="10.47354">
        <ele>1138.227</ele>
        <time>2018-09-15T15:39:25Z</time>
      </trkpt>
      <trkpt lat="46.24588" lon="10.47349">
        <ele>1140.064</ele>
        <time>2018-09-15T15:39:45Z</time>
      </trkpt>
      <trkpt lat="46.24582" lon="10.47344">
        <ele>1141.047</ele>
        <time>2018-09-15T15:40:05Z</time>
      </trkpt>
      <trkpt lat="46.24569" lon="10.47349">
        <ele>1142.98</ele>
        <time>2018-09-15T15:40:25Z</time>
      </trkpt>
      <trkpt lat="46.24557" lon="10.47355">
        <ele>1144.673</ele>
        <time>2018-09-15T15:40:45Z</time>
      </trkpt>
      <trkpt lat="46.24542" lon="10.47375">
        <ele>1147.721</ele>
        <time>2018-09-15T15:41:05Z</time>
      </trkpt>
      <trkpt lat="46.24531" lon="10.47393">
        <ele>1151.418</ele>
        <time>2018-09-15T15:41:25Z</time>
      </trkpt>
      <trkpt lat="46.24531" lon="10.47407">
        <ele>1154.841</ele>
        <time>2018-09-15T15:41:45Z</time>
      </trkpt>
      <trkpt lat="46.24518" lon="10.47385">
        <ele>1155.281</ele>
        <time>2018-09-15T15:42:05Z</time>
      </trkpt>
      <trkpt lat="46.24491" lon="10.47374">
        <ele>1163.309</ele>
        <time>2018-09-15T15:42:25Z</time>
      </trkpt>
      <trkpt lat="46.24423" lon="10.47373">
        <ele>1168.808</ele>
        <time>2018-09-15T15:42:45Z</time>
      </trkpt>
      <trkpt lat="46.24401" lon="10.47362">
        <ele>1169.286</ele>
        <time>2018-09-15T15:43:05Z</time>
      </trkpt>
      <trkpt lat="46.24381" lon="10.4733">
        <ele>1166.582</ele>
        <time>2018-09-15T15:43:25Z</time>
      </trkpt>
      <trkpt lat="46.24362" lon="10.47316">
        <ele>1165.169</ele>
        <time>2018-09-15T15:43:45Z</time>
      </trkpt>
      <trkpt lat="46.24344" lon="10.473">
        <ele>1162.052</ele>
        <time>2018-09-15T15:44:05Z</time>
      </trkpt>
      <trkpt lat="46.24356" lon="10.47283">
        <ele>1161.035</ele>
        <time>2018-09-15T15:44:25Z</time>
      </trkpt>
      <trkpt lat="46.24375" lon="10.47258">
        <ele>1158.868</ele>
        <time>2018-09-15T15:44:45Z</time>
      </trkpt>
      <trkpt lat="46.24377" lon="10.47229">
        <ele>1155.766</ele>
        <time>2018-09-15T15:45:05Z</time>
      </trkpt>
      <trkpt lat="46.24376" lon="10.47221">
        <ele>1154.863</ele>
        <time>2018-09-15T15:45:25Z</time>
      </trkpt>
      <trkpt lat="46.24378" lon="10.4721">
        <ele>1153.424</ele>
        <time>2018-09-15T15:45:45Z</time>
      </trkpt>
      <trkpt lat="46.2438" lon="10.47199">
        <ele>1152.204</ele>
        <time>2018-09-15T15:46:05Z</time>
      </trkpt>
      <trkpt lat="46.24382" lon="10.47188">
        <ele>1151.014</ele>
        <time>2018-09-15T15:46:25Z</time>
      </trkpt>
      <trkpt lat="46.24387" lon="10.47171">
        <ele>1149.408</ele>
        <time>2018-09-15T15:46:45Z</time>
      </trkpt>
      <trkpt lat="46.24392" lon="10.47164">
        <ele>1148.624</ele>
        <time>2018-09-15T15:47:05Z</time>
      </trkpt>
      <trkpt lat="46.24396" lon="10.47155">
        <ele>1147.26</ele>
        <time>2018-09-15T15:47:25Z</time>
      </trkpt>
      <trkpt lat="46.244" lon="10.47146">
        <ele>1146.097</ele>
        <time>2018-09-15T15:47:45Z</time>
      </trkpt>
      <trkpt lat="46.244" lon="10.47137">
        <ele>1144.73</ele>
        <time>2018-09-15T15:48:05Z</time>
      </trkpt>
      <trkpt lat="46.24402" lon="10.47132">
        <ele>1144.213</ele>
        <time>2018-09-15T15:48:25Z</time>
      </trkpt>
      <trkpt lat="46.24402" lon="10.47126">
        <ele>1143.626</ele>
        <time>2018-09-15T15:48:45Z</time>
      </trkpt>
      <trkpt lat="46.24401" lon="10.47117">
        <ele>1142.634</ele>
        <time>2018-09-15T15:49:05Z</time>
      </trkpt>
      <trkpt lat="46.24397" lon="10.47106">
        <ele>1141.461</ele>
        <time>2018-09-15T15:49:25Z</time>
      </trkpt>
      <trkpt lat="46.24395" lon="10.47104">
        <ele>1141.117</ele>
        <time>2018-09-15T15:49:45Z</time>
      </trkpt>
      <trkpt lat="46.24394" lon="10.47101">
        <ele>1140.887</ele>
        <time>2018-09-15T15:50:05Z</time>
      </trkpt>
      <trkpt lat="46.24394" lon="10.47099">
        <ele>1140.515</ele>
        <time>2018-09-15T15:50:25Z</time>
      </trkpt>
      <trkpt lat="46.24395" lon="10.47092">
        <ele>1139.808</ele>
        <time>2018-09-15T15:50:45Z</time>
      </trkpt>
      <trkpt lat="46.24397" lon="10.47084">
        <ele>1138.733</ele>
        <time>2018-09-15T15:51:05Z</time>
      </trkpt>
      <trkpt lat="46.24397" lon="10.47079">
        <ele>1138.179</ele>
        <time>2018-09-15T15:51:25Z</time>
      </trkpt>
      <trkpt lat="46.24396" lon="10.47073">
        <ele>1137.256</ele>
        <time>2018-09-15T15:51:45Z</time>
      </trkpt>
      <trkpt lat="46.24393" lon="10.47069">
        <ele>1136.859</ele>
        <time>2018-09-15T15:52:05Z</time>
      </trkpt>
      <trkpt lat="46.24388" lon="10.47067">
        <ele>1136.642</ele>
        <time>2018-09-15T15:52:25Z</time>
      </trkpt>
      <trkpt lat="46.24384" lon="10.47063">
        <ele>1135.875</ele>
        <time>2018-09-15T15:52:45Z</time>
      </trkpt>
      <trkpt lat="46.24375" lon="10.47052">
        <ele>1134.113</ele>
        <time>2018-09-15T15:53:05Z</time>
      </trkpt>
      <trkpt lat="46.24368" lon="10.47038">
        <ele>1132.38</ele>
        <time>2018-09-15T15:53:25Z</time>
      </trkpt>
      <trkpt lat="46.24367" lon="10.47036">
        <ele>1132.157</ele>
        <time>2018-09-15T15:53:45Z</time>
      </trkpt>
      <trkpt lat="46.24362" lon="10.47034">
        <ele>1131.7</ele>
        <time>2018-09-15T15:54:05Z</time>
      </trkpt>
      <trkpt lat="46.24359" lon="10.47029">
        <ele>1131.02</ele>
        <time>2018-09-15T15:54:25Z</time>
      </trkpt>
      <trkpt lat="46.24354" lon="10.47025">
        <ele>1130.308</ele>
        <time>2018-09-15T15:54:45Z</time>
      </trkpt>
      <trkpt lat="46.24349" lon="10.47019">
        <ele>1129.317</ele>
        <time>2018-09-15T15:55:05Z</time>
      </trkpt>
      <trkpt lat="46.24344" lon="10.47013">
        <ele>1128.233</ele>
        <time>2018-09-15T15:55:25Z</time>
      </trkpt>
      <trkpt lat="46.24339" lon="10.47011">
        <ele>1127.71</ele>
        <time>2018-09-15T15:55:45Z</time>
      </trkpt>
      <trkpt lat="46.24337" lon="10.47004">
        <ele>1126.743</ele>
        <time>2018-09-15T15:56:05Z</time>
      </trkpt>
      <trkpt lat="46.24331" lon="10.47001">
        <ele>1126.086</ele>
        <time>2018-09-15T15:56:25Z</time>
      </trkpt>
      <trkpt lat="46.24325" lon="10.46976">
        <ele>1124.259</ele>
        <time>2018-09-15T15:56:45Z</time>
      </trkpt>
      <trkpt lat="46.24322" lon="10.46965">
        <ele>1124.017</ele>
        <time>2018-09-15T15:57:05Z</time>
      </trkpt>
      <trkpt lat="46.24315" lon="10.46948">
        <ele>1124.034</ele>
        <time>2018-09-15T15:57:25Z</time>
      </trkpt>
      <trkpt lat="46.24304" lon="10.46931">
        <ele>1124.026</ele>
        <time>2018-09-15T15:57:45Z</time>
      </trkpt>
      <trkpt lat="46.24297" lon="10.46915">
        <ele>1124.047</ele>
        <time>2018-09-15T15:58:05Z</time>
      </trkpt>
      <trkpt lat="46.24295" lon="10.46898">
        <ele>1124.211</ele>
        <time>2018-09-15T15:58:25Z</time>
      </trkpt>
      <trkpt lat="46.24289" lon="10.46885">
        <ele>1124.708</ele>
        <time>2018-09-15T15:58:45Z</time>
      </trkpt>
      <trkpt lat="46.24285" lon="10.46884">
        <ele>1125.024</ele>
        <time>2018-09-15T15:59:05Z</time>
      </trkpt>
      <trkpt lat="46.24281" lon="10.46866">
        <ele>1126.38</ele>
        <time>2018-09-15T15:59:25Z</time>
      </trkpt>
      <trkpt lat="46.24258" lon="10.46851">
        <ele>1133.557</ele>
        <time>2018-09-15T15:59:45Z</time>
      </trkpt>
      <trkpt lat="46.24225" lon="10.46825">
        <ele>1146.96</ele>
        <time>2018-09-15T16:00:05Z</time>
      </trkpt>
      <trkpt lat="46.24198" lon="10.46819">
        <ele>1149.873</ele>
        <time>2018-09-15T16:00:25Z</time>
      </trkpt>
      <trkpt lat="46.24173" lon="10.46794">
        <ele>1150.026</ele>
        <time>2018-09-15T16:00:45Z</time>
      </trkpt>
      <trkpt lat="46.24169" lon="10.46789">
        <ele>1150.094</ele>
        <time>2018-09-15T16:01:05Z</time>
      </trkpt>
      <trkpt lat="46.24155" lon="10.46772">
        <ele>1150.531</ele>
        <time>2018-09-15T16:01:25Z</time>
      </trkpt>
      <trkpt lat="46.24149" lon="10.46766">
        <ele>1150.911</ele>
        <time>2018-09-15T16:01:45Z</time>
      </trkpt>
      <trkpt lat="46.24127" lon="10.4675">
        <ele>1152.421</ele>
        <time>2018-09-15T16:02:05Z</time>
      </trkpt>
      <trkpt lat="46.24103" lon="10.46738">
        <ele>1153.803</ele>
        <time>2018-09-15T16:02:25Z</time>
      </trkpt>
      <trkpt lat="46.24093" lon="10.46708">
        <ele>1158.208</ele>
        <time>2018-09-15T16:02:45Z</time>
      </trkpt>
      <trkpt lat="46.24093" lon="10.46688">
        <ele>1161.213</ele>
        <time>2018-09-15T16:03:05Z</time>
      </trkpt>
      <trkpt lat="46.24088" lon="10.4663">
        <ele>1171.799</ele>
        <time>2018-09-15T16:03:25Z</time>
      </trkpt>
      <trkpt lat="46.24051" lon="10.46668">
        <ele>1175.096</ele>
        <time>2018-09-15T16:03:45Z</time>
      </trkpt>
      <trkpt lat="46.24009" lon="10.46693">
        <ele>1181.439</ele>
        <time>2018-09-15T16:04:05Z</time>
      </trkpt>
      <trkpt lat="46.23968" lon="10.4671">
        <ele>1186.832</ele>
        <time>2018-09-15T16:04:25Z</time>
      </trkpt>
      <trkpt lat="46.23927" lon="10.46719">
        <ele>1200.465</ele>
        <time>2018-09-15T16:04:45Z</time>
      </trkpt>
      <trkpt lat="46.23904" lon="10.4672">
        <ele>1210.413</ele>
        <time>2018-09-15T16:05:05Z</time>
      </trkpt>
      <trkpt lat="46.23883" lon="10.46721">
        <ele>1219.15</ele>
        <time>2018-09-15T16:05:25Z</time>
      </trkpt>
      <trkpt lat="46.23861" lon="10.46732">
        <ele>1220.461</ele>
        <time>2018-09-15T16:05:45Z</time>
      </trkpt>
      <trkpt lat="46.23834" lon="10.46735">
        <ele>1229.321</ele>
        <time>2018-09-15T16:06:05Z</time>
      </trkpt>
      <trkpt lat="46.23806" lon="10.46738">
        <ele>1232.813</ele>
        <time>2018-09-15T16:06:25Z</time>
      </trkpt>
      <trkpt lat="46.23778" lon="10.46737">
        <ele>1238.508</ele>
        <time>2018-09-15T16:06:45Z</time>
      </trkpt>
      <trkpt lat="46.2375" lon="10.46749">
        <ele>1239.398</ele>
        <time>2018-09-15T16:07:05Z</time>
      </trkpt>
      <trkpt lat="46.23738" lon="10.46766">
        <ele>1235.114</ele>
        <time>2018-09-15T16:07:25Z</time>
      </trkpt>
      <trkpt lat="46.23713" lon="10.46773">
        <ele>1238.031</ele>
        <time>2018-09-15T16:07:45Z</time>
      </trkpt>
      <trkpt lat="46.23696" lon="10.46791">
        <ele>1235.824</ele>
        <time>2018-09-15T16:08:05Z</time>
      </trkpt>
      <trkpt lat="46.23674" lon="10.46814">
        <ele>1232.847</ele>
        <time>2018-09-15T16:08:25Z</time>
      </trkpt>
      <trkpt lat="46.23661" lon="10.46844">
        <ele>1227.66</ele>
        <time>2018-09-15T16:08:45Z</time>
      </trkpt>
      <trkpt lat="46.23636" lon="10.46866">
        <ele>1228.478</ele>
        <time>2018-09-15T16:09:05Z</time>
      </trkpt>
      <trkpt lat="46.23593" lon="10.46881">
        <ele>1233.735</ele>
        <time>2018-09-15T16:09:25Z</time>
      </trkpt>
      <trkpt lat="46.2355" lon="10.46873">
        <ele>1243.468</ele>
        <time>2018-09-15T16:09:45Z</time>
      </trkpt>
      <trkpt lat="46.23501" lon="10.46855">
        <ele>1253.342</ele>
        <time>2018-09-15T16:10:05Z</time>
      </trkpt>
      <trkpt lat="46.23473" lon="10.46843">
        <ele>1261.226</ele>
        <time>2018-09-15T16:10:25Z</time>
      </trkpt>
      <trkpt lat="46.23454" lon="10.46823">
        <ele>1267.708</ele>
        <time>2018-09-15T16:10:45Z</time>
      </trkpt>
      <trkpt lat="46.23523" lon="10.46818">
        <ele>1270.118</ele>
        <time>2018-09-15T16:11:05Z</time>
      </trkpt>
      <trkpt lat="46.23553" lon="10.46796">
        <ele>1277.344</ele>
        <time>2018-09-15T16:11:25Z</time>
      </trkpt>
      <trkpt lat="46.23564" lon="10.46782">
        <ele>1280.231</ele>
        <time>2018-09-15T16:11:45Z</time>
      </trkpt>
      <trkpt lat="46.23537" lon="10.46785">
        <ele>1285.354</ele>
        <time>2018-09-15T16:12:05Z</time>
      </trkpt>
      <trkpt lat="46.23525" lon="10.46762">
        <ele>1299.817</ele>
        <time>2018-09-15T16:12:25Z</time>
      </trkpt>
      <trkpt lat="46.23552" lon="10.46742">
        <ele>1303.18</ele>
        <time>2018-09-15T16:12:45Z</time>
      </trkpt>
      <trkpt lat="46.23572" lon="10.46702">
        <ele>1311.638</ele>
        <time>2018-09-15T16:13:05Z</time>
      </trkpt>
      <trkpt lat="46.23585" lon="10.46663">
        <ele>1315.565</ele>
        <time>2018-09-15T16:13:25Z</time>
      </trkpt>
      <trkpt lat="46.23597" lon="10.4663">
        <ele>1324.776</ele>
        <time>2018-09-15T16:13:45Z</time>
      </trkpt>
      <trkpt lat="46.23552" lon="10.46628">
        <ele>1341.29</ele>
        <time>2018-09-15T16:14:05Z</time>
      </trkpt>
      <trkpt lat="46.23507" lon="10.46649">
        <ele>1344.519</ele>
        <time>2018-09-15T16:14:25Z</time>
      </trkpt>
      <trkpt lat="46.23487" lon="10.46657">
        <ele>1345.608</ele>
        <time>2018-09-15T16:14:45Z</time>
      </trkpt>
      <trkpt lat="46.23489" lon="10.46629">
        <ele>1354.179</ele>
        <time>2018-09-15T16:15:05Z</time>
      </trkpt>
      <trkpt lat="46.23521" lon="10.46583">
        <ele>1360.635</ele>
        <time>2018-09-15T16:15:25Z</time>
      </trkpt>
      <trkpt lat="46.23552" lon="10.46539">
        <ele>1368.962</ele>
        <time>2018-09-15T16:15:45Z</time>
      </trkpt>
      <trkpt lat="46.23609" lon="10.46511">
        <ele>1385.035</ele>
        <time>2018-09-15T16:16:05Z</time>
      </trkpt>
      <trkpt lat="46.23634" lon="10.46504">
        <ele>1390.638</ele>
        <time>2018-09-15T16:16:25Z</time>
      </trkpt>
      <trkpt lat="46.23664" lon="10.46479">
        <ele>1397.151</ele>
        <time>2018-09-15T16:16:45Z</time>
      </trkpt>
      <trkpt lat="46.237" lon="10.46426">
        <ele>1407.979</ele>
        <time>2018-09-15T16:17:05Z</time>
      </trkpt>
      <trkpt lat="46.23734" lon="10.46385">
        <ele>1414.976</ele>
        <time>2018-09-15T16:17:25Z</time>
      </trkpt>
      <trkpt lat="46.23747" lon="10.46363">
        <ele>1421.496</ele>
        <time>2018-09-15T16:17:45Z</time>
      </trkpt>
      <trkpt lat="46.23753" lon="10.46334">
        <ele>1428.331</ele>
        <time>2018-09-15T16:18:05Z</time>
      </trkpt>
      <trkpt lat="46.23762" lon="10.46302">
        <ele>1429.924</ele>
        <time>2018-09-15T16:18:25Z</time>
      </trkpt>
      <trkpt lat="46.23756" lon="10.46284">
        <ele>1438.708</ele>
        <time>2018-09-15T16:18:45Z</time>
      </trkpt>
      <trkpt lat="46.23734" lon="10.46294">
        <ele>1447.071</ele>
        <time>2018-09-15T16:19:05Z</time>
      </trkpt>
      <trkpt lat="46.23701" lon="10.46304">
        <ele>1454.887</ele>
        <time>2018-09-15T16:19:25Z</time>
      </trkpt>
      <trkpt lat="46.23659" lon="10.46311">
        <ele>1462.794</ele>
        <time>2018-09-15T16:19:45Z</time>
      </trkpt>
      <trkpt lat="46.23672" lon="10.46291">
        <ele>1466.047</ele>
        <time>2018-09-15T16:20:05Z</time>
      </trkpt>
      <trkpt lat="46.23675" lon="10.46261">
        <ele>1472.84</ele>
        <time>2018-09-15T16:20:25Z</time>
      </trkpt>
      <trkpt lat="46.23679" lon="10.46227">
        <ele>1477.823</ele>
        <time>2018-09-15T16:20:45Z</time>
      </trkpt>
      <trkpt lat="46.23682" lon="10.46183">
        <ele>1482.071</ele>
        <time>2018-09-15T16:21:05Z</time>
      </trkpt>
      <trkpt lat="46.23683" lon="10.46167">
        <ele>1483.698</ele>
        <time>2018-09-15T16:21:25Z</time>
      </trkpt>
      <trkpt lat="46.23682" lon="10.46119">
        <ele>1488.924</ele>
        <time>2018-09-15T16:21:45Z</time>
      </trkpt>
      <trkpt lat="46.23682" lon="10.46106">
        <ele>1490.204</ele>
        <time>2018-09-15T16:22:05Z</time>
      </trkpt>
      <trkpt lat="46.23682" lon="10.46082">
        <ele>1492.814</ele>
        <time>2018-09-15T16:22:25Z</time>
      </trkpt>
      <trkpt lat="46.23689" lon="10.46038">
        <ele>1495.608</ele>
        <time>2018-09-15T16:22:45Z</time>
      </trkpt>
      <trkpt lat="46.23689" lon="10.4601">
        <ele>1498.444</ele>
        <time>2018-09-15T16:23:05Z</time>
      </trkpt>
      <trkpt lat="46.23684" lon="10.4598">
        <ele>1503.74</ele>
        <time>2018-09-15T16:23:25Z</time>
      </trkpt>
      <trkpt lat="46.23668" lon="10.45955">
        <ele>1513.617</ele>
        <time>2018-09-15T16:23:45Z</time>
      </trkpt>
      <trkpt lat="46.23658" lon="10.45942">
        <ele>1519.14</ele>
        <time>2018-09-15T16:24:05Z</time>
      </trkpt>
      <trkpt lat="46.23654" lon="10.45937">
        <ele>1520.913</ele>
        <time>2018-09-15T16:24:25Z</time>
      </trkpt>
      <trkpt lat="46.23653" lon="10.45936">
        <ele>1521.436</ele>
        <time>2018-09-15T16:24:45Z</time>
      </trkpt>
      <trkpt lat="46.23653" lon="10.45935">
        <ele>1521.514</ele>
        <time>2018-09-15T16:25:05Z</time>
      </trkpt>
      <trkpt lat="46.2365" lon="10.45924">
        <ele>1523.281</ele>
        <time>2018-09-15T16:25:25Z</time>
      </trkpt>
      <trkpt lat="46.23647" lon="10.45906">
        <ele>1525.536</ele>
        <time>2018-09-15T16:25:45Z</time>
      </trkpt>
      <trkpt lat="46.23641" lon="10.4589">
        <ele>1527.717</ele>
        <time>2018-09-15T16:26:05Z</time>
      </trkpt>
      <trkpt lat="46.23638" lon="10.45882">
        <ele>1528.418</ele>
        <time>2018-09-15T16:26:25Z</time>
      </trkpt>
      <trkpt lat="46.23635" lon="10.45886">
        <ele>1528.608</ele>
        <time>2018-09-15T16:26:45Z</time>
      </trkpt>
      <trkpt lat="46.23632" lon="10.45875">
        <ele>1529.485</ele>
        <time>2018-09-15T16:27:05Z</time>
      </trkpt>
      <trkpt lat="46.23632" lon="10.45873">
        <ele>1529.471</ele>
        <time>2018-09-15T16:27:25Z</time>
      </trkpt>
      <trkpt lat="46.23628" lon="10.45844">
        <ele>1529.968</ele>
        <time>2018-09-15T16:27:45Z</time>
      </trkpt>
      <trkpt lat="46.23625" lon="10.45813">
        <ele>1528.971</ele>
        <time>2018-09-15T16:28:05Z</time>
      </trkpt>
      <trkpt lat="46.23625" lon="10.45812">
        <ele>1528.884</ele>
        <time>2018-09-15T16:28:25Z</time>
      </trkpt>
      <trkpt lat="46.23625" lon="10.45808">
        <ele>1528.657</ele>
        <time>2018-09-15T16:28:45Z</time>
      </trkpt>
      <trkpt lat="46.23627" lon="10.45808">
        <ele>1528.275</ele>
        <time>2018-09-15T16:29:05Z</time>
      </trkpt>
      <trkpt lat="46.23627" lon="10.45804">
        <ele>1528.072</ele>
        <time>2018-09-15T16:29:25Z</time>
      </trkpt>
      <trkpt lat="46.23627" lon="10.45802">
        <ele>1527.986</ele>
        <time>2018-09-15T16:29:45Z</time>
      </trkpt>
      <trkpt lat="46.23577" lon="10.45716">
        <ele>1534.06</ele>
        <time>2018-09-15T16:30:05Z</time>
      </trkpt>
      <trkpt lat="46.23576" lon="10.45716">
        <ele>1534.126</ele>
        <time>2018-09-15T16:30:25Z</time>
      </trkpt>
      <trkpt lat="46.23575" lon="10.45714">
        <ele>1534.208</ele>
        <time>2018-09-15T16:30:45Z</time>
      </trkpt>
      <trkpt lat="46.23557" lon="10.45689">
        <ele>1535.84</ele>
        <time>2018-09-15T16:31:05Z</time>
      </trkpt>
      <trkpt lat="46.23537" lon="10.45661">
        <ele>1535.786</ele>
        <time>2018-09-15T16:31:25Z</time>
      </trkpt>
      <trkpt lat="46.23527" lon="10.4564">
        <ele>1535.863</ele>
        <time>2018-09-15T16:31:45Z</time>
      </trkpt>
      <trkpt lat="46.23493" lon="10.45636">
        <ele>1553.926</ele>
        <time>2018-09-15T16:32:05Z</time>
      </trkpt>
      <trkpt lat="46.23478" lon="10.45643">
        <ele>1558.439</ele>
        <time>2018-09-15T16:32:25Z</time>
      </trkpt>
      <trkpt lat="46.23453" lon="10.45635">
        <ele>1565.432</ele>
        <time>2018-09-15T16:32:45Z</time>
      </trkpt>
      <trkpt lat="46.23452" lon="10.45629">
        <ele>1565.58</ele>
        <time>2018-09-15T16:33:05Z</time>
      </trkpt>
      <trkpt lat="46.23452" lon="10.45629">
        <ele>1565.547</ele>
        <time>2018-09-15T16:33:25Z</time>
      </trkpt>
      <trkpt lat="46.2345" lon="10.45629">
        <ele>1566.012</ele>
        <time>2018-09-15T16:33:45Z</time>
      </trkpt>
      <trkpt lat="46.23449" lon="10.45607">
        <ele>1565.432</ele>
        <time>2018-09-15T16:34:05Z</time>
      </trkpt>
      <trkpt lat="46.23451" lon="10.45588">
        <ele>1564.305</ele>
        <time>2018-09-15T16:34:25Z</time>
      </trkpt>
      <trkpt lat="46.23435" lon="10.4556">
        <ele>1568.508</ele>
        <time>2018-09-15T16:34:45Z</time>
      </trkpt>
      <trkpt lat="46.23434" lon="10.45554">
        <ele>1568.843</ele>
        <time>2018-09-15T16:35:05Z</time>
      </trkpt>
      <trkpt lat="46.23433" lon="10.45534">
        <ele>1569.469</ele>
        <time>2018-09-15T16:35:25Z</time>
      </trkpt>
      <trkpt lat="46.23423" lon="10.45511">
        <ele>1574.066</ele>
        <time>2018-09-15T16:35:45Z</time>
      </trkpt>
      <trkpt lat="46.23407" lon="10.45472">
        <ele>1579.159</ele>
        <time>2018-09-15T16:36:05Z</time>
      </trkpt>
      <trkpt lat="46.23395" lon="10.45444">
        <ele>1580.532</ele>
        <time>2018-09-15T16:36:25Z</time>
      </trkpt>
      <trkpt lat="46.23388" lon="10.45422">
        <ele>1579.695</ele>
        <time>2018-09-15T16:36:45Z</time>
      </trkpt>
      <trkpt lat="46.23369" lon="10.45397">
        <ele>1581.973</ele>
        <time>2018-09-15T16:37:05Z</time>
      </trkpt>
      <trkpt lat="46.23362" lon="10.45385">
        <ele>1582.15</ele>
        <time>2018-09-15T16:37:25Z</time>
      </trkpt>
      <trkpt lat="46.23344" lon="10.45367">
        <ele>1590.745</ele>
        <time>2018-09-15T16:37:45Z</time>
      </trkpt>
      <trkpt lat="46.23342" lon="10.45362">
        <ele>1591.447</ele>
        <time>2018-09-15T16:38:05Z</time>
      </trkpt>
      <trkpt lat="46.23342" lon="10.45362">
        <ele>1591.411</ele>
        <time>2018-09-15T16:38:25Z</time>
      </trkpt>
      <trkpt lat="46.23342" lon="10.45362">
        <ele>1591.508</ele>
        <time>2018-09-15T16:38:45Z</time>
      </trkpt>
      <trkpt lat="46.23342" lon="10.45362">
        <ele>1591.536</ele>
        <time>2018-09-15T16:39:05Z</time>
      </trkpt>
      <trkpt lat="46.23342" lon="10.45362">
        <ele>1591.552</ele>
        <time>2018-09-15T16:39:25Z</time>
      </trkpt>
      <trkpt lat="46.23342" lon="10.45361">
        <ele>1591.689</ele>
        <time>2018-09-15T16:39:45Z</time>
      </trkpt>
      <trkpt lat="46.23338" lon="10.45352">
        <ele>1592.432</ele>
        <time>2018-09-15T16:40:05Z</time>
      </trkpt>
      <trkpt lat="46.23336" lon="10.45349">
        <ele>1592.735</ele>
        <time>2018-09-15T16:40:25Z</time>
      </trkpt>
      <trkpt lat="46.23321" lon="10.4533">
        <ele>1595.068</ele>
        <time>2018-09-15T16:40:45Z</time>
      </trkpt>
      <trkpt lat="46.2332" lon="10.45318">
        <ele>1594.096</ele>
        <time>2018-09-15T16:41:05Z</time>
      </trkpt>
      <trkpt lat="46.23328" lon="10.45296">
        <ele>1590.753</ele>
        <time>2018-09-15T16:41:25Z</time>
      </trkpt>
      <trkpt lat="46.23319" lon="10.45248">
        <ele>1603.319</ele>
        <time>2018-09-15T16:41:45Z</time>
      </trkpt>
      <trkpt lat="46.23311" lon="10.452">
        <ele>1610.009</ele>
        <time>2018-09-15T16:42:05Z</time>
      </trkpt>
      <trkpt lat="46.23315" lon="10.45165">
        <ele>1612.219</ele>
        <time>2018-09-15T16:42:25Z</time>
      </trkpt>
      <trkpt lat="46.23313" lon="10.45117">
        <ele>1612.908</ele>
        <time>2018-09-15T16:42:45Z</time>
      </trkpt>
      <trkpt lat="46.23307" lon="10.45104">
        <ele>1613.953</ele>
        <time>2018-09-15T16:43:05Z</time>
      </trkpt>
      <trkpt lat="46.23296" lon="10.45088">
        <ele>1617.849</ele>
        <time>2018-09-15T16:43:25Z</time>
      </trkpt>
      <trkpt lat="46.23292" lon="10.45099">
        <ele>1620.566</ele>
        <time>2018-09-15T16:43:45Z</time>
      </trkpt>
      <trkpt lat="46.2329" lon="10.45107">
        <ele>1622.549</ele>
        <time>2018-09-15T16:44:05Z</time>
      </trkpt>
      <trkpt lat="46.23284" lon="10.45093">
        <ele>1624.192</ele>
        <time>2018-09-15T16:44:25Z</time>
      </trkpt>
      <trkpt lat="46.23282" lon="10.45127">
        <ele>1628.415</ele>
        <time>2018-09-15T16:44:45Z</time>
      </trkpt>
      <trkpt lat="46.23282" lon="10.45129">
        <ele>1628.573</ele>
        <time>2018-09-15T16:45:05Z</time>
      </trkpt>
      <trkpt lat="46.23284" lon="10.45167">
        <ele>1627.64</ele>
        <time>2018-09-15T16:45:25Z</time>
      </trkpt>
      <trkpt lat="46.23282" lon="10.45195">
        <ele>1626.592</ele>
        <time>2018-09-15T16:45:45Z</time>
      </trkpt>
      <trkpt lat="46.23277" lon="10.45213">
        <ele>1628.773</ele>
        <time>2018-09-15T16:46:05Z</time>
      </trkpt>
      <trkpt lat="46.23264" lon="10.45226">
        <ele>1631.52</ele>
        <time>2018-09-15T16:46:25Z</time>
      </trkpt>
      <trkpt lat="46.23255" lon="10.4523">
        <ele>1633.808</ele>
        <time>2018-09-15T16:46:45Z</time>
      </trkpt>
      <trkpt lat="46.23249" lon="10.45246">
        <ele>1634.121</ele>
        <time>2018-09-15T16:47:05Z</time>
      </trkpt>
      <trkpt lat="46.23243" lon="10.45261">
        <ele>1636.767</ele>
        <time>2018-09-15T16:47:25Z</time>
      </trkpt>
      <trkpt lat="46.23235" lon="10.45251">
        <ele>1643.444</ele>
        <time>2018-09-15T16:47:45Z</time>
      </trkpt>
      <trkpt lat="46.23232" lon="10.45221">
        <ele>1648.387</ele>
        <time>2018-09-15T16:48:05Z</time>
      </trkpt>
      <trkpt lat="46.23228" lon="10.45184">
        <ele>1653.75</ele>
        <time>2018-09-15T16:48:25Z</time>
      </trkpt>
      <trkpt lat="46.23215" lon="10.45147">
        <ele>1659.343</ele>
        <time>2018-09-15T16:48:45Z</time>
      </trkpt>
      <trkpt lat="46.23198" lon="10.45122">
        <ele>1664.831</ele>
        <time>2018-09-15T16:49:05Z</time>
      </trkpt>
      <trkpt lat="46.23161" lon="10.45067">
        <ele>1679.698</ele>
        <time>2018-09-15T16:49:25Z</time>
      </trkpt>
      <trkpt lat="46.2315" lon="10.45042">
        <ele>1681.225</ele>
        <time>2018-09-15T16:49:45Z</time>
      </trkpt>
      <trkpt lat="46.23147" lon="10.45034">
        <ele>1681.526</ele>
        <time>2018-09-15T16:50:05Z</time>
      </trkpt>
      <trkpt lat="46.23127" lon="10.45007">
        <ele>1688.808</ele>
        <time>2018-09-15T16:50:25Z</time>
      </trkpt>
      <trkpt lat="46.23125" lon="10.45006">
        <ele>1689.808</ele>
        <time>2018-09-15T16:50:45Z</time>
      </trkpt>
      <trkpt lat="46.23117" lon="10.44998">
        <ele>1693.694</ele>
        <time>2018-09-15T16:51:05Z</time>
      </trkpt>
      <trkpt lat="46.23101" lon="10.44982">
        <ele>1697.35</ele>
        <time>2018-09-15T16:51:25Z</time>
      </trkpt>
      <trkpt lat="46.23097" lon="10.44979">
        <ele>1697.797</ele>
        <time>2018-09-15T16:51:45Z</time>
      </trkpt>
      <trkpt lat="46.23082" lon="10.44965">
        <ele>1699.35</ele>
        <time>2018-09-15T16:52:05Z</time>
      </trkpt>
      <trkpt lat="46.23076" lon="10.44959">
        <ele>1700.183</ele>
        <time>2018-09-15T16:52:25Z</time>
      </trkpt>
      <trkpt lat="46.23067" lon="10.44956">
        <ele>1703.646</ele>
        <time>2018-09-15T16:52:45Z</time>
      </trkpt>
      <trkpt lat="46.23066" lon="10.44956">
        <ele>1704.074</ele>
        <time>2018-09-15T16:53:05Z</time>
      </trkpt>
      <trkpt lat="46.23066" lon="10.44964">
        <ele>1706.541</ele>
        <time>2018-09-15T16:53:25Z</time>
      </trkpt>
      <trkpt lat="46.23066" lon="10.44964">
        <ele>1706.634</ele>
        <time>2018-09-15T16:53:45Z</time>
      </trkpt>
      <trkpt lat="46.23071" lon="10.44972">
        <ele>1707.055</ele>
        <time>2018-09-15T16:54:05Z</time>
      </trkpt>
      <trkpt lat="46.23074" lon="10.44981">
        <ele>1708.21</ele>
        <time>2018-09-15T16:54:25Z</time>
      </trkpt>
      <trkpt lat="46.23079" lon="10.4499">
        <ele>1709.508</ele>
        <time>2018-09-15T16:54:45Z</time>
      </trkpt>
      <trkpt lat="46.23082" lon="10.44995">
        <ele>1710.175</ele>
        <time>2018-09-15T16:55:05Z</time>
      </trkpt>
      <trkpt lat="46.23082" lon="10.44997">
        <ele>1710.371</ele>
        <time>2018-09-15T16:55:25Z</time>
      </trkpt>
      <trkpt lat="46.23092" lon="10.45007">
        <ele>1708.918</ele>
        <time>2018-09-15T16:55:45Z</time>
      </trkpt>
      <trkpt lat="46.23098" lon="10.45013">
        <ele>1707.011</ele>
        <time>2018-09-15T16:56:05Z</time>
      </trkpt>
      <trkpt lat="46.23101" lon="10.45025">
        <ele>1707.734</ele>
        <time>2018-09-15T16:56:25Z</time>
      </trkpt>
      <trkpt lat="46.231" lon="10.45026">
        <ele>1708.477</ele>
        <time>2018-09-15T16:56:45Z</time>
      </trkpt>
      <trkpt lat="46.231" lon="10.45028">
        <ele>1709.165</ele>
        <time>2018-09-15T16:57:05Z</time>
      </trkpt>
      <trkpt lat="46.23097" lon="10.45029">
        <ele>1711.552</ele>
        <time>2018-09-15T16:57:25Z</time>
      </trkpt>
      <trkpt lat="46.23096" lon="10.4503">
        <ele>1712.242</ele>
        <time>2018-09-15T16:57:45Z</time>
      </trkpt>
      <trkpt lat="46.23095" lon="10.4503">
        <ele>1712.622</ele>
        <time>2018-09-15T16:58:05Z</time>
      </trkpt>
      <trkpt lat="46.23083" lon="10.45016">
        <ele>1716.914</ele>
        <time>2018-09-15T16:58:25Z</time>
      </trkpt>
      <trkpt lat="46.23069" lon="10.45">
        <ele>1717.108</ele>
        <time>2018-09-15T16:58:45Z</time>
      </trkpt>
      <trkpt lat="46.23064" lon="10.44994">
        <ele>1717.356</ele>
        <time>2018-09-15T16:59:05Z</time>
      </trkpt>
      <trkpt lat="46.23061" lon="10.44991">
        <ele>1717.592</ele>
        <time>2018-09-15T16:59:25Z</time>
      </trkpt>
      <trkpt lat="46.23047" lon="10.44979">
        <ele>1721.049</ele>
        <time>2018-09-15T16:59:45Z</time>
      </trkpt>
      <trkpt lat="46.2303" lon="10.44955">
        <ele>1723.622</ele>
        <time>2018-09-15T17:00:05Z</time>
      </trkpt>
      <trkpt lat="46.23029" lon="10.44954">
        <ele>1723.755</ele>
        <time>2018-09-15T17:00:25Z</time>
      </trkpt>
      <trkpt lat="46.23021" lon="10.44943">
        <ele>1724.788</ele>
        <time>2018-09-15T17:00:45Z</time>
      </trkpt>
      <trkpt lat="46.23005" lon="10.44929">
        <ele>1728.536</ele>
        <time>2018-09-15T17:01:05Z</time>
      </trkpt>
      <trkpt lat="46.23001" lon="10.44922">
        <ele>1728.923</ele>
        <time>2018-09-15T17:01:25Z</time>
      </trkpt>
      <trkpt lat="46.22995" lon="10.4492">
        <ele>1733.172</ele>
        <time>2018-09-15T17:01:45Z</time>
      </trkpt>
      <trkpt lat="46.22994" lon="10.4492">
        <ele>1734.113</ele>
        <time>2018-09-15T17:02:05Z</time>
      </trkpt>
      <trkpt lat="46.22992" lon="10.44933">
        <ele>1738.014</ele>
        <time>2018-09-15T17:02:25Z</time>
      </trkpt>
      <trkpt lat="46.22993" lon="10.44935">
        <ele>1737.808</ele>
        <time>2018-09-15T17:02:45Z</time>
      </trkpt>
      <trkpt lat="46.22994" lon="10.44937">
        <ele>1737.819</ele>
        <time>2018-09-15T17:03:05Z</time>
      </trkpt>
      <trkpt lat="46.23" lon="10.44946">
        <ele>1735.845</ele>
        <time>2018-09-15T17:03:25Z</time>
      </trkpt>
      <trkpt lat="46.23015" lon="10.44972">
        <ele>1735.762</ele>
        <time>2018-09-15T17:03:45Z</time>
      </trkpt>
      <trkpt lat="46.23042" lon="10.45018">
        <ele>1733.795</ele>
        <time>2018-09-15T17:04:05Z</time>
      </trkpt>
      <trkpt lat="46.23052" lon="10.45038">
        <ele>1732.978</ele>
        <time>2018-09-15T17:04:25Z</time>
      </trkpt>
      <trkpt lat="46.23054" lon="10.45052">
        <ele>1735.261</ele>
        <time>2018-09-15T17:04:45Z</time>
      </trkpt>
      <trkpt lat="46.23046" lon="10.45077">
        <ele>1743.099</ele>
        <time>2018-09-15T17:05:05Z</time>
      </trkpt>
      <trkpt lat="46.23045" lon="10.45081">
        <ele>1744.166</ele>
        <time>2018-09-15T17:05:25Z</time>
      </trkpt>
      <trkpt lat="46.23039" lon="10.45099">
        <ele>1746.794</ele>
        <time>2018-09-15T17:05:45Z</time>
      </trkpt>
      <trkpt lat="46.23034" lon="10.4511">
        <ele>1748.457</ele>
        <time>2018-09-15T17:06:05Z</time>
      </trkpt>
      <trkpt lat="46.2303" lon="10.45103">
        <ele>1749.922</ele>
        <time>2018-09-15T17:06:25Z</time>
      </trkpt>
      <trkpt lat="46.23026" lon="10.45094">
        <ele>1751.708</ele>
        <time>2018-09-15T17:06:45Z</time>
      </trkpt>
      <trkpt lat="46.23025" lon="10.45092">
        <ele>1751.971</ele>
        <time>2018-09-15T17:07:05Z</time>
      </trkpt>
      <trkpt lat="46.23013" lon="10.45059">
        <ele>1753.997</ele>
        <time>2018-09-15T17:07:25Z</time>
      </trkpt>
      <trkpt lat="46.23002" lon="10.45038">
        <ele>1753.774</ele>
        <time>2018-09-15T17:07:45Z</time>
      </trkpt>
      <trkpt lat="46.22995" lon="10.45019">
        <ele>1754.547</ele>
        <time>2018-09-15T17:08:05Z</time>
      </trkpt>
      <trkpt lat="46.22988" lon="10.45008">
        <ele>1756.33</ele>
        <time>2018-09-15T17:08:25Z</time>
      </trkpt>
      <trkpt lat="46.22976" lon="10.4501">
        <ele>1761.653</ele>
        <time>2018-09-15T17:08:45Z</time>
      </trkpt>
      <trkpt lat="46.22975" lon="10.45038">
        <ele>1766.151</ele>
        <time>2018-09-15T17:09:05Z</time>
      </trkpt>
      <trkpt lat="46.22969" lon="10.45076">
        <ele>1773.658</ele>
        <time>2018-09-15T17:09:25Z</time>
      </trkpt>
      <trkpt lat="46.22964" lon="10.45113">
        <ele>1778.588</ele>
        <time>2018-09-15T17:09:45Z</time>
      </trkpt>
      <trkpt lat="46.22961" lon="10.45128">
        <ele>1780.224</ele>
        <time>2018-09-15T17:10:05Z</time>
      </trkpt>
      <trkpt lat="46.22957" lon="10.45135">
        <ele>1782.326</ele>
        <time>2018-09-15T17:10:25Z</time>
      </trkpt>
      <trkpt lat="46.22954" lon="10.45152">
        <ele>1785.108</ele>
        <time>2018-09-15T17:10:45Z</time>
      </trkpt>
      <trkpt lat="46.22957" lon="10.45187">
        <ele>1787.72</ele>
        <time>2018-09-15T17:11:05Z</time>
      </trkpt>
      <trkpt lat="46.22956" lon="10.45208">
        <ele>1789.266</ele>
        <time>2018-09-15T17:11:25Z</time>
      </trkpt>
      <trkpt lat="46.22954" lon="10.45255">
        <ele>1792.323</ele>
        <time>2018-09-15T17:11:45Z</time>
      </trkpt>
      <trkpt lat="46.22944" lon="10.45299">
        <ele>1800.026</ele>
        <time>2018-09-15T17:12:05Z</time>
      </trkpt>
      <trkpt lat="46.22927" lon="10.45345">
        <ele>1806.219</ele>
        <time>2018-09-15T17:12:25Z</time>
      </trkpt>
      <trkpt lat="46.22918" lon="10.45368">
        <ele>1809.572</ele>
        <time>2018-09-15T17:12:45Z</time>
      </trkpt>
      <trkpt lat="46.22909" lon="10.45388">
        <ele>1812.62</ele>
        <time>2018-09-15T17:13:05Z</time>
      </trkpt>
      <trkpt lat="46.22901" lon="10.45426">
        <ele>1814.747</ele>
        <time>2018-09-15T17:13:25Z</time>
      </trkpt>
      <trkpt lat="46.22884" lon="10.45497">
        <ele>1824.014</ele>
        <time>2018-09-15T17:13:45Z</time>
      </trkpt>
      <trkpt lat="46.2288" lon="10.45547">
        <ele>1828.354</ele>
        <time>2018-09-15T17:14:05Z</time>
      </trkpt>
      <trkpt lat="46.22879" lon="10.45549">
        <ele>1829.509</ele>
        <time>2018-09-15T17:14:25Z</time>
      </trkpt>
      <trkpt lat="46.22889" lon="10.45582">
        <ele>1824.508</ele>
        <time>2018-09-15T17:14:45Z</time>
      </trkpt>
      <trkpt lat="46.22891" lon="10.45587">
        <ele>1823.823</ele>
        <time>2018-09-15T17:15:05Z</time>
      </trkpt>
      <trkpt lat="46.22892" lon="10.45604">
        <ele>1824.169</ele>
        <time>2018-09-15T17:15:25Z</time>
      </trkpt>
      <trkpt lat="46.22895" lon="10.45629">
        <ele>1825.746</ele>
        <time>2018-09-15T17:15:45Z</time>
      </trkpt>
      <trkpt lat="46.22897" lon="10.45647">
        <ele>1827.989</ele>
        <time>2018-09-15T17:16:05Z</time>
      </trkpt>
      <trkpt lat="46.22895" lon="10.4567">
        <ele>1832.862</ele>
        <time>2018-09-15T17:16:25Z</time>
      </trkpt>
      <trkpt lat="46.22893" lon="10.45696">
        <ele>1837.915</ele>
        <time>2018-09-15T17:16:45Z</time>
      </trkpt>
      <trkpt lat="46.22893" lon="10.45714">
        <ele>1840.883</ele>
        <time>2018-09-15T17:17:05Z</time>
      </trkpt>
      <trkpt lat="46.22896" lon="10.45738">
        <ele>1842.51</ele>
        <time>2018-09-15T17:17:25Z</time>
      </trkpt>
      <trkpt lat="46.22899" lon="10.4575">
        <ele>1842.968</ele>
        <time>2018-09-15T17:17:45Z</time>
      </trkpt>
      <trkpt lat="46.22904" lon="10.45776">
        <ele>1840.642</ele>
        <time>2018-09-15T17:18:05Z</time>
      </trkpt>
      <trkpt lat="46.22902" lon="10.45784">
        <ele>1843.026</ele>
        <time>2018-09-15T17:18:25Z</time>
      </trkpt>
      <trkpt lat="46.22897" lon="10.45796">
        <ele>1847.208</ele>
        <time>2018-09-15T17:18:45Z</time>
      </trkpt>
      <trkpt lat="46.22894" lon="10.45799">
        <ele>1849.168</ele>
        <time>2018-09-15T17:19:05Z</time>
      </trkpt>
      <trkpt lat="46.2289" lon="10.45805">
        <ele>1852.454</ele>
        <time>2018-09-15T17:19:25Z</time>
      </trkpt>
      <trkpt lat="46.22887" lon="10.4581">
        <ele>1854.631</ele>
        <time>2018-09-15T17:19:45Z</time>
      </trkpt>
      <trkpt lat="46.22885" lon="10.45819">
        <ele>1856.394</ele>
        <time>2018-09-15T17:20:05Z</time>
      </trkpt>
      <trkpt lat="46.22884" lon="10.4583">
        <ele>1858.097</ele>
        <time>2018-09-15T17:20:25Z</time>
      </trkpt>
      <trkpt lat="46.22884" lon="10.45844">
        <ele>1858.19</ele>
        <time>2018-09-15T17:20:45Z</time>
      </trkpt>
      <trkpt lat="46.22882" lon="10.45857">
        <ele>1857.978</ele>
        <time>2018-09-15T17:21:05Z</time>
      </trkpt>
      <trkpt lat="46.22881" lon="10.45873">
        <ele>1857.175</ele>
        <time>2018-09-15T17:21:25Z</time>
      </trkpt>
      <trkpt lat="46.22879" lon="10.45881">
        <ele>1857.321</ele>
        <time>2018-09-15T17:21:45Z</time>
      </trkpt>
      <trkpt lat="46.22872" lon="10.45888">
        <ele>1859.241</ele>
        <time>2018-09-15T17:22:05Z</time>
      </trkpt>
      <trkpt lat="46.22864" lon="10.45891">
        <ele>1861.705</ele>
        <time>2018-09-15T17:22:25Z</time>
      </trkpt>
      <trkpt lat="46.2286" lon="10.45888">
        <ele>1863.908</ele>
        <time>2018-09-15T17:22:45Z</time>
      </trkpt>
      <trkpt lat="46.22855" lon="10.45879">
        <ele>1868.054</ele>
        <time>2018-09-15T17:23:05Z</time>
      </trkpt>
      <trkpt lat="46.2285" lon="10.45878">
        <ele>1870.97</ele>
        <time>2018-09-15T17:23:25Z</time>
      </trkpt>
      <trkpt lat="46.22848" lon="10.45881">
        <ele>1872.227</ele>
        <time>2018-09-15T17:23:45Z</time>
      </trkpt>
      <trkpt lat="46.22845" lon="10.45886">
        <ele>1873.09</ele>
        <time>2018-09-15T17:24:05Z</time>
      </trkpt>
      <trkpt lat="46.22841" lon="10.45891">
        <ele>1875.033</ele>
        <time>2018-09-15T17:24:25Z</time>
      </trkpt>
      <trkpt lat="46.22835" lon="10.45907">
        <ele>1877.476</ele>
        <time>2018-09-15T17:24:45Z</time>
      </trkpt>
      <trkpt lat="46.22829" lon="10.45922">
        <ele>1878.684</ele>
        <time>2018-09-15T17:25:05Z</time>
      </trkpt>
      <trkpt lat="46.22821" lon="10.45934">
        <ele>1879.051</ele>
        <time>2018-09-15T17:25:25Z</time>
      </trkpt>
      <trkpt lat="46.22811" lon="10.45939">
        <ele>1880.729</ele>
        <time>2018-09-15T17:25:45Z</time>
      </trkpt>
      <trkpt lat="46.22801" lon="10.45937">
        <ele>1883.7</ele>
        <time>2018-09-15T17:26:05Z</time>
      </trkpt>
      <trkpt lat="46.22793" lon="10.45932">
        <ele>1887.02</ele>
        <time>2018-09-15T17:26:25Z</time>
      </trkpt>
      <trkpt lat="46.22785" lon="10.45933">
        <ele>1889.108</ele>
        <time>2018-09-15T17:26:45Z</time>
      </trkpt>
      <trkpt lat="46.2278" lon="10.45937">
        <ele>1890.084</ele>
        <time>2018-09-15T17:27:05Z</time>
      </trkpt>
      <trkpt lat="46.22771" lon="10.45945">
        <ele>1891.41</ele>
        <time>2018-09-15T17:27:25Z</time>
      </trkpt>
      <trkpt lat="46.22765" lon="10.45953">
        <ele>1891.637</ele>
        <time>2018-09-15T17:27:45Z</time>
      </trkpt>
      <trkpt lat="46.22753" lon="10.45962">
        <ele>1893.98</ele>
        <time>2018-09-15T17:28:05Z</time>
      </trkpt>
      <trkpt lat="46.22747" lon="10.45966">
        <ele>1895.163</ele>
        <time>2018-09-15T17:28:25Z</time>
      </trkpt>
      <trkpt lat="46.22737" lon="10.45967">
        <ele>1898.136</ele>
        <time>2018-09-15T17:28:45Z</time>
      </trkpt>
      <trkpt lat="46.22714" lon="10.45991">
        <ele>1899.534</ele>
        <time>2018-09-15T17:29:05Z</time>
      </trkpt>
      <trkpt lat="46.22697" lon="10.46005">
        <ele>1900.791</ele>
        <time>2018-09-15T17:29:25Z</time>
      </trkpt>
      <trkpt lat="46.22669" lon="10.46024">
        <ele>1905.122</ele>
        <time>2018-09-15T17:29:45Z</time>
      </trkpt>
      <trkpt lat="46.22655" lon="10.46027">
        <ele>1908.962</ele>
        <time>2018-09-15T17:30:05Z</time>
      </trkpt>
      <trkpt lat="46.22644" lon="10.46031">
        <ele>1911.108</ele>
        <time>2018-09-15T17:30:25Z</time>
      </trkpt>
      <trkpt lat="46.22636" lon="10.46039">
        <ele>1911.008</ele>
        <time>2018-09-15T17:30:45Z</time>
      </trkpt>
      <trkpt lat="46.2263" lon="10.46045">
        <ele>1910.544</ele>
        <time>2018-09-15T17:31:05Z</time>
      </trkpt>
      <trkpt lat="46.22618" lon="10.46053">
        <ele>1911.63</ele>
        <time>2018-09-15T17:31:25Z</time>
      </trkpt>
      <trkpt lat="46.22606" lon="10.46054">
        <ele>1914.767</ele>
        <time>2018-09-15T17:31:45Z</time>
      </trkpt>
      <trkpt lat="46.22594" lon="10.46053">
        <ele>1917.99</ele>
        <time>2018-09-15T17:32:05Z</time>
      </trkpt>
      <trkpt lat="46.22585" lon="10.46052">
        <ele>1920.483</ele>
        <time>2018-09-15T17:32:25Z</time>
      </trkpt>
      <trkpt lat="46.22579" lon="10.46048">
        <ele>1923.776</ele>
        <time>2018-09-15T17:32:45Z</time>
      </trkpt>
      <trkpt lat="46.22577" lon="10.46041">
        <ele>1926.824</ele>
        <time>2018-09-15T17:33:05Z</time>
      </trkpt>
      <trkpt lat="46.22576" lon="10.46025">
        <ele>1932.481</ele>
        <time>2018-09-15T17:33:25Z</time>
      </trkpt>
      <trkpt lat="46.22577" lon="10.46014">
        <ele>1935.899</ele>
        <time>2018-09-15T17:33:45Z</time>
      </trkpt>
      <trkpt lat="46.22579" lon="10.45998">
        <ele>1940.907</ele>
        <time>2018-09-15T17:34:05Z</time>
      </trkpt>
      <trkpt lat="46.22579" lon="10.4598">
        <ele>1946.327</ele>
        <time>2018-09-15T17:34:25Z</time>
      </trkpt>
      <trkpt lat="46.22583" lon="10.45966">
        <ele>1949.708</ele>
        <time>2018-09-15T17:34:45Z</time>
      </trkpt>
      <trkpt lat="46.22588" lon="10.4595">
        <ele>1952.541</ele>
        <time>2018-09-15T17:35:05Z</time>
      </trkpt>
      <trkpt lat="46.22597" lon="10.45941">
        <ele>1952.857</ele>
        <time>2018-09-15T17:35:25Z</time>
      </trkpt>
      <trkpt lat="46.22602" lon="10.45929">
        <ele>1954.324</ele>
        <time>2018-09-15T17:35:45Z</time>
      </trkpt>
      <trkpt lat="46.22605" lon="10.45911">
        <ele>1957.417</ele>
        <time>2018-09-15T17:36:05Z</time>
      </trkpt>
      <trkpt lat="46.22608" lon="10.45887">
        <ele>1960.97</ele>
        <time>2018-09-15T17:36:25Z</time>
      </trkpt>
      <trkpt lat="46.22612" lon="10.45879">
        <ele>1961.633</ele>
        <time>2018-09-15T17:36:45Z</time>
      </trkpt>
      <trkpt lat="46.22613" lon="10.45878">
        <ele>1961.721</ele>
        <time>2018-09-15T17:37:05Z</time>
      </trkpt>
      <trkpt lat="46.22614" lon="10.45875">
        <ele>1962.038</ele>
        <time>2018-09-15T17:37:25Z</time>
      </trkpt>
      <trkpt lat="46.22613" lon="10.45872">
        <ele>1962.829</ele>
        <time>2018-09-15T17:37:45Z</time>
      </trkpt>
      <trkpt lat="46.22621" lon="10.45838">
        <ele>1966.9</ele>
        <time>2018-09-15T17:38:05Z</time>
      </trkpt>
      <trkpt lat="46.22632" lon="10.45811">
        <ele>1967.72</ele>
        <time>2018-09-15T17:38:25Z</time>
      </trkpt>
      <trkpt lat="46.22637" lon="10.45787">
        <ele>1969.208</ele>
        <time>2018-09-15T17:38:45Z</time>
      </trkpt>
      <trkpt lat="46.22647" lon="10.45767">
        <ele>1967.754</ele>
        <time>2018-09-15T17:39:05Z</time>
      </trkpt>
      <trkpt lat="46.22648" lon="10.45743">
        <ele>1969.34</ele>
        <time>2018-09-15T17:39:25Z</time>
      </trkpt>
      <trkpt lat="46.22646" lon="10.45725">
        <ele>1972.077</ele>
        <time>2018-09-15T17:39:45Z</time>
      </trkpt>
      <trkpt lat="46.22644" lon="10.45703">
        <ele>1973.96</ele>
        <time>2018-09-15T17:40:05Z</time>
      </trkpt>
      <trkpt lat="46.2264" lon="10.45691">
        <ele>1976.353</ele>
        <time>2018-09-15T17:40:25Z</time>
      </trkpt>
      <trkpt lat="46.22636" lon="10.45681">
        <ele>1978.726</ele>
        <time>2018-09-15T17:40:45Z</time>
      </trkpt>
      <trkpt lat="46.22635" lon="10.45675">
        <ele>1979.644</ele>
        <time>2018-09-15T17:41:05Z</time>
      </trkpt>
      <trkpt lat="46.22633" lon="10.4567">
        <ele>1981.041</ele>
        <time>2018-09-15T17:41:25Z</time>
      </trkpt>
      <trkpt lat="46.22631" lon="10.45664">
        <ele>1982.393</ele>
        <time>2018-09-15T17:41:45Z</time>
      </trkpt>
      <trkpt lat="46.22628" lon="10.4566">
        <ele>1984.065</ele>
        <time>2018-09-15T17:42:05Z</time>
      </trkpt>
      <trkpt lat="46.22626" lon="10.45655">
        <ele>1985.821</ele>
        <time>2018-09-15T17:42:25Z</time>
      </trkpt>
      <trkpt lat="46.22622" lon="10.4565">
        <ele>1988.308</ele>
        <time>2018-09-15T17:42:45Z</time>
      </trkpt>
      <trkpt lat="46.2262" lon="10.45652">
        <ele>1989.551</ele>
        <time>2018-09-15T17:43:05Z</time>
      </trkpt>
      <trkpt lat="46.22615" lon="10.45663">
        <ele>1990.527</ele>
        <time>2018-09-15T17:43:25Z</time>
      </trkpt>
      <trkpt lat="46.22612" lon="10.45668">
        <ele>1991.534</ele>
        <time>2018-09-15T17:43:45Z</time>
      </trkpt>
      <trkpt lat="46.22609" lon="10.45667">
        <ele>1992.917</ele>
        <time>2018-09-15T17:44:05Z</time>
      </trkpt>
      <trkpt lat="46.22607" lon="10.4566">
        <ele>1994.42</ele>
        <time>2018-09-15T17:44:25Z</time>
      </trkpt>
      <trkpt lat="46.22606" lon="10.45652">
        <ele>1995.933</ele>
        <time>2018-09-15T17:44:45Z</time>
      </trkpt>
      <trkpt lat="46.22606" lon="10.45648">
        <ele>1996.461</ele>
        <time>2018-09-15T17:45:05Z</time>
      </trkpt>
      <trkpt lat="46.22604" lon="10.45646">
        <ele>1997.528</ele>
        <time>2018-09-15T17:45:25Z</time>
      </trkpt>
      <trkpt lat="46.226" lon="10.45649">
        <ele>1998.672</ele>
        <time>2018-09-15T17:45:45Z</time>
      </trkpt>
      <trkpt lat="46.22597" lon="10.45653">
        <ele>1999.013</ele>
        <time>2018-09-15T17:46:05Z</time>
      </trkpt>
      <trkpt lat="46.22594" lon="10.45658">
        <ele>1999.514</ele>
        <time>2018-09-15T17:46:25Z</time>
      </trkpt>
      <trkpt lat="46.22587" lon="10.45672">
        <ele>2001.108</ele>
        <time>2018-09-15T17:46:45Z</time>
      </trkpt>
      <trkpt lat="46.22582" lon="10.45678">
        <ele>2002.789</ele>
        <time>2018-09-15T17:47:05Z</time>
      </trkpt>
      <trkpt lat="46.22577" lon="10.4568">
        <ele>2004.445</ele>
        <time>2018-09-15T17:47:25Z</time>
      </trkpt>
      <trkpt lat="46.22577" lon="10.45677">
        <ele>2004.482</ele>
        <time>2018-09-15T17:47:45Z</time>
      </trkpt>
      <trkpt lat="46.22585" lon="10.45662">
        <ele>2002.845</ele>
        <time>2018-09-15T17:48:05Z</time>
      </trkpt>
      <trkpt lat="46.22589" lon="10.45646">
        <ele>2002.548</ele>
        <time>2018-09-15T17:48:25Z</time>
      </trkpt>
      <trkpt lat="46.22593" lon="10.45623">
        <ele>2003.171</ele>
        <time>2018-09-15T17:48:45Z</time>
      </trkpt>
      <trkpt lat="46.22595" lon="10.45607">
        <ele>2003.849</ele>
        <time>2018-09-15T17:49:05Z</time>
      </trkpt>
      <trkpt lat="46.22598" lon="10.45582">
        <ele>2004.836</ele>
        <time>2018-09-15T17:49:25Z</time>
      </trkpt>
      <trkpt lat="46.22601" lon="10.45549">
        <ele>2005.598</ele>
        <time>2018-09-15T17:49:45Z</time>
      </trkpt>
      <trkpt lat="46.22604" lon="10.45528">
        <ele>2005.715</ele>
        <time>2018-09-15T17:50:05Z</time>
      </trkpt>
      <trkpt lat="46.22605" lon="10.45504">
        <ele>2006.126</ele>
        <time>2018-09-15T17:50:25Z</time>
      </trkpt>
      <trkpt lat="46.22607" lon="10.45481">
        <ele>2006.908</ele>
        <time>2018-09-15T17:50:45Z</time>
      </trkpt>
      <trkpt lat="46.22608" lon="10.45456">
        <ele>2007.891</ele>
        <time>2018-09-15T17:51:05Z</time>
      </trkpt>
      <trkpt lat="46.22609" lon="10.45425">
        <ele>2007.147</ele>
        <time>2018-09-15T17:51:25Z</time>
      </trkpt>
      <trkpt lat="46.22607" lon="10.4539">
        <ele>2007.724</ele>
        <time>2018-09-15T17:51:45Z</time>
      </trkpt>
      <trkpt lat="46.22603" lon="10.45359">
        <ele>2008.137</ele>
        <time>2018-09-15T17:52:05Z</time>
      </trkpt>
      <trkpt lat="46.22598" lon="10.45336">
        <ele>2008.83</ele>
        <time>2018-09-15T17:52:25Z</time>
      </trkpt>
      <trkpt lat="46.22589" lon="10.45306">
        <ele>2010.273</ele>
        <time>2018-09-15T17:52:45Z</time>
      </trkpt>
      <trkpt lat="46.2258" lon="10.45301">
        <ele>2011.991</ele>
        <time>2018-09-15T17:53:05Z</time>
      </trkpt>
      <trkpt lat="46.22564" lon="10.45299">
        <ele>2013.958</ele>
        <time>2018-09-15T17:53:25Z</time>
      </trkpt>
      <trkpt lat="46.22538" lon="10.45284">
        <ele>2015.753</ele>
        <time>2018-09-15T17:53:45Z</time>
      </trkpt>
      <trkpt lat="46.225" lon="10.45269">
        <ele>2015.704</ele>
        <time>2018-09-15T17:54:05Z</time>
      </trkpt>
      <trkpt lat="46.22546" lon="10.45265">
        <ele>2012.114</ele>
        <time>2018-09-15T17:54:25Z</time>
      </trkpt>
      <trkpt lat="46.22583" lon="10.45249">
        <ele>2004.808</ele>
        <time>2018-09-15T17:54:45Z</time>
      </trkpt>
      <trkpt lat="46.22611" lon="10.45232">
        <ele>1997.877</ele>
        <time>2018-09-15T17:55:05Z</time>
      </trkpt>
      <trkpt lat="46.22638" lon="10.45226">
        <ele>1988.943</ele>
        <time>2018-09-15T17:55:25Z</time>
      </trkpt>
      <trkpt lat="46.2264" lon="10.452">
        <ele>1983.47</ele>
        <time>2018-09-15T17:55:45Z</time>
      </trkpt>
      <trkpt lat="46.22641" lon="10.45192">
        <ele>1981.893</ele>
        <time>2018-09-15T17:56:05Z</time>
      </trkpt>
      <trkpt lat="46.22646" lon="10.45152">
        <ele>1976.016</ele>
        <time>2018-09-15T17:56:25Z</time>
      </trkpt>
      <trkpt lat="46.22643" lon="10.45115">
        <ele>1975.649</ele>
        <time>2018-09-15T17:56:45Z</time>
      </trkpt>
      <trkpt lat="46.22637" lon="10.45095">
        <ele>1975.697</ele>
        <time>2018-09-15T17:57:05Z</time>
      </trkpt>
      <trkpt lat="46.22631" lon="10.45082">
        <ele>1975.874</ele>
        <time>2018-09-15T17:57:25Z</time>
      </trkpt>
      <trkpt lat="46.22622" lon="10.45067">
        <ele>1976.112</ele>
        <time>2018-09-15T17:57:45Z</time>
      </trkpt>
      <trkpt lat="46.22611" lon="10.4505">
        <ele>1974.732</ele>
        <time>2018-09-15T17:58:05Z</time>
      </trkpt>
      <trkpt lat="46.22598" lon="10.45035">
        <ele>1971.805</ele>
        <time>2018-09-15T17:58:25Z</time>
      </trkpt>
      <trkpt lat="46.22572" lon="10.45013">
        <ele>1966.708</ele>
        <time>2018-09-15T17:58:45Z</time>
      </trkpt>
      <trkpt lat="46.2256" lon="10.45">
        <ele>1962.913</ele>
        <time>2018-09-15T17:59:05Z</time>
      </trkpt>
      <trkpt lat="46.22547" lon="10.45004">
        <ele>1962.669</ele>
        <time>2018-09-15T17:59:25Z</time>
      </trkpt>
      <trkpt lat="46.22535" lon="10.45016">
        <ele>1963.966</ele>
        <time>2018-09-15T17:59:45Z</time>
      </trkpt>
      <trkpt lat="46.22516" lon="10.45021">
        <ele>1960.889</ele>
        <time>2018-09-15T18:00:05Z</time>
      </trkpt>
      <trkpt lat="46.22484" lon="10.45032">
        <ele>1957.942</ele>
        <time>2018-09-15T18:00:25Z</time>
      </trkpt>
      <trkpt lat="46.22463" lon="10.45043">
        <ele>1959.585</ele>
        <time>2018-09-15T18:00:45Z</time>
      </trkpt>
      <trkpt lat="46.22442" lon="10.45024">
        <ele>1952.033</ele>
        <time>2018-09-15T18:01:05Z</time>
      </trkpt>
      <trkpt lat="46.22446" lon="10.45005">
        <ele>1945.81</ele>
        <time>2018-09-15T18:01:25Z</time>
      </trkpt>
      <trkpt lat="46.22462" lon="10.44987">
        <ele>1940.568</ele>
        <time>2018-09-15T18:01:45Z</time>
      </trkpt>
      <trkpt lat="46.22459" lon="10.4498">
        <ele>1938.242</ele>
        <time>2018-09-15T18:02:05Z</time>
      </trkpt>
      <trkpt lat="46.22454" lon="10.44969">
        <ele>1934.226</ele>
        <time>2018-09-15T18:02:25Z</time>
      </trkpt>
      <trkpt lat="46.22442" lon="10.44956">
        <ele>1930.308</ele>
        <time>2018-09-15T18:02:45Z</time>
      </trkpt>
      <trkpt lat="46.2243" lon="10.44934">
        <ele>1926.818</ele>
        <time>2018-09-15T18:03:05Z</time>
      </trkpt>
      <trkpt lat="46.22428" lon="10.44925">
        <ele>1924.734</ele>
        <time>2018-09-15T18:03:25Z</time>
      </trkpt>
      <trkpt lat="46.22427" lon="10.44922">
        <ele>1923.831</ele>
        <time>2018-09-15T18:03:45Z</time>
      </trkpt>
      <trkpt lat="46.22417" lon="10.44896">
        <ele>1919.844</ele>
        <time>2018-09-15T18:04:05Z</time>
      </trkpt>
      <trkpt lat="46.22408" lon="10.44875">
        <ele>1917.227</ele>
        <time>2018-09-15T18:04:25Z</time>
      </trkpt>
      <trkpt lat="46.22391" lon="10.44862">
        <ele>1921.24</ele>
        <time>2018-09-15T18:04:45Z</time>
      </trkpt>
      <trkpt lat="46.22375" lon="10.44817">
        <ele>1915.328</ele>
        <time>2018-09-15T18:05:05Z</time>
      </trkpt>
      <trkpt lat="46.22376" lon="10.44795">
        <ele>1908.675</ele>
        <time>2018-09-15T18:05:25Z</time>
      </trkpt>
      <trkpt lat="46.22372" lon="10.44784">
        <ele>1906.616</ele>
        <time>2018-09-15T18:05:45Z</time>
      </trkpt>
      <trkpt lat="46.22363" lon="10.44776">
        <ele>1907.076</ele>
        <time>2018-09-15T18:06:05Z</time>
      </trkpt>
      <trkpt lat="46.22354" lon="10.44758">
        <ele>1905.213</ele>
        <time>2018-09-15T18:06:25Z</time>
      </trkpt>
      <trkpt lat="46.22324" lon="10.44761">
        <ele>1914.308</ele>
        <time>2018-09-15T18:06:45Z</time>
      </trkpt>
      <trkpt lat="46.22317" lon="10.44752">
        <ele>1911.263</ele>
        <time>2018-09-15T18:07:05Z</time>
      </trkpt>
      <trkpt lat="46.22317" lon="10.44751">
        <ele>1911.039</ele>
        <time>2018-09-15T18:07:25Z</time>
      </trkpt>
      <trkpt lat="46.22299" lon="10.44731">
        <ele>1904.356</ele>
        <time>2018-09-15T18:07:45Z</time>
      </trkpt>
      <trkpt lat="46.22249" lon="10.4466">
        <ele>1884.999</ele>
        <time>2018-09-15T18:08:05Z</time>
      </trkpt>
      <trkpt lat="46.22237" lon="10.44649">
        <ele>1883.852</ele>
        <time>2018-09-15T18:08:25Z</time>
      </trkpt>
      <trkpt lat="46.22226" lon="10.44642">
        <ele>1884.095</ele>
        <time>2018-09-15T18:08:45Z</time>
      </trkpt>
      <trkpt lat="46.22208" lon="10.44638">
        <ele>1883.673</ele>
        <time>2018-09-15T18:09:05Z</time>
      </trkpt>
      <trkpt lat="46.22199" lon="10.44639">
        <ele>1884.04</ele>
        <time>2018-09-15T18:09:25Z</time>
      </trkpt>
      <trkpt lat="46.22137" lon="10.44649">
        <ele>1873.373</ele>
        <time>2018-09-15T18:09:45Z</time>
      </trkpt>
      <trkpt lat="46.22123" lon="10.44636">
        <ele>1870.685</ele>
        <time>2018-09-15T18:10:05Z</time>
      </trkpt>
      <trkpt lat="46.2212" lon="10.4463">
        <ele>1868.513</ele>
        <time>2018-09-15T18:10:25Z</time>
      </trkpt>
      <trkpt lat="46.22111" lon="10.4461">
        <ele>1861.708</ele>
        <time>2018-09-15T18:10:45Z</time>
      </trkpt>
      <trkpt lat="46.2211" lon="10.4461">
        <ele>1861.749</ele>
        <time>2018-09-15T18:11:05Z</time>
      </trkpt>
      <trkpt lat="46.22099" lon="10.44581">
        <ele>1855.515</ele>
        <time>2018-09-15T18:11:25Z</time>
      </trkpt>
      <trkpt lat="46.22079" lon="10.44575">
        <ele>1861.722</ele>
        <time>2018-09-15T18:11:45Z</time>
      </trkpt>
      <trkpt lat="46.22048" lon="10.44573">
        <ele>1867.375</ele>
        <time>2018-09-15T18:12:05Z</time>
      </trkpt>
      <trkpt lat="46.22038" lon="10.44561">
        <ele>1860.048</ele>
        <time>2018-09-15T18:12:25Z</time>
      </trkpt>
      <trkpt lat="46.22021" lon="10.44574">
        <ele>1864.281</ele>
        <time>2018-09-15T18:12:45Z</time>
      </trkpt>
      <trkpt lat="46.22011" lon="10.44587">
        <ele>1866.099</ele>
        <time>2018-09-15T18:13:05Z</time>
      </trkpt>
      <trkpt lat="46.22003" lon="10.44571">
        <ele>1859.276</ele>
        <time>2018-09-15T18:13:25Z</time>
      </trkpt>
      <trkpt lat="46.21998" lon="10.44566">
        <ele>1856.811</ele>
        <time>2018-09-15T18:13:45Z</time>
      </trkpt>
      <trkpt lat="46.21977" lon="10.44563">
        <ele>1854.121</ele>
        <time>2018-09-15T18:14:05Z</time>
      </trkpt>
      <trkpt lat="46.21951" lon="10.44553">
        <ele>1843.203</ele>
        <time>2018-09-15T18:14:25Z</time>
      </trkpt>
      <trkpt lat="46.21937" lon="10.44576">
        <ele>1845.708</ele>
        <time>2018-09-15T18:14:45Z</time>
      </trkpt>
      <trkpt lat="46.21921" lon="10.4454">
        <ele>1823.463</ele>
        <time>2018-09-15T18:15:05Z</time>
      </trkpt>
      <trkpt lat="46.21909" lon="10.44529">
        <ele>1816.049</ele>
        <time>2018-09-15T18:15:25Z</time>
      </trkpt>
      <trkpt lat="46.21904" lon="10.44527">
        <ele>1815.066</ele>
        <time>2018-09-15T18:15:45Z</time>
      </trkpt>
      <trkpt lat="46.21879" lon="10.44519">
        <ele>1809.179</ele>
        <time>2018-09-15T18:16:05Z</time>
      </trkpt>
      <trkpt lat="46.21884" lon="10.44513">
        <ele>1807.342</ele>
        <time>2018-09-15T18:16:25Z</time>
      </trkpt>
      <trkpt lat="46.21878" lon="10.44509">
        <ele>1804.265</ele>
        <time>2018-09-15T18:16:45Z</time>
      </trkpt>
      <trkpt lat="46.21879" lon="10.44502">
        <ele>1800.513</ele>
        <time>2018-09-15T18:17:05Z</time>
      </trkpt>
      <trkpt lat="46.21869" lon="10.44505">
        <ele>1800.25</ele>
        <time>2018-09-15T18:17:25Z</time>
      </trkpt>
      <trkpt lat="46.21871" lon="10.4449">
        <ele>1792.198</ele>
        <time>2018-09-15T18:17:45Z</time>
      </trkpt>
      <trkpt lat="46.21865" lon="10.44487">
        <ele>1789.815</ele>
        <time>2018-09-15T18:18:05Z</time>
      </trkpt>
      <trkpt lat="46.21849" lon="10.44504">
        <ele>1797.026</ele>
        <time>2018-09-15T18:18:25Z</time>
      </trkpt>
      <trkpt lat="46.21824" lon="10.44496">
        <ele>1790.708</ele>
        <time>2018-09-15T18:18:45Z</time>
      </trkpt>
      <trkpt lat="46.21824" lon="10.44496">
        <ele>1790.471</ele>
        <time>2018-09-15T18:19:05Z</time>
      </trkpt>
      <trkpt lat="46.21813" lon="10.44477">
        <ele>1778.857</ele>
        <time>2018-09-15T18:19:25Z</time>
      </trkpt>
      <trkpt lat="46.21785" lon="10.44461">
        <ele>1756.964</ele>
        <time>2018-09-15T18:19:45Z</time>
      </trkpt>
      <trkpt lat="46.21761" lon="10.44458">
        <ele>1750.987</ele>
        <time>2018-09-15T18:20:05Z</time>
      </trkpt>
      <trkpt lat="46.21758" lon="10.44455">
        <ele>1748.57</ele>
        <time>2018-09-15T18:20:25Z</time>
      </trkpt>
      <trkpt lat="46.2176" lon="10.44452">
        <ele>1746.863</ele>
        <time>2018-09-15T18:20:45Z</time>
      </trkpt>
      <trkpt lat="46.21782" lon="10.44429">
        <ele>1735.081</ele>
        <time>2018-09-15T18:21:05Z</time>
      </trkpt>
      <trkpt lat="46.21781" lon="10.44425">
        <ele>1733.278</ele>
        <time>2018-09-15T18:21:25Z</time>
      </trkpt>
      <trkpt lat="46.21769" lon="10.44419">
        <ele>1727.315</ele>
        <time>2018-09-15T18:21:45Z</time>
      </trkpt>
      <trkpt lat="46.21753" lon="10.44403">
        <ele>1716.665</ele>
        <time>2018-09-15T18:22:05Z</time>
      </trkpt>
      <trkpt lat="46.21762" lon="10.44393">
        <ele>1712.911</ele>
        <time>2018-09-15T18:22:25Z</time>
      </trkpt>
      <trkpt lat="46.21758" lon="10.44384">
        <ele>1707.708</ele>
        <time>2018-09-15T18:22:45Z</time>
      </trkpt>
      <trkpt lat="46.2177" lon="10.44366">
        <ele>1698.543</ele>
        <time>2018-09-15T18:23:05Z</time>
      </trkpt>
      <trkpt lat="46.2176" lon="10.44356">
        <ele>1692.949</ele>
        <time>2018-09-15T18:23:25Z</time>
      </trkpt>
      <trkpt lat="46.21758" lon="10.44354">
        <ele>1692.186</ele>
        <time>2018-09-15T18:23:45Z</time>
      </trkpt>
      <trkpt lat="46.21747" lon="10.4435">
        <ele>1690.359</ele>
        <time>2018-09-15T18:24:05Z</time>
      </trkpt>
      <trkpt lat="46.21747" lon="10.44346">
        <ele>1688.432</ele>
        <time>2018-09-15T18:24:25Z</time>
      </trkpt>
      <trkpt lat="46.21754" lon="10.44333">
        <ele>1680.825</ele>
        <time>2018-09-15T18:24:45Z</time>
      </trkpt>
      <trkpt lat="46.21749" lon="10.44321">
        <ele>1677.743</ele>
        <time>2018-09-15T18:25:05Z</time>
      </trkpt>
      <trkpt lat="46.21741" lon="10.44315">
        <ele>1677.92</ele>
        <time>2018-09-15T18:25:25Z</time>
      </trkpt>
      <trkpt lat="46.21738" lon="10.44306">
        <ele>1676.181</ele>
        <time>2018-09-15T18:25:45Z</time>
      </trkpt>
      <trkpt lat="46.21739" lon="10.44294">
        <ele>1674.461</ele>
        <time>2018-09-15T18:26:05Z</time>
      </trkpt>
      <trkpt lat="46.21744" lon="10.44284">
        <ele>1672.417</ele>
        <time>2018-09-15T18:26:25Z</time>
      </trkpt>
      <trkpt lat="46.2175" lon="10.44272">
        <ele>1670.508</ele>
        <time>2018-09-15T18:26:45Z</time>
      </trkpt>
      <trkpt lat="46.21757" lon="10.44262">
        <ele>1668.78</ele>
        <time>2018-09-15T18:27:05Z</time>
      </trkpt>
      <trkpt lat="46.21764" lon="10.44256">
        <ele>1667.036</ele>
        <time>2018-09-15T18:27:25Z</time>
      </trkpt>
      <trkpt lat="46.21773" lon="10.44251">
        <ele>1665.043</ele>
        <time>2018-09-15T18:27:45Z</time>
      </trkpt>
      <trkpt lat="46.21782" lon="10.44243">
        <ele>1662.126</ele>
        <time>2018-09-15T18:28:05Z</time>
      </trkpt>
      <trkpt lat="46.21788" lon="10.44232">
        <ele>1659.069</ele>
        <time>2018-09-15T18:28:25Z</time>
      </trkpt>
      <trkpt lat="46.21797" lon="10.44214">
        <ele>1654.892</ele>
        <time>2018-09-15T18:28:45Z</time>
      </trkpt>
      <trkpt lat="46.21798" lon="10.4421">
        <ele>1654.58</ele>
        <time>2018-09-15T18:29:05Z</time>
      </trkpt>
      <trkpt lat="46.21819" lon="10.44172">
        <ele>1650.897</ele>
        <time>2018-09-15T18:29:25Z</time>
      </trkpt>
      <trkpt lat="46.21821" lon="10.4417">
        <ele>1650.698</ele>
        <time>2018-09-15T18:29:45Z</time>
      </trkpt>
      <trkpt lat="46.21824" lon="10.44161">
        <ele>1650.215</ele>
        <time>2018-09-15T18:30:05Z</time>
      </trkpt>
      <trkpt lat="46.21827" lon="10.44153">
        <ele>1649.426</ele>
        <time>2018-09-15T18:30:25Z</time>
      </trkpt>
      <trkpt lat="46.2183" lon="10.44147">
        <ele>1648.808</ele>
        <time>2018-09-15T18:30:45Z</time>
      </trkpt>
      <trkpt lat="46.21833" lon="10.4414">
        <ele>1648.041</ele>
        <time>2018-09-15T18:31:05Z</time>
      </trkpt>
      <trkpt lat="46.21838" lon="10.44132">
        <ele>1646.557</ele>
        <time>2018-09-15T18:31:25Z</time>
      </trkpt>
      <trkpt lat="46.21843" lon="10.44128">
        <ele>1645.294</ele>
        <time>2018-09-15T18:31:45Z</time>
      </trkpt>
      <trkpt lat="46.21847" lon="10.44124">
        <ele>1643.957</ele>
        <time>2018-09-15T18:32:05Z</time>
      </trkpt>
      <trkpt lat="46.21853" lon="10.44122">
        <ele>1642.31</ele>
        <time>2018-09-15T18:32:25Z</time>
      </trkpt>
      <trkpt lat="46.21859" lon="10.4412">
        <ele>1640.953</ele>
        <time>2018-09-15T18:32:45Z</time>
      </trkpt>
      <trkpt lat="46.21864" lon="10.44113">
        <ele>1639.411</ele>
        <time>2018-09-15T18:33:05Z</time>
      </trkpt>
      <trkpt lat="46.21868" lon="10.4411">
        <ele>1638.458</ele>
        <time>2018-09-15T18:33:25Z</time>
      </trkpt>
      <trkpt lat="46.21877" lon="10.44102">
        <ele>1636.716</ele>
        <time>2018-09-15T18:33:45Z</time>
      </trkpt>
      <trkpt lat="46.21884" lon="10.44094">
        <ele>1635.276</ele>
        <time>2018-09-15T18:34:05Z</time>
      </trkpt>
      <trkpt lat="46.2189" lon="10.44088">
        <ele>1633.813</ele>
        <time>2018-09-15T18:34:25Z</time>
      </trkpt>
      <trkpt lat="46.21895" lon="10.44078">
        <ele>1632.408</ele>
        <time>2018-09-15T18:34:45Z</time>
      </trkpt>
      <trkpt lat="46.21898" lon="10.44067">
        <ele>1631.483</ele>
        <time>2018-09-15T18:35:05Z</time>
      </trkpt>
      <trkpt lat="46.21901" lon="10.44056">
        <ele>1630.619</ele>
        <time>2018-09-15T18:35:25Z</time>
      </trkpt>
      <trkpt lat="46.21899" lon="10.4404">
        <ele>1635.726</ele>
        <time>2018-09-15T18:35:45Z</time>
      </trkpt>
      <trkpt lat="46.21898" lon="10.44036">
        <ele>1637.269</ele>
        <time>2018-09-15T18:36:05Z</time>
      </trkpt>
      <trkpt lat="46.21897" lon="10.44032">
        <ele>1638.542</ele>
        <time>2018-09-15T18:36:25Z</time>
      </trkpt>
      <trkpt lat="46.21897" lon="10.44032">
        <ele>1638.565</ele>
        <time>2018-09-15T18:36:45Z</time>
      </trkpt>
      <trkpt lat="46.21888" lon="10.44037">
        <ele>1639.653</ele>
        <time>2018-09-15T18:37:05Z</time>
      </trkpt>
      <trkpt lat="46.21881" lon="10.44041">
        <ele>1640.24</ele>
        <time>2018-09-15T18:37:25Z</time>
      </trkpt>
      <trkpt lat="46.21875" lon="10.44044">
        <ele>1641.087</ele>
        <time>2018-09-15T18:37:45Z</time>
      </trkpt>
      <trkpt lat="46.21865" lon="10.44057">
        <ele>1640.842</ele>
        <time>2018-09-15T18:38:05Z</time>
      </trkpt>
      <trkpt lat="46.21862" lon="10.44063">
        <ele>1641.526</ele>
        <time>2018-09-15T18:38:25Z</time>
      </trkpt>
      <trkpt lat="46.21855" lon="10.44069">
        <ele>1643.308</ele>
        <time>2018-09-15T18:38:45Z</time>
      </trkpt>
      <trkpt lat="46.21832" lon="10.44092">
        <ele>1648.69</ele>
        <time>2018-09-15T18:39:05Z</time>
      </trkpt>
      <trkpt lat="46.21826" lon="10.44098">
        <ele>1649.816</ele>
        <time>2018-09-15T18:39:25Z</time>
      </trkpt>
      <trkpt lat="46.21821" lon="10.44098">
        <ele>1650.913</ele>
        <time>2018-09-15T18:39:45Z</time>
      </trkpt>
      <trkpt lat="46.21805" lon="10.44095">
        <ele>1655.566</ele>
        <time>2018-09-15T18:40:05Z</time>
      </trkpt>
      <trkpt lat="46.21798" lon="10.44092">
        <ele>1657.649</ele>
        <time>2018-09-15T18:40:25Z</time>
      </trkpt>
      <trkpt lat="46.21789" lon="10.44093">
        <ele>1659.622</ele>
        <time>2018-09-15T18:40:45Z</time>
      </trkpt>
      <trkpt lat="46.21778" lon="10.44099">
        <ele>1661.66</ele>
        <time>2018-09-15T18:41:05Z</time>
      </trkpt>
      <trkpt lat="46.21762" lon="10.44101">
        <ele>1665.367</ele>
        <time>2018-09-15T18:41:25Z</time>
      </trkpt>
      <trkpt lat="46.2175" lon="10.44092">
        <ele>1669.163</ele>
        <time>2018-09-15T18:41:45Z</time>
      </trkpt>
      <trkpt lat="46.21739" lon="10.44089">
        <ele>1673.744</ele>
        <time>2018-09-15T18:42:05Z</time>
      </trkpt>
      <trkpt lat="46.21725" lon="10.44089">
        <ele>1679.418</ele>
        <time>2018-09-15T18:42:25Z</time>
      </trkpt>
      <trkpt lat="46.21718" lon="10.44089">
        <ele>1682.208</ele>
        <time>2018-09-15T18:42:45Z</time>
      </trkpt>
      <trkpt lat="46.2171" lon="10.44096">
        <ele>1683.768</ele>
        <time>2018-09-15T18:43:05Z</time>
      </trkpt>
      <trkpt lat="46.21705" lon="10.44104">
        <ele>1684.364</ele>
        <time>2018-09-15T18:43:25Z</time>
      </trkpt>
      <trkpt lat="46.217" lon="10.44109">
        <ele>1685.631</ele>
        <time>2018-09-15T18:43:45Z</time>
      </trkpt>
      <trkpt lat="46.21679" lon="10.44108">
        <ele>1691.154</ele>
        <time>2018-09-15T18:44:05Z</time>
      </trkpt>
      <trkpt lat="46.21669" lon="10.44104">
        <ele>1693.357</ele>
        <time>2018-09-15T18:44:25Z</time>
      </trkpt>
      <trkpt lat="46.21661" lon="10.44097">
        <ele>1696.14</ele>
        <time>2018-09-15T18:44:45Z</time>
      </trkpt>
      <trkpt lat="46.21648" lon="10.44088">
        <ele>1700.538</ele>
        <time>2018-09-15T18:45:05Z</time>
      </trkpt>
      <trkpt lat="46.21639" lon="10.44082">
        <ele>1704.375</ele>
        <time>2018-09-15T18:45:25Z</time>
      </trkpt>
      <trkpt lat="46.21632" lon="10.44069">
        <ele>1710.552</ele>
        <time>2018-09-15T18:45:45Z</time>
      </trkpt>
      <trkpt lat="46.21627" lon="10.44063">
        <ele>1713.453</ele>
        <time>2018-09-15T18:46:05Z</time>
      </trkpt>
      <trkpt lat="46.2162" lon="10.44053">
        <ele>1717.708</ele>
        <time>2018-09-15T18:46:25Z</time>
      </trkpt>
      <trkpt lat="46.21618" lon="10.44048">
        <ele>1719.708</ele>
        <time>2018-09-15T18:46:45Z</time>
      </trkpt>
      <trkpt lat="46.21615" lon="10.44038">
        <ele>1722.387</ele>
        <time>2018-09-15T18:47:05Z</time>
      </trkpt>
      <trkpt lat="46.21615" lon="10.44038">
        <ele>1722.323</ele>
        <time>2018-09-15T18:47:25Z</time>
      </trkpt>
      <trkpt lat="46.21611" lon="10.44026">
        <ele>1725.42</ele>
        <time>2018-09-15T18:47:45Z</time>
      </trkpt>
      <trkpt lat="46.21611" lon="10.44024">
        <ele>1725.953</ele>
        <time>2018-09-15T18:48:05Z</time>
      </trkpt>
      <trkpt lat="46.21606" lon="10.4402">
        <ele>1727.776</ele>
        <time>2018-09-15T18:48:25Z</time>
      </trkpt>
      <trkpt lat="46.21601" lon="10.44016">
        <ele>1729.369</ele>
        <time>2018-09-15T18:48:45Z</time>
      </trkpt>
      <trkpt lat="46.216" lon="10.4401">
        <ele>1731.237</ele>
        <time>2018-09-15T18:49:05Z</time>
      </trkpt>
      <trkpt lat="46.21603" lon="10.43999">
        <ele>1733.584</ele>
        <time>2018-09-15T18:49:25Z</time>
      </trkpt>
      <trkpt lat="46.21604" lon="10.43997">
        <ele>1733.733</ele>
        <time>2018-09-15T18:49:45Z</time>
      </trkpt>
      <trkpt lat="46.21613" lon="10.43992">
        <ele>1733.823</ele>
        <time>2018-09-15T18:50:05Z</time>
      </trkpt>
      <trkpt lat="46.21618" lon="10.4399">
        <ele>1733.715</ele>
        <time>2018-09-15T18:50:25Z</time>
      </trkpt>
      <trkpt lat="46.21619" lon="10.4399">
        <ele>1733.508</ele>
        <time>2018-09-15T18:50:45Z</time>
      </trkpt>
      <trkpt lat="46.21631" lon="10.43992">
        <ele>1731.415</ele>
        <time>2018-09-15T18:51:05Z</time>
      </trkpt>
      <trkpt lat="46.21639" lon="10.43978">
        <ele>1734.111</ele>
        <time>2018-09-15T18:51:25Z</time>
      </trkpt>
      <trkpt lat="46.21643" lon="10.43969">
        <ele>1736.118</ele>
        <time>2018-09-15T18:51:45Z</time>
      </trkpt>
      <trkpt lat="46.21634" lon="10.43962">
        <ele>1739.041</ele>
        <time>2018-09-15T18:52:05Z</time>
      </trkpt>
      <trkpt lat="46.21634" lon="10.43954">
        <ele>1741.224</ele>
        <time>2018-09-15T18:52:25Z</time>
      </trkpt>
      <trkpt lat="46.21643" lon="10.43931">
        <ele>1746.217</ele>
        <time>2018-09-15T18:52:45Z</time>
      </trkpt>
      <trkpt lat="46.21644" lon="10.43925">
        <ele>1747.875</ele>
        <time>2018-09-15T18:53:05Z</time>
      </trkpt>
      <trkpt lat="46.21635" lon="10.43919">
        <ele>1749.932</ele>
        <time>2018-09-15T18:53:25Z</time>
      </trkpt>
      <trkpt lat="46.21631" lon="10.43915">
        <ele>1751.441</ele>
        <time>2018-09-15T18:53:45Z</time>
      </trkpt>
      <trkpt lat="46.2163" lon="10.43912">
        <ele>1752.581</ele>
        <time>2018-09-15T18:54:05Z</time>
      </trkpt>
      <trkpt lat="46.21638" lon="10.43903">
        <ele>1755.109</ele>
        <time>2018-09-15T18:54:25Z</time>
      </trkpt>
      <trkpt lat="46.2163" lon="10.43893">
        <ele>1758.508</ele>
        <time>2018-09-15T18:54:45Z</time>
      </trkpt>
      <trkpt lat="46.21638" lon="10.43882">
        <ele>1762.396</ele>
        <time>2018-09-15T18:55:05Z</time>
      </trkpt>
      <trkpt lat="46.21645" lon="10.43882">
        <ele>1763.382</ele>
        <time>2018-09-15T18:55:25Z</time>
      </trkpt>
      <trkpt lat="46.21653" lon="10.43882">
        <ele>1764.219</ele>
        <time>2018-09-15T18:55:45Z</time>
      </trkpt>
      <trkpt lat="46.21666" lon="10.43889">
        <ele>1762.682</ele>
        <time>2018-09-15T18:56:05Z</time>
      </trkpt>
      <trkpt lat="46.21675" lon="10.43889">
        <ele>1761.815</ele>
        <time>2018-09-15T18:56:25Z</time>
      </trkpt>
      <trkpt lat="46.21673" lon="10.43883">
        <ele>1764.688</ele>
        <time>2018-09-15T18:56:45Z</time>
      </trkpt>
      <trkpt lat="46.21667" lon="10.43875">
        <ele>1769.086</ele>
        <time>2018-09-15T18:57:05Z</time>
      </trkpt>
      <trkpt lat="46.2168" lon="10.43876">
        <ele>1766.953</ele>
        <time>2018-09-15T18:57:25Z</time>
      </trkpt>
      <trkpt lat="46.21677" lon="10.43866">
        <ele>1772.242</ele>
        <time>2018-09-15T18:57:45Z</time>
      </trkpt>
      <trkpt lat="46.21681" lon="10.43862">
        <ele>1773.722</ele>
        <time>2018-09-15T18:58:05Z</time>
      </trkpt>
      <trkpt lat="46.21676" lon="10.4385">
        <ele>1779.114</ele>
        <time>2018-09-15T18:58:25Z</time>
      </trkpt>
      <trkpt lat="46.21685" lon="10.43835">
        <ele>1785.008</ele>
        <time>2018-09-15T18:58:45Z</time>
      </trkpt>
      <trkpt lat="46.21695" lon="10.43817">
        <ele>1792.486</ele>
        <time>2018-09-15T18:59:05Z</time>
      </trkpt>
      <trkpt lat="46.21713" lon="10.43781">
        <ele>1807.182</ele>
        <time>2018-09-15T18:59:25Z</time>
      </trkpt>
      <trkpt lat="46.21719" lon="10.43772">
        <ele>1810.999</ele>
        <time>2018-09-15T18:59:45Z</time>
      </trkpt>
      <trkpt lat="46.21728" lon="10.43773">
        <ele>1808.642</ele>
        <time>2018-09-15T19:00:05Z</time>
      </trkpt>
      <trkpt lat="46.21737" lon="10.43772">
        <ele>1806.465</ele>
        <time>2018-09-15T19:00:25Z</time>
      </trkpt>
      <trkpt lat="46.21743" lon="10.43768">
        <ele>1806.828</ele>
        <time>2018-09-15T19:00:45Z</time>
      </trkpt>
      <trkpt lat="46.21744" lon="10.43765">
        <ele>1807.796</ele>
        <time>2018-09-15T19:01:05Z</time>
      </trkpt>
      <trkpt lat="46.2175" lon="10.4375">
        <ele>1813.863</ele>
        <time>2018-09-15T19:01:25Z</time>
      </trkpt>
      <trkpt lat="46.21758" lon="10.43754">
        <ele>1807.988</ele>
        <time>2018-09-15T19:01:45Z</time>
      </trkpt>
      <trkpt lat="46.21764" lon="10.43748">
        <ele>1807.824</ele>
        <time>2018-09-15T19:02:05Z</time>
      </trkpt>
      <trkpt lat="46.21766" lon="10.43734">
        <ele>1814.526</ele>
        <time>2018-09-15T19:02:25Z</time>
      </trkpt>
      <trkpt lat="46.21771" lon="10.4372">
        <ele>1819.608</ele>
        <time>2018-09-15T19:02:45Z</time>
      </trkpt>
      <trkpt lat="46.21777" lon="10.43712">
        <ele>1821.53</ele>
        <time>2018-09-15T19:03:05Z</time>
      </trkpt>
      <trkpt lat="46.21787" lon="10.43702">
        <ele>1824.126</ele>
        <time>2018-09-15T19:03:25Z</time>
      </trkpt>
      <trkpt lat="46.218" lon="10.43694">
        <ele>1826.123</ele>
        <time>2018-09-15T19:03:45Z</time>
      </trkpt>
      <trkpt lat="46.21788" lon="10.43669">
        <ele>1839.296</ele>
        <time>2018-09-15T19:04:05Z</time>
      </trkpt>
      <trkpt lat="46.21836" lon="10.43606">
        <ele>1849.399</ele>
        <time>2018-09-15T19:04:25Z</time>
      </trkpt>
      <trkpt lat="46.21851" lon="10.43577">
        <ele>1857.752</ele>
        <time>2018-09-15T19:04:45Z</time>
      </trkpt>
      <trkpt lat="46.21851" lon="10.43577">
        <ele>1857.57</ele>
        <time>2018-09-15T19:05:05Z</time>
      </trkpt>
      <trkpt lat="46.21874" lon="10.43575">
        <ele>1851.477</ele>
        <time>2018-09-15T19:05:25Z</time>
      </trkpt>
      <trkpt lat="46.21886" lon="10.43566">
        <ele>1853.633</ele>
        <time>2018-09-15T19:05:45Z</time>
      </trkpt>
      <trkpt lat="46.21899" lon="10.43564">
        <ele>1851.523</ele>
        <time>2018-09-15T19:06:05Z</time>
      </trkpt>
      <trkpt lat="46.21913" lon="10.43549">
        <ele>1857.115</ele>
        <time>2018-09-15T19:06:25Z</time>
      </trkpt>
      <trkpt lat="46.21931" lon="10.43528">
        <ele>1860.708</ele>
        <time>2018-09-15T19:06:45Z</time>
      </trkpt>
      <trkpt lat="46.21934" lon="10.43525">
        <ele>1860.735</ele>
        <time>2018-09-15T19:07:05Z</time>
      </trkpt>
      <trkpt lat="46.21951" lon="10.43526">
        <ele>1852.941</ele>
        <time>2018-09-15T19:07:25Z</time>
      </trkpt>
      <trkpt lat="46.21962" lon="10.43512">
        <ele>1854.478</ele>
        <time>2018-09-15T19:07:45Z</time>
      </trkpt>
      <trkpt lat="46.21979" lon="10.43487">
        <ele>1862.591</ele>
        <time>2018-09-15T19:08:05Z</time>
      </trkpt>
      <trkpt lat="46.21987" lon="10.43469">
        <ele>1871.154</ele>
        <time>2018-09-15T19:08:25Z</time>
      </trkpt>
      <trkpt lat="46.21973" lon="10.43462">
        <ele>1877.617</ele>
        <time>2018-09-15T19:08:45Z</time>
      </trkpt>
      <trkpt lat="46.21973" lon="10.43447">
        <ele>1885.555</ele>
        <time>2018-09-15T19:09:05Z</time>
      </trkpt>
      <trkpt lat="46.21976" lon="10.43439">
        <ele>1889.052</ele>
        <time>2018-09-15T19:09:25Z</time>
      </trkpt>
      <trkpt lat="46.21988" lon="10.43435">
        <ele>1890.095</ele>
        <time>2018-09-15T19:09:45Z</time>
      </trkpt>
      <trkpt lat="46.21995" lon="10.43427">
        <ele>1893.449</ele>
        <time>2018-09-15T19:10:05Z</time>
      </trkpt>
      <trkpt lat="46.22004" lon="10.43411">
        <ele>1899.623</ele>
        <time>2018-09-15T19:10:25Z</time>
      </trkpt>
      <trkpt lat="46.22009" lon="10.43405">
        <ele>1901.208</ele>
        <time>2018-09-15T19:10:45Z</time>
      </trkpt>
      <trkpt lat="46.22004" lon="10.43395">
        <ele>1907.851</ele>
        <time>2018-09-15T19:11:05Z</time>
      </trkpt>
      <trkpt lat="46.22004" lon="10.43392">
        <ele>1909.547</ele>
        <time>2018-09-15T19:11:25Z</time>
      </trkpt>
      <trkpt lat="46.22003" lon="10.43385">
        <ele>1913.174</ele>
        <time>2018-09-15T19:11:45Z</time>
      </trkpt>
      <trkpt lat="46.22002" lon="10.4338">
        <ele>1915.517</ele>
        <time>2018-09-15T19:12:05Z</time>
      </trkpt>
      <trkpt lat="46.22001" lon="10.43378">
        <ele>1917.03</ele>
        <time>2018-09-15T19:12:25Z</time>
      </trkpt>
      <trkpt lat="46.21996" lon="10.43374">
        <ele>1919.193</ele>
        <time>2018-09-15T19:12:45Z</time>
      </trkpt>
      <trkpt lat="46.21998" lon="10.43365">
        <ele>1923.551</ele>
        <time>2018-09-15T19:13:05Z</time>
      </trkpt>
      <trkpt lat="46.21993" lon="10.43355">
        <ele>1929.328</ele>
        <time>2018-09-15T19:13:25Z</time>
      </trkpt>
      <trkpt lat="46.21989" lon="10.43351">
        <ele>1932.558</ele>
        <time>2018-09-15T19:13:45Z</time>
      </trkpt>
      <trkpt lat="46.21988" lon="10.43342">
        <ele>1937.252</ele>
        <time>2018-09-15T19:14:05Z</time>
      </trkpt>
      <trkpt lat="46.21989" lon="10.43338">
        <ele>1939.317</ele>
        <time>2018-09-15T19:14:25Z</time>
      </trkpt>
      <trkpt lat="46.21994" lon="10.4332">
        <ele>1948.208</ele>
        <time>2018-09-15T19:14:45Z</time>
      </trkpt>
      <trkpt lat="46.21993" lon="10.43313">
        <ele>1952.067</ele>
        <time>2018-09-15T19:15:05Z</time>
      </trkpt>
      <trkpt lat="46.22017" lon="10.43293">
        <ele>1959.743</ele>
        <time>2018-09-15T19:15:25Z</time>
      </trkpt>
      <trkpt lat="46.22032" lon="10.43293">
        <ele>1958.01</ele>
        <time>2018-09-15T19:15:45Z</time>
      </trkpt>
      <trkpt lat="46.22018" lon="10.4326">
        <ele>1974.263</ele>
        <time>2018-09-15T19:16:05Z</time>
      </trkpt>
      <trkpt lat="46.22038" lon="10.4324">
        <ele>1979.986</ele>
        <time>2018-09-15T19:16:25Z</time>
      </trkpt>
      <trkpt lat="46.2204" lon="10.43226">
        <ele>1983.999</ele>
        <time>2018-09-15T19:16:45Z</time>
      </trkpt>
      <trkpt lat="46.2203" lon="10.43204">
        <ele>1990.527</ele>
        <time>2018-09-15T19:17:05Z</time>
      </trkpt>
      <trkpt lat="46.22031" lon="10.43188">
        <ele>1994.634</ele>
        <time>2018-09-15T19:17:25Z</time>
      </trkpt>
      <trkpt lat="46.22034" lon="10.43182">
        <ele>1996.012</ele>
        <time>2018-09-15T19:17:45Z</time>
      </trkpt>
      <trkpt lat="46.22039" lon="10.43171">
        <ele>1998.832</ele>
        <time>2018-09-15T19:18:05Z</time>
      </trkpt>
      <trkpt lat="46.2205" lon="10.43162">
        <ele>2001.005</ele>
        <time>2018-09-15T19:18:25Z</time>
      </trkpt>
      <trkpt lat="46.22052" lon="10.43158">
        <ele>2001.608</ele>
        <time>2018-09-15T19:18:45Z</time>
      </trkpt>
      <trkpt lat="46.22054" lon="10.43151">
        <ele>2002.943</ele>
        <time>2018-09-15T19:19:05Z</time>
      </trkpt>
      <trkpt lat="46.22054" lon="10.4315">
        <ele>2003.169</ele>
        <time>2018-09-15T19:19:25Z</time>
      </trkpt>
      <trkpt lat="46.22055" lon="10.43148">
        <ele>2003.536</ele>
        <time>2018-09-15T19:19:45Z</time>
      </trkpt>
      <trkpt lat="46.22055" lon="10.4314">
        <ele>2004.979</ele>
        <time>2018-09-15T19:20:05Z</time>
      </trkpt>
      <trkpt lat="46.22067" lon="10.43107">
        <ele>2009.372</ele>
        <time>2018-09-15T19:20:25Z</time>
      </trkpt>
      <trkpt lat="46.22073" lon="10.43092">
        <ele>2010.575</ele>
        <time>2018-09-15T19:20:45Z</time>
      </trkpt>
      <trkpt lat="46.22075" lon="10.43083">
        <ele>2011.143</ele>
        <time>2018-09-15T19:21:05Z</time>
      </trkpt>
      <trkpt lat="46.22079" lon="10.43073">
        <ele>2011.87</ele>
        <time>2018-09-15T19:21:25Z</time>
      </trkpt>
      <trkpt lat="46.22086" lon="10.43052">
        <ele>2012.123</ele>
        <time>2018-09-15T19:21:45Z</time>
      </trkpt>
      <trkpt lat="46.22088" lon="10.43035">
        <ele>2010.983</ele>
        <time>2018-09-15T19:22:05Z</time>
      </trkpt>
      <trkpt lat="46.22089" lon="10.43016">
        <ele>2008.911</ele>
        <time>2018-09-15T19:22:25Z</time>
      </trkpt>
      <trkpt lat="46.22085" lon="10.42999">
        <ele>2007.308</ele>
        <time>2018-09-15T19:22:45Z</time>
      </trkpt>
      <trkpt lat="46.22075" lon="10.42961">
        <ele>2005.644</ele>
        <time>2018-09-15T19:23:05Z</time>
      </trkpt>
      <trkpt lat="46.22063" lon="10.42926">
        <ele>2006.09</ele>
        <time>2018-09-15T19:23:25Z</time>
      </trkpt>
      <trkpt lat="46.22059" lon="10.42907">
        <ele>2007.087</ele>
        <time>2018-09-15T19:23:45Z</time>
      </trkpt>
      <trkpt lat="46.22054" lon="10.42887">
        <ele>2009.81</ele>
        <time>2018-09-15T19:24:05Z</time>
      </trkpt>
      <trkpt lat="46.22053" lon="10.42863">
        <ele>2011.123</ele>
        <time>2018-09-15T19:24:25Z</time>
      </trkpt>
      <trkpt lat="46.22052" lon="10.42846">
        <ele>2011.956</ele>
        <time>2018-09-15T19:24:45Z</time>
      </trkpt>
      <trkpt lat="46.22044" lon="10.42826">
        <ele>2018.434</ele>
        <time>2018-09-15T19:25:05Z</time>
      </trkpt>
      <trkpt lat="46.2204" lon="10.42801">
        <ele>2025.881</ele>
        <time>2018-09-15T19:25:25Z</time>
      </trkpt>
      <trkpt lat="46.22036" lon="10.42784">
        <ele>2030.668</ele>
        <time>2018-09-15T19:25:45Z</time>
      </trkpt>
      <trkpt lat="46.22038" lon="10.42758">
        <ele>2033.242</ele>
        <time>2018-09-15T19:26:05Z</time>
      </trkpt>
      <trkpt lat="46.22038" lon="10.42741">
        <ele>2035.726</ele>
        <time>2018-09-15T19:26:25Z</time>
      </trkpt>
      <trkpt lat="46.22034" lon="10.42723">
        <ele>2039.908</ele>
        <time>2018-09-15T19:26:45Z</time>
      </trkpt>
      <trkpt lat="46.22029" lon="10.42697">
        <ele>2045.968</ele>
        <time>2018-09-15T19:27:05Z</time>
      </trkpt>
      <trkpt lat="46.22037" lon="10.42655">
        <ele>2046.734</ele>
        <time>2018-09-15T19:27:25Z</time>
      </trkpt>
      <trkpt lat="46.22048" lon="10.4263">
        <ele>2043.741</ele>
        <time>2018-09-15T19:27:45Z</time>
      </trkpt>
      <trkpt lat="46.2205" lon="10.42627">
        <ele>2043.564</ele>
        <time>2018-09-15T19:28:05Z</time>
      </trkpt>
      <trkpt lat="46.22064" lon="10.4259">
        <ele>2039.377</ele>
        <time>2018-09-15T19:28:25Z</time>
      </trkpt>
      <trkpt lat="46.22063" lon="10.42567">
        <ele>2042.55</ele>
        <time>2018-09-15T19:28:45Z</time>
      </trkpt>
      <trkpt lat="46.22061" lon="10.42552">
        <ele>2045.358</ele>
        <time>2018-09-15T19:29:05Z</time>
      </trkpt>
      <trkpt lat="46.22057" lon="10.42539">
        <ele>2048.485</ele>
        <time>2018-09-15T19:29:25Z</time>
      </trkpt>
      <trkpt lat="46.22052" lon="10.42528">
        <ele>2050.422</ele>
        <time>2018-09-15T19:29:45Z</time>
      </trkpt>
      <trkpt lat="46.22048" lon="10.42524">
        <ele>2050.462</ele>
        <time>2018-09-15T19:30:05Z</time>
      </trkpt>
      <trkpt lat="46.22046" lon="10.42521">
        <ele>2050.108</ele>
        <time>2018-09-15T19:30:25Z</time>
      </trkpt>
      <trkpt lat="46.22042" lon="10.42519">
        <ele>2050.408</ele>
        <time>2018-09-15T19:30:45Z</time>
      </trkpt>
      <trkpt lat="46.22038" lon="10.42526">
        <ele>2052.274</ele>
        <time>2018-09-15T19:31:05Z</time>
      </trkpt>
      <trkpt lat="46.22036" lon="10.42538">
        <ele>2053.95</ele>
        <time>2018-09-15T19:31:25Z</time>
      </trkpt>
      <trkpt lat="46.22033" lon="10.42546">
        <ele>2055.747</ele>
        <time>2018-09-15T19:31:45Z</time>
      </trkpt>
      <trkpt lat="46.2203" lon="10.42548">
        <ele>2057.09</ele>
        <time>2018-09-15T19:32:05Z</time>
      </trkpt>
      <trkpt lat="46.22027" lon="10.42548">
        <ele>2058.063</ele>
        <time>2018-09-15T19:32:25Z</time>
      </trkpt>
      <trkpt lat="46.22022" lon="10.42548">
        <ele>2059.876</ele>
        <time>2018-09-15T19:32:45Z</time>
      </trkpt>
      <trkpt lat="46.22018" lon="10.42553">
        <ele>2062.344</ele>
        <time>2018-09-15T19:33:05Z</time>
      </trkpt>
      <trkpt lat="46.22018" lon="10.42553">
        <ele>2062.441</ele>
        <time>2018-09-15T19:33:25Z</time>
      </trkpt>
      <trkpt lat="46.22005" lon="10.42557">
        <ele>2068.571</ele>
        <time>2018-09-15T19:33:45Z</time>
      </trkpt>
      <trkpt lat="46.21994" lon="10.42566">
        <ele>2072.841</ele>
        <time>2018-09-15T19:34:05Z</time>
      </trkpt>
      <trkpt lat="46.21988" lon="10.42571">
        <ele>2074.915</ele>
        <time>2018-09-15T19:34:25Z</time>
      </trkpt>
      <trkpt lat="46.2198" lon="10.42581">
        <ele>2078.108</ele>
        <time>2018-09-15T19:34:45Z</time>
      </trkpt>
      <trkpt lat="46.21974" lon="10.42585">
        <ele>2079.949</ele>
        <time>2018-09-15T19:35:05Z</time>
      </trkpt>
      <trkpt lat="46.21969" lon="10.42594">
        <ele>2082.995</ele>
        <time>2018-09-15T19:35:25Z</time>
      </trkpt>
      <trkpt lat="46.21961" lon="10.42611">
        <ele>2089.592</ele>
        <time>2018-09-15T19:35:45Z</time>
      </trkpt>
      <trkpt lat="46.21956" lon="10.42617">
        <ele>2092.195</ele>
        <time>2018-09-15T19:36:05Z</time>
      </trkpt>
      <trkpt lat="46.2195" lon="10.42622">
        <ele>2095.418</ele>
        <time>2018-09-15T19:36:25Z</time>
      </trkpt>
      <trkpt lat="46.21944" lon="10.4263">
        <ele>2098.791</ele>
        <time>2018-09-15T19:36:45Z</time>
      </trkpt>
      <trkpt lat="46.21936" lon="10.42628">
        <ele>2099.219</ele>
        <time>2018-09-15T19:37:05Z</time>
      </trkpt>
      <trkpt lat="46.21932" lon="10.42629">
        <ele>2099.796</ele>
        <time>2018-09-15T19:37:25Z</time>
      </trkpt>
      <trkpt lat="46.21927" lon="10.42634">
        <ele>2100.782</ele>
        <time>2018-09-15T19:37:45Z</time>
      </trkpt>
      <trkpt lat="46.2192" lon="10.42638">
        <ele>2101.643</ele>
        <time>2018-09-15T19:38:05Z</time>
      </trkpt>
      <trkpt lat="46.21914" lon="10.42644">
        <ele>2102.417</ele>
        <time>2018-09-15T19:38:25Z</time>
      </trkpt>
      <trkpt lat="46.21914" lon="10.42649">
        <ele>2102.908</ele>
        <time>2018-09-15T19:38:45Z</time>
      </trkpt>
      <trkpt lat="46.21919" lon="10.42655">
        <ele>2102.98</ele>
        <time>2018-09-15T19:39:05Z</time>
      </trkpt>
      <trkpt lat="46.21923" lon="10.42663">
        <ele>2102.836</ele>
        <time>2018-09-15T19:39:25Z</time>
      </trkpt>
      <trkpt lat="46.21925" lon="10.42671">
        <ele>2103.093</ele>
        <time>2018-09-15T19:39:45Z</time>
      </trkpt>
      <trkpt lat="46.21924" lon="10.42678">
        <ele>2103.596</ele>
        <time>2018-09-15T19:40:05Z</time>
      </trkpt>
      <trkpt lat="46.21923" lon="10.42689">
        <ele>2104.329</ele>
        <time>2018-09-15T19:40:25Z</time>
      </trkpt>
      <trkpt lat="46.21919" lon="10.42702">
        <ele>2105.872</ele>
        <time>2018-09-15T19:40:45Z</time>
      </trkpt>
      <trkpt lat="46.21918" lon="10.42709">
        <ele>2106.68</ele>
        <time>2018-09-15T19:41:05Z</time>
      </trkpt>
      <trkpt lat="46.21917" lon="10.42719">
        <ele>2107.827</ele>
        <time>2018-09-15T19:41:25Z</time>
      </trkpt>
      <trkpt lat="46.21913" lon="10.4273">
        <ele>2109.818</ele>
        <time>2018-09-15T19:41:45Z</time>
      </trkpt>
      <trkpt lat="46.2191" lon="10.42736">
        <ele>2111.598</ele>
        <time>2018-09-15T19:42:05Z</time>
      </trkpt>
      <trkpt lat="46.21905" lon="10.42746">
        <ele>2114.517</ele>
        <time>2018-09-15T19:42:25Z</time>
      </trkpt>
      <trkpt lat="46.21901" lon="10.42754">
        <ele>2117.008</ele>
        <time>2018-09-15T19:42:45Z</time>
      </trkpt>
      <trkpt lat="46.21897" lon="10.42762">
        <ele>2119.763</ele>
        <time>2018-09-15T19:43:05Z</time>
      </trkpt>
      <trkpt lat="46.21894" lon="10.42771">
        <ele>2122.099</ele>
        <time>2018-09-15T19:43:25Z</time>
      </trkpt>
      <trkpt lat="46.2189" lon="10.42776">
        <ele>2124.046</ele>
        <time>2018-09-15T19:43:45Z</time>
      </trkpt>
      <trkpt lat="46.21883" lon="10.4278">
        <ele>2125.469</ele>
        <time>2018-09-15T19:44:05Z</time>
      </trkpt>
      <trkpt lat="46.21877" lon="10.42784">
        <ele>2126.042</ele>
        <time>2018-09-15T19:44:25Z</time>
      </trkpt>
      <trkpt lat="46.21875" lon="10.42791">
        <ele>2126.565</ele>
        <time>2018-09-15T19:44:45Z</time>
      </trkpt>
      <trkpt lat="46.21867" lon="10.42797">
        <ele>2127.663</ele>
        <time>2018-09-15T19:45:05Z</time>
      </trkpt>
      <trkpt lat="46.21861" lon="10.42807">
        <ele>2129.05</ele>
        <time>2018-09-15T19:45:25Z</time>
      </trkpt>
      <trkpt lat="46.21857" lon="10.42814">
        <ele>2130.349</ele>
        <time>2018-09-15T19:45:45Z</time>
      </trkpt>
      <trkpt lat="46.21848" lon="10.42819">
        <ele>2132.802</ele>
        <time>2018-09-15T19:46:05Z</time>
      </trkpt>
      <trkpt lat="46.21842" lon="10.42819">
        <ele>2134.322</ele>
        <time>2018-09-15T19:46:25Z</time>
      </trkpt>
      <trkpt lat="46.21831" lon="10.42819">
        <ele>2136.708</ele>
        <time>2018-09-15T19:46:45Z</time>
      </trkpt>
      <trkpt lat="46.21818" lon="10.42811">
        <ele>2136.326</ele>
        <time>2018-09-15T19:47:05Z</time>
      </trkpt>
      <trkpt lat="46.21813" lon="10.42802">
        <ele>2134.632</ele>
        <time>2018-09-15T19:47:25Z</time>
      </trkpt>
      <trkpt lat="46.21812" lon="10.42801">
        <ele>2134.459</ele>
        <time>2018-09-15T19:47:45Z</time>
      </trkpt>
      <trkpt lat="46.21802" lon="10.42791">
        <ele>2132.122</ele>
        <time>2018-09-15T19:48:05Z</time>
      </trkpt>
      <trkpt lat="46.2179" lon="10.42782">
        <ele>2129.485</ele>
        <time>2018-09-15T19:48:25Z</time>
      </trkpt>
      <trkpt lat="46.21778" lon="10.42772">
        <ele>2125.828</ele>
        <time>2018-09-15T19:48:45Z</time>
      </trkpt>
      <trkpt lat="46.21789" lon="10.42771">
        <ele>2125.966</ele>
        <time>2018-09-15T19:49:05Z</time>
      </trkpt>
      <trkpt lat="46.2182" lon="10.42767">
        <ele>2126.273</ele>
        <time>2018-09-15T19:49:25Z</time>
      </trkpt>
      <trkpt lat="46.21832" lon="10.4276">
        <ele>2125.168</ele>
        <time>2018-09-15T19:49:45Z</time>
      </trkpt>
      <trkpt lat="46.21845" lon="10.42744">
        <ele>2122.242</ele>
        <time>2018-09-15T19:50:05Z</time>
      </trkpt>
      <trkpt lat="46.21853" lon="10.42723">
        <ele>2116.926</ele>
        <time>2018-09-15T19:50:25Z</time>
      </trkpt>
      <trkpt lat="46.2186" lon="10.42709">
        <ele>2114.408</ele>
        <time>2018-09-15T19:50:45Z</time>
      </trkpt>
      <trkpt lat="46.21876" lon="10.42659">
        <ele>2104.478</ele>
        <time>2018-09-15T19:51:05Z</time>
      </trkpt>
      <trkpt lat="46.21879" lon="10.42649">
        <ele>2102.624</ele>
        <time>2018-09-15T19:51:25Z</time>
      </trkpt>
      <trkpt lat="46.21891" lon="10.42611">
        <ele>2097.981</ele>
        <time>2018-09-15T19:51:45Z</time>
      </trkpt>
      <trkpt lat="46.21895" lon="10.42603">
        <ele>2095.974</ele>
        <time>2018-09-15T19:52:05Z</time>
      </trkpt>
      <trkpt lat="46.21895" lon="10.42603">
        <ele>2095.767</ele>
        <time>2018-09-15T19:52:25Z</time>
      </trkpt>
      <trkpt lat="46.21895" lon="10.42598">
        <ele>2094.14</ele>
        <time>2018-09-15T19:52:45Z</time>
      </trkpt>
      <trkpt lat="46.21889" lon="10.42593">
        <ele>2092.178</ele>
        <time>2018-09-15T19:53:05Z</time>
      </trkpt>
      <trkpt lat="46.2187" lon="10.42602">
        <ele>2089.125</ele>
        <time>2018-09-15T19:53:25Z</time>
      </trkpt>
      <trkpt lat="46.21848" lon="10.42601">
        <ele>2082.443</ele>
        <time>2018-09-15T19:53:45Z</time>
      </trkpt>
      <trkpt lat="46.21826" lon="10.4261">
        <ele>2078.464</ele>
        <time>2018-09-15T19:54:05Z</time>
      </trkpt>
      <trkpt lat="46.21817" lon="10.42615">
        <ele>2077.41</ele>
        <time>2018-09-15T19:54:25Z</time>
      </trkpt>
      <trkpt lat="46.21805" lon="10.42628">
        <ele>2078.308</ele>
        <time>2018-09-15T19:54:45Z</time>
      </trkpt>
      <trkpt lat="46.21796" lon="10.42626">
        <ele>2076.146</ele>
        <time>2018-09-15T19:55:05Z</time>
      </trkpt>
      <trkpt lat="46.21795" lon="10.4261">
        <ele>2070.752</ele>
        <time>2018-09-15T19:55:25Z</time>
      </trkpt>
      <trkpt lat="46.21805" lon="10.42582">
        <ele>2065.599</ele>
        <time>2018-09-15T19:55:45Z</time>
      </trkpt>
      <trkpt lat="46.21811" lon="10.42564">
        <ele>2061.752</ele>
        <time>2018-09-15T19:56:05Z</time>
      </trkpt>
      <trkpt lat="46.21825" lon="10.42533">
        <ele>2056.625</ele>
        <time>2018-09-15T19:56:25Z</time>
      </trkpt>
      <trkpt lat="46.21835" lon="10.42519">
        <ele>2055.088</ele>
        <time>2018-09-15T19:56:45Z</time>
      </trkpt>
      <trkpt lat="46.21839" lon="10.42517">
        <ele>2055.276</ele>
        <time>2018-09-15T19:57:05Z</time>
      </trkpt>
      <trkpt lat="46.21848" lon="10.4251">
        <ele>2054.683</ele>
        <time>2018-09-15T19:57:25Z</time>
      </trkpt>
      <trkpt lat="46.21859" lon="10.42509">
        <ele>2055.731</ele>
        <time>2018-09-15T19:57:45Z</time>
      </trkpt>
      <trkpt lat="46.21878" lon="10.425">
        <ele>2055.561</ele>
        <time>2018-09-15T19:58:05Z</time>
      </trkpt>
      <trkpt lat="46.21879" lon="10.425">
        <ele>2055.407</ele>
        <time>2018-09-15T19:58:25Z</time>
      </trkpt>
      <trkpt lat="46.21882" lon="10.42498">
        <ele>2055.208</ele>
        <time>2018-09-15T19:58:45Z</time>
      </trkpt>
      <trkpt lat="46.21903" lon="10.42474">
        <ele>2048.695</ele>
        <time>2018-09-15T19:59:05Z</time>
      </trkpt>
      <trkpt lat="46.21908" lon="10.42468">
        <ele>2047.261</ele>
        <time>2018-09-15T19:59:25Z</time>
      </trkpt>
      <trkpt lat="46.21912" lon="10.42466">
        <ele>2046.788</ele>
        <time>2018-09-15T19:59:45Z</time>
      </trkpt>
      <trkpt lat="46.21916" lon="10.42468">
        <ele>2048.281</ele>
        <time>2018-09-15T20:00:05Z</time>
      </trkpt>
      <trkpt lat="46.21936" lon="10.42488">
        <ele>2052.954</ele>
        <time>2018-09-15T20:00:25Z</time>
      </trkpt>
      <trkpt lat="46.21953" lon="10.42499">
        <ele>2055.527</ele>
        <time>2018-09-15T20:00:45Z</time>
      </trkpt>
      <trkpt lat="46.21955" lon="10.42498">
        <ele>2055.095</ele>
        <time>2018-09-15T20:01:05Z</time>
      </trkpt>
      <trkpt lat="46.21965" lon="10.42496">
        <ele>2052.592</ele>
        <time>2018-09-15T20:01:25Z</time>
      </trkpt>
      <trkpt lat="46.2197" lon="10.42497">
        <ele>2052.773</ele>
        <time>2018-09-15T20:01:45Z</time>
      </trkpt>
      <trkpt lat="46.21986" lon="10.42502">
        <ele>2052.785</ele>
        <time>2018-09-15T20:02:05Z</time>
      </trkpt>
      <trkpt lat="46.22" lon="10.42501">
        <ele>2050.513</ele>
        <time>2018-09-15T20:02:25Z</time>
      </trkpt>
      <trkpt lat="46.22015" lon="10.42498">
        <ele>2049.108</ele>
        <time>2018-09-15T20:02:45Z</time>
      </trkpt>
      <trkpt lat="46.22016" lon="10.42498">
        <ele>2048.859</ele>
        <time>2018-09-15T20:03:05Z</time>
      </trkpt>
      <trkpt lat="46.22026" lon="10.42485">
        <ele>2042.465</ele>
        <time>2018-09-15T20:03:25Z</time>
      </trkpt>
      <trkpt lat="46.22026" lon="10.42487">
        <ele>2043.242</ele>
        <time>2018-09-15T20:03:45Z</time>
      </trkpt>
      <trkpt lat="46.22029" lon="10.42481">
        <ele>2040.395</ele>
        <time>2018-09-15T20:04:05Z</time>
      </trkpt>
      <trkpt lat="46.22037" lon="10.42474">
        <ele>2036.278</ele>
        <time>2018-09-15T20:04:25Z</time>
      </trkpt>
      <trkpt lat="46.22042" lon="10.42473">
        <ele>2035.391</ele>
        <time>2018-09-15T20:04:45Z</time>
      </trkpt>
      <trkpt lat="46.22044" lon="10.42474">
        <ele>2035.429</ele>
        <time>2018-09-15T20:05:05Z</time>
      </trkpt>
      <trkpt lat="46.22055" lon="10.42476">
        <ele>2035.466</ele>
        <time>2018-09-15T20:05:25Z</time>
      </trkpt>
      <trkpt lat="46.22049" lon="10.42465">
        <ele>2031.355</ele>
        <time>2018-09-15T20:05:45Z</time>
      </trkpt>
      <trkpt lat="46.22054" lon="10.42464">
        <ele>2030.607</ele>
        <time>2018-09-15T20:06:05Z</time>
      </trkpt>
      <trkpt lat="46.22065" lon="10.42463">
        <ele>2027.517</ele>
        <time>2018-09-15T20:06:25Z</time>
      </trkpt>
      <trkpt lat="46.22062" lon="10.42442">
        <ele>2020.008</ele>
        <time>2018-09-15T20:06:45Z</time>
      </trkpt>
      <trkpt lat="46.22075" lon="10.42453">
        <ele>2021.667</ele>
        <time>2018-09-15T20:07:05Z</time>
      </trkpt>
      <trkpt lat="46.2209" lon="10.42469">
        <ele>2020.243</ele>
        <time>2018-09-15T20:07:25Z</time>
      </trkpt>
      <trkpt lat="46.22085" lon="10.42451">
        <ele>2018.31</ele>
        <time>2018-09-15T20:07:45Z</time>
      </trkpt>
      <trkpt lat="46.2208" lon="10.42437">
        <ele>2014.593</ele>
        <time>2018-09-15T20:08:05Z</time>
      </trkpt>
      <trkpt lat="46.22087" lon="10.42439">
        <ele>2012.196</ele>
        <time>2018-09-15T20:08:25Z</time>
      </trkpt>
      <trkpt lat="46.22105" lon="10.42458">
        <ele>2006.989</ele>
        <time>2018-09-15T20:08:45Z</time>
      </trkpt>
      <trkpt lat="46.22128" lon="10.42479">
        <ele>1994.397</ele>
        <time>2018-09-15T20:09:05Z</time>
      </trkpt>
      <trkpt lat="46.22129" lon="10.42468">
        <ele>1991.354</ele>
        <time>2018-09-15T20:09:25Z</time>
      </trkpt>
      <trkpt lat="46.22137" lon="10.42479">
        <ele>1988.149</ele>
        <time>2018-09-15T20:09:45Z</time>
      </trkpt>
      <trkpt lat="46.22134" lon="10.42454">
        <ele>1985.002</ele>
        <time>2018-09-15T20:10:05Z</time>
      </trkpt>
      <trkpt lat="46.22142" lon="10.42466">
        <ele>1982.422</ele>
        <time>2018-09-15T20:10:25Z</time>
      </trkpt>
      <trkpt lat="46.2215" lon="10.42472">
        <ele>1980.808</ele>
        <time>2018-09-15T20:10:45Z</time>
      </trkpt>
      <trkpt lat="46.2215" lon="10.42471">
        <ele>1980.696</ele>
        <time>2018-09-15T20:11:05Z</time>
      </trkpt>
      <trkpt lat="46.22151" lon="10.42465">
        <ele>1979.322</ele>
        <time>2018-09-15T20:11:25Z</time>
      </trkpt>
      <trkpt lat="46.2215" lon="10.42454">
        <ele>1977.449</ele>
        <time>2018-09-15T20:11:45Z</time>
      </trkpt>
      <trkpt lat="46.22139" lon="10.4243">
        <ele>1975.162</ele>
        <time>2018-09-15T20:12:05Z</time>
      </trkpt>
      <trkpt lat="46.22155" lon="10.42439">
        <ele>1972.665</ele>
        <time>2018-09-15T20:12:25Z</time>
      </trkpt>
      <trkpt lat="46.22162" lon="10.4244">
        <ele>1970.828</ele>
        <time>2018-09-15T20:12:45Z</time>
      </trkpt>
      <trkpt lat="46.22149" lon="10.42413">
        <ele>1966.886</ele>
        <time>2018-09-15T20:13:05Z</time>
      </trkpt>
      <trkpt lat="46.22145" lon="10.42405">
        <ele>1964.453</ele>
        <time>2018-09-15T20:13:25Z</time>
      </trkpt>
      <trkpt lat="46.22163" lon="10.42411">
        <ele>1960.576</ele>
        <time>2018-09-15T20:13:45Z</time>
      </trkpt>
      <trkpt lat="46.22163" lon="10.42405">
        <ele>1957.99</ele>
        <time>2018-09-15T20:14:05Z</time>
      </trkpt>
      <trkpt lat="46.22163" lon="10.42404">
        <ele>1957.819</ele>
        <time>2018-09-15T20:14:25Z</time>
      </trkpt>
      <trkpt lat="46.22178" lon="10.42399">
        <ele>1952.108</ele>
        <time>2018-09-15T20:14:45Z</time>
      </trkpt>
      <trkpt lat="46.22194" lon="10.42391">
        <ele>1945.799</ele>
        <time>2018-09-15T20:15:05Z</time>
      </trkpt>
      <trkpt lat="46.22203" lon="10.42389">
        <ele>1943.775</ele>
        <time>2018-09-15T20:15:25Z</time>
      </trkpt>
      <trkpt lat="46.22211" lon="10.4238">
        <ele>1939.462</ele>
        <time>2018-09-15T20:15:45Z</time>
      </trkpt>
      <trkpt lat="46.22223" lon="10.42382">
        <ele>1938.595</ele>
        <time>2018-09-15T20:16:05Z</time>
      </trkpt>
      <trkpt lat="46.22232" lon="10.42384">
        <ele>1936.578</ele>
        <time>2018-09-15T20:16:25Z</time>
      </trkpt>
      <trkpt lat="46.22238" lon="10.42377">
        <ele>1932.981</ele>
        <time>2018-09-15T20:16:45Z</time>
      </trkpt>
      <trkpt lat="46.22245" lon="10.42359">
        <ele>1927.339</ele>
        <time>2018-09-15T20:17:05Z</time>
      </trkpt>
      <trkpt lat="46.22251" lon="10.4235">
        <ele>1924.456</ele>
        <time>2018-09-15T20:17:25Z</time>
      </trkpt>
      <trkpt lat="46.22251" lon="10.42342">
        <ele>1922.765</ele>
        <time>2018-09-15T20:17:45Z</time>
      </trkpt>
      <trkpt lat="46.22243" lon="10.42329">
        <ele>1920.268</ele>
        <time>2018-09-15T20:18:05Z</time>
      </trkpt>
      <trkpt lat="46.2224" lon="10.42316">
        <ele>1916.514</ele>
        <time>2018-09-15T20:18:25Z</time>
      </trkpt>
      <trkpt lat="46.2224" lon="10.42305">
        <ele>1913.308</ele>
        <time>2018-09-15T20:18:45Z</time>
      </trkpt>
      <trkpt lat="46.22235" lon="10.42294">
        <ele>1910.518</ele>
        <time>2018-09-15T20:19:05Z</time>
      </trkpt>
      <trkpt lat="46.22229" lon="10.42282">
        <ele>1906.744</ele>
        <time>2018-09-15T20:19:25Z</time>
      </trkpt>
      <trkpt lat="46.22223" lon="10.42269">
        <ele>1902.251</ele>
        <time>2018-09-15T20:19:45Z</time>
      </trkpt>
      <trkpt lat="46.22225" lon="10.4226">
        <ele>1899.834</ele>
        <time>2018-09-15T20:20:05Z</time>
      </trkpt>
      <trkpt lat="46.22235" lon="10.42256">
        <ele>1900.367</ele>
        <time>2018-09-15T20:20:25Z</time>
      </trkpt>
      <trkpt lat="46.22261" lon="10.42242">
        <ele>1901.29</ele>
        <time>2018-09-15T20:20:45Z</time>
      </trkpt>
      <trkpt lat="46.22251" lon="10.42223">
        <ele>1894.358</ele>
        <time>2018-09-15T20:21:05Z</time>
      </trkpt>
      <trkpt lat="46.2225" lon="10.42215">
        <ele>1891.645</ele>
        <time>2018-09-15T20:21:25Z</time>
      </trkpt>
      <trkpt lat="46.22272" lon="10.42224">
        <ele>1899.062</ele>
        <time>2018-09-15T20:21:45Z</time>
      </trkpt>
      <trkpt lat="46.22267" lon="10.42213">
        <ele>1894.983</ele>
        <time>2018-09-15T20:22:05Z</time>
      </trkpt>
      <trkpt lat="46.22255" lon="10.42198">
        <ele>1887.311</ele>
        <time>2018-09-15T20:22:25Z</time>
      </trkpt>
      <trkpt lat="46.22273" lon="10.42195">
        <ele>1891.008</ele>
        <time>2018-09-15T20:22:45Z</time>
      </trkpt>
      <trkpt lat="46.22265" lon="10.42182">
        <ele>1884.588</ele>
        <time>2018-09-15T20:23:05Z</time>
      </trkpt>
      <trkpt lat="46.2226" lon="10.42175">
        <ele>1880.914</ele>
        <time>2018-09-15T20:23:25Z</time>
      </trkpt>
      <trkpt lat="46.22278" lon="10.42151">
        <ele>1876.531</ele>
        <time>2018-09-15T20:23:45Z</time>
      </trkpt>
      <trkpt lat="46.22294" lon="10.42145">
        <ele>1875.974</ele>
        <time>2018-09-15T20:24:05Z</time>
      </trkpt>
      <trkpt lat="46.22314" lon="10.4214">
        <ele>1872.857</ele>
        <time>2018-09-15T20:24:25Z</time>
      </trkpt>
      <trkpt lat="46.22336" lon="10.42146">
        <ele>1867.92</ele>
        <time>2018-09-15T20:24:45Z</time>
      </trkpt>
      <trkpt lat="46.22337" lon="10.42146">
        <ele>1867.858</ele>
        <time>2018-09-15T20:25:05Z</time>
      </trkpt>
      <trkpt lat="46.22349" lon="10.42147">
        <ele>1860.635</ele>
        <time>2018-09-15T20:25:25Z</time>
      </trkpt>
      <trkpt lat="46.22359" lon="10.42147">
        <ele>1855.277</ele>
        <time>2018-09-15T20:25:45Z</time>
      </trkpt>
      <trkpt lat="46.22386" lon="10.42138">
        <ele>1844.361</ele>
        <time>2018-09-15T20:26:05Z</time>
      </trkpt>
      <trkpt lat="46.22405" lon="10.4213">
        <ele>1837.427</ele>
        <time>2018-09-15T20:26:25Z</time>
      </trkpt>
      <trkpt lat="46.22424" lon="10.42121">
        <ele>1830.808</ele>
        <time>2018-09-15T20:26:45Z</time>
      </trkpt>
      <trkpt lat="46.22442" lon="10.42114">
        <ele>1825.669</ele>
        <time>2018-09-15T20:27:05Z</time>
      </trkpt>
      <trkpt lat="46.22457" lon="10.42111">
        <ele>1822.215</ele>
        <time>2018-09-15T20:27:25Z</time>
      </trkpt>
      <trkpt lat="46.22463" lon="10.42109">
        <ele>1820.612</ele>
        <time>2018-09-15T20:27:45Z</time>
      </trkpt>
      <trkpt lat="46.22475" lon="10.42104">
        <ele>1817.465</ele>
        <time>2018-09-15T20:28:05Z</time>
      </trkpt>
      <trkpt lat="46.22482" lon="10.42085">
        <ele>1813.238</ele>
        <time>2018-09-15T20:28:25Z</time>
      </trkpt>
      <trkpt lat="46.22484" lon="10.42055">
        <ele>1809.221</ele>
        <time>2018-09-15T20:28:45Z</time>
      </trkpt>
      <trkpt lat="46.22485" lon="10.42041">
        <ele>1804.819</ele>
        <time>2018-09-15T20:29:05Z</time>
      </trkpt>
      <trkpt lat="46.22482" lon="10.42019">
        <ele>1800.476</ele>
        <time>2018-09-15T20:29:25Z</time>
      </trkpt>
      <trkpt lat="46.22477" lon="10.42004">
        <ele>1799.757</ele>
        <time>2018-09-15T20:29:45Z</time>
      </trkpt>
      <trkpt lat="46.22475" lon="10.41991">
        <ele>1797.7</ele>
        <time>2018-09-15T20:30:05Z</time>
      </trkpt>
      <trkpt lat="46.22477" lon="10.41992">
        <ele>1797.62</ele>
        <time>2018-09-15T20:30:25Z</time>
      </trkpt>
      <trkpt lat="46.2251" lon="10.41976">
        <ele>1787.508</ele>
        <time>2018-09-15T20:30:45Z</time>
      </trkpt>
      <trkpt lat="46.22555" lon="10.41978">
        <ele>1779.017</ele>
        <time>2018-09-15T20:31:05Z</time>
      </trkpt>
      <trkpt lat="46.22572" lon="10.4198">
        <ele>1776.963</ele>
        <time>2018-09-15T20:31:25Z</time>
      </trkpt>
      <trkpt lat="46.22583" lon="10.41984">
        <ele>1775.57</ele>
        <time>2018-09-15T20:31:45Z</time>
      </trkpt>
      <trkpt lat="46.22599" lon="10.41985">
        <ele>1769.243</ele>
        <time>2018-09-15T20:32:05Z</time>
      </trkpt>
      <trkpt lat="46.22603" lon="10.41942">
        <ele>1761.966</ele>
        <time>2018-09-15T20:32:25Z</time>
      </trkpt>
      <trkpt lat="46.22592" lon="10.41927">
        <ele>1761.469</ele>
        <time>2018-09-15T20:32:45Z</time>
      </trkpt>
      <trkpt lat="46.22585" lon="10.41915">
        <ele>1760.317</ele>
        <time>2018-09-15T20:33:05Z</time>
      </trkpt>
      <trkpt lat="46.2258" lon="10.41903">
        <ele>1758.354</ele>
        <time>2018-09-15T20:33:25Z</time>
      </trkpt>
      <trkpt lat="46.22574" lon="10.41884">
        <ele>1754.713</ele>
        <time>2018-09-15T20:33:45Z</time>
      </trkpt>
      <trkpt lat="46.22563" lon="10.4187">
        <ele>1752.443</ele>
        <time>2018-09-15T20:34:05Z</time>
      </trkpt>
      <trkpt lat="46.22547" lon="10.41852">
        <ele>1748.707</ele>
        <time>2018-09-15T20:34:25Z</time>
      </trkpt>
      <trkpt lat="46.22533" lon="10.41845">
        <ele>1747.308</ele>
        <time>2018-09-15T20:34:45Z</time>
      </trkpt>
      <trkpt lat="46.2252" lon="10.41826">
        <ele>1743.243</ele>
        <time>2018-09-15T20:35:05Z</time>
      </trkpt>
      <trkpt lat="46.22513" lon="10.41818">
        <ele>1741.939</ele>
        <time>2018-09-15T20:35:25Z</time>
      </trkpt>
      <trkpt lat="46.22505" lon="10.41809">
        <ele>1740.866</ele>
        <time>2018-09-15T20:35:45Z</time>
      </trkpt>
      <trkpt lat="46.22533" lon="10.41801">
        <ele>1732.389</ele>
        <time>2018-09-15T20:36:05Z</time>
      </trkpt>
      <trkpt lat="46.22554" lon="10.41802">
        <ele>1731.812</ele>
        <time>2018-09-15T20:36:25Z</time>
      </trkpt>
      <trkpt lat="46.22575" lon="10.418">
        <ele>1730.965</ele>
        <time>2018-09-15T20:36:45Z</time>
      </trkpt>
      <trkpt lat="46.22568" lon="10.41778">
        <ele>1725.113</ele>
        <time>2018-09-15T20:37:05Z</time>
      </trkpt>
      <trkpt lat="46.22542" lon="10.41753">
        <ele>1716.39</ele>
        <time>2018-09-15T20:37:25Z</time>
      </trkpt>
      <trkpt lat="46.22511" lon="10.41744">
        <ele>1714.858</ele>
        <time>2018-09-15T20:37:45Z</time>
      </trkpt>
      <trkpt lat="46.22479" lon="10.41739">
        <ele>1717.152</ele>
        <time>2018-09-15T20:38:05Z</time>
      </trkpt>
      <trkpt lat="46.22457" lon="10.41741">
        <ele>1717.317</ele>
        <time>2018-09-15T20:38:25Z</time>
      </trkpt>
      <trkpt lat="46.22441" lon="10.41737">
        <ele>1714.508</ele>
        <time>2018-09-15T20:38:45Z</time>
      </trkpt>
      <trkpt lat="46.22415" lon="10.41728">
        <ele>1710.357</ele>
        <time>2018-09-15T20:39:05Z</time>
      </trkpt>
      <trkpt lat="46.22384" lon="10.41722">
        <ele>1711.063</ele>
        <time>2018-09-15T20:39:25Z</time>
      </trkpt>
      <trkpt lat="46.22352" lon="10.41717">
        <ele>1715.08</ele>
        <time>2018-09-15T20:39:45Z</time>
      </trkpt>
      <trkpt lat="46.22411" lon="10.41688">
        <ele>1696.633</ele>
        <time>2018-09-15T20:40:05Z</time>
      </trkpt>
      <trkpt lat="46.22434" lon="10.41675">
        <ele>1690.956</ele>
        <time>2018-09-15T20:40:25Z</time>
      </trkpt>
      <trkpt lat="46.2245" lon="10.41663">
        <ele>1685.539</ele>
        <time>2018-09-15T20:40:45Z</time>
      </trkpt>
      <trkpt lat="46.22462" lon="10.41655">
        <ele>1681.137</ele>
        <time>2018-09-15T20:41:05Z</time>
      </trkpt>
      <trkpt lat="46.22432" lon="10.41642">
        <ele>1677.434</ele>
        <time>2018-09-15T20:41:25Z</time>
      </trkpt>
      <trkpt lat="46.22419" lon="10.41628">
        <ele>1674.581</ele>
        <time>2018-09-15T20:41:45Z</time>
      </trkpt>
      <trkpt lat="46.22416" lon="10.41628">
        <ele>1674.961</ele>
        <time>2018-09-15T20:42:05Z</time>
      </trkpt>
      <trkpt lat="46.22355" lon="10.41626">
        <ele>1678.117</ele>
        <time>2018-09-15T20:42:25Z</time>
      </trkpt>
      <trkpt lat="46.22338" lon="10.41623">
        <ele>1674.208</ele>
        <time>2018-09-15T20:42:45Z</time>
      </trkpt>
      <trkpt lat="46.22314" lon="10.41628">
        <ele>1674.96</ele>
        <time>2018-09-15T20:43:05Z</time>
      </trkpt>
      <trkpt lat="46.22293" lon="10.41639">
        <ele>1679.286</ele>
        <time>2018-09-15T20:43:25Z</time>
      </trkpt>
      <trkpt lat="46.22278" lon="10.41647">
        <ele>1681.973</ele>
        <time>2018-09-15T20:43:45Z</time>
      </trkpt>
      <trkpt lat="46.2226" lon="10.41661">
        <ele>1683.646</ele>
        <time>2018-09-15T20:44:05Z</time>
      </trkpt>
      <trkpt lat="46.22239" lon="10.41689">
        <ele>1687.289</ele>
        <time>2018-09-15T20:44:25Z</time>
      </trkpt>
      <trkpt lat="46.2222" lon="10.4172">
        <ele>1690.622</ele>
        <time>2018-09-15T20:44:45Z</time>
      </trkpt>
      <trkpt lat="46.22212" lon="10.41729">
        <ele>1691.38</ele>
        <time>2018-09-15T20:45:05Z</time>
      </trkpt>
      <trkpt lat="46.22188" lon="10.41739">
        <ele>1686.037</ele>
        <time>2018-09-15T20:45:25Z</time>
      </trkpt>
      <trkpt lat="46.2218" lon="10.41734">
        <ele>1680.529</ele>
        <time>2018-09-15T20:45:45Z</time>
      </trkpt>
      <trkpt lat="46.22166" lon="10.41729">
        <ele>1671.6</ele>
        <time>2018-09-15T20:46:05Z</time>
      </trkpt>
      <trkpt lat="46.22145" lon="10.41741">
        <ele>1665.42</ele>
        <time>2018-09-15T20:46:25Z</time>
      </trkpt>
      <trkpt lat="46.22137" lon="10.41757">
        <ele>1668.108</ele>
        <time>2018-09-15T20:46:45Z</time>
      </trkpt>
      <trkpt lat="46.2213" lon="10.41771">
        <ele>1670.644</ele>
        <time>2018-09-15T20:47:05Z</time>
      </trkpt>
      <trkpt lat="46.22123" lon="10.41773">
        <ele>1669.02</ele>
        <time>2018-09-15T20:47:25Z</time>
      </trkpt>
      <trkpt lat="46.22119" lon="10.41774">
        <ele>1667.727</ele>
        <time>2018-09-15T20:47:45Z</time>
      </trkpt>
      <trkpt lat="46.22111" lon="10.41774">
        <ele>1665.03</ele>
        <time>2018-09-15T20:48:05Z</time>
      </trkpt>
      <trkpt lat="46.221" lon="10.41769">
        <ele>1661.743</ele>
        <time>2018-09-15T20:48:25Z</time>
      </trkpt>
      <trkpt lat="46.22092" lon="10.41757">
        <ele>1656.436</ele>
        <time>2018-09-15T20:48:45Z</time>
      </trkpt>
      <trkpt lat="46.22081" lon="10.41734">
        <ele>1647.284</ele>
        <time>2018-09-15T20:49:05Z</time>
      </trkpt>
      <trkpt lat="46.22074" lon="10.41711">
        <ele>1637.871</ele>
        <time>2018-09-15T20:49:25Z</time>
      </trkpt>
      <trkpt lat="46.22057" lon="10.4168">
        <ele>1620.653</ele>
        <time>2018-09-15T20:49:45Z</time>
      </trkpt>
      <trkpt lat="46.22028" lon="10.41626">
        <ele>1613.004</ele>
        <time>2018-09-15T20:50:05Z</time>
      </trkpt>
      <trkpt lat="46.2202" lon="10.41621">
        <ele>1615.214</ele>
        <time>2018-09-15T20:50:25Z</time>
      </trkpt>
      <trkpt lat="46.22007" lon="10.41614">
        <ele>1620.908</ele>
        <time>2018-09-15T20:50:45Z</time>
      </trkpt>
      <trkpt lat="46.22003" lon="10.41608">
        <ele>1621.027</ele>
        <time>2018-09-15T20:51:05Z</time>
      </trkpt>
      <trkpt lat="46.22003" lon="10.41607">
        <ele>1620.863</ele>
        <time>2018-09-15T20:51:25Z</time>
      </trkpt>
      <trkpt lat="46.21997" lon="10.41594">
        <ele>1616.85</ele>
        <time>2018-09-15T20:51:45Z</time>
      </trkpt>
      <trkpt lat="46.21988" lon="10.4157">
        <ele>1609.553</ele>
        <time>2018-09-15T20:52:05Z</time>
      </trkpt>
      <trkpt lat="46.21979" lon="10.41553">
        <ele>1606.926</ele>
        <time>2018-09-15T20:52:25Z</time>
      </trkpt>
      <trkpt lat="46.21963" lon="10.41533">
        <ele>1608.849</ele>
        <time>2018-09-15T20:52:45Z</time>
      </trkpt>
      <trkpt lat="46.21951" lon="10.41516">
        <ele>1610.667</ele>
        <time>2018-09-15T20:53:05Z</time>
      </trkpt>
      <trkpt lat="46.21935" lon="10.41499">
        <ele>1611.144</ele>
        <time>2018-09-15T20:53:25Z</time>
      </trkpt>
      <trkpt lat="46.21924" lon="10.41492">
        <ele>1614.036</ele>
        <time>2018-09-15T20:53:45Z</time>
      </trkpt>
      <trkpt lat="46.21908" lon="10.41487">
        <ele>1616.517</ele>
        <time>2018-09-15T20:54:05Z</time>
      </trkpt>
      <trkpt lat="46.21902" lon="10.41482">
        <ele>1614.118</ele>
        <time>2018-09-15T20:54:25Z</time>
      </trkpt>
      <trkpt lat="46.21893" lon="10.41478">
        <ele>1613.308</ele>
        <time>2018-09-15T20:54:45Z</time>
      </trkpt>
      <trkpt lat="46.21873" lon="10.41481">
        <ele>1613.615</ele>
        <time>2018-09-15T20:55:05Z</time>
      </trkpt>
      <trkpt lat="46.21864" lon="10.41477">
        <ele>1611.121</ele>
        <time>2018-09-15T20:55:25Z</time>
      </trkpt>
      <trkpt lat="46.21856" lon="10.41471">
        <ele>1608.528</ele>
        <time>2018-09-15T20:55:45Z</time>
      </trkpt>
      <trkpt lat="46.2184" lon="10.41452">
        <ele>1602.091</ele>
        <time>2018-09-15T20:56:05Z</time>
      </trkpt>
      <trkpt lat="46.2182" lon="10.41431">
        <ele>1592.144</ele>
        <time>2018-09-15T20:56:25Z</time>
      </trkpt>
      <trkpt lat="46.21816" lon="10.41428">
        <ele>1590.917</ele>
        <time>2018-09-15T20:56:45Z</time>
      </trkpt>
      <trkpt lat="46.21776" lon="10.41405">
        <ele>1579.265</ele>
        <time>2018-09-15T20:57:05Z</time>
      </trkpt>
      <trkpt lat="46.21759" lon="10.41402">
        <ele>1579.392</ele>
        <time>2018-09-15T20:57:25Z</time>
      </trkpt>
      <trkpt lat="46.21742" lon="10.41406">
        <ele>1582.029</ele>
        <time>2018-09-15T20:57:45Z</time>
      </trkpt>
      <trkpt lat="46.2174" lon="10.41406">
        <ele>1582.1</ele>
        <time>2018-09-15T20:58:05Z</time>
      </trkpt>
      <trkpt lat="46.2174" lon="10.41407">
        <ele>1582.22</ele>
        <time>2018-09-15T20:58:25Z</time>
      </trkpt>
      <trkpt lat="46.21739" lon="10.41408">
        <ele>1582.608</ele>
        <time>2018-09-15T20:58:45Z</time>
      </trkpt>
      <trkpt lat="46.21731" lon="10.41415">
        <ele>1585.344</ele>
        <time>2018-09-15T20:59:05Z</time>
      </trkpt>
      <trkpt lat="46.21714" lon="10.41439">
        <ele>1590.48</ele>
        <time>2018-09-15T20:59:25Z</time>
      </trkpt>
      <trkpt lat="46.21704" lon="10.41457">
        <ele>1595.047</ele>
        <time>2018-09-15T20:59:45Z</time>
      </trkpt>
      <trkpt lat="46.217" lon="10.41457">
        <ele>1593.66</ele>
        <time>2018-09-15T21:00:05Z</time>
      </trkpt>
      <trkpt lat="46.21676" lon="10.4145">
        <ele>1589.053</ele>
        <time>2018-09-15T21:00:25Z</time>
      </trkpt>
      <trkpt lat="46.21672" lon="10.41443">
        <ele>1586.866</ele>
        <time>2018-09-15T21:00:45Z</time>
      </trkpt>
      <trkpt lat="46.21668" lon="10.41428">
        <ele>1583.364</ele>
        <time>2018-09-15T21:01:05Z</time>
      </trkpt>
      <trkpt lat="46.21665" lon="10.41406">
        <ele>1579.561</ele>
        <time>2018-09-15T21:01:25Z</time>
      </trkpt>
      <trkpt lat="46.21664" lon="10.4137">
        <ele>1573.864</ele>
        <time>2018-09-15T21:01:45Z</time>
      </trkpt>
      <trkpt lat="46.21663" lon="10.41363">
        <ele>1573.106</ele>
        <time>2018-09-15T21:02:05Z</time>
      </trkpt>
      <trkpt lat="46.21663" lon="10.41359">
        <ele>1572.416</ele>
        <time>2018-09-15T21:02:25Z</time>
      </trkpt>
      <trkpt lat="46.21665" lon="10.41341">
        <ele>1569.708</ele>
        <time>2018-09-15T21:02:45Z</time>
      </trkpt>
      <trkpt lat="46.21662" lon="10.41329">
        <ele>1568.618</ele>
        <time>2018-09-15T21:03:05Z</time>
      </trkpt>
      <trkpt lat="46.21657" lon="10.41321">
        <ele>1569.314</ele>
        <time>2018-09-15T21:03:25Z</time>
      </trkpt>
      <trkpt lat="46.21649" lon="10.41316">
        <ele>1572.031</ele>
        <time>2018-09-15T21:03:45Z</time>
      </trkpt>
      <trkpt lat="46.21632" lon="10.41326">
        <ele>1580.214</ele>
        <time>2018-09-15T21:04:05Z</time>
      </trkpt>
      <trkpt lat="46.21626" lon="10.41333">
        <ele>1583.177</ele>
        <time>2018-09-15T21:04:25Z</time>
      </trkpt>
      <trkpt lat="46.21612" lon="10.41347">
        <ele>1593.14</ele>
        <time>2018-09-15T21:04:45Z</time>
      </trkpt>
      <trkpt lat="46.21603" lon="10.41347">
        <ele>1592.028</ele>
        <time>2018-09-15T21:05:05Z</time>
      </trkpt>
      <trkpt lat="46.21593" lon="10.41343">
        <ele>1588.625</ele>
        <time>2018-09-15T21:05:25Z</time>
      </trkpt>
      <trkpt lat="46.2159" lon="10.41341">
        <ele>1587.257</ele>
        <time>2018-09-15T21:05:45Z</time>
      </trkpt>
      <trkpt lat="46.21582" lon="10.41337">
        <ele>1584.4</ele>
        <time>2018-09-15T21:06:05Z</time>
      </trkpt>
      <trkpt lat="46.21576" lon="10.41334">
        <ele>1583.02</ele>
        <time>2018-09-15T21:06:25Z</time>
      </trkpt>
      <trkpt lat="46.21564" lon="10.41329">
        <ele>1579.608</ele>
        <time>2018-09-15T21:06:45Z</time>
      </trkpt>
      <trkpt lat="46.21561" lon="10.41327">
        <ele>1578.747</ele>
        <time>2018-09-15T21:07:05Z</time>
      </trkpt>
      <trkpt lat="46.2155" lon="10.41321">
        <ele>1574.773</ele>
        <time>2018-09-15T21:07:25Z</time>
      </trkpt>
      <trkpt lat="46.21543" lon="10.41315">
        <ele>1570.85</ele>
        <time>2018-09-15T21:07:45Z</time>
      </trkpt>
      <trkpt lat="46.21536" lon="10.41315">
        <ele>1570.683</ele>
        <time>2018-09-15T21:08:05Z</time>
      </trkpt>
      <trkpt lat="46.21525" lon="10.41331">
        <ele>1580.666</ele>
        <time>2018-09-15T21:08:25Z</time>
      </trkpt>
      <trkpt lat="46.21522" lon="10.41331">
        <ele>1580.189</ele>
        <time>2018-09-15T21:08:45Z</time>
      </trkpt>
      <trkpt lat="46.21518" lon="10.41333">
        <ele>1580.137</ele>
        <time>2018-09-15T21:09:05Z</time>
      </trkpt>
      <trkpt lat="46.2151" lon="10.41315">
        <ele>1569.364</ele>
        <time>2018-09-15T21:09:25Z</time>
      </trkpt>
      <trkpt lat="46.21499" lon="10.413">
        <ele>1562.296</ele>
        <time>2018-09-15T21:09:45Z</time>
      </trkpt>
      <trkpt lat="46.21489" lon="10.41291">
        <ele>1558.331</ele>
        <time>2018-09-15T21:10:05Z</time>
      </trkpt>
      <trkpt lat="46.21475" lon="10.41291">
        <ele>1558.624</ele>
        <time>2018-09-15T21:10:25Z</time>
      </trkpt>
      <trkpt lat="46.21437" lon="10.41295">
        <ele>1560.608</ele>
        <time>2018-09-15T21:10:45Z</time>
      </trkpt>
      <trkpt lat="46.21379" lon="10.413">
        <ele>1552.581</ele>
        <time>2018-09-15T21:11:05Z</time>
      </trkpt>
      <trkpt lat="46.21366" lon="10.41301">
        <ele>1548.977</ele>
        <time>2018-09-15T21:11:25Z</time>
      </trkpt>
      <trkpt lat="46.21347" lon="10.41304">
        <ele>1546.574</ele>
        <time>2018-09-15T21:11:45Z</time>
      </trkpt>
      <trkpt lat="46.21333" lon="10.41305">
        <ele>1544.867</ele>
        <time>2018-09-15T21:12:05Z</time>
      </trkpt>
      <trkpt lat="46.21293" lon="10.41301">
        <ele>1535.93</ele>
        <time>2018-09-15T21:12:25Z</time>
      </trkpt>
      <trkpt lat="46.2128" lon="10.413">
        <ele>1531.043</ele>
        <time>2018-09-15T21:12:45Z</time>
      </trkpt>
      <trkpt lat="46.2125" lon="10.41302">
        <ele>1521.661</ele>
        <time>2018-09-15T21:13:05Z</time>
      </trkpt>
      <trkpt lat="46.21232" lon="10.4129">
        <ele>1516.338</ele>
        <time>2018-09-15T21:13:25Z</time>
      </trkpt>
      <trkpt lat="46.21208" lon="10.41284">
        <ele>1515.387</ele>
        <time>2018-09-15T21:13:45Z</time>
      </trkpt>
      <trkpt lat="46.21196" lon="10.41282">
        <ele>1515.942</ele>
        <time>2018-09-15T21:14:05Z</time>
      </trkpt>
      <trkpt lat="46.21139" lon="10.41273">
        <ele>1511.326</ele>
        <time>2018-09-15T21:14:25Z</time>
      </trkpt>
      <trkpt lat="46.21136" lon="10.41273">
        <ele>1511.108</ele>
        <time>2018-09-15T21:14:45Z</time>
      </trkpt>
      <trkpt lat="46.21127" lon="10.41274">
        <ele>1510.65</ele>
        <time>2018-09-15T21:15:05Z</time>
      </trkpt>
      <trkpt lat="46.21114" lon="10.41268">
        <ele>1506.626</ele>
        <time>2018-09-15T21:15:25Z</time>
      </trkpt>
      <trkpt lat="46.21108" lon="10.41267">
        <ele>1504.933</ele>
        <time>2018-09-15T21:15:45Z</time>
      </trkpt>
      <trkpt lat="46.21096" lon="10.41261">
        <ele>1500.016</ele>
        <time>2018-09-15T21:16:05Z</time>
      </trkpt>
      <trkpt lat="46.21068" lon="10.41247">
        <ele>1493.679</ele>
        <time>2018-09-15T21:16:25Z</time>
      </trkpt>
      <trkpt lat="46.21064" lon="10.41245">
        <ele>1493.142</ele>
        <time>2018-09-15T21:16:45Z</time>
      </trkpt>
      <trkpt lat="46.21061" lon="10.41244">
        <ele>1492.86</ele>
        <time>2018-09-15T21:17:05Z</time>
      </trkpt>
      <trkpt lat="46.21042" lon="10.41244">
        <ele>1493.247</ele>
        <time>2018-09-15T21:17:25Z</time>
      </trkpt>
      <trkpt lat="46.21038" lon="10.41242">
        <ele>1492.764</ele>
        <time>2018-09-15T21:17:45Z</time>
      </trkpt>
      <trkpt lat="46.21037" lon="10.41242">
        <ele>1492.806</ele>
        <time>2018-09-15T21:18:05Z</time>
      </trkpt>
      <trkpt lat="46.21028" lon="10.41241">
        <ele>1492.716</ele>
        <time>2018-09-15T21:18:25Z</time>
      </trkpt>
      <trkpt lat="46.21027" lon="10.41241">
        <ele>1492.808</ele>
        <time>2018-09-15T21:18:45Z</time>
      </trkpt>
      <trkpt lat="46.21019" lon="10.41241">
        <ele>1493.618</ele>
        <time>2018-09-15T21:19:05Z</time>
      </trkpt>
      <trkpt lat="46.21017" lon="10.4124">
        <ele>1493.334</ele>
        <time>2018-09-15T21:19:25Z</time>
      </trkpt>
      <trkpt lat="46.20987" lon="10.41237">
        <ele>1494.891</ele>
        <time>2018-09-15T21:19:45Z</time>
      </trkpt>
      <trkpt lat="46.20944" lon="10.41232">
        <ele>1493.254</ele>
        <time>2018-09-15T21:20:05Z</time>
      </trkpt>
      <trkpt lat="46.20935" lon="10.41231">
        <ele>1492.557</ele>
        <time>2018-09-15T21:20:25Z</time>
      </trkpt>
      <trkpt lat="46.20927" lon="10.4123">
        <ele>1491.63</ele>
        <time>2018-09-15T21:20:45Z</time>
      </trkpt>
      <trkpt lat="46.20908" lon="10.41228">
        <ele>1487.588</ele>
        <time>2018-09-15T21:21:05Z</time>
      </trkpt>
      <trkpt lat="46.209" lon="10.41229">
        <ele>1485.615</ele>
        <time>2018-09-15T21:21:25Z</time>
      </trkpt>
      <trkpt lat="46.20884" lon="10.41227">
        <ele>1479.357</ele>
        <time>2018-09-15T21:21:45Z</time>
      </trkpt>
      <trkpt lat="46.20869" lon="10.41221">
        <ele>1471.3</ele>
        <time>2018-09-15T21:22:05Z</time>
      </trkpt>
      <trkpt lat="46.20866" lon="10.4122">
        <ele>1469.62</ele>
        <time>2018-09-15T21:22:25Z</time>
      </trkpt>
      <trkpt lat="46.20856" lon="10.41212">
        <ele>1465.708</ele>
        <time>2018-09-15T21:22:45Z</time>
      </trkpt>
      <trkpt lat="46.20838" lon="10.41211">
        <ele>1464.817</ele>
        <time>2018-09-15T21:23:05Z</time>
      </trkpt>
      <trkpt lat="46.2082" lon="10.41216">
        <ele>1465.853</ele>
        <time>2018-09-15T21:23:25Z</time>
      </trkpt>
      <trkpt lat="46.20815" lon="10.41218">
        <ele>1466.44</ele>
        <time>2018-09-15T21:23:45Z</time>
      </trkpt>
      <trkpt lat="46.20798" lon="10.41224">
        <ele>1468.363</ele>
        <time>2018-09-15T21:24:05Z</time>
      </trkpt>
      <trkpt lat="46.20784" lon="10.41229">
        <ele>1469.286</ele>
        <time>2018-09-15T21:24:25Z</time>
      </trkpt>
      <trkpt lat="46.20772" lon="10.41226">
        <ele>1469.059</ele>
        <time>2018-09-15T21:24:45Z</time>
      </trkpt>
      <trkpt lat="46.20771" lon="10.41225">
        <ele>1468.887</ele>
        <time>2018-09-15T21:25:05Z</time>
      </trkpt>
      <trkpt lat="46.20771" lon="10.41221">
        <ele>1468.364</ele>
        <time>2018-09-15T21:25:25Z</time>
      </trkpt>
      <trkpt lat="46.2077" lon="10.41221">
        <ele>1468.358</ele>
        <time>2018-09-15T21:25:45Z</time>
      </trkpt>
      <trkpt lat="46.20741" lon="10.41216">
        <ele>1469.452</ele>
        <time>2018-09-15T21:26:05Z</time>
      </trkpt>
      <trkpt lat="46.20732" lon="10.41211">
        <ele>1469.317</ele>
        <time>2018-09-15T21:26:25Z</time>
      </trkpt>
      <trkpt lat="46.20732" lon="10.41211">
        <ele>1469.308</ele>
        <time>2018-09-15T21:26:45Z</time>
      </trkpt>
      <trkpt lat="46.20725" lon="10.4121">
        <ele>1469.477</ele>
        <time>2018-09-15T21:27:05Z</time>
      </trkpt>
      <trkpt lat="46.20713" lon="10.41217">
        <ele>1470.563</ele>
        <time>2018-09-15T21:27:25Z</time>
      </trkpt>
      <trkpt lat="46.20703" lon="10.41218">
        <ele>1471.39</ele>
        <time>2018-09-15T21:27:45Z</time>
      </trkpt>
      <trkpt lat="46.20688" lon="10.41214">
        <ele>1472.433</ele>
        <time>2018-09-15T21:28:05Z</time>
      </trkpt>
      <trkpt lat="46.20663" lon="10.41201">
        <ele>1474.096</ele>
        <time>2018-09-15T21:28:25Z</time>
      </trkpt>
      <trkpt lat="46.20635" lon="10.41193">
        <ele>1474.079</ele>
        <time>2018-09-15T21:28:45Z</time>
      </trkpt>
      <trkpt lat="46.20624" lon="10.41187">
        <ele>1474.077</ele>
        <time>2018-09-15T21:29:05Z</time>
      </trkpt>
      <trkpt lat="46.20591" lon="10.41176">
        <ele>1477.894</ele>
        <time>2018-09-15T21:29:25Z</time>
      </trkpt>
      <trkpt lat="46.20564" lon="10.41173">
        <ele>1484.659</ele>
        <time>2018-09-15T21:29:45Z</time>
      </trkpt>
      <trkpt lat="46.20546" lon="10.41167">
        <ele>1487.503</ele>
        <time>2018-09-15T21:30:05Z</time>
      </trkpt>
      <trkpt lat="46.20534" lon="10.41175">
        <ele>1490.423</ele>
        <time>2018-09-15T21:30:25Z</time>
      </trkpt>
      <trkpt lat="46.20529" lon="10.41179">
        <ele>1491.508</ele>
        <time>2018-09-15T21:30:45Z</time>
      </trkpt>
      <trkpt lat="46.20521" lon="10.41182">
        <ele>1492.927</ele>
        <time>2018-09-15T21:31:05Z</time>
      </trkpt>
      <trkpt lat="46.20513" lon="10.41186">
        <ele>1494.583</ele>
        <time>2018-09-15T21:31:25Z</time>
      </trkpt>
      <trkpt lat="46.20507" lon="10.41186">
        <ele>1495.28</ele>
        <time>2018-09-15T21:31:45Z</time>
      </trkpt>
      <trkpt lat="46.20498" lon="10.41187">
        <ele>1496.333</ele>
        <time>2018-09-15T21:32:05Z</time>
      </trkpt>
      <trkpt lat="46.20486" lon="10.41188">
        <ele>1497.436</ele>
        <time>2018-09-15T21:32:25Z</time>
      </trkpt>
      <trkpt lat="46.20479" lon="10.41187">
        <ele>1497.959</ele>
        <time>2018-09-15T21:32:45Z</time>
      </trkpt>
      <trkpt lat="46.2047" lon="10.41189">
        <ele>1498.797</ele>
        <time>2018-09-15T21:33:05Z</time>
      </trkpt>
      <trkpt lat="46.20461" lon="10.41192">
        <ele>1499.244</ele>
        <time>2018-09-15T21:33:25Z</time>
      </trkpt>
      <trkpt lat="46.20451" lon="10.41201">
        <ele>1501.683</ele>
        <time>2018-09-15T21:33:45Z</time>
      </trkpt>
      <trkpt lat="46.20436" lon="10.41204">
        <ele>1505.425</ele>
        <time>2018-09-15T21:34:05Z</time>
      </trkpt>
      <trkpt lat="46.20416" lon="10.41226">
        <ele>1516.817</ele>
        <time>2018-09-15T21:34:25Z</time>
      </trkpt>
      <trkpt lat="46.20404" lon="10.41232">
        <ele>1519.708</ele>
        <time>2018-09-15T21:34:45Z</time>
      </trkpt>
      <trkpt lat="46.20382" lon="10.41251">
        <ele>1525.22</ele>
        <time>2018-09-15T21:35:05Z</time>
      </trkpt>
      <trkpt lat="46.20367" lon="10.41272">
        <ele>1533.796</ele>
        <time>2018-09-15T21:35:25Z</time>
      </trkpt>
      <trkpt lat="46.20343" lon="10.41274">
        <ele>1536.953</ele>
        <time>2018-09-15T21:35:45Z</time>
      </trkpt>
      <trkpt lat="46.20336" lon="10.41276">
        <ele>1538.116</ele>
        <time>2018-09-15T21:36:05Z</time>
      </trkpt>
      <trkpt lat="46.20316" lon="10.41288">
        <ele>1545.889</ele>
        <time>2018-09-15T21:36:25Z</time>
      </trkpt>
      <trkpt lat="46.20315" lon="10.4129">
        <ele>1546.782</ele>
        <time>2018-09-15T21:36:45Z</time>
      </trkpt>
      <trkpt lat="46.2031" lon="10.41291">
        <ele>1547.61</ele>
        <time>2018-09-15T21:37:05Z</time>
      </trkpt>
      <trkpt lat="46.2031" lon="10.41291">
        <ele>1547.777</ele>
        <time>2018-09-15T21:37:25Z</time>
      </trkpt>
      <trkpt lat="46.20303" lon="10.41301">
        <ele>1550.121</ele>
        <time>2018-09-15T21:37:45Z</time>
      </trkpt>
      <trkpt lat="46.20296" lon="10.41308">
        <ele>1551.441</ele>
        <time>2018-09-15T21:38:05Z</time>
      </trkpt>
      <trkpt lat="46.20291" lon="10.4131">
        <ele>1552.105</ele>
        <time>2018-09-15T21:38:25Z</time>
      </trkpt>
      <trkpt lat="46.20287" lon="10.41315">
        <ele>1553.508</ele>
        <time>2018-09-15T21:38:45Z</time>
      </trkpt>
      <trkpt lat="46.20285" lon="10.41322">
        <ele>1555.744</ele>
        <time>2018-09-15T21:39:05Z</time>
      </trkpt>
      <trkpt lat="46.20285" lon="10.41328">
        <ele>1557.77</ele>
        <time>2018-09-15T21:39:25Z</time>
      </trkpt>
      <trkpt lat="46.20283" lon="10.41343">
        <ele>1562.797</ele>
        <time>2018-09-15T21:39:45Z</time>
      </trkpt>
      <trkpt lat="46.2029" lon="10.41351">
        <ele>1566.25</ele>
        <time>2018-09-15T21:40:05Z</time>
      </trkpt>
      <trkpt lat="46.2029" lon="10.41352">
        <ele>1566.683</ele>
        <time>2018-09-15T21:40:25Z</time>
      </trkpt>
      <trkpt lat="46.2029" lon="10.4136">
        <ele>1569.446</ele>
        <time>2018-09-15T21:40:45Z</time>
      </trkpt>
      <trkpt lat="46.20284" lon="10.41365">
        <ele>1571.454</ele>
        <time>2018-09-15T21:41:05Z</time>
      </trkpt>
      <trkpt lat="46.20279" lon="10.4137">
        <ele>1574.171</ele>
        <time>2018-09-15T21:41:25Z</time>
      </trkpt>
      <trkpt lat="46.20279" lon="10.41375">
        <ele>1577.087</ele>
        <time>2018-09-15T21:41:45Z</time>
      </trkpt>
      <trkpt lat="46.20283" lon="10.41385">
        <ele>1582.042</ele>
        <time>2018-09-15T21:42:05Z</time>
      </trkpt>
      <trkpt lat="46.20284" lon="10.4139">
        <ele>1584.926</ele>
        <time>2018-09-15T21:42:25Z</time>
      </trkpt>
      <trkpt lat="46.2028" lon="10.41397">
        <ele>1589.808</ele>
        <time>2018-09-15T21:42:45Z</time>
      </trkpt>
      <trkpt lat="46.20283" lon="10.41404">
        <ele>1593.96</ele>
        <time>2018-09-15T21:43:05Z</time>
      </trkpt>
      <trkpt lat="46.20285" lon="10.41412">
        <ele>1598.856</ele>
        <time>2018-09-15T21:43:25Z</time>
      </trkpt>
      <trkpt lat="46.20282" lon="10.41422">
        <ele>1604.843</ele>
        <time>2018-09-15T21:43:45Z</time>
      </trkpt>
      <trkpt lat="46.20274" lon="10.41424">
        <ele>1607.876</ele>
        <time>2018-09-15T21:44:05Z</time>
      </trkpt>
      <trkpt lat="46.20268" lon="10.41426">
        <ele>1609.979</ele>
        <time>2018-09-15T21:44:25Z</time>
      </trkpt>
      <trkpt lat="46.20254" lon="10.41426">
        <ele>1612.122</ele>
        <time>2018-09-15T21:44:45Z</time>
      </trkpt>
      <trkpt lat="46.20242" lon="10.41417">
        <ele>1612.52</ele>
        <time>2018-09-15T21:45:05Z</time>
      </trkpt>
      <trkpt lat="46.2024" lon="10.41417">
        <ele>1613.097</ele>
        <time>2018-09-15T21:45:25Z</time>
      </trkpt>
      <trkpt lat="46.2024" lon="10.41419">
        <ele>1613.991</ele>
        <time>2018-09-15T21:45:45Z</time>
      </trkpt>
      <trkpt lat="46.20238" lon="10.41421">
        <ele>1616.781</ele>
        <time>2018-09-15T21:46:05Z</time>
      </trkpt>
      <trkpt lat="46.20225" lon="10.41418">
        <ele>1621.219</ele>
        <time>2018-09-15T21:46:25Z</time>
      </trkpt>
      <trkpt lat="46.20222" lon="10.41417">
        <ele>1622.308</ele>
        <time>2018-09-15T21:46:45Z</time>
      </trkpt>
      <trkpt lat="46.20222" lon="10.41417">
        <ele>1622.721</ele>
        <time>2018-09-15T21:47:05Z</time>
      </trkpt>
      <trkpt lat="46.20211" lon="10.41419">
        <ele>1630.597</ele>
        <time>2018-09-15T21:47:25Z</time>
      </trkpt>
      <trkpt lat="46.20199" lon="10.41419">
        <ele>1638.244</ele>
        <time>2018-09-15T21:47:45Z</time>
      </trkpt>
      <trkpt lat="46.20186" lon="10.41415">
        <ele>1644.687</ele>
        <time>2018-09-15T21:48:05Z</time>
      </trkpt>
      <trkpt lat="46.20178" lon="10.41415">
        <ele>1649.57</ele>
        <time>2018-09-15T21:48:25Z</time>
      </trkpt>
      <trkpt lat="46.20166" lon="10.41415">
        <ele>1656.743</ele>
        <time>2018-09-15T21:48:45Z</time>
      </trkpt>
      <trkpt lat="46.20152" lon="10.41413">
        <ele>1662.931</ele>
        <time>2018-09-15T21:49:05Z</time>
      </trkpt>
      <trkpt lat="46.20145" lon="10.41405">
        <ele>1662.618</ele>
        <time>2018-09-15T21:49:25Z</time>
      </trkpt>
      <trkpt lat="46.20139" lon="10.41397">
        <ele>1660.418</ele>
        <time>2018-09-15T21:49:45Z</time>
      </trkpt>
      <trkpt lat="46.20135" lon="10.4139">
        <ele>1661.098</ele>
        <time>2018-09-15T21:50:05Z</time>
      </trkpt>
      <trkpt lat="46.20129" lon="10.41381">
        <ele>1664.817</ele>
        <time>2018-09-15T21:50:25Z</time>
      </trkpt>
      <trkpt lat="46.20126" lon="10.41379">
        <ele>1667.308</ele>
        <time>2018-09-15T21:50:45Z</time>
      </trkpt>
      <trkpt lat="46.20119" lon="10.41375">
        <ele>1672.783</ele>
        <time>2018-09-15T21:51:05Z</time>
      </trkpt>
      <trkpt lat="46.20113" lon="10.4137">
        <ele>1677.229</ele>
        <time>2018-09-15T21:51:25Z</time>
      </trkpt>
      <trkpt lat="46.20109" lon="10.41367">
        <ele>1680.356</ele>
        <time>2018-09-15T21:51:45Z</time>
      </trkpt>
      <trkpt lat="46.20107" lon="10.41366">
        <ele>1681.949</ele>
        <time>2018-09-15T21:52:05Z</time>
      </trkpt>
      <trkpt lat="46.20105" lon="10.41365">
        <ele>1683.332</ele>
        <time>2018-09-15T21:52:25Z</time>
      </trkpt>
      <trkpt lat="46.20099" lon="10.41359">
        <ele>1688.975</ele>
        <time>2018-09-15T21:52:45Z</time>
      </trkpt>
      <trkpt lat="46.20098" lon="10.41357">
        <ele>1690.273</ele>
        <time>2018-09-15T21:53:05Z</time>
      </trkpt>
      <trkpt lat="46.20093" lon="10.41349">
        <ele>1695.43</ele>
        <time>2018-09-15T21:53:25Z</time>
      </trkpt>
      <trkpt lat="46.2009" lon="10.41344">
        <ele>1699.188</ele>
        <time>2018-09-15T21:53:45Z</time>
      </trkpt>
      <trkpt lat="46.20081" lon="10.41328">
        <ele>1712.224</ele>
        <time>2018-09-15T21:54:05Z</time>
      </trkpt>
      <trkpt lat="46.20079" lon="10.41328">
        <ele>1713.926</ele>
        <time>2018-09-15T21:54:25Z</time>
      </trkpt>
      <trkpt lat="46.20073" lon="10.41321">
        <ele>1719.908</ele>
        <time>2018-09-15T21:54:45Z</time>
      </trkpt>
      <trkpt lat="46.20067" lon="10.41318">
        <ele>1724.88</ele>
        <time>2018-09-15T21:55:05Z</time>
      </trkpt>
      <trkpt lat="46.20067" lon="10.41318">
        <ele>1725.056</ele>
        <time>2018-09-15T21:55:25Z</time>
      </trkpt>
      <trkpt lat="46.20063" lon="10.41317">
        <ele>1727.913</ele>
        <time>2018-09-15T21:55:45Z</time>
      </trkpt>
      <trkpt lat="46.20062" lon="10.41316">
        <ele>1728.816</ele>
        <time>2018-09-15T21:56:05Z</time>
      </trkpt>
      <trkpt lat="46.2006" lon="10.41316">
        <ele>1730.769</ele>
        <time>2018-09-15T21:56:25Z</time>
      </trkpt>
      <trkpt lat="46.20056" lon="10.41314">
        <ele>1733.142</ele>
        <time>2018-09-15T21:56:45Z</time>
      </trkpt>
      <trkpt lat="46.2005" lon="10.41308">
        <ele>1737.07</ele>
        <time>2018-09-15T21:57:05Z</time>
      </trkpt>
      <trkpt lat="46.20047" lon="10.41306">
        <ele>1738.677</ele>
        <time>2018-09-15T21:57:25Z</time>
      </trkpt>
      <trkpt lat="46.20043" lon="10.41298">
        <ele>1741.638</ele>
        <time>2018-09-15T21:57:45Z</time>
      </trkpt>
      <trkpt lat="46.20042" lon="10.41297">
        <ele>1741.97</ele>
        <time>2018-09-15T21:58:05Z</time>
      </trkpt>
      <trkpt lat="46.2004" lon="10.4129">
        <ele>1743.417</ele>
        <time>2018-09-15T21:58:25Z</time>
      </trkpt>
      <trkpt lat="46.2004" lon="10.41284">
        <ele>1743.308</ele>
        <time>2018-09-15T21:58:45Z</time>
      </trkpt>
      <trkpt lat="46.20037" lon="10.4128">
        <ele>1744.925</ele>
        <time>2018-09-15T21:59:05Z</time>
      </trkpt>
      <trkpt lat="46.20035" lon="10.41278">
        <ele>1746.391</ele>
        <time>2018-09-15T21:59:25Z</time>
      </trkpt>
      <trkpt lat="46.20031" lon="10.41266">
        <ele>1748.058</ele>
        <time>2018-09-15T21:59:45Z</time>
      </trkpt>
      <trkpt lat="46.20027" lon="10.41254">
        <ele>1750.231</ele>
        <time>2018-09-15T22:00:05Z</time>
      </trkpt>
      <trkpt lat="46.20024" lon="10.41251">
        <ele>1751.374</ele>
        <time>2018-09-15T22:00:25Z</time>
      </trkpt>
      <trkpt lat="46.20022" lon="10.41249">
        <ele>1752.287</ele>
        <time>2018-09-15T22:00:45Z</time>
      </trkpt>
      <trkpt lat="46.20018" lon="10.41251">
        <ele>1753.815</ele>
        <time>2018-09-15T22:01:05Z</time>
      </trkpt>
      <trkpt lat="46.20015" lon="10.41251">
        <ele>1755.082</ele>
        <time>2018-09-15T22:01:25Z</time>
      </trkpt>
      <trkpt lat="46.20013" lon="10.41252">
        <ele>1756.092</ele>
        <time>2018-09-15T22:01:45Z</time>
      </trkpt>
      <trkpt lat="46.2001" lon="10.41254">
        <ele>1757.473</ele>
        <time>2018-09-15T22:02:05Z</time>
      </trkpt>
      <trkpt lat="46.20008" lon="10.41257">
        <ele>1758.42</ele>
        <time>2018-09-15T22:02:25Z</time>
      </trkpt>
      <trkpt lat="46.20002" lon="10.41263">
        <ele>1762.108</ele>
        <time>2018-09-15T22:02:45Z</time>
      </trkpt>
      <trkpt lat="46.19995" lon="10.41265">
        <ele>1765.381</ele>
        <time>2018-09-15T22:03:05Z</time>
      </trkpt>
      <trkpt lat="46.19991" lon="10.41267">
        <ele>1767.267</ele>
        <time>2018-09-15T22:03:25Z</time>
      </trkpt>
      <trkpt lat="46.19989" lon="10.4126">
        <ele>1766.854</ele>
        <time>2018-09-15T22:03:45Z</time>
      </trkpt>
      <trkpt lat="46.19985" lon="10.41261">
        <ele>1769.037</ele>
        <time>2018-09-15T22:04:05Z</time>
      </trkpt>
      <trkpt lat="46.19986" lon="10.41268">
        <ele>1769.99</ele>
        <time>2018-09-15T22:04:25Z</time>
      </trkpt>
      <trkpt lat="46.19984" lon="10.4127">
        <ele>1771.063</ele>
        <time>2018-09-15T22:04:45Z</time>
      </trkpt>
      <trkpt lat="46.19982" lon="10.41272">
        <ele>1772.431</ele>
        <time>2018-09-15T22:05:05Z</time>
      </trkpt>
      <trkpt lat="46.19982" lon="10.41281">
        <ele>1774.188</ele>
        <time>2018-09-15T22:05:25Z</time>
      </trkpt>
      <trkpt lat="46.19984" lon="10.41287">
        <ele>1774.629</ele>
        <time>2018-09-15T22:05:45Z</time>
      </trkpt>
      <trkpt lat="46.1998" lon="10.41289">
        <ele>1776.6</ele>
        <time>2018-09-15T22:06:05Z</time>
      </trkpt>
      <trkpt lat="46.19979" lon="10.41295">
        <ele>1778.52</ele>
        <time>2018-09-15T22:06:25Z</time>
      </trkpt>
      <trkpt lat="46.1998" lon="10.41299">
        <ele>1778.808</ele>
        <time>2018-09-15T22:06:45Z</time>
      </trkpt>
      <trkpt lat="46.19979" lon="10.41305">
        <ele>1780.694</ele>
        <time>2018-09-15T22:07:05Z</time>
      </trkpt>
      <trkpt lat="46.19977" lon="10.41311">
        <ele>1783.05</ele>
        <time>2018-09-15T22:07:25Z</time>
      </trkpt>
      <trkpt lat="46.19979" lon="10.41318">
        <ele>1784.127</ele>
        <time>2018-09-15T22:07:45Z</time>
      </trkpt>
      <trkpt lat="46.19982" lon="10.4132">
        <ele>1783.25</ele>
        <time>2018-09-15T22:08:05Z</time>
      </trkpt>
      <trkpt lat="46.19988" lon="10.41323">
        <ele>1780.923</ele>
        <time>2018-09-15T22:08:25Z</time>
      </trkpt>
      <trkpt lat="46.19993" lon="10.41322">
        <ele>1778.246</ele>
        <time>2018-09-15T22:08:45Z</time>
      </trkpt>
      <trkpt lat="46.20001" lon="10.41327">
        <ele>1775.464</ele>
        <time>2018-09-15T22:09:05Z</time>
      </trkpt>
      <trkpt lat="46.19998" lon="10.41339">
        <ele>1781.621</ele>
        <time>2018-09-15T22:09:25Z</time>
      </trkpt>
      <trkpt lat="46.19997" lon="10.41343">
        <ele>1783.734</ele>
        <time>2018-09-15T22:09:45Z</time>
      </trkpt>
      <trkpt lat="46.19989" lon="10.41352">
        <ele>1791.055</ele>
        <time>2018-09-15T22:10:05Z</time>
      </trkpt>
      <trkpt lat="46.19986" lon="10.41353">
        <ele>1793.11</ele>
        <time>2018-09-15T22:10:25Z</time>
      </trkpt>
      <trkpt lat="46.19975" lon="10.41358">
        <ele>1798.908</ele>
        <time>2018-09-15T22:10:45Z</time>
      </trkpt>
      <trkpt lat="46.19975" lon="10.41359">
        <ele>1799.285</ele>
        <time>2018-09-15T22:11:05Z</time>
      </trkpt>
      <trkpt lat="46.19973" lon="10.41358">
        <ele>1799.791</ele>
        <time>2018-09-15T22:11:25Z</time>
      </trkpt>
      <trkpt lat="46.19971" lon="10.41358">
        <ele>1800.128</ele>
        <time>2018-09-15T22:11:45Z</time>
      </trkpt>
      <trkpt lat="46.1997" lon="10.41358">
        <ele>1800.261</ele>
        <time>2018-09-15T22:12:05Z</time>
      </trkpt>
      <trkpt lat="46.19967" lon="10.41359">
        <ele>1801.064</ele>
        <time>2018-09-15T22:12:25Z</time>
      </trkpt>
      <trkpt lat="46.19962" lon="10.41357">
        <ele>1801.347</ele>
        <time>2018-09-15T22:12:45Z</time>
      </trkpt>
      <trkpt lat="46.19961" lon="10.41356">
        <ele>1801.345</ele>
        <time>2018-09-15T22:13:05Z</time>
      </trkpt>
      <trkpt lat="46.19949" lon="10.41354">
        <ele>1802.972</ele>
        <time>2018-09-15T22:13:25Z</time>
      </trkpt>
      <trkpt lat="46.19946" lon="10.41354">
        <ele>1803.577</ele>
        <time>2018-09-15T22:13:45Z</time>
      </trkpt>
      <trkpt lat="46.19924" lon="10.4138">
        <ele>1812.461</ele>
        <time>2018-09-15T22:14:05Z</time>
      </trkpt>
      <trkpt lat="46.19912" lon="10.41386">
        <ele>1815.927</ele>
        <time>2018-09-15T22:14:25Z</time>
      </trkpt>
      <trkpt lat="46.199" lon="10.4139">
        <ele>1817.908</ele>
        <time>2018-09-15T22:14:45Z</time>
      </trkpt>
      <trkpt lat="46.19899" lon="10.41398">
        <ele>1819.049</ele>
        <time>2018-09-15T22:15:05Z</time>
      </trkpt>
      <trkpt lat="46.19895" lon="10.41392">
        <ele>1818.675</ele>
        <time>2018-09-15T22:15:25Z</time>
      </trkpt>
      <trkpt lat="46.1989" lon="10.41404">
        <ele>1820.512</ele>
        <time>2018-09-15T22:15:45Z</time>
      </trkpt>
      <trkpt lat="46.19888" lon="10.41402">
        <ele>1820.415</ele>
        <time>2018-09-15T22:16:05Z</time>
      </trkpt>
      <trkpt lat="46.19895" lon="10.41412">
        <ele>1820.918</ele>
        <time>2018-09-15T22:16:25Z</time>
      </trkpt>
      <trkpt lat="46.19904" lon="10.41413">
        <ele>1820.481</ele>
        <time>2018-09-15T22:16:45Z</time>
      </trkpt>
      <trkpt lat="46.19916" lon="10.41418">
        <ele>1820.369</ele>
        <time>2018-09-15T22:17:05Z</time>
      </trkpt>
      <trkpt lat="46.19924" lon="10.41421">
        <ele>1819.826</ele>
        <time>2018-09-15T22:17:25Z</time>
      </trkpt>
      <trkpt lat="46.19936" lon="10.41418">
        <ele>1817.688</ele>
        <time>2018-09-15T22:17:45Z</time>
      </trkpt>
      <trkpt lat="46.19942" lon="10.41427">
        <ele>1818.424</ele>
        <time>2018-09-15T22:18:05Z</time>
      </trkpt>
      <trkpt lat="46.19941" lon="10.41448">
        <ele>1823.226</ele>
        <time>2018-09-15T22:18:25Z</time>
      </trkpt>
      <trkpt lat="46.19932" lon="10.41454">
        <ele>1825.608</ele>
        <time>2018-09-15T22:18:45Z</time>
      </trkpt>
      <trkpt lat="46.19922" lon="10.41464">
        <ele>1828.89</ele>
        <time>2018-09-15T22:19:05Z</time>
      </trkpt>
      <trkpt lat="46.19919" lon="10.41471">
        <ele>1830.616</ele>
        <time>2018-09-15T22:19:25Z</time>
      </trkpt>
      <trkpt lat="46.19917" lon="10.41478">
        <ele>1832.423</ele>
        <time>2018-09-15T22:19:45Z</time>
      </trkpt>
      <trkpt lat="46.1991" lon="10.41496">
        <ele>1836.916</ele>
        <time>2018-09-15T22:20:05Z</time>
      </trkpt>
      <trkpt lat="46.19907" lon="10.41504">
        <ele>1838.979</ele>
        <time>2018-09-15T22:20:25Z</time>
      </trkpt>
      <trkpt lat="46.19903" lon="10.41519">
        <ele>1842.822</ele>
        <time>2018-09-15T22:20:45Z</time>
      </trkpt>
      <trkpt lat="46.19899" lon="10.41541">
        <ele>1848.16</ele>
        <time>2018-09-15T22:21:05Z</time>
      </trkpt>
      <trkpt lat="46.19896" lon="10.41553">
        <ele>1850.737</ele>
        <time>2018-09-15T22:21:25Z</time>
      </trkpt>
      <trkpt lat="46.19894" lon="10.41563">
        <ele>1853.451</ele>
        <time>2018-09-15T22:21:45Z</time>
      </trkpt>
      <trkpt lat="46.19888" lon="10.41575">
        <ele>1856.001</ele>
        <time>2018-09-15T22:22:05Z</time>
      </trkpt>
      <trkpt lat="46.19878" lon="10.41587">
        <ele>1860.511</ele>
        <time>2018-09-15T22:22:25Z</time>
      </trkpt>
      <trkpt lat="46.19872" lon="10.41595">
        <ele>1863.508</ele>
        <time>2018-09-15T22:22:45Z</time>
      </trkpt>
      <trkpt lat="46.19869" lon="10.41597">
        <ele>1864.437</ele>
        <time>2018-09-15T22:23:05Z</time>
      </trkpt>
      <trkpt lat="46.19869" lon="10.4161">
        <ele>1867.933</ele>
        <time>2018-09-15T22:23:25Z</time>
      </trkpt>
      <trkpt lat="46.19867" lon="10.4162">
        <ele>1870.65</ele>
        <time>2018-09-15T22:23:45Z</time>
      </trkpt>
      <trkpt lat="46.1987" lon="10.41625">
        <ele>1871.433</ele>
        <time>2018-09-15T22:24:05Z</time>
      </trkpt>
      <trkpt lat="46.19873" lon="10.41639">
        <ele>1874.726</ele>
        <time>2018-09-15T22:24:25Z</time>
      </trkpt>
      <trkpt lat="46.19874" lon="10.41649">
        <ele>1877.289</ele>
        <time>2018-09-15T22:24:45Z</time>
      </trkpt>
      <trkpt lat="46.19874" lon="10.41655">
        <ele>1878.867</ele>
        <time>2018-09-15T22:25:05Z</time>
      </trkpt>
      <trkpt lat="46.19876" lon="10.41665">
        <ele>1881.554</ele>
        <time>2018-09-15T22:25:25Z</time>
      </trkpt>
      <trkpt lat="46.19877" lon="10.41677">
        <ele>1885.421</ele>
        <time>2018-09-15T22:25:45Z</time>
      </trkpt>
      <trkpt lat="46.19875" lon="10.41682">
        <ele>1887.041</ele>
        <time>2018-09-15T22:26:05Z</time>
      </trkpt>
      <trkpt lat="46.19868" lon="10.4168">
        <ele>1886.405</ele>
        <time>2018-09-15T22:26:25Z</time>
      </trkpt>
      <trkpt lat="46.19864" lon="10.41674">
        <ele>1884.808</ele>
        <time>2018-09-15T22:26:45Z</time>
      </trkpt>
      <trkpt lat="46.1986" lon="10.41657">
        <ele>1881.074</ele>
        <time>2018-09-15T22:27:05Z</time>
      </trkpt>
      <trkpt lat="46.19855" lon="10.41645">
        <ele>1881.23</ele>
        <time>2018-09-15T22:27:25Z</time>
      </trkpt>
      <trkpt lat="46.19846" lon="10.41638">
        <ele>1884.867</ele>
        <time>2018-09-15T22:27:45Z</time>
      </trkpt>
      <trkpt lat="46.19838" lon="10.4163">
        <ele>1886.93</ele>
        <time>2018-09-15T22:28:05Z</time>
      </trkpt>
      <trkpt lat="46.19831" lon="10.41612">
        <ele>1886.843</ele>
        <time>2018-09-15T22:28:25Z</time>
      </trkpt>
      <trkpt lat="46.1982" lon="10.4159">
        <ele>1889.196</ele>
        <time>2018-09-15T22:28:45Z</time>
      </trkpt>
      <trkpt lat="46.1981" lon="10.41572">
        <ele>1895.054</ele>
        <time>2018-09-15T22:29:05Z</time>
      </trkpt>
      <trkpt lat="46.19805" lon="10.41569">
        <ele>1898.771</ele>
        <time>2018-09-15T22:29:25Z</time>
      </trkpt>
      <trkpt lat="46.19798" lon="10.41566">
        <ele>1901.943</ele>
        <time>2018-09-15T22:29:45Z</time>
      </trkpt>
      <trkpt lat="46.19783" lon="10.41554">
        <ele>1908.264</ele>
        <time>2018-09-15T22:30:05Z</time>
      </trkpt>
      <trkpt lat="46.19783" lon="10.41554">
        <ele>1908.21</ele>
        <time>2018-09-15T22:30:25Z</time>
      </trkpt>
      <trkpt lat="46.19781" lon="10.4155">
        <ele>1908.108</ele>
        <time>2018-09-15T22:30:45Z</time>
      </trkpt>
      <trkpt lat="46.19775" lon="10.41528">
        <ele>1908.166</ele>
        <time>2018-09-15T22:31:05Z</time>
      </trkpt>
      <trkpt lat="46.19773" lon="10.41526">
        <ele>1909.212</ele>
        <time>2018-09-15T22:31:25Z</time>
      </trkpt>
      <trkpt lat="46.19763" lon="10.4151">
        <ele>1914.959</ele>
        <time>2018-09-15T22:31:45Z</time>
      </trkpt>
      <trkpt lat="46.19755" lon="10.41497">
        <ele>1919.572</ele>
        <time>2018-09-15T22:32:05Z</time>
      </trkpt>
      <trkpt lat="46.19705" lon="10.41429">
        <ele>1921.365</ele>
        <time>2018-09-15T22:32:25Z</time>
      </trkpt>
      <trkpt lat="46.19698" lon="10.41422">
        <ele>1923.058</ele>
        <time>2018-09-15T22:32:45Z</time>
      </trkpt>
      <trkpt lat="46.19693" lon="10.41417">
        <ele>1925.596</ele>
        <time>2018-09-15T22:33:05Z</time>
      </trkpt>
      <trkpt lat="46.19683" lon="10.41408">
        <ele>1925.223</ele>
        <time>2018-09-15T22:33:25Z</time>
      </trkpt>
      <trkpt lat="46.19675" lon="10.41401">
        <ele>1926.067</ele>
        <time>2018-09-15T22:33:45Z</time>
      </trkpt>
      <trkpt lat="46.19668" lon="10.41403">
        <ele>1929.781</ele>
        <time>2018-09-15T22:34:05Z</time>
      </trkpt>
      <trkpt lat="46.19667" lon="10.41403">
        <ele>1929.919</ele>
        <time>2018-09-15T22:34:25Z</time>
      </trkpt>
      <trkpt lat="46.1966" lon="10.41406">
        <ele>1933.008</ele>
        <time>2018-09-15T22:34:45Z</time>
      </trkpt>
      <trkpt lat="46.19654" lon="10.41401">
        <ele>1933.398</ele>
        <time>2018-09-15T22:35:05Z</time>
      </trkpt>
      <trkpt lat="46.19654" lon="10.41401">
        <ele>1933.224</ele>
        <time>2018-09-15T22:35:25Z</time>
      </trkpt>
      <trkpt lat="46.1965" lon="10.41389">
        <ele>1930.941</ele>
        <time>2018-09-15T22:35:45Z</time>
      </trkpt>
      <trkpt lat="46.19649" lon="10.41388">
        <ele>1930.754</ele>
        <time>2018-09-15T22:36:05Z</time>
      </trkpt>
      <trkpt lat="46.19621" lon="10.41406">
        <ele>1936.617</ele>
        <time>2018-09-15T22:36:25Z</time>
      </trkpt>
      <trkpt lat="46.19617" lon="10.41411">
        <ele>1937.49</ele>
        <time>2018-09-15T22:36:45Z</time>
      </trkpt>
      <trkpt lat="46.19608" lon="10.4142">
        <ele>1937.778</ele>
        <time>2018-09-15T22:37:05Z</time>
      </trkpt>
      <trkpt lat="46.19602" lon="10.41423">
        <ele>1935.755</ele>
        <time>2018-09-15T22:37:25Z</time>
      </trkpt>
      <trkpt lat="46.19595" lon="10.41424">
        <ele>1932.811</ele>
        <time>2018-09-15T22:37:45Z</time>
      </trkpt>
      <trkpt lat="46.19586" lon="10.41433">
        <ele>1932.221</ele>
        <time>2018-09-15T22:38:05Z</time>
      </trkpt>
      <trkpt lat="46.1958" lon="10.41436">
        <ele>1930.603</ele>
        <time>2018-09-15T22:38:25Z</time>
      </trkpt>
      <trkpt lat="46.19572" lon="10.41432">
        <ele>1926.708</ele>
        <time>2018-09-15T22:38:45Z</time>
      </trkpt>
      <trkpt lat="46.19565" lon="10.41437">
        <ele>1925.833</ele>
        <time>2018-09-15T22:39:05Z</time>
      </trkpt>
      <trkpt lat="46.19559" lon="10.41439">
        <ele>1923.649</ele>
        <time>2018-09-15T22:39:25Z</time>
      </trkpt>
      <trkpt lat="46.19551" lon="10.41436">
        <ele>1922.356</ele>
        <time>2018-09-15T22:39:45Z</time>
      </trkpt>
      <trkpt lat="46.19536" lon="10.41437">
        <ele>1923.229</ele>
        <time>2018-09-15T22:40:05Z</time>
      </trkpt>
      <trkpt lat="46.19528" lon="10.41435">
        <ele>1923.372</ele>
        <time>2018-09-15T22:40:25Z</time>
      </trkpt>
      <trkpt lat="46.19523" lon="10.41435">
        <ele>1923.355</ele>
        <time>2018-09-15T22:40:45Z</time>
      </trkpt>
      <trkpt lat="46.19515" lon="10.41437">
        <ele>1923.843</ele>
        <time>2018-09-15T22:41:05Z</time>
      </trkpt>
      <trkpt lat="46.195" lon="10.4144">
        <ele>1924.43</ele>
        <time>2018-09-15T22:41:25Z</time>
      </trkpt>
      <trkpt lat="46.19492" lon="10.41435">
        <ele>1923.617</ele>
        <time>2018-09-15T22:41:45Z</time>
      </trkpt>
      <trkpt lat="46.19483" lon="10.41432">
        <ele>1923.087</ele>
        <time>2018-09-15T22:42:05Z</time>
      </trkpt>
      <trkpt lat="46.19478" lon="10.41436">
        <ele>1923.315</ele>
        <time>2018-09-15T22:42:25Z</time>
      </trkpt>
      <trkpt lat="46.19465" lon="10.41448">
        <ele>1925.208</ele>
        <time>2018-09-15T22:42:45Z</time>
      </trkpt>
      <trkpt lat="46.19458" lon="10.41452">
        <ele>1926.193</ele>
        <time>2018-09-15T22:43:05Z</time>
      </trkpt>
      <trkpt lat="46.19451" lon="10.41451">
        <ele>1925.429</ele>
        <time>2018-09-15T22:43:25Z</time>
      </trkpt>
      <trkpt lat="46.19445" lon="10.41453">
        <ele>1925.476</ele>
        <time>2018-09-15T22:43:45Z</time>
      </trkpt>
      <trkpt lat="46.19436" lon="10.41459">
        <ele>1925.999</ele>
        <time>2018-09-15T22:44:05Z</time>
      </trkpt>
      <trkpt lat="46.19428" lon="10.41464">
        <ele>1926.392</ele>
        <time>2018-09-15T22:44:25Z</time>
      </trkpt>
      <trkpt lat="46.19421" lon="10.41468">
        <ele>1926.595</ele>
        <time>2018-09-15T22:44:45Z</time>
      </trkpt>
      <trkpt lat="46.19408" lon="10.41474">
        <ele>1925.743</ele>
        <time>2018-09-15T22:45:05Z</time>
      </trkpt>
      <trkpt lat="46.19403" lon="10.41477">
        <ele>1925.15</ele>
        <time>2018-09-15T22:45:25Z</time>
      </trkpt>
      <trkpt lat="46.19398" lon="10.41488">
        <ele>1925.578</ele>
        <time>2018-09-15T22:45:45Z</time>
      </trkpt>
      <trkpt lat="46.19391" lon="10.41495">
        <ele>1924.933</ele>
        <time>2018-09-15T22:46:05Z</time>
      </trkpt>
      <trkpt lat="46.19385" lon="10.415">
        <ele>1924.326</ele>
        <time>2018-09-15T22:46:25Z</time>
      </trkpt>
      <trkpt lat="46.1938" lon="10.41509">
        <ele>1924.608</ele>
        <time>2018-09-15T22:46:45Z</time>
      </trkpt>
      <trkpt lat="46.19373" lon="10.41521">
        <ele>1924.539</ele>
        <time>2018-09-15T22:47:05Z</time>
      </trkpt>
      <trkpt lat="46.19371" lon="10.41535">
        <ele>1925.585</ele>
        <time>2018-09-15T22:47:25Z</time>
      </trkpt>
      <trkpt lat="46.1937" lon="10.41545">
        <ele>1926.552</ele>
        <time>2018-09-15T22:47:45Z</time>
      </trkpt>
      <trkpt lat="46.19366" lon="10.4155">
        <ele>1926.435</ele>
        <time>2018-09-15T22:48:05Z</time>
      </trkpt>
      <trkpt lat="46.1937" lon="10.41559">
        <ele>1928.268</ele>
        <time>2018-09-15T22:48:25Z</time>
      </trkpt>
      <trkpt lat="46.19369" lon="10.41578">
        <ele>1930.541</ele>
        <time>2018-09-15T22:48:45Z</time>
      </trkpt>
      <trkpt lat="46.19377" lon="10.41614">
        <ele>1937.239</ele>
        <time>2018-09-15T22:49:05Z</time>
      </trkpt>
      <trkpt lat="46.19375" lon="10.41637">
        <ele>1940.366</ele>
        <time>2018-09-15T22:49:25Z</time>
      </trkpt>
      <trkpt lat="46.19368" lon="10.41653">
        <ele>1939.157</ele>
        <time>2018-09-15T22:49:45Z</time>
      </trkpt>
      <trkpt lat="46.19362" lon="10.41681">
        <ele>1939.4</ele>
        <time>2018-09-15T22:50:05Z</time>
      </trkpt>
      <trkpt lat="46.19343" lon="10.4172">
        <ele>1940.52</ele>
        <time>2018-09-15T22:50:25Z</time>
      </trkpt>
      <trkpt lat="46.19337" lon="10.41742">
        <ele>1941.708</ele>
        <time>2018-09-15T22:50:45Z</time>
      </trkpt>
      <trkpt lat="46.19329" lon="10.41773">
        <ele>1943.947</ele>
        <time>2018-09-15T22:51:05Z</time>
      </trkpt>
      <trkpt lat="46.19309" lon="10.41788">
        <ele>1943.433</ele>
        <time>2018-09-15T22:51:25Z</time>
      </trkpt>
      <trkpt lat="46.19295" lon="10.41797">
        <ele>1943.83</ele>
        <time>2018-09-15T22:51:45Z</time>
      </trkpt>
      <trkpt lat="46.19276" lon="10.41797">
        <ele>1943.493</ele>
        <time>2018-09-15T22:52:05Z</time>
      </trkpt>
      <trkpt lat="46.19271" lon="10.41797">
        <ele>1943.616</ele>
        <time>2018-09-15T22:52:25Z</time>
      </trkpt>
      <trkpt lat="46.19237" lon="10.41802">
        <ele>1945.339</ele>
        <time>2018-09-15T22:52:45Z</time>
      </trkpt>
      <trkpt lat="46.19215" lon="10.41806">
        <ele>1946.537</ele>
        <time>2018-09-15T22:53:05Z</time>
      </trkpt>
      <trkpt lat="46.19194" lon="10.4181">
        <ele>1948.154</ele>
        <time>2018-09-15T22:53:25Z</time>
      </trkpt>
      <trkpt lat="46.19177" lon="10.41816">
        <ele>1948.752</ele>
        <time>2018-09-15T22:53:45Z</time>
      </trkpt>
      <trkpt lat="46.19158" lon="10.41823">
        <ele>1949.053</ele>
        <time>2018-09-15T22:54:05Z</time>
      </trkpt>
      <trkpt lat="46.19134" lon="10.41827">
        <ele>1949.108</ele>
        <time>2018-09-15T22:54:25Z</time>
      </trkpt>
      <trkpt lat="46.19112" lon="10.41822">
        <ele>1949.508</ele>
        <time>2018-09-15T22:54:45Z</time>
      </trkpt>
      <trkpt lat="46.19104" lon="10.41806">
        <ele>1949.067</ele>
        <time>2018-09-15T22:55:05Z</time>
      </trkpt>
      <trkpt lat="46.19107" lon="10.41787">
        <ele>1949.093</ele>
        <time>2018-09-15T22:55:25Z</time>
      </trkpt>
      <trkpt lat="46.19109" lon="10.41759">
        <ele>1949.08</ele>
        <time>2018-09-15T22:55:45Z</time>
      </trkpt>
      <trkpt lat="46.19104" lon="10.41746">
        <ele>1949.023</ele>
        <time>2018-09-15T22:56:05Z</time>
      </trkpt>
      <trkpt lat="46.19091" lon="10.41741">
        <ele>1949.026</ele>
        <time>2018-09-15T22:56:25Z</time>
      </trkpt>
      <trkpt lat="46.19082" lon="10.41748">
        <ele>1949.099</ele>
        <time>2018-09-15T22:56:45Z</time>
      </trkpt>
      <trkpt lat="46.19071" lon="10.41756">
        <ele>1949.037</ele>
        <time>2018-09-15T22:57:05Z</time>
      </trkpt>
      <trkpt lat="46.19042" lon="10.41764">
        <ele>1949.074</ele>
        <time>2018-09-15T22:57:25Z</time>
      </trkpt>
      <trkpt lat="46.19024" lon="10.41775">
        <ele>1949.089</ele>
        <time>2018-09-15T22:57:45Z</time>
      </trkpt>
      <trkpt lat="46.18991" lon="10.41793">
        <ele>1949.506</ele>
        <time>2018-09-15T22:58:05Z</time>
      </trkpt>
      <trkpt lat="46.18977" lon="10.41793">
        <ele>1949.526</ele>
        <time>2018-09-15T22:58:25Z</time>
      </trkpt>
      <trkpt lat="46.18959" lon="10.41809">
        <ele>1950.008</ele>
        <time>2018-09-15T22:58:45Z</time>
      </trkpt>
      <trkpt lat="46.18948" lon="10.41819">
        <ele>1950.09</ele>
        <time>2018-09-15T22:59:05Z</time>
      </trkpt>
      <trkpt lat="46.1892" lon="10.41817">
        <ele>1950.016</ele>
        <time>2018-09-15T22:59:25Z</time>
      </trkpt>
      <trkpt lat="46.18918" lon="10.41791">
        <ele>1949.463</ele>
        <time>2018-09-15T22:59:45Z</time>
      </trkpt>
      <trkpt lat="46.18893" lon="10.41795">
        <ele>1952.066</ele>
        <time>2018-09-15T23:00:05Z</time>
      </trkpt>
      <trkpt lat="46.18883" lon="10.41798">
        <ele>1953.169</ele>
        <time>2018-09-15T23:00:25Z</time>
      </trkpt>
      <trkpt lat="46.18867" lon="10.41799">
        <ele>1955.952</ele>
        <time>2018-09-15T23:00:45Z</time>
      </trkpt>
      <trkpt lat="46.18854" lon="10.41793">
        <ele>1958.45</ele>
        <time>2018-09-15T23:01:05Z</time>
      </trkpt>
      <trkpt lat="46.18819" lon="10.4178">
        <ele>1962.887</ele>
        <time>2018-09-15T23:01:25Z</time>
      </trkpt>
      <trkpt lat="46.18819" lon="10.41779">
        <ele>1962.896</ele>
        <time>2018-09-15T23:01:45Z</time>
      </trkpt>
      <trkpt lat="46.18802" lon="10.41774">
        <ele>1964.631</ele>
        <time>2018-09-15T23:02:05Z</time>
      </trkpt>
      <trkpt lat="46.18797" lon="10.41773">
        <ele>1964.924</ele>
        <time>2018-09-15T23:02:25Z</time>
      </trkpt>
      <trkpt lat="46.18763" lon="10.41766">
        <ele>1967.508</ele>
        <time>2018-09-15T23:02:45Z</time>
      </trkpt>
      <trkpt lat="46.18746" lon="10.41773">
        <ele>1967.721</ele>
        <time>2018-09-15T23:03:05Z</time>
      </trkpt>
      <trkpt lat="46.18728" lon="10.41776">
        <ele>1968.687</ele>
        <time>2018-09-15T23:03:25Z</time>
      </trkpt>
      <trkpt lat="46.187" lon="10.41791">
        <ele>1969.184</ele>
        <time>2018-09-15T23:03:45Z</time>
      </trkpt>
      <trkpt lat="46.1868" lon="10.41788">
        <ele>1970.647</ele>
        <time>2018-09-15T23:04:05Z</time>
      </trkpt>
      <trkpt lat="46.18653" lon="10.41781">
        <ele>1972.84</ele>
        <time>2018-09-15T23:04:25Z</time>
      </trkpt>
      <trkpt lat="46.18637" lon="10.41781">
        <ele>1973.933</ele>
        <time>2018-09-15T23:04:45Z</time>
      </trkpt>
      <trkpt lat="46.1862" lon="10.41796">
        <ele>1974.071</ele>
        <time>2018-09-15T23:05:05Z</time>
      </trkpt>
      <trkpt lat="46.1861" lon="10.41808">
        <ele>1974.048</ele>
        <time>2018-09-15T23:05:25Z</time>
      </trkpt>
      <trkpt lat="46.18597" lon="10.41817">
        <ele>1975.759</ele>
        <time>2018-09-15T23:05:45Z</time>
      </trkpt>
      <trkpt lat="46.18584" lon="10.41825">
        <ele>1979.103</ele>
        <time>2018-09-15T23:06:05Z</time>
      </trkpt>
      <trkpt lat="46.18577" lon="10.41825">
        <ele>1981.323</ele>
        <time>2018-09-15T23:06:25Z</time>
      </trkpt>
      <trkpt lat="46.18571" lon="10.41825">
        <ele>1983.608</ele>
        <time>2018-09-15T23:06:45Z</time>
      </trkpt>
      <trkpt lat="46.18565" lon="10.41825">
        <ele>1986.047</ele>
        <time>2018-09-15T23:07:05Z</time>
      </trkpt>
      <trkpt lat="46.18559" lon="10.41825">
        <ele>1988.153</ele>
        <time>2018-09-15T23:07:25Z</time>
      </trkpt>
      <trkpt lat="46.18549" lon="10.41823">
        <ele>1991.14</ele>
        <time>2018-09-15T23:07:45Z</time>
      </trkpt>
      <trkpt lat="46.18544" lon="10.41825">
        <ele>1992.493</ele>
        <time>2018-09-15T23:08:05Z</time>
      </trkpt>
      <trkpt lat="46.18538" lon="10.41824">
        <ele>1994.016</ele>
        <time>2018-09-15T23:08:25Z</time>
      </trkpt>
      <trkpt lat="46.18531" lon="10.41828">
        <ele>1995.269</ele>
        <time>2018-09-15T23:08:45Z</time>
      </trkpt>
      <trkpt lat="46.18524" lon="10.41832">
        <ele>1995.797</ele>
        <time>2018-09-15T23:09:05Z</time>
      </trkpt>
      <trkpt lat="46.18517" lon="10.41833">
        <ele>1996.674</ele>
        <time>2018-09-15T23:09:25Z</time>
      </trkpt>
      <trkpt lat="46.18504" lon="10.41835">
        <ele>1998.289</ele>
        <time>2018-09-15T23:09:45Z</time>
      </trkpt>
      <trkpt lat="46.18494" lon="10.41837">
        <ele>2000.806</ele>
        <time>2018-09-15T23:10:05Z</time>
      </trkpt>
      <trkpt lat="46.18488" lon="10.41843">
        <ele>2002.326</ele>
        <time>2018-09-15T23:10:25Z</time>
      </trkpt>
      <trkpt lat="46.18476" lon="10.41852">
        <ele>2004.508</ele>
        <time>2018-09-15T23:10:45Z</time>
      </trkpt>
      <trkpt lat="46.18466" lon="10.41854">
        <ele>2007.08</ele>
        <time>2018-09-15T23:11:05Z</time>
      </trkpt>
      <trkpt lat="46.18452" lon="10.41861">
        <ele>2009.926</ele>
        <time>2018-09-15T23:11:25Z</time>
      </trkpt>
      <trkpt lat="46.18432" lon="10.41871">
        <ele>2015.023</ele>
        <time>2018-09-15T23:11:45Z</time>
      </trkpt>
      <trkpt lat="46.18427" lon="10.41869">
        <ele>2016.596</ele>
        <time>2018-09-15T23:12:05Z</time>
      </trkpt>
      <trkpt lat="46.18423" lon="10.4187">
        <ele>2017.439</ele>
        <time>2018-09-15T23:12:25Z</time>
      </trkpt>
      <trkpt lat="46.1842" lon="10.41871">
        <ele>2018.422</ele>
        <time>2018-09-15T23:12:45Z</time>
      </trkpt>
      <trkpt lat="46.18415" lon="10.41872">
        <ele>2019.58</ele>
        <time>2018-09-15T23:13:05Z</time>
      </trkpt>
      <trkpt lat="46.1841" lon="10.41876">
        <ele>2020.077</ele>
        <time>2018-09-15T23:13:25Z</time>
      </trkpt>
      <trkpt lat="46.18401" lon="10.41877">
        <ele>2021.752</ele>
        <time>2018-09-15T23:13:45Z</time>
      </trkpt>
      <trkpt lat="46.18395" lon="10.41878">
        <ele>2022.653</ele>
        <time>2018-09-15T23:14:05Z</time>
      </trkpt>
      <trkpt lat="46.18391" lon="10.4188">
        <ele>2023.308</ele>
        <time>2018-09-15T23:14:25Z</time>
      </trkpt>
      <trkpt lat="46.18377" lon="10.41882">
        <ele>2028.608</ele>
        <time>2018-09-15T23:14:45Z</time>
      </trkpt>
      <trkpt lat="46.18372" lon="10.41881">
        <ele>2031.017</ele>
        <time>2018-09-15T23:15:05Z</time>
      </trkpt>
      <trkpt lat="46.18368" lon="10.41884">
        <ele>2032.033</ele>
        <time>2018-09-15T23:15:25Z</time>
      </trkpt>
      <trkpt lat="46.18366" lon="10.41883">
        <ele>2033.27</ele>
        <time>2018-09-15T23:15:45Z</time>
      </trkpt>
      <trkpt lat="46.18364" lon="10.41877">
        <ele>2035.333</ele>
        <time>2018-09-15T23:16:05Z</time>
      </trkpt>
      <trkpt lat="46.18354" lon="10.4187">
        <ele>2039.766</ele>
        <time>2018-09-15T23:16:25Z</time>
      </trkpt>
      <trkpt lat="46.1835" lon="10.4187">
        <ele>2040.559</ele>
        <time>2018-09-15T23:16:45Z</time>
      </trkpt>
      <trkpt lat="46.18345" lon="10.41868">
        <ele>2042.087</ele>
        <time>2018-09-15T23:17:05Z</time>
      </trkpt>
      <trkpt lat="46.1834" lon="10.41865">
        <ele>2043.524</ele>
        <time>2018-09-15T23:17:25Z</time>
      </trkpt>
      <trkpt lat="46.18332" lon="10.41864">
        <ele>2045.659</ele>
        <time>2018-09-15T23:17:45Z</time>
      </trkpt>
      <trkpt lat="46.18333" lon="10.41855">
        <ele>2047.303</ele>
        <time>2018-09-15T23:18:05Z</time>
      </trkpt>
      <trkpt lat="46.18331" lon="10.41847">
        <ele>2049.623</ele>
        <time>2018-09-15T23:18:25Z</time>
      </trkpt>
      <trkpt lat="46.18327" lon="10.41842">
        <ele>2051.808</ele>
        <time>2018-09-15T23:18:45Z</time>
      </trkpt>
      <trkpt lat="46.18325" lon="10.4184">
        <ele>2052.927</ele>
        <time>2018-09-15T23:19:05Z</time>
      </trkpt>
      <trkpt lat="46.18323" lon="10.41835">
        <ele>2054.483</ele>
        <time>2018-09-15T23:19:25Z</time>
      </trkpt>
      <trkpt lat="46.18318" lon="10.41835">
        <ele>2055.82</ele>
        <time>2018-09-15T23:19:45Z</time>
      </trkpt>
      <trkpt lat="46.18317" lon="10.41834">
        <ele>2056.533</ele>
        <time>2018-09-15T23:20:05Z</time>
      </trkpt>
      <trkpt lat="46.18313" lon="10.41827">
        <ele>2060.156</ele>
        <time>2018-09-15T23:20:25Z</time>
      </trkpt>
      <trkpt lat="46.18309" lon="10.41826">
        <ele>2062.029</ele>
        <time>2018-09-15T23:20:45Z</time>
      </trkpt>
      <trkpt lat="46.18304" lon="10.41826">
        <ele>2063.377</ele>
        <time>2018-09-15T23:21:05Z</time>
      </trkpt>
      <trkpt lat="46.18297" lon="10.41825">
        <ele>2066.064</ele>
        <time>2018-09-15T23:21:25Z</time>
      </trkpt>
      <trkpt lat="46.18307" lon="10.41812">
        <ele>2067.953</ele>
        <time>2018-09-15T23:21:45Z</time>
      </trkpt>
      <trkpt lat="46.1831" lon="10.41807">
        <ele>2068.604</ele>
        <time>2018-09-15T23:22:05Z</time>
      </trkpt>
      <trkpt lat="46.18317" lon="10.41799">
        <ele>2069.314</ele>
        <time>2018-09-15T23:22:25Z</time>
      </trkpt>
      <trkpt lat="46.1832" lon="10.4179">
        <ele>2071.408</ele>
        <time>2018-09-15T23:22:45Z</time>
      </trkpt>
      <trkpt lat="46.18316" lon="10.41788">
        <ele>2073.557</ele>
        <time>2018-09-15T23:23:05Z</time>
      </trkpt>
      <trkpt lat="46.18312" lon="10.41788">
        <ele>2075.053</ele>
        <time>2018-09-15T23:23:25Z</time>
      </trkpt>
      <trkpt lat="46.18313" lon="10.41782">
        <ele>2076.75</ele>
        <time>2018-09-15T23:23:45Z</time>
      </trkpt>
      <trkpt lat="46.18308" lon="10.4178">
        <ele>2078.543</ele>
        <time>2018-09-15T23:24:05Z</time>
      </trkpt>
      <trkpt lat="46.18303" lon="10.4178">
        <ele>2079.876</ele>
        <time>2018-09-15T23:24:25Z</time>
      </trkpt>
      <trkpt lat="46.18308" lon="10.41773">
        <ele>2081.849</ele>
        <time>2018-09-15T23:24:45Z</time>
      </trkpt>
      <trkpt lat="46.18306" lon="10.41769">
        <ele>2084.187</ele>
        <time>2018-09-15T23:25:05Z</time>
      </trkpt>
      <trkpt lat="46.18303" lon="10.41771">
        <ele>2083.864</ele>
        <time>2018-09-15T23:25:25Z</time>
      </trkpt>
      <trkpt lat="46.18299" lon="10.41772">
        <ele>2083.724</ele>
        <time>2018-09-15T23:25:45Z</time>
      </trkpt>
      <trkpt lat="46.18298" lon="10.41766">
        <ele>2086.604</ele>
        <time>2018-09-15T23:26:05Z</time>
      </trkpt>
      <trkpt lat="46.18298" lon="10.41762">
        <ele>2088.314</ele>
        <time>2018-09-15T23:26:25Z</time>
      </trkpt>
      <trkpt lat="46.18291" lon="10.41764">
        <ele>2088.308</ele>
        <time>2018-09-15T23:26:45Z</time>
      </trkpt>
      <trkpt lat="46.18289" lon="10.41754">
        <ele>2092.964</ele>
        <time>2018-09-15T23:27:05Z</time>
      </trkpt>
      <trkpt lat="46.18286" lon="10.41759">
        <ele>2091.45</ele>
        <time>2018-09-15T23:27:25Z</time>
      </trkpt>
      <trkpt lat="46.18282" lon="10.41758">
        <ele>2092.367</ele>
        <time>2018-09-15T23:27:45Z</time>
      </trkpt>
      <trkpt lat="46.18275" lon="10.41761">
        <ele>2092.33</ele>
        <time>2018-09-15T23:28:05Z</time>
      </trkpt>
      <trkpt lat="46.18275" lon="10.41755">
        <ele>2094.383</ele>
        <time>2018-09-15T23:28:25Z</time>
      </trkpt>
      <trkpt lat="46.1827" lon="10.41757">
        <ele>2094.726</ele>
        <time>2018-09-15T23:28:45Z</time>
      </trkpt>
      <trkpt lat="46.18267" lon="10.41757">
        <ele>2095.244</ele>
        <time>2018-09-15T23:29:05Z</time>
      </trkpt>
      <trkpt lat="46.18264" lon="10.41757">
        <ele>2095.741</ele>
        <time>2018-09-15T23:29:25Z</time>
      </trkpt>
      <trkpt lat="46.18259" lon="10.41757">
        <ele>2096.546</ele>
        <time>2018-09-15T23:29:45Z</time>
      </trkpt>
      <trkpt lat="46.18255" lon="10.41757">
        <ele>2097.288</ele>
        <time>2018-09-15T23:30:05Z</time>
      </trkpt>
      <trkpt lat="46.18258" lon="10.41749">
        <ele>2099.516</ele>
        <time>2018-09-15T23:30:25Z</time>
      </trkpt>
      <trkpt lat="46.1826" lon="10.41745">
        <ele>2101.608</ele>
        <time>2018-09-15T23:30:45Z</time>
      </trkpt>
      <trkpt lat="46.18259" lon="10.41741">
        <ele>2104.426</ele>
        <time>2018-09-15T23:31:05Z</time>
      </trkpt>
      <trkpt lat="46.18261" lon="10.41737">
        <ele>2106.652</ele>
        <time>2018-09-15T23:31:25Z</time>
      </trkpt>
      <trkpt lat="46.18257" lon="10.41737">
        <ele>2108.029</ele>
        <time>2018-09-15T23:31:45Z</time>
      </trkpt>
      <trkpt lat="46.18251" lon="10.41737">
        <ele>2108.882</ele>
        <time>2018-09-15T23:32:05Z</time>
      </trkpt>
      <trkpt lat="46.18257" lon="10.41725">
        <ele>2115.755</ele>
        <time>2018-09-15T23:32:25Z</time>
      </trkpt>
      <trkpt lat="46.18258" lon="10.41719">
        <ele>2119.468</ele>
        <time>2018-09-15T23:32:45Z</time>
      </trkpt>
      <trkpt lat="46.18256" lon="10.41717">
        <ele>2121.186</ele>
        <time>2018-09-15T23:33:05Z</time>
      </trkpt>
      <trkpt lat="46.18249" lon="10.41721">
        <ele>2120.953</ele>
        <time>2018-09-15T23:33:25Z</time>
      </trkpt>
      <trkpt lat="46.18245" lon="10.41719">
        <ele>2123.675</ele>
        <time>2018-09-15T23:33:45Z</time>
      </trkpt>
      <trkpt lat="46.18248" lon="10.41716">
        <ele>2124.128</ele>
        <time>2018-09-15T23:34:05Z</time>
      </trkpt>
      <trkpt lat="46.1825" lon="10.41713">
        <ele>2124.82</ele>
        <time>2018-09-15T23:34:25Z</time>
      </trkpt>
      <trkpt lat="46.18249" lon="10.41706">
        <ele>2128.208</ele>
        <time>2018-09-15T23:34:45Z</time>
      </trkpt>
      <trkpt lat="46.18242" lon="10.4171">
        <ele>2129.229</ele>
        <time>2018-09-15T23:35:05Z</time>
      </trkpt>
      <trkpt lat="46.18243" lon="10.41702">
        <ele>2132.465</ele>
        <time>2018-09-15T23:35:25Z</time>
      </trkpt>
      <trkpt lat="46.18238" lon="10.41706">
        <ele>2133.022</ele>
        <time>2018-09-15T23:35:45Z</time>
      </trkpt>
      <trkpt lat="46.18233" lon="10.41705">
        <ele>2135.145</ele>
        <time>2018-09-15T23:36:05Z</time>
      </trkpt>
      <trkpt lat="46.18235" lon="10.41701">
        <ele>2136.388</ele>
        <time>2018-09-15T23:36:25Z</time>
      </trkpt>
      <trkpt lat="46.18237" lon="10.41695">
        <ele>2138.151</ele>
        <time>2018-09-15T23:36:45Z</time>
      </trkpt>
      <trkpt lat="46.18235" lon="10.41693">
        <ele>2139.369</ele>
        <time>2018-09-15T23:37:05Z</time>
      </trkpt>
      <trkpt lat="46.18232" lon="10.41693">
        <ele>2140.386</ele>
        <time>2018-09-15T23:37:25Z</time>
      </trkpt>
      <trkpt lat="46.18229" lon="10.41694">
        <ele>2141.041</ele>
        <time>2018-09-15T23:37:45Z</time>
      </trkpt>
      <trkpt lat="46.18224" lon="10.41692">
        <ele>2143.381</ele>
        <time>2018-09-15T23:38:05Z</time>
      </trkpt>
      <trkpt lat="46.18221" lon="10.41692">
        <ele>2144.509</ele>
        <time>2018-09-15T23:38:25Z</time>
      </trkpt>
      <trkpt lat="46.18219" lon="10.41688">
        <ele>2146.808</ele>
        <time>2018-09-15T23:38:45Z</time>
      </trkpt>
      <trkpt lat="46.18209" lon="10.41633">
        <ele>2179.926</ele>
        <time>2018-09-15T23:39:05Z</time>
      </trkpt>
      <trkpt lat="46.18215" lon="10.41623">
        <ele>2183.822</ele>
        <time>2018-09-15T23:39:25Z</time>
      </trkpt>
      <trkpt lat="46.18211" lon="10.41622">
        <ele>2184.929</ele>
        <time>2018-09-15T23:39:45Z</time>
      </trkpt>
      <trkpt lat="46.18209" lon="10.4162">
        <ele>2186.372</ele>
        <time>2018-09-15T23:40:05Z</time>
      </trkpt>
      <trkpt lat="46.18211" lon="10.41616">
        <ele>2188.015</ele>
        <time>2018-09-15T23:40:25Z</time>
      </trkpt>
      <trkpt lat="46.18213" lon="10.41609">
        <ele>2191.568</ele>
        <time>2018-09-15T23:40:45Z</time>
      </trkpt>
      <trkpt lat="46.1821" lon="10.41609">
        <ele>2191.896</ele>
        <time>2018-09-15T23:41:05Z</time>
      </trkpt>
      <trkpt lat="46.18207" lon="10.41609">
        <ele>2192.013</ele>
        <time>2018-09-15T23:41:25Z</time>
      </trkpt>
      <trkpt lat="46.18209" lon="10.41605">
        <ele>2194.281</ele>
        <time>2018-09-15T23:41:45Z</time>
      </trkpt>
      <trkpt lat="46.18208" lon="10.41601">
        <ele>2196.561</ele>
        <time>2018-09-15T23:42:05Z</time>
      </trkpt>
      <trkpt lat="46.18206" lon="10.41599">
        <ele>2197.517</ele>
        <time>2018-09-15T23:42:25Z</time>
      </trkpt>
      <trkpt lat="46.18204" lon="10.41599">
        <ele>2197.908</ele>
        <time>2018-09-15T23:42:45Z</time>
      </trkpt>
      <trkpt lat="46.18205" lon="10.41596">
        <ele>2199.44</ele>
        <time>2018-09-15T23:43:05Z</time>
      </trkpt>
      <trkpt lat="46.18204" lon="10.41587">
        <ele>2204.166</ele>
        <time>2018-09-15T23:43:25Z</time>
      </trkpt>
      <trkpt lat="46.182" lon="10.41585">
        <ele>2205.343</ele>
        <time>2018-09-15T23:43:45Z</time>
      </trkpt>
      <trkpt lat="46.18197" lon="10.41585">
        <ele>2205.716</ele>
        <time>2018-09-15T23:44:05Z</time>
      </trkpt>
      <trkpt lat="46.18195" lon="10.41586">
        <ele>2205.749</ele>
        <time>2018-09-15T23:44:25Z</time>
      </trkpt>
      <trkpt lat="46.18193" lon="10.41583">
        <ele>2208.232</ele>
        <time>2018-09-15T23:44:45Z</time>
      </trkpt>
      <trkpt lat="46.1819" lon="10.41583">
        <ele>2209.41</ele>
        <time>2018-09-15T23:45:05Z</time>
      </trkpt>
      <trkpt lat="46.18189" lon="10.4158">
        <ele>2212.187</ele>
        <time>2018-09-15T23:45:25Z</time>
      </trkpt>
      <trkpt lat="46.18187" lon="10.4158">
        <ele>2213.227</ele>
        <time>2018-09-15T23:45:45Z</time>
      </trkpt>
      <trkpt lat="46.18182" lon="10.41581">
        <ele>2214.968</ele>
        <time>2018-09-15T23:46:05Z</time>
      </trkpt>
      <trkpt lat="46.1818" lon="10.41578">
        <ele>2217.514</ele>
        <time>2018-09-15T23:46:25Z</time>
      </trkpt>
      <trkpt lat="46.18181" lon="10.41572">
        <ele>2221.108</ele>
        <time>2018-09-15T23:46:45Z</time>
      </trkpt>
      <trkpt lat="46.18182" lon="10.41564">
        <ele>2225.854</ele>
        <time>2018-09-15T23:47:05Z</time>
      </trkpt>
      <trkpt lat="46.18178" lon="10.41556">
        <ele>2231.99</ele>
        <time>2018-09-15T23:47:25Z</time>
      </trkpt>
      <trkpt lat="46.18173" lon="10.41554">
        <ele>2234.157</ele>
        <time>2018-09-15T23:47:45Z</time>
      </trkpt>
      <trkpt lat="46.18174" lon="10.41544">
        <ele>2239.26</ele>
        <time>2018-09-15T23:48:05Z</time>
      </trkpt>
      <trkpt lat="46.18175" lon="10.4154">
        <ele>2240.543</ele>
        <time>2018-09-15T23:48:25Z</time>
      </trkpt>
      <trkpt lat="46.18171" lon="10.41535">
        <ele>2244.166</ele>
        <time>2018-09-15T23:48:45Z</time>
      </trkpt>
      <trkpt lat="46.18167" lon="10.41534">
        <ele>2245.764</ele>
        <time>2018-09-15T23:49:05Z</time>
      </trkpt>
      <trkpt lat="46.18166" lon="10.41533">
        <ele>2246.691</ele>
        <time>2018-09-15T23:49:25Z</time>
      </trkpt>
      <trkpt lat="46.1816" lon="10.41531">
        <ele>2249.192</ele>
        <time>2018-09-15T23:49:45Z</time>
      </trkpt>
      <trkpt lat="46.18155" lon="10.41529">
        <ele>2251.073</ele>
        <time>2018-09-15T23:50:05Z</time>
      </trkpt>
      <trkpt lat="46.1815" lon="10.41527">
        <ele>2253.02</ele>
        <time>2018-09-15T23:50:25Z</time>
      </trkpt>
      <trkpt lat="46.18152" lon="10.41523">
        <ele>2255.808</ele>
        <time>2018-09-15T23:50:45Z</time>
      </trkpt>
      <trkpt lat="46.18156" lon="10.41506">
        <ele>2265.421</ele>
        <time>2018-09-15T23:51:05Z</time>
      </trkpt>
      <trkpt lat="46.18151" lon="10.41507">
        <ele>2266.537</ele>
        <time>2018-09-15T23:51:25Z</time>
      </trkpt>
      <trkpt lat="46.18147" lon="10.41507">
        <ele>2267.784</ele>
        <time>2018-09-15T23:51:45Z</time>
      </trkpt>
      <trkpt lat="46.1814" lon="10.41505">
        <ele>2270.757</ele>
        <time>2018-09-15T23:52:05Z</time>
      </trkpt>
      <trkpt lat="46.18142" lon="10.41501">
        <ele>2273.28</ele>
        <time>2018-09-15T23:52:25Z</time>
      </trkpt>
      <trkpt lat="46.18139" lon="10.41501">
        <ele>2274.143</ele>
        <time>2018-09-15T23:52:45Z</time>
      </trkpt>
      <trkpt lat="46.18136" lon="10.415">
        <ele>2275.811</ele>
        <time>2018-09-15T23:53:05Z</time>
      </trkpt>
      <trkpt lat="46.18134" lon="10.415">
        <ele>2275.738</ele>
        <time>2018-09-15T23:53:25Z</time>
      </trkpt>
      <trkpt lat="46.18131" lon="10.41501">
        <ele>2276.063</ele>
        <time>2018-09-15T23:53:45Z</time>
      </trkpt>
      <trkpt lat="46.18125" lon="10.41497">
        <ele>2279.944</ele>
        <time>2018-09-15T23:54:05Z</time>
      </trkpt>
      <trkpt lat="46.18119" lon="10.41502">
        <ele>2278.018</ele>
        <time>2018-09-15T23:54:25Z</time>
      </trkpt>
      <trkpt lat="46.18116" lon="10.41502">
        <ele>2278.808</ele>
        <time>2018-09-15T23:54:45Z</time>
      </trkpt>
      <trkpt lat="46.18113" lon="10.41503">
        <ele>2278.598</ele>
        <time>2018-09-15T23:55:05Z</time>
      </trkpt>
      <trkpt lat="46.18108" lon="10.41502">
        <ele>2282.044</ele>
        <time>2018-09-15T23:55:25Z</time>
      </trkpt>
      <trkpt lat="46.18103" lon="10.41506">
        <ele>2281.951</ele>
        <time>2018-09-15T23:55:45Z</time>
      </trkpt>
      <trkpt lat="46.18101" lon="10.41507">
        <ele>2282.434</ele>
        <time>2018-09-15T23:56:05Z</time>
      </trkpt>
      <trkpt lat="46.18098" lon="10.41509">
        <ele>2283.087</ele>
        <time>2018-09-15T23:56:25Z</time>
      </trkpt>
      <trkpt lat="46.18093" lon="10.41512">
        <ele>2284.13</ele>
        <time>2018-09-15T23:56:45Z</time>
      </trkpt>
      <trkpt lat="46.18091" lon="10.41509">
        <ele>2287.688</ele>
        <time>2018-09-15T23:57:05Z</time>
      </trkpt>
      <trkpt lat="46.18088" lon="10.41503">
        <ele>2292.625</ele>
        <time>2018-09-15T23:57:25Z</time>
      </trkpt>
      <trkpt lat="46.18085" lon="10.41507">
        <ele>2292.685</ele>
        <time>2018-09-15T23:57:45Z</time>
      </trkpt>
      <trkpt lat="46.18081" lon="10.41509">
        <ele>2294.689</ele>
        <time>2018-09-15T23:58:05Z</time>
      </trkpt>
      <trkpt lat="46.1808" lon="10.41508">
        <ele>2296.517</ele>
        <time>2018-09-15T23:58:25Z</time>
      </trkpt>
      <trkpt lat="46.18078" lon="10.41504">
        <ele>2300.808</ele>
        <time>2018-09-15T23:58:45Z</time>
      </trkpt>
      <trkpt lat="46.18077" lon="10.41503">
        <ele>2302.14</ele>
        <time>2018-09-15T23:59:05Z</time>
      </trkpt>
      <trkpt lat="46.18069" lon="10.41495">
        <ele>2310.666</ele>
        <time>2018-09-15T23:59:25Z</time>
      </trkpt>
      <trkpt lat="46.18069" lon="10.41495">
        <ele>2311.143</ele>
        <time>2018-09-15T23:59:45Z</time>
      </trkpt>
      <trkpt lat="46.18068" lon="10.4149">
        <ele>2312.696</ele>
        <time>2018-09-16T00:00:05Z</time>
      </trkpt>
      <trkpt lat="46.18066" lon="10.4149">
        <ele>2313.899</ele>
        <time>2018-09-16T00:00:25Z</time>
      </trkpt>
      <trkpt lat="46.18064" lon="10.41487">
        <ele>2315.032</ele>
        <time>2018-09-16T00:00:45Z</time>
      </trkpt>
      <trkpt lat="46.18064" lon="10.41482">
        <ele>2315.74</ele>
        <time>2018-09-16T00:01:05Z</time>
      </trkpt>
      <trkpt lat="46.18063" lon="10.41478">
        <ele>2316.427</ele>
        <time>2018-09-16T00:01:25Z</time>
      </trkpt>
      <trkpt lat="46.1806" lon="10.41477">
        <ele>2316.858</ele>
        <time>2018-09-16T00:01:45Z</time>
      </trkpt>
      <trkpt lat="46.18057" lon="10.41476">
        <ele>2317.152</ele>
        <time>2018-09-16T00:02:05Z</time>
      </trkpt>
      <trkpt lat="46.18055" lon="10.41473">
        <ele>2317.117</ele>
        <time>2018-09-16T00:02:25Z</time>
      </trkpt>
      <trkpt lat="46.18053" lon="10.41469">
        <ele>2316.708</ele>
        <time>2018-09-16T00:02:45Z</time>
      </trkpt>
      <trkpt lat="46.18052" lon="10.41464">
        <ele>2316.067</ele>
        <time>2018-09-16T00:03:05Z</time>
      </trkpt>
      <trkpt lat="46.18049" lon="10.41457">
        <ele>2314.613</ele>
        <time>2018-09-16T00:03:25Z</time>
      </trkpt>
      <trkpt lat="46.18047" lon="10.41456">
        <ele>2314.25</ele>
        <time>2018-09-16T00:03:45Z</time>
      </trkpt>
      <trkpt lat="46.18029" lon="10.41465">
        <ele>2314.453</ele>
        <time>2018-09-16T00:04:05Z</time>
      </trkpt>
      <trkpt lat="46.18022" lon="10.41467">
        <ele>2313.446</ele>
        <time>2018-09-16T00:04:25Z</time>
      </trkpt>
      <trkpt lat="46.17997" lon="10.41486">
        <ele>2311.719</ele>
        <time>2018-09-16T00:04:45Z</time>
      </trkpt>
      <trkpt lat="46.17986" lon="10.41491">
        <ele>2311.997</ele>
        <time>2018-09-16T00:05:05Z</time>
      </trkpt>
      <trkpt lat="46.17981" lon="10.41496">
        <ele>2312.924</ele>
        <time>2018-09-16T00:05:25Z</time>
      </trkpt>
      <trkpt lat="46.17962" lon="10.41521">
        <ele>2316.646</ele>
        <time>2018-09-16T00:05:45Z</time>
      </trkpt>
      <trkpt lat="46.18036" lon="10.41386">
        <ele>2288.088</ele>
        <time>2018-09-16T00:06:05Z</time>
      </trkpt>
      <trkpt lat="46.18035" lon="10.41377">
        <ele>2285.216</ele>
        <time>2018-09-16T00:06:25Z</time>
      </trkpt>
      <trkpt lat="46.18037" lon="10.41373">
        <ele>2284.908</ele>
        <time>2018-09-16T00:06:45Z</time>
      </trkpt>
      <trkpt lat="46.18035" lon="10.41364">
        <ele>2280.846</ele>
        <time>2018-09-16T00:07:05Z</time>
      </trkpt>
      <trkpt lat="46.18036" lon="10.41359">
        <ele>2280.822</ele>
        <time>2018-09-16T00:07:25Z</time>
      </trkpt>
      <trkpt lat="46.18035" lon="10.41355">
        <ele>2279.439</ele>
        <time>2018-09-16T00:07:45Z</time>
      </trkpt>
      <trkpt lat="46.18036" lon="10.4135">
        <ele>2279.472</ele>
        <time>2018-09-16T00:08:05Z</time>
      </trkpt>
      <trkpt lat="46.18038" lon="10.41342">
        <ele>2279.935</ele>
        <time>2018-09-16T00:08:25Z</time>
      </trkpt>
      <trkpt lat="46.18033" lon="10.41331">
        <ele>2274.248</ele>
        <time>2018-09-16T00:08:45Z</time>
      </trkpt>
      <trkpt lat="46.18033" lon="10.41328">
        <ele>2272.546</ele>
        <time>2018-09-16T00:09:05Z</time>
      </trkpt>
      <trkpt lat="46.18033" lon="10.41318">
        <ele>2269.433</ele>
        <time>2018-09-16T00:09:25Z</time>
      </trkpt>
      <trkpt lat="46.1803" lon="10.4132">
        <ele>2267.252</ele>
        <time>2018-09-16T00:09:45Z</time>
      </trkpt>
      <trkpt lat="46.18028" lon="10.41323">
        <ele>2265.653</ele>
        <time>2018-09-16T00:10:05Z</time>
      </trkpt>
      <trkpt lat="46.18024" lon="10.41327">
        <ele>2264.408</ele>
        <time>2018-09-16T00:10:25Z</time>
      </trkpt>
      <trkpt lat="46.18011" lon="10.41316">
        <ele>2249.508</ele>
        <time>2018-09-16T00:10:45Z</time>
      </trkpt>
      <trkpt lat="46.1801" lon="10.41311">
        <ele>2247.747</ele>
        <time>2018-09-16T00:11:05Z</time>
      </trkpt>
      <trkpt lat="46.18008" lon="10.41302">
        <ele>2242.713</ele>
        <time>2018-09-16T00:11:25Z</time>
      </trkpt>
      <trkpt lat="46.18005" lon="10.41296">
        <ele>2238.97</ele>
        <time>2018-09-16T00:11:45Z</time>
      </trkpt>
      <trkpt lat="46.18001" lon="10.41289">
        <ele>2234.213</ele>
        <time>2018-09-16T00:12:05Z</time>
      </trkpt>
      <trkpt lat="46.17999" lon="10.41287">
        <ele>2232.756</ele>
        <time>2018-09-16T00:12:25Z</time>
      </trkpt>
      <trkpt lat="46.17987" lon="10.4128">
        <ele>2223.199</ele>
        <time>2018-09-16T00:12:45Z</time>
      </trkpt>
      <trkpt lat="46.17986" lon="10.41279">
        <ele>2221.857</ele>
        <time>2018-09-16T00:13:05Z</time>
      </trkpt>
      <trkpt lat="46.17982" lon="10.41254">
        <ele>2210.224</ele>
        <time>2018-09-16T00:13:25Z</time>
      </trkpt>
      <trkpt lat="46.17971" lon="10.41223">
        <ele>2189.646</ele>
        <time>2018-09-16T00:13:45Z</time>
      </trkpt>
      <trkpt lat="46.17958" lon="10.41207">
        <ele>2173.188</ele>
        <time>2018-09-16T00:14:05Z</time>
      </trkpt>
      <trkpt lat="46.17948" lon="10.41198">
        <ele>2163.116</ele>
        <time>2018-09-16T00:14:25Z</time>
      </trkpt>
      <trkpt lat="46.17943" lon="10.41195">
        <ele>2159.108</ele>
        <time>2018-09-16T00:14:45Z</time>
      </trkpt>
      <trkpt lat="46.17921" lon="10.41159">
        <ele>2133.356</ele>
        <time>2018-09-16T00:15:05Z</time>
      </trkpt>
      <trkpt lat="46.17914" lon="10.41154">
        <ele>2128.242</ele>
        <time>2018-09-16T00:15:25Z</time>
      </trkpt>
      <trkpt lat="46.17909" lon="10.41143">
        <ele>2119.879</ele>
        <time>2018-09-16T00:15:45Z</time>
      </trkpt>
      <trkpt lat="46.17913" lon="10.41136">
        <ele>2116.332</ele>
        <time>2018-09-16T00:16:05Z</time>
      </trkpt>
      <trkpt lat="46.17916" lon="10.41134">
        <ele>2115.635</ele>
        <time>2018-09-16T00:16:25Z</time>
      </trkpt>
      <trkpt lat="46.17916" lon="10.41133">
        <ele>2115.038</ele>
        <time>2018-09-16T00:16:45Z</time>
      </trkpt>
      <trkpt lat="46.17915" lon="10.41128">
        <ele>2111.876</ele>
        <time>2018-09-16T00:17:05Z</time>
      </trkpt>
      <trkpt lat="46.1791" lon="10.41121">
        <ele>2106.523</ele>
        <time>2018-09-16T00:17:25Z</time>
      </trkpt>
      <trkpt lat="46.17912" lon="10.41117">
        <ele>2104.499</ele>
        <time>2018-09-16T00:17:45Z</time>
      </trkpt>
      <trkpt lat="46.17911" lon="10.41114">
        <ele>2102.607</ele>
        <time>2018-09-16T00:18:05Z</time>
      </trkpt>
      <trkpt lat="46.17913" lon="10.41114">
        <ele>2102.827</ele>
        <time>2018-09-16T00:18:25Z</time>
      </trkpt>
      <trkpt lat="46.17915" lon="10.41111">
        <ele>2100.508</ele>
        <time>2018-09-16T00:18:45Z</time>
      </trkpt>
      <trkpt lat="46.1792" lon="10.41112">
        <ele>2101.451</ele>
        <time>2018-09-16T00:19:05Z</time>
      </trkpt>
      <trkpt lat="46.17926" lon="10.41104">
        <ele>2096.457</ele>
        <time>2018-09-16T00:19:25Z</time>
      </trkpt>
      <trkpt lat="46.17936" lon="10.41087">
        <ele>2089.764</ele>
        <time>2018-09-16T00:19:45Z</time>
      </trkpt>
      <trkpt lat="46.17938" lon="10.41084">
        <ele>2088.967</ele>
        <time>2018-09-16T00:20:05Z</time>
      </trkpt>
      <trkpt lat="46.17944" lon="10.41069">
        <ele>2085.74</ele>
        <time>2018-09-16T00:20:25Z</time>
      </trkpt>
      <trkpt lat="46.17942" lon="10.41065">
        <ele>2083.693</ele>
        <time>2018-09-16T00:20:45Z</time>
      </trkpt>
      <trkpt lat="46.17935" lon="10.41056">
        <ele>2078.291</ele>
        <time>2018-09-16T00:21:05Z</time>
      </trkpt>
      <trkpt lat="46.17926" lon="10.41047">
        <ele>2072.198</ele>
        <time>2018-09-16T00:21:25Z</time>
      </trkpt>
      <trkpt lat="46.17915" lon="10.41035">
        <ele>2063.751</ele>
        <time>2018-09-16T00:21:45Z</time>
      </trkpt>
      <trkpt lat="46.17914" lon="10.41035">
        <ele>2063.401</ele>
        <time>2018-09-16T00:22:05Z</time>
      </trkpt>
      <trkpt lat="46.1791" lon="10.41032">
        <ele>2060.911</ele>
        <time>2018-09-16T00:22:25Z</time>
      </trkpt>
      <trkpt lat="46.17904" lon="10.41009">
        <ele>2049.808</ele>
        <time>2018-09-16T00:22:45Z</time>
      </trkpt>
      <trkpt lat="46.17903" lon="10.41007">
        <ele>2048.597</ele>
        <time>2018-09-16T00:23:05Z</time>
      </trkpt>
      <trkpt lat="46.17919" lon="10.40982">
        <ele>2052.213</ele>
        <time>2018-09-16T00:23:25Z</time>
      </trkpt>
      <trkpt lat="46.17922" lon="10.40975">
        <ele>2055.03</ele>
        <time>2018-09-16T00:23:45Z</time>
      </trkpt>
      <trkpt lat="46.17922" lon="10.40974">
        <ele>2054.693</ele>
        <time>2018-09-16T00:24:05Z</time>
      </trkpt>
      <trkpt lat="46.17919" lon="10.4097">
        <ele>2051.266</ele>
        <time>2018-09-16T00:24:25Z</time>
      </trkpt>
      <trkpt lat="46.17911" lon="10.40969">
        <ele>2045.779</ele>
        <time>2018-09-16T00:24:45Z</time>
      </trkpt>
      <trkpt lat="46.17907" lon="10.40966">
        <ele>2042.897</ele>
        <time>2018-09-16T00:25:05Z</time>
      </trkpt>
      <trkpt lat="46.17908" lon="10.40949">
        <ele>2038.314</ele>
        <time>2018-09-16T00:25:25Z</time>
      </trkpt>
      <trkpt lat="46.17907" lon="10.40949">
        <ele>2037.888</ele>
        <time>2018-09-16T00:25:45Z</time>
      </trkpt>
      <trkpt lat="46.17879" lon="10.40943">
        <ele>2017.324</ele>
        <time>2018-09-16T00:26:05Z</time>
      </trkpt>
      <trkpt lat="46.17873" lon="10.40934">
        <ele>2011.226</ele>
        <time>2018-09-16T00:26:25Z</time>
      </trkpt>
      <trkpt lat="46.17855" lon="10.40904">
        <ele>1993.708</ele>
        <time>2018-09-16T00:26:45Z</time>
      </trkpt>
      <trkpt lat="46.17807" lon="10.40848">
        <ele>1948.21</ele>
        <time>2018-09-16T00:27:05Z</time>
      </trkpt>
      <trkpt lat="46.17783" lon="10.40808">
        <ele>1928.816</ele>
        <time>2018-09-16T00:27:25Z</time>
      </trkpt>
      <trkpt lat="46.17764" lon="10.40775">
        <ele>1913.943</ele>
        <time>2018-09-16T00:27:45Z</time>
      </trkpt>
      <trkpt lat="46.17757" lon="10.40739">
        <ele>1904.826</ele>
        <time>2018-09-16T00:28:05Z</time>
      </trkpt>
      <trkpt lat="46.17757" lon="10.40738">
        <ele>1904.519</ele>
        <time>2018-09-16T00:28:25Z</time>
      </trkpt>
      <trkpt lat="46.17748" lon="10.40692">
        <ele>1893.162</ele>
        <time>2018-09-16T00:28:45Z</time>
      </trkpt>
      <trkpt lat="46.17739" lon="10.40654">
        <ele>1880.94</ele>
        <time>2018-09-16T00:29:05Z</time>
      </trkpt>
      <trkpt lat="46.17732" lon="10.40623">
        <ele>1872.927</ele>
        <time>2018-09-16T00:29:25Z</time>
      </trkpt>
      <trkpt lat="46.1773" lon="10.40617">
        <ele>1871.342</ele>
        <time>2018-09-16T00:29:45Z</time>
      </trkpt>
      <trkpt lat="46.1771" lon="10.40552">
        <ele>1854.122</ele>
        <time>2018-09-16T00:30:05Z</time>
      </trkpt>
      <trkpt lat="46.1771" lon="10.40549">
        <ele>1853.814</ele>
        <time>2018-09-16T00:30:25Z</time>
      </trkpt>
      <trkpt lat="46.17699" lon="10.40528">
        <ele>1848.508</ele>
        <time>2018-09-16T00:30:45Z</time>
      </trkpt>
      <trkpt lat="46.17682" lon="10.40501">
        <ele>1835.176</ele>
        <time>2018-09-16T00:31:05Z</time>
      </trkpt>
      <trkpt lat="46.17674" lon="10.40489">
        <ele>1828.712</ele>
        <time>2018-09-16T00:31:25Z</time>
      </trkpt>
      <trkpt lat="46.17658" lon="10.40463">
        <ele>1818.759</ele>
        <time>2018-09-16T00:31:45Z</time>
      </trkpt>
      <trkpt lat="46.17653" lon="10.40458">
        <ele>1816.662</ele>
        <time>2018-09-16T00:32:05Z</time>
      </trkpt>
      <trkpt lat="46.17648" lon="10.40453">
        <ele>1814.285</ele>
        <time>2018-09-16T00:32:25Z</time>
      </trkpt>
      <trkpt lat="46.17645" lon="10.40448">
        <ele>1812.458</ele>
        <time>2018-09-16T00:32:45Z</time>
      </trkpt>
      <trkpt lat="46.1764" lon="10.40436">
        <ele>1808.496</ele>
        <time>2018-09-16T00:33:05Z</time>
      </trkpt>
      <trkpt lat="46.17637" lon="10.40431">
        <ele>1805.453</ele>
        <time>2018-09-16T00:33:25Z</time>
      </trkpt>
      <trkpt lat="46.17634" lon="10.40426">
        <ele>1802.558</ele>
        <time>2018-09-16T00:33:45Z</time>
      </trkpt>
      <trkpt lat="46.17633" lon="10.4042">
        <ele>1800.252</ele>
        <time>2018-09-16T00:34:05Z</time>
      </trkpt>
      <trkpt lat="46.17629" lon="10.40412">
        <ele>1796.317</ele>
        <time>2018-09-16T00:34:25Z</time>
      </trkpt>
      <trkpt lat="46.17624" lon="10.40401">
        <ele>1791.508</ele>
        <time>2018-09-16T00:34:45Z</time>
      </trkpt>
      <trkpt lat="46.17621" lon="10.40398">
        <ele>1788.627</ele>
        <time>2018-09-16T00:35:05Z</time>
      </trkpt>
      <trkpt lat="46.17617" lon="10.4039">
        <ele>1784.783</ele>
        <time>2018-09-16T00:35:25Z</time>
      </trkpt>
      <trkpt lat="46.17614" lon="10.40378">
        <ele>1780.45</ele>
        <time>2018-09-16T00:35:45Z</time>
      </trkpt>
      <trkpt lat="46.17612" lon="10.40363">
        <ele>1776.273</ele>
        <time>2018-09-16T00:36:05Z</time>
      </trkpt>
      <trkpt lat="46.17612" lon="10.40355">
        <ele>1775.596</ele>
        <time>2018-09-16T00:36:25Z</time>
      </trkpt>
      <trkpt lat="46.17613" lon="10.40345">
        <ele>1774.939</ele>
        <time>2018-09-16T00:36:45Z</time>
      </trkpt>
      <trkpt lat="46.17611" lon="10.40327">
        <ele>1772.287</ele>
        <time>2018-09-16T00:37:05Z</time>
      </trkpt>
      <trkpt lat="46.1761" lon="10.40317">
        <ele>1770.234</ele>
        <time>2018-09-16T00:37:25Z</time>
      </trkpt>
      <trkpt lat="46.17611" lon="10.40309">
        <ele>1769.336</ele>
        <time>2018-09-16T00:37:45Z</time>
      </trkpt>
      <trkpt lat="46.17609" lon="10.40301">
        <ele>1767.517</ele>
        <time>2018-09-16T00:38:05Z</time>
      </trkpt>
      <trkpt lat="46.1761" lon="10.40295">
        <ele>1767.818</ele>
        <time>2018-09-16T00:38:25Z</time>
      </trkpt>
      <trkpt lat="46.17612" lon="10.40287">
        <ele>1769.308</ele>
        <time>2018-09-16T00:38:45Z</time>
      </trkpt>
      <trkpt lat="46.17613" lon="10.40274">
        <ele>1771.655</ele>
        <time>2018-09-16T00:39:05Z</time>
      </trkpt>
      <trkpt lat="46.1761" lon="10.40256">
        <ele>1774.381</ele>
        <time>2018-09-16T00:39:25Z</time>
      </trkpt>
      <trkpt lat="46.17608" lon="10.40248">
        <ele>1774.718</ele>
        <time>2018-09-16T00:39:45Z</time>
      </trkpt>
      <trkpt lat="46.17605" lon="10.40241">
        <ele>1772.871</ele>
        <time>2018-09-16T00:40:05Z</time>
      </trkpt>
      <trkpt lat="46.17599" lon="10.40226">
        <ele>1769.034</ele>
        <time>2018-09-16T00:40:25Z</time>
      </trkpt>
      <trkpt lat="46.17596" lon="10.40215">
        <ele>1768.067</ele>
        <time>2018-09-16T00:40:45Z</time>
      </trkpt>
      <trkpt lat="46.17593" lon="10.40205">
        <ele>1765.285</ele>
        <time>2018-09-16T00:41:05Z</time>
      </trkpt>
      <trkpt lat="46.17589" lon="10.40191">
        <ele>1761.972</ele>
        <time>2018-09-16T00:41:25Z</time>
      </trkpt>
      <trkpt lat="46.17585" lon="10.40177">
        <ele>1760.025</ele>
        <time>2018-09-16T00:41:45Z</time>
      </trkpt>
      <trkpt lat="46.17581" lon="10.40169">
        <ele>1756.626</ele>
        <time>2018-09-16T00:42:05Z</time>
      </trkpt>
      <trkpt lat="46.17578" lon="10.40162">
        <ele>1754.308</ele>
        <time>2018-09-16T00:42:25Z</time>
      </trkpt>
      <trkpt lat="46.17575" lon="10.40154">
        <ele>1752.508</ele>
        <time>2018-09-16T00:42:45Z</time>
      </trkpt>
      <trkpt lat="46.1757" lon="10.40136">
        <ele>1750.754</ele>
        <time>2018-09-16T00:43:05Z</time>
      </trkpt>
      <trkpt lat="46.17565" lon="10.40126">
        <ele>1746.74</ele>
        <time>2018-09-16T00:43:25Z</time>
      </trkpt>
      <trkpt lat="46.17563" lon="10.40116">
        <ele>1746.347</ele>
        <time>2018-09-16T00:43:45Z</time>
      </trkpt>
      <trkpt lat="46.17561" lon="10.40105">
        <ele>1746.05</ele>
        <time>2018-09-16T00:44:05Z</time>
      </trkpt>
      <trkpt lat="46.17557" lon="10.40084">
        <ele>1744.973</ele>
        <time>2018-09-16T00:44:25Z</time>
      </trkpt>
      <trkpt lat="46.17553" lon="10.40063">
        <ele>1745.376</ele>
        <time>2018-09-16T00:44:45Z</time>
      </trkpt>
      <trkpt lat="46.17541" lon="10.40037">
        <ele>1745.924</ele>
        <time>2018-09-16T00:45:05Z</time>
      </trkpt>
      <trkpt lat="46.17528" lon="10.40004">
        <ele>1741.481</ele>
        <time>2018-09-16T00:45:25Z</time>
      </trkpt>
      <trkpt lat="46.17535" lon="10.39985">
        <ele>1750.773</ele>
        <time>2018-09-16T00:45:45Z</time>
      </trkpt>
      <trkpt lat="46.17533" lon="10.3995">
        <ele>1754.485</ele>
        <time>2018-09-16T00:46:05Z</time>
      </trkpt>
      <trkpt lat="46.17538" lon="10.39931">
        <ele>1762.813</ele>
        <time>2018-09-16T00:46:25Z</time>
      </trkpt>
      <trkpt lat="46.17537" lon="10.39889">
        <ele>1771.508</ele>
        <time>2018-09-16T00:46:45Z</time>
      </trkpt>
      <trkpt lat="46.17532" lon="10.39867">
        <ele>1771.929</ele>
        <time>2018-09-16T00:47:05Z</time>
      </trkpt>
      <trkpt lat="46.17521" lon="10.39842">
        <ele>1765.955</ele>
        <time>2018-09-16T00:47:25Z</time>
      </trkpt>
      <trkpt lat="46.17513" lon="10.39814">
        <ele>1771.652</ele>
        <time>2018-09-16T00:47:45Z</time>
      </trkpt>
      <trkpt lat="46.17494" lon="10.39744">
        <ele>1781.855</ele>
        <time>2018-09-16T00:48:05Z</time>
      </trkpt>
      <trkpt lat="46.17472" lon="10.39686">
        <ele>1781.058</ele>
        <time>2018-09-16T00:48:25Z</time>
      </trkpt>
      <trkpt lat="46.17458" lon="10.39626">
        <ele>1781.041</ele>
        <time>2018-09-16T00:48:45Z</time>
      </trkpt>
      <trkpt lat="46.17458" lon="10.39607">
        <ele>1783.949</ele>
        <time>2018-09-16T00:49:05Z</time>
      </trkpt>
      <trkpt lat="46.17317" lon="10.3942">
        <ele>1718.296</ele>
        <time>2018-09-16T00:49:25Z</time>
      </trkpt>
      <trkpt lat="46.17301" lon="10.39385">
        <ele>1720.338</ele>
        <time>2018-09-16T00:49:45Z</time>
      </trkpt>
      <trkpt lat="46.17278" lon="10.39346">
        <ele>1720.87</ele>
        <time>2018-09-16T00:50:05Z</time>
      </trkpt>
      <trkpt lat="46.17273" lon="10.39325">
        <ele>1724.817</ele>
        <time>2018-09-16T00:50:25Z</time>
      </trkpt>
      <trkpt lat="46.17262" lon="10.39299">
        <ele>1725.908</ele>
        <time>2018-09-16T00:50:45Z</time>
      </trkpt>
      <trkpt lat="46.17234" lon="10.39249">
        <ele>1708.625</ele>
        <time>2018-09-16T00:51:05Z</time>
      </trkpt>
      <trkpt lat="46.17234" lon="10.39212">
        <ele>1714.131</ele>
        <time>2018-09-16T00:51:25Z</time>
      </trkpt>
      <trkpt lat="46.17232" lon="10.39177">
        <ele>1720.658</ele>
        <time>2018-09-16T00:51:45Z</time>
      </trkpt>
      <trkpt lat="46.17223" lon="10.39159">
        <ele>1719.341</ele>
        <time>2018-09-16T00:52:05Z</time>
      </trkpt>
      <trkpt lat="46.17211" lon="10.39133">
        <ele>1716.984</ele>
        <time>2018-09-16T00:52:25Z</time>
      </trkpt>
      <trkpt lat="46.17207" lon="10.39108">
        <ele>1719.547</ele>
        <time>2018-09-16T00:52:45Z</time>
      </trkpt>
      <trkpt lat="46.17208" lon="10.39073">
        <ele>1723.755</ele>
        <time>2018-09-16T00:53:05Z</time>
      </trkpt>
      <trkpt lat="46.17208" lon="10.39036">
        <ele>1723.492</ele>
        <time>2018-09-16T00:53:25Z</time>
      </trkpt>
      <trkpt lat="46.17219" lon="10.39019">
        <ele>1727.876</ele>
        <time>2018-09-16T00:53:45Z</time>
      </trkpt>
      <trkpt lat="46.17231" lon="10.38992">
        <ele>1736.59</ele>
        <time>2018-09-16T00:54:05Z</time>
      </trkpt>
      <trkpt lat="46.17234" lon="10.3897">
        <ele>1742.119</ele>
        <time>2018-09-16T00:54:25Z</time>
      </trkpt>
      <trkpt lat="46.17237" lon="10.38952">
        <ele>1748.108</ele>
        <time>2018-09-16T00:54:45Z</time>
      </trkpt>
      <trkpt lat="46.17229" lon="10.38931">
        <ele>1751.049</ele>
        <time>2018-09-16T00:55:05Z</time>
      </trkpt>
      <trkpt lat="46.17218" lon="10.38907">
        <ele>1753.675</ele>
        <time>2018-09-16T00:55:25Z</time>
      </trkpt>
      <trkpt lat="46.17208" lon="10.38881">
        <ele>1756.642</ele>
        <time>2018-09-16T00:55:45Z</time>
      </trkpt>
      <trkpt lat="46.17208" lon="10.38864">
        <ele>1761.345</ele>
        <time>2018-09-16T00:56:05Z</time>
      </trkpt>
      <trkpt lat="46.17202" lon="10.38838">
        <ele>1763.088</ele>
        <time>2018-09-16T00:56:25Z</time>
      </trkpt>
      <trkpt lat="46.17202" lon="10.38823">
        <ele>1766.281</ele>
        <time>2018-09-16T00:56:45Z</time>
      </trkpt>
      <trkpt lat="46.17203" lon="10.38809">
        <ele>1770.629</ele>
        <time>2018-09-16T00:57:05Z</time>
      </trkpt>
      <trkpt lat="46.17198" lon="10.38791">
        <ele>1771.016</ele>
        <time>2018-09-16T00:57:25Z</time>
      </trkpt>
      <trkpt lat="46.17194" lon="10.38777">
        <ele>1772.011</ele>
        <time>2018-09-16T00:57:45Z</time>
      </trkpt>
      <trkpt lat="46.17196" lon="10.38751">
        <ele>1775.021</ele>
        <time>2018-09-16T00:58:05Z</time>
      </trkpt>
      <trkpt lat="46.17192" lon="10.38737">
        <ele>1775.603</ele>
        <time>2018-09-16T00:58:25Z</time>
      </trkpt>
      <trkpt lat="46.17184" lon="10.38719">
        <ele>1775.808</ele>
        <time>2018-09-16T00:58:45Z</time>
      </trkpt>
      <trkpt lat="46.17176" lon="10.38703">
        <ele>1776.543</ele>
        <time>2018-09-16T00:59:05Z</time>
      </trkpt>
      <trkpt lat="46.17165" lon="10.38689">
        <ele>1775.259</ele>
        <time>2018-09-16T00:59:25Z</time>
      </trkpt>
      <trkpt lat="46.17159" lon="10.38672">
        <ele>1775.916</ele>
        <time>2018-09-16T00:59:45Z</time>
      </trkpt>
      <trkpt lat="46.17153" lon="10.38655">
        <ele>1777.289</ele>
        <time>2018-09-16T01:00:05Z</time>
      </trkpt>
      <trkpt lat="46.17147" lon="10.38631">
        <ele>1779.992</ele>
        <time>2018-09-16T01:00:25Z</time>
      </trkpt>
      <trkpt lat="46.1714" lon="10.38594">
        <ele>1783.725</ele>
        <time>2018-09-16T01:00:45Z</time>
      </trkpt>
      <trkpt lat="46.17139" lon="10.38572">
        <ele>1787.133</ele>
        <time>2018-09-16T01:01:05Z</time>
      </trkpt>
      <trkpt lat="46.17149" lon="10.38557">
        <ele>1793.95</ele>
        <time>2018-09-16T01:01:25Z</time>
      </trkpt>
      <trkpt lat="46.17147" lon="10.38549">
        <ele>1794.873</ele>
        <time>2018-09-16T01:01:45Z</time>
      </trkpt>
      <trkpt lat="46.17139" lon="10.38537">
        <ele>1792.685</ele>
        <time>2018-09-16T01:02:05Z</time>
      </trkpt>
      <trkpt lat="46.17125" lon="10.38518">
        <ele>1787.013</ele>
        <time>2018-09-16T01:02:25Z</time>
      </trkpt>
      <trkpt lat="46.17114" lon="10.3849">
        <ele>1787.608</ele>
        <time>2018-09-16T01:02:45Z</time>
      </trkpt>
      <trkpt lat="46.17102" lon="10.38451">
        <ele>1789.199</ele>
        <time>2018-09-16T01:03:05Z</time>
      </trkpt>
      <trkpt lat="46.17093" lon="10.38424">
        <ele>1788.125</ele>
        <time>2018-09-16T01:03:25Z</time>
      </trkpt>
      <trkpt lat="46.17095" lon="10.38405">
        <ele>1794.442</ele>
        <time>2018-09-16T01:03:45Z</time>
      </trkpt>
      <trkpt lat="46.17093" lon="10.38389">
        <ele>1798.515</ele>
        <time>2018-09-16T01:04:05Z</time>
      </trkpt>
      <trkpt lat="46.17087" lon="10.38373">
        <ele>1798.048</ele>
        <time>2018-09-16T01:04:25Z</time>
      </trkpt>
      <trkpt lat="46.17085" lon="10.38358">
        <ele>1800.571</ele>
        <time>2018-09-16T01:04:45Z</time>
      </trkpt>
      <trkpt lat="46.17061" lon="10.38325">
        <ele>1791.989</ele>
        <time>2018-09-16T01:05:05Z</time>
      </trkpt>
      <trkpt lat="46.17042" lon="10.38282">
        <ele>1797.366</ele>
        <time>2018-09-16T01:05:25Z</time>
      </trkpt>
      <trkpt lat="46.17025" lon="10.38244">
        <ele>1800.513</ele>
        <time>2018-09-16T01:05:45Z</time>
      </trkpt>
      <trkpt lat="46.17025" lon="10.38242">
        <ele>1800.743</ele>
        <time>2018-09-16T01:06:05Z</time>
      </trkpt>
      <trkpt lat="46.17025" lon="10.38242">
        <ele>1800.807</ele>
        <time>2018-09-16T01:06:25Z</time>
      </trkpt>
      <trkpt lat="46.17024" lon="10.38241">
        <ele>1800.508</ele>
        <time>2018-09-16T01:06:45Z</time>
      </trkpt>
      <trkpt lat="46.17023" lon="10.3824">
        <ele>1800.423</ele>
        <time>2018-09-16T01:07:05Z</time>
      </trkpt>
      <trkpt lat="46.17021" lon="10.38222">
        <ele>1804.069</ele>
        <time>2018-09-16T01:07:25Z</time>
      </trkpt>
      <trkpt lat="46.17018" lon="10.38213">
        <ele>1805.276</ele>
        <time>2018-09-16T01:07:45Z</time>
      </trkpt>
      <trkpt lat="46.17014" lon="10.38185">
        <ele>1809.269</ele>
        <time>2018-09-16T01:08:05Z</time>
      </trkpt>
      <trkpt lat="46.17009" lon="10.38152">
        <ele>1811.342</ele>
        <time>2018-09-16T01:08:25Z</time>
      </trkpt>
      <trkpt lat="46.17003" lon="10.38122">
        <ele>1813.375</ele>
        <time>2018-09-16T01:08:45Z</time>
      </trkpt>
      <trkpt lat="46.16998" lon="10.38091">
        <ele>1816.733</ele>
        <time>2018-09-16T01:09:05Z</time>
      </trkpt>
      <trkpt lat="46.17015" lon="10.38108">
        <ele>1822.49</ele>
        <time>2018-09-16T01:09:25Z</time>
      </trkpt>
      <trkpt lat="46.17022" lon="10.38114">
        <ele>1825.615</ele>
        <time>2018-09-16T01:09:45Z</time>
      </trkpt>
      <trkpt lat="46.17028" lon="10.38119">
        <ele>1827.865</ele>
        <time>2018-09-16T01:10:05Z</time>
      </trkpt>
      <trkpt lat="46.17035" lon="10.38119">
        <ele>1831.011</ele>
        <time>2018-09-16T01:10:25Z</time>
      </trkpt>
      <trkpt lat="46.17039" lon="10.38119">
        <ele>1833.108</ele>
        <time>2018-09-16T01:10:45Z</time>
      </trkpt>
      <trkpt lat="46.17044" lon="10.38119">
        <ele>1835.643</ele>
        <time>2018-09-16T01:11:05Z</time>
      </trkpt>
      <trkpt lat="46.17043" lon="10.38117">
        <ele>1835.079</ele>
        <time>2018-09-16T01:11:25Z</time>
      </trkpt>
      <trkpt lat="46.17036" lon="10.38108">
        <ele>1832.556</ele>
        <time>2018-09-16T01:11:45Z</time>
      </trkpt>
      <trkpt lat="46.17035" lon="10.38106">
        <ele>1832.259</ele>
        <time>2018-09-16T01:12:05Z</time>
      </trkpt>
      <trkpt lat="46.17026" lon="10.38087">
        <ele>1829.862</ele>
        <time>2018-09-16T01:12:25Z</time>
      </trkpt>
      <trkpt lat="46.17019" lon="10.38069">
        <ele>1825.465</ele>
        <time>2018-09-16T01:12:45Z</time>
      </trkpt>
      <trkpt lat="46.17018" lon="10.38062">
        <ele>1824.283</ele>
        <time>2018-09-16T01:13:05Z</time>
      </trkpt>
      <trkpt lat="46.17018" lon="10.38051">
        <ele>1822.27</ele>
        <time>2018-09-16T01:13:25Z</time>
      </trkpt>
      <trkpt lat="46.17019" lon="10.38043">
        <ele>1820.493</ele>
        <time>2018-09-16T01:13:45Z</time>
      </trkpt>
      <trkpt lat="46.17026" lon="10.38032">
        <ele>1818.665</ele>
        <time>2018-09-16T01:14:05Z</time>
      </trkpt>
      <trkpt lat="46.17032" lon="10.38022">
        <ele>1817.321</ele>
        <time>2018-09-16T01:14:25Z</time>
      </trkpt>
      <trkpt lat="46.17048" lon="10.38004">
        <ele>1814.808</ele>
        <time>2018-09-16T01:14:45Z</time>
      </trkpt>
      <trkpt lat="46.17056" lon="10.37994">
        <ele>1812.981</ele>
        <time>2018-09-16T01:15:05Z</time>
      </trkpt>
      <trkpt lat="46.17064" lon="10.3799">
        <ele>1811.127</ele>
        <time>2018-09-16T01:15:25Z</time>
      </trkpt>
      <trkpt lat="46.17075" lon="10.37986">
        <ele>1809.684</ele>
        <time>2018-09-16T01:15:45Z</time>
      </trkpt>
      <trkpt lat="46.17088" lon="10.37974">
        <ele>1804.067</ele>
        <time>2018-09-16T01:16:05Z</time>
      </trkpt>
      <trkpt lat="46.17106" lon="10.37968">
        <ele>1799.01</ele>
        <time>2018-09-16T01:16:25Z</time>
      </trkpt>
      <trkpt lat="46.17116" lon="10.37966">
        <ele>1795.853</ele>
        <time>2018-09-16T01:16:45Z</time>
      </trkpt>
      <trkpt lat="46.17126" lon="10.37965">
        <ele>1792.511</ele>
        <time>2018-09-16T01:17:05Z</time>
      </trkpt>
      <trkpt lat="46.17133" lon="10.3796">
        <ele>1788.848</ele>
        <time>2018-09-16T01:17:25Z</time>
      </trkpt>
      <trkpt lat="46.17142" lon="10.37962">
        <ele>1786.958</ele>
        <time>2018-09-16T01:17:45Z</time>
      </trkpt>
      <trkpt lat="46.17154" lon="10.37969">
        <ele>1787.052</ele>
        <time>2018-09-16T01:18:05Z</time>
      </trkpt>
      <trkpt lat="46.17165" lon="10.37966">
        <ele>1783.317</ele>
        <time>2018-09-16T01:18:25Z</time>
      </trkpt>
      <trkpt lat="46.17178" lon="10.37956">
        <ele>1779.608</ele>
        <time>2018-09-16T01:18:45Z</time>
      </trkpt>
      <trkpt lat="46.17189" lon="10.3795">
        <ele>1777.417</ele>
        <time>2018-09-16T01:19:05Z</time>
      </trkpt>
      <trkpt lat="46.17201" lon="10.37941">
        <ele>1774.073</ele>
        <time>2018-09-16T01:19:25Z</time>
      </trkpt>
      <trkpt lat="46.17209" lon="10.37931">
        <ele>1768.05</ele>
        <time>2018-09-16T01:19:45Z</time>
      </trkpt>
      <trkpt lat="46.17216" lon="10.37911">
        <ele>1753.423</ele>
        <time>2018-09-16T01:20:05Z</time>
      </trkpt>
      <trkpt lat="46.17229" lon="10.37896">
        <ele>1744.336</ele>
        <time>2018-09-16T01:20:25Z</time>
      </trkpt>
      <trkpt lat="46.17243" lon="10.37884">
        <ele>1739.889</ele>
        <time>2018-09-16T01:20:45Z</time>
      </trkpt>
      <trkpt lat="46.1726" lon="10.37867">
        <ele>1736.637</ele>
        <time>2018-09-16T01:21:05Z</time>
      </trkpt>
      <trkpt lat="46.17277" lon="10.37857">
        <ele>1737.514</ele>
        <time>2018-09-16T01:21:25Z</time>
      </trkpt>
      <trkpt lat="46.1729" lon="10.37847">
        <ele>1736.435</ele>
        <time>2018-09-16T01:21:45Z</time>
      </trkpt>
      <trkpt lat="46.17302" lon="10.37839">
        <ele>1734.986</ele>
        <time>2018-09-16T01:22:05Z</time>
      </trkpt>
      <trkpt lat="46.17315" lon="10.37834">
        <ele>1733.014</ele>
        <time>2018-09-16T01:22:25Z</time>
      </trkpt>
      <trkpt lat="46.17328" lon="10.3783">
        <ele>1730.308</ele>
        <time>2018-09-16T01:22:45Z</time>
      </trkpt>
      <trkpt lat="46.17337" lon="10.3782">
        <ele>1723.935</ele>
        <time>2018-09-16T01:23:05Z</time>
      </trkpt>
      <trkpt lat="46.17359" lon="10.37805">
        <ele>1714.461</ele>
        <time>2018-09-16T01:23:25Z</time>
      </trkpt>
      <trkpt lat="46.17399" lon="10.37794">
        <ele>1696.128</ele>
        <time>2018-09-16T01:23:45Z</time>
      </trkpt>
      <trkpt lat="46.17415" lon="10.37796">
        <ele>1693.841</ele>
        <time>2018-09-16T01:24:05Z</time>
      </trkpt>
      <trkpt lat="46.17425" lon="10.37798">
        <ele>1696.744</ele>
        <time>2018-09-16T01:24:25Z</time>
      </trkpt>
      <trkpt lat="46.17438" lon="10.37791">
        <ele>1695.777</ele>
        <time>2018-09-16T01:24:45Z</time>
      </trkpt>
      <trkpt lat="46.17449" lon="10.37772">
        <ele>1688.665</ele>
        <time>2018-09-16T01:25:05Z</time>
      </trkpt>
      <trkpt lat="46.17459" lon="10.37763">
        <ele>1690.712</ele>
        <time>2018-09-16T01:25:25Z</time>
      </trkpt>
      <trkpt lat="46.17468" lon="10.37756">
        <ele>1693.189</ele>
        <time>2018-09-16T01:25:45Z</time>
      </trkpt>
      <trkpt lat="46.17497" lon="10.37728">
        <ele>1686.806</ele>
        <time>2018-09-16T01:26:05Z</time>
      </trkpt>
      <trkpt lat="46.17513" lon="10.37718">
        <ele>1682.826</ele>
        <time>2018-09-16T01:26:25Z</time>
      </trkpt>
      <trkpt lat="46.17527" lon="10.37711">
        <ele>1679.808</ele>
        <time>2018-09-16T01:26:45Z</time>
      </trkpt>
      <trkpt lat="46.17544" lon="10.37712">
        <ele>1680.75</ele>
        <time>2018-09-16T01:27:05Z</time>
      </trkpt>
      <trkpt lat="46.17572" lon="10.37717">
        <ele>1680.766</ele>
        <time>2018-09-16T01:27:25Z</time>
      </trkpt>
      <trkpt lat="46.17593" lon="10.37713">
        <ele>1675.653</ele>
        <time>2018-09-16T01:27:45Z</time>
      </trkpt>
      <trkpt lat="46.1761" lon="10.37715">
        <ele>1677.726</ele>
        <time>2018-09-16T01:28:05Z</time>
      </trkpt>
      <trkpt lat="46.17627" lon="10.37717">
        <ele>1678.869</ele>
        <time>2018-09-16T01:28:25Z</time>
      </trkpt>
      <trkpt lat="46.17643" lon="10.37717">
        <ele>1681.022</ele>
        <time>2018-09-16T01:28:45Z</time>
      </trkpt>
      <trkpt lat="46.17656" lon="10.37711">
        <ele>1684.18</ele>
        <time>2018-09-16T01:29:05Z</time>
      </trkpt>
      <trkpt lat="46.17669" lon="10.37694">
        <ele>1682.597</ele>
        <time>2018-09-16T01:29:25Z</time>
      </trkpt>
      <trkpt lat="46.17674" lon="10.37672">
        <ele>1681.169</ele>
        <time>2018-09-16T01:29:45Z</time>
      </trkpt>
      <trkpt lat="46.17676" lon="10.37661">
        <ele>1679.704</ele>
        <time>2018-09-16T01:30:05Z</time>
      </trkpt>
      <trkpt lat="46.17679" lon="10.3765">
        <ele>1680.024</ele>
        <time>2018-09-16T01:30:25Z</time>
      </trkpt>
      <trkpt lat="46.17681" lon="10.37644">
        <ele>1680.408</ele>
        <time>2018-09-16T01:30:45Z</time>
      </trkpt>
      <trkpt lat="46.17684" lon="10.37635">
        <ele>1680.678</ele>
        <time>2018-09-16T01:31:05Z</time>
      </trkpt>
      <trkpt lat="46.17686" lon="10.37622">
        <ele>1680.054</ele>
        <time>2018-09-16T01:31:25Z</time>
      </trkpt>
      <trkpt lat="46.17689" lon="10.3761">
        <ele>1679.661</ele>
        <time>2018-09-16T01:31:45Z</time>
      </trkpt>
      <trkpt lat="46.17697" lon="10.37591">
        <ele>1681.874</ele>
        <time>2018-09-16T01:32:05Z</time>
      </trkpt>
      <trkpt lat="46.17699" lon="10.37584">
        <ele>1682.217</ele>
        <time>2018-09-16T01:32:25Z</time>
      </trkpt>
      <trkpt lat="46.17702" lon="10.37576">
        <ele>1681.98</ele>
        <time>2018-09-16T01:32:45Z</time>
      </trkpt>
      <trkpt lat="46.17704" lon="10.37564">
        <ele>1680.498</ele>
        <time>2018-09-16T01:33:05Z</time>
      </trkpt>
      <trkpt lat="46.17705" lon="10.37549">
        <ele>1676.555</ele>
        <time>2018-09-16T01:33:25Z</time>
      </trkpt>
      <trkpt lat="46.17706" lon="10.37534">
        <ele>1672.447</ele>
        <time>2018-09-16T01:33:45Z</time>
      </trkpt>
      <trkpt lat="46.17707" lon="10.3752">
        <ele>1668.829</ele>
        <time>2018-09-16T01:34:05Z</time>
      </trkpt>
      <trkpt lat="46.1771" lon="10.37503">
        <ele>1664.921</ele>
        <time>2018-09-16T01:34:25Z</time>
      </trkpt>
      <trkpt lat="46.17713" lon="10.37489">
        <ele>1662.708</ele>
        <time>2018-09-16T01:34:45Z</time>
      </trkpt>
      <trkpt lat="46.17717" lon="10.37479">
        <ele>1661.616</ele>
        <time>2018-09-16T01:35:05Z</time>
      </trkpt>
      <trkpt lat="46.1772" lon="10.3747">
        <ele>1660.862</ele>
        <time>2018-09-16T01:35:25Z</time>
      </trkpt>
      <trkpt lat="46.17724" lon="10.37463">
        <ele>1661.069</ele>
        <time>2018-09-16T01:35:45Z</time>
      </trkpt>
      <trkpt lat="46.1773" lon="10.37456">
        <ele>1661.762</ele>
        <time>2018-09-16T01:36:05Z</time>
      </trkpt>
      <trkpt lat="46.17735" lon="10.37451">
        <ele>1663.025</ele>
        <time>2018-09-16T01:36:25Z</time>
      </trkpt>
      <trkpt lat="46.17738" lon="10.37444">
        <ele>1662.728</ele>
        <time>2018-09-16T01:36:45Z</time>
      </trkpt>
      <trkpt lat="46.1774" lon="10.37436">
        <ele>1662.396</ele>
        <time>2018-09-16T01:37:05Z</time>
      </trkpt>
      <trkpt lat="46.17744" lon="10.37425">
        <ele>1662.123</ele>
        <time>2018-09-16T01:37:25Z</time>
      </trkpt>
      <trkpt lat="46.17749" lon="10.37418">
        <ele>1663.794</ele>
        <time>2018-09-16T01:37:45Z</time>
      </trkpt>
      <trkpt lat="46.17754" lon="10.37413">
        <ele>1665.057</ele>
        <time>2018-09-16T01:38:05Z</time>
      </trkpt>
      <trkpt lat="46.1776" lon="10.37401">
        <ele>1665.622</ele>
        <time>2018-09-16T01:38:25Z</time>
      </trkpt>
      <trkpt lat="46.17762" lon="10.37393">
        <ele>1665.208</ele>
        <time>2018-09-16T01:38:45Z</time>
      </trkpt>
      <trkpt lat="46.17767" lon="10.3738">
        <ele>1664.411</ele>
        <time>2018-09-16T01:39:05Z</time>
      </trkpt>
      <trkpt lat="46.17771" lon="10.37371">
        <ele>1664.617</ele>
        <time>2018-09-16T01:39:25Z</time>
      </trkpt>
      <trkpt lat="46.17774" lon="10.37358">
        <ele>1662.754</ele>
        <time>2018-09-16T01:39:45Z</time>
      </trkpt>
      <trkpt lat="46.17776" lon="10.37343">
        <ele>1659.797</ele>
        <time>2018-09-16T01:40:05Z</time>
      </trkpt>
      <trkpt lat="46.17777" lon="10.37335">
        <ele>1658.76</ele>
        <time>2018-09-16T01:40:25Z</time>
      </trkpt>
      <trkpt lat="46.1778" lon="10.37322">
        <ele>1656.053</ele>
        <time>2018-09-16T01:40:45Z</time>
      </trkpt>
      <trkpt lat="46.17783" lon="10.37309">
        <ele>1653.531</ele>
        <time>2018-09-16T01:41:05Z</time>
      </trkpt>
      <trkpt lat="46.17788" lon="10.37299">
        <ele>1652.278</ele>
        <time>2018-09-16T01:41:25Z</time>
      </trkpt>
      <trkpt lat="46.17792" lon="10.37294">
        <ele>1652.026</ele>
        <time>2018-09-16T01:41:45Z</time>
      </trkpt>
      <trkpt lat="46.17796" lon="10.37282">
        <ele>1650.447</ele>
        <time>2018-09-16T01:42:05Z</time>
      </trkpt>
      <trkpt lat="46.17797" lon="10.37272">
        <ele>1648.011</ele>
        <time>2018-09-16T01:42:25Z</time>
      </trkpt>
      <trkpt lat="46.178" lon="10.37263">
        <ele>1646.908</ele>
        <time>2018-09-16T01:42:45Z</time>
      </trkpt>
      <trkpt lat="46.17804" lon="10.37253">
        <ele>1646.764</ele>
        <time>2018-09-16T01:43:05Z</time>
      </trkpt>
      <trkpt lat="46.17809" lon="10.37244">
        <ele>1646.52</ele>
        <time>2018-09-16T01:43:25Z</time>
      </trkpt>
      <trkpt lat="46.17812" lon="10.37234">
        <ele>1644.457</ele>
        <time>2018-09-16T01:43:45Z</time>
      </trkpt>
      <trkpt lat="46.17815" lon="10.37219">
        <ele>1641.61</ele>
        <time>2018-09-16T01:44:05Z</time>
      </trkpt>
      <trkpt lat="46.17836" lon="10.37118">
        <ele>1637.113</ele>
        <time>2018-09-16T01:44:25Z</time>
      </trkpt>
      <trkpt lat="46.17835" lon="10.37103">
        <ele>1633.596</ele>
        <time>2018-09-16T01:44:45Z</time>
      </trkpt>
      <trkpt lat="46.17833" lon="10.37089">
        <ele>1629.844</ele>
        <time>2018-09-16T01:45:05Z</time>
      </trkpt>
      <trkpt lat="46.17833" lon="10.37076">
        <ele>1626.721</ele>
        <time>2018-09-16T01:45:25Z</time>
      </trkpt>
      <trkpt lat="46.17835" lon="10.37062">
        <ele>1623.694</ele>
        <time>2018-09-16T01:45:45Z</time>
      </trkpt>
      <trkpt lat="46.17837" lon="10.3705">
        <ele>1621.957</ele>
        <time>2018-09-16T01:46:05Z</time>
      </trkpt>
      <trkpt lat="46.17838" lon="10.37037">
        <ele>1619.722</ele>
        <time>2018-09-16T01:46:25Z</time>
      </trkpt>
      <trkpt lat="46.17836" lon="10.37022">
        <ele>1614.908</ele>
        <time>2018-09-16T01:46:45Z</time>
      </trkpt>
      <trkpt lat="46.17835" lon="10.37003">
        <ele>1609.681</ele>
        <time>2018-09-16T01:47:05Z</time>
      </trkpt>
      <trkpt lat="46.17842" lon="10.36979">
        <ele>1606.297</ele>
        <time>2018-09-16T01:47:25Z</time>
      </trkpt>
      <trkpt lat="46.17845" lon="10.36972">
        <ele>1605.094</ele>
        <time>2018-09-16T01:47:45Z</time>
      </trkpt>
      <trkpt lat="46.17849" lon="10.36959">
        <ele>1602.037</ele>
        <time>2018-09-16T01:48:05Z</time>
      </trkpt>
      <trkpt lat="46.17854" lon="10.36945">
        <ele>1599.03</ele>
        <time>2018-09-16T01:48:25Z</time>
      </trkpt>
      <trkpt lat="46.17868" lon="10.36911">
        <ele>1591.393</ele>
        <time>2018-09-16T01:48:45Z</time>
      </trkpt>
      <trkpt lat="46.1788" lon="10.36893">
        <ele>1589.291</ele>
        <time>2018-09-16T01:49:05Z</time>
      </trkpt>
      <trkpt lat="46.1789" lon="10.36879">
        <ele>1588.058</ele>
        <time>2018-09-16T01:49:25Z</time>
      </trkpt>
      <trkpt lat="46.17901" lon="10.36861">
        <ele>1585.177</ele>
        <time>2018-09-16T01:49:45Z</time>
      </trkpt>
      <trkpt lat="46.17909" lon="10.36847">
        <ele>1581.761</ele>
        <time>2018-09-16T01:50:05Z</time>
      </trkpt>
      <trkpt lat="46.17917" lon="10.36838">
        <ele>1580.927</ele>
        <time>2018-09-16T01:50:25Z</time>
      </trkpt>
      <trkpt lat="46.17928" lon="10.36826">
        <ele>1577.108</ele>
        <time>2018-09-16T01:50:45Z</time>
      </trkpt>
      <trkpt lat="46.17935" lon="10.36814">
        <ele>1573.139</ele>
        <time>2018-09-16T01:51:05Z</time>
      </trkpt>
      <trkpt lat="46.17941" lon="10.36807">
        <ele>1571.825</ele>
        <time>2018-09-16T01:51:25Z</time>
      </trkpt>
      <trkpt lat="46.17949" lon="10.36795">
        <ele>1569.312</ele>
        <time>2018-09-16T01:51:45Z</time>
      </trkpt>
      <trkpt lat="46.17962" lon="10.36787">
        <ele>1569.755</ele>
        <time>2018-09-16T01:52:05Z</time>
      </trkpt>
      <trkpt lat="46.17967" lon="10.36784">
        <ele>1569.798</ele>
        <time>2018-09-16T01:52:25Z</time>
      </trkpt>
      <trkpt lat="46.17982" lon="10.36778">
        <ele>1572.971</ele>
        <time>2018-09-16T01:52:45Z</time>
      </trkpt>
      <trkpt lat="46.17985" lon="10.36777">
        <ele>1573.559</ele>
        <time>2018-09-16T01:53:05Z</time>
      </trkpt>
      <trkpt lat="46.17996" lon="10.3677">
        <ele>1575.516</ele>
        <time>2018-09-16T01:53:25Z</time>
      </trkpt>
      <trkpt lat="46.17998" lon="10.36769">
        <ele>1576.078</ele>
        <time>2018-09-16T01:53:45Z</time>
      </trkpt>
      <trkpt lat="46.18007" lon="10.36766">
        <ele>1578.033</ele>
        <time>2018-09-16T01:54:05Z</time>
      </trkpt>
      <trkpt lat="46.18015" lon="10.36756">
        <ele>1576.926</ele>
        <time>2018-09-16T01:54:25Z</time>
      </trkpt>
      <trkpt lat="46.18024" lon="10.36743">
        <ele>1575.408</ele>
        <time>2018-09-16T01:54:45Z</time>
      </trkpt>
      <trkpt lat="46.18024" lon="10.36742">
        <ele>1575.559</ele>
        <time>2018-09-16T01:55:05Z</time>
      </trkpt>
      <trkpt lat="46.18031" lon="10.36738">
        <ele>1576.625</ele>
        <time>2018-09-16T01:55:25Z</time>
      </trkpt>
      <trkpt lat="46.18054" lon="10.36736">
        <ele>1583.952</ele>
        <time>2018-09-16T01:55:45Z</time>
      </trkpt>
      <trkpt lat="46.18067" lon="10.3673">
        <ele>1586.475</ele>
        <time>2018-09-16T01:56:05Z</time>
      </trkpt>
      <trkpt lat="46.18078" lon="10.36727">
        <ele>1589.448</ele>
        <time>2018-09-16T01:56:25Z</time>
      </trkpt>
      <trkpt lat="46.18091" lon="10.36714">
        <ele>1589.521</ele>
        <time>2018-09-16T01:56:45Z</time>
      </trkpt>
      <trkpt lat="46.18098" lon="10.36689">
        <ele>1583.149</ele>
        <time>2018-09-16T01:57:05Z</time>
      </trkpt>
      <trkpt lat="46.18099" lon="10.36687">
        <ele>1582.966</ele>
        <time>2018-09-16T01:57:25Z</time>
      </trkpt>
      <trkpt lat="46.18104" lon="10.36682">
        <ele>1583.173</ele>
        <time>2018-09-16T01:57:45Z</time>
      </trkpt>
      <trkpt lat="46.18112" lon="10.36672">
        <ele>1582.785</ele>
        <time>2018-09-16T01:58:05Z</time>
      </trkpt>
      <trkpt lat="46.18116" lon="10.36667">
        <ele>1582.013</ele>
        <time>2018-09-16T01:58:25Z</time>
      </trkpt>
      <trkpt lat="46.1813" lon="10.36652">
        <ele>1579.808</ele>
        <time>2018-09-16T01:58:45Z</time>
      </trkpt>
      <trkpt lat="46.18167" lon="10.36612">
        <ele>1575.449</ele>
        <time>2018-09-16T01:59:05Z</time>
      </trkpt>
      <trkpt lat="46.18207" lon="10.36569">
        <ele>1566.995</ele>
        <time>2018-09-16T01:59:25Z</time>
      </trkpt>
      <trkpt lat="46.18231" lon="10.36545">
        <ele>1564.242</ele>
        <time>2018-09-16T01:59:45Z</time>
      </trkpt>
      <trkpt lat="46.18258" lon="10.36519">
        <ele>1561.065</ele>
        <time>2018-09-16T02:00:05Z</time>
      </trkpt>
      <trkpt lat="46.18268" lon="10.3651">
        <ele>1558.718</ele>
        <time>2018-09-16T02:00:25Z</time>
      </trkpt>
      <trkpt lat="46.18283" lon="10.36492">
        <ele>1553.741</ele>
        <time>2018-09-16T02:00:45Z</time>
      </trkpt>
      <trkpt lat="46.18299" lon="10.36475">
        <ele>1548.719</ele>
        <time>2018-09-16T02:01:05Z</time>
      </trkpt>
      <trkpt lat="46.18303" lon="10.36471">
        <ele>1547.556</ele>
        <time>2018-09-16T02:01:25Z</time>
      </trkpt>
      <trkpt lat="46.18308" lon="10.3647">
        <ele>1547.217</ele>
        <time>2018-09-16T02:01:45Z</time>
      </trkpt>
      <trkpt lat="46.18312" lon="10.36471">
        <ele>1547.287</ele>
        <time>2018-09-16T02:02:05Z</time>
      </trkpt>
      <trkpt lat="46.18316" lon="10.36472">
        <ele>1547.515</ele>
        <time>2018-09-16T02:02:25Z</time>
      </trkpt>
      <trkpt lat="46.18323" lon="10.36474">
        <ele>1548.008</ele>
        <time>2018-09-16T02:02:45Z</time>
      </trkpt>
      <trkpt lat="46.18329" lon="10.36477">
        <ele>1548.543</ele>
        <time>2018-09-16T02:03:05Z</time>
      </trkpt>
      <trkpt lat="46.18333" lon="10.36478">
        <ele>1548.579</ele>
        <time>2018-09-16T02:03:25Z</time>
      </trkpt>
      <trkpt lat="46.1835" lon="10.36478">
        <ele>1541.276</ele>
        <time>2018-09-16T02:03:45Z</time>
      </trkpt>
      <trkpt lat="46.18358" lon="10.36479">
        <ele>1538.029</ele>
        <time>2018-09-16T02:04:05Z</time>
      </trkpt>
      <trkpt lat="46.18365" lon="10.36483">
        <ele>1537.222</ele>
        <time>2018-09-16T02:04:25Z</time>
      </trkpt>
      <trkpt lat="46.1837" lon="10.36486">
        <ele>1536.435</ele>
        <time>2018-09-16T02:04:45Z</time>
      </trkpt>
      <trkpt lat="46.18376" lon="10.36492">
        <ele>1537.463</ele>
        <time>2018-09-16T02:05:05Z</time>
      </trkpt>
      <trkpt lat="46.1838" lon="10.365">
        <ele>1540.75</ele>
        <time>2018-09-16T02:05:25Z</time>
      </trkpt>
      <trkpt lat="46.18382" lon="10.36509">
        <ele>1543.053</ele>
        <time>2018-09-16T02:05:45Z</time>
      </trkpt>
      <trkpt lat="46.18391" lon="10.3656">
        <ele>1554.904</ele>
        <time>2018-09-16T02:06:05Z</time>
      </trkpt>
      <trkpt lat="46.18396" lon="10.36584">
        <ele>1556.714</ele>
        <time>2018-09-16T02:06:25Z</time>
      </trkpt>
      <trkpt lat="46.18399" lon="10.36592">
        <ele>1557.708</ele>
        <time>2018-09-16T02:06:45Z</time>
      </trkpt>
      <trkpt lat="46.18401" lon="10.36597">
        <ele>1558.237</ele>
        <time>2018-09-16T02:07:05Z</time>
      </trkpt>
      <trkpt lat="46.18404" lon="10.36599">
        <ele>1558.123</ele>
        <time>2018-09-16T02:07:25Z</time>
      </trkpt>
      <trkpt lat="46.18424" lon="10.36606">
        <ele>1553.97</ele>
        <time>2018-09-16T02:07:45Z</time>
      </trkpt>
      <trkpt lat="46.18437" lon="10.36615">
        <ele>1550.143</ele>
        <time>2018-09-16T02:08:05Z</time>
      </trkpt>
      <trkpt lat="46.18454" lon="10.36626">
        <ele>1546.046</ele>
        <time>2018-09-16T02:08:25Z</time>
      </trkpt>
      <trkpt lat="46.18457" lon="10.36628">
        <ele>1545.579</ele>
        <time>2018-09-16T02:08:45Z</time>
      </trkpt>
      <trkpt lat="46.18477" lon="10.36643">
        <ele>1541.637</ele>
        <time>2018-09-16T02:09:05Z</time>
      </trkpt>
      <trkpt lat="46.18496" lon="10.36665">
        <ele>1540.354</ele>
        <time>2018-09-16T02:09:25Z</time>
      </trkpt>
      <trkpt lat="46.18508" lon="10.36688">
        <ele>1540.079</ele>
        <time>2018-09-16T02:09:45Z</time>
      </trkpt>
      <trkpt lat="46.18519" lon="10.36714">
        <ele>1544.305</ele>
        <time>2018-09-16T02:10:05Z</time>
      </trkpt>
      <trkpt lat="46.18531" lon="10.36738">
        <ele>1548.525</ele>
        <time>2018-09-16T02:10:25Z</time>
      </trkpt>
      <trkpt lat="46.18553" lon="10.36764">
        <ele>1547.908</ele>
        <time>2018-09-16T02:10:45Z</time>
      </trkpt>
      <trkpt lat="46.18562" lon="10.3677">
        <ele>1544.999</ele>
        <time>2018-09-16T02:11:05Z</time>
      </trkpt>
      <trkpt lat="46.18576" lon="10.36779">
        <ele>1539.245</ele>
        <time>2018-09-16T02:11:25Z</time>
      </trkpt>
      <trkpt lat="46.18588" lon="10.36786">
        <ele>1536.022</ele>
        <time>2018-09-16T02:11:45Z</time>
      </trkpt>
      <trkpt lat="46.18594" lon="10.36804">
        <ele>1542.285</ele>
        <time>2018-09-16T02:12:05Z</time>
      </trkpt>
      <trkpt lat="46.18595" lon="10.3683">
        <ele>1551.038</ele>
        <time>2018-09-16T02:12:25Z</time>
      </trkpt>
      <trkpt lat="46.18607" lon="10.36866">
        <ele>1568.141</ele>
        <time>2018-09-16T02:12:45Z</time>
      </trkpt>
      <trkpt lat="46.18619" lon="10.36868">
        <ele>1572.649</ele>
        <time>2018-09-16T02:13:05Z</time>
      </trkpt>
      <trkpt lat="46.1862" lon="10.36868">
        <ele>1573.586</ele>
        <time>2018-09-16T02:13:25Z</time>
      </trkpt>
      <trkpt lat="46.18626" lon="10.36864">
        <ele>1574.635</ele>
        <time>2018-09-16T02:13:45Z</time>
      </trkpt>
      <trkpt lat="46.18642" lon="10.36853">
        <ele>1577.486</ele>
        <time>2018-09-16T02:14:05Z</time>
      </trkpt>
      <trkpt lat="46.18658" lon="10.36844">
        <ele>1578.914</ele>
        <time>2018-09-16T02:14:25Z</time>
      </trkpt>
      <trkpt lat="46.18677" lon="10.36834">
        <ele>1583.608</ele>
        <time>2018-09-16T02:14:45Z</time>
      </trkpt>
      <trkpt lat="46.18694" lon="10.36811">
        <ele>1578.175</ele>
        <time>2018-09-16T02:15:05Z</time>
      </trkpt>
      <trkpt lat="46.18703" lon="10.36788">
        <ele>1569.641</ele>
        <time>2018-09-16T02:15:25Z</time>
      </trkpt>
      <trkpt lat="46.18715" lon="10.3677">
        <ele>1564.628</ele>
        <time>2018-09-16T02:15:45Z</time>
      </trkpt>
      <trkpt lat="46.18731" lon="10.36766">
        <ele>1565.111</ele>
        <time>2018-09-16T02:16:05Z</time>
      </trkpt>
      <trkpt lat="46.1876" lon="10.36764">
        <ele>1566.364</ele>
        <time>2018-09-16T02:16:25Z</time>
      </trkpt>
      <trkpt lat="46.1878" lon="10.36765">
        <ele>1567.927</ele>
        <time>2018-09-16T02:16:45Z</time>
      </trkpt>
      <trkpt lat="46.18797" lon="10.36753">
        <ele>1565.335</ele>
        <time>2018-09-16T02:17:05Z</time>
      </trkpt>
      <trkpt lat="46.18823" lon="10.36746">
        <ele>1565.672</ele>
        <time>2018-09-16T02:17:25Z</time>
      </trkpt>
      <trkpt lat="46.18829" lon="10.36745">
        <ele>1565.793</ele>
        <time>2018-09-16T02:17:45Z</time>
      </trkpt>
      <trkpt lat="46.18835" lon="10.36741">
        <ele>1565.365</ele>
        <time>2018-09-16T02:18:05Z</time>
      </trkpt>
      <trkpt lat="46.18848" lon="10.36735">
        <ele>1564.921</ele>
        <time>2018-09-16T02:18:25Z</time>
      </trkpt>
      <trkpt lat="46.1885" lon="10.36728">
        <ele>1563.608</ele>
        <time>2018-09-16T02:18:45Z</time>
      </trkpt>
      <trkpt lat="46.18852" lon="10.36722">
        <ele>1562.291</ele>
        <time>2018-09-16T02:19:05Z</time>
      </trkpt>
      <trkpt lat="46.18856" lon="10.36708">
        <ele>1558.997</ele>
        <time>2018-09-16T02:19:25Z</time>
      </trkpt>
      <trkpt lat="46.18858" lon="10.36701">
        <ele>1557.374</ele>
        <time>2018-09-16T02:19:45Z</time>
      </trkpt>
      <trkpt lat="46.18873" lon="10.36674">
        <ele>1555.327</ele>
        <time>2018-09-16T02:20:05Z</time>
      </trkpt>
      <trkpt lat="46.18881" lon="10.3665">
        <ele>1553.85</ele>
        <time>2018-09-16T02:20:25Z</time>
      </trkpt>
      <trkpt lat="46.1888" lon="10.36622">
        <ele>1548.893</ele>
        <time>2018-09-16T02:20:45Z</time>
      </trkpt>
      <trkpt lat="46.18879" lon="10.36611">
        <ele>1547.181</ele>
        <time>2018-09-16T02:21:05Z</time>
      </trkpt>
      <trkpt lat="46.18879" lon="10.36594">
        <ele>1542.628</ele>
        <time>2018-09-16T02:21:25Z</time>
      </trkpt>
      <trkpt lat="46.18883" lon="10.36572">
        <ele>1538.376</ele>
        <time>2018-09-16T02:21:45Z</time>
      </trkpt>
      <trkpt lat="46.18884" lon="10.36569">
        <ele>1537.79</ele>
        <time>2018-09-16T02:22:05Z</time>
      </trkpt>
      <trkpt lat="46.18886" lon="10.36562">
        <ele>1536.819</ele>
        <time>2018-09-16T02:22:25Z</time>
      </trkpt>
      <trkpt lat="46.18892" lon="10.36542">
        <ele>1531.208</ele>
        <time>2018-09-16T02:22:45Z</time>
      </trkpt>
      <trkpt lat="46.18897" lon="10.36529">
        <ele>1527.449</ele>
        <time>2018-09-16T02:23:05Z</time>
      </trkpt>
      <trkpt lat="46.18898" lon="10.36524">
        <ele>1526.775</ele>
        <time>2018-09-16T02:23:25Z</time>
      </trkpt>
      <trkpt lat="46.18902" lon="10.36512">
        <ele>1525.162</ele>
        <time>2018-09-16T02:23:45Z</time>
      </trkpt>
      <trkpt lat="46.18904" lon="10.36507">
        <ele>1524.715</ele>
        <time>2018-09-16T02:24:05Z</time>
      </trkpt>
      <trkpt lat="46.1891" lon="10.36487">
        <ele>1521.778</ele>
        <time>2018-09-16T02:24:25Z</time>
      </trkpt>
      <trkpt lat="46.18916" lon="10.3646">
        <ele>1514.661</ele>
        <time>2018-09-16T02:24:45Z</time>
      </trkpt>
      <trkpt lat="46.18916" lon="10.36458">
        <ele>1514.339</ele>
        <time>2018-09-16T02:25:05Z</time>
      </trkpt>
      <trkpt lat="46.18923" lon="10.36435">
        <ele>1508.496</ele>
        <time>2018-09-16T02:25:25Z</time>
      </trkpt>
      <trkpt lat="46.18926" lon="10.36425">
        <ele>1505.915</ele>
        <time>2018-09-16T02:25:45Z</time>
      </trkpt>
      <trkpt lat="46.18934" lon="10.36403">
        <ele>1500.265</ele>
        <time>2018-09-16T02:26:05Z</time>
      </trkpt>
      <trkpt lat="46.18941" lon="10.36388">
        <ele>1496.411</ele>
        <time>2018-09-16T02:26:25Z</time>
      </trkpt>
      <trkpt lat="46.18957" lon="10.36377">
        <ele>1493.308</ele>
        <time>2018-09-16T02:26:45Z</time>
      </trkpt>
      <trkpt lat="46.18964" lon="10.36374">
        <ele>1491.973</ele>
        <time>2018-09-16T02:27:05Z</time>
      </trkpt>
      <trkpt lat="46.18972" lon="10.36369">
        <ele>1490.089</ele>
        <time>2018-09-16T02:27:25Z</time>
      </trkpt>
      <trkpt lat="46.18992" lon="10.3635">
        <ele>1483.296</ele>
        <time>2018-09-16T02:27:45Z</time>
      </trkpt>
      <trkpt lat="46.19013" lon="10.36329">
        <ele>1476.619</ele>
        <time>2018-09-16T02:28:05Z</time>
      </trkpt>
      <trkpt lat="46.19035" lon="10.36315">
        <ele>1471.822</ele>
        <time>2018-09-16T02:28:25Z</time>
      </trkpt>
      <trkpt lat="46.19053" lon="10.36294">
        <ele>1464.965</ele>
        <time>2018-09-16T02:28:45Z</time>
      </trkpt>
      <trkpt lat="46.19071" lon="10.36281">
        <ele>1457.853</ele>
        <time>2018-09-16T02:29:05Z</time>
      </trkpt>
      <trkpt lat="46.19111" lon="10.36266">
        <ele>1446.64</ele>
        <time>2018-09-16T02:29:25Z</time>
      </trkpt>
      <trkpt lat="46.1915" lon="10.36258">
        <ele>1440.293</ele>
        <time>2018-09-16T02:29:45Z</time>
      </trkpt>
      <trkpt lat="46.19175" lon="10.36264">
        <ele>1439.665</ele>
        <time>2018-09-16T02:30:05Z</time>
      </trkpt>
      <trkpt lat="46.19214" lon="10.36263">
        <ele>1435.021</ele>
        <time>2018-09-16T02:30:25Z</time>
      </trkpt>
      <trkpt lat="46.19243" lon="10.36253">
        <ele>1426.908</ele>
        <time>2018-09-16T02:30:45Z</time>
      </trkpt>
      <trkpt lat="46.19263" lon="10.36255">
        <ele>1420.461</ele>
        <time>2018-09-16T02:31:05Z</time>
      </trkpt>
      <trkpt lat="46.1928" lon="10.3625">
        <ele>1411.197</ele>
        <time>2018-09-16T02:31:25Z</time>
      </trkpt>
      <trkpt lat="46.19318" lon="10.36248">
        <ele>1400.494</ele>
        <time>2018-09-16T02:31:45Z</time>
      </trkpt>
      <trkpt lat="46.19333" lon="10.36255">
        <ele>1398.457</ele>
        <time>2018-09-16T02:32:05Z</time>
      </trkpt>
      <trkpt lat="46.19363" lon="10.36261">
        <ele>1393.98</ele>
        <time>2018-09-16T02:32:25Z</time>
      </trkpt>
      <trkpt lat="46.19397" lon="10.36269">
        <ele>1390.563</ele>
        <time>2018-09-16T02:32:45Z</time>
      </trkpt>
      <trkpt lat="46.19425" lon="10.36252">
        <ele>1384.781</ele>
        <time>2018-09-16T02:33:05Z</time>
      </trkpt>
      <trkpt lat="46.19454" lon="10.36244">
        <ele>1380.558</ele>
        <time>2018-09-16T02:33:25Z</time>
      </trkpt>
      <trkpt lat="46.19476" lon="10.36258">
        <ele>1379.416</ele>
        <time>2018-09-16T02:33:45Z</time>
      </trkpt>
      <trkpt lat="46.19507" lon="10.36271">
        <ele>1375.376</ele>
        <time>2018-09-16T02:34:05Z</time>
      </trkpt>
      <trkpt lat="46.1952" lon="10.363">
        <ele>1376.713</ele>
        <time>2018-09-16T02:34:25Z</time>
      </trkpt>
      <trkpt lat="46.1953" lon="10.36313">
        <ele>1376.108</ele>
        <time>2018-09-16T02:34:45Z</time>
      </trkpt>
      <trkpt lat="46.19541" lon="10.36317">
        <ele>1372.883</ele>
        <time>2018-09-16T02:35:05Z</time>
      </trkpt>
      <trkpt lat="46.19551" lon="10.36309">
        <ele>1368.199</ele>
        <time>2018-09-16T02:35:25Z</time>
      </trkpt>
      <trkpt lat="46.19556" lon="10.36306">
        <ele>1365.836</ele>
        <time>2018-09-16T02:35:45Z</time>
      </trkpt>
      <trkpt lat="46.19557" lon="10.36306">
        <ele>1365.799</ele>
        <time>2018-09-16T02:36:05Z</time>
      </trkpt>
      <trkpt lat="46.19571" lon="10.36306">
        <ele>1361.612</ele>
        <time>2018-09-16T02:36:25Z</time>
      </trkpt>
      <trkpt lat="46.19582" lon="10.36313">
        <ele>1359.945</ele>
        <time>2018-09-16T02:36:45Z</time>
      </trkpt>
      <trkpt lat="46.1959" lon="10.36327">
        <ele>1357.883</ele>
        <time>2018-09-16T02:37:05Z</time>
      </trkpt>
      <trkpt lat="46.19601" lon="10.36345">
        <ele>1352.62</ele>
        <time>2018-09-16T02:37:25Z</time>
      </trkpt>
      <trkpt lat="46.19611" lon="10.36348">
        <ele>1345.987</ele>
        <time>2018-09-16T02:37:45Z</time>
      </trkpt>
      <trkpt lat="46.19617" lon="10.3634">
        <ele>1343.542</ele>
        <time>2018-09-16T02:38:05Z</time>
      </trkpt>
      <trkpt lat="46.19627" lon="10.36322">
        <ele>1339.126</ele>
        <time>2018-09-16T02:38:25Z</time>
      </trkpt>
      <trkpt lat="46.19634" lon="10.36305">
        <ele>1335.008</ele>
        <time>2018-09-16T02:38:45Z</time>
      </trkpt>
      <trkpt lat="46.19625" lon="10.3626">
        <ele>1331.81</ele>
        <time>2018-09-16T02:39:05Z</time>
      </trkpt>
      <trkpt lat="46.1962" lon="10.36245">
        <ele>1330.696</ele>
        <time>2018-09-16T02:39:25Z</time>
      </trkpt>
      <trkpt lat="46.19605" lon="10.36216">
        <ele>1330.853</ele>
        <time>2018-09-16T02:39:45Z</time>
      </trkpt>
      <trkpt lat="46.19594" lon="10.36203">
        <ele>1332.976</ele>
        <time>2018-09-16T02:40:05Z</time>
      </trkpt>
      <trkpt lat="46.19583" lon="10.36187">
        <ele>1333.019</ele>
        <time>2018-09-16T02:40:25Z</time>
      </trkpt>
      <trkpt lat="46.19571" lon="10.3617">
        <ele>1330.662</ele>
        <time>2018-09-16T02:40:45Z</time>
      </trkpt>
      <trkpt lat="46.19545" lon="10.36129">
        <ele>1324.41</ele>
        <time>2018-09-16T02:41:05Z</time>
      </trkpt>
      <trkpt lat="46.19531" lon="10.36116">
        <ele>1323.357</ele>
        <time>2018-09-16T02:41:25Z</time>
      </trkpt>
      <trkpt lat="46.19504" lon="10.36099">
        <ele>1322.016</ele>
        <time>2018-09-16T02:41:45Z</time>
      </trkpt>
      <trkpt lat="46.1949" lon="10.36089">
        <ele>1320.876</ele>
        <time>2018-09-16T02:42:05Z</time>
      </trkpt>
      <trkpt lat="46.19488" lon="10.36084">
        <ele>1320.113</ele>
        <time>2018-09-16T02:42:25Z</time>
      </trkpt>
      <trkpt lat="46.19484" lon="10.36062">
        <ele>1316.908</ele>
        <time>2018-09-16T02:42:45Z</time>
      </trkpt>
      <trkpt lat="46.19485" lon="10.36037">
        <ele>1313.283</ele>
        <time>2018-09-16T02:43:05Z</time>
      </trkpt>
      <trkpt lat="46.19484" lon="10.36014">
        <ele>1310.019</ele>
        <time>2018-09-16T02:43:25Z</time>
      </trkpt>
      <trkpt lat="46.19479" lon="10.35994">
        <ele>1307.116</ele>
        <time>2018-09-16T02:43:45Z</time>
      </trkpt>
      <trkpt lat="46.19471" lon="10.35977">
        <ele>1304.629</ele>
        <time>2018-09-16T02:44:05Z</time>
      </trkpt>
      <trkpt lat="46.19457" lon="10.35964">
        <ele>1302.892</ele>
        <time>2018-09-16T02:44:25Z</time>
      </trkpt>
      <trkpt lat="46.19444" lon="10.3596">
        <ele>1302.165</ele>
        <time>2018-09-16T02:44:45Z</time>
      </trkpt>
      <trkpt lat="46.19432" lon="10.35959">
        <ele>1302.593</ele>
        <time>2018-09-16T02:45:05Z</time>
      </trkpt>
      <trkpt lat="46.19424" lon="10.35949">
        <ele>1301.38</ele>
        <time>2018-09-16T02:45:25Z</time>
      </trkpt>
      <trkpt lat="46.19423" lon="10.35928">
        <ele>1294.112</ele>
        <time>2018-09-16T02:45:45Z</time>
      </trkpt>
      <trkpt lat="46.19421" lon="10.35909">
        <ele>1285.332</ele>
        <time>2018-09-16T02:46:05Z</time>
      </trkpt>
      <trkpt lat="46.19408" lon="10.35891">
        <ele>1278.905</ele>
        <time>2018-09-16T02:46:25Z</time>
      </trkpt>
      <trkpt lat="46.19383" lon="10.35866">
        <ele>1272.508</ele>
        <time>2018-09-16T02:46:45Z</time>
      </trkpt>
      <trkpt lat="46.1935" lon="10.35847">
        <ele>1268.363</ele>
        <time>2018-09-16T02:47:05Z</time>
      </trkpt>
      <trkpt lat="46.19333" lon="10.3584">
        <ele>1264.939</ele>
        <time>2018-09-16T02:47:25Z</time>
      </trkpt>
      <trkpt lat="46.19315" lon="10.35832">
        <ele>1257.896</ele>
        <time>2018-09-16T02:47:45Z</time>
      </trkpt>
      <trkpt lat="46.19313" lon="10.35831">
        <ele>1256.769</ele>
        <time>2018-09-16T02:48:05Z</time>
      </trkpt>
      <trkpt lat="46.19272" lon="10.35783">
        <ele>1231.152</ele>
        <time>2018-09-16T02:48:25Z</time>
      </trkpt>
      <trkpt lat="46.19263" lon="10.35772">
        <ele>1225.995</ele>
        <time>2018-09-16T02:48:45Z</time>
      </trkpt>
      <trkpt lat="46.19253" lon="10.35763">
        <ele>1222.983</ele>
        <time>2018-09-16T02:49:05Z</time>
      </trkpt>
      <trkpt lat="46.1924" lon="10.35757">
        <ele>1221.04</ele>
        <time>2018-09-16T02:49:25Z</time>
      </trkpt>
      <trkpt lat="46.1923" lon="10.35746">
        <ele>1217.021</ele>
        <time>2018-09-16T02:49:45Z</time>
      </trkpt>
      <trkpt lat="46.1922" lon="10.35736">
        <ele>1214.241</ele>
        <time>2018-09-16T02:50:05Z</time>
      </trkpt>
      <trkpt lat="46.19214" lon="10.35715">
        <ele>1207.805</ele>
        <time>2018-09-16T02:50:25Z</time>
      </trkpt>
      <trkpt lat="46.19199" lon="10.35678">
        <ele>1196.908</ele>
        <time>2018-09-16T02:50:45Z</time>
      </trkpt>
      <trkpt lat="46.19196" lon="10.35672">
        <ele>1195.364</ele>
        <time>2018-09-16T02:51:05Z</time>
      </trkpt>
      <trkpt lat="46.19177" lon="10.35632">
        <ele>1187.94</ele>
        <time>2018-09-16T02:51:25Z</time>
      </trkpt>
      <trkpt lat="46.19169" lon="10.35616">
        <ele>1184.997</ele>
        <time>2018-09-16T02:51:45Z</time>
      </trkpt>
      <trkpt lat="46.19158" lon="10.3559">
        <ele>1178.61</ele>
        <time>2018-09-16T02:52:05Z</time>
      </trkpt>
      <trkpt lat="46.19144" lon="10.35565">
        <ele>1170.853</ele>
        <time>2018-09-16T02:52:25Z</time>
      </trkpt>
      <trkpt lat="46.19128" lon="10.35547">
        <ele>1168.786</ele>
        <time>2018-09-16T02:52:45Z</time>
      </trkpt>
      <trkpt lat="46.19115" lon="10.35531">
        <ele>1167.414</ele>
        <time>2018-09-16T02:53:05Z</time>
      </trkpt>
      <trkpt lat="46.19108" lon="10.35512">
        <ele>1161.331</ele>
        <time>2018-09-16T02:53:25Z</time>
      </trkpt>
      <trkpt lat="46.19093" lon="10.35483">
        <ele>1154.594</ele>
        <time>2018-09-16T02:53:45Z</time>
      </trkpt>
      <trkpt lat="46.19088" lon="10.35474">
        <ele>1153.357</ele>
        <time>2018-09-16T02:54:05Z</time>
      </trkpt>
      <trkpt lat="46.19087" lon="10.35473">
        <ele>1153.322</ele>
        <time>2018-09-16T02:54:25Z</time>
      </trkpt>
      <trkpt lat="46.19084" lon="10.35444">
        <ele>1146.708</ele>
        <time>2018-09-16T02:54:45Z</time>
      </trkpt>
      <trkpt lat="46.19084" lon="10.35421">
        <ele>1141.961</ele>
        <time>2018-09-16T02:55:05Z</time>
      </trkpt>
      <trkpt lat="46.19081" lon="10.354">
        <ele>1137.937</ele>
        <time>2018-09-16T02:55:25Z</time>
      </trkpt>
      <trkpt lat="46.19078" lon="10.35384">
        <ele>1135.254</ele>
        <time>2018-09-16T02:55:45Z</time>
      </trkpt>
      <trkpt lat="46.19076" lon="10.35364">
        <ele>1131.147</ele>
        <time>2018-09-16T02:56:05Z</time>
      </trkpt>
      <trkpt lat="46.19072" lon="10.35348">
        <ele>1127.93</ele>
        <time>2018-09-16T02:56:25Z</time>
      </trkpt>
      <trkpt lat="46.19063" lon="10.35313">
        <ele>1118.473</ele>
        <time>2018-09-16T02:56:45Z</time>
      </trkpt>
      <trkpt lat="46.1906" lon="10.35305">
        <ele>1116.331</ele>
        <time>2018-09-16T02:57:05Z</time>
      </trkpt>
      <trkpt lat="46.19052" lon="10.35295">
        <ele>1114.068</ele>
        <time>2018-09-16T02:57:25Z</time>
      </trkpt>
      <trkpt lat="46.19035" lon="10.35293">
        <ele>1115.249</ele>
        <time>2018-09-16T02:57:45Z</time>
      </trkpt>
      <trkpt lat="46.19026" lon="10.35287">
        <ele>1114.502</ele>
        <time>2018-09-16T02:58:05Z</time>
      </trkpt>
      <trkpt lat="46.19003" lon="10.35274">
        <ele>1111.222</ele>
        <time>2018-09-16T02:58:25Z</time>
      </trkpt>
      <trkpt lat="46.18989" lon="10.35266">
        <ele>1109.208</ele>
        <time>2018-09-16T02:58:45Z</time>
      </trkpt>
      <trkpt lat="46.18979" lon="10.35258">
        <ele>1107.136</ele>
        <time>2018-09-16T02:59:05Z</time>
      </trkpt>
      <trkpt lat="46.18967" lon="10.35243">
        <ele>1102.352</ele>
        <time>2018-09-16T02:59:25Z</time>
      </trkpt>
      <trkpt lat="46.18957" lon="10.35225">
        <ele>1097.039</ele>
        <time>2018-09-16T02:59:45Z</time>
      </trkpt>
      <trkpt lat="46.18948" lon="10.35207">
        <ele>1092.392</ele>
        <time>2018-09-16T03:00:05Z</time>
      </trkpt>
      <trkpt lat="46.18931" lon="10.35194">
        <ele>1089.945</ele>
        <time>2018-09-16T03:00:25Z</time>
      </trkpt>
      <trkpt lat="46.18921" lon="10.35187">
        <ele>1088.458</ele>
        <time>2018-09-16T03:00:45Z</time>
      </trkpt>
      <trkpt lat="46.18918" lon="10.35182">
        <ele>1087.236</ele>
        <time>2018-09-16T03:01:05Z</time>
      </trkpt>
      <trkpt lat="46.18916" lon="10.35179">
        <ele>1086.413</ele>
        <time>2018-09-16T03:01:25Z</time>
      </trkpt>
      <trkpt lat="46.18932" lon="10.35172">
        <ele>1082.941</ele>
        <time>2018-09-16T03:01:45Z</time>
      </trkpt>
      <trkpt lat="46.18957" lon="10.35175">
        <ele>1081.481</ele>
        <time>2018-09-16T03:02:05Z</time>
      </trkpt>
      <trkpt lat="46.18994" lon="10.35181">
        <ele>1078.309</ele>
        <time>2018-09-16T03:02:25Z</time>
      </trkpt>
      <trkpt lat="46.19009" lon="10.3518">
        <ele>1075.208</ele>
        <time>2018-09-16T03:02:45Z</time>
      </trkpt>
      <trkpt lat="46.19027" lon="10.35178">
        <ele>1070.296</ele>
        <time>2018-09-16T03:03:05Z</time>
      </trkpt>
      <trkpt lat="46.19029" lon="10.35178">
        <ele>1069.482</ele>
        <time>2018-09-16T03:03:25Z</time>
      </trkpt>
      <trkpt lat="46.19033" lon="10.35182">
        <ele>1070.429</ele>
        <time>2018-09-16T03:03:45Z</time>
      </trkpt>
      <trkpt lat="46.1905" lon="10.35178">
        <ele>1063.232</ele>
        <time>2018-09-16T03:04:05Z</time>
      </trkpt>
      <trkpt lat="46.19055" lon="10.35179">
        <ele>1062.675</ele>
        <time>2018-09-16T03:04:25Z</time>
      </trkpt>
      <trkpt lat="46.19069" lon="10.35191">
        <ele>1066.488</ele>
        <time>2018-09-16T03:04:45Z</time>
      </trkpt>
      <trkpt lat="46.19093" lon="10.352">
        <ele>1065.316</ele>
        <time>2018-09-16T03:05:05Z</time>
      </trkpt>
      <trkpt lat="46.1911" lon="10.35206">
        <ele>1063.713</ele>
        <time>2018-09-16T03:05:25Z</time>
      </trkpt>
      <trkpt lat="46.19117" lon="10.35204">
        <ele>1061.857</ele>
        <time>2018-09-16T03:05:45Z</time>
      </trkpt>
      <trkpt lat="46.19109" lon="10.35181">
        <ele>1051.6</ele>
        <time>2018-09-16T03:06:05Z</time>
      </trkpt>
      <trkpt lat="46.19094" lon="10.35152">
        <ele>1041.62</ele>
        <time>2018-09-16T03:06:25Z</time>
      </trkpt>
      <trkpt lat="46.19033" lon="10.35034">
        <ele>1016.208</ele>
        <time>2018-09-16T03:06:45Z</time>
      </trkpt>
      <trkpt lat="46.19008" lon="10.34998">
        <ele>1009.197</ele>
        <time>2018-09-16T03:07:05Z</time>
      </trkpt>
      <trkpt lat="46.18969" lon="10.34964">
        <ele>1005.863</ele>
        <time>2018-09-16T03:07:25Z</time>
      </trkpt>
      <trkpt lat="46.18918" lon="10.34929">
        <ele>997.12</ele>
        <time>2018-09-16T03:07:45Z</time>
      </trkpt>
      <trkpt lat="46.1888" lon="10.34897">
        <ele>991.263</ele>
        <time>2018-09-16T03:08:05Z</time>
      </trkpt>
      <trkpt lat="46.18873" lon="10.34871">
        <ele>981.946</ele>
        <time>2018-09-16T03:08:25Z</time>
      </trkpt>
      <trkpt lat="46.18859" lon="10.34861">
        <ele>981.429</ele>
        <time>2018-09-16T03:08:45Z</time>
      </trkpt>
      <trkpt lat="46.18852" lon="10.34858">
        <ele>981.867</ele>
        <time>2018-09-16T03:09:05Z</time>
      </trkpt>
      <trkpt lat="46.18845" lon="10.34846">
        <ele>979.644</ele>
        <time>2018-09-16T03:09:25Z</time>
      </trkpt>
      <trkpt lat="46.18831" lon="10.34829">
        <ele>977.016</ele>
        <time>2018-09-16T03:09:45Z</time>
      </trkpt>
      <trkpt lat="46.18811" lon="10.34811">
        <ele>973.976</ele>
        <time>2018-09-16T03:10:05Z</time>
      </trkpt>
      <trkpt lat="46.188" lon="10.348">
        <ele>972.013</ele>
        <time>2018-09-16T03:10:25Z</time>
      </trkpt>
      <trkpt lat="46.18791" lon="10.34787">
        <ele>970.008</ele>
        <time>2018-09-16T03:10:45Z</time>
      </trkpt>
      <trkpt lat="46.18789" lon="10.3478">
        <ele>968.643</ele>
        <time>2018-09-16T03:11:05Z</time>
      </trkpt>
      <trkpt lat="46.18779" lon="10.34761">
        <ele>963.759</ele>
        <time>2018-09-16T03:11:25Z</time>
      </trkpt>
      <trkpt lat="46.18767" lon="10.34743">
        <ele>959.876</ele>
        <time>2018-09-16T03:11:45Z</time>
      </trkpt>
      <trkpt lat="46.18757" lon="10.34735">
        <ele>959.399</ele>
        <time>2018-09-16T03:12:05Z</time>
      </trkpt>
      <trkpt lat="46.18742" lon="10.34725">
        <ele>957.712</ele>
        <time>2018-09-16T03:12:25Z</time>
      </trkpt>
      <trkpt lat="46.18725" lon="10.34716">
        <ele>955.825</ele>
        <time>2018-09-16T03:12:45Z</time>
      </trkpt>
      <trkpt lat="46.18724" lon="10.34716">
        <ele>955.873</ele>
        <time>2018-09-16T03:13:05Z</time>
      </trkpt>
      <trkpt lat="46.18713" lon="10.34717">
        <ele>955.14</ele>
        <time>2018-09-16T03:13:25Z</time>
      </trkpt>
      <trkpt lat="46.18695" lon="10.34714">
        <ele>952.849</ele>
        <time>2018-09-16T03:13:45Z</time>
      </trkpt>
      <trkpt lat="46.18684" lon="10.34708">
        <ele>950.702</ele>
        <time>2018-09-16T03:14:05Z</time>
      </trkpt>
      <trkpt lat="46.18679" lon="10.34698">
        <ele>948.722</ele>
        <time>2018-09-16T03:14:25Z</time>
      </trkpt>
      <trkpt lat="46.18677" lon="10.34682">
        <ele>944.408</ele>
        <time>2018-09-16T03:14:45Z</time>
      </trkpt>
      <trkpt lat="46.18682" lon="10.34662">
        <ele>938.396</ele>
        <time>2018-09-16T03:15:05Z</time>
      </trkpt>
      <trkpt lat="46.18696" lon="10.34643">
        <ele>930.252</ele>
        <time>2018-09-16T03:15:25Z</time>
      </trkpt>
      <trkpt lat="46.18715" lon="10.34616">
        <ele>914.969</ele>
        <time>2018-09-16T03:15:45Z</time>
      </trkpt>
      <trkpt lat="46.18727" lon="10.34603">
        <ele>906.842</ele>
        <time>2018-09-16T03:16:05Z</time>
      </trkpt>
      <trkpt lat="46.18738" lon="10.34605">
        <ele>905.175</ele>
        <time>2018-09-16T03:16:25Z</time>
      </trkpt>
      <trkpt lat="46.18744" lon="10.34597">
        <ele>900.138</ele>
        <time>2018-09-16T03:16:45Z</time>
      </trkpt>
      <trkpt lat="46.18746" lon="10.34585">
        <ele>894.076</ele>
        <time>2018-09-16T03:17:05Z</time>
      </trkpt>
      <trkpt lat="46.18738" lon="10.34567">
        <ele>886.883</ele>
        <time>2018-09-16T03:17:25Z</time>
      </trkpt>
      <trkpt lat="46.1871" lon="10.34548">
        <ele>882.096</ele>
        <time>2018-09-16T03:17:45Z</time>
      </trkpt>
      <trkpt lat="46.18685" lon="10.3453">
        <ele>876.731</ele>
        <time>2018-09-16T03:18:05Z</time>
      </trkpt>
      <trkpt lat="46.18665" lon="10.3452">
        <ele>874.724</ele>
        <time>2018-09-16T03:18:25Z</time>
      </trkpt>
      <trkpt lat="46.18638" lon="10.3451">
        <ele>875.508</ele>
        <time>2018-09-16T03:18:45Z</time>
      </trkpt>
      <trkpt lat="46.18615" lon="10.34503">
        <ele>873.351</ele>
        <time>2018-09-16T03:19:05Z</time>
      </trkpt>
      <trkpt lat="46.18603" lon="10.34506">
        <ele>873.857</ele>
        <time>2018-09-16T03:19:25Z</time>
      </trkpt>
      <trkpt lat="46.18584" lon="10.34518">
        <ele>876.544</ele>
        <time>2018-09-16T03:19:45Z</time>
      </trkpt>
      <trkpt lat="46.18573" lon="10.34522">
        <ele>875.017</ele>
        <time>2018-09-16T03:20:05Z</time>
      </trkpt>
      <trkpt lat="46.18555" lon="10.34522">
        <ele>869.19</ele>
        <time>2018-09-16T03:20:25Z</time>
      </trkpt>
      <trkpt lat="46.18536" lon="10.34528">
        <ele>867.493</ele>
        <time>2018-09-16T03:20:45Z</time>
      </trkpt>
      <trkpt lat="46.18523" lon="10.34538">
        <ele>867.571</ele>
        <time>2018-09-16T03:21:05Z</time>
      </trkpt>
      <trkpt lat="46.18511" lon="10.34544">
        <ele>866.678</ele>
        <time>2018-09-16T03:21:25Z</time>
      </trkpt>
      <trkpt lat="46.18499" lon="10.34538">
        <ele>863.482</ele>
        <time>2018-09-16T03:21:45Z</time>
      </trkpt>
      <trkpt lat="46.18484" lon="10.34522">
        <ele>859.643</ele>
        <time>2018-09-16T03:22:05Z</time>
      </trkpt>
      <trkpt lat="46.18477" lon="10.34505">
        <ele>856.917</ele>
        <time>2018-09-16T03:22:25Z</time>
      </trkpt>
      <trkpt lat="46.18476" lon="10.34498">
        <ele>855.808</ele>
        <time>2018-09-16T03:22:45Z</time>
      </trkpt>
      <trkpt lat="46.18473" lon="10.34484">
        <ele>853.24</ele>
        <time>2018-09-16T03:23:05Z</time>
      </trkpt>
      <trkpt lat="46.18472" lon="10.3448">
        <ele>852.186</ele>
        <time>2018-09-16T03:23:25Z</time>
      </trkpt>
      <trkpt lat="46.18467" lon="10.3446">
        <ele>848.413</ele>
        <time>2018-09-16T03:23:45Z</time>
      </trkpt>
      <trkpt lat="46.1846" lon="10.34442">
        <ele>844.446</ele>
        <time>2018-09-16T03:24:05Z</time>
      </trkpt>
      <trkpt lat="46.18452" lon="10.34433">
        <ele>841.099</ele>
        <time>2018-09-16T03:24:25Z</time>
      </trkpt>
      <trkpt lat="46.18441" lon="10.34412">
        <ele>836.142</ele>
        <time>2018-09-16T03:24:45Z</time>
      </trkpt>
      <trkpt lat="46.18442" lon="10.34423">
        <ele>837.82</ele>
        <time>2018-09-16T03:25:05Z</time>
      </trkpt>
      <trkpt lat="46.18437" lon="10.34434">
        <ele>839.297</ele>
        <time>2018-09-16T03:25:25Z</time>
      </trkpt>
      <trkpt lat="46.18427" lon="10.34433">
        <ele>838.592</ele>
        <time>2018-09-16T03:25:45Z</time>
      </trkpt>
      <trkpt lat="46.18418" lon="10.34435">
        <ele>838.373</ele>
        <time>2018-09-16T03:26:05Z</time>
      </trkpt>
      <trkpt lat="46.18408" lon="10.34442">
        <ele>838.72</ele>
        <time>2018-09-16T03:26:25Z</time>
      </trkpt>
      <trkpt lat="46.18406" lon="10.34446">
        <ele>839.008</ele>
        <time>2018-09-16T03:26:45Z</time>
      </trkpt>
      <trkpt lat="46.18394" lon="10.34441">
        <ele>837.061</ele>
        <time>2018-09-16T03:27:05Z</time>
      </trkpt>
      <trkpt lat="46.18391" lon="10.3444">
        <ele>836.647</ele>
        <time>2018-09-16T03:27:25Z</time>
      </trkpt>
      <trkpt lat="46.18383" lon="10.34438">
        <ele>835.464</ele>
        <time>2018-09-16T03:27:45Z</time>
      </trkpt>
      <trkpt lat="46.1837" lon="10.34439">
        <ele>834.567</ele>
        <time>2018-09-16T03:28:05Z</time>
      </trkpt>
      <trkpt lat="46.18361" lon="10.34441">
        <ele>834.16</ele>
        <time>2018-09-16T03:28:25Z</time>
      </trkpt>
      <trkpt lat="46.18357" lon="10.34441">
        <ele>833.423</ele>
        <time>2018-09-16T03:28:45Z</time>
      </trkpt>
      <trkpt lat="46.18353" lon="10.34441">
        <ele>832.721</ele>
        <time>2018-09-16T03:29:05Z</time>
      </trkpt>
      <trkpt lat="46.18339" lon="10.34433">
        <ele>828.468</ele>
        <time>2018-09-16T03:29:25Z</time>
      </trkpt>
      <trkpt lat="46.18335" lon="10.34429">
        <ele>826.983</ele>
        <time>2018-09-16T03:29:45Z</time>
      </trkpt>
      <trkpt lat="46.1833" lon="10.3442">
        <ele>824.725</ele>
        <time>2018-09-16T03:30:05Z</time>
      </trkpt>
      <trkpt lat="46.1833" lon="10.34408">
        <ele>823.217</ele>
        <time>2018-09-16T03:30:25Z</time>
      </trkpt>
      <trkpt lat="46.18325" lon="10.34398">
        <ele>822.008</ele>
        <time>2018-09-16T03:30:45Z</time>
      </trkpt>
      <trkpt lat="46.18318" lon="10.34389">
        <ele>820.34</ele>
        <time>2018-09-16T03:31:05Z</time>
      </trkpt>
      <trkpt lat="46.18315" lon="10.34381">
        <ele>818.926</ele>
        <time>2018-09-16T03:31:25Z</time>
      </trkpt>
      <trkpt lat="46.18313" lon="10.34379">
        <ele>818.533</ele>
        <time>2018-09-16T03:31:45Z</time>
      </trkpt>
      <trkpt lat="46.18309" lon="10.34373">
        <ele>817.136</ele>
        <time>2018-09-16T03:32:05Z</time>
      </trkpt>
      <trkpt lat="46.18292" lon="10.34366">
        <ele>814.239</ele>
        <time>2018-09-16T03:32:25Z</time>
      </trkpt>
      <trkpt lat="46.1828" lon="10.34359">
        <ele>811.852</ele>
        <time>2018-09-16T03:32:45Z</time>
      </trkpt>
      <trkpt lat="46.18256" lon="10.34337">
        <ele>805.38</ele>
        <time>2018-09-16T03:33:05Z</time>
      </trkpt>
      <trkpt lat="46.18228" lon="10.34306">
        <ele>798.517</ele>
        <time>2018-09-16T03:33:25Z</time>
      </trkpt>
      <trkpt lat="46.18218" lon="10.34297">
        <ele>796.954</ele>
        <time>2018-09-16T03:33:45Z</time>
      </trkpt>
      <trkpt lat="46.1821" lon="10.3428">
        <ele>794.756</ele>
        <time>2018-09-16T03:34:05Z</time>
      </trkpt>
      <trkpt lat="46.18205" lon="10.34271">
        <ele>793.711</ele>
        <time>2018-09-16T03:34:25Z</time>
      </trkpt>
      <trkpt lat="46.18202" lon="10.34267">
        <ele>793.408</ele>
        <time>2018-09-16T03:34:45Z</time>
      </trkpt>
      <trkpt lat="46.18199" lon="10.34263">
        <ele>793.087</ele>
        <time>2018-09-16T03:35:05Z</time>
      </trkpt>
      <trkpt lat="46.18189" lon="10.34254">
        <ele>792.283</ele>
        <time>2018-09-16T03:35:25Z</time>
      </trkpt>
      <trkpt lat="46.18179" lon="10.3425">
        <ele>792.03</ele>
        <time>2018-09-16T03:35:45Z</time>
      </trkpt>
      <trkpt lat="46.18162" lon="10.34198">
        <ele>789.253</ele>
        <time>2018-09-16T03:36:05Z</time>
      </trkpt>
      <trkpt lat="46.18155" lon="10.34162">
        <ele>787.586</ele>
        <time>2018-09-16T03:36:25Z</time>
      </trkpt>
      <trkpt lat="46.1814" lon="10.3411">
        <ele>787.799</ele>
        <time>2018-09-16T03:36:45Z</time>
      </trkpt>
      <trkpt lat="46.1813" lon="10.34058">
        <ele>782.947</ele>
        <time>2018-09-16T03:37:05Z</time>
      </trkpt>
      <trkpt lat="46.18111" lon="10.34021">
        <ele>780.014</ele>
        <time>2018-09-16T03:37:25Z</time>
      </trkpt>
      <trkpt lat="46.18099" lon="10.33999">
        <ele>775.961</ele>
        <time>2018-09-16T03:37:45Z</time>
      </trkpt>
      <trkpt lat="46.18064" lon="10.33987">
        <ele>772.721</ele>
        <time>2018-09-16T03:38:05Z</time>
      </trkpt>
      <trkpt lat="46.1801" lon="10.33952">
        <ele>767.913</ele>
        <time>2018-09-16T03:38:25Z</time>
      </trkpt>
      <trkpt lat="46.18019" lon="10.33943">
        <ele>766.008</ele>
        <time>2018-09-16T03:38:45Z</time>
      </trkpt>
      <trkpt lat="46.18041" lon="10.33932">
        <ele>763.538</ele>
        <time>2018-09-16T03:39:05Z</time>
      </trkpt>
      <trkpt lat="46.18067" lon="10.33936">
        <ele>764.524</ele>
        <time>2018-09-16T03:39:25Z</time>
      </trkpt>
      <trkpt lat="46.18095" lon="10.33944">
        <ele>766.331</ele>
        <time>2018-09-16T03:39:45Z</time>
      </trkpt>
      <trkpt lat="46.18111" lon="10.33919">
        <ele>761.464</ele>
        <time>2018-09-16T03:40:05Z</time>
      </trkpt>
      <trkpt lat="46.18133" lon="10.33899">
        <ele>755.047</ele>
        <time>2018-09-16T03:40:25Z</time>
      </trkpt>
      <trkpt lat="46.18142" lon="10.33883">
        <ele>750.43</ele>
        <time>2018-09-16T03:40:45Z</time>
      </trkpt>
      <trkpt lat="46.18143" lon="10.33883">
        <ele>750.228</ele>
        <time>2018-09-16T03:41:05Z</time>
      </trkpt>
      <trkpt lat="46.18163" lon="10.33857">
        <ele>744.765</ele>
        <time>2018-09-16T03:41:25Z</time>
      </trkpt>
      <trkpt lat="46.18183" lon="10.33861">
        <ele>743.879</ele>
        <time>2018-09-16T03:41:45Z</time>
      </trkpt>
      <trkpt lat="46.18192" lon="10.33885">
        <ele>744.905</ele>
        <time>2018-09-16T03:42:05Z</time>
      </trkpt>
      <trkpt lat="46.18201" lon="10.33891">
        <ele>745.425</ele>
        <time>2018-09-16T03:42:25Z</time>
      </trkpt>
      <trkpt lat="46.18214" lon="10.33892">
        <ele>745.808</ele>
        <time>2018-09-16T03:42:45Z</time>
      </trkpt>
      <trkpt lat="46.18222" lon="10.33886">
        <ele>745.899</ele>
        <time>2018-09-16T03:43:05Z</time>
      </trkpt>
      <trkpt lat="46.1824" lon="10.33874">
        <ele>747.945</ele>
        <time>2018-09-16T03:43:25Z</time>
      </trkpt>
      <trkpt lat="46.18248" lon="10.33845">
        <ele>746.032</ele>
        <time>2018-09-16T03:43:45Z</time>
      </trkpt>
      <trkpt lat="46.18225" lon="10.33818">
        <ele>742.525</ele>
        <time>2018-09-16T03:44:05Z</time>
      </trkpt>
      <trkpt lat="46.18218" lon="10.33771">
        <ele>738.158</ele>
        <time>2018-09-16T03:44:25Z</time>
      </trkpt>
      <trkpt lat="46.18191" lon="10.33687">
        <ele>729.521</ele>
        <time>2018-09-16T03:44:45Z</time>
      </trkpt>
      <trkpt lat="46.18184" lon="10.33663">
        <ele>727.529</ele>
        <time>2018-09-16T03:45:05Z</time>
      </trkpt>
      <trkpt lat="46.18174" lon="10.33644">
        <ele>724.416</ele>
        <time>2018-09-16T03:45:25Z</time>
      </trkpt>
      <trkpt lat="46.18159" lon="10.33608">
        <ele>712.874</ele>
        <time>2018-09-16T03:45:45Z</time>
      </trkpt>
      <trkpt lat="46.18143" lon="10.33585">
        <ele>705.656</ele>
        <time>2018-09-16T03:46:05Z</time>
      </trkpt>
      <trkpt lat="46.1814" lon="10.3357">
        <ele>702.721</ele>
        <time>2018-09-16T03:46:25Z</time>
      </trkpt>
      <trkpt lat="46.18157" lon="10.33548">
        <ele>700.808</ele>
        <time>2018-09-16T03:46:45Z</time>
      </trkpt>
      <trkpt lat="46.18162" lon="10.33547">
        <ele>701.069</ele>
        <time>2018-09-16T03:47:05Z</time>
      </trkpt>
      <trkpt lat="46.18171" lon="10.33537">
        <ele>701.345</ele>
        <time>2018-09-16T03:47:25Z</time>
      </trkpt>
      <trkpt lat="46.18177" lon="10.33532">
        <ele>701.682</ele>
        <time>2018-09-16T03:47:45Z</time>
      </trkpt>
      <trkpt lat="46.18181" lon="10.33524">
        <ele>701.115</ele>
        <time>2018-09-16T03:48:05Z</time>
      </trkpt>
      <trkpt lat="46.18182" lon="10.33516">
        <ele>700.528</ele>
        <time>2018-09-16T03:48:25Z</time>
      </trkpt>
      <trkpt lat="46.18179" lon="10.3349">
        <ele>698.641</ele>
        <time>2018-09-16T03:48:45Z</time>
      </trkpt>
      <trkpt lat="46.18184" lon="10.33481">
        <ele>698.429</ele>
        <time>2018-09-16T03:49:05Z</time>
      </trkpt>
      <trkpt lat="46.18189" lon="10.33416">
        <ele>699.876</ele>
        <time>2018-09-16T03:49:25Z</time>
      </trkpt>
      <trkpt lat="46.18188" lon="10.33414">
        <ele>699.963</ele>
        <time>2018-09-16T03:49:45Z</time>
      </trkpt>
      <trkpt lat="46.18189" lon="10.33395">
        <ele>701.044</ele>
        <time>2018-09-16T03:50:05Z</time>
      </trkpt>
      <trkpt lat="46.18197" lon="10.33363">
        <ele>708.918</ele>
        <time>2018-09-16T03:50:25Z</time>
      </trkpt>
      <trkpt lat="46.18192" lon="10.33352">
        <ele>709.008</ele>
        <time>2018-09-16T03:50:45Z</time>
      </trkpt>
      <trkpt lat="46.18168" lon="10.33305">
        <ele>706.758</ele>
        <time>2018-09-16T03:51:05Z</time>
      </trkpt>
      <trkpt lat="46.18156" lon="10.3333">
        <ele>702.124</ele>
        <time>2018-09-16T03:51:25Z</time>
      </trkpt>
      <trkpt lat="46.18133" lon="10.33312">
        <ele>701.131</ele>
        <time>2018-09-16T03:51:45Z</time>
      </trkpt>
      <trkpt lat="46.18102" lon="10.3329">
        <ele>700.814</ele>
        <time>2018-09-16T03:52:05Z</time>
      </trkpt>
      <trkpt lat="46.18082" lon="10.33282">
        <ele>700.677</ele>
        <time>2018-09-16T03:52:25Z</time>
      </trkpt>
      <trkpt lat="46.18072" lon="10.33277">
        <ele>700.64</ele>
        <time>2018-09-16T03:52:45Z</time>
      </trkpt>
      <trkpt lat="46.18063" lon="10.33251">
        <ele>701.288</ele>
        <time>2018-09-16T03:53:05Z</time>
      </trkpt>
      <trkpt lat="46.18055" lon="10.33232">
        <ele>701.515</ele>
        <time>2018-09-16T03:53:25Z</time>
      </trkpt>
      <trkpt lat="46.18022" lon="10.33246">
        <ele>696.362</ele>
        <time>2018-09-16T03:53:45Z</time>
      </trkpt>
      <trkpt lat="46.18003" lon="10.3324">
        <ele>693.783</ele>
        <time>2018-09-16T03:54:05Z</time>
      </trkpt>
      <trkpt lat="46.17984" lon="10.3322">
        <ele>691.711</ele>
        <time>2018-09-16T03:54:25Z</time>
      </trkpt>
      <trkpt lat="46.1797" lon="10.33231">
        <ele>689.308</ele>
        <time>2018-09-16T03:54:45Z</time>
      </trkpt>
      <trkpt lat="46.17956" lon="10.33247">
        <ele>686.748</ele>
        <time>2018-09-16T03:55:05Z</time>
      </trkpt>
      <trkpt lat="46.17955" lon="10.3317">
        <ele>688.294</ele>
        <time>2018-09-16T03:55:25Z</time>
      </trkpt>
      <trkpt lat="46.17959" lon="10.33161">
        <ele>689.071</ele>
        <time>2018-09-16T03:55:45Z</time>
      </trkpt>
      <trkpt lat="46.17954" lon="10.33077">
        <ele>689.424</ele>
        <time>2018-09-16T03:56:05Z</time>
      </trkpt>
      <trkpt lat="46.17988" lon="10.33079">
        <ele>695.087</ele>
        <time>2018-09-16T03:56:25Z</time>
      </trkpt>
      <trkpt lat="46.18054" lon="10.33098">
        <ele>705.18</ele>
        <time>2018-09-16T03:56:45Z</time>
      </trkpt>
      <trkpt lat="46.18085" lon="10.33096">
        <ele>709.268</ele>
        <time>2018-09-16T03:57:05Z</time>
      </trkpt>
      <trkpt lat="46.18086" lon="10.33043">
        <ele>711.885</ele>
        <time>2018-09-16T03:57:25Z</time>
      </trkpt>
      <trkpt lat="46.18077" lon="10.32986">
        <ele>710.216</ele>
        <time>2018-09-16T03:57:45Z</time>
      </trkpt>
      <trkpt lat="46.18084" lon="10.32957">
        <ele>711.176</ele>
        <time>2018-09-16T03:58:05Z</time>
      </trkpt>
      <trkpt lat="46.18085" lon="10.32911">
        <ele>710.413</ele>
        <time>2018-09-16T03:58:25Z</time>
      </trkpt>
      <trkpt lat="46.18094" lon="10.32893">
        <ele>713.008</ele>
        <time>2018-09-16T03:58:45Z</time>
      </trkpt>
      <trkpt lat="46.18071" lon="10.32819">
        <ele>704.063</ele>
        <time>2018-09-16T03:59:05Z</time>
      </trkpt>
      <trkpt lat="46.18093" lon="10.32823">
        <ele>711.329</ele>
        <time>2018-09-16T03:59:25Z</time>
      </trkpt>
      <trkpt lat="46.1811" lon="10.32806">
        <ele>717.566</ele>
        <time>2018-09-16T03:59:45Z</time>
      </trkpt>
      <trkpt lat="46.18121" lon="10.32813">
        <ele>720.859</ele>
        <time>2018-09-16T04:00:05Z</time>
      </trkpt>
      <trkpt lat="46.18131" lon="10.32802">
        <ele>724.272</ele>
        <time>2018-09-16T04:00:25Z</time>
      </trkpt>
      <trkpt lat="46.18137" lon="10.32762">
        <ele>724.235</ele>
        <time>2018-09-16T04:00:45Z</time>
      </trkpt>
      <trkpt lat="46.18141" lon="10.32659">
        <ele>727.973</ele>
        <time>2018-09-16T04:01:05Z</time>
      </trkpt>
      <trkpt lat="46.1816" lon="10.3255">
        <ele>751.74</ele>
        <time>2018-09-16T04:01:25Z</time>
      </trkpt>
      <trkpt lat="46.18155" lon="10.32452">
        <ele>757.424</ele>
        <time>2018-09-16T04:01:45Z</time>
      </trkpt>
      <trkpt lat="46.18136" lon="10.32345">
        <ele>759.404</ele>
        <time>2018-09-16T04:02:05Z</time>
      </trkpt>
      <trkpt lat="46.18124" lon="10.32257">
        <ele>772.314</ele>
        <time>2018-09-16T04:02:25Z</time>
      </trkpt>
      <trkpt lat="46.1815" lon="10.3221">
        <ele>795.008</ele>
        <time>2018-09-16T04:02:45Z</time>
      </trkpt>
      <trkpt lat="46.18167" lon="10.32171">
        <ele>811.594</ele>
        <time>2018-09-16T04:03:05Z</time>
      </trkpt>
      <trkpt lat="46.18191" lon="10.32147">
        <ele>824.69</ele>
        <time>2018-09-16T04:03:25Z</time>
      </trkpt>
      <trkpt lat="46.18222" lon="10.32071">
        <ele>837.127</ele>
        <time>2018-09-16T04:03:45Z</time>
      </trkpt>
      <trkpt lat="46.18231" lon="10.3202">
        <ele>853.92</ele>
        <time>2018-09-16T04:04:05Z</time>
      </trkpt>
      <trkpt lat="46.18204" lon="10.31994">
        <ele>839.293</ele>
        <time>2018-09-16T04:04:25Z</time>
      </trkpt>
      <trkpt lat="46.18195" lon="10.31966">
        <ele>842.846</ele>
        <time>2018-09-16T04:04:45Z</time>
      </trkpt>
      <trkpt lat="46.18183" lon="10.31956">
        <ele>840.084</ele>
        <time>2018-09-16T04:05:05Z</time>
      </trkpt>
      <trkpt lat="46.1811" lon="10.31812">
        <ele>868.311</ele>
        <time>2018-09-16T04:05:25Z</time>
      </trkpt>
      <trkpt lat="46.18088" lon="10.31748">
        <ele>872.742</ele>
        <time>2018-09-16T04:05:45Z</time>
      </trkpt>
      <trkpt lat="46.1808" lon="10.31679">
        <ele>882.322</ele>
        <time>2018-09-16T04:06:05Z</time>
      </trkpt>
      <trkpt lat="46.18119" lon="10.31651">
        <ele>908.014</ele>
        <time>2018-09-16T04:06:25Z</time>
      </trkpt>
      <trkpt lat="46.18135" lon="10.316">
        <ele>920.808</ele>
        <time>2018-09-16T04:06:45Z</time>
      </trkpt>
      <trkpt lat="46.18128" lon="10.31544">
        <ele>923.526</ele>
        <time>2018-09-16T04:07:05Z</time>
      </trkpt>
      <trkpt lat="46.18145" lon="10.31493">
        <ele>935.862</ele>
        <time>2018-09-16T04:07:25Z</time>
      </trkpt>
      <trkpt lat="46.1815" lon="10.31477">
        <ele>938.159</ele>
        <time>2018-09-16T04:07:45Z</time>
      </trkpt>
      <trkpt lat="46.18142" lon="10.31437">
        <ele>935.742</ele>
        <time>2018-09-16T04:08:05Z</time>
      </trkpt>
      <trkpt lat="46.18143" lon="10.31365">
        <ele>949.855</ele>
        <time>2018-09-16T04:08:25Z</time>
      </trkpt>
      <trkpt lat="46.18133" lon="10.31294">
        <ele>948.458</ele>
        <time>2018-09-16T04:08:45Z</time>
      </trkpt>
      <trkpt lat="46.18128" lon="10.312">
        <ele>969.536</ele>
        <time>2018-09-16T04:09:05Z</time>
      </trkpt>
      <trkpt lat="46.18181" lon="10.31222">
        <ele>992.023</ele>
        <time>2018-09-16T04:09:25Z</time>
      </trkpt>
      <trkpt lat="46.18241" lon="10.31249">
        <ele>1007.333</ele>
        <time>2018-09-16T04:09:45Z</time>
      </trkpt>
      <trkpt lat="46.18286" lon="10.31273">
        <ele>1025.323</ele>
        <time>2018-09-16T04:10:05Z</time>
      </trkpt>
      <trkpt lat="46.18265" lon="10.31231">
        <ele>1025.415</ele>
        <time>2018-09-16T04:10:25Z</time>
      </trkpt>
      <trkpt lat="46.18256" lon="10.31209">
        <ele>1027.608</ele>
        <time>2018-09-16T04:10:45Z</time>
      </trkpt>
      <trkpt lat="46.18253" lon="10.31193">
        <ele>1032.365</ele>
        <time>2018-09-16T04:11:05Z</time>
      </trkpt>
      <trkpt lat="46.18248" lon="10.31175">
        <ele>1040.681</ele>
        <time>2018-09-16T04:11:25Z</time>
      </trkpt>
      <trkpt lat="46.18244" lon="10.3116">
        <ele>1045.538</ele>
        <time>2018-09-16T04:11:45Z</time>
      </trkpt>
      <trkpt lat="46.18237" lon="10.31141">
        <ele>1048.141</ele>
        <time>2018-09-16T04:12:05Z</time>
      </trkpt>
      <trkpt lat="46.18227" lon="10.31129">
        <ele>1045.874</ele>
        <time>2018-09-16T04:12:25Z</time>
      </trkpt>
      <trkpt lat="46.18221" lon="10.31124">
        <ele>1043.197</ele>
        <time>2018-09-16T04:12:45Z</time>
      </trkpt>
      <trkpt lat="46.18219" lon="10.31122">
        <ele>1042.525</ele>
        <time>2018-09-16T04:13:05Z</time>
      </trkpt>
      <trkpt lat="46.18202" lon="10.31086">
        <ele>1049.292</ele>
        <time>2018-09-16T04:13:25Z</time>
      </trkpt>
      <trkpt lat="46.18199" lon="10.31066">
        <ele>1057.057</ele>
        <time>2018-09-16T04:13:45Z</time>
      </trkpt>
      <trkpt lat="46.18197" lon="10.31052">
        <ele>1061.4</ele>
        <time>2018-09-16T04:14:05Z</time>
      </trkpt>
      <trkpt lat="46.18192" lon="10.31038">
        <ele>1062.62</ele>
        <time>2018-09-16T04:14:25Z</time>
      </trkpt>
      <trkpt lat="46.18191" lon="10.3103">
        <ele>1064.608</ele>
        <time>2018-09-16T04:14:45Z</time>
      </trkpt>
      <trkpt lat="46.18187" lon="10.31017">
        <ele>1065.967</ele>
        <time>2018-09-16T04:15:05Z</time>
      </trkpt>
      <trkpt lat="46.18187" lon="10.31004">
        <ele>1069.833</ele>
        <time>2018-09-16T04:15:25Z</time>
      </trkpt>
      <trkpt lat="46.18187" lon="10.30992">
        <ele>1074.54</ele>
        <time>2018-09-16T04:15:45Z</time>
      </trkpt>
      <trkpt lat="46.18189" lon="10.30971">
        <ele>1085.013</ele>
        <time>2018-09-16T04:16:05Z</time>
      </trkpt>
      <trkpt lat="46.18188" lon="10.30952">
        <ele>1089.136</ele>
        <time>2018-09-16T04:16:25Z</time>
      </trkpt>
      <trkpt lat="46.18188" lon="10.30935">
        <ele>1092.499</ele>
        <time>2018-09-16T04:16:45Z</time>
      </trkpt>
      <trkpt lat="46.18188" lon="10.30915">
        <ele>1096.087</ele>
        <time>2018-09-16T04:17:05Z</time>
      </trkpt>
      <trkpt lat="46.1819" lon="10.30895">
        <ele>1100.414</ele>
        <time>2018-09-16T04:17:25Z</time>
      </trkpt>
      <trkpt lat="46.18195" lon="10.30877">
        <ele>1104.621</ele>
        <time>2018-09-16T04:17:45Z</time>
      </trkpt>
      <trkpt lat="46.18197" lon="10.3086">
        <ele>1106.041</ele>
        <time>2018-09-16T04:18:05Z</time>
      </trkpt>
      <trkpt lat="46.18199" lon="10.30842">
        <ele>1110.905</ele>
        <time>2018-09-16T04:18:25Z</time>
      </trkpt>
      <trkpt lat="46.182" lon="10.30825">
        <ele>1114.008</ele>
        <time>2018-09-16T04:18:45Z</time>
      </trkpt>
      <trkpt lat="46.18201" lon="10.30814">
        <ele>1116.114</ele>
        <time>2018-09-16T04:19:05Z</time>
      </trkpt>
      <trkpt lat="46.18204" lon="10.30791">
        <ele>1121.81</ele>
        <time>2018-09-16T04:19:25Z</time>
      </trkpt>
      <trkpt lat="46.18201" lon="10.30777">
        <ele>1122.117</ele>
        <time>2018-09-16T04:19:45Z</time>
      </trkpt>
      <trkpt lat="46.18197" lon="10.30765">
        <ele>1121.64</ele>
        <time>2018-09-16T04:20:05Z</time>
      </trkpt>
      <trkpt lat="46.18194" lon="10.30754">
        <ele>1121.023</ele>
        <time>2018-09-16T04:20:25Z</time>
      </trkpt>
      <trkpt lat="46.18193" lon="10.30743">
        <ele>1121.676</ele>
        <time>2018-09-16T04:20:45Z</time>
      </trkpt>
      <trkpt lat="46.18196" lon="10.30737">
        <ele>1124.154</ele>
        <time>2018-09-16T04:21:05Z</time>
      </trkpt>
      <trkpt lat="46.182" lon="10.3073">
        <ele>1127.941</ele>
        <time>2018-09-16T04:21:25Z</time>
      </trkpt>
      <trkpt lat="46.18199" lon="10.30715">
        <ele>1128.957</ele>
        <time>2018-09-16T04:21:45Z</time>
      </trkpt>
      <trkpt lat="46.18194" lon="10.30704">
        <ele>1127.6</ele>
        <time>2018-09-16T04:22:05Z</time>
      </trkpt>
      <trkpt lat="46.18192" lon="10.30668">
        <ele>1135.72</ele>
        <time>2018-09-16T04:22:25Z</time>
      </trkpt>
      <trkpt lat="46.1819" lon="10.3065">
        <ele>1139.908</ele>
        <time>2018-09-16T04:22:45Z</time>
      </trkpt>
      <trkpt lat="46.1819" lon="10.30617">
        <ele>1148.587</ele>
        <time>2018-09-16T04:23:05Z</time>
      </trkpt>
      <trkpt lat="46.18193" lon="10.30606">
        <ele>1153.283</ele>
        <time>2018-09-16T04:23:25Z</time>
      </trkpt>
      <trkpt lat="46.18199" lon="10.30589">
        <ele>1159.49</ele>
        <time>2018-09-16T04:23:45Z</time>
      </trkpt>
      <trkpt lat="46.18204" lon="10.30578">
        <ele>1164.893</ele>
        <time>2018-09-16T04:24:05Z</time>
      </trkpt>
      <trkpt lat="46.18209" lon="10.30571">
        <ele>1168.886</ele>
        <time>2018-09-16T04:24:25Z</time>
      </trkpt>
      <trkpt lat="46.18217" lon="10.30578">
        <ele>1171.849</ele>
        <time>2018-09-16T04:24:45Z</time>
      </trkpt>
      <trkpt lat="46.18221" lon="10.30585">
        <ele>1172.857</ele>
        <time>2018-09-16T04:25:05Z</time>
      </trkpt>
      <trkpt lat="46.18225" lon="10.30591">
        <ele>1173.564</ele>
        <time>2018-09-16T04:25:25Z</time>
      </trkpt>
      <trkpt lat="46.18232" lon="10.30595">
        <ele>1175.862</ele>
        <time>2018-09-16T04:25:45Z</time>
      </trkpt>
      <trkpt lat="46.18238" lon="10.30585">
        <ele>1180.383</ele>
        <time>2018-09-16T04:26:05Z</time>
      </trkpt>
      <trkpt lat="46.18241" lon="10.30571">
        <ele>1184.811</ele>
        <time>2018-09-16T04:26:25Z</time>
      </trkpt>
      <trkpt lat="46.18243" lon="10.30549">
        <ele>1191.608</ele>
        <time>2018-09-16T04:26:45Z</time>
      </trkpt>
      <trkpt lat="46.18238" lon="10.30502">
        <ele>1199.528</ele>
        <time>2018-09-16T04:27:05Z</time>
      </trkpt>
      <trkpt lat="46.18241" lon="10.30486">
        <ele>1203.934</ele>
        <time>2018-09-16T04:27:25Z</time>
      </trkpt>
      <trkpt lat="46.18242" lon="10.30472">
        <ele>1206.931</ele>
        <time>2018-09-16T04:27:45Z</time>
      </trkpt>
      <trkpt lat="46.18242" lon="10.30448">
        <ele>1214.254</ele>
        <time>2018-09-16T04:28:05Z</time>
      </trkpt>
      <trkpt lat="46.18242" lon="10.30434">
        <ele>1218.627</ele>
        <time>2018-09-16T04:28:25Z</time>
      </trkpt>
      <trkpt lat="46.18242" lon="10.3042">
        <ele>1222.92</ele>
        <time>2018-09-16T04:28:45Z</time>
      </trkpt>
      <trkpt lat="46.18239" lon="10.30408">
        <ele>1224.018</ele>
        <time>2018-09-16T04:29:05Z</time>
      </trkpt>
      <trkpt lat="46.18238" lon="10.30398">
        <ele>1226.935</ele>
        <time>2018-09-16T04:29:25Z</time>
      </trkpt>
      <trkpt lat="46.18236" lon="10.30387">
        <ele>1228.845</ele>
        <time>2018-09-16T04:29:45Z</time>
      </trkpt>
      <trkpt lat="46.18235" lon="10.30374">
        <ele>1231.047</ele>
        <time>2018-09-16T04:30:05Z</time>
      </trkpt>
      <trkpt lat="46.18236" lon="10.30366">
        <ele>1233.611</ele>
        <time>2018-09-16T04:30:25Z</time>
      </trkpt>
      <trkpt lat="46.18238" lon="10.30359">
        <ele>1236.808</ele>
        <time>2018-09-16T04:30:45Z</time>
      </trkpt>
      <trkpt lat="46.18241" lon="10.3035">
        <ele>1241.296</ele>
        <time>2018-09-16T04:31:05Z</time>
      </trkpt>
      <trkpt lat="46.18246" lon="10.30334">
        <ele>1247.142</ele>
        <time>2018-09-16T04:31:25Z</time>
      </trkpt>
      <trkpt lat="46.18246" lon="10.30323">
        <ele>1250.629</ele>
        <time>2018-09-16T04:31:45Z</time>
      </trkpt>
      <trkpt lat="46.18241" lon="10.30301">
        <ele>1254.132</ele>
        <time>2018-09-16T04:32:05Z</time>
      </trkpt>
      <trkpt lat="46.18241" lon="10.30293">
        <ele>1255.955</ele>
        <time>2018-09-16T04:32:25Z</time>
      </trkpt>
      <trkpt lat="46.18241" lon="10.30292">
        <ele>1256.268</ele>
        <time>2018-09-16T04:32:45Z</time>
      </trkpt>
      <trkpt lat="46.18236" lon="10.30282">
        <ele>1255.666</ele>
        <time>2018-09-16T04:33:05Z</time>
      </trkpt>
      <trkpt lat="46.18231" lon="10.30269">
        <ele>1255.923</ele>
        <time>2018-09-16T04:33:25Z</time>
      </trkpt>
      <trkpt lat="46.18224" lon="10.30262">
        <ele>1253.542</ele>
        <time>2018-09-16T04:33:45Z</time>
      </trkpt>
      <trkpt lat="46.18219" lon="10.30255">
        <ele>1253.222</ele>
        <time>2018-09-16T04:34:05Z</time>
      </trkpt>
      <trkpt lat="46.18217" lon="10.30242">
        <ele>1255.714</ele>
        <time>2018-09-16T04:34:25Z</time>
      </trkpt>
      <trkpt lat="46.18217" lon="10.30233">
        <ele>1257.608</ele>
        <time>2018-09-16T04:34:45Z</time>
      </trkpt>
      <trkpt lat="46.18219" lon="10.30217">
        <ele>1262.046</ele>
        <time>2018-09-16T04:35:05Z</time>
      </trkpt>
      <trkpt lat="46.18219" lon="10.30205">
        <ele>1265.482</ele>
        <time>2018-09-16T04:35:25Z</time>
      </trkpt>
      <trkpt lat="46.18221" lon="10.30192">
        <ele>1270.179</ele>
        <time>2018-09-16T04:35:45Z</time>
      </trkpt>
      <trkpt lat="46.18221" lon="10.30181">
        <ele>1273.932</ele>
        <time>2018-09-16T04:36:05Z</time>
      </trkpt>
      <trkpt lat="46.18217" lon="10.30166">
        <ele>1276.615</ele>
        <time>2018-09-16T04:36:25Z</time>
      </trkpt>
      <trkpt lat="46.18213" lon="10.3015">
        <ele>1278.298</ele>
        <time>2018-09-16T04:36:45Z</time>
      </trkpt>
      <trkpt lat="46.1821" lon="10.30139">
        <ele>1279.276</ele>
        <time>2018-09-16T04:37:05Z</time>
      </trkpt>
      <trkpt lat="46.18207" lon="10.3013">
        <ele>1279.673</ele>
        <time>2018-09-16T04:37:25Z</time>
      </trkpt>
      <trkpt lat="46.18204" lon="10.30123">
        <ele>1279.025</ele>
        <time>2018-09-16T04:37:45Z</time>
      </trkpt>
      <trkpt lat="46.18201" lon="10.30112">
        <ele>1278.926</ele>
        <time>2018-09-16T04:38:05Z</time>
      </trkpt>
      <trkpt lat="46.18197" lon="10.30106">
        <ele>1277.808</ele>
        <time>2018-09-16T04:38:25Z</time>
      </trkpt>
      <trkpt lat="46.18195" lon="10.30097">
        <ele>1278.208</ele>
        <time>2018-09-16T04:38:45Z</time>
      </trkpt>
      <trkpt lat="46.18196" lon="10.30082">
        <ele>1281.184</ele>
        <time>2018-09-16T04:39:05Z</time>
      </trkpt>
      <trkpt lat="46.18198" lon="10.30076">
        <ele>1284.61</ele>
        <time>2018-09-16T04:39:25Z</time>
      </trkpt>
      <trkpt lat="46.18201" lon="10.30066">
        <ele>1289.367</ele>
        <time>2018-09-16T04:39:45Z</time>
      </trkpt>
      <trkpt lat="46.18199" lon="10.30054">
        <ele>1291.85</ele>
        <time>2018-09-16T04:40:05Z</time>
      </trkpt>
      <trkpt lat="46.18196" lon="10.30049">
        <ele>1291.883</ele>
        <time>2018-09-16T04:40:25Z</time>
      </trkpt>
      <trkpt lat="46.18196" lon="10.30041">
        <ele>1293.886</ele>
        <time>2018-09-16T04:40:45Z</time>
      </trkpt>
      <trkpt lat="46.18197" lon="10.30031">
        <ele>1297.264</ele>
        <time>2018-09-16T04:41:05Z</time>
      </trkpt>
      <trkpt lat="46.18199" lon="10.30027">
        <ele>1299.971</ele>
        <time>2018-09-16T04:41:25Z</time>
      </trkpt>
      <trkpt lat="46.18203" lon="10.30023">
        <ele>1304.278</ele>
        <time>2018-09-16T04:41:45Z</time>
      </trkpt>
      <trkpt lat="46.18207" lon="10.30032">
        <ele>1303.333</ele>
        <time>2018-09-16T04:42:05Z</time>
      </trkpt>
      <trkpt lat="46.18212" lon="10.30038">
        <ele>1304.726</ele>
        <time>2018-09-16T04:42:25Z</time>
      </trkpt>
      <trkpt lat="46.18218" lon="10.3004">
        <ele>1307.908</ele>
        <time>2018-09-16T04:42:45Z</time>
      </trkpt>
      <trkpt lat="46.18225" lon="10.30039">
        <ele>1313.069</ele>
        <time>2018-09-16T04:43:05Z</time>
      </trkpt>
      <trkpt lat="46.18229" lon="10.30036">
        <ele>1317.245</ele>
        <time>2018-09-16T04:43:25Z</time>
      </trkpt>
      <trkpt lat="46.18235" lon="10.3004">
        <ele>1321.562</ele>
        <time>2018-09-16T04:43:45Z</time>
      </trkpt>
      <trkpt lat="46.18241" lon="10.30048">
        <ele>1325.745</ele>
        <time>2018-09-16T04:44:05Z</time>
      </trkpt>
      <trkpt lat="46.18245" lon="10.30055">
        <ele>1329.368</ele>
        <time>2018-09-16T04:44:25Z</time>
      </trkpt>
      <trkpt lat="46.18252" lon="10.3006">
        <ele>1334.131</ele>
        <time>2018-09-16T04:44:45Z</time>
      </trkpt>
      <trkpt lat="46.18261" lon="10.30071">
        <ele>1337.819</ele>
        <time>2018-09-16T04:45:05Z</time>
      </trkpt>
      <trkpt lat="46.18265" lon="10.30083">
        <ele>1338.246</ele>
        <time>2018-09-16T04:45:25Z</time>
      </trkpt>
      <trkpt lat="46.18275" lon="10.30092">
        <ele>1344.388</ele>
        <time>2018-09-16T04:45:45Z</time>
      </trkpt>
      <trkpt lat="46.18279" lon="10.30094">
        <ele>1346.124</ele>
        <time>2018-09-16T04:46:05Z</time>
      </trkpt>
      <trkpt lat="46.18286" lon="10.30108">
        <ele>1342.426</ele>
        <time>2018-09-16T04:46:25Z</time>
      </trkpt>
      <trkpt lat="46.18289" lon="10.30116">
        <ele>1340.508</ele>
        <time>2018-09-16T04:46:45Z</time>
      </trkpt>
      <trkpt lat="46.18293" lon="10.3012">
        <ele>1340.58</ele>
        <time>2018-09-16T04:47:05Z</time>
      </trkpt>
      <trkpt lat="46.18299" lon="10.30121">
        <ele>1341.916</ele>
        <time>2018-09-16T04:47:25Z</time>
      </trkpt>
      <trkpt lat="46.18315" lon="10.30112">
        <ele>1352.553</ele>
        <time>2018-09-16T04:47:45Z</time>
      </trkpt>
      <trkpt lat="46.18319" lon="10.30099">
        <ele>1358.196</ele>
        <time>2018-09-16T04:48:05Z</time>
      </trkpt>
      <trkpt lat="46.18319" lon="10.30082">
        <ele>1362.129</ele>
        <time>2018-09-16T04:48:25Z</time>
      </trkpt>
      <trkpt lat="46.18323" lon="10.30067">
        <ele>1367.412</ele>
        <time>2018-09-16T04:48:45Z</time>
      </trkpt>
      <trkpt lat="46.18315" lon="10.30057">
        <ele>1367.09</ele>
        <time>2018-09-16T04:49:05Z</time>
      </trkpt>
      <trkpt lat="46.18322" lon="10.30048">
        <ele>1372.517</ele>
        <time>2018-09-16T04:49:25Z</time>
      </trkpt>
      <trkpt lat="46.18326" lon="10.3004">
        <ele>1376.661</ele>
        <time>2018-09-16T04:49:45Z</time>
      </trkpt>
      <trkpt lat="46.1833" lon="10.30029">
        <ele>1382.821</ele>
        <time>2018-09-16T04:50:05Z</time>
      </trkpt>
      <trkpt lat="46.18338" lon="10.3003">
        <ele>1388.013</ele>
        <time>2018-09-16T04:50:25Z</time>
      </trkpt>
      <trkpt lat="46.18347" lon="10.30028">
        <ele>1397.108</ele>
        <time>2018-09-16T04:50:45Z</time>
      </trkpt>
      <trkpt lat="46.18349" lon="10.30009">
        <ele>1403.428</ele>
        <time>2018-09-16T04:51:05Z</time>
      </trkpt>
      <trkpt lat="46.18347" lon="10.29995">
        <ele>1405.624</ele>
        <time>2018-09-16T04:51:25Z</time>
      </trkpt>
      <trkpt lat="46.18341" lon="10.29979">
        <ele>1406.471</ele>
        <time>2018-09-16T04:51:45Z</time>
      </trkpt>
      <trkpt lat="46.18341" lon="10.29961">
        <ele>1409.884</ele>
        <time>2018-09-16T04:52:05Z</time>
      </trkpt>
      <trkpt lat="46.1834" lon="10.29955">
        <ele>1410.557</ele>
        <time>2018-09-16T04:52:25Z</time>
      </trkpt>
      <trkpt lat="46.1833" lon="10.29954">
        <ele>1405.76</ele>
        <time>2018-09-16T04:52:45Z</time>
      </trkpt>
      <trkpt lat="46.18324" lon="10.29956">
        <ele>1402.758</ele>
        <time>2018-09-16T04:53:05Z</time>
      </trkpt>
      <trkpt lat="46.18319" lon="10.29948">
        <ele>1402.315</ele>
        <time>2018-09-16T04:53:25Z</time>
      </trkpt>
      <trkpt lat="46.1832" lon="10.29938">
        <ele>1405.498</ele>
        <time>2018-09-16T04:53:45Z</time>
      </trkpt>
      <trkpt lat="46.18326" lon="10.29933">
        <ele>1409.015</ele>
        <time>2018-09-16T04:54:05Z</time>
      </trkpt>
      <trkpt lat="46.18324" lon="10.29925">
        <ele>1410.626</ele>
        <time>2018-09-16T04:54:25Z</time>
      </trkpt>
      <trkpt lat="46.18317" lon="10.29916">
        <ele>1411.708</ele>
        <time>2018-09-16T04:54:45Z</time>
      </trkpt>
      <trkpt lat="46.18312" lon="10.29904">
        <ele>1414.081</ele>
        <time>2018-09-16T04:55:05Z</time>
      </trkpt>
      <trkpt lat="46.18313" lon="10.29889">
        <ele>1418.597</ele>
        <time>2018-09-16T04:55:25Z</time>
      </trkpt>
      <trkpt lat="46.1832" lon="10.29881">
        <ele>1421.244</ele>
        <time>2018-09-16T04:55:45Z</time>
      </trkpt>
      <trkpt lat="46.18326" lon="10.2988">
        <ele>1421.577</ele>
        <time>2018-09-16T04:56:05Z</time>
      </trkpt>
      <trkpt lat="46.18331" lon="10.29875">
        <ele>1422.52</ele>
        <time>2018-09-16T04:56:25Z</time>
      </trkpt>
      <trkpt lat="46.18333" lon="10.29863">
        <ele>1424.773</ele>
        <time>2018-09-16T04:56:45Z</time>
      </trkpt>
      <trkpt lat="46.18336" lon="10.29848">
        <ele>1433.731</ele>
        <time>2018-09-16T04:57:05Z</time>
      </trkpt>
      <trkpt lat="46.18342" lon="10.29837">
        <ele>1441.088</ele>
        <time>2018-09-16T04:57:25Z</time>
      </trkpt>
      <trkpt lat="46.18349" lon="10.29834">
        <ele>1443.315</ele>
        <time>2018-09-16T04:57:45Z</time>
      </trkpt>
      <trkpt lat="46.18356" lon="10.29837">
        <ele>1443.065</ele>
        <time>2018-09-16T04:58:05Z</time>
      </trkpt>
      <trkpt lat="46.18356" lon="10.29837">
        <ele>1443.211</ele>
        <time>2018-09-16T04:58:25Z</time>
      </trkpt>
      <trkpt lat="46.18358" lon="10.29788">
        <ele>1459.508</ele>
        <time>2018-09-16T04:58:45Z</time>
      </trkpt>
      <trkpt lat="46.18376" lon="10.29776">
        <ele>1470.563</ele>
        <time>2018-09-16T04:59:05Z</time>
      </trkpt>
      <trkpt lat="46.18379" lon="10.29761">
        <ele>1476.119</ele>
        <time>2018-09-16T04:59:25Z</time>
      </trkpt>
      <trkpt lat="46.18373" lon="10.29741">
        <ele>1477.916</ele>
        <time>2018-09-16T04:59:45Z</time>
      </trkpt>
      <trkpt lat="46.18373" lon="10.29726">
        <ele>1477.729</ele>
        <time>2018-09-16T05:00:05Z</time>
      </trkpt>
      <trkpt lat="46.1838" lon="10.29698">
        <ele>1477.672</ele>
        <time>2018-09-16T05:00:25Z</time>
      </trkpt>
      <trkpt lat="46.1839" lon="10.29692">
        <ele>1479.265</ele>
        <time>2018-09-16T05:00:45Z</time>
      </trkpt>
      <trkpt lat="46.18392" lon="10.297">
        <ele>1480.613</ele>
        <time>2018-09-16T05:01:05Z</time>
      </trkpt>
      <trkpt lat="46.18398" lon="10.2972">
        <ele>1484.63</ele>
        <time>2018-09-16T05:01:25Z</time>
      </trkpt>
      <trkpt lat="46.18403" lon="10.29726">
        <ele>1487.389</ele>
        <time>2018-09-16T05:01:45Z</time>
      </trkpt>
      <trkpt lat="46.18408" lon="10.29733">
        <ele>1490.306</ele>
        <time>2018-09-16T05:02:05Z</time>
      </trkpt>
      <trkpt lat="46.18413" lon="10.29738">
        <ele>1493.526</ele>
        <time>2018-09-16T05:02:25Z</time>
      </trkpt>
      <trkpt lat="46.18418" lon="10.29739">
        <ele>1496.508</ele>
        <time>2018-09-16T05:02:45Z</time>
      </trkpt>
      <trkpt lat="46.18422" lon="10.29735">
        <ele>1499.05</ele>
        <time>2018-09-16T05:03:05Z</time>
      </trkpt>
      <trkpt lat="46.18426" lon="10.29729">
        <ele>1501.086</ele>
        <time>2018-09-16T05:03:25Z</time>
      </trkpt>
      <trkpt lat="46.1843" lon="10.29728">
        <ele>1503.933</ele>
        <time>2018-09-16T05:03:45Z</time>
      </trkpt>
      <trkpt lat="46.18431" lon="10.29728">
        <ele>1504.666</ele>
        <time>2018-09-16T05:04:05Z</time>
      </trkpt>
      <trkpt lat="46.1844" lon="10.29738">
        <ele>1512.619</ele>
        <time>2018-09-16T05:04:25Z</time>
      </trkpt>
      <trkpt lat="46.18443" lon="10.29743">
        <ele>1515.442</ele>
        <time>2018-09-16T05:04:45Z</time>
      </trkpt>
      <trkpt lat="46.18442" lon="10.29755">
        <ele>1517.38</ele>
        <time>2018-09-16T05:05:05Z</time>
      </trkpt>
      <trkpt lat="46.18442" lon="10.29766">
        <ele>1519.577</ele>
        <time>2018-09-16T05:05:25Z</time>
      </trkpt>
      <trkpt lat="46.18446" lon="10.29778">
        <ele>1525.053</ele>
        <time>2018-09-16T05:05:45Z</time>
      </trkpt>
      <trkpt lat="46.18451" lon="10.29793">
        <ele>1524.604</ele>
        <time>2018-09-16T05:06:05Z</time>
      </trkpt>
      <trkpt lat="46.18458" lon="10.29812">
        <ele>1525.514</ele>
        <time>2018-09-16T05:06:25Z</time>
      </trkpt>
      <trkpt lat="46.18468" lon="10.29845">
        <ele>1528.708</ele>
        <time>2018-09-16T05:06:45Z</time>
      </trkpt>
      <trkpt lat="46.18472" lon="10.29864">
        <ele>1531.637</ele>
        <time>2018-09-16T05:07:05Z</time>
      </trkpt>
      <trkpt lat="46.18477" lon="10.29877">
        <ele>1532.763</ele>
        <time>2018-09-16T05:07:25Z</time>
      </trkpt>
      <trkpt lat="46.1848" lon="10.29891">
        <ele>1532.76</ele>
        <time>2018-09-16T05:07:45Z</time>
      </trkpt>
      <trkpt lat="46.18481" lon="10.29901">
        <ele>1532.453</ele>
        <time>2018-09-16T05:08:05Z</time>
      </trkpt>
      <trkpt lat="46.18485" lon="10.29912">
        <ele>1533.126</ele>
        <time>2018-09-16T05:08:25Z</time>
      </trkpt>
      <trkpt lat="46.18494" lon="10.29929">
        <ele>1535.179</ele>
        <time>2018-09-16T05:08:45Z</time>
      </trkpt>
      <trkpt lat="46.18503" lon="10.29944">
        <ele>1536.497</ele>
        <time>2018-09-16T05:09:05Z</time>
      </trkpt>
      <trkpt lat="46.1852" lon="10.29971">
        <ele>1544.564</ele>
        <time>2018-09-16T05:09:25Z</time>
      </trkpt>
      <trkpt lat="46.18526" lon="10.29974">
        <ele>1550.291</ele>
        <time>2018-09-16T05:09:45Z</time>
      </trkpt>
      <trkpt lat="46.18531" lon="10.29983">
        <ele>1551.981</ele>
        <time>2018-09-16T05:10:05Z</time>
      </trkpt>
      <trkpt lat="46.18538" lon="10.29997">
        <ele>1554.619</ele>
        <time>2018-09-16T05:10:25Z</time>
      </trkpt>
      <trkpt lat="46.18543" lon="10.30007">
        <ele>1555.708</ele>
        <time>2018-09-16T05:10:45Z</time>
      </trkpt>
      <trkpt lat="46.18544" lon="10.3002">
        <ele>1554.181</ele>
        <time>2018-09-16T05:11:05Z</time>
      </trkpt>
      <trkpt lat="46.18549" lon="10.30035">
        <ele>1554.967</ele>
        <time>2018-09-16T05:11:25Z</time>
      </trkpt>
      <trkpt lat="46.18552" lon="10.30048">
        <ele>1554.544</ele>
        <time>2018-09-16T05:11:45Z</time>
      </trkpt>
      <trkpt lat="46.18555" lon="10.30062">
        <ele>1554.057</ele>
        <time>2018-09-16T05:12:05Z</time>
      </trkpt>
      <trkpt lat="46.18555" lon="10.30063">
        <ele>1553.94</ele>
        <time>2018-09-16T05:12:25Z</time>
      </trkpt>
      <trkpt lat="46.18562" lon="10.30083">
        <ele>1554.693</ele>
        <time>2018-09-16T05:12:45Z</time>
      </trkpt>
      <trkpt lat="46.18574" lon="10.30118">
        <ele>1555.911</ele>
        <time>2018-09-16T05:13:05Z</time>
      </trkpt>
      <trkpt lat="46.18581" lon="10.30135">
        <ele>1557.848</ele>
        <time>2018-09-16T05:13:25Z</time>
      </trkpt>
      <trkpt lat="46.18586" lon="10.30147">
        <ele>1558.448</ele>
        <time>2018-09-16T05:13:45Z</time>
      </trkpt>
      <trkpt lat="46.18596" lon="10.3016">
        <ele>1560.061</ele>
        <time>2018-09-16T05:14:05Z</time>
      </trkpt>
      <trkpt lat="46.1861" lon="10.3018">
        <ele>1558.117</ele>
        <time>2018-09-16T05:14:25Z</time>
      </trkpt>
      <trkpt lat="46.18622" lon="10.3019">
        <ele>1548.208</ele>
        <time>2018-09-16T05:14:45Z</time>
      </trkpt>
      <trkpt lat="46.18636" lon="10.30198">
        <ele>1540.356</ele>
        <time>2018-09-16T05:15:05Z</time>
      </trkpt>
      <trkpt lat="46.18648" lon="10.30199">
        <ele>1545.082</ele>
        <time>2018-09-16T05:15:25Z</time>
      </trkpt>
      <trkpt lat="46.18653" lon="10.30195">
        <ele>1548.849</ele>
        <time>2018-09-16T05:15:45Z</time>
      </trkpt>
      <trkpt lat="46.18657" lon="10.30185">
        <ele>1552.592</ele>
        <time>2018-09-16T05:16:05Z</time>
      </trkpt>
      <trkpt lat="46.18662" lon="10.30176">
        <ele>1556.125</ele>
        <time>2018-09-16T05:16:25Z</time>
      </trkpt>
      <trkpt lat="46.18667" lon="10.30174">
        <ele>1558.638</ele>
        <time>2018-09-16T05:16:45Z</time>
      </trkpt>
      <trkpt lat="46.18669" lon="10.30175">
        <ele>1559.086</ele>
        <time>2018-09-16T05:17:05Z</time>
      </trkpt>
      <trkpt lat="46.18672" lon="10.30148">
        <ele>1564.193</ele>
        <time>2018-09-16T05:17:25Z</time>
      </trkpt>
      <trkpt lat="46.18675" lon="10.30128">
        <ele>1568.385</ele>
        <time>2018-09-16T05:17:45Z</time>
      </trkpt>
      <trkpt lat="46.18679" lon="10.30115">
        <ele>1571.789</ele>
        <time>2018-09-16T05:18:05Z</time>
      </trkpt>
      <trkpt lat="46.18686" lon="10.301">
        <ele>1573.817</ele>
        <time>2018-09-16T05:18:25Z</time>
      </trkpt>
      <trkpt lat="46.18696" lon="10.3008">
        <ele>1575.408</ele>
        <time>2018-09-16T05:18:45Z</time>
      </trkpt>
      <trkpt lat="46.18702" lon="10.30069">
        <ele>1577.21</ele>
        <time>2018-09-16T05:19:05Z</time>
      </trkpt>
      <trkpt lat="46.18719" lon="10.30045">
        <ele>1581.136</ele>
        <time>2018-09-16T05:19:25Z</time>
      </trkpt>
      <trkpt lat="46.18725" lon="10.30036">
        <ele>1581.823</ele>
        <time>2018-09-16T05:19:45Z</time>
      </trkpt>
      <trkpt lat="46.18728" lon="10.3003">
        <ele>1582.366</ele>
        <time>2018-09-16T05:20:05Z</time>
      </trkpt>
      <trkpt lat="46.18735" lon="10.30011">
        <ele>1582.059</ele>
        <time>2018-09-16T05:20:25Z</time>
      </trkpt>
      <trkpt lat="46.18749" lon="10.29981">
        <ele>1581.352</ele>
        <time>2018-09-16T05:20:45Z</time>
      </trkpt>
      <trkpt lat="46.18767" lon="10.2995">
        <ele>1577.76</ele>
        <time>2018-09-16T05:21:05Z</time>
      </trkpt>
      <trkpt lat="46.18791" lon="10.29913">
        <ele>1571.527</ele>
        <time>2018-09-16T05:21:25Z</time>
      </trkpt>
      <trkpt lat="46.18809" lon="10.29905">
        <ele>1570.834</ele>
        <time>2018-09-16T05:21:45Z</time>
      </trkpt>
      <trkpt lat="46.18832" lon="10.29901">
        <ele>1571.355</ele>
        <time>2018-09-16T05:22:05Z</time>
      </trkpt>
      <trkpt lat="46.18864" lon="10.299">
        <ele>1569.21</ele>
        <time>2018-09-16T05:22:25Z</time>
      </trkpt>
      <trkpt lat="46.18895" lon="10.29904">
        <ele>1571.108</ele>
        <time>2018-09-16T05:22:45Z</time>
      </trkpt>
      <trkpt lat="46.18926" lon="10.299">
        <ele>1569.955</ele>
        <time>2018-09-16T05:23:05Z</time>
      </trkpt>
      <trkpt lat="46.18959" lon="10.299">
        <ele>1567.551</ele>
        <time>2018-09-16T05:23:25Z</time>
      </trkpt>
      <trkpt lat="46.18993" lon="10.29899">
        <ele>1560.678</ele>
        <time>2018-09-16T05:23:45Z</time>
      </trkpt>
      <trkpt lat="46.19019" lon="10.29911">
        <ele>1558.941</ele>
        <time>2018-09-16T05:24:05Z</time>
      </trkpt>
      <trkpt lat="46.19039" lon="10.29923">
        <ele>1560.914</ele>
        <time>2018-09-16T05:24:25Z</time>
      </trkpt>
      <trkpt lat="46.19051" lon="10.29934">
        <ele>1564.567</ele>
        <time>2018-09-16T05:24:45Z</time>
      </trkpt>
      <trkpt lat="46.19067" lon="10.29955">
        <ele>1571.015</ele>
        <time>2018-09-16T05:25:05Z</time>
      </trkpt>
      <trkpt lat="46.19076" lon="10.2998">
        <ele>1578.222</ele>
        <time>2018-09-16T05:25:25Z</time>
      </trkpt>
      <trkpt lat="46.19087" lon="10.29998">
        <ele>1583.256</ele>
        <time>2018-09-16T05:25:45Z</time>
      </trkpt>
      <trkpt lat="46.19114" lon="10.30019">
        <ele>1584.959</ele>
        <time>2018-09-16T05:26:05Z</time>
      </trkpt>
      <trkpt lat="46.19151" lon="10.30037">
        <ele>1592.114</ele>
        <time>2018-09-16T05:26:25Z</time>
      </trkpt>
      <trkpt lat="46.19163" lon="10.3004">
        <ele>1596.408</ele>
        <time>2018-09-16T05:26:45Z</time>
      </trkpt>
      <trkpt lat="46.19172" lon="10.30042">
        <ele>1598.817</ele>
        <time>2018-09-16T05:27:05Z</time>
      </trkpt>
      <trkpt lat="46.19176" lon="10.30044">
        <ele>1599.993</ele>
        <time>2018-09-16T05:27:25Z</time>
      </trkpt>
      <trkpt lat="46.19183" lon="10.30039">
        <ele>1602.06</ele>
        <time>2018-09-16T05:27:45Z</time>
      </trkpt>
      <trkpt lat="46.19185" lon="10.3003">
        <ele>1603.313</ele>
        <time>2018-09-16T05:28:05Z</time>
      </trkpt>
      <trkpt lat="46.19187" lon="10.30019">
        <ele>1604.486</ele>
        <time>2018-09-16T05:28:25Z</time>
      </trkpt>
      <trkpt lat="46.1919" lon="10.30005">
        <ele>1605.819</ele>
        <time>2018-09-16T05:28:45Z</time>
      </trkpt>
      <trkpt lat="46.19195" lon="10.29991">
        <ele>1607.927</ele>
        <time>2018-09-16T05:29:05Z</time>
      </trkpt>
      <trkpt lat="46.19201" lon="10.29974">
        <ele>1610.284</ele>
        <time>2018-09-16T05:29:25Z</time>
      </trkpt>
      <trkpt lat="46.19207" lon="10.29947">
        <ele>1607.989</ele>
        <time>2018-09-16T05:29:45Z</time>
      </trkpt>
      <trkpt lat="46.19215" lon="10.2993">
        <ele>1606.406</ele>
        <time>2018-09-16T05:30:05Z</time>
      </trkpt>
      <trkpt lat="46.19225" lon="10.29923">
        <ele>1608.426</ele>
        <time>2018-09-16T05:30:25Z</time>
      </trkpt>
      <trkpt lat="46.19245" lon="10.29899">
        <ele>1611.608</ele>
        <time>2018-09-16T05:30:45Z</time>
      </trkpt>
      <trkpt lat="46.19258" lon="10.29886">
        <ele>1614.87</ele>
        <time>2018-09-16T05:31:05Z</time>
      </trkpt>
      <trkpt lat="46.1929" lon="10.29852">
        <ele>1619.816</ele>
        <time>2018-09-16T05:31:25Z</time>
      </trkpt>
      <trkpt lat="46.193" lon="10.29839">
        <ele>1620.553</ele>
        <time>2018-09-16T05:31:45Z</time>
      </trkpt>
      <trkpt lat="46.19325" lon="10.29815">
        <ele>1621.856</ele>
        <time>2018-09-16T05:32:05Z</time>
      </trkpt>
      <trkpt lat="46.19328" lon="10.29813">
        <ele>1622.119</ele>
        <time>2018-09-16T05:32:25Z</time>
      </trkpt>
      <trkpt lat="46.19338" lon="10.29806">
        <ele>1624.122</ele>
        <time>2018-09-16T05:32:45Z</time>
      </trkpt>
      <trkpt lat="46.19366" lon="10.29784">
        <ele>1629.98</ele>
        <time>2018-09-16T05:33:05Z</time>
      </trkpt>
      <trkpt lat="46.1938" lon="10.29773">
        <ele>1631.727</ele>
        <time>2018-09-16T05:33:25Z</time>
      </trkpt>
      <trkpt lat="46.19392" lon="10.2976">
        <ele>1632.332</ele>
        <time>2018-09-16T05:33:45Z</time>
      </trkpt>
      <trkpt lat="46.19393" lon="10.29748">
        <ele>1629.892</ele>
        <time>2018-09-16T05:34:05Z</time>
      </trkpt>
      <trkpt lat="46.19396" lon="10.29745">
        <ele>1630.711</ele>
        <time>2018-09-16T05:34:25Z</time>
      </trkpt>
      <trkpt lat="46.19399" lon="10.29743">
        <ele>1632.008</ele>
        <time>2018-09-16T05:34:45Z</time>
      </trkpt>
      <trkpt lat="46.19403" lon="10.29743">
        <ele>1633.925</ele>
        <time>2018-09-16T05:35:05Z</time>
      </trkpt>
      <trkpt lat="46.19408" lon="10.2974">
        <ele>1635.621</ele>
        <time>2018-09-16T05:35:25Z</time>
      </trkpt>
      <trkpt lat="46.19414" lon="10.29737">
        <ele>1637.838</ele>
        <time>2018-09-16T05:35:45Z</time>
      </trkpt>
      <trkpt lat="46.19418" lon="10.29734">
        <ele>1638.891</ele>
        <time>2018-09-16T05:36:05Z</time>
      </trkpt>
      <trkpt lat="46.19424" lon="10.29732">
        <ele>1640.254</ele>
        <time>2018-09-16T05:36:25Z</time>
      </trkpt>
      <trkpt lat="46.19438" lon="10.29727">
        <ele>1643.567</ele>
        <time>2018-09-16T05:36:45Z</time>
      </trkpt>
      <trkpt lat="46.19442" lon="10.29724">
        <ele>1644.555</ele>
        <time>2018-09-16T05:37:05Z</time>
      </trkpt>
      <trkpt lat="46.19446" lon="10.29717">
        <ele>1644.222</ele>
        <time>2018-09-16T05:37:25Z</time>
      </trkpt>
      <trkpt lat="46.19449" lon="10.29714">
        <ele>1644.967</ele>
        <time>2018-09-16T05:37:45Z</time>
      </trkpt>
      <trkpt lat="46.19454" lon="10.29713">
        <ele>1646.681</ele>
        <time>2018-09-16T05:38:05Z</time>
      </trkpt>
      <trkpt lat="46.19458" lon="10.29707">
        <ele>1647.319</ele>
        <time>2018-09-16T05:38:25Z</time>
      </trkpt>
      <trkpt lat="46.19466" lon="10.29696">
        <ele>1649.808</ele>
        <time>2018-09-16T05:38:45Z</time>
      </trkpt>
      <trkpt lat="46.19471" lon="10.29688">
        <ele>1651.628</ele>
        <time>2018-09-16T05:39:05Z</time>
      </trkpt>
      <trkpt lat="46.19477" lon="10.2968">
        <ele>1655.324</ele>
        <time>2018-09-16T05:39:25Z</time>
      </trkpt>
      <trkpt lat="46.19482" lon="10.29675">
        <ele>1657.871</ele>
        <time>2018-09-16T05:39:45Z</time>
      </trkpt>
      <trkpt lat="46.19486" lon="10.29671">
        <ele>1660.394</ele>
        <time>2018-09-16T05:40:05Z</time>
      </trkpt>
      <trkpt lat="46.19478" lon="10.297">
        <ele>1657.557</ele>
        <time>2018-09-16T05:40:25Z</time>
      </trkpt>
      <trkpt lat="46.19475" lon="10.29708">
        <ele>1655.54</ele>
        <time>2018-09-16T05:40:45Z</time>
      </trkpt>
      <trkpt lat="46.19471" lon="10.29723">
        <ele>1653.868</ele>
        <time>2018-09-16T05:41:05Z</time>
      </trkpt>
      <trkpt lat="46.19465" lon="10.29739">
        <ele>1656.595</ele>
        <time>2018-09-16T05:41:25Z</time>
      </trkpt>
      <trkpt lat="46.19445" lon="10.2979">
        <ele>1661.928</ele>
        <time>2018-09-16T05:41:45Z</time>
      </trkpt>
      <trkpt lat="46.19443" lon="10.29808">
        <ele>1666.989</ele>
        <time>2018-09-16T05:42:05Z</time>
      </trkpt>
      <trkpt lat="46.1943" lon="10.29846">
        <ele>1673.117</ele>
        <time>2018-09-16T05:42:25Z</time>
      </trkpt>
      <trkpt lat="46.19422" lon="10.2986">
        <ele>1674.208</ele>
        <time>2018-09-16T05:42:45Z</time>
      </trkpt>
      <trkpt lat="46.19409" lon="10.29877">
        <ele>1672.644</ele>
        <time>2018-09-16T05:43:05Z</time>
      </trkpt>
      <trkpt lat="46.19399" lon="10.29889">
        <ele>1671.32</ele>
        <time>2018-09-16T05:43:25Z</time>
      </trkpt>
      <trkpt lat="46.19392" lon="10.29899">
        <ele>1671.277</ele>
        <time>2018-09-16T05:43:45Z</time>
      </trkpt>
      <trkpt lat="46.19383" lon="10.2992">
        <ele>1672.35</ele>
        <time>2018-09-16T05:44:05Z</time>
      </trkpt>
      <trkpt lat="46.19382" lon="10.2994">
        <ele>1670.433</ele>
        <time>2018-09-16T05:44:25Z</time>
      </trkpt>
      <trkpt lat="46.19386" lon="10.29952">
        <ele>1670.086</ele>
        <time>2018-09-16T05:44:45Z</time>
      </trkpt>
      <trkpt lat="46.19397" lon="10.29957">
        <ele>1672.144</ele>
        <time>2018-09-16T05:45:05Z</time>
      </trkpt>
      <trkpt lat="46.19419" lon="10.29948">
        <ele>1678.081</ele>
        <time>2018-09-16T05:45:25Z</time>
      </trkpt>
      <trkpt lat="46.19449" lon="10.29954">
        <ele>1682.257</ele>
        <time>2018-09-16T05:45:45Z</time>
      </trkpt>
      <trkpt lat="46.19463" lon="10.29956">
        <ele>1683.1</ele>
        <time>2018-09-16T05:46:05Z</time>
      </trkpt>
      <trkpt lat="46.19476" lon="10.29962">
        <ele>1683.62</ele>
        <time>2018-09-16T05:46:25Z</time>
      </trkpt>
      <trkpt lat="46.19491" lon="10.29965">
        <ele>1685.008</ele>
        <time>2018-09-16T05:46:45Z</time>
      </trkpt>
      <trkpt lat="46.19508" lon="10.29963">
        <ele>1686.437</ele>
        <time>2018-09-16T05:47:05Z</time>
      </trkpt>
      <trkpt lat="46.19522" lon="10.29964">
        <ele>1686.593</ele>
        <time>2018-09-16T05:47:25Z</time>
      </trkpt>
      <trkpt lat="46.19527" lon="10.29963">
        <ele>1687.03</ele>
        <time>2018-09-16T05:47:45Z</time>
      </trkpt>
      <trkpt lat="46.1953" lon="10.29953">
        <ele>1688.623</ele>
        <time>2018-09-16T05:48:05Z</time>
      </trkpt>
      <trkpt lat="46.19532" lon="10.2994">
        <ele>1690.916</ele>
        <time>2018-09-16T05:48:25Z</time>
      </trkpt>
      <trkpt lat="46.19535" lon="10.29926">
        <ele>1693.179</ele>
        <time>2018-09-16T05:48:45Z</time>
      </trkpt>
      <trkpt lat="46.19535" lon="10.2991">
        <ele>1696.097</ele>
        <time>2018-09-16T05:49:05Z</time>
      </trkpt>
      <trkpt lat="46.19536" lon="10.29894">
        <ele>1698.584</ele>
        <time>2018-09-16T05:49:25Z</time>
      </trkpt>
      <trkpt lat="46.19536" lon="10.29879">
        <ele>1700.694</ele>
        <time>2018-09-16T05:49:45Z</time>
      </trkpt>
      <trkpt lat="46.19538" lon="10.29867">
        <ele>1702.257</ele>
        <time>2018-09-16T05:50:05Z</time>
      </trkpt>
      <trkpt lat="46.19539" lon="10.2986">
        <ele>1703.122</ele>
        <time>2018-09-16T05:50:25Z</time>
      </trkpt>
      <trkpt lat="46.19569" lon="10.2985">
        <ele>1703.908</ele>
        <time>2018-09-16T05:50:45Z</time>
      </trkpt>
      <trkpt lat="46.19569" lon="10.2985">
        <ele>1703.971</ele>
        <time>2018-09-16T05:51:05Z</time>
      </trkpt>
      <trkpt lat="46.19571" lon="10.29866">
        <ele>1699.887</ele>
        <time>2018-09-16T05:51:25Z</time>
      </trkpt>
      <trkpt lat="46.19573" lon="10.29879">
        <ele>1697.234</ele>
        <time>2018-09-16T05:51:45Z</time>
      </trkpt>
      <trkpt lat="46.19581" lon="10.29878">
        <ele>1696.327</ele>
        <time>2018-09-16T05:52:05Z</time>
      </trkpt>
      <trkpt lat="46.19584" lon="10.29876">
        <ele>1696.41</ele>
        <time>2018-09-16T05:52:25Z</time>
      </trkpt>
      <trkpt lat="46.19596" lon="10.29866">
        <ele>1698.193</ele>
        <time>2018-09-16T05:52:45Z</time>
      </trkpt>
      <trkpt lat="46.19607" lon="10.29865">
        <ele>1698.451</ele>
        <time>2018-09-16T05:53:05Z</time>
      </trkpt>
      <trkpt lat="46.19617" lon="10.2987">
        <ele>1697.748</ele>
        <time>2018-09-16T05:53:25Z</time>
      </trkpt>
      <trkpt lat="46.19656" lon="10.29894">
        <ele>1696.628</ele>
        <time>2018-09-16T05:53:45Z</time>
      </trkpt>
      <trkpt lat="46.19666" lon="10.29901">
        <ele>1696.689</ele>
        <time>2018-09-16T05:54:05Z</time>
      </trkpt>
      <trkpt lat="46.19678" lon="10.29912">
        <ele>1697.517</ele>
        <time>2018-09-16T05:54:25Z</time>
      </trkpt>
      <trkpt lat="46.19682" lon="10.29914">
        <ele>1698.008</ele>
        <time>2018-09-16T05:54:45Z</time>
      </trkpt>
      <trkpt lat="46.19688" lon="10.29916">
        <ele>1698.824</ele>
        <time>2018-09-16T05:55:05Z</time>
      </trkpt>
      <trkpt lat="46.19707" lon="10.2993">
        <ele>1703.02</ele>
        <time>2018-09-16T05:55:25Z</time>
      </trkpt>
      <trkpt lat="46.19712" lon="10.29958">
        <ele>1702.277</ele>
        <time>2018-09-16T05:55:45Z</time>
      </trkpt>
      <trkpt lat="46.19719" lon="10.29983">
        <ele>1701.29</ele>
        <time>2018-09-16T05:56:05Z</time>
      </trkpt>
      <trkpt lat="46.19728" lon="10.30035">
        <ele>1699.113</ele>
        <time>2018-09-16T05:56:25Z</time>
      </trkpt>
      <trkpt lat="46.19737" lon="10.30063">
        <ele>1699.096</ele>
        <time>2018-09-16T05:56:45Z</time>
      </trkpt>
      <trkpt lat="46.19749" lon="10.30075">
        <ele>1699.814</ele>
        <time>2018-09-16T05:57:05Z</time>
      </trkpt>
      <trkpt lat="46.19763" lon="10.30094">
        <ele>1699.041</ele>
        <time>2018-09-16T05:57:25Z</time>
      </trkpt>
      <trkpt lat="46.19757" lon="10.30141">
        <ele>1698.267</ele>
        <time>2018-09-16T05:57:45Z</time>
      </trkpt>
      <trkpt lat="46.19762" lon="10.30172">
        <ele>1699.081</ele>
        <time>2018-09-16T05:58:05Z</time>
      </trkpt>
      <trkpt lat="46.19768" lon="10.30205">
        <ele>1699.619</ele>
        <time>2018-09-16T05:58:25Z</time>
      </trkpt>
      <trkpt lat="46.1976" lon="10.30278">
        <ele>1699.308</ele>
        <time>2018-09-16T05:58:45Z</time>
      </trkpt>
      <trkpt lat="46.1976" lon="10.30324">
        <ele>1699.028</ele>
        <time>2018-09-16T05:59:05Z</time>
      </trkpt>
      <trkpt lat="46.1976" lon="10.30326">
        <ele>1699.084</ele>
        <time>2018-09-16T05:59:25Z</time>
      </trkpt>
      <trkpt lat="46.19766" lon="10.30378">
        <ele>1699.061</ele>
        <time>2018-09-16T05:59:45Z</time>
      </trkpt>
      <trkpt lat="46.19796" lon="10.30386">
        <ele>1699.034</ele>
        <time>2018-09-16T06:00:05Z</time>
      </trkpt>
      <trkpt lat="46.19807" lon="10.30389">
        <ele>1698.617</ele>
        <time>2018-09-16T06:00:25Z</time>
      </trkpt>
      <trkpt lat="46.1981" lon="10.30392">
        <ele>1697.87</ele>
        <time>2018-09-16T06:00:45Z</time>
      </trkpt>
      <trkpt lat="46.19876" lon="10.30433">
        <ele>1680.268</ele>
        <time>2018-09-16T06:01:05Z</time>
      </trkpt>
      <trkpt lat="46.1989" lon="10.30441">
        <ele>1680.055</ele>
        <time>2018-09-16T06:01:25Z</time>
      </trkpt>
      <trkpt lat="46.19893" lon="10.30442">
        <ele>1679.355</ele>
        <time>2018-09-16T06:01:45Z</time>
      </trkpt>
      <trkpt lat="46.19898" lon="10.30445">
        <ele>1678.407</ele>
        <time>2018-09-16T06:02:05Z</time>
      </trkpt>
      <trkpt lat="46.19901" lon="10.30447">
        <ele>1677.917</ele>
        <time>2018-09-16T06:02:25Z</time>
      </trkpt>
      <trkpt lat="46.19901" lon="10.30447">
        <ele>1677.808</ele>
        <time>2018-09-16T06:02:45Z</time>
      </trkpt>
      <trkpt lat="46.19906" lon="10.30447">
        <ele>1676.547</ele>
        <time>2018-09-16T06:03:05Z</time>
      </trkpt>
      <trkpt lat="46.19915" lon="10.30448">
        <ele>1674.413</ele>
        <time>2018-09-16T06:03:25Z</time>
      </trkpt>
      <trkpt lat="46.19917" lon="10.30449">
        <ele>1673.85</ele>
        <time>2018-09-16T06:03:45Z</time>
      </trkpt>
      <trkpt lat="46.19914" lon="10.30436">
        <ele>1670.843</ele>
        <time>2018-09-16T06:04:05Z</time>
      </trkpt>
      <trkpt lat="46.19916" lon="10.30403">
        <ele>1661.756</ele>
        <time>2018-09-16T06:04:25Z</time>
      </trkpt>
      <trkpt lat="46.19918" lon="10.30401">
        <ele>1660.849</ele>
        <time>2018-09-16T06:04:45Z</time>
      </trkpt>
      <trkpt lat="46.19919" lon="10.30394">
        <ele>1659.467</ele>
        <time>2018-09-16T06:05:05Z</time>
      </trkpt>
      <trkpt lat="46.19923" lon="10.30388">
        <ele>1657.664</ele>
        <time>2018-09-16T06:05:25Z</time>
      </trkpt>
      <trkpt lat="46.19928" lon="10.30381">
        <ele>1656.588</ele>
        <time>2018-09-16T06:05:45Z</time>
      </trkpt>
      <trkpt lat="46.19932" lon="10.30376">
        <ele>1655.524</ele>
        <time>2018-09-16T06:06:05Z</time>
      </trkpt>
      <trkpt lat="46.19937" lon="10.3037">
        <ele>1654.326</ele>
        <time>2018-09-16T06:06:25Z</time>
      </trkpt>
      <trkpt lat="46.1994" lon="10.30364">
        <ele>1653.408</ele>
        <time>2018-09-16T06:06:45Z</time>
      </trkpt>
      <trkpt lat="46.19945" lon="10.3036">
        <ele>1652.03</ele>
        <time>2018-09-16T06:07:05Z</time>
      </trkpt>
      <trkpt lat="46.19954" lon="10.3035">
        <ele>1650.926</ele>
        <time>2018-09-16T06:07:25Z</time>
      </trkpt>
      <trkpt lat="46.19954" lon="10.30349">
        <ele>1650.953</ele>
        <time>2018-09-16T06:07:45Z</time>
      </trkpt>
      <trkpt lat="46.19958" lon="10.30343">
        <ele>1650.856</ele>
        <time>2018-09-16T06:08:05Z</time>
      </trkpt>
      <trkpt lat="46.1996" lon="10.30336">
        <ele>1651.239</ele>
        <time>2018-09-16T06:08:25Z</time>
      </trkpt>
      <trkpt lat="46.19963" lon="10.30331">
        <ele>1651.392</ele>
        <time>2018-09-16T06:08:45Z</time>
      </trkpt>
      <trkpt lat="46.19968" lon="10.30328">
        <ele>1650.67</ele>
        <time>2018-09-16T06:09:05Z</time>
      </trkpt>
      <trkpt lat="46.19969" lon="10.30327">
        <ele>1650.537</ele>
        <time>2018-09-16T06:09:25Z</time>
      </trkpt>
      <trkpt lat="46.19975" lon="10.30325">
        <ele>1649.619</ele>
        <time>2018-09-16T06:09:45Z</time>
      </trkpt>
      <trkpt lat="46.19978" lon="10.30322">
        <ele>1649.309</ele>
        <time>2018-09-16T06:10:05Z</time>
      </trkpt>
      <trkpt lat="46.19981" lon="10.30319">
        <ele>1649.119</ele>
        <time>2018-09-16T06:10:25Z</time>
      </trkpt>
      <trkpt lat="46.19985" lon="10.30314">
        <ele>1648.908</ele>
        <time>2018-09-16T06:10:45Z</time>
      </trkpt>
      <trkpt lat="46.19989" lon="10.3031">
        <ele>1648.743</ele>
        <time>2018-09-16T06:11:05Z</time>
      </trkpt>
      <trkpt lat="46.19994" lon="10.30305">
        <ele>1648.499</ele>
        <time>2018-09-16T06:11:25Z</time>
      </trkpt>
      <trkpt lat="46.19998" lon="10.30301">
        <ele>1648.196</ele>
        <time>2018-09-16T06:11:45Z</time>
      </trkpt>
      <trkpt lat="46.20003" lon="10.30296">
        <ele>1647.289</ele>
        <time>2018-09-16T06:12:05Z</time>
      </trkpt>
      <trkpt lat="46.20006" lon="10.30295">
        <ele>1646.142</ele>
        <time>2018-09-16T06:12:25Z</time>
      </trkpt>
      <trkpt lat="46.20016" lon="10.30292">
        <ele>1642.375</ele>
        <time>2018-09-16T06:12:45Z</time>
      </trkpt>
      <trkpt lat="46.20024" lon="10.30287">
        <ele>1639.963</ele>
        <time>2018-09-16T06:13:05Z</time>
      </trkpt>
      <trkpt lat="46.20032" lon="10.30284">
        <ele>1637.21</ele>
        <time>2018-09-16T06:13:25Z</time>
      </trkpt>
      <trkpt lat="46.20064" lon="10.30267">
        <ele>1633.645</ele>
        <time>2018-09-16T06:13:45Z</time>
      </trkpt>
      <trkpt lat="46.20068" lon="10.30265">
        <ele>1634.247</ele>
        <time>2018-09-16T06:14:05Z</time>
      </trkpt>
      <trkpt lat="46.20081" lon="10.30257">
        <ele>1637.711</ele>
        <time>2018-09-16T06:14:25Z</time>
      </trkpt>
      <trkpt lat="46.20094" lon="10.30249">
        <ele>1641.508</ele>
        <time>2018-09-16T06:14:45Z</time>
      </trkpt>
      <trkpt lat="46.20103" lon="10.30237">
        <ele>1645.166</ele>
        <time>2018-09-16T06:15:05Z</time>
      </trkpt>
      <trkpt lat="46.20109" lon="10.30211">
        <ele>1653.652</ele>
        <time>2018-09-16T06:15:25Z</time>
      </trkpt>
      <trkpt lat="46.20127" lon="10.3015">
        <ele>1666.689</ele>
        <time>2018-09-16T06:15:45Z</time>
      </trkpt>
      <trkpt lat="46.20134" lon="10.30118">
        <ele>1673.382</ele>
        <time>2018-09-16T06:16:05Z</time>
      </trkpt>
      <trkpt lat="46.20146" lon="10.30089">
        <ele>1678.275</ele>
        <time>2018-09-16T06:16:25Z</time>
      </trkpt>
      <trkpt lat="46.20157" lon="10.3007">
        <ele>1684.998</ele>
        <time>2018-09-16T06:16:45Z</time>
      </trkpt>
      <trkpt lat="46.20167" lon="10.30056">
        <ele>1689.996</ele>
        <time>2018-09-16T06:17:05Z</time>
      </trkpt>
      <trkpt lat="46.2018" lon="10.30042">
        <ele>1702.423</ele>
        <time>2018-09-16T06:17:25Z</time>
      </trkpt>
      <trkpt lat="46.20193" lon="10.30026">
        <ele>1713.922</ele>
        <time>2018-09-16T06:17:45Z</time>
      </trkpt>
      <trkpt lat="46.20208" lon="10.30011">
        <ele>1725.262</ele>
        <time>2018-09-16T06:18:05Z</time>
      </trkpt>
      <trkpt lat="46.20211" lon="10.30014">
        <ele>1725.708</ele>
        <time>2018-09-16T06:18:25Z</time>
      </trkpt>
      <trkpt lat="46.20213" lon="10.30015">
        <ele>1726.208</ele>
        <time>2018-09-16T06:18:45Z</time>
      </trkpt>
      <trkpt lat="46.2024" lon="10.30038">
        <ele>1730.074</ele>
        <time>2018-09-16T06:19:05Z</time>
      </trkpt>
      <trkpt lat="46.20263" lon="10.30062">
        <ele>1725.73</ele>
        <time>2018-09-16T06:19:25Z</time>
      </trkpt>
      <trkpt lat="46.20266" lon="10.30066">
        <ele>1725.187</ele>
        <time>2018-09-16T06:19:45Z</time>
      </trkpt>
      <trkpt lat="46.20287" lon="10.30077">
        <ele>1724.66</ele>
        <time>2018-09-16T06:20:05Z</time>
      </trkpt>
      <trkpt lat="46.20308" lon="10.30076">
        <ele>1729.133</ele>
        <time>2018-09-16T06:20:25Z</time>
      </trkpt>
      <trkpt lat="46.20329" lon="10.3007">
        <ele>1734.556</ele>
        <time>2018-09-16T06:20:45Z</time>
      </trkpt>
      <trkpt lat="46.2035" lon="10.3006">
        <ele>1743.784</ele>
        <time>2018-09-16T06:21:05Z</time>
      </trkpt>
      <trkpt lat="46.20387" lon="10.30059">
        <ele>1753.321</ele>
        <time>2018-09-16T06:21:25Z</time>
      </trkpt>
      <trkpt lat="46.20418" lon="10.30047">
        <ele>1760.665</ele>
        <time>2018-09-16T06:21:45Z</time>
      </trkpt>
      <trkpt lat="46.20418" lon="10.30046">
        <ele>1760.568</ele>
        <time>2018-09-16T06:22:05Z</time>
      </trkpt>
      <trkpt lat="46.20442" lon="10.30034">
        <ele>1756.414</ele>
        <time>2018-09-16T06:22:25Z</time>
      </trkpt>
      <trkpt lat="46.20463" lon="10.30012">
        <ele>1745.908</ele>
        <time>2018-09-16T06:22:45Z</time>
      </trkpt>
      <trkpt lat="46.20474" lon="10.29993">
        <ele>1741.428</ele>
        <time>2018-09-16T06:23:05Z</time>
      </trkpt>
      <trkpt lat="46.20479" lon="10.29984">
        <ele>1741.884</ele>
        <time>2018-09-16T06:23:25Z</time>
      </trkpt>
      <trkpt lat="46.20479" lon="10.29983">
        <ele>1741.711</ele>
        <time>2018-09-16T06:23:45Z</time>
      </trkpt>
      <trkpt lat="46.20495" lon="10.29962">
        <ele>1737.034</ele>
        <time>2018-09-16T06:24:05Z</time>
      </trkpt>
      <trkpt lat="46.2058" lon="10.29926">
        <ele>1743.497</ele>
        <time>2018-09-16T06:24:25Z</time>
      </trkpt>
      <trkpt lat="46.20602" lon="10.29915">
        <ele>1740.65</ele>
        <time>2018-09-16T06:24:45Z</time>
      </trkpt>
      <trkpt lat="46.20616" lon="10.29899">
        <ele>1741.678</ele>
        <time>2018-09-16T06:25:05Z</time>
      </trkpt>
      <trkpt lat="46.20636" lon="10.29872">
        <ele>1743.185</ele>
        <time>2018-09-16T06:25:25Z</time>
      </trkpt>
      <trkpt lat="46.20649" lon="10.29854">
        <ele>1746.994</ele>
        <time>2018-09-16T06:25:45Z</time>
      </trkpt>
      <trkpt lat="46.20661" lon="10.29836">
        <ele>1753.157</ele>
        <time>2018-09-16T06:26:05Z</time>
      </trkpt>
      <trkpt lat="46.20669" lon="10.2983">
        <ele>1756.022</ele>
        <time>2018-09-16T06:26:25Z</time>
      </trkpt>
      <trkpt lat="46.2067" lon="10.29831">
        <ele>1755.608</ele>
        <time>2018-09-16T06:26:45Z</time>
      </trkpt>
      <trkpt lat="46.20684" lon="10.29837">
        <ele>1752.621</ele>
        <time>2018-09-16T06:27:05Z</time>
      </trkpt>
      <trkpt lat="46.20699" lon="10.2984">
        <ele>1750.287</ele>
        <time>2018-09-16T06:27:25Z</time>
      </trkpt>
      <trkpt lat="46.20719" lon="10.29838">
        <ele>1747.014</ele>
        <time>2018-09-16T06:27:45Z</time>
      </trkpt>
      <trkpt lat="46.20739" lon="10.29841">
        <ele>1742.327</ele>
        <time>2018-09-16T06:28:05Z</time>
      </trkpt>
      <trkpt lat="46.20762" lon="10.2985">
        <ele>1734.72</ele>
        <time>2018-09-16T06:28:25Z</time>
      </trkpt>
      <trkpt lat="46.20784" lon="10.29847">
        <ele>1735.433</ele>
        <time>2018-09-16T06:28:45Z</time>
      </trkpt>
      <trkpt lat="46.20811" lon="10.2983">
        <ele>1745.781</ele>
        <time>2018-09-16T06:29:05Z</time>
      </trkpt>
      <trkpt lat="46.20838" lon="10.29828">
        <ele>1753.368</ele>
        <time>2018-09-16T06:29:25Z</time>
      </trkpt>
      <trkpt lat="46.20846" lon="10.29828">
        <ele>1756.099</ele>
        <time>2018-09-16T06:29:45Z</time>
      </trkpt>
      <trkpt lat="46.20859" lon="10.29828">
        <ele>1760.707</ele>
        <time>2018-09-16T06:30:05Z</time>
      </trkpt>
      <trkpt lat="46.20868" lon="10.29829">
        <ele>1762.927</ele>
        <time>2018-09-16T06:30:25Z</time>
      </trkpt>
      <trkpt lat="46.2089" lon="10.29828">
        <ele>1767.408</ele>
        <time>2018-09-16T06:30:45Z</time>
      </trkpt>
      <trkpt lat="46.20901" lon="10.29832">
        <ele>1767.711</ele>
        <time>2018-09-16T06:31:05Z</time>
      </trkpt>
      <trkpt lat="46.20906" lon="10.29833">
        <ele>1767.967</ele>
        <time>2018-09-16T06:31:25Z</time>
      </trkpt>
      <trkpt lat="46.20914" lon="10.29831">
        <ele>1769.574</ele>
        <time>2018-09-16T06:31:45Z</time>
      </trkpt>
      <trkpt lat="46.2092" lon="10.29822">
        <ele>1772.767</ele>
        <time>2018-09-16T06:32:05Z</time>
      </trkpt>
      <trkpt lat="46.20923" lon="10.29816">
        <ele>1774.78</ele>
        <time>2018-09-16T06:32:25Z</time>
      </trkpt>
      <trkpt lat="46.2092" lon="10.29807">
        <ele>1777.723</ele>
        <time>2018-09-16T06:32:45Z</time>
      </trkpt>
      <trkpt lat="46.20921" lon="10.2979">
        <ele>1781.071</ele>
        <time>2018-09-16T06:33:05Z</time>
      </trkpt>
      <trkpt lat="46.20924" lon="10.29783">
        <ele>1782.698</ele>
        <time>2018-09-16T06:33:25Z</time>
      </trkpt>
      <trkpt lat="46.20936" lon="10.29766">
        <ele>1787.178</ele>
        <time>2018-09-16T06:33:45Z</time>
      </trkpt>
      <trkpt lat="46.20945" lon="10.29751">
        <ele>1790.933</ele>
        <time>2018-09-16T06:34:05Z</time>
      </trkpt>
      <trkpt lat="46.20953" lon="10.29731">
        <ele>1795.726</ele>
        <time>2018-09-16T06:34:25Z</time>
      </trkpt>
      <trkpt lat="46.20963" lon="10.29721">
        <ele>1799.508</ele>
        <time>2018-09-16T06:34:45Z</time>
      </trkpt>
      <trkpt lat="46.20969" lon="10.29711">
        <ele>1802.329</ele>
        <time>2018-09-16T06:35:05Z</time>
      </trkpt>
      <trkpt lat="46.20969" lon="10.29696">
        <ele>1805.085</ele>
        <time>2018-09-16T06:35:25Z</time>
      </trkpt>
      <trkpt lat="46.20975" lon="10.29672">
        <ele>1809.982</ele>
        <time>2018-09-16T06:35:45Z</time>
      </trkpt>
      <trkpt lat="46.20993" lon="10.29667">
        <ele>1810.135</ele>
        <time>2018-09-16T06:36:05Z</time>
      </trkpt>
      <trkpt lat="46.21011" lon="10.29661">
        <ele>1811.098</ele>
        <time>2018-09-16T06:36:25Z</time>
      </trkpt>
      <trkpt lat="46.21032" lon="10.29642">
        <ele>1814.191</ele>
        <time>2018-09-16T06:36:45Z</time>
      </trkpt>
      <trkpt lat="46.21047" lon="10.29631">
        <ele>1815.029</ele>
        <time>2018-09-16T06:37:05Z</time>
      </trkpt>
      <trkpt lat="46.21062" lon="10.29614">
        <ele>1817.976</ele>
        <time>2018-09-16T06:37:25Z</time>
      </trkpt>
      <trkpt lat="46.21068" lon="10.29609">
        <ele>1819.318</ele>
        <time>2018-09-16T06:37:45Z</time>
      </trkpt>
      <trkpt lat="46.21078" lon="10.29605">
        <ele>1821.098</ele>
        <time>2018-09-16T06:38:05Z</time>
      </trkpt>
      <trkpt lat="46.21089" lon="10.29591">
        <ele>1825.017</ele>
        <time>2018-09-16T06:38:25Z</time>
      </trkpt>
      <trkpt lat="46.21098" lon="10.2958">
        <ele>1828.308</ele>
        <time>2018-09-16T06:38:45Z</time>
      </trkpt>
      <trkpt lat="46.21115" lon="10.29575">
        <ele>1831.523</ele>
        <time>2018-09-16T06:39:05Z</time>
      </trkpt>
      <trkpt lat="46.21118" lon="10.29564">
        <ele>1834.479</ele>
        <time>2018-09-16T06:39:25Z</time>
      </trkpt>
      <trkpt lat="46.21117" lon="10.29555">
        <ele>1836.246</ele>
        <time>2018-09-16T06:39:45Z</time>
      </trkpt>
      <trkpt lat="46.21128" lon="10.29554">
        <ele>1838.279</ele>
        <time>2018-09-16T06:40:05Z</time>
      </trkpt>
      <trkpt lat="46.21133" lon="10.29544">
        <ele>1841.162</ele>
        <time>2018-09-16T06:40:25Z</time>
      </trkpt>
      <trkpt lat="46.2114" lon="10.2954">
        <ele>1843.475</ele>
        <time>2018-09-16T06:40:45Z</time>
      </trkpt>
      <trkpt lat="46.21145" lon="10.29531">
        <ele>1846.333</ele>
        <time>2018-09-16T06:41:05Z</time>
      </trkpt>
      <trkpt lat="46.21141" lon="10.29518">
        <ele>1848.52</ele>
        <time>2018-09-16T06:41:25Z</time>
      </trkpt>
      <trkpt lat="46.21144" lon="10.29509">
        <ele>1851.066</ele>
        <time>2018-09-16T06:41:45Z</time>
      </trkpt>
      <trkpt lat="46.21149" lon="10.29499">
        <ele>1854.229</ele>
        <time>2018-09-16T06:42:05Z</time>
      </trkpt>
      <trkpt lat="46.21146" lon="10.29485">
        <ele>1856.621</ele>
        <time>2018-09-16T06:42:25Z</time>
      </trkpt>
      <trkpt lat="46.21153" lon="10.29484">
        <ele>1858.308</ele>
        <time>2018-09-16T06:42:45Z</time>
      </trkpt>
      <trkpt lat="46.2115" lon="10.29469">
        <ele>1860.848</ele>
        <time>2018-09-16T06:43:05Z</time>
      </trkpt>
      <trkpt lat="46.21153" lon="10.29459">
        <ele>1864.044</ele>
        <time>2018-09-16T06:43:25Z</time>
      </trkpt>
      <trkpt lat="46.21171" lon="10.29432">
        <ele>1873.851</ele>
        <time>2018-09-16T06:43:45Z</time>
      </trkpt>
      <trkpt lat="46.21187" lon="10.29453">
        <ele>1872.464</ele>
        <time>2018-09-16T06:44:05Z</time>
      </trkpt>
      <trkpt lat="46.21199" lon="10.2945">
        <ele>1876.147</ele>
        <time>2018-09-16T06:44:25Z</time>
      </trkpt>
      <trkpt lat="46.21202" lon="10.29439">
        <ele>1878.84</ele>
        <time>2018-09-16T06:44:45Z</time>
      </trkpt>
      <trkpt lat="46.21197" lon="10.29425">
        <ele>1879.578</ele>
        <time>2018-09-16T06:45:05Z</time>
      </trkpt>
      <trkpt lat="46.21197" lon="10.29415">
        <ele>1881.545</ele>
        <time>2018-09-16T06:45:25Z</time>
      </trkpt>
      <trkpt lat="46.212" lon="10.29405">
        <ele>1885.123</ele>
        <time>2018-09-16T06:45:45Z</time>
      </trkpt>
      <trkpt lat="46.21206" lon="10.29392">
        <ele>1890.083</ele>
        <time>2018-09-16T06:46:05Z</time>
      </trkpt>
      <trkpt lat="46.21215" lon="10.29386">
        <ele>1893.811</ele>
        <time>2018-09-16T06:46:25Z</time>
      </trkpt>
      <trkpt lat="46.21228" lon="10.29373">
        <ele>1899.508</ele>
        <time>2018-09-16T06:46:45Z</time>
      </trkpt>
      <trkpt lat="46.21245" lon="10.29364">
        <ele>1906.514</ele>
        <time>2018-09-16T06:47:05Z</time>
      </trkpt>
      <trkpt lat="46.2126" lon="10.29354">
        <ele>1914.47</ele>
        <time>2018-09-16T06:47:25Z</time>
      </trkpt>
      <trkpt lat="46.21272" lon="10.29339">
        <ele>1921.427</ele>
        <time>2018-09-16T06:47:45Z</time>
      </trkpt>
      <trkpt lat="46.2128" lon="10.2933">
        <ele>1924.82</ele>
        <time>2018-09-16T06:48:05Z</time>
      </trkpt>
      <trkpt lat="46.21287" lon="10.29316">
        <ele>1928.283</ele>
        <time>2018-09-16T06:48:25Z</time>
      </trkpt>
      <trkpt lat="46.21298" lon="10.29294">
        <ele>1933.296</ele>
        <time>2018-09-16T06:48:45Z</time>
      </trkpt>
      <trkpt lat="46.21298" lon="10.29286">
        <ele>1934.694</ele>
        <time>2018-09-16T06:49:05Z</time>
      </trkpt>
      <trkpt lat="46.21298" lon="10.29286">
        <ele>1934.531</ele>
        <time>2018-09-16T06:49:25Z</time>
      </trkpt>
      <trkpt lat="46.21296" lon="10.29286">
        <ele>1934.514</ele>
        <time>2018-09-16T06:49:45Z</time>
      </trkpt>
      <trkpt lat="46.21285" lon="10.29286">
        <ele>1934.254</ele>
        <time>2018-09-16T06:50:05Z</time>
      </trkpt>
      <trkpt lat="46.21276" lon="10.29285">
        <ele>1934.009</ele>
        <time>2018-09-16T06:50:25Z</time>
      </trkpt>
      <trkpt lat="46.21276" lon="10.29272">
        <ele>1937.308</ele>
        <time>2018-09-16T06:50:45Z</time>
      </trkpt>
      <trkpt lat="46.21283" lon="10.29267">
        <ele>1938.223</ele>
        <time>2018-09-16T06:51:05Z</time>
      </trkpt>
      <trkpt lat="46.21289" lon="10.29255">
        <ele>1940.129</ele>
        <time>2018-09-16T06:51:25Z</time>
      </trkpt>
      <trkpt lat="46.21284" lon="10.29248">
        <ele>1942.186</ele>
        <time>2018-09-16T06:51:45Z</time>
      </trkpt>
      <trkpt lat="46.21284" lon="10.29242">
        <ele>1943.279</ele>
        <time>2018-09-16T06:52:05Z</time>
      </trkpt>
      <trkpt lat="46.21298" lon="10.29232">
        <ele>1944.092</ele>
        <time>2018-09-16T06:52:25Z</time>
      </trkpt>
      <trkpt lat="46.21321" lon="10.29218">
        <ele>1945.215</ele>
        <time>2018-09-16T06:52:45Z</time>
      </trkpt>
      <trkpt lat="46.21335" lon="10.29195">
        <ele>1948.853</ele>
        <time>2018-09-16T06:53:05Z</time>
      </trkpt>
      <trkpt lat="46.21352" lon="10.2918">
        <ele>1952.34</ele>
        <time>2018-09-16T06:53:25Z</time>
      </trkpt>
      <trkpt lat="46.21366" lon="10.29172">
        <ele>1955.046</ele>
        <time>2018-09-16T06:53:45Z</time>
      </trkpt>
      <trkpt lat="46.21399" lon="10.29155">
        <ele>1960.388</ele>
        <time>2018-09-16T06:54:05Z</time>
      </trkpt>
      <trkpt lat="46.21399" lon="10.29154">
        <ele>1960.316</ele>
        <time>2018-09-16T06:54:25Z</time>
      </trkpt>
      <trkpt lat="46.21423" lon="10.2914">
        <ele>1961.508</ele>
        <time>2018-09-16T06:54:45Z</time>
      </trkpt>
      <trkpt lat="46.21437" lon="10.29127">
        <ele>1964.816</ele>
        <time>2018-09-16T06:55:05Z</time>
      </trkpt>
      <trkpt lat="46.21453" lon="10.2911">
        <ele>1970.532</ele>
        <time>2018-09-16T06:55:25Z</time>
      </trkpt>
      <trkpt lat="46.21468" lon="10.2911">
        <ele>1970.919</ele>
        <time>2018-09-16T06:55:45Z</time>
      </trkpt>
      <trkpt lat="46.21487" lon="10.29114">
        <ele>1974.572</ele>
        <time>2018-09-16T06:56:05Z</time>
      </trkpt>
      <trkpt lat="46.21484" lon="10.29201">
        <ele>1975.555</ele>
        <time>2018-09-16T06:56:25Z</time>
      </trkpt>
      <trkpt lat="46.21477" lon="10.29314">
        <ele>1987.838</ele>
        <time>2018-09-16T06:56:45Z</time>
      </trkpt>
      <trkpt lat="46.21439" lon="10.29442">
        <ele>1986.186</ele>
        <time>2018-09-16T06:57:05Z</time>
      </trkpt>
      <trkpt lat="46.21424" lon="10.29557">
        <ele>1991.533</ele>
        <time>2018-09-16T06:57:25Z</time>
      </trkpt>
      <trkpt lat="46.21378" lon="10.2972">
        <ele>2007.116</ele>
        <time>2018-09-16T06:57:45Z</time>
      </trkpt>
      <trkpt lat="46.2137" lon="10.29787">
        <ele>2003.076</ele>
        <time>2018-09-16T06:58:05Z</time>
      </trkpt>
      <trkpt lat="46.21374" lon="10.30001">
        <ele>2009.113</ele>
        <time>2018-09-16T06:58:25Z</time>
      </trkpt>
      <trkpt lat="46.21385" lon="10.30026">
        <ele>2009.108</ele>
        <time>2018-09-16T06:58:45Z</time>
      </trkpt>
      <trkpt lat="46.21405" lon="10.3007">
        <ele>2010.213</ele>
        <time>2018-09-16T06:59:05Z</time>
      </trkpt>
      <trkpt lat="46.21416" lon="10.30093">
        <ele>2012.479</ele>
        <time>2018-09-16T06:59:25Z</time>
      </trkpt>
      <trkpt lat="46.21434" lon="10.3012">
        <ele>2014.536</ele>
        <time>2018-09-16T06:59:45Z</time>
      </trkpt>
      <trkpt lat="46.21437" lon="10.30125">
        <ele>2015.379</ele>
        <time>2018-09-16T07:00:05Z</time>
      </trkpt>
      <trkpt lat="46.21479" lon="10.30189">
        <ele>2009.342</ele>
        <time>2018-09-16T07:00:25Z</time>
      </trkpt>
      <trkpt lat="46.215" lon="10.30211">
        <ele>2004.415</ele>
        <time>2018-09-16T07:00:45Z</time>
      </trkpt>
      <trkpt lat="46.21586" lon="10.30239">
        <ele>2001.753</ele>
        <time>2018-09-16T07:01:05Z</time>
      </trkpt>
      <trkpt lat="46.21593" lon="10.30244">
        <ele>2001.27</ele>
        <time>2018-09-16T07:01:25Z</time>
      </trkpt>
      <trkpt lat="46.21622" lon="10.30262">
        <ele>2001.314</ele>
        <time>2018-09-16T07:01:45Z</time>
      </trkpt>
      <trkpt lat="46.21635" lon="10.30271">
        <ele>2002.954</ele>
        <time>2018-09-16T07:02:05Z</time>
      </trkpt>
      <trkpt lat="46.2168" lon="10.30296">
        <ele>2012.609</ele>
        <time>2018-09-16T07:02:25Z</time>
      </trkpt>
      <trkpt lat="46.21685" lon="10.30299">
        <ele>2013.108</ele>
        <time>2018-09-16T07:02:45Z</time>
      </trkpt>
      <trkpt lat="46.21711" lon="10.3031">
        <ele>2015.963</ele>
        <time>2018-09-16T07:03:05Z</time>
      </trkpt>
      <trkpt lat="46.21767" lon="10.30341">
        <ele>2015.919</ele>
        <time>2018-09-16T07:03:25Z</time>
      </trkpt>
      <trkpt lat="46.21769" lon="10.30342">
        <ele>2015.786</ele>
        <time>2018-09-16T07:03:45Z</time>
      </trkpt>
      <trkpt lat="46.21775" lon="10.30344">
        <ele>2015.429</ele>
        <time>2018-09-16T07:04:05Z</time>
      </trkpt>
      <trkpt lat="46.21792" lon="10.30345">
        <ele>2015.572</ele>
        <time>2018-09-16T07:04:25Z</time>
      </trkpt>
      <trkpt lat="46.21812" lon="10.30344">
        <ele>2016.525</ele>
        <time>2018-09-16T07:04:45Z</time>
      </trkpt>
      <trkpt lat="46.21848" lon="10.30349">
        <ele>2016.853</ele>
        <time>2018-09-16T07:05:05Z</time>
      </trkpt>
      <trkpt lat="46.21855" lon="10.30351">
        <ele>2016.66</ele>
        <time>2018-09-16T07:05:25Z</time>
      </trkpt>
      <trkpt lat="46.21885" lon="10.3037">
        <ele>2013.991</ele>
        <time>2018-09-16T07:05:45Z</time>
      </trkpt>
      <trkpt lat="46.21933" lon="10.3039">
        <ele>2007.881</ele>
        <time>2018-09-16T07:06:05Z</time>
      </trkpt>
      <trkpt lat="46.21957" lon="10.3039">
        <ele>2001.619</ele>
        <time>2018-09-16T07:06:25Z</time>
      </trkpt>
      <trkpt lat="46.21988" lon="10.30367">
        <ele>1989.708</ele>
        <time>2018-09-16T07:06:45Z</time>
      </trkpt>
      <trkpt lat="46.21996" lon="10.30362">
        <ele>1984.151</ele>
        <time>2018-09-16T07:07:05Z</time>
      </trkpt>
      <trkpt lat="46.22084" lon="10.30372">
        <ele>1964.197</ele>
        <time>2018-09-16T07:07:25Z</time>
      </trkpt>
      <trkpt lat="46.22089" lon="10.30376">
        <ele>1965.324</ele>
        <time>2018-09-16T07:07:45Z</time>
      </trkpt>
      <trkpt lat="46.22099" lon="10.30396">
        <ele>1963.677</ele>
        <time>2018-09-16T07:08:05Z</time>
      </trkpt>
      <trkpt lat="46.22134" lon="10.30407">
        <ele>1971.31</ele>
        <time>2018-09-16T07:08:25Z</time>
      </trkpt>
      <trkpt lat="46.22156" lon="10.3042">
        <ele>1975.753</ele>
        <time>2018-09-16T07:08:45Z</time>
      </trkpt>
      <trkpt lat="46.2218" lon="10.30434">
        <ele>1980.171</ele>
        <time>2018-09-16T07:09:05Z</time>
      </trkpt>
      <trkpt lat="46.22235" lon="10.30473">
        <ele>1991.528</ele>
        <time>2018-09-16T07:09:25Z</time>
      </trkpt>
      <trkpt lat="46.22265" lon="10.305">
        <ele>1984.888</ele>
        <time>2018-09-16T07:09:45Z</time>
      </trkpt>
      <trkpt lat="46.22278" lon="10.30507">
        <ele>1985.224</ele>
        <time>2018-09-16T07:10:05Z</time>
      </trkpt>
      <trkpt lat="46.22297" lon="10.30524">
        <ele>1978.826</ele>
        <time>2018-09-16T07:10:25Z</time>
      </trkpt>
      <trkpt lat="46.22307" lon="10.30541">
        <ele>1971.508</ele>
        <time>2018-09-16T07:10:45Z</time>
      </trkpt>
      <trkpt lat="46.2233" lon="10.30562">
        <ele>1962.04</ele>
        <time>2018-09-16T07:11:05Z</time>
      </trkpt>
      <trkpt lat="46.22337" lon="10.30568">
        <ele>1959.126</ele>
        <time>2018-09-16T07:11:25Z</time>
      </trkpt>
      <trkpt lat="46.2238" lon="10.30583">
        <ele>1942.663</ele>
        <time>2018-09-16T07:11:45Z</time>
      </trkpt>
      <trkpt lat="46.22392" lon="10.30582">
        <ele>1939.596</ele>
        <time>2018-09-16T07:12:05Z</time>
      </trkpt>
      <trkpt lat="46.22412" lon="10.30591">
        <ele>1929.879</ele>
        <time>2018-09-16T07:12:25Z</time>
      </trkpt>
      <trkpt lat="46.22428" lon="10.30599">
        <ele>1921.182</ele>
        <time>2018-09-16T07:12:45Z</time>
      </trkpt>
      <trkpt lat="46.2245" lon="10.3059">
        <ele>1916.66</ele>
        <time>2018-09-16T07:13:05Z</time>
      </trkpt>
      <trkpt lat="46.22478" lon="10.30565">
        <ele>1914.327</ele>
        <time>2018-09-16T07:13:25Z</time>
      </trkpt>
      <trkpt lat="46.22495" lon="10.30543">
        <ele>1914.119</ele>
        <time>2018-09-16T07:13:45Z</time>
      </trkpt>
      <trkpt lat="46.22501" lon="10.30532">
        <ele>1914.409</ele>
        <time>2018-09-16T07:14:05Z</time>
      </trkpt>
      <trkpt lat="46.2251" lon="10.30516">
        <ele>1915.319</ele>
        <time>2018-09-16T07:14:25Z</time>
      </trkpt>
      <trkpt lat="46.22514" lon="10.3051">
        <ele>1915.508</ele>
        <time>2018-09-16T07:14:45Z</time>
      </trkpt>
      <trkpt lat="46.22519" lon="10.30502">
        <ele>1915.523</ele>
        <time>2018-09-16T07:15:05Z</time>
      </trkpt>
      <trkpt lat="46.22539" lon="10.30471">
        <ele>1916.699</ele>
        <time>2018-09-16T07:15:25Z</time>
      </trkpt>
      <trkpt lat="46.2254" lon="10.3047">
        <ele>1917.296</ele>
        <time>2018-09-16T07:15:45Z</time>
      </trkpt>
      <trkpt lat="46.22544" lon="10.30467">
        <ele>1918.599</ele>
        <time>2018-09-16T07:16:05Z</time>
      </trkpt>
      <trkpt lat="46.2255" lon="10.30462">
        <ele>1919.942</ele>
        <time>2018-09-16T07:16:25Z</time>
      </trkpt>
      <trkpt lat="46.22559" lon="10.30452">
        <ele>1922.325</ele>
        <time>2018-09-16T07:16:45Z</time>
      </trkpt>
      <trkpt lat="46.22569" lon="10.30446">
        <ele>1922.733</ele>
        <time>2018-09-16T07:17:05Z</time>
      </trkpt>
      <trkpt lat="46.22572" lon="10.30448">
        <ele>1921.37</ele>
        <time>2018-09-16T07:17:25Z</time>
      </trkpt>
      <trkpt lat="46.22574" lon="10.30449">
        <ele>1920.067</ele>
        <time>2018-09-16T07:17:45Z</time>
      </trkpt>
      <trkpt lat="46.22585" lon="10.30455">
        <ele>1915.081</ele>
        <time>2018-09-16T07:18:05Z</time>
      </trkpt>
      <trkpt lat="46.22598" lon="10.30464">
        <ele>1910.919</ele>
        <time>2018-09-16T07:18:25Z</time>
      </trkpt>
      <trkpt lat="46.22606" lon="10.3047">
        <ele>1908.008</ele>
        <time>2018-09-16T07:18:45Z</time>
      </trkpt>
      <trkpt lat="46.22625" lon="10.30475">
        <ele>1908.918</ele>
        <time>2018-09-16T07:19:05Z</time>
      </trkpt>
      <trkpt lat="46.22644" lon="10.30486">
        <ele>1907.974</ele>
        <time>2018-09-16T07:19:25Z</time>
      </trkpt>
      <trkpt lat="46.22658" lon="10.30493">
        <ele>1907.731</ele>
        <time>2018-09-16T07:19:45Z</time>
      </trkpt>
      <trkpt lat="46.2266" lon="10.30495">
        <ele>1907.264</ele>
        <time>2018-09-16T07:20:05Z</time>
      </trkpt>
      <trkpt lat="46.22672" lon="10.30503">
        <ele>1907.677</ele>
        <time>2018-09-16T07:20:25Z</time>
      </trkpt>
      <trkpt lat="46.22674" lon="10.30505">
        <ele>1907.63</ele>
        <time>2018-09-16T07:20:45Z</time>
      </trkpt>
      <trkpt lat="46.22687" lon="10.30518">
        <ele>1907.918</ele>
        <time>2018-09-16T07:21:05Z</time>
      </trkpt>
      <trkpt lat="46.22694" lon="10.30526">
        <ele>1907.325</ele>
        <time>2018-09-16T07:21:25Z</time>
      </trkpt>
      <trkpt lat="46.22705" lon="10.3054">
        <ele>1905.685</ele>
        <time>2018-09-16T07:21:45Z</time>
      </trkpt>
      <trkpt lat="46.22721" lon="10.30552">
        <ele>1905.689</ele>
        <time>2018-09-16T07:22:05Z</time>
      </trkpt>
      <trkpt lat="46.22729" lon="10.30556">
        <ele>1906.617</ele>
        <time>2018-09-16T07:22:25Z</time>
      </trkpt>
      <trkpt lat="46.22755" lon="10.30574">
        <ele>1906.308</ele>
        <time>2018-09-16T07:22:45Z</time>
      </trkpt>
      <trkpt lat="46.22757" lon="10.30577">
        <ele>1905.73</ele>
        <time>2018-09-16T07:23:05Z</time>
      </trkpt>
      <trkpt lat="46.22758" lon="10.30578">
        <ele>1905.476</ele>
        <time>2018-09-16T07:23:25Z</time>
      </trkpt>
      <trkpt lat="46.22759" lon="10.30579">
        <ele>1905.183</ele>
        <time>2018-09-16T07:23:45Z</time>
      </trkpt>
      <trkpt lat="46.2276" lon="10.3058">
        <ele>1904.736</ele>
        <time>2018-09-16T07:24:05Z</time>
      </trkpt>
      <trkpt lat="46.22771" lon="10.30605">
        <ele>1898.759</ele>
        <time>2018-09-16T07:24:25Z</time>
      </trkpt>
      <trkpt lat="46.22776" lon="10.30614">
        <ele>1896.862</ele>
        <time>2018-09-16T07:24:45Z</time>
      </trkpt>
      <trkpt lat="46.22778" lon="10.30616">
        <ele>1896.69</ele>
        <time>2018-09-16T07:25:05Z</time>
      </trkpt>
      <trkpt lat="46.22782" lon="10.3062">
        <ele>1896.137</ele>
        <time>2018-09-16T07:25:25Z</time>
      </trkpt>
      <trkpt lat="46.22788" lon="10.30623">
        <ele>1896.224</ele>
        <time>2018-09-16T07:25:45Z</time>
      </trkpt>
      <trkpt lat="46.22791" lon="10.30624">
        <ele>1896.304</ele>
        <time>2018-09-16T07:26:05Z</time>
      </trkpt>
      <trkpt lat="46.22794" lon="10.30627">
        <ele>1895.914</ele>
        <time>2018-09-16T07:26:25Z</time>
      </trkpt>
      <trkpt lat="46.22808" lon="10.30638">
        <ele>1895.508</ele>
        <time>2018-09-16T07:26:45Z</time>
      </trkpt>
      <trkpt lat="46.2282" lon="10.30653">
        <ele>1893.594</ele>
        <time>2018-09-16T07:27:05Z</time>
      </trkpt>
      <trkpt lat="46.22828" lon="10.30661">
        <ele>1892.62</ele>
        <time>2018-09-16T07:27:25Z</time>
      </trkpt>
      <trkpt lat="46.22835" lon="10.30667">
        <ele>1892.377</ele>
        <time>2018-09-16T07:27:45Z</time>
      </trkpt>
      <trkpt lat="46.22842" lon="10.30668">
        <ele>1893.99</ele>
        <time>2018-09-16T07:28:05Z</time>
      </trkpt>
      <trkpt lat="46.22858" lon="10.3068">
        <ele>1894.613</ele>
        <time>2018-09-16T07:28:25Z</time>
      </trkpt>
      <trkpt lat="46.22862" lon="10.3069">
        <ele>1892.576</ele>
        <time>2018-09-16T07:28:45Z</time>
      </trkpt>
      <trkpt lat="46.22866" lon="10.30697">
        <ele>1891.754</ele>
        <time>2018-09-16T07:29:05Z</time>
      </trkpt>
      <trkpt lat="46.22874" lon="10.30702">
        <ele>1892.971</ele>
        <time>2018-09-16T07:29:25Z</time>
      </trkpt>
      <trkpt lat="46.22877" lon="10.30703">
        <ele>1893.326</ele>
        <time>2018-09-16T07:29:45Z</time>
      </trkpt>
      <trkpt lat="46.22878" lon="10.30703">
        <ele>1893.447</ele>
        <time>2018-09-16T07:30:05Z</time>
      </trkpt>
      <trkpt lat="46.22888" lon="10.30703">
        <ele>1897.211</ele>
        <time>2018-09-16T07:30:25Z</time>
      </trkpt>
      <trkpt lat="46.22889" lon="10.30703">
        <ele>1897.308</ele>
        <time>2018-09-16T07:30:45Z</time>
      </trkpt>
      <trkpt lat="46.22893" lon="10.30702">
        <ele>1897.664</ele>
        <time>2018-09-16T07:31:05Z</time>
      </trkpt>
      <trkpt lat="46.22895" lon="10.307">
        <ele>1898.53</ele>
        <time>2018-09-16T07:31:25Z</time>
      </trkpt>
      <trkpt lat="46.229" lon="10.30697">
        <ele>1899.497</ele>
        <time>2018-09-16T07:31:45Z</time>
      </trkpt>
      <trkpt lat="46.22904" lon="10.30695">
        <ele>1900.28</ele>
        <time>2018-09-16T07:32:05Z</time>
      </trkpt>
      <trkpt lat="46.22907" lon="10.30694">
        <ele>1900.463</ele>
        <time>2018-09-16T07:32:25Z</time>
      </trkpt>
      <trkpt lat="46.22911" lon="10.30696">
        <ele>1899.786</ele>
        <time>2018-09-16T07:32:45Z</time>
      </trkpt>
      <trkpt lat="46.22912" lon="10.30696">
        <ele>1899.514</ele>
        <time>2018-09-16T07:33:05Z</time>
      </trkpt>
      <trkpt lat="46.22926" lon="10.30692">
        <ele>1899.761</ele>
        <time>2018-09-16T07:33:25Z</time>
      </trkpt>
      <trkpt lat="46.22933" lon="10.30689">
        <ele>1900.077</ele>
        <time>2018-09-16T07:33:45Z</time>
      </trkpt>
      <trkpt lat="46.22953" lon="10.30695">
        <ele>1896.761</ele>
        <time>2018-09-16T07:34:05Z</time>
      </trkpt>
      <trkpt lat="46.22969" lon="10.30699">
        <ele>1892.827</ele>
        <time>2018-09-16T07:34:25Z</time>
      </trkpt>
      <trkpt lat="46.2298" lon="10.30698">
        <ele>1893.008</ele>
        <time>2018-09-16T07:34:45Z</time>
      </trkpt>
      <trkpt lat="46.22985" lon="10.30702">
        <ele>1891.259</ele>
        <time>2018-09-16T07:35:05Z</time>
      </trkpt>
      <trkpt lat="46.23004" lon="10.30712">
        <ele>1887.245</ele>
        <time>2018-09-16T07:35:25Z</time>
      </trkpt>
      <trkpt lat="46.23009" lon="10.30714">
        <ele>1885.542</ele>
        <time>2018-09-16T07:35:45Z</time>
      </trkpt>
      <trkpt lat="46.23061" lon="10.30741">
        <ele>1871.975</ele>
        <time>2018-09-16T07:36:05Z</time>
      </trkpt>
      <trkpt lat="46.23062" lon="10.30741">
        <ele>1871.878</ele>
        <time>2018-09-16T07:36:25Z</time>
      </trkpt>
      <trkpt lat="46.23064" lon="10.30742">
        <ele>1871.941</ele>
        <time>2018-09-16T07:36:45Z</time>
      </trkpt>
      <trkpt lat="46.23066" lon="10.30742">
        <ele>1872.149</ele>
        <time>2018-09-16T07:37:05Z</time>
      </trkpt>
      <trkpt lat="46.23071" lon="10.30745">
        <ele>1871.016</ele>
        <time>2018-09-16T07:37:25Z</time>
      </trkpt>
      <trkpt lat="46.23082" lon="10.30759">
        <ele>1864.655</ele>
        <time>2018-09-16T07:37:45Z</time>
      </trkpt>
      <trkpt lat="46.23086" lon="10.3076">
        <ele>1864.407</ele>
        <time>2018-09-16T07:38:05Z</time>
      </trkpt>
      <trkpt lat="46.23089" lon="10.30763">
        <ele>1862.717</ele>
        <time>2018-09-16T07:38:25Z</time>
      </trkpt>
      <trkpt lat="46.23099" lon="10.30769">
        <ele>1859.308</ele>
        <time>2018-09-16T07:38:45Z</time>
      </trkpt>
      <trkpt lat="46.23105" lon="10.30777">
        <ele>1854.417</ele>
        <time>2018-09-16T07:39:05Z</time>
      </trkpt>
      <trkpt lat="46.23112" lon="10.30783">
        <ele>1850.723</ele>
        <time>2018-09-16T07:39:25Z</time>
      </trkpt>
      <trkpt lat="46.23116" lon="10.30784">
        <ele>1850.62</ele>
        <time>2018-09-16T07:39:45Z</time>
      </trkpt>
      <trkpt lat="46.23125" lon="10.30778">
        <ele>1854.563</ele>
        <time>2018-09-16T07:40:05Z</time>
      </trkpt>
      <trkpt lat="46.23129" lon="10.30772">
        <ele>1857.876</ele>
        <time>2018-09-16T07:40:25Z</time>
      </trkpt>
      <trkpt lat="46.23139" lon="10.30776">
        <ele>1856.169</ele>
        <time>2018-09-16T07:40:45Z</time>
      </trkpt>
      <trkpt lat="46.23139" lon="10.30775">
        <ele>1856.237</ele>
        <time>2018-09-16T07:41:05Z</time>
      </trkpt>
      <trkpt lat="46.23144" lon="10.30774">
        <ele>1856.384</ele>
        <time>2018-09-16T07:41:25Z</time>
      </trkpt>
      <trkpt lat="46.23146" lon="10.30772">
        <ele>1857.189</ele>
        <time>2018-09-16T07:41:45Z</time>
      </trkpt>
      <trkpt lat="46.23149" lon="10.30771">
        <ele>1856.906</ele>
        <time>2018-09-16T07:42:05Z</time>
      </trkpt>
      <trkpt lat="46.23157" lon="10.30768">
        <ele>1857.426</ele>
        <time>2018-09-16T07:42:25Z</time>
      </trkpt>
      <trkpt lat="46.2316" lon="10.3077">
        <ele>1855.808</ele>
        <time>2018-09-16T07:42:45Z</time>
      </trkpt>
      <trkpt lat="46.23163" lon="10.30767">
        <ele>1856.81</ele>
        <time>2018-09-16T07:43:05Z</time>
      </trkpt>
      <trkpt lat="46.23166" lon="10.30769">
        <ele>1855.466</ele>
        <time>2018-09-16T07:43:25Z</time>
      </trkpt>
      <trkpt lat="46.23167" lon="10.30769">
        <ele>1855.243</ele>
        <time>2018-09-16T07:43:45Z</time>
      </trkpt>
      <trkpt lat="46.23169" lon="10.30768">
        <ele>1855.326</ele>
        <time>2018-09-16T07:44:05Z</time>
      </trkpt>
      <trkpt lat="46.23179" lon="10.30763">
        <ele>1854.699</ele>
        <time>2018-09-16T07:44:25Z</time>
      </trkpt>
      <trkpt lat="46.23179" lon="10.30763">
        <ele>1854.312</ele>
        <time>2018-09-16T07:44:45Z</time>
      </trkpt>
      <trkpt lat="46.23189" lon="10.30762">
        <ele>1852.11</ele>
        <time>2018-09-16T07:45:05Z</time>
      </trkpt>
      <trkpt lat="46.23194" lon="10.30761">
        <ele>1850.627</ele>
        <time>2018-09-16T07:45:25Z</time>
      </trkpt>
      <trkpt lat="46.23201" lon="10.30761">
        <ele>1848.696</ele>
        <time>2018-09-16T07:45:45Z</time>
      </trkpt>
      <trkpt lat="46.23201" lon="10.30761">
        <ele>1848.531</ele>
        <time>2018-09-16T07:46:05Z</time>
      </trkpt>
      <trkpt lat="46.23202" lon="10.30761">
        <ele>1848.724</ele>
        <time>2018-09-16T07:46:25Z</time>
      </trkpt>
      <trkpt lat="46.23206" lon="10.30759">
        <ele>1848.408</ele>
        <time>2018-09-16T07:46:45Z</time>
      </trkpt>
      <trkpt lat="46.23216" lon="10.30755">
        <ele>1847.631</ele>
        <time>2018-09-16T07:47:05Z</time>
      </trkpt>
      <trkpt lat="46.23226" lon="10.30748">
        <ele>1847.067</ele>
        <time>2018-09-16T07:47:25Z</time>
      </trkpt>
      <trkpt lat="46.23231" lon="10.30747">
        <ele>1845.484</ele>
        <time>2018-09-16T07:47:45Z</time>
      </trkpt>
      <trkpt lat="46.23237" lon="10.30742">
        <ele>1845.177</ele>
        <time>2018-09-16T07:48:05Z</time>
      </trkpt>
      <trkpt lat="46.2324" lon="10.30738">
        <ele>1845.57</ele>
        <time>2018-09-16T07:48:25Z</time>
      </trkpt>
      <trkpt lat="46.23249" lon="10.30733">
        <ele>1843.333</ele>
        <time>2018-09-16T07:48:45Z</time>
      </trkpt>
      <trkpt lat="46.23252" lon="10.30728">
        <ele>1844.331</ele>
        <time>2018-09-16T07:49:05Z</time>
      </trkpt>
      <trkpt lat="46.23253" lon="10.30727">
        <ele>1844.278</ele>
        <time>2018-09-16T07:49:25Z</time>
      </trkpt>
      <trkpt lat="46.23256" lon="10.30724">
        <ele>1844.088</ele>
        <time>2018-09-16T07:49:45Z</time>
      </trkpt>
      <trkpt lat="46.2326" lon="10.30718">
        <ele>1844.824</ele>
        <time>2018-09-16T07:50:05Z</time>
      </trkpt>
      <trkpt lat="46.23275" lon="10.30708">
        <ele>1840.726</ele>
        <time>2018-09-16T07:50:25Z</time>
      </trkpt>
      <trkpt lat="46.23278" lon="10.30706">
        <ele>1839.808</ele>
        <time>2018-09-16T07:50:45Z</time>
      </trkpt>
      <trkpt lat="46.23294" lon="10.30693">
        <ele>1835.62</ele>
        <time>2018-09-16T07:51:05Z</time>
      </trkpt>
      <trkpt lat="46.23306" lon="10.30687">
        <ele>1831.896</ele>
        <time>2018-09-16T07:51:25Z</time>
      </trkpt>
      <trkpt lat="46.23311" lon="10.30681">
        <ele>1832.273</ele>
        <time>2018-09-16T07:51:45Z</time>
      </trkpt>
      <trkpt lat="46.23312" lon="10.30677">
        <ele>1833.166</ele>
        <time>2018-09-16T07:52:05Z</time>
      </trkpt>
      <trkpt lat="46.23323" lon="10.30671">
        <ele>1831.339</ele>
        <time>2018-09-16T07:52:25Z</time>
      </trkpt>
      <trkpt lat="46.23326" lon="10.3067">
        <ele>1830.372</ele>
        <time>2018-09-16T07:52:45Z</time>
      </trkpt>
      <trkpt lat="46.23345" lon="10.30658">
        <ele>1828.11</ele>
        <time>2018-09-16T07:53:05Z</time>
      </trkpt>
      <trkpt lat="46.2336" lon="10.30648">
        <ele>1826.877</ele>
        <time>2018-09-16T07:53:25Z</time>
      </trkpt>
      <trkpt lat="46.23365" lon="10.30642">
        <ele>1828.786</ele>
        <time>2018-09-16T07:53:45Z</time>
      </trkpt>
      <trkpt lat="46.23382" lon="10.30639">
        <ele>1826.36</ele>
        <time>2018-09-16T07:54:05Z</time>
      </trkpt>
      <trkpt lat="46.23398" lon="10.30641">
        <ele>1823.126</ele>
        <time>2018-09-16T07:54:25Z</time>
      </trkpt>
      <trkpt lat="46.234" lon="10.30642">
        <ele>1822.808</ele>
        <time>2018-09-16T07:54:45Z</time>
      </trkpt>
      <trkpt lat="46.23405" lon="10.30644">
        <ele>1821.61</ele>
        <time>2018-09-16T07:55:05Z</time>
      </trkpt>
      <trkpt lat="46.2341" lon="10.30646">
        <ele>1820.586</ele>
        <time>2018-09-16T07:55:25Z</time>
      </trkpt>
      <trkpt lat="46.23414" lon="10.30646">
        <ele>1820.273</ele>
        <time>2018-09-16T07:55:45Z</time>
      </trkpt>
      <trkpt lat="46.23419" lon="10.3065">
        <ele>1818.646</ele>
        <time>2018-09-16T07:56:05Z</time>
      </trkpt>
      <trkpt lat="46.23422" lon="10.30649">
        <ele>1818.659</ele>
        <time>2018-09-16T07:56:25Z</time>
      </trkpt>
      <trkpt lat="46.23432" lon="10.30642">
        <ele>1819.562</ele>
        <time>2018-09-16T07:56:45Z</time>
      </trkpt>
      <trkpt lat="46.23439" lon="10.30637">
        <ele>1820.37</ele>
        <time>2018-09-16T07:57:05Z</time>
      </trkpt>
      <trkpt lat="46.23447" lon="10.30631">
        <ele>1821.977</ele>
        <time>2018-09-16T07:57:25Z</time>
      </trkpt>
      <trkpt lat="46.23463" lon="10.3062">
        <ele>1823.427</ele>
        <time>2018-09-16T07:57:45Z</time>
      </trkpt>
      <trkpt lat="46.23466" lon="10.30619">
        <ele>1823.568</ele>
        <time>2018-09-16T07:58:05Z</time>
      </trkpt>
      <trkpt lat="46.23473" lon="10.3062">
        <ele>1821.814</ele>
        <time>2018-09-16T07:58:25Z</time>
      </trkpt>
      <trkpt lat="46.23519" lon="10.30617">
        <ele>1810.608</ele>
        <time>2018-09-16T07:58:45Z</time>
      </trkpt>
      <trkpt lat="46.23522" lon="10.30617">
        <ele>1809.624</ele>
        <time>2018-09-16T07:59:05Z</time>
      </trkpt>
      <trkpt lat="46.23529" lon="10.30623">
        <ele>1805.84</ele>
        <time>2018-09-16T07:59:25Z</time>
      </trkpt>
      <trkpt lat="46.23543" lon="10.30622">
        <ele>1804.037</ele>
        <time>2018-09-16T07:59:45Z</time>
      </trkpt>
      <trkpt lat="46.23553" lon="10.30617">
        <ele>1803.41</ele>
        <time>2018-09-16T08:00:05Z</time>
      </trkpt>
      <trkpt lat="46.23564" lon="10.30604">
        <ele>1804.363</ele>
        <time>2018-09-16T08:00:25Z</time>
      </trkpt>
      <trkpt lat="46.23577" lon="10.30583">
        <ele>1808.626</ele>
        <time>2018-09-16T08:00:45Z</time>
      </trkpt>
      <trkpt lat="46.23579" lon="10.30581">
        <ele>1808.724</ele>
        <time>2018-09-16T08:01:05Z</time>
      </trkpt>
      <trkpt lat="46.23591" lon="10.30576">
        <ele>1808.281</ele>
        <time>2018-09-16T08:01:25Z</time>
      </trkpt>
      <trkpt lat="46.23602" lon="10.30576">
        <ele>1807.037</ele>
        <time>2018-09-16T08:01:45Z</time>
      </trkpt>
      <trkpt lat="46.23613" lon="10.30584">
        <ele>1804.049</ele>
        <time>2018-09-16T08:02:05Z</time>
      </trkpt>
      <trkpt lat="46.2362" lon="10.30591">
        <ele>1802.813</ele>
        <time>2018-09-16T08:02:25Z</time>
      </trkpt>
      <trkpt lat="46.2363" lon="10.30596">
        <ele>1802.408</ele>
        <time>2018-09-16T08:02:45Z</time>
      </trkpt>
      <trkpt lat="46.23644" lon="10.30597">
        <ele>1802.495</ele>
        <time>2018-09-16T08:03:05Z</time>
      </trkpt>
      <trkpt lat="46.23654" lon="10.30597">
        <ele>1802.141</ele>
        <time>2018-09-16T08:03:25Z</time>
      </trkpt>
      <trkpt lat="46.23664" lon="10.30601">
        <ele>1801.458</ele>
        <time>2018-09-16T08:03:45Z</time>
      </trkpt>
      <trkpt lat="46.23675" lon="10.306">
        <ele>1801.581</ele>
        <time>2018-09-16T08:04:05Z</time>
      </trkpt>
      <trkpt lat="46.23692" lon="10.30592">
        <ele>1802.184</ele>
        <time>2018-09-16T08:04:25Z</time>
      </trkpt>
      <trkpt lat="46.237" lon="10.30575">
        <ele>1803.657</ele>
        <time>2018-09-16T08:04:45Z</time>
      </trkpt>
      <trkpt lat="46.23713" lon="10.30564">
        <ele>1803.095</ele>
        <time>2018-09-16T08:05:05Z</time>
      </trkpt>
      <trkpt lat="46.23725" lon="10.30559">
        <ele>1801.622</ele>
        <time>2018-09-16T08:05:25Z</time>
      </trkpt>
      <trkpt lat="46.23761" lon="10.30537">
        <ele>1797.864</ele>
        <time>2018-09-16T08:05:45Z</time>
      </trkpt>
      <trkpt lat="46.23778" lon="10.30527">
        <ele>1796.006</ele>
        <time>2018-09-16T08:06:05Z</time>
      </trkpt>
      <trkpt lat="46.23793" lon="10.30512">
        <ele>1795.716</ele>
        <time>2018-09-16T08:06:25Z</time>
      </trkpt>
      <trkpt lat="46.23806" lon="10.30504">
        <ele>1794.808</ele>
        <time>2018-09-16T08:06:45Z</time>
      </trkpt>
      <trkpt lat="46.23817" lon="10.30496">
        <ele>1793.968</ele>
        <time>2018-09-16T08:07:05Z</time>
      </trkpt>
      <trkpt lat="46.23827" lon="10.30478">
        <ele>1793.464</ele>
        <time>2018-09-16T08:07:25Z</time>
      </trkpt>
      <trkpt lat="46.23838" lon="10.30461">
        <ele>1793.091</ele>
        <time>2018-09-16T08:07:45Z</time>
      </trkpt>
      <trkpt lat="46.2385" lon="10.30449">
        <ele>1791.724</ele>
        <time>2018-09-16T08:08:05Z</time>
      </trkpt>
      <trkpt lat="46.23862" lon="10.30438">
        <ele>1789.657</ele>
        <time>2018-09-16T08:08:25Z</time>
      </trkpt>
      <trkpt lat="46.2387" lon="10.30428">
        <ele>1787.82</ele>
        <time>2018-09-16T08:08:45Z</time>
      </trkpt>
      <trkpt lat="46.23879" lon="10.30421">
        <ele>1785.498</ele>
        <time>2018-09-16T08:09:05Z</time>
      </trkpt>
      <trkpt lat="46.23888" lon="10.30419">
        <ele>1783.165</ele>
        <time>2018-09-16T08:09:25Z</time>
      </trkpt>
      <trkpt lat="46.23904" lon="10.30419">
        <ele>1780.974</ele>
        <time>2018-09-16T08:09:45Z</time>
      </trkpt>
      <trkpt lat="46.23912" lon="10.30421">
        <ele>1779.856</ele>
        <time>2018-09-16T08:10:05Z</time>
      </trkpt>
      <trkpt lat="46.23922" lon="10.30425">
        <ele>1779.221</ele>
        <time>2018-09-16T08:10:25Z</time>
      </trkpt>
      <trkpt lat="46.23932" lon="10.30433">
        <ele>1779.208</ele>
        <time>2018-09-16T08:10:45Z</time>
      </trkpt>
      <trkpt lat="46.23939" lon="10.30437">
        <ele>1779.159</ele>
        <time>2018-09-16T08:11:05Z</time>
      </trkpt>
      <trkpt lat="46.2394" lon="10.30438">
        <ele>1779.125</ele>
        <time>2018-09-16T08:11:25Z</time>
      </trkpt>
      <trkpt lat="46.23953" lon="10.30441">
        <ele>1779.072</ele>
        <time>2018-09-16T08:11:45Z</time>
      </trkpt>
      <trkpt lat="46.23984" lon="10.30447">
        <ele>1778.915</ele>
        <time>2018-09-16T08:12:05Z</time>
      </trkpt>
      <trkpt lat="46.24" lon="10.30448">
        <ele>1778.848</ele>
        <time>2018-09-16T08:12:25Z</time>
      </trkpt>
      <trkpt lat="46.24028" lon="10.30447">
        <ele>1778.981</ele>
        <time>2018-09-16T08:12:45Z</time>
      </trkpt>
      <trkpt lat="46.24043" lon="10.30447">
        <ele>1779.059</ele>
        <time>2018-09-16T08:13:05Z</time>
      </trkpt>
      <trkpt lat="46.24048" lon="10.30469">
        <ele>1779.356</ele>
        <time>2018-09-16T08:13:25Z</time>
      </trkpt>
      <trkpt lat="46.24047" lon="10.30469">
        <ele>1779.343</ele>
        <time>2018-09-16T08:13:45Z</time>
      </trkpt>
      <trkpt lat="46.24029" lon="10.30464">
        <ele>1778.364</ele>
        <time>2018-09-16T08:14:05Z</time>
      </trkpt>
      <trkpt lat="46.2401" lon="10.30458">
        <ele>1778.51</ele>
        <time>2018-09-16T08:14:25Z</time>
      </trkpt>
      <trkpt lat="46.23988" lon="10.3046">
        <ele>1778.608</ele>
        <time>2018-09-16T08:14:45Z</time>
      </trkpt>
      <trkpt lat="46.23979" lon="10.30476">
        <ele>1778.326</ele>
        <time>2018-09-16T08:15:05Z</time>
      </trkpt>
      <trkpt lat="46.23973" lon="10.30489">
        <ele>1777.282</ele>
        <time>2018-09-16T08:15:25Z</time>
      </trkpt>
      <trkpt lat="46.23972" lon="10.30501">
        <ele>1775.949</ele>
        <time>2018-09-16T08:15:45Z</time>
      </trkpt>
      <trkpt lat="46.23973" lon="10.30514">
        <ele>1774.942</ele>
        <time>2018-09-16T08:16:05Z</time>
      </trkpt>
      <trkpt lat="46.2397" lon="10.30529">
        <ele>1774.075</ele>
        <time>2018-09-16T08:16:25Z</time>
      </trkpt>
      <trkpt lat="46.2397" lon="10.3054">
        <ele>1773.238</ele>
        <time>2018-09-16T08:16:45Z</time>
      </trkpt>
      <trkpt lat="46.23972" lon="10.30557">
        <ele>1771.956</ele>
        <time>2018-09-16T08:17:05Z</time>
      </trkpt>
      <trkpt lat="46.23971" lon="10.30567">
        <ele>1771.283</ele>
        <time>2018-09-16T08:17:25Z</time>
      </trkpt>
      <trkpt lat="46.23968" lon="10.30582">
        <ele>1770.426</ele>
        <time>2018-09-16T08:17:45Z</time>
      </trkpt>
      <trkpt lat="46.23967" lon="10.30588">
        <ele>1769.947</ele>
        <time>2018-09-16T08:18:05Z</time>
      </trkpt>
      <trkpt lat="46.23959" lon="10.30611">
        <ele>1768.411</ele>
        <time>2018-09-16T08:18:25Z</time>
      </trkpt>
      <trkpt lat="46.23954" lon="10.30623">
        <ele>1768.108</ele>
        <time>2018-09-16T08:18:45Z</time>
      </trkpt>
      <trkpt lat="46.23952" lon="10.30634">
        <ele>1767.564</ele>
        <time>2018-09-16T08:19:05Z</time>
      </trkpt>
      <trkpt lat="46.23947" lon="10.30652">
        <ele>1767.12</ele>
        <time>2018-09-16T08:19:25Z</time>
      </trkpt>
      <trkpt lat="46.23946" lon="10.30667">
        <ele>1766.737</ele>
        <time>2018-09-16T08:19:45Z</time>
      </trkpt>
      <trkpt lat="46.2395" lon="10.30677">
        <ele>1765.18</ele>
        <time>2018-09-16T08:20:05Z</time>
      </trkpt>
      <trkpt lat="46.23951" lon="10.30688">
        <ele>1763.743</ele>
        <time>2018-09-16T08:20:25Z</time>
      </trkpt>
      <trkpt lat="46.23958" lon="10.30712">
        <ele>1760.746</ele>
        <time>2018-09-16T08:20:45Z</time>
      </trkpt>
      <trkpt lat="46.23964" lon="10.30729">
        <ele>1758.614</ele>
        <time>2018-09-16T08:21:05Z</time>
      </trkpt>
      <trkpt lat="46.2397" lon="10.30746">
        <ele>1755.941</ele>
        <time>2018-09-16T08:21:25Z</time>
      </trkpt>
      <trkpt lat="46.23973" lon="10.30759">
        <ele>1753.917</ele>
        <time>2018-09-16T08:21:45Z</time>
      </trkpt>
      <trkpt lat="46.23975" lon="10.30775">
        <ele>1751.987</ele>
        <time>2018-09-16T08:22:05Z</time>
      </trkpt>
      <trkpt lat="46.23977" lon="10.30792">
        <ele>1749.115</ele>
        <time>2018-09-16T08:22:25Z</time>
      </trkpt>
      <trkpt lat="46.2398" lon="10.30811">
        <ele>1745.808</ele>
        <time>2018-09-16T08:22:45Z</time>
      </trkpt>
      <trkpt lat="46.2398" lon="10.30833">
        <ele>1743.443</ele>
        <time>2018-09-16T08:23:05Z</time>
      </trkpt>
      <trkpt lat="46.23975" lon="10.30849">
        <ele>1742.649</ele>
        <time>2018-09-16T08:23:25Z</time>
      </trkpt>
      <trkpt lat="46.23961" lon="10.30868">
        <ele>1742.736</ele>
        <time>2018-09-16T08:23:45Z</time>
      </trkpt>
      <trkpt lat="46.23946" lon="10.30898">
        <ele>1741.199</ele>
        <time>2018-09-16T08:24:05Z</time>
      </trkpt>
      <trkpt lat="46.23935" lon="10.30908">
        <ele>1740.522</ele>
        <time>2018-09-16T08:24:25Z</time>
      </trkpt>
      <trkpt lat="46.23923" lon="10.30919">
        <ele>1739.555</ele>
        <time>2018-09-16T08:24:45Z</time>
      </trkpt>
      <trkpt lat="46.239" lon="10.30927">
        <ele>1738.983</ele>
        <time>2018-09-16T08:25:05Z</time>
      </trkpt>
      <trkpt lat="46.23889" lon="10.3093">
        <ele>1739.09</ele>
        <time>2018-09-16T08:25:25Z</time>
      </trkpt>
      <trkpt lat="46.23877" lon="10.30942">
        <ele>1737.221</ele>
        <time>2018-09-16T08:25:45Z</time>
      </trkpt>
      <trkpt lat="46.23871" lon="10.30948">
        <ele>1736.141</ele>
        <time>2018-09-16T08:26:05Z</time>
      </trkpt>
      <trkpt lat="46.23862" lon="10.30955">
        <ele>1734.905</ele>
        <time>2018-09-16T08:26:25Z</time>
      </trkpt>
      <trkpt lat="46.23855" lon="10.30971">
        <ele>1730.908</ele>
        <time>2018-09-16T08:26:45Z</time>
      </trkpt>
      <trkpt lat="46.23846" lon="10.30979">
        <ele>1728.594</ele>
        <time>2018-09-16T08:27:05Z</time>
      </trkpt>
      <trkpt lat="46.23835" lon="10.30975">
        <ele>1730.53</ele>
        <time>2018-09-16T08:27:25Z</time>
      </trkpt>
      <trkpt lat="46.23828" lon="10.30976">
        <ele>1730.347</ele>
        <time>2018-09-16T08:27:45Z</time>
      </trkpt>
      <trkpt lat="46.23824" lon="10.30991">
        <ele>1724.54</ele>
        <time>2018-09-16T08:28:05Z</time>
      </trkpt>
      <trkpt lat="46.23826" lon="10.31">
        <ele>1720.463</ele>
        <time>2018-09-16T08:28:25Z</time>
      </trkpt>
      <trkpt lat="46.23832" lon="10.3101">
        <ele>1718.336</ele>
        <time>2018-09-16T08:28:45Z</time>
      </trkpt>
      <trkpt lat="46.23837" lon="10.31026">
        <ele>1715.244</ele>
        <time>2018-09-16T08:29:05Z</time>
      </trkpt>
      <trkpt lat="46.23842" lon="10.31035">
        <ele>1713.631</ele>
        <time>2018-09-16T08:29:25Z</time>
      </trkpt>
      <trkpt lat="46.23841" lon="10.31045">
        <ele>1711.775</ele>
        <time>2018-09-16T08:29:45Z</time>
      </trkpt>
      <trkpt lat="46.23841" lon="10.31054">
        <ele>1710.028</ele>
        <time>2018-09-16T08:30:05Z</time>
      </trkpt>
      <trkpt lat="46.23846" lon="10.31062">
        <ele>1708.32</ele>
        <time>2018-09-16T08:30:25Z</time>
      </trkpt>
      <trkpt lat="46.23851" lon="10.31058">
        <ele>1708.808</ele>
        <time>2018-09-16T08:30:45Z</time>
      </trkpt>
      <trkpt lat="46.2386" lon="10.31063">
        <ele>1707.359</ele>
        <time>2018-09-16T08:31:05Z</time>
      </trkpt>
      <trkpt lat="46.23874" lon="10.31064">
        <ele>1705.195</ele>
        <time>2018-09-16T08:31:25Z</time>
      </trkpt>
      <trkpt lat="46.23887" lon="10.31063">
        <ele>1703.172</ele>
        <time>2018-09-16T08:31:45Z</time>
      </trkpt>
      <trkpt lat="46.23907" lon="10.31057">
        <ele>1700.665</ele>
        <time>2018-09-16T08:32:05Z</time>
      </trkpt>
      <trkpt lat="46.23923" lon="10.31046">
        <ele>1699.658</ele>
        <time>2018-09-16T08:32:25Z</time>
      </trkpt>
      <trkpt lat="46.23943" lon="10.31038">
        <ele>1696.181</ele>
        <time>2018-09-16T08:32:45Z</time>
      </trkpt>
      <trkpt lat="46.23961" lon="10.31026">
        <ele>1696.319</ele>
        <time>2018-09-16T08:33:05Z</time>
      </trkpt>
      <trkpt lat="46.23971" lon="10.31043">
        <ele>1685.976</ele>
        <time>2018-09-16T08:33:25Z</time>
      </trkpt>
      <trkpt lat="46.23978" lon="10.31047">
        <ele>1686.184</ele>
        <time>2018-09-16T08:33:45Z</time>
      </trkpt>
      <trkpt lat="46.23989" lon="10.31052">
        <ele>1688.307</ele>
        <time>2018-09-16T08:34:05Z</time>
      </trkpt>
      <trkpt lat="46.24005" lon="10.31059">
        <ele>1692.517</ele>
        <time>2018-09-16T08:34:25Z</time>
      </trkpt>
      <trkpt lat="46.24024" lon="10.31065">
        <ele>1697.608</ele>
        <time>2018-09-16T08:34:45Z</time>
      </trkpt>
      <trkpt lat="46.24037" lon="10.3107">
        <ele>1699.25</ele>
        <time>2018-09-16T08:35:05Z</time>
      </trkpt>
      <trkpt lat="46.24047" lon="10.31077">
        <ele>1698.926</ele>
        <time>2018-09-16T08:35:25Z</time>
      </trkpt>
      <trkpt lat="46.24059" lon="10.31077">
        <ele>1700.483</ele>
        <time>2018-09-16T08:35:45Z</time>
      </trkpt>
      <trkpt lat="46.24084" lon="10.31068">
        <ele>1704.636</ele>
        <time>2018-09-16T08:36:05Z</time>
      </trkpt>
      <trkpt lat="46.24099" lon="10.31069">
        <ele>1706.439</ele>
        <time>2018-09-16T08:36:25Z</time>
      </trkpt>
      <trkpt lat="46.24113" lon="10.3108">
        <ele>1705.332</ele>
        <time>2018-09-16T08:36:45Z</time>
      </trkpt>
      <trkpt lat="46.24136" lon="10.31084">
        <ele>1709.21</ele>
        <time>2018-09-16T08:37:05Z</time>
      </trkpt>
      <trkpt lat="46.24154" lon="10.31076">
        <ele>1711.227</ele>
        <time>2018-09-16T08:37:25Z</time>
      </trkpt>
      <trkpt lat="46.24181" lon="10.31061">
        <ele>1713.432</ele>
        <time>2018-09-16T08:37:45Z</time>
      </trkpt>
      <trkpt lat="46.24194" lon="10.31071">
        <ele>1712.892</ele>
        <time>2018-09-16T08:38:05Z</time>
      </trkpt>
      <trkpt lat="46.24198" lon="10.31095">
        <ele>1711.711</ele>
        <time>2018-09-16T08:38:25Z</time>
      </trkpt>
      <trkpt lat="46.242" lon="10.31122">
        <ele>1709.108</ele>
        <time>2018-09-16T08:38:45Z</time>
      </trkpt>
      <trkpt lat="46.24204" lon="10.31157">
        <ele>1708.015</ele>
        <time>2018-09-16T08:39:05Z</time>
      </trkpt>
      <trkpt lat="46.2421" lon="10.31181">
        <ele>1709.941</ele>
        <time>2018-09-16T08:39:25Z</time>
      </trkpt>
      <trkpt lat="46.24217" lon="10.312">
        <ele>1711.578</ele>
        <time>2018-09-16T08:39:45Z</time>
      </trkpt>
      <trkpt lat="46.24229" lon="10.3121">
        <ele>1713.861</ele>
        <time>2018-09-16T08:40:05Z</time>
      </trkpt>
      <trkpt lat="46.24241" lon="10.31223">
        <ele>1716.644</ele>
        <time>2018-09-16T08:40:25Z</time>
      </trkpt>
      <trkpt lat="46.2426" lon="10.31238">
        <ele>1715.767</ele>
        <time>2018-09-16T08:40:45Z</time>
      </trkpt>
      <trkpt lat="46.24271" lon="10.31245">
        <ele>1715.025</ele>
        <time>2018-09-16T08:41:05Z</time>
      </trkpt>
      <trkpt lat="46.24284" lon="10.31253">
        <ele>1715.962</ele>
        <time>2018-09-16T08:41:25Z</time>
      </trkpt>
      <trkpt lat="46.24292" lon="10.31278">
        <ele>1712.185</ele>
        <time>2018-09-16T08:41:45Z</time>
      </trkpt>
      <trkpt lat="46.24303" lon="10.31293">
        <ele>1712.089</ele>
        <time>2018-09-16T08:42:05Z</time>
      </trkpt>
      <trkpt lat="46.24322" lon="10.31315">
        <ele>1712.717</ele>
        <time>2018-09-16T08:42:25Z</time>
      </trkpt>
      <trkpt lat="46.24341" lon="10.31346">
        <ele>1710.008</ele>
        <time>2018-09-16T08:42:45Z</time>
      </trkpt>
      <trkpt lat="46.24369" lon="10.31377">
        <ele>1708.12</ele>
        <time>2018-09-16T08:43:05Z</time>
      </trkpt>
      <trkpt lat="46.24392" lon="10.31399">
        <ele>1707.476</ele>
        <time>2018-09-16T08:43:25Z</time>
      </trkpt>
      <trkpt lat="46.24404" lon="10.31418">
        <ele>1705.393</ele>
        <time>2018-09-16T08:43:45Z</time>
      </trkpt>
      <trkpt lat="46.24413" lon="10.31426">
        <ele>1704.926</ele>
        <time>2018-09-16T08:44:05Z</time>
      </trkpt>
      <trkpt lat="46.2443" lon="10.31429">
        <ele>1705.219</ele>
        <time>2018-09-16T08:44:25Z</time>
      </trkpt>
      <trkpt lat="46.24454" lon="10.31438">
        <ele>1704.432</ele>
        <time>2018-09-16T08:44:45Z</time>
      </trkpt>
      <trkpt lat="46.24469" lon="10.31437">
        <ele>1706.08</ele>
        <time>2018-09-16T08:45:05Z</time>
      </trkpt>
      <trkpt lat="46.24504" lon="10.31436">
        <ele>1704.737</ele>
        <time>2018-09-16T08:45:25Z</time>
      </trkpt>
      <trkpt lat="46.24524" lon="10.31448">
        <ele>1699.514</ele>
        <time>2018-09-16T08:45:45Z</time>
      </trkpt>
      <trkpt lat="46.24549" lon="10.3146">
        <ele>1696.354</ele>
        <time>2018-09-16T08:46:05Z</time>
      </trkpt>
      <trkpt lat="46.24584" lon="10.31473">
        <ele>1698.909</ele>
        <time>2018-09-16T08:46:25Z</time>
      </trkpt>
      <trkpt lat="46.24609" lon="10.31496">
        <ele>1698.208</ele>
        <time>2018-09-16T08:46:45Z</time>
      </trkpt>
      <trkpt lat="46.24612" lon="10.31509">
        <ele>1696.983</ele>
        <time>2018-09-16T08:47:05Z</time>
      </trkpt>
      <trkpt lat="46.24614" lon="10.31527">
        <ele>1694.719</ele>
        <time>2018-09-16T08:47:25Z</time>
      </trkpt>
      <trkpt lat="46.24613" lon="10.31543">
        <ele>1692.976</ele>
        <time>2018-09-16T08:47:45Z</time>
      </trkpt>
      <trkpt lat="46.24611" lon="10.31563">
        <ele>1690.339</ele>
        <time>2018-09-16T08:48:05Z</time>
      </trkpt>
      <trkpt lat="46.24611" lon="10.31587">
        <ele>1689.092</ele>
        <time>2018-09-16T08:48:25Z</time>
      </trkpt>
      <trkpt lat="46.24608" lon="10.3161">
        <ele>1689.685</ele>
        <time>2018-09-16T08:48:45Z</time>
      </trkpt>
      <trkpt lat="46.24609" lon="10.31614">
        <ele>1690.033</ele>
        <time>2018-09-16T08:49:05Z</time>
      </trkpt>
      <trkpt lat="46.24624" lon="10.31642">
        <ele>1694.28</ele>
        <time>2018-09-16T08:49:25Z</time>
      </trkpt>
      <trkpt lat="46.24633" lon="10.31652">
        <ele>1695.952</ele>
        <time>2018-09-16T08:49:45Z</time>
      </trkpt>
      <trkpt lat="46.24649" lon="10.31669">
        <ele>1698.753</ele>
        <time>2018-09-16T08:50:05Z</time>
      </trkpt>
      <trkpt lat="46.24639" lon="10.31682">
        <ele>1695.808</ele>
        <time>2018-09-16T08:50:25Z</time>
      </trkpt>
      <trkpt lat="46.24631" lon="10.31702">
        <ele>1693.408</ele>
        <time>2018-09-16T08:50:45Z</time>
      </trkpt>
      <trkpt lat="46.24629" lon="10.31716">
        <ele>1692.697</ele>
        <time>2018-09-16T08:51:05Z</time>
      </trkpt>
      <trkpt lat="46.24625" lon="10.3173">
        <ele>1692.053</ele>
        <time>2018-09-16T08:51:25Z</time>
      </trkpt>
      <trkpt lat="46.24616" lon="10.31755">
        <ele>1690.35</ele>
        <time>2018-09-16T08:51:45Z</time>
      </trkpt>
      <trkpt lat="46.24601" lon="10.31769">
        <ele>1687.163</ele>
        <time>2018-09-16T08:52:05Z</time>
      </trkpt>
      <trkpt lat="46.24599" lon="10.31771">
        <ele>1686.656</ele>
        <time>2018-09-16T08:52:25Z</time>
      </trkpt>
      <trkpt lat="46.24583" lon="10.31785">
        <ele>1683.639</ele>
        <time>2018-09-16T08:52:45Z</time>
      </trkpt>
      <trkpt lat="46.24567" lon="10.318">
        <ele>1682.077</ele>
        <time>2018-09-16T08:53:05Z</time>
      </trkpt>
      <trkpt lat="46.24559" lon="10.31808">
        <ele>1681.234</ele>
        <time>2018-09-16T08:53:25Z</time>
      </trkpt>
      <trkpt lat="46.2455" lon="10.31808">
        <ele>1679.429</ele>
        <time>2018-09-16T08:53:45Z</time>
      </trkpt>
      <trkpt lat="46.24538" lon="10.31795">
        <ele>1677.3</ele>
        <time>2018-09-16T08:54:05Z</time>
      </trkpt>
      <trkpt lat="46.24528" lon="10.31774">
        <ele>1677.32</ele>
        <time>2018-09-16T08:54:25Z</time>
      </trkpt>
      <trkpt lat="46.2452" lon="10.31757">
        <ele>1676.208</ele>
        <time>2018-09-16T08:54:45Z</time>
      </trkpt>
      <trkpt lat="46.24514" lon="10.31745">
        <ele>1675.034</ele>
        <time>2018-09-16T08:55:05Z</time>
      </trkpt>
      <trkpt lat="46.24506" lon="10.31748">
        <ele>1672.71</ele>
        <time>2018-09-16T08:55:25Z</time>
      </trkpt>
      <trkpt lat="46.24502" lon="10.31759">
        <ele>1670.837</ele>
        <time>2018-09-16T08:55:45Z</time>
      </trkpt>
      <trkpt lat="46.24496" lon="10.31768">
        <ele>1668.92</ele>
        <time>2018-09-16T08:56:05Z</time>
      </trkpt>
      <trkpt lat="46.24495" lon="10.31772">
        <ele>1668.473</ele>
        <time>2018-09-16T08:56:25Z</time>
      </trkpt>
      <trkpt lat="46.2448" lon="10.31756">
        <ele>1667.096</ele>
        <time>2018-09-16T08:56:45Z</time>
      </trkpt>
      <trkpt lat="46.2447" lon="10.31742">
        <ele>1666.194</ele>
        <time>2018-09-16T08:57:05Z</time>
      </trkpt>
      <trkpt lat="46.24458" lon="10.31735">
        <ele>1663.711</ele>
        <time>2018-09-16T08:57:25Z</time>
      </trkpt>
      <trkpt lat="46.24446" lon="10.31747">
        <ele>1660.395</ele>
        <time>2018-09-16T08:57:45Z</time>
      </trkpt>
      <trkpt lat="46.2444" lon="10.31767">
        <ele>1656.749</ele>
        <time>2018-09-16T08:58:05Z</time>
      </trkpt>
      <trkpt lat="46.24433" lon="10.31784">
        <ele>1653.123</ele>
        <time>2018-09-16T08:58:25Z</time>
      </trkpt>
      <trkpt lat="46.24428" lon="10.31797">
        <ele>1650.108</ele>
        <time>2018-09-16T08:58:45Z</time>
      </trkpt>
      <trkpt lat="46.24422" lon="10.31801">
        <ele>1648.191</ele>
        <time>2018-09-16T08:59:05Z</time>
      </trkpt>
      <trkpt lat="46.24414" lon="10.31796">
        <ele>1646.787</ele>
        <time>2018-09-16T08:59:25Z</time>
      </trkpt>
      <trkpt lat="46.244" lon="10.31779">
        <ele>1645.914</ele>
        <time>2018-09-16T08:59:45Z</time>
      </trkpt>
      <trkpt lat="46.24385" lon="10.31765">
        <ele>1644.897</ele>
        <time>2018-09-16T09:00:05Z</time>
      </trkpt>
      <trkpt lat="46.24373" lon="10.31756">
        <ele>1644.06</ele>
        <time>2018-09-16T09:00:25Z</time>
      </trkpt>
      <trkpt lat="46.24365" lon="10.31758">
        <ele>1642.753</ele>
        <time>2018-09-16T09:00:45Z</time>
      </trkpt>
      <trkpt lat="46.24361" lon="10.31776">
        <ele>1640.171</ele>
        <time>2018-09-16T09:01:05Z</time>
      </trkpt>
      <trkpt lat="46.24359" lon="10.31802">
        <ele>1637.728</ele>
        <time>2018-09-16T09:01:25Z</time>
      </trkpt>
      <trkpt lat="46.24355" lon="10.31834">
        <ele>1634.492</ele>
        <time>2018-09-16T09:01:45Z</time>
      </trkpt>
      <trkpt lat="46.24354" lon="10.31853">
        <ele>1632.373</ele>
        <time>2018-09-16T09:02:05Z</time>
      </trkpt>
      <trkpt lat="46.24354" lon="10.31854">
        <ele>1632.12</ele>
        <time>2018-09-16T09:02:25Z</time>
      </trkpt>
      <trkpt lat="46.24353" lon="10.31867">
        <ele>1631.808</ele>
        <time>2018-09-16T09:02:45Z</time>
      </trkpt>
      <trkpt lat="46.24353" lon="10.31867">
        <ele>1631.861</ele>
        <time>2018-09-16T09:03:05Z</time>
      </trkpt>
      <trkpt lat="46.24352" lon="10.3187">
        <ele>1631.847</ele>
        <time>2018-09-16T09:03:25Z</time>
      </trkpt>
      <trkpt lat="46.24349" lon="10.31876">
        <ele>1631.944</ele>
        <time>2018-09-16T09:03:45Z</time>
      </trkpt>
      <trkpt lat="46.24345" lon="10.31892">
        <ele>1632.997</ele>
        <time>2018-09-16T09:04:05Z</time>
      </trkpt>
      <trkpt lat="46.24345" lon="10.31894">
        <ele>1633.03</ele>
        <time>2018-09-16T09:04:25Z</time>
      </trkpt>
      <trkpt lat="46.24334" lon="10.31898">
        <ele>1632.053</ele>
        <time>2018-09-16T09:04:45Z</time>
      </trkpt>
      <trkpt lat="46.24323" lon="10.31902">
        <ele>1631.681</ele>
        <time>2018-09-16T09:05:05Z</time>
      </trkpt>
      <trkpt lat="46.24317" lon="10.31903">
        <ele>1631.418</ele>
        <time>2018-09-16T09:05:25Z</time>
      </trkpt>
      <trkpt lat="46.24342" lon="10.31909">
        <ele>1634.271</ele>
        <time>2018-09-16T09:05:45Z</time>
      </trkpt>
      <trkpt lat="46.24356" lon="10.31916">
        <ele>1636.441</ele>
        <time>2018-09-16T09:06:05Z</time>
      </trkpt>
      <trkpt lat="46.24366" lon="10.31923">
        <ele>1637.815</ele>
        <time>2018-09-16T09:06:25Z</time>
      </trkpt>
      <trkpt lat="46.24374" lon="10.31929">
        <ele>1638.808</ele>
        <time>2018-09-16T09:06:45Z</time>
      </trkpt>
      <trkpt lat="46.24381" lon="10.3193">
        <ele>1639.449</ele>
        <time>2018-09-16T09:07:05Z</time>
      </trkpt>
      <trkpt lat="46.24389" lon="10.31933">
        <ele>1640.085</ele>
        <time>2018-09-16T09:07:25Z</time>
      </trkpt>
      <trkpt lat="46.24395" lon="10.3194">
        <ele>1640.052</ele>
        <time>2018-09-16T09:07:45Z</time>
      </trkpt>
      <trkpt lat="46.24406" lon="10.31954">
        <ele>1641.395</ele>
        <time>2018-09-16T09:08:05Z</time>
      </trkpt>
      <trkpt lat="46.24418" lon="10.31962">
        <ele>1642.438</ele>
        <time>2018-09-16T09:08:25Z</time>
      </trkpt>
      <trkpt lat="46.2442" lon="10.31961">
        <ele>1642.551</ele>
        <time>2018-09-16T09:08:45Z</time>
      </trkpt>
      <trkpt lat="46.24439" lon="10.31967">
        <ele>1644.039</ele>
        <time>2018-09-16T09:09:05Z</time>
      </trkpt>
      <trkpt lat="46.24457" lon="10.31977">
        <ele>1647.566</ele>
        <time>2018-09-16T09:09:25Z</time>
      </trkpt>
      <trkpt lat="46.2447" lon="10.31978">
        <ele>1649.785</ele>
        <time>2018-09-16T09:09:45Z</time>
      </trkpt>
      <trkpt lat="46.24478" lon="10.3198">
        <ele>1651.389</ele>
        <time>2018-09-16T09:10:05Z</time>
      </trkpt>
      <trkpt lat="46.24484" lon="10.31982">
        <ele>1653.017</ele>
        <time>2018-09-16T09:10:25Z</time>
      </trkpt>
      <trkpt lat="46.24494" lon="10.31984">
        <ele>1655.108</ele>
        <time>2018-09-16T09:10:45Z</time>
      </trkpt>
      <trkpt lat="46.24498" lon="10.31987">
        <ele>1656.25</ele>
        <time>2018-09-16T09:11:05Z</time>
      </trkpt>
      <trkpt lat="46.24502" lon="10.3199">
        <ele>1657.126</ele>
        <time>2018-09-16T09:11:25Z</time>
      </trkpt>
      <trkpt lat="46.24513" lon="10.31991">
        <ele>1658.873</ele>
        <time>2018-09-16T09:11:45Z</time>
      </trkpt>
      <trkpt lat="46.24525" lon="10.31995">
        <ele>1660.476</ele>
        <time>2018-09-16T09:12:05Z</time>
      </trkpt>
      <trkpt lat="46.24534" lon="10.32001">
        <ele>1662.649</ele>
        <time>2018-09-16T09:12:25Z</time>
      </trkpt>
      <trkpt lat="46.24542" lon="10.32009">
        <ele>1665.212</ele>
        <time>2018-09-16T09:12:45Z</time>
      </trkpt>
      <trkpt lat="46.24549" lon="10.32014">
        <ele>1667.28</ele>
        <time>2018-09-16T09:13:05Z</time>
      </trkpt>
      <trkpt lat="46.24549" lon="10.32014">
        <ele>1667.317</ele>
        <time>2018-09-16T09:13:25Z</time>
      </trkpt>
      <trkpt lat="46.24551" lon="10.32017">
        <ele>1668.049</ele>
        <time>2018-09-16T09:13:45Z</time>
      </trkpt>
      <trkpt lat="46.24559" lon="10.32027">
        <ele>1670.402</ele>
        <time>2018-09-16T09:14:05Z</time>
      </trkpt>
      <trkpt lat="46.24561" lon="10.32039">
        <ele>1672.722</ele>
        <time>2018-09-16T09:14:25Z</time>
      </trkpt>
      <trkpt lat="46.24565" lon="10.32047">
        <ele>1674.808</ele>
        <time>2018-09-16T09:14:45Z</time>
      </trkpt>
      <trkpt lat="46.24566" lon="10.32048">
        <ele>1675.156</ele>
        <time>2018-09-16T09:15:05Z</time>
      </trkpt>
      <trkpt lat="46.2457" lon="10.32054">
        <ele>1676.832</ele>
        <time>2018-09-16T09:15:25Z</time>
      </trkpt>
      <trkpt lat="46.24575" lon="10.32062">
        <ele>1678.639</ele>
        <time>2018-09-16T09:15:45Z</time>
      </trkpt>
      <trkpt lat="46.24579" lon="10.32064">
        <ele>1679.632</ele>
        <time>2018-09-16T09:16:05Z</time>
      </trkpt>
      <trkpt lat="46.24588" lon="10.32078">
        <ele>1682.995</ele>
        <time>2018-09-16T09:16:25Z</time>
      </trkpt>
      <trkpt lat="46.24594" lon="10.32091">
        <ele>1685.318</ele>
        <time>2018-09-16T09:16:45Z</time>
      </trkpt>
      <trkpt lat="46.246" lon="10.32103">
        <ele>1688.096</ele>
        <time>2018-09-16T09:17:05Z</time>
      </trkpt>
      <trkpt lat="46.24602" lon="10.32109">
        <ele>1689.483</ele>
        <time>2018-09-16T09:17:25Z</time>
      </trkpt>
      <trkpt lat="46.24606" lon="10.32115">
        <ele>1690.859</ele>
        <time>2018-09-16T09:17:45Z</time>
      </trkpt>
      <trkpt lat="46.24613" lon="10.32121">
        <ele>1692.303</ele>
        <time>2018-09-16T09:18:05Z</time>
      </trkpt>
      <trkpt lat="46.2463" lon="10.32135">
        <ele>1696.723</ele>
        <time>2018-09-16T09:18:25Z</time>
      </trkpt>
      <trkpt lat="46.24642" lon="10.32149">
        <ele>1699.808</ele>
        <time>2018-09-16T09:18:45Z</time>
      </trkpt>
      <trkpt lat="46.24655" lon="10.3217">
        <ele>1703.597</ele>
        <time>2018-09-16T09:19:05Z</time>
      </trkpt>
      <trkpt lat="46.24661" lon="10.3218">
        <ele>1704.993</ele>
        <time>2018-09-16T09:19:25Z</time>
      </trkpt>
      <trkpt lat="46.24668" lon="10.32199">
        <ele>1707.83</ele>
        <time>2018-09-16T09:19:45Z</time>
      </trkpt>
      <trkpt lat="46.24673" lon="10.32208">
        <ele>1709.653</ele>
        <time>2018-09-16T09:20:05Z</time>
      </trkpt>
      <trkpt lat="46.24679" lon="10.32219">
        <ele>1711.556</ele>
        <time>2018-09-16T09:20:25Z</time>
      </trkpt>
      <trkpt lat="46.24681" lon="10.32226">
        <ele>1712.529</ele>
        <time>2018-09-16T09:20:45Z</time>
      </trkpt>
      <trkpt lat="46.24685" lon="10.32239">
        <ele>1714.467</ele>
        <time>2018-09-16T09:21:05Z</time>
      </trkpt>
      <trkpt lat="46.24688" lon="10.3225">
        <ele>1716.024</ele>
        <time>2018-09-16T09:21:25Z</time>
      </trkpt>
      <trkpt lat="46.24689" lon="10.32258">
        <ele>1717.272</ele>
        <time>2018-09-16T09:21:45Z</time>
      </trkpt>
      <trkpt lat="46.24687" lon="10.32271">
        <ele>1719.313</ele>
        <time>2018-09-16T09:22:05Z</time>
      </trkpt>
      <trkpt lat="46.24682" lon="10.32286">
        <ele>1722.714</ele>
        <time>2018-09-16T09:22:25Z</time>
      </trkpt>
      <trkpt lat="46.24677" lon="10.32298">
        <ele>1725.908</ele>
        <time>2018-09-16T09:22:45Z</time>
      </trkpt>
      <trkpt lat="46.24674" lon="10.32303">
        <ele>1727.269</ele>
        <time>2018-09-16T09:23:05Z</time>
      </trkpt>
      <trkpt lat="46.24673" lon="10.3231">
        <ele>1729.045</ele>
        <time>2018-09-16T09:23:25Z</time>
      </trkpt>
      <trkpt lat="46.24673" lon="10.32312">
        <ele>1729.362</ele>
        <time>2018-09-16T09:23:45Z</time>
      </trkpt>
      <trkpt lat="46.24671" lon="10.32324">
        <ele>1732.015</ele>
        <time>2018-09-16T09:24:05Z</time>
      </trkpt>
      <trkpt lat="46.24668" lon="10.3233">
        <ele>1733.288</ele>
        <time>2018-09-16T09:24:25Z</time>
      </trkpt>
      <trkpt lat="46.24667" lon="10.32334">
        <ele>1734.291</ele>
        <time>2018-09-16T09:24:45Z</time>
      </trkpt>
      <trkpt lat="46.24667" lon="10.32337">
        <ele>1734.939</ele>
        <time>2018-09-16T09:25:05Z</time>
      </trkpt>
      <trkpt lat="46.24671" lon="10.32347">
        <ele>1737.416</ele>
        <time>2018-09-16T09:25:25Z</time>
      </trkpt>
      <trkpt lat="46.24671" lon="10.32352">
        <ele>1738.692</ele>
        <time>2018-09-16T09:25:45Z</time>
      </trkpt>
      <trkpt lat="46.24662" lon="10.32362">
        <ele>1741.273</ele>
        <time>2018-09-16T09:26:05Z</time>
      </trkpt>
      <trkpt lat="46.2466" lon="10.32366">
        <ele>1742.52</ele>
        <time>2018-09-16T09:26:25Z</time>
      </trkpt>
      <trkpt lat="46.24658" lon="10.32373">
        <ele>1744.608</ele>
        <time>2018-09-16T09:26:45Z</time>
      </trkpt>
      <trkpt lat="46.24654" lon="10.32381">
        <ele>1747.121</ele>
        <time>2018-09-16T09:27:05Z</time>
      </trkpt>
      <trkpt lat="46.24642" lon="10.32387">
        <ele>1749.497</ele>
        <time>2018-09-16T09:27:25Z</time>
      </trkpt>
      <trkpt lat="46.24637" lon="10.32394">
        <ele>1751.234</ele>
        <time>2018-09-16T09:27:45Z</time>
      </trkpt>
      <trkpt lat="46.24634" lon="10.32402">
        <ele>1753.377</ele>
        <time>2018-09-16T09:28:05Z</time>
      </trkpt>
      <trkpt lat="46.24634" lon="10.32412">
        <ele>1756.31</ele>
        <time>2018-09-16T09:28:25Z</time>
      </trkpt>
      <trkpt lat="46.24635" lon="10.32416">
        <ele>1757.423</ele>
        <time>2018-09-16T09:28:45Z</time>
      </trkpt>
      <trkpt lat="46.24647" lon="10.32433">
        <ele>1761.041</ele>
        <time>2018-09-16T09:29:05Z</time>
      </trkpt>
      <trkpt lat="46.24654" lon="10.3244">
        <ele>1762.398</ele>
        <time>2018-09-16T09:29:25Z</time>
      </trkpt>
      <trkpt lat="46.24663" lon="10.32445">
        <ele>1763.377</ele>
        <time>2018-09-16T09:29:45Z</time>
      </trkpt>
      <trkpt lat="46.24671" lon="10.32451">
        <ele>1764.261</ele>
        <time>2018-09-16T09:30:05Z</time>
      </trkpt>
      <trkpt lat="46.24683" lon="10.32477">
        <ele>1768.827</ele>
        <time>2018-09-16T09:30:25Z</time>
      </trkpt>
      <trkpt lat="46.24684" lon="10.32478">
        <ele>1769.108</ele>
        <time>2018-09-16T09:30:45Z</time>
      </trkpt>
      <trkpt lat="46.24679" lon="10.32488">
        <ele>1770.859</ele>
        <time>2018-09-16T09:31:05Z</time>
      </trkpt>
      <trkpt lat="46.24678" lon="10.3249">
        <ele>1771.285</ele>
        <time>2018-09-16T09:31:25Z</time>
      </trkpt>
      <trkpt lat="46.24677" lon="10.32494">
        <ele>1771.892</ele>
        <time>2018-09-16T09:31:45Z</time>
      </trkpt>
      <trkpt lat="46.24676" lon="10.32496">
        <ele>1772.255</ele>
        <time>2018-09-16T09:32:05Z</time>
      </trkpt>
      <trkpt lat="46.24672" lon="10.325">
        <ele>1772.968</ele>
        <time>2018-09-16T09:32:25Z</time>
      </trkpt>
      <trkpt lat="46.24579" lon="10.32513">
        <ele>1785.591</ele>
        <time>2018-09-16T09:32:45Z</time>
      </trkpt>
      <trkpt lat="46.24568" lon="10.32514">
        <ele>1787.589</ele>
        <time>2018-09-16T09:33:05Z</time>
      </trkpt>
      <trkpt lat="46.24549" lon="10.32517">
        <ele>1790.576</ele>
        <time>2018-09-16T09:33:25Z</time>
      </trkpt>
      <trkpt lat="46.24508" lon="10.32516">
        <ele>1795.236</ele>
        <time>2018-09-16T09:33:45Z</time>
      </trkpt>
      <trkpt lat="46.24508" lon="10.32511">
        <ele>1793.717</ele>
        <time>2018-09-16T09:34:05Z</time>
      </trkpt>
      <trkpt lat="46.24504" lon="10.3251">
        <ele>1794.618</ele>
        <time>2018-09-16T09:34:25Z</time>
      </trkpt>
      <trkpt lat="46.24485" lon="10.32504">
        <ele>1796.708</ele>
        <time>2018-09-16T09:34:45Z</time>
      </trkpt>
      <trkpt lat="46.24461" lon="10.32496">
        <ele>1798.795</ele>
        <time>2018-09-16T09:35:05Z</time>
      </trkpt>
      <trkpt lat="46.24458" lon="10.32495">
        <ele>1798.861</ele>
        <time>2018-09-16T09:35:25Z</time>
      </trkpt>
      <trkpt lat="46.24447" lon="10.32495">
        <ele>1800.818</ele>
        <time>2018-09-16T09:35:45Z</time>
      </trkpt>
      <trkpt lat="46.24432" lon="10.32495">
        <ele>1802.221</ele>
        <time>2018-09-16T09:36:05Z</time>
      </trkpt>
      <trkpt lat="46.24404" lon="10.32506">
        <ele>1807.554</ele>
        <time>2018-09-16T09:36:25Z</time>
      </trkpt>
      <trkpt lat="46.24372" lon="10.32536">
        <ele>1814.027</ele>
        <time>2018-09-16T09:36:45Z</time>
      </trkpt>
      <trkpt lat="46.2437" lon="10.3254">
        <ele>1814.665</ele>
        <time>2018-09-16T09:37:05Z</time>
      </trkpt>
      <trkpt lat="46.24362" lon="10.3255">
        <ele>1815.822</ele>
        <time>2018-09-16T09:37:25Z</time>
      </trkpt>
      <trkpt lat="46.2436" lon="10.32551">
        <ele>1816.032</ele>
        <time>2018-09-16T09:37:45Z</time>
      </trkpt>
      <trkpt lat="46.24357" lon="10.32553">
        <ele>1816.192</ele>
        <time>2018-09-16T09:38:05Z</time>
      </trkpt>
      <trkpt lat="46.24352" lon="10.32554">
        <ele>1816.311</ele>
        <time>2018-09-16T09:38:25Z</time>
      </trkpt>
      <trkpt lat="46.24334" lon="10.32554">
        <ele>1815.708</ele>
        <time>2018-09-16T09:38:45Z</time>
      </trkpt>
      <trkpt lat="46.24306" lon="10.32563">
        <ele>1818.495</ele>
        <time>2018-09-16T09:39:05Z</time>
      </trkpt>
      <trkpt lat="46.24304" lon="10.32563">
        <ele>1818.781</ele>
        <time>2018-09-16T09:39:25Z</time>
      </trkpt>
      <trkpt lat="46.2429" lon="10.32568">
        <ele>1820.658</ele>
        <time>2018-09-16T09:39:45Z</time>
      </trkpt>
      <trkpt lat="46.24278" lon="10.32573">
        <ele>1822.221</ele>
        <time>2018-09-16T09:40:05Z</time>
      </trkpt>
      <trkpt lat="46.2426" lon="10.32571">
        <ele>1821.594</ele>
        <time>2018-09-16T09:40:25Z</time>
      </trkpt>
      <trkpt lat="46.24224" lon="10.32574">
        <ele>1819.857</ele>
        <time>2018-09-16T09:40:45Z</time>
      </trkpt>
      <trkpt lat="46.24168" lon="10.3258">
        <ele>1823.115</ele>
        <time>2018-09-16T09:41:05Z</time>
      </trkpt>
      <trkpt lat="46.24142" lon="10.32576">
        <ele>1824.792</ele>
        <time>2018-09-16T09:41:25Z</time>
      </trkpt>
      <trkpt lat="46.24113" lon="10.32571">
        <ele>1826.239</ele>
        <time>2018-09-16T09:41:45Z</time>
      </trkpt>
      <trkpt lat="46.24083" lon="10.32575">
        <ele>1829.101</ele>
        <time>2018-09-16T09:42:05Z</time>
      </trkpt>
      <trkpt lat="46.24061" lon="10.32581">
        <ele>1830.321</ele>
        <time>2018-09-16T09:42:25Z</time>
      </trkpt>
      <trkpt lat="46.2403" lon="10.32587">
        <ele>1833.808</ele>
        <time>2018-09-16T09:42:45Z</time>
      </trkpt>
      <trkpt lat="46.23999" lon="10.32583">
        <ele>1840.095</ele>
        <time>2018-09-16T09:43:05Z</time>
      </trkpt>
      <trkpt lat="46.23986" lon="10.32577">
        <ele>1840.881</ele>
        <time>2018-09-16T09:43:25Z</time>
      </trkpt>
      <trkpt lat="46.23979" lon="10.32569">
        <ele>1840.588</ele>
        <time>2018-09-16T09:43:45Z</time>
      </trkpt>
      <trkpt lat="46.23964" lon="10.3255">
        <ele>1840.121</ele>
        <time>2018-09-16T09:44:05Z</time>
      </trkpt>
      <trkpt lat="46.23943" lon="10.3254">
        <ele>1841.784</ele>
        <time>2018-09-16T09:44:25Z</time>
      </trkpt>
      <trkpt lat="46.23934" lon="10.32537">
        <ele>1841.467</ele>
        <time>2018-09-16T09:44:45Z</time>
      </trkpt>
      <trkpt lat="46.23918" lon="10.32527">
        <ele>1839.725</ele>
        <time>2018-09-16T09:45:05Z</time>
      </trkpt>
      <trkpt lat="46.23915" lon="10.32527">
        <ele>1839.622</ele>
        <time>2018-09-16T09:45:25Z</time>
      </trkpt>
      <trkpt lat="46.23897" lon="10.32536">
        <ele>1842.314</ele>
        <time>2018-09-16T09:45:45Z</time>
      </trkpt>
      <trkpt lat="46.23894" lon="10.32538">
        <ele>1842.854</ele>
        <time>2018-09-16T09:46:05Z</time>
      </trkpt>
      <trkpt lat="46.2389" lon="10.32539">
        <ele>1843.309</ele>
        <time>2018-09-16T09:46:25Z</time>
      </trkpt>
      <trkpt lat="46.23883" lon="10.32541">
        <ele>1843.108</ele>
        <time>2018-09-16T09:46:45Z</time>
      </trkpt>
      <trkpt lat="46.23877" lon="10.32545">
        <ele>1843.513</ele>
        <time>2018-09-16T09:47:05Z</time>
      </trkpt>
      <trkpt lat="46.23874" lon="10.32552">
        <ele>1844.939</ele>
        <time>2018-09-16T09:47:25Z</time>
      </trkpt>
      <trkpt lat="46.23868" lon="10.32564">
        <ele>1847.586</ele>
        <time>2018-09-16T09:47:45Z</time>
      </trkpt>
      <trkpt lat="46.23861" lon="10.32573">
        <ele>1849.319</ele>
        <time>2018-09-16T09:48:05Z</time>
      </trkpt>
      <trkpt lat="46.23854" lon="10.3258">
        <ele>1850.312</ele>
        <time>2018-09-16T09:48:25Z</time>
      </trkpt>
      <trkpt lat="46.2383" lon="10.32611">
        <ele>1855.645</ele>
        <time>2018-09-16T09:48:45Z</time>
      </trkpt>
      <trkpt lat="46.23806" lon="10.32635">
        <ele>1860.753</ele>
        <time>2018-09-16T09:49:05Z</time>
      </trkpt>
      <trkpt lat="46.23806" lon="10.32635">
        <ele>1860.82</ele>
        <time>2018-09-16T09:49:25Z</time>
      </trkpt>
      <trkpt lat="46.2379" lon="10.32645">
        <ele>1862.518</ele>
        <time>2018-09-16T09:49:45Z</time>
      </trkpt>
      <trkpt lat="46.23776" lon="10.32649">
        <ele>1862.698</ele>
        <time>2018-09-16T09:50:05Z</time>
      </trkpt>
      <trkpt lat="46.2374" lon="10.32667">
        <ele>1859.517</ele>
        <time>2018-09-16T09:50:25Z</time>
      </trkpt>
      <trkpt lat="46.23738" lon="10.32668">
        <ele>1859.208</ele>
        <time>2018-09-16T09:50:45Z</time>
      </trkpt>
      <trkpt lat="46.23722" lon="10.32674">
        <ele>1856.693</ele>
        <time>2018-09-16T09:51:05Z</time>
      </trkpt>
      <trkpt lat="46.23719" lon="10.32676">
        <ele>1856.129</ele>
        <time>2018-09-16T09:51:25Z</time>
      </trkpt>
      <trkpt lat="46.23705" lon="10.32684">
        <ele>1855.116</ele>
        <time>2018-09-16T09:51:45Z</time>
      </trkpt>
      <trkpt lat="46.23702" lon="10.32688">
        <ele>1855.769</ele>
        <time>2018-09-16T09:52:05Z</time>
      </trkpt>
      <trkpt lat="46.23698" lon="10.32698">
        <ele>1858.462</ele>
        <time>2018-09-16T09:52:25Z</time>
      </trkpt>
      <trkpt lat="46.23691" lon="10.32712">
        <ele>1860.385</ele>
        <time>2018-09-16T09:52:45Z</time>
      </trkpt>
      <trkpt lat="46.2369" lon="10.32716">
        <ele>1860.723</ele>
        <time>2018-09-16T09:53:05Z</time>
      </trkpt>
      <trkpt lat="46.23688" lon="10.32719">
        <ele>1861.11</ele>
        <time>2018-09-16T09:53:25Z</time>
      </trkpt>
      <trkpt lat="46.23682" lon="10.32728">
        <ele>1861.528</ele>
        <time>2018-09-16T09:53:45Z</time>
      </trkpt>
      <trkpt lat="46.23675" lon="10.32735">
        <ele>1861.589</ele>
        <time>2018-09-16T09:54:05Z</time>
      </trkpt>
      <trkpt lat="46.23663" lon="10.32744">
        <ele>1861.117</ele>
        <time>2018-09-16T09:54:25Z</time>
      </trkpt>
      <trkpt lat="46.23655" lon="10.32752">
        <ele>1861.308</ele>
        <time>2018-09-16T09:54:45Z</time>
      </trkpt>
      <trkpt lat="46.23646" lon="10.32766">
        <ele>1862.414</ele>
        <time>2018-09-16T09:55:05Z</time>
      </trkpt>
      <trkpt lat="46.23642" lon="10.32769">
        <ele>1862.43</ele>
        <time>2018-09-16T09:55:25Z</time>
      </trkpt>
      <trkpt lat="46.2363" lon="10.32772">
        <ele>1863.537</ele>
        <time>2018-09-16T09:55:45Z</time>
      </trkpt>
      <trkpt lat="46.23616" lon="10.3277">
        <ele>1864.35</ele>
        <time>2018-09-16T09:56:05Z</time>
      </trkpt>
      <trkpt lat="46.23608" lon="10.32771">
        <ele>1865.243</ele>
        <time>2018-09-16T09:56:25Z</time>
      </trkpt>
      <trkpt lat="46.23607" lon="10.32771">
        <ele>1865.376</ele>
        <time>2018-09-16T09:56:45Z</time>
      </trkpt>
      <trkpt lat="46.23606" lon="10.32771">
        <ele>1865.444</ele>
        <time>2018-09-16T09:57:05Z</time>
      </trkpt>
      <trkpt lat="46.236" lon="10.32765">
        <ele>1863.311</ele>
        <time>2018-09-16T09:57:25Z</time>
      </trkpt>
      <trkpt lat="46.23599" lon="10.32765">
        <ele>1863.376</ele>
        <time>2018-09-16T09:57:45Z</time>
      </trkpt>
      <trkpt lat="46.23599" lon="10.3276">
        <ele>1861.89</ele>
        <time>2018-09-16T09:58:05Z</time>
      </trkpt>
      <trkpt lat="46.23593" lon="10.32759">
        <ele>1862.119</ele>
        <time>2018-09-16T09:58:25Z</time>
      </trkpt>
      <trkpt lat="46.23578" lon="10.32767">
        <ele>1865.008</ele>
        <time>2018-09-16T09:58:45Z</time>
      </trkpt>
      <trkpt lat="46.23567" lon="10.32775">
        <ele>1866.279</ele>
        <time>2018-09-16T09:59:05Z</time>
      </trkpt>
      <trkpt lat="46.23543" lon="10.32788">
        <ele>1867.215</ele>
        <time>2018-09-16T09:59:25Z</time>
      </trkpt>
      <trkpt lat="46.23536" lon="10.32792">
        <ele>1867.932</ele>
        <time>2018-09-16T09:59:45Z</time>
      </trkpt>
      <trkpt lat="46.23408" lon="10.32868">
        <ele>1887.485</ele>
        <time>2018-09-16T10:00:05Z</time>
      </trkpt>
      <trkpt lat="46.23402" lon="10.32871">
        <ele>1888.118</ele>
        <time>2018-09-16T10:00:25Z</time>
      </trkpt>
      <trkpt lat="46.2338" lon="10.32883">
        <ele>1890.121</ele>
        <time>2018-09-16T10:00:45Z</time>
      </trkpt>
      <trkpt lat="46.23355" lon="10.32897">
        <ele>1892.169</ele>
        <time>2018-09-16T10:01:05Z</time>
      </trkpt>
      <trkpt lat="46.2331" lon="10.32924">
        <ele>1901.726</ele>
        <time>2018-09-16T10:01:25Z</time>
      </trkpt>
      <trkpt lat="46.23284" lon="10.32938">
        <ele>1907.318</ele>
        <time>2018-09-16T10:01:45Z</time>
      </trkpt>
      <trkpt lat="46.23264" lon="10.32947">
        <ele>1909.098</ele>
        <time>2018-09-16T10:02:05Z</time>
      </trkpt>
      <trkpt lat="46.23252" lon="10.32957">
        <ele>1911.417</ele>
        <time>2018-09-16T10:02:25Z</time>
      </trkpt>
      <trkpt lat="46.23243" lon="10.32967">
        <ele>1915.308</ele>
        <time>2018-09-16T10:02:45Z</time>
      </trkpt>
      <trkpt lat="46.23256" lon="10.32975">
        <ele>1916.423</ele>
        <time>2018-09-16T10:03:05Z</time>
      </trkpt>
      <trkpt lat="46.23273" lon="10.32984">
        <ele>1917.989</ele>
        <time>2018-09-16T10:03:25Z</time>
      </trkpt>
      <trkpt lat="46.23291" lon="10.32989">
        <ele>1920.636</ele>
        <time>2018-09-16T10:03:45Z</time>
      </trkpt>
      <trkpt lat="46.23307" lon="10.32998">
        <ele>1925.369</ele>
        <time>2018-09-16T10:04:05Z</time>
      </trkpt>
      <trkpt lat="46.23326" lon="10.33001">
        <ele>1926.282</ele>
        <time>2018-09-16T10:04:25Z</time>
      </trkpt>
      <trkpt lat="46.23339" lon="10.33007">
        <ele>1927.635</ele>
        <time>2018-09-16T10:04:45Z</time>
      </trkpt>
      <trkpt lat="46.23349" lon="10.33013">
        <ele>1929.093</ele>
        <time>2018-09-16T10:05:05Z</time>
      </trkpt>
      <trkpt lat="46.23351" lon="10.33014">
        <ele>1929.16</ele>
        <time>2018-09-16T10:05:25Z</time>
      </trkpt>
      <trkpt lat="46.23388" lon="10.33022">
        <ele>1932.517</ele>
        <time>2018-09-16T10:05:45Z</time>
      </trkpt>
      <trkpt lat="46.23408" lon="10.33028">
        <ele>1938.487</ele>
        <time>2018-09-16T10:06:05Z</time>
      </trkpt>
      <trkpt lat="46.23439" lon="10.33033">
        <ele>1940.615</ele>
        <time>2018-09-16T10:06:25Z</time>
      </trkpt>
      <trkpt lat="46.23447" lon="10.33037">
        <ele>1941.308</ele>
        <time>2018-09-16T10:06:45Z</time>
      </trkpt>
      <trkpt lat="46.23467" lon="10.33038">
        <ele>1937.993</ele>
        <time>2018-09-16T10:07:05Z</time>
      </trkpt>
      <trkpt lat="46.23484" lon="10.33038">
        <ele>1938.159</ele>
        <time>2018-09-16T10:07:25Z</time>
      </trkpt>
      <trkpt lat="46.23514" lon="10.33045">
        <ele>1943.366</ele>
        <time>2018-09-16T10:07:45Z</time>
      </trkpt>
      <trkpt lat="46.23543" lon="10.33048">
        <ele>1945.949</ele>
        <time>2018-09-16T10:08:05Z</time>
      </trkpt>
      <trkpt lat="46.23559" lon="10.3306">
        <ele>1950.172</ele>
        <time>2018-09-16T10:08:25Z</time>
      </trkpt>
      <trkpt lat="46.23559" lon="10.33073">
        <ele>1953.375</ele>
        <time>2018-09-16T10:08:45Z</time>
      </trkpt>
      <trkpt lat="46.23548" lon="10.33088">
        <ele>1956.593</ele>
        <time>2018-09-16T10:09:05Z</time>
      </trkpt>
      <trkpt lat="46.23531" lon="10.33099">
        <ele>1958.27</ele>
        <time>2018-09-16T10:09:25Z</time>
      </trkpt>
      <trkpt lat="46.23524" lon="10.33113">
        <ele>1961.422</ele>
        <time>2018-09-16T10:09:45Z</time>
      </trkpt>
      <trkpt lat="46.2353" lon="10.33161">
        <ele>1970.262</ele>
        <time>2018-09-16T10:10:05Z</time>
      </trkpt>
      <trkpt lat="46.23536" lon="10.33163">
        <ele>1970.908</ele>
        <time>2018-09-16T10:10:25Z</time>
      </trkpt>
      <trkpt lat="46.23543" lon="10.3317">
        <ele>1972.608</ele>
        <time>2018-09-16T10:10:45Z</time>
      </trkpt>
      <trkpt lat="46.23532" lon="10.33193">
        <ele>1976.184</ele>
        <time>2018-09-16T10:11:05Z</time>
      </trkpt>
      <trkpt lat="46.23525" lon="10.33213">
        <ele>1978.79</ele>
        <time>2018-09-16T10:11:25Z</time>
      </trkpt>
      <trkpt lat="46.23527" lon="10.33221">
        <ele>1979.847</ele>
        <time>2018-09-16T10:11:45Z</time>
      </trkpt>
      <trkpt lat="46.23529" lon="10.33229">
        <ele>1980.83</ele>
        <time>2018-09-16T10:12:05Z</time>
      </trkpt>
      <trkpt lat="46.23541" lon="10.33233">
        <ele>1982.283</ele>
        <time>2018-09-16T10:12:25Z</time>
      </trkpt>
      <trkpt lat="46.2355" lon="10.33232">
        <ele>1982.956</ele>
        <time>2018-09-16T10:12:45Z</time>
      </trkpt>
      <trkpt lat="46.23555" lon="10.33226">
        <ele>1982.534</ele>
        <time>2018-09-16T10:13:05Z</time>
      </trkpt>
      <trkpt lat="46.23561" lon="10.33227">
        <ele>1983.631</ele>
        <time>2018-09-16T10:13:25Z</time>
      </trkpt>
      <trkpt lat="46.23562" lon="10.33245">
        <ele>1986.591</ele>
        <time>2018-09-16T10:13:45Z</time>
      </trkpt>
      <trkpt lat="46.23553" lon="10.33259">
        <ele>1986.781</ele>
        <time>2018-09-16T10:14:05Z</time>
      </trkpt>
      <trkpt lat="46.23551" lon="10.33263">
        <ele>1986.919</ele>
        <time>2018-09-16T10:14:25Z</time>
      </trkpt>
      <trkpt lat="46.23541" lon="10.3328">
        <ele>1988.208</ele>
        <time>2018-09-16T10:14:45Z</time>
      </trkpt>
      <trkpt lat="46.23545" lon="10.33302">
        <ele>1991.471</ele>
        <time>2018-09-16T10:15:05Z</time>
      </trkpt>
      <trkpt lat="46.23546" lon="10.33307">
        <ele>1992.137</ele>
        <time>2018-09-16T10:15:25Z</time>
      </trkpt>
      <trkpt lat="46.23553" lon="10.33331">
        <ele>1995.434</ele>
        <time>2018-09-16T10:15:45Z</time>
      </trkpt>
      <trkpt lat="46.2355" lon="10.33345">
        <ele>1997.657</ele>
        <time>2018-09-16T10:16:05Z</time>
      </trkpt>
      <trkpt lat="46.23547" lon="10.33369">
        <ele>2000.83</ele>
        <time>2018-09-16T10:16:25Z</time>
      </trkpt>
      <trkpt lat="46.23546" lon="10.33386">
        <ele>2001.953</ele>
        <time>2018-09-16T10:16:45Z</time>
      </trkpt>
      <trkpt lat="46.23545" lon="10.33399">
        <ele>2004.151</ele>
        <time>2018-09-16T10:17:05Z</time>
      </trkpt>
      <trkpt lat="46.23548" lon="10.33411">
        <ele>2007.148</ele>
        <time>2018-09-16T10:17:25Z</time>
      </trkpt>
      <trkpt lat="46.23553" lon="10.33426">
        <ele>2011.693</ele>
        <time>2018-09-16T10:17:45Z</time>
      </trkpt>
      <trkpt lat="46.23553" lon="10.3348">
        <ele>2022.465</ele>
        <time>2018-09-16T10:18:05Z</time>
      </trkpt>
      <trkpt lat="46.23553" lon="10.33482">
        <ele>2022.621</ele>
        <time>2018-09-16T10:18:25Z</time>
      </trkpt>
      <trkpt lat="46.23557" lon="10.33504">
        <ele>2023.908</ele>
        <time>2018-09-16T10:18:45Z</time>
      </trkpt>
      <trkpt lat="46.23563" lon="10.33519">
        <ele>2020.471</ele>
        <time>2018-09-16T10:19:05Z</time>
      </trkpt>
      <trkpt lat="46.2358" lon="10.33519">
        <ele>2021.957</ele>
        <time>2018-09-16T10:19:25Z</time>
      </trkpt>
      <trkpt lat="46.23593" lon="10.33519">
        <ele>2022.484</ele>
        <time>2018-09-16T10:19:45Z</time>
      </trkpt>
      <trkpt lat="46.23603" lon="10.33541">
        <ele>2020.167</ele>
        <time>2018-09-16T10:20:05Z</time>
      </trkpt>
      <trkpt lat="46.23604" lon="10.33542">
        <ele>2020.03</ele>
        <time>2018-09-16T10:20:25Z</time>
      </trkpt>
      <trkpt lat="46.23634" lon="10.33613">
        <ele>2016.893</ele>
        <time>2018-09-16T10:20:45Z</time>
      </trkpt>
      <trkpt lat="46.23638" lon="10.33628">
        <ele>2016.091</ele>
        <time>2018-09-16T10:21:05Z</time>
      </trkpt>
      <trkpt lat="46.23648" lon="10.3365">
        <ele>2018.918</ele>
        <time>2018-09-16T10:21:25Z</time>
      </trkpt>
      <trkpt lat="46.23657" lon="10.33674">
        <ele>2020.837</ele>
        <time>2018-09-16T10:21:45Z</time>
      </trkpt>
      <trkpt lat="46.23684" lon="10.33682">
        <ele>2028.549</ele>
        <time>2018-09-16T10:22:05Z</time>
      </trkpt>
      <trkpt lat="46.23708" lon="10.33695">
        <ele>2037.413</ele>
        <time>2018-09-16T10:22:25Z</time>
      </trkpt>
      <trkpt lat="46.23731" lon="10.33714">
        <ele>2045.308</ele>
        <time>2018-09-16T10:22:45Z</time>
      </trkpt>
      <trkpt lat="46.23745" lon="10.33727">
        <ele>2047.975</ele>
        <time>2018-09-16T10:23:05Z</time>
      </trkpt>
      <trkpt lat="46.23755" lon="10.33754">
        <ele>2045.061</ele>
        <time>2018-09-16T10:23:25Z</time>
      </trkpt>
      <trkpt lat="46.23764" lon="10.33786">
        <ele>2041.078</ele>
        <time>2018-09-16T10:23:45Z</time>
      </trkpt>
      <trkpt lat="46.23775" lon="10.33814">
        <ele>2039.111</ele>
        <time>2018-09-16T10:24:05Z</time>
      </trkpt>
      <trkpt lat="46.23794" lon="10.33816">
        <ele>2047.734</ele>
        <time>2018-09-16T10:24:25Z</time>
      </trkpt>
      <trkpt lat="46.23809" lon="10.33824">
        <ele>2053.717</ele>
        <time>2018-09-16T10:24:45Z</time>
      </trkpt>
      <trkpt lat="46.23836" lon="10.3383">
        <ele>2068.255</ele>
        <time>2018-09-16T10:25:05Z</time>
      </trkpt>
      <trkpt lat="46.23861" lon="10.33861">
        <ele>2074.832</ele>
        <time>2018-09-16T10:25:25Z</time>
      </trkpt>
      <trkpt lat="46.23873" lon="10.3389">
        <ele>2074.163</ele>
        <time>2018-09-16T10:25:45Z</time>
      </trkpt>
      <trkpt lat="46.23884" lon="10.3393">
        <ele>2068.244</ele>
        <time>2018-09-16T10:26:05Z</time>
      </trkpt>
      <trkpt lat="46.23885" lon="10.33955">
        <ele>2064.718</ele>
        <time>2018-09-16T10:26:25Z</time>
      </trkpt>
      <trkpt lat="46.23889" lon="10.33982">
        <ele>2062.308</ele>
        <time>2018-09-16T10:26:45Z</time>
      </trkpt>
      <trkpt lat="46.23899" lon="10.34013">
        <ele>2061.718</ele>
        <time>2018-09-16T10:27:05Z</time>
      </trkpt>
      <trkpt lat="46.23921" lon="10.3405">
        <ele>2067.524</ele>
        <time>2018-09-16T10:27:25Z</time>
      </trkpt>
      <trkpt lat="46.23936" lon="10.34075">
        <ele>2072.371</ele>
        <time>2018-09-16T10:27:45Z</time>
      </trkpt>
      <trkpt lat="46.23949" lon="10.34101">
        <ele>2076.344</ele>
        <time>2018-09-16T10:28:05Z</time>
      </trkpt>
      <trkpt lat="46.23963" lon="10.34119">
        <ele>2079.077</ele>
        <time>2018-09-16T10:28:25Z</time>
      </trkpt>
      <trkpt lat="46.23966" lon="10.34148">
        <ele>2076.49</ele>
        <time>2018-09-16T10:28:45Z</time>
      </trkpt>
      <trkpt lat="46.23963" lon="10.3419">
        <ele>2069.578</ele>
        <time>2018-09-16T10:29:05Z</time>
      </trkpt>
      <trkpt lat="46.23974" lon="10.34242">
        <ele>2075.875</ele>
        <time>2018-09-16T10:29:25Z</time>
      </trkpt>
      <trkpt lat="46.23991" lon="10.34282">
        <ele>2082.144</ele>
        <time>2018-09-16T10:29:45Z</time>
      </trkpt>
      <trkpt lat="46.24007" lon="10.34308">
        <ele>2089.105</ele>
        <time>2018-09-16T10:30:05Z</time>
      </trkpt>
      <trkpt lat="46.24017" lon="10.34341">
        <ele>2092.915</ele>
        <time>2018-09-16T10:30:25Z</time>
      </trkpt>
      <trkpt lat="46.24021" lon="10.34395">
        <ele>2094.508</ele>
        <time>2018-09-16T10:30:45Z</time>
      </trkpt>
      <trkpt lat="46.24017" lon="10.3442">
        <ele>2094.236</ele>
        <time>2018-09-16T10:31:05Z</time>
      </trkpt>
      <trkpt lat="46.24003" lon="10.34459">
        <ele>2092.342</ele>
        <time>2018-09-16T10:31:25Z</time>
      </trkpt>
      <trkpt lat="46.23988" lon="10.34513">
        <ele>2091.449</ele>
        <time>2018-09-16T10:31:45Z</time>
      </trkpt>
      <trkpt lat="46.23979" lon="10.34554">
        <ele>2092.732</ele>
        <time>2018-09-16T10:32:05Z</time>
      </trkpt>
      <trkpt lat="46.23967" lon="10.34642">
        <ele>2100.845</ele>
        <time>2018-09-16T10:32:25Z</time>
      </trkpt>
      <trkpt lat="46.23955" lon="10.34707">
        <ele>2105.058</ele>
        <time>2018-09-16T10:32:45Z</time>
      </trkpt>
      <trkpt lat="46.2395" lon="10.34761">
        <ele>2110.226</ele>
        <time>2018-09-16T10:33:05Z</time>
      </trkpt>
      <trkpt lat="46.23976" lon="10.34794">
        <ele>2118.813</ele>
        <time>2018-09-16T10:33:25Z</time>
      </trkpt>
      <trkpt lat="46.24021" lon="10.34798">
        <ele>2122.571</ele>
        <time>2018-09-16T10:33:45Z</time>
      </trkpt>
      <trkpt lat="46.24049" lon="10.34792">
        <ele>2123.041</ele>
        <time>2018-09-16T10:34:05Z</time>
      </trkpt>
      <trkpt lat="46.24115" lon="10.34766">
        <ele>2121.915</ele>
        <time>2018-09-16T10:34:25Z</time>
      </trkpt>
      <trkpt lat="46.24154" lon="10.34751">
        <ele>2128.308</ele>
        <time>2018-09-16T10:34:45Z</time>
      </trkpt>
      <trkpt lat="46.24191" lon="10.34734">
        <ele>2135.669</ele>
        <time>2018-09-16T10:35:05Z</time>
      </trkpt>
      <trkpt lat="46.24222" lon="10.34738">
        <ele>2127.655</ele>
        <time>2018-09-16T10:35:25Z</time>
      </trkpt>
      <trkpt lat="46.24273" lon="10.3472">
        <ele>2125.752</ele>
        <time>2018-09-16T10:35:45Z</time>
      </trkpt>
      <trkpt lat="46.24294" lon="10.34699">
        <ele>2131.525</ele>
        <time>2018-09-16T10:36:05Z</time>
      </trkpt>
      <trkpt lat="46.2432" lon="10.3469">
        <ele>2134.388</ele>
        <time>2018-09-16T10:36:25Z</time>
      </trkpt>
      <trkpt lat="46.2436" lon="10.34684">
        <ele>2140.041</ele>
        <time>2018-09-16T10:36:45Z</time>
      </trkpt>
      <trkpt lat="46.24414" lon="10.34709">
        <ele>2133.269</ele>
        <time>2018-09-16T10:37:05Z</time>
      </trkpt>
      <trkpt lat="46.24438" lon="10.34719">
        <ele>2136.156</ele>
        <time>2018-09-16T10:37:25Z</time>
      </trkpt>
      <trkpt lat="46.24477" lon="10.34738">
        <ele>2134.815</ele>
        <time>2018-09-16T10:37:45Z</time>
      </trkpt>
      <trkpt lat="46.24528" lon="10.34764">
        <ele>2134.565</ele>
        <time>2018-09-16T10:38:05Z</time>
      </trkpt>
      <trkpt lat="46.24571" lon="10.34769">
        <ele>2137.211</ele>
        <time>2018-09-16T10:38:25Z</time>
      </trkpt>
      <trkpt lat="46.24606" lon="10.3476">
        <ele>2143.508</ele>
        <time>2018-09-16T10:38:45Z</time>
      </trkpt>
      <trkpt lat="46.24629" lon="10.34759">
        <ele>2149.923</ele>
        <time>2018-09-16T10:39:05Z</time>
      </trkpt>
      <trkpt lat="46.24633" lon="10.34762">
        <ele>2150.289</ele>
        <time>2018-09-16T10:39:25Z</time>
      </trkpt>
      <trkpt lat="46.24663" lon="10.34785">
        <ele>2152.796</ele>
        <time>2018-09-16T10:39:45Z</time>
      </trkpt>
      <trkpt lat="46.2468" lon="10.34798">
        <ele>2152.579</ele>
        <time>2018-09-16T10:40:05Z</time>
      </trkpt>
      <trkpt lat="46.24711" lon="10.34815">
        <ele>2153.382</ele>
        <time>2018-09-16T10:40:25Z</time>
      </trkpt>
      <trkpt lat="46.24744" lon="10.34834">
        <ele>2155.985</ele>
        <time>2018-09-16T10:40:45Z</time>
      </trkpt>
      <trkpt lat="46.24786" lon="10.34871">
        <ele>2162.173</ele>
        <time>2018-09-16T10:41:05Z</time>
      </trkpt>
      <trkpt lat="46.24811" lon="10.34904">
        <ele>2169.49</ele>
        <time>2018-09-16T10:41:25Z</time>
      </trkpt>
      <trkpt lat="46.24833" lon="10.34952">
        <ele>2166.987</ele>
        <time>2018-09-16T10:41:45Z</time>
      </trkpt>
      <trkpt lat="46.24863" lon="10.34987">
        <ele>2175.642</ele>
        <time>2018-09-16T10:42:05Z</time>
      </trkpt>
      <trkpt lat="46.2489" lon="10.35056">
        <ele>2173.326</ele>
        <time>2018-09-16T10:42:25Z</time>
      </trkpt>
      <trkpt lat="46.24903" lon="10.35091">
        <ele>2172.408</ele>
        <time>2018-09-16T10:42:45Z</time>
      </trkpt>
      <trkpt lat="46.24929" lon="10.35148">
        <ele>2173.57</ele>
        <time>2018-09-16T10:43:05Z</time>
      </trkpt>
      <trkpt lat="46.24957" lon="10.35191">
        <ele>2179.686</ele>
        <time>2018-09-16T10:43:25Z</time>
      </trkpt>
      <trkpt lat="46.25002" lon="10.3526">
        <ele>2179.223</ele>
        <time>2018-09-16T10:43:45Z</time>
      </trkpt>
      <trkpt lat="46.25033" lon="10.35293">
        <ele>2177.426</ele>
        <time>2018-09-16T10:44:05Z</time>
      </trkpt>
      <trkpt lat="46.25067" lon="10.35333">
        <ele>2173.119</ele>
        <time>2018-09-16T10:44:25Z</time>
      </trkpt>
      <trkpt lat="46.25097" lon="10.35373">
        <ele>2170.732</ele>
        <time>2018-09-16T10:44:45Z</time>
      </trkpt>
      <trkpt lat="46.25125" lon="10.35431">
        <ele>2167.04</ele>
        <time>2018-09-16T10:45:05Z</time>
      </trkpt>
      <trkpt lat="46.25149" lon="10.35482">
        <ele>2166.917</ele>
        <time>2018-09-16T10:45:25Z</time>
      </trkpt>
      <trkpt lat="46.25167" lon="10.35511">
        <ele>2168.441</ele>
        <time>2018-09-16T10:45:45Z</time>
      </trkpt>
      <trkpt lat="46.2519" lon="10.35537">
        <ele>2174.481</ele>
        <time>2018-09-16T10:46:05Z</time>
      </trkpt>
      <trkpt lat="46.25216" lon="10.35565">
        <ele>2176.509</ele>
        <time>2018-09-16T10:46:25Z</time>
      </trkpt>
      <trkpt lat="46.25249" lon="10.35586">
        <ele>2174.308</ele>
        <time>2018-09-16T10:46:45Z</time>
      </trkpt>
      <trkpt lat="46.2527" lon="10.35593">
        <ele>2172.696</ele>
        <time>2018-09-16T10:47:05Z</time>
      </trkpt>
      <trkpt lat="46.25289" lon="10.35621">
        <ele>2165.382</ele>
        <time>2018-09-16T10:47:25Z</time>
      </trkpt>
      <trkpt lat="46.25325" lon="10.35694">
        <ele>2154.229</ele>
        <time>2018-09-16T10:47:45Z</time>
      </trkpt>
      <trkpt lat="46.25339" lon="10.35732">
        <ele>2151.842</ele>
        <time>2018-09-16T10:48:05Z</time>
      </trkpt>
      <trkpt lat="46.25365" lon="10.35821">
        <ele>2153.265</ele>
        <time>2018-09-16T10:48:25Z</time>
      </trkpt>
      <trkpt lat="46.25367" lon="10.35864">
        <ele>2154.678</ele>
        <time>2018-09-16T10:48:45Z</time>
      </trkpt>
      <trkpt lat="46.25371" lon="10.35878">
        <ele>2154.946</ele>
        <time>2018-09-16T10:49:05Z</time>
      </trkpt>
      <trkpt lat="46.25371" lon="10.35895">
        <ele>2155.583</ele>
        <time>2018-09-16T10:49:25Z</time>
      </trkpt>
      <trkpt lat="46.25372" lon="10.35913">
        <ele>2156.048</ele>
        <time>2018-09-16T10:49:45Z</time>
      </trkpt>
      <trkpt lat="46.25371" lon="10.3592">
        <ele>2156.361</ele>
        <time>2018-09-16T10:50:05Z</time>
      </trkpt>
      <trkpt lat="46.25371" lon="10.35937">
        <ele>2156.917</ele>
        <time>2018-09-16T10:50:25Z</time>
      </trkpt>
      <trkpt lat="46.25374" lon="10.35948">
        <ele>2157.108</ele>
        <time>2018-09-16T10:50:45Z</time>
      </trkpt>
      <trkpt lat="46.25376" lon="10.35961">
        <ele>2157.516</ele>
        <time>2018-09-16T10:51:05Z</time>
      </trkpt>
      <trkpt lat="46.25378" lon="10.35976">
        <ele>2157.862</ele>
        <time>2018-09-16T10:51:25Z</time>
      </trkpt>
      <trkpt lat="46.25378" lon="10.35992">
        <ele>2158.249</ele>
        <time>2018-09-16T10:51:45Z</time>
      </trkpt>
      <trkpt lat="46.25377" lon="10.36007">
        <ele>2158.652</ele>
        <time>2018-09-16T10:52:05Z</time>
      </trkpt>
      <trkpt lat="46.25378" lon="10.36024">
        <ele>2159.225</ele>
        <time>2018-09-16T10:52:25Z</time>
      </trkpt>
      <trkpt lat="46.25383" lon="10.36037">
        <ele>2159.588</ele>
        <time>2018-09-16T10:52:45Z</time>
      </trkpt>
      <trkpt lat="46.25384" lon="10.36058">
        <ele>2160.136</ele>
        <time>2018-09-16T10:53:05Z</time>
      </trkpt>
      <trkpt lat="46.2539" lon="10.36087">
        <ele>2159.633</ele>
        <time>2018-09-16T10:53:25Z</time>
      </trkpt>
      <trkpt lat="46.25393" lon="10.36094">
        <ele>2158.824</ele>
        <time>2018-09-16T10:53:45Z</time>
      </trkpt>
      <trkpt lat="46.254" lon="10.36096">
        <ele>2156.604</ele>
        <time>2018-09-16T10:54:05Z</time>
      </trkpt>
      <trkpt lat="46.25407" lon="10.3609">
        <ele>2153.714</ele>
        <time>2018-09-16T10:54:25Z</time>
      </trkpt>
      <trkpt lat="46.25413" lon="10.36084">
        <ele>2151.308</ele>
        <time>2018-09-16T10:54:45Z</time>
      </trkpt>
      <trkpt lat="46.25417" lon="10.36082">
        <ele>2149.994</ele>
        <time>2018-09-16T10:55:05Z</time>
      </trkpt>
      <trkpt lat="46.25422" lon="10.36078">
        <ele>2148.77</ele>
        <time>2018-09-16T10:55:25Z</time>
      </trkpt>
      <trkpt lat="46.25426" lon="10.36069">
        <ele>2147.747</ele>
        <time>2018-09-16T10:55:45Z</time>
      </trkpt>
      <trkpt lat="46.25429" lon="10.36059">
        <ele>2146.57</ele>
        <time>2018-09-16T10:56:05Z</time>
      </trkpt>
      <trkpt lat="46.2543" lon="10.3605">
        <ele>2146.033</ele>
        <time>2018-09-16T10:56:25Z</time>
      </trkpt>
      <trkpt lat="46.25431" lon="10.36045">
        <ele>2145.736</ele>
        <time>2018-09-16T10:56:45Z</time>
      </trkpt>
      <trkpt lat="46.25432" lon="10.36032">
        <ele>2145.024</ele>
        <time>2018-09-16T10:57:05Z</time>
      </trkpt>
      <trkpt lat="46.25433" lon="10.36021">
        <ele>2144.561</ele>
        <time>2018-09-16T10:57:25Z</time>
      </trkpt>
      <trkpt lat="46.25434" lon="10.3601">
        <ele>2143.987</ele>
        <time>2018-09-16T10:57:45Z</time>
      </trkpt>
      <trkpt lat="46.2544" lon="10.36004">
        <ele>2141.842</ele>
        <time>2018-09-16T10:58:05Z</time>
      </trkpt>
      <trkpt lat="46.25442" lon="10.36014">
        <ele>2141.426</ele>
        <time>2018-09-16T10:58:25Z</time>
      </trkpt>
      <trkpt lat="46.25442" lon="10.36023">
        <ele>2141.708</ele>
        <time>2018-09-16T10:58:45Z</time>
      </trkpt>
      <trkpt lat="46.25454" lon="10.36052">
        <ele>2138.83</ele>
        <time>2018-09-16T10:59:05Z</time>
      </trkpt>
      <trkpt lat="46.25459" lon="10.36061">
        <ele>2137.586</ele>
        <time>2018-09-16T10:59:25Z</time>
      </trkpt>
      <trkpt lat="46.25467" lon="10.36073">
        <ele>2136.043</ele>
        <time>2018-09-16T10:59:45Z</time>
      </trkpt>
      <trkpt lat="46.25478" lon="10.3609">
        <ele>2133.676</ele>
        <time>2018-09-16T11:00:05Z</time>
      </trkpt>
      <trkpt lat="46.25485" lon="10.36097">
        <ele>2131.539</ele>
        <time>2018-09-16T11:00:25Z</time>
      </trkpt>
      <trkpt lat="46.2549" lon="10.36104">
        <ele>2130.452</ele>
        <time>2018-09-16T11:00:45Z</time>
      </trkpt>
      <trkpt lat="46.25496" lon="10.36108">
        <ele>2128.95</ele>
        <time>2018-09-16T11:01:05Z</time>
      </trkpt>
      <trkpt lat="46.25504" lon="10.36115">
        <ele>2126.747</ele>
        <time>2018-09-16T11:01:25Z</time>
      </trkpt>
      <trkpt lat="46.2551" lon="10.36125">
        <ele>2124.855</ele>
        <time>2018-09-16T11:01:45Z</time>
      </trkpt>
      <trkpt lat="46.25514" lon="10.36135">
        <ele>2123.607</ele>
        <time>2018-09-16T11:02:05Z</time>
      </trkpt>
      <trkpt lat="46.25522" lon="10.3616">
        <ele>2120.817</ele>
        <time>2018-09-16T11:02:25Z</time>
      </trkpt>
      <trkpt lat="46.25524" lon="10.36174">
        <ele>2120.308</ele>
        <time>2018-09-16T11:02:45Z</time>
      </trkpt>
      <trkpt lat="46.25531" lon="10.36187">
        <ele>2118.887</ele>
        <time>2018-09-16T11:03:05Z</time>
      </trkpt>
      <trkpt lat="46.25538" lon="10.36193">
        <ele>2118.063</ele>
        <time>2018-09-16T11:03:25Z</time>
      </trkpt>
      <trkpt lat="46.25542" lon="10.36195">
        <ele>2117.43</ele>
        <time>2018-09-16T11:03:45Z</time>
      </trkpt>
      <trkpt lat="46.25556" lon="10.36225">
        <ele>2117.153</ele>
        <time>2018-09-16T11:04:05Z</time>
      </trkpt>
      <trkpt lat="46.25563" lon="10.36238">
        <ele>2116.356</ele>
        <time>2018-09-16T11:04:25Z</time>
      </trkpt>
      <trkpt lat="46.25569" lon="10.36251">
        <ele>2115.629</ele>
        <time>2018-09-16T11:04:45Z</time>
      </trkpt>
      <trkpt lat="46.25587" lon="10.36243">
        <ele>2110.737</ele>
        <time>2018-09-16T11:05:05Z</time>
      </trkpt>
      <trkpt lat="46.25595" lon="10.36237">
        <ele>2107.934</ele>
        <time>2018-09-16T11:05:25Z</time>
      </trkpt>
      <trkpt lat="46.25608" lon="10.36216">
        <ele>2102.849</ele>
        <time>2018-09-16T11:05:45Z</time>
      </trkpt>
      <trkpt lat="46.2563" lon="10.36192">
        <ele>2100.302</ele>
        <time>2018-09-16T11:06:05Z</time>
      </trkpt>
      <trkpt lat="46.2564" lon="10.36184">
        <ele>2100.022</ele>
        <time>2018-09-16T11:06:25Z</time>
      </trkpt>
      <trkpt lat="46.25672" lon="10.36158">
        <ele>2099.608</ele>
        <time>2018-09-16T11:06:45Z</time>
      </trkpt>
      <trkpt lat="46.2569" lon="10.36135">
        <ele>2098.336</ele>
        <time>2018-09-16T11:07:05Z</time>
      </trkpt>
      <trkpt lat="46.25707" lon="10.36119">
        <ele>2095.262</ele>
        <time>2018-09-16T11:07:25Z</time>
      </trkpt>
      <trkpt lat="46.25719" lon="10.36109">
        <ele>2092.739</ele>
        <time>2018-09-16T11:07:45Z</time>
      </trkpt>
      <trkpt lat="46.25732" lon="10.36099">
        <ele>2090.242</ele>
        <time>2018-09-16T11:08:05Z</time>
      </trkpt>
      <trkpt lat="46.25747" lon="10.36075">
        <ele>2087.925</ele>
        <time>2018-09-16T11:08:25Z</time>
      </trkpt>
      <trkpt lat="46.25748" lon="10.36074">
        <ele>2087.788</ele>
        <time>2018-09-16T11:08:45Z</time>
      </trkpt>
      <trkpt lat="46.2575" lon="10.36072">
        <ele>2087.516</ele>
        <time>2018-09-16T11:09:05Z</time>
      </trkpt>
      <trkpt lat="46.25751" lon="10.36069">
        <ele>2087.453</ele>
        <time>2018-09-16T11:09:25Z</time>
      </trkpt>
      <trkpt lat="46.25752" lon="10.36067">
        <ele>2087.597</ele>
        <time>2018-09-16T11:09:45Z</time>
      </trkpt>
      <trkpt lat="46.25754" lon="10.36065">
        <ele>2087.623</ele>
        <time>2018-09-16T11:10:05Z</time>
      </trkpt>
      <trkpt lat="46.25755" lon="10.36063">
        <ele>2087.625</ele>
        <time>2018-09-16T11:10:25Z</time>
      </trkpt>
      <trkpt lat="46.25757" lon="10.36061">
        <ele>2087.708</ele>
        <time>2018-09-16T11:10:45Z</time>
      </trkpt>
      <trkpt lat="46.25758" lon="10.36059">
        <ele>2087.871</ele>
        <time>2018-09-16T11:11:05Z</time>
      </trkpt>
      <trkpt lat="46.2576" lon="10.36057">
        <ele>2087.957</ele>
        <time>2018-09-16T11:11:25Z</time>
      </trkpt>
      <trkpt lat="46.25761" lon="10.36054">
        <ele>2088.074</ele>
        <time>2018-09-16T11:11:45Z</time>
      </trkpt>
      <trkpt lat="46.25762" lon="10.36052">
        <ele>2088.167</ele>
        <time>2018-09-16T11:12:05Z</time>
      </trkpt>
      <trkpt lat="46.25764" lon="10.3605">
        <ele>2088.19</ele>
        <time>2018-09-16T11:12:25Z</time>
      </trkpt>
      <trkpt lat="46.25765" lon="10.36048">
        <ele>2088.283</ele>
        <time>2018-09-16T11:12:45Z</time>
      </trkpt>
      <trkpt lat="46.25767" lon="10.36046">
        <ele>2088.361</ele>
        <time>2018-09-16T11:13:05Z</time>
      </trkpt>
      <trkpt lat="46.25768" lon="10.36044">
        <ele>2088.488</ele>
        <time>2018-09-16T11:13:25Z</time>
      </trkpt>
      <trkpt lat="46.25769" lon="10.36042">
        <ele>2088.556</ele>
        <time>2018-09-16T11:13:45Z</time>
      </trkpt>
      <trkpt lat="46.25771" lon="10.36039">
        <ele>2088.559</ele>
        <time>2018-09-16T11:14:05Z</time>
      </trkpt>
      <trkpt lat="46.25772" lon="10.36037">
        <ele>2088.614</ele>
        <time>2018-09-16T11:14:25Z</time>
      </trkpt>
      <trkpt lat="46.25773" lon="10.36035">
        <ele>2088.708</ele>
        <time>2018-09-16T11:14:45Z</time>
      </trkpt>
      <trkpt lat="46.25774" lon="10.36033">
        <ele>2088.817</ele>
        <time>2018-09-16T11:15:05Z</time>
      </trkpt>
      <trkpt lat="46.25776" lon="10.36031">
        <ele>2088.833</ele>
        <time>2018-09-16T11:15:25Z</time>
      </trkpt>
      <trkpt lat="46.25777" lon="10.36029">
        <ele>2088.96</ele>
        <time>2018-09-16T11:15:45Z</time>
      </trkpt>
      <trkpt lat="46.25779" lon="10.36027">
        <ele>2089.013</ele>
        <time>2018-09-16T11:16:05Z</time>
      </trkpt>
      <trkpt lat="46.2578" lon="10.36024">
        <ele>2089.266</ele>
        <time>2018-09-16T11:16:25Z</time>
      </trkpt>
      <trkpt lat="46.25782" lon="10.36022">
        <ele>2089.489</ele>
        <time>2018-09-16T11:16:45Z</time>
      </trkpt>
      <trkpt lat="46.25784" lon="10.36019">
        <ele>2089.697</ele>
        <time>2018-09-16T11:17:05Z</time>
      </trkpt>
      <trkpt lat="46.25788" lon="10.36016">
        <ele>2089.824</ele>
        <time>2018-09-16T11:17:25Z</time>
      </trkpt>
      <trkpt lat="46.25789" lon="10.36015">
        <ele>2089.989</ele>
        <time>2018-09-16T11:17:45Z</time>
      </trkpt>
      <trkpt lat="46.25791" lon="10.36014">
        <ele>2089.906</ele>
        <time>2018-09-16T11:18:05Z</time>
      </trkpt>
      <trkpt lat="46.25793" lon="10.36013">
        <ele>2090.026</ele>
        <time>2018-09-16T11:18:25Z</time>
      </trkpt>
      <trkpt lat="46.25795" lon="10.36012">
        <ele>2090.108</ele>
        <time>2018-09-16T11:18:45Z</time>
      </trkpt>
      <trkpt lat="46.25797" lon="10.36011">
        <ele>2090.19</ele>
        <time>2018-09-16T11:19:05Z</time>
      </trkpt>
      <trkpt lat="46.25799" lon="10.3601">
        <ele>2090.296</ele>
        <time>2018-09-16T11:19:25Z</time>
      </trkpt>
      <trkpt lat="46.25824" lon="10.35996">
        <ele>2090.633</ele>
        <time>2018-09-16T11:19:45Z</time>
      </trkpt>
      <trkpt lat="46.25844" lon="10.3599">
        <ele>2092.856</ele>
        <time>2018-09-16T11:20:05Z</time>
      </trkpt>
      <trkpt lat="46.25847" lon="10.35988">
        <ele>2093.749</ele>
        <time>2018-09-16T11:20:25Z</time>
      </trkpt>
      <trkpt lat="46.25849" lon="10.35989">
        <ele>2093.992</ele>
        <time>2018-09-16T11:20:45Z</time>
      </trkpt>
      <trkpt lat="46.25851" lon="10.35989">
        <ele>2094.25</ele>
        <time>2018-09-16T11:21:05Z</time>
      </trkpt>
      <trkpt lat="46.25853" lon="10.35989">
        <ele>2094.557</ele>
        <time>2018-09-16T11:21:25Z</time>
      </trkpt>
      <trkpt lat="46.25855" lon="10.3599">
        <ele>2094.761</ele>
        <time>2018-09-16T11:21:45Z</time>
      </trkpt>
      <trkpt lat="46.25857" lon="10.3599">
        <ele>2095.021</ele>
        <time>2018-09-16T11:22:05Z</time>
      </trkpt>
      <trkpt lat="46.25859" lon="10.3599">
        <ele>2095.313</ele>
        <time>2018-09-16T11:22:25Z</time>
      </trkpt>
      <trkpt lat="46.2586" lon="10.35991">
        <ele>2095.508</ele>
        <time>2018-09-16T11:22:45Z</time>
      </trkpt>
      <trkpt lat="46.25862" lon="10.35991">
        <ele>2095.728</ele>
        <time>2018-09-16T11:23:05Z</time>
      </trkpt>
      <trkpt lat="46.25867" lon="10.35989">
        <ele>2096.314</ele>
        <time>2018-09-16T11:23:25Z</time>
      </trkpt>
      <trkpt lat="46.2587" lon="10.35991">
        <ele>2096.491</ele>
        <time>2018-09-16T11:23:45Z</time>
      </trkpt>
      <trkpt lat="46.25874" lon="10.35992">
        <ele>2096.574</ele>
        <time>2018-09-16T11:24:05Z</time>
      </trkpt>
      <trkpt lat="46.25877" lon="10.35993">
        <ele>2096.717</ele>
        <time>2018-09-16T11:24:25Z</time>
      </trkpt>
      <trkpt lat="46.25879" lon="10.35993">
        <ele>2096.81</ele>
        <time>2018-09-16T11:24:45Z</time>
      </trkpt>
      <trkpt lat="46.25881" lon="10.35993">
        <ele>2097.098</ele>
        <time>2018-09-16T11:25:05Z</time>
      </trkpt>
      <trkpt lat="46.25883" lon="10.35993">
        <ele>2097.285</ele>
        <time>2018-09-16T11:25:25Z</time>
      </trkpt>
      <trkpt lat="46.25885" lon="10.35993">
        <ele>2097.495</ele>
        <time>2018-09-16T11:25:45Z</time>
      </trkpt>
      <trkpt lat="46.25888" lon="10.35993">
        <ele>2097.649</ele>
        <time>2018-09-16T11:26:05Z</time>
      </trkpt>
      <trkpt lat="46.2589" lon="10.35993">
        <ele>2097.723</ele>
        <time>2018-09-16T11:26:25Z</time>
      </trkpt>
      <trkpt lat="46.25892" lon="10.35993">
        <ele>2097.808</ele>
        <time>2018-09-16T11:26:45Z</time>
      </trkpt>
      <trkpt lat="46.25895" lon="10.35993">
        <ele>2097.821</ele>
        <time>2018-09-16T11:27:05Z</time>
      </trkpt>
      <trkpt lat="46.25897" lon="10.35993">
        <ele>2097.967</ele>
        <time>2018-09-16T11:27:25Z</time>
      </trkpt>
      <trkpt lat="46.259" lon="10.3599">
        <ele>2098.394</ele>
        <time>2018-09-16T11:27:45Z</time>
      </trkpt>
      <trkpt lat="46.25905" lon="10.35992">
        <ele>2098.147</ele>
        <time>2018-09-16T11:28:05Z</time>
      </trkpt>
      <trkpt lat="46.25944" lon="10.36009">
        <ele>2096.94</ele>
        <time>2018-09-16T11:28:25Z</time>
      </trkpt>
      <trkpt lat="46.26015" lon="10.36045">
        <ele>2097.283</ele>
        <time>2018-09-16T11:28:45Z</time>
      </trkpt>
      <trkpt lat="46.26059" lon="10.36067">
        <ele>2090.621</ele>
        <time>2018-09-16T11:29:05Z</time>
      </trkpt>
      <trkpt lat="46.26076" lon="10.36074">
        <ele>2086.668</ele>
        <time>2018-09-16T11:29:25Z</time>
      </trkpt>
      <trkpt lat="46.26096" lon="10.36074">
        <ele>2086.971</ele>
        <time>2018-09-16T11:29:45Z</time>
      </trkpt>
      <trkpt lat="46.26124" lon="10.36063">
        <ele>2090.741</ele>
        <time>2018-09-16T11:30:05Z</time>
      </trkpt>
      <trkpt lat="46.26147" lon="10.36065">
        <ele>2090.215</ele>
        <time>2018-09-16T11:30:25Z</time>
      </trkpt>
      <trkpt lat="46.26189" lon="10.36073">
        <ele>2094.608</ele>
        <time>2018-09-16T11:30:45Z</time>
      </trkpt>
      <trkpt lat="46.2621" lon="10.36085">
        <ele>2098.229</ele>
        <time>2018-09-16T11:31:05Z</time>
      </trkpt>
      <trkpt lat="46.26229" lon="10.3613">
        <ele>2095.435</ele>
        <time>2018-09-16T11:31:25Z</time>
      </trkpt>
      <trkpt lat="46.26233" lon="10.36139">
        <ele>2094.672</ele>
        <time>2018-09-16T11:31:45Z</time>
      </trkpt>
      <trkpt lat="46.26245" lon="10.36175">
        <ele>2091.365</ele>
        <time>2018-09-16T11:32:05Z</time>
      </trkpt>
      <trkpt lat="46.26247" lon="10.36183">
        <ele>2090.018</ele>
        <time>2018-09-16T11:32:25Z</time>
      </trkpt>
      <trkpt lat="46.26253" lon="10.36235">
        <ele>2078.651</ele>
        <time>2018-09-16T11:32:45Z</time>
      </trkpt>
      <trkpt lat="46.26263" lon="10.36256">
        <ele>2073.489</ele>
        <time>2018-09-16T11:33:05Z</time>
      </trkpt>
      <trkpt lat="46.2627" lon="10.36275">
        <ele>2069.136</ele>
        <time>2018-09-16T11:33:25Z</time>
      </trkpt>
      <trkpt lat="46.26276" lon="10.36286">
        <ele>2066.393</ele>
        <time>2018-09-16T11:33:45Z</time>
      </trkpt>
      <trkpt lat="46.26284" lon="10.36287">
        <ele>2065.765</ele>
        <time>2018-09-16T11:34:05Z</time>
      </trkpt>
      <trkpt lat="46.26289" lon="10.36293">
        <ele>2064.021</ele>
        <time>2018-09-16T11:34:25Z</time>
      </trkpt>
      <trkpt lat="46.26286" lon="10.36301">
        <ele>2062.408</ele>
        <time>2018-09-16T11:34:45Z</time>
      </trkpt>
      <trkpt lat="46.26279" lon="10.36302">
        <ele>2062.871</ele>
        <time>2018-09-16T11:35:05Z</time>
      </trkpt>
      <trkpt lat="46.26269" lon="10.363">
        <ele>2063.897</ele>
        <time>2018-09-16T11:35:25Z</time>
      </trkpt>
      <trkpt lat="46.26263" lon="10.36297">
        <ele>2064.874</ele>
        <time>2018-09-16T11:35:45Z</time>
      </trkpt>
      <trkpt lat="46.26253" lon="10.36295">
        <ele>2066.187</ele>
        <time>2018-09-16T11:36:05Z</time>
      </trkpt>
      <trkpt lat="46.26239" lon="10.36298">
        <ele>2064.11</ele>
        <time>2018-09-16T11:36:25Z</time>
      </trkpt>
      <trkpt lat="46.26232" lon="10.36302">
        <ele>2062.163</ele>
        <time>2018-09-16T11:36:45Z</time>
      </trkpt>
      <trkpt lat="46.26226" lon="10.36313">
        <ele>2058.821</ele>
        <time>2018-09-16T11:37:05Z</time>
      </trkpt>
      <trkpt lat="46.26222" lon="10.36324">
        <ele>2055.268</ele>
        <time>2018-09-16T11:37:25Z</time>
      </trkpt>
      <trkpt lat="46.2622" lon="10.36336">
        <ele>2051.746</ele>
        <time>2018-09-16T11:37:45Z</time>
      </trkpt>
      <trkpt lat="46.2622" lon="10.36348">
        <ele>2048.788</ele>
        <time>2018-09-16T11:38:05Z</time>
      </trkpt>
      <trkpt lat="46.26232" lon="10.36358">
        <ele>2048.916</ele>
        <time>2018-09-16T11:38:25Z</time>
      </trkpt>
      <trkpt lat="46.2624" lon="10.36355">
        <ele>2051.208</ele>
        <time>2018-09-16T11:38:45Z</time>
      </trkpt>
      <trkpt lat="46.26252" lon="10.36351">
        <ele>2054.186</ele>
        <time>2018-09-16T11:39:05Z</time>
      </trkpt>
      <trkpt lat="46.26263" lon="10.36351">
        <ele>2053.372</ele>
        <time>2018-09-16T11:39:25Z</time>
      </trkpt>
      <trkpt lat="46.26275" lon="10.36357">
        <ele>2051.079</ele>
        <time>2018-09-16T11:39:45Z</time>
      </trkpt>
      <trkpt lat="46.26284" lon="10.3636">
        <ele>2049.472</ele>
        <time>2018-09-16T11:40:05Z</time>
      </trkpt>
      <trkpt lat="46.26293" lon="10.36367">
        <ele>2046.475</ele>
        <time>2018-09-16T11:40:25Z</time>
      </trkpt>
      <trkpt lat="46.26297" lon="10.36376">
        <ele>2043.548</ele>
        <time>2018-09-16T11:40:45Z</time>
      </trkpt>
      <trkpt lat="46.26289" lon="10.36385">
        <ele>2042.996</ele>
        <time>2018-09-16T11:41:05Z</time>
      </trkpt>
      <trkpt lat="46.26279" lon="10.36388">
        <ele>2044.783</ele>
        <time>2018-09-16T11:41:25Z</time>
      </trkpt>
      <trkpt lat="46.2627" lon="10.36382">
        <ele>2046.368</ele>
        <time>2018-09-16T11:41:45Z</time>
      </trkpt>
      <trkpt lat="46.26261" lon="10.36379">
        <ele>2047.142</ele>
        <time>2018-09-16T11:42:05Z</time>
      </trkpt>
      <trkpt lat="46.26254" lon="10.36383">
        <ele>2046.426</ele>
        <time>2018-09-16T11:42:25Z</time>
      </trkpt>
      <trkpt lat="46.26246" lon="10.36391">
        <ele>2043.508</ele>
        <time>2018-09-16T11:42:45Z</time>
      </trkpt>
      <trkpt lat="46.2624" lon="10.36403">
        <ele>2038.748</ele>
        <time>2018-09-16T11:43:05Z</time>
      </trkpt>
      <trkpt lat="46.26236" lon="10.36405">
        <ele>2037.254</ele>
        <time>2018-09-16T11:43:25Z</time>
      </trkpt>
      <trkpt lat="46.26233" lon="10.36418">
        <ele>2033.311</ele>
        <time>2018-09-16T11:43:45Z</time>
      </trkpt>
      <trkpt lat="46.26241" lon="10.36419">
        <ele>2034.124</ele>
        <time>2018-09-16T11:44:05Z</time>
      </trkpt>
      <trkpt lat="46.2625" lon="10.36413">
        <ele>2037.077</ele>
        <time>2018-09-16T11:44:25Z</time>
      </trkpt>
      <trkpt lat="46.26261" lon="10.36417">
        <ele>2037.14</ele>
        <time>2018-09-16T11:44:45Z</time>
      </trkpt>
      <trkpt lat="46.26267" lon="10.36424">
        <ele>2036.178</ele>
        <time>2018-09-16T11:45:05Z</time>
      </trkpt>
      <trkpt lat="46.26276" lon="10.36427">
        <ele>2036.515</ele>
        <time>2018-09-16T11:45:25Z</time>
      </trkpt>
      <trkpt lat="46.26302" lon="10.36422">
        <ele>2029.778</ele>
        <time>2018-09-16T11:45:45Z</time>
      </trkpt>
      <trkpt lat="46.26319" lon="10.36419">
        <ele>2024.233</ele>
        <time>2018-09-16T11:46:05Z</time>
      </trkpt>
      <trkpt lat="46.26337" lon="10.36402">
        <ele>2020.926</ele>
        <time>2018-09-16T11:46:25Z</time>
      </trkpt>
      <trkpt lat="46.26346" lon="10.36385">
        <ele>2020.908</ele>
        <time>2018-09-16T11:46:45Z</time>
      </trkpt>
      <trkpt lat="46.26352" lon="10.36371">
        <ele>2023.169</ele>
        <time>2018-09-16T11:47:05Z</time>
      </trkpt>
      <trkpt lat="46.26365" lon="10.36348">
        <ele>2027.045</ele>
        <time>2018-09-16T11:47:25Z</time>
      </trkpt>
      <trkpt lat="46.26392" lon="10.36318">
        <ele>2028.072</ele>
        <time>2018-09-16T11:47:45Z</time>
      </trkpt>
      <trkpt lat="46.26412" lon="10.36306">
        <ele>2020.765</ele>
        <time>2018-09-16T11:48:05Z</time>
      </trkpt>
      <trkpt lat="46.2644" lon="10.36291">
        <ele>2015.168</ele>
        <time>2018-09-16T11:48:25Z</time>
      </trkpt>
      <trkpt lat="46.26459" lon="10.36281">
        <ele>2011.751</ele>
        <time>2018-09-16T11:48:45Z</time>
      </trkpt>
      <trkpt lat="46.26484" lon="10.36262">
        <ele>2009.959</ele>
        <time>2018-09-16T11:49:05Z</time>
      </trkpt>
      <trkpt lat="46.26495" lon="10.36252">
        <ele>2010.356</ele>
        <time>2018-09-16T11:49:25Z</time>
      </trkpt>
      <trkpt lat="46.26514" lon="10.36231">
        <ele>2012.682</ele>
        <time>2018-09-16T11:49:45Z</time>
      </trkpt>
      <trkpt lat="46.26527" lon="10.36225">
        <ele>2013.143</ele>
        <time>2018-09-16T11:50:05Z</time>
      </trkpt>
      <trkpt lat="46.26541" lon="10.36225">
        <ele>2008.317</ele>
        <time>2018-09-16T11:50:25Z</time>
      </trkpt>
      <trkpt lat="46.26553" lon="10.36229">
        <ele>2003.308</ele>
        <time>2018-09-16T11:50:45Z</time>
      </trkpt>
      <trkpt lat="46.26561" lon="10.36243">
        <ele>1999.25</ele>
        <time>2018-09-16T11:51:05Z</time>
      </trkpt>
      <trkpt lat="46.26563" lon="10.36257">
        <ele>1997.386</ele>
        <time>2018-09-16T11:51:25Z</time>
      </trkpt>
      <trkpt lat="46.26556" lon="10.36284">
        <ele>1994.683</ele>
        <time>2018-09-16T11:51:45Z</time>
      </trkpt>
      <trkpt lat="46.26544" lon="10.36303">
        <ele>1994.036</ele>
        <time>2018-09-16T11:52:05Z</time>
      </trkpt>
      <trkpt lat="46.26531" lon="10.3632">
        <ele>1992.299</ele>
        <time>2018-09-16T11:52:25Z</time>
      </trkpt>
      <trkpt lat="46.26522" lon="10.36331">
        <ele>1991.372</ele>
        <time>2018-09-16T11:52:45Z</time>
      </trkpt>
      <trkpt lat="46.265" lon="10.36351">
        <ele>1990.83</ele>
        <time>2018-09-16T11:53:05Z</time>
      </trkpt>
      <trkpt lat="46.26494" lon="10.36363">
        <ele>1989.057</ele>
        <time>2018-09-16T11:53:25Z</time>
      </trkpt>
      <trkpt lat="46.2648" lon="10.36379">
        <ele>1987.478</ele>
        <time>2018-09-16T11:53:45Z</time>
      </trkpt>
      <trkpt lat="46.26474" lon="10.36389">
        <ele>1985.933</ele>
        <time>2018-09-16T11:54:05Z</time>
      </trkpt>
      <trkpt lat="46.26464" lon="10.36408">
        <ele>1981.826</ele>
        <time>2018-09-16T11:54:25Z</time>
      </trkpt>
      <trkpt lat="46.26455" lon="10.36426">
        <ele>1977.008</ele>
        <time>2018-09-16T11:54:45Z</time>
      </trkpt>
      <trkpt lat="46.26449" lon="10.36444">
        <ele>1972.049</ele>
        <time>2018-09-16T11:55:05Z</time>
      </trkpt>
      <trkpt lat="46.2645" lon="10.36456">
        <ele>1968.895</ele>
        <time>2018-09-16T11:55:25Z</time>
      </trkpt>
      <trkpt lat="46.26449" lon="10.36476">
        <ele>1963.092</ele>
        <time>2018-09-16T11:55:45Z</time>
      </trkpt>
      <trkpt lat="46.26446" lon="10.36495">
        <ele>1957.625</ele>
        <time>2018-09-16T11:56:05Z</time>
      </trkpt>
      <trkpt lat="46.26439" lon="10.36529">
        <ele>1948.228</ele>
        <time>2018-09-16T11:56:25Z</time>
      </trkpt>
      <trkpt lat="46.26443" lon="10.36536">
        <ele>1946.951</ele>
        <time>2018-09-16T11:56:45Z</time>
      </trkpt>
      <trkpt lat="46.26448" lon="10.36538">
        <ele>1947.069</ele>
        <time>2018-09-16T11:57:05Z</time>
      </trkpt>
      <trkpt lat="46.2645" lon="10.36546">
        <ele>1945.446</ele>
        <time>2018-09-16T11:57:25Z</time>
      </trkpt>
      <trkpt lat="46.26453" lon="10.36549">
        <ele>1945.213</ele>
        <time>2018-09-16T11:57:45Z</time>
      </trkpt>
      <trkpt lat="46.26455" lon="10.36551">
        <ele>1945.143</ele>
        <time>2018-09-16T11:58:05Z</time>
      </trkpt>
      <trkpt lat="46.26457" lon="10.36553">
        <ele>1944.907</ele>
        <time>2018-09-16T11:58:25Z</time>
      </trkpt>
      <trkpt lat="46.26471" lon="10.36564">
        <ele>1943.608</ele>
        <time>2018-09-16T11:58:45Z</time>
      </trkpt>
      <trkpt lat="46.26472" lon="10.36566">
        <ele>1943.453</ele>
        <time>2018-09-16T11:59:05Z</time>
      </trkpt>
      <trkpt lat="46.26494" lon="10.36585">
        <ele>1939.799</ele>
        <time>2018-09-16T11:59:25Z</time>
      </trkpt>
      <trkpt lat="46.26507" lon="10.36602">
        <ele>1936.276</ele>
        <time>2018-09-16T11:59:45Z</time>
      </trkpt>
      <trkpt lat="46.26512" lon="10.36609">
        <ele>1934.379</ele>
        <time>2018-09-16T12:00:05Z</time>
      </trkpt>
      <trkpt lat="46.26523" lon="10.36632">
        <ele>1927.252</ele>
        <time>2018-09-16T12:00:25Z</time>
      </trkpt>
      <trkpt lat="46.26528" lon="10.36664">
        <ele>1916.085</ele>
        <time>2018-09-16T12:00:45Z</time>
      </trkpt>
      <trkpt lat="46.26532" lon="10.36665">
        <ele>1916.143</ele>
        <time>2018-09-16T12:01:05Z</time>
      </trkpt>
      <trkpt lat="46.26535" lon="10.3666">
        <ele>1918.96</ele>
        <time>2018-09-16T12:01:25Z</time>
      </trkpt>
      <trkpt lat="46.26536" lon="10.36666">
        <ele>1916.281</ele>
        <time>2018-09-16T12:01:45Z</time>
      </trkpt>
      <trkpt lat="46.26537" lon="10.36667">
        <ele>1916.261</ele>
        <time>2018-09-16T12:02:05Z</time>
      </trkpt>
      <trkpt lat="46.26539" lon="10.36663">
        <ele>1918.417</ele>
        <time>2018-09-16T12:02:25Z</time>
      </trkpt>
      <trkpt lat="46.26546" lon="10.36658">
        <ele>1921.808</ele>
        <time>2018-09-16T12:02:45Z</time>
      </trkpt>
      <trkpt lat="46.26551" lon="10.36653">
        <ele>1925.51</ele>
        <time>2018-09-16T12:03:05Z</time>
      </trkpt>
      <trkpt lat="46.26552" lon="10.36654">
        <ele>1925.726</ele>
        <time>2018-09-16T12:03:25Z</time>
      </trkpt>
      <trkpt lat="46.26561" lon="10.36656">
        <ele>1925.513</ele>
        <time>2018-09-16T12:03:45Z</time>
      </trkpt>
      <trkpt lat="46.26566" lon="10.36658">
        <ele>1925.466</ele>
        <time>2018-09-16T12:04:05Z</time>
      </trkpt>
      <trkpt lat="46.26584" lon="10.36666">
        <ele>1925.089</ele>
        <time>2018-09-16T12:04:25Z</time>
      </trkpt>
      <trkpt lat="46.26611" lon="10.36685">
        <ele>1913.822</ele>
        <time>2018-09-16T12:04:45Z</time>
      </trkpt>
      <trkpt lat="46.26623" lon="10.36694">
        <ele>1911.15</ele>
        <time>2018-09-16T12:05:05Z</time>
      </trkpt>
      <trkpt lat="46.2663" lon="10.36702">
        <ele>1908.817</ele>
        <time>2018-09-16T12:05:25Z</time>
      </trkpt>
      <trkpt lat="46.2665" lon="10.36714">
        <ele>1910.217</ele>
        <time>2018-09-16T12:05:45Z</time>
      </trkpt>
      <trkpt lat="46.26653" lon="10.36714">
        <ele>1911.287</ele>
        <time>2018-09-16T12:06:05Z</time>
      </trkpt>
      <trkpt lat="46.26657" lon="10.36714">
        <ele>1912.615</ele>
        <time>2018-09-16T12:06:25Z</time>
      </trkpt>
      <trkpt lat="46.26657" lon="10.36714">
        <ele>1912.908</ele>
        <time>2018-09-16T12:06:45Z</time>
      </trkpt>
      <trkpt lat="46.2667" lon="10.36722">
        <ele>1914.853</ele>
        <time>2018-09-16T12:07:05Z</time>
      </trkpt>
      <trkpt lat="46.26697" lon="10.36737">
        <ele>1922.489</ele>
        <time>2018-09-16T12:07:25Z</time>
      </trkpt>
      <trkpt lat="46.2671" lon="10.36744">
        <ele>1929.716</ele>
        <time>2018-09-16T12:07:45Z</time>
      </trkpt>
      <trkpt lat="46.2672" lon="10.36754">
        <ele>1933.759</ele>
        <time>2018-09-16T12:08:05Z</time>
      </trkpt>
      <trkpt lat="46.26737" lon="10.36767">
        <ele>1940.092</ele>
        <time>2018-09-16T12:08:25Z</time>
      </trkpt>
      <trkpt lat="46.26736" lon="10.36774">
        <ele>1936.845</ele>
        <time>2018-09-16T12:08:45Z</time>
      </trkpt>
      <trkpt lat="46.26711" lon="10.36773">
        <ele>1917.553</ele>
        <time>2018-09-16T12:09:05Z</time>
      </trkpt>
      <trkpt lat="46.2669" lon="10.3677">
        <ele>1902.54</ele>
        <time>2018-09-16T12:09:25Z</time>
      </trkpt>
      <trkpt lat="46.26678" lon="10.36765">
        <ele>1899.157</ele>
        <time>2018-09-16T12:09:45Z</time>
      </trkpt>
      <trkpt lat="46.26664" lon="10.36757">
        <ele>1896.5</ele>
        <time>2018-09-16T12:10:05Z</time>
      </trkpt>
      <trkpt lat="46.26657" lon="10.36762">
        <ele>1892.72</ele>
        <time>2018-09-16T12:10:25Z</time>
      </trkpt>
      <trkpt lat="46.26662" lon="10.36767">
        <ele>1892.308</ele>
        <time>2018-09-16T12:10:45Z</time>
      </trkpt>
      <trkpt lat="46.26677" lon="10.36773">
        <ele>1895.737</ele>
        <time>2018-09-16T12:11:05Z</time>
      </trkpt>
      <trkpt lat="46.26691" lon="10.36788">
        <ele>1896.613</ele>
        <time>2018-09-16T12:11:25Z</time>
      </trkpt>
      <trkpt lat="46.2669" lon="10.36795">
        <ele>1894.77</ele>
        <time>2018-09-16T12:11:45Z</time>
      </trkpt>
      <trkpt lat="46.26686" lon="10.36799">
        <ele>1891.783</ele>
        <time>2018-09-16T12:12:05Z</time>
      </trkpt>
      <trkpt lat="46.26686" lon="10.36808">
        <ele>1889.686</ele>
        <time>2018-09-16T12:12:25Z</time>
      </trkpt>
      <trkpt lat="46.26684" lon="10.36814">
        <ele>1887.149</ele>
        <time>2018-09-16T12:12:45Z</time>
      </trkpt>
      <trkpt lat="46.26679" lon="10.36816">
        <ele>1883.337</ele>
        <time>2018-09-16T12:13:05Z</time>
      </trkpt>
      <trkpt lat="46.26668" lon="10.36815">
        <ele>1877.564</ele>
        <time>2018-09-16T12:13:25Z</time>
      </trkpt>
      <trkpt lat="46.26665" lon="10.36829">
        <ele>1872.074</ele>
        <time>2018-09-16T12:13:45Z</time>
      </trkpt>
      <trkpt lat="46.26646" lon="10.36823">
        <ele>1867.156</ele>
        <time>2018-09-16T12:14:05Z</time>
      </trkpt>
      <trkpt lat="46.26642" lon="10.36825">
        <ele>1864.921</ele>
        <time>2018-09-16T12:14:25Z</time>
      </trkpt>
      <trkpt lat="46.26633" lon="10.36829">
        <ele>1860.908</ele>
        <time>2018-09-16T12:14:45Z</time>
      </trkpt>
      <trkpt lat="46.26659" lon="10.36848">
        <ele>1862.859</ele>
        <time>2018-09-16T12:15:05Z</time>
      </trkpt>
      <trkpt lat="46.26667" lon="10.3687">
        <ele>1857.885</ele>
        <time>2018-09-16T12:15:25Z</time>
      </trkpt>
      <trkpt lat="46.2666" lon="10.36873">
        <ele>1852.692</ele>
        <time>2018-09-16T12:15:45Z</time>
      </trkpt>
      <trkpt lat="46.26645" lon="10.36878">
        <ele>1841.125</ele>
        <time>2018-09-16T12:16:05Z</time>
      </trkpt>
      <trkpt lat="46.26645" lon="10.36881">
        <ele>1839.028</ele>
        <time>2018-09-16T12:16:25Z</time>
      </trkpt>
      <trkpt lat="46.26648" lon="10.36884">
        <ele>1840.031</ele>
        <time>2018-09-16T12:16:45Z</time>
      </trkpt>
      <trkpt lat="46.26636" lon="10.36889">
        <ele>1829.419</ele>
        <time>2018-09-16T12:17:05Z</time>
      </trkpt>
      <trkpt lat="46.26652" lon="10.36896">
        <ele>1834.946</ele>
        <time>2018-09-16T12:17:25Z</time>
      </trkpt>
      <trkpt lat="46.26674" lon="10.36922">
        <ele>1831.577</ele>
        <time>2018-09-16T12:17:45Z</time>
      </trkpt>
      <trkpt lat="46.26672" lon="10.36943">
        <ele>1825.261</ele>
        <time>2018-09-16T12:18:05Z</time>
      </trkpt>
      <trkpt lat="46.26679" lon="10.3697">
        <ele>1822.427</ele>
        <time>2018-09-16T12:18:25Z</time>
      </trkpt>
      <trkpt lat="46.26678" lon="10.36999">
        <ele>1814.108</ele>
        <time>2018-09-16T12:18:45Z</time>
      </trkpt>
      <trkpt lat="46.26685" lon="10.37054">
        <ele>1799.759</ele>
        <time>2018-09-16T12:19:05Z</time>
      </trkpt>
      <trkpt lat="46.26685" lon="10.37054">
        <ele>1799.475</ele>
        <time>2018-09-16T12:19:25Z</time>
      </trkpt>
      <trkpt lat="46.26677" lon="10.37066">
        <ele>1792.012</ele>
        <time>2018-09-16T12:19:45Z</time>
      </trkpt>
      <trkpt lat="46.26675" lon="10.37074">
        <ele>1788.875</ele>
        <time>2018-09-16T12:20:05Z</time>
      </trkpt>
      <trkpt lat="46.2668" lon="10.37084">
        <ele>1788.748</ele>
        <time>2018-09-16T12:20:25Z</time>
      </trkpt>
      <trkpt lat="46.26685" lon="10.37088">
        <ele>1791.571</ele>
        <time>2018-09-16T12:20:45Z</time>
      </trkpt>
      <trkpt lat="46.26686" lon="10.37097">
        <ele>1789.519</ele>
        <time>2018-09-16T12:21:05Z</time>
      </trkpt>
      <trkpt lat="46.26689" lon="10.37124">
        <ele>1785.136</ele>
        <time>2018-09-16T12:21:25Z</time>
      </trkpt>
      <trkpt lat="46.26695" lon="10.3717">
        <ele>1777.699</ele>
        <time>2018-09-16T12:21:45Z</time>
      </trkpt>
      <trkpt lat="46.267" lon="10.37192">
        <ele>1777.307</ele>
        <time>2018-09-16T12:22:05Z</time>
      </trkpt>
      <trkpt lat="46.26701" lon="10.37256">
        <ele>1767.727</ele>
        <time>2018-09-16T12:22:25Z</time>
      </trkpt>
      <trkpt lat="46.26701" lon="10.37299">
        <ele>1760.708</ele>
        <time>2018-09-16T12:22:45Z</time>
      </trkpt>
      <trkpt lat="46.26708" lon="10.37344">
        <ele>1760.321</ele>
        <time>2018-09-16T12:23:05Z</time>
      </trkpt>
      <trkpt lat="46.26709" lon="10.37379">
        <ele>1756.777</ele>
        <time>2018-09-16T12:23:25Z</time>
      </trkpt>
      <trkpt lat="46.26709" lon="10.37436">
        <ele>1748.014</ele>
        <time>2018-09-16T12:23:45Z</time>
      </trkpt>
      <trkpt lat="46.26703" lon="10.37477">
        <ele>1738.367</ele>
        <time>2018-09-16T12:24:05Z</time>
      </trkpt>
      <trkpt lat="46.26701" lon="10.37525">
        <ele>1730.77</ele>
        <time>2018-09-16T12:24:25Z</time>
      </trkpt>
      <trkpt lat="46.26687" lon="10.37581">
        <ele>1713.763</ele>
        <time>2018-09-16T12:24:45Z</time>
      </trkpt>
      <trkpt lat="46.26677" lon="10.37626">
        <ele>1699.081</ele>
        <time>2018-09-16T12:25:05Z</time>
      </trkpt>
      <trkpt lat="46.26676" lon="10.37673">
        <ele>1690.288</ele>
        <time>2018-09-16T12:25:25Z</time>
      </trkpt>
      <trkpt lat="46.26684" lon="10.37707">
        <ele>1690.133</ele>
        <time>2018-09-16T12:25:45Z</time>
      </trkpt>
      <trkpt lat="46.26692" lon="10.37742">
        <ele>1691.023</ele>
        <time>2018-09-16T12:26:05Z</time>
      </trkpt>
      <trkpt lat="46.26692" lon="10.37771">
        <ele>1687.115</ele>
        <time>2018-09-16T12:26:25Z</time>
      </trkpt>
      <trkpt lat="46.26689" lon="10.37808">
        <ele>1681.708</ele>
        <time>2018-09-16T12:26:45Z</time>
      </trkpt>
      <trkpt lat="46.26672" lon="10.37866">
        <ele>1664.555</ele>
        <time>2018-09-16T12:27:05Z</time>
      </trkpt>
      <trkpt lat="46.26672" lon="10.37867">
        <ele>1664.351</ele>
        <time>2018-09-16T12:27:25Z</time>
      </trkpt>
      <trkpt lat="46.2667" lon="10.37893">
        <ele>1659.498</ele>
        <time>2018-09-16T12:27:45Z</time>
      </trkpt>
      <trkpt lat="46.26667" lon="10.37904">
        <ele>1656.761</ele>
        <time>2018-09-16T12:28:05Z</time>
      </trkpt>
      <trkpt lat="46.26647" lon="10.37966">
        <ele>1636.744</ele>
        <time>2018-09-16T12:28:25Z</time>
      </trkpt>
      <trkpt lat="46.26645" lon="10.37975">
        <ele>1634.417</ele>
        <time>2018-09-16T12:28:45Z</time>
      </trkpt>
      <trkpt lat="46.26643" lon="10.37998">
        <ele>1628.985</ele>
        <time>2018-09-16T12:29:05Z</time>
      </trkpt>
      <trkpt lat="46.26641" lon="10.38011">
        <ele>1628.932</ele>
        <time>2018-09-16T12:29:25Z</time>
      </trkpt>
      <trkpt lat="46.26638" lon="10.38032">
        <ele>1631.018</ele>
        <time>2018-09-16T12:29:45Z</time>
      </trkpt>
      <trkpt lat="46.26637" lon="10.3808">
        <ele>1624.498</ele>
        <time>2018-09-16T12:30:05Z</time>
      </trkpt>
      <trkpt lat="46.26635" lon="10.38109">
        <ele>1621.717</ele>
        <time>2018-09-16T12:30:25Z</time>
      </trkpt>
      <trkpt lat="46.26622" lon="10.38178">
        <ele>1617.508</ele>
        <time>2018-09-16T12:30:45Z</time>
      </trkpt>
      <trkpt lat="46.26595" lon="10.38102">
        <ele>1595.363</ele>
        <time>2018-09-16T12:31:05Z</time>
      </trkpt>
      <trkpt lat="46.26586" lon="10.38077">
        <ele>1590.629</ele>
        <time>2018-09-16T12:31:25Z</time>
      </trkpt>
      <trkpt lat="46.26585" lon="10.38075">
        <ele>1590.236</ele>
        <time>2018-09-16T12:31:45Z</time>
      </trkpt>
      <trkpt lat="46.26579" lon="10.38056">
        <ele>1587.339</ele>
        <time>2018-09-16T12:32:05Z</time>
      </trkpt>
      <trkpt lat="46.26579" lon="10.38052">
        <ele>1588.182</ele>
        <time>2018-09-16T12:32:25Z</time>
      </trkpt>
      <trkpt lat="46.26555" lon="10.37993">
        <ele>1577.955</ele>
        <time>2018-09-16T12:32:45Z</time>
      </trkpt>
      <trkpt lat="46.26551" lon="10.37981">
        <ele>1576.283</ele>
        <time>2018-09-16T12:33:05Z</time>
      </trkpt>
      <trkpt lat="46.26524" lon="10.37957">
        <ele>1564.68</ele>
        <time>2018-09-16T12:33:25Z</time>
      </trkpt>
      <trkpt lat="46.26522" lon="10.3798">
        <ele>1561.419</ele>
        <time>2018-09-16T12:33:45Z</time>
      </trkpt>
      <trkpt lat="46.26525" lon="10.37999">
        <ele>1560.809</ele>
        <time>2018-09-16T12:34:05Z</time>
      </trkpt>
      <trkpt lat="46.26521" lon="10.3803">
        <ele>1557.119</ele>
        <time>2018-09-16T12:34:25Z</time>
      </trkpt>
      <trkpt lat="46.26514" lon="10.3805">
        <ele>1553.108</ele>
        <time>2018-09-16T12:34:45Z</time>
      </trkpt>
      <trkpt lat="46.26516" lon="10.3807">
        <ele>1552.423</ele>
        <time>2018-09-16T12:35:05Z</time>
      </trkpt>
      <trkpt lat="46.26512" lon="10.38082">
        <ele>1549.859</ele>
        <time>2018-09-16T12:35:25Z</time>
      </trkpt>
      <trkpt lat="46.26504" lon="10.3807">
        <ele>1547.646</ele>
        <time>2018-09-16T12:35:45Z</time>
      </trkpt>
      <trkpt lat="46.26488" lon="10.38046">
        <ele>1541.259</ele>
        <time>2018-09-16T12:36:05Z</time>
      </trkpt>
      <trkpt lat="46.26469" lon="10.38028">
        <ele>1533.822</ele>
        <time>2018-09-16T12:36:25Z</time>
      </trkpt>
      <trkpt lat="46.26448" lon="10.38004">
        <ele>1529.065</ele>
        <time>2018-09-16T12:36:45Z</time>
      </trkpt>
      <trkpt lat="46.26423" lon="10.37993">
        <ele>1520.863</ele>
        <time>2018-09-16T12:37:05Z</time>
      </trkpt>
      <trkpt lat="46.26405" lon="10.37979">
        <ele>1518.03</ele>
        <time>2018-09-16T12:37:25Z</time>
      </trkpt>
      <trkpt lat="46.26363" lon="10.37961">
        <ele>1511.992</ele>
        <time>2018-09-16T12:37:45Z</time>
      </trkpt>
      <trkpt lat="46.26343" lon="10.37947">
        <ele>1512.373</ele>
        <time>2018-09-16T12:38:05Z</time>
      </trkpt>
      <trkpt lat="46.26331" lon="10.37953">
        <ele>1510.62</ele>
        <time>2018-09-16T12:38:25Z</time>
      </trkpt>
      <trkpt lat="46.26332" lon="10.37954">
        <ele>1510.508</ele>
        <time>2018-09-16T12:38:45Z</time>
      </trkpt>
      <trkpt lat="46.26331" lon="10.3796">
        <ele>1509.611</ele>
        <time>2018-09-16T12:39:05Z</time>
      </trkpt>
      <trkpt lat="46.26316" lon="10.37992">
        <ele>1502.847</ele>
        <time>2018-09-16T12:39:25Z</time>
      </trkpt>
      <trkpt lat="46.26314" lon="10.37994">
        <ele>1502.134</ele>
        <time>2018-09-16T12:39:45Z</time>
      </trkpt>
      <trkpt lat="46.26309" lon="10.38">
        <ele>1500.487</ele>
        <time>2018-09-16T12:40:05Z</time>
      </trkpt>
      <trkpt lat="46.26309" lon="10.38">
        <ele>1500.26</ele>
        <time>2018-09-16T12:40:25Z</time>
      </trkpt>
      <trkpt lat="46.26303" lon="10.38012">
        <ele>1498.883</ele>
        <time>2018-09-16T12:40:45Z</time>
      </trkpt>
      <trkpt lat="46.26299" lon="10.38028">
        <ele>1496.641</ele>
        <time>2018-09-16T12:41:05Z</time>
      </trkpt>
      <trkpt lat="46.26294" lon="10.38044">
        <ele>1494.068</ele>
        <time>2018-09-16T12:41:25Z</time>
      </trkpt>
      <trkpt lat="46.26291" lon="10.38052">
        <ele>1492.518</ele>
        <time>2018-09-16T12:41:45Z</time>
      </trkpt>
      <trkpt lat="46.26287" lon="10.38059">
        <ele>1491.298</ele>
        <time>2018-09-16T12:42:05Z</time>
      </trkpt>
      <trkpt lat="46.26285" lon="10.38061">
        <ele>1490.717</ele>
        <time>2018-09-16T12:42:25Z</time>
      </trkpt>
      <trkpt lat="46.26283" lon="10.38065">
        <ele>1490.008</ele>
        <time>2018-09-16T12:42:45Z</time>
      </trkpt>
      <trkpt lat="46.26272" lon="10.38084">
        <ele>1486.933</ele>
        <time>2018-09-16T12:43:05Z</time>
      </trkpt>
      <trkpt lat="46.26261" lon="10.38089">
        <ele>1485.819</ele>
        <time>2018-09-16T12:43:25Z</time>
      </trkpt>
      <trkpt lat="46.26257" lon="10.38093">
        <ele>1485.046</ele>
        <time>2018-09-16T12:43:45Z</time>
      </trkpt>
      <trkpt lat="46.26249" lon="10.381">
        <ele>1483.499</ele>
        <time>2018-09-16T12:44:05Z</time>
      </trkpt>
      <trkpt lat="46.26241" lon="10.3811">
        <ele>1482.242</ele>
        <time>2018-09-16T12:44:25Z</time>
      </trkpt>
      <trkpt lat="46.26235" lon="10.38119">
        <ele>1480.935</ele>
        <time>2018-09-16T12:44:45Z</time>
      </trkpt>
      <trkpt lat="46.26231" lon="10.38125">
        <ele>1479.733</ele>
        <time>2018-09-16T12:45:05Z</time>
      </trkpt>
      <trkpt lat="46.26227" lon="10.3813">
        <ele>1478.85</ele>
        <time>2018-09-16T12:45:25Z</time>
      </trkpt>
      <trkpt lat="46.26225" lon="10.38132">
        <ele>1478.427</ele>
        <time>2018-09-16T12:45:45Z</time>
      </trkpt>
      <trkpt lat="46.26222" lon="10.38137">
        <ele>1477.568</ele>
        <time>2018-09-16T12:46:05Z</time>
      </trkpt>
      <trkpt lat="46.26213" lon="10.38156">
        <ele>1473.814</ele>
        <time>2018-09-16T12:46:25Z</time>
      </trkpt>
      <trkpt lat="46.26211" lon="10.38161">
        <ele>1473.008</ele>
        <time>2018-09-16T12:46:45Z</time>
      </trkpt>
      <trkpt lat="46.26196" lon="10.38198">
        <ele>1466.424</ele>
        <time>2018-09-16T12:47:05Z</time>
      </trkpt>
      <trkpt lat="46.26193" lon="10.38202">
        <ele>1465.63</ele>
        <time>2018-09-16T12:47:25Z</time>
      </trkpt>
      <trkpt lat="46.26188" lon="10.38209">
        <ele>1464.797</ele>
        <time>2018-09-16T12:47:45Z</time>
      </trkpt>
      <trkpt lat="46.26179" lon="10.3822">
        <ele>1463.09</ele>
        <time>2018-09-16T12:48:05Z</time>
      </trkpt>
      <trkpt lat="46.26169" lon="10.38229">
        <ele>1461.533</ele>
        <time>2018-09-16T12:48:25Z</time>
      </trkpt>
      <trkpt lat="46.26156" lon="10.38236">
        <ele>1461.086</ele>
        <time>2018-09-16T12:48:45Z</time>
      </trkpt>
      <trkpt lat="46.26152" lon="10.38244">
        <ele>1459.444</ele>
        <time>2018-09-16T12:49:05Z</time>
      </trkpt>
      <trkpt lat="46.26144" lon="10.38256">
        <ele>1457.031</ele>
        <time>2018-09-16T12:49:25Z</time>
      </trkpt>
      <trkpt lat="46.26127" lon="10.38272">
        <ele>1455.096</ele>
        <time>2018-09-16T12:49:45Z</time>
      </trkpt>
      <trkpt lat="46.2612" lon="10.3828">
        <ele>1453.931</ele>
        <time>2018-09-16T12:50:05Z</time>
      </trkpt>
      <trkpt lat="46.26116" lon="10.38285">
        <ele>1453.124</ele>
        <time>2018-09-16T12:50:25Z</time>
      </trkpt>
      <trkpt lat="46.26109" lon="10.38293">
        <ele>1451.408</ele>
        <time>2018-09-16T12:50:45Z</time>
      </trkpt>
      <trkpt lat="46.26106" lon="10.38296">
        <ele>1451.081</ele>
        <time>2018-09-16T12:51:05Z</time>
      </trkpt>
      <trkpt lat="46.26098" lon="10.38302">
        <ele>1450.857</ele>
        <time>2018-09-16T12:51:25Z</time>
      </trkpt>
      <trkpt lat="46.26078" lon="10.38302">
        <ele>1454.024</ele>
        <time>2018-09-16T12:51:45Z</time>
      </trkpt>
      <trkpt lat="46.26065" lon="10.38313">
        <ele>1451.637</ele>
        <time>2018-09-16T12:52:05Z</time>
      </trkpt>
      <trkpt lat="46.26058" lon="10.38317">
        <ele>1450.72</ele>
        <time>2018-09-16T12:52:25Z</time>
      </trkpt>
      <trkpt lat="46.26052" lon="10.38323">
        <ele>1449.263</ele>
        <time>2018-09-16T12:52:45Z</time>
      </trkpt>
      <trkpt lat="46.26043" lon="10.38338">
        <ele>1444.851</ele>
        <time>2018-09-16T12:53:05Z</time>
      </trkpt>
      <trkpt lat="46.26029" lon="10.3836">
        <ele>1439.378</ele>
        <time>2018-09-16T12:53:25Z</time>
      </trkpt>
      <trkpt lat="46.26023" lon="10.38372">
        <ele>1435.687</ele>
        <time>2018-09-16T12:53:45Z</time>
      </trkpt>
      <trkpt lat="46.26017" lon="10.38382">
        <ele>1432.342</ele>
        <time>2018-09-16T12:54:05Z</time>
      </trkpt>
      <trkpt lat="46.26012" lon="10.38389">
        <ele>1430.026</ele>
        <time>2018-09-16T12:54:25Z</time>
      </trkpt>
      <trkpt lat="46.26003" lon="10.3841">
        <ele>1425.308</ele>
        <time>2018-09-16T12:54:45Z</time>
      </trkpt>
      <trkpt lat="46.26001" lon="10.38413">
        <ele>1424.73</ele>
        <time>2018-09-16T12:55:05Z</time>
      </trkpt>
      <trkpt lat="46.26024" lon="10.38434">
        <ele>1420.626</ele>
        <time>2018-09-16T12:55:25Z</time>
      </trkpt>
      <trkpt lat="46.2603" lon="10.38438">
        <ele>1420.013</ele>
        <time>2018-09-16T12:55:45Z</time>
      </trkpt>
      <trkpt lat="46.26041" lon="10.38445">
        <ele>1419.866</ele>
        <time>2018-09-16T12:56:05Z</time>
      </trkpt>
      <trkpt lat="46.2605" lon="10.3845">
        <ele>1419.849</ele>
        <time>2018-09-16T12:56:25Z</time>
      </trkpt>
      <trkpt lat="46.26053" lon="10.38457">
        <ele>1419.192</ele>
        <time>2018-09-16T12:56:45Z</time>
      </trkpt>
      <trkpt lat="46.26055" lon="10.3846">
        <ele>1418.79</ele>
        <time>2018-09-16T12:57:05Z</time>
      </trkpt>
      <trkpt lat="46.26055" lon="10.38463">
        <ele>1418.337</ele>
        <time>2018-09-16T12:57:25Z</time>
      </trkpt>
      <trkpt lat="46.26053" lon="10.38511">
        <ele>1411.354</ele>
        <time>2018-09-16T12:57:45Z</time>
      </trkpt>
      <trkpt lat="46.26053" lon="10.38512">
        <ele>1411.156</ele>
        <time>2018-09-16T12:58:05Z</time>
      </trkpt>
      <trkpt lat="46.26055" lon="10.38519">
        <ele>1410.211</ele>
        <time>2018-09-16T12:58:25Z</time>
      </trkpt>
      <trkpt lat="46.26059" lon="10.38522">
        <ele>1409.908</ele>
        <time>2018-09-16T12:58:45Z</time>
      </trkpt>
      <trkpt lat="46.26065" lon="10.38524">
        <ele>1409.887</ele>
        <time>2018-09-16T12:59:05Z</time>
      </trkpt>
      <trkpt lat="46.26066" lon="10.38537">
        <ele>1407.823</ele>
        <time>2018-09-16T12:59:25Z</time>
      </trkpt>
      <trkpt lat="46.26062" lon="10.38544">
        <ele>1406.47</ele>
        <time>2018-09-16T12:59:45Z</time>
      </trkpt>
      <trkpt lat="46.26059" lon="10.38554">
        <ele>1404.523</ele>
        <time>2018-09-16T13:00:05Z</time>
      </trkpt>
      <trkpt lat="46.26078" lon="10.3856">
        <ele>1405.016</ele>
        <time>2018-09-16T13:00:25Z</time>
      </trkpt>
      <trkpt lat="46.26092" lon="10.38564">
        <ele>1405.799</ele>
        <time>2018-09-16T13:00:45Z</time>
      </trkpt>
      <trkpt lat="46.26113" lon="10.38563">
        <ele>1408.417</ele>
        <time>2018-09-16T13:01:05Z</time>
      </trkpt>
      <trkpt lat="46.26127" lon="10.38565">
        <ele>1411.054</ele>
        <time>2018-09-16T13:01:25Z</time>
      </trkpt>
      <trkpt lat="46.26134" lon="10.38577">
        <ele>1411.576</ele>
        <time>2018-09-16T13:01:45Z</time>
      </trkpt>
      <trkpt lat="46.26133" lon="10.3858">
        <ele>1411.09</ele>
        <time>2018-09-16T13:02:05Z</time>
      </trkpt>
      <trkpt lat="46.26126" lon="10.38613">
        <ele>1406.119</ele>
        <time>2018-09-16T13:02:25Z</time>
      </trkpt>
      <trkpt lat="46.26126" lon="10.38614">
        <ele>1406.008</ele>
        <time>2018-09-16T13:02:45Z</time>
      </trkpt>
      <trkpt lat="46.26124" lon="10.3862">
        <ele>1405.329</ele>
        <time>2018-09-16T13:03:05Z</time>
      </trkpt>
      <trkpt lat="46.2612" lon="10.38633">
        <ele>1403.675</ele>
        <time>2018-09-16T13:03:25Z</time>
      </trkpt>
      <trkpt lat="46.26118" lon="10.38638">
        <ele>1402.892</ele>
        <time>2018-09-16T13:03:45Z</time>
      </trkpt>
      <trkpt lat="46.26117" lon="10.38646">
        <ele>1402.335</ele>
        <time>2018-09-16T13:04:05Z</time>
      </trkpt>
      <trkpt lat="46.26115" lon="10.38652">
        <ele>1401.868</ele>
        <time>2018-09-16T13:04:25Z</time>
      </trkpt>
      <trkpt lat="46.26114" lon="10.38656">
        <ele>1401.511</ele>
        <time>2018-09-16T13:04:45Z</time>
      </trkpt>
      <trkpt lat="46.26112" lon="10.38659">
        <ele>1401.089</ele>
        <time>2018-09-16T13:05:05Z</time>
      </trkpt>
      <trkpt lat="46.26109" lon="10.38663">
        <ele>1400.996</ele>
        <time>2018-09-16T13:05:25Z</time>
      </trkpt>
      <trkpt lat="46.26102" lon="10.38668">
        <ele>1400.676</ele>
        <time>2018-09-16T13:05:45Z</time>
      </trkpt>
      <trkpt lat="46.26091" lon="10.38675">
        <ele>1400.59</ele>
        <time>2018-09-16T13:06:05Z</time>
      </trkpt>
      <trkpt lat="46.26089" lon="10.38678">
        <ele>1400.519</ele>
        <time>2018-09-16T13:06:25Z</time>
      </trkpt>
      <trkpt lat="46.26079" lon="10.38686">
        <ele>1400.308</ele>
        <time>2018-09-16T13:06:45Z</time>
      </trkpt>
      <trkpt lat="46.26075" lon="10.38689">
        <ele>1400.229</ele>
        <time>2018-09-16T13:07:05Z</time>
      </trkpt>
      <trkpt lat="46.26069" lon="10.38693">
        <ele>1400.385</ele>
        <time>2018-09-16T13:07:25Z</time>
      </trkpt>
      <trkpt lat="46.26062" lon="10.38694">
        <ele>1400.112</ele>
        <time>2018-09-16T13:07:45Z</time>
      </trkpt>
      <trkpt lat="46.26058" lon="10.38696">
        <ele>1400.145</ele>
        <time>2018-09-16T13:08:05Z</time>
      </trkpt>
      <trkpt lat="46.26054" lon="10.387">
        <ele>1399.938</ele>
        <time>2018-09-16T13:08:25Z</time>
      </trkpt>
      <trkpt lat="46.26038" lon="10.38704">
        <ele>1397.151</ele>
        <time>2018-09-16T13:08:45Z</time>
      </trkpt>
      <trkpt lat="46.2603" lon="10.38703">
        <ele>1395.559</ele>
        <time>2018-09-16T13:09:05Z</time>
      </trkpt>
      <trkpt lat="46.26022" lon="10.38701">
        <ele>1392.926</ele>
        <time>2018-09-16T13:09:25Z</time>
      </trkpt>
      <trkpt lat="46.26013" lon="10.38703">
        <ele>1389.943</ele>
        <time>2018-09-16T13:09:45Z</time>
      </trkpt>
      <trkpt lat="46.26005" lon="10.38702">
        <ele>1386.964</ele>
        <time>2018-09-16T13:10:05Z</time>
      </trkpt>
      <trkpt lat="46.25995" lon="10.38708">
        <ele>1383.81</ele>
        <time>2018-09-16T13:10:25Z</time>
      </trkpt>
      <trkpt lat="46.25992" lon="10.38707">
        <ele>1382.808</ele>
        <time>2018-09-16T13:10:45Z</time>
      </trkpt>
      <trkpt lat="46.25989" lon="10.38705">
        <ele>1381.726</ele>
        <time>2018-09-16T13:11:05Z</time>
      </trkpt>
      <trkpt lat="46.25986" lon="10.38706">
        <ele>1380.712</ele>
        <time>2018-09-16T13:11:25Z</time>
      </trkpt>
      <trkpt lat="46.25985" lon="10.38708">
        <ele>1380.589</ele>
        <time>2018-09-16T13:11:45Z</time>
      </trkpt>
      <trkpt lat="46.25983" lon="10.38708">
        <ele>1379.912</ele>
        <time>2018-09-16T13:12:05Z</time>
      </trkpt>
      <trkpt lat="46.25977" lon="10.38708">
        <ele>1378.165</ele>
        <time>2018-09-16T13:12:25Z</time>
      </trkpt>
      <trkpt lat="46.2597" lon="10.38708">
        <ele>1376.398</ele>
        <time>2018-09-16T13:12:45Z</time>
      </trkpt>
      <trkpt lat="46.25966" lon="10.38708">
        <ele>1376.176</ele>
        <time>2018-09-16T13:13:05Z</time>
      </trkpt>
      <trkpt lat="46.25965" lon="10.38707">
        <ele>1375.953</ele>
        <time>2018-09-16T13:13:25Z</time>
      </trkpt>
      <trkpt lat="46.25961" lon="10.38707">
        <ele>1375.721</ele>
        <time>2018-09-16T13:13:45Z</time>
      </trkpt>
      <trkpt lat="46.25956" lon="10.3871">
        <ele>1375.741</ele>
        <time>2018-09-16T13:14:05Z</time>
      </trkpt>
      <trkpt lat="46.25953" lon="10.38715">
        <ele>1376.005</ele>
        <time>2018-09-16T13:14:25Z</time>
      </trkpt>
      <trkpt lat="46.25953" lon="10.38716">
        <ele>1376.008</ele>
        <time>2018-09-16T13:14:45Z</time>
      </trkpt>
      <trkpt lat="46.25953" lon="10.38716">
        <ele>1376.044</ele>
        <time>2018-09-16T13:15:05Z</time>
      </trkpt>
      <trkpt lat="46.25948" lon="10.38716">
        <ele>1375.85</ele>
        <time>2018-09-16T13:15:25Z</time>
      </trkpt>
      <trkpt lat="46.25945" lon="10.38716">
        <ele>1375.517</ele>
        <time>2018-09-16T13:15:45Z</time>
      </trkpt>
      <trkpt lat="46.25938" lon="10.3872">
        <ele>1374.55</ele>
        <time>2018-09-16T13:16:05Z</time>
      </trkpt>
      <trkpt lat="46.25938" lon="10.38725">
        <ele>1374.563</ele>
        <time>2018-09-16T13:16:25Z</time>
      </trkpt>
      <trkpt lat="46.25941" lon="10.3873">
        <ele>1374.886</ele>
        <time>2018-09-16T13:16:45Z</time>
      </trkpt>
      <trkpt lat="46.25945" lon="10.38732">
        <ele>1375.754</ele>
        <time>2018-09-16T13:17:05Z</time>
      </trkpt>
      <trkpt lat="46.25948" lon="10.38734">
        <ele>1375.821</ele>
        <time>2018-09-16T13:17:25Z</time>
      </trkpt>
      <trkpt lat="46.25953" lon="10.38735">
        <ele>1376.147</ele>
        <time>2018-09-16T13:17:45Z</time>
      </trkpt>
      <trkpt lat="46.2596" lon="10.38738">
        <ele>1376.529</ele>
        <time>2018-09-16T13:18:05Z</time>
      </trkpt>
      <trkpt lat="46.25968" lon="10.38737">
        <ele>1377.121</ele>
        <time>2018-09-16T13:18:25Z</time>
      </trkpt>
      <trkpt lat="46.25972" lon="10.38739">
        <ele>1377.308</ele>
        <time>2018-09-16T13:18:45Z</time>
      </trkpt>
      <trkpt lat="46.25973" lon="10.38741">
        <ele>1377.526</ele>
        <time>2018-09-16T13:19:05Z</time>
      </trkpt>
      <trkpt lat="46.25973" lon="10.38743">
        <ele>1377.492</ele>
        <time>2018-09-16T13:19:25Z</time>
      </trkpt>
      <trkpt lat="46.25973" lon="10.38744">
        <ele>1377.369</ele>
        <time>2018-09-16T13:19:45Z</time>
      </trkpt>
      <trkpt lat="46.25971" lon="10.38748">
        <ele>1376.952</ele>
        <time>2018-09-16T13:20:05Z</time>
      </trkpt>
      <trkpt lat="46.2597" lon="10.38749">
        <ele>1376.865</ele>
        <time>2018-09-16T13:20:25Z</time>
      </trkpt>
      <trkpt lat="46.25963" lon="10.38753">
        <ele>1376.088</ele>
        <time>2018-09-16T13:20:45Z</time>
      </trkpt>
      <trkpt lat="46.25953" lon="10.38755">
        <ele>1375.046</ele>
        <time>2018-09-16T13:21:05Z</time>
      </trkpt>
      <trkpt lat="46.25952" lon="10.38755">
        <ele>1374.943</ele>
        <time>2018-09-16T13:21:25Z</time>
      </trkpt>
      <trkpt lat="46.25941" lon="10.3876">
        <ele>1372.671</ele>
        <time>2018-09-16T13:21:45Z</time>
      </trkpt>
      <trkpt lat="46.25941" lon="10.3876">
        <ele>1372.441</ele>
        <time>2018-09-16T13:22:05Z</time>
      </trkpt>
      <trkpt lat="46.25936" lon="10.38762">
        <ele>1370.915</ele>
        <time>2018-09-16T13:22:25Z</time>
      </trkpt>
      <trkpt lat="46.25931" lon="10.38762">
        <ele>1369.308</ele>
        <time>2018-09-16T13:22:45Z</time>
      </trkpt>
      <trkpt lat="46.25925" lon="10.38758">
        <ele>1368.269</ele>
        <time>2018-09-16T13:23:05Z</time>
      </trkpt>
      <trkpt lat="46.25917" lon="10.38747">
        <ele>1367.465</ele>
        <time>2018-09-16T13:23:25Z</time>
      </trkpt>
      <trkpt lat="46.25912" lon="10.38738">
        <ele>1367.372</ele>
        <time>2018-09-16T13:23:45Z</time>
      </trkpt>
      <trkpt lat="46.25908" lon="10.38732">
        <ele>1367.095</ele>
        <time>2018-09-16T13:24:05Z</time>
      </trkpt>
      <trkpt lat="46.25901" lon="10.3872">
        <ele>1367.388</ele>
        <time>2018-09-16T13:24:25Z</time>
      </trkpt>
      <trkpt lat="46.25899" lon="10.38718">
        <ele>1367.351</ele>
        <time>2018-09-16T13:24:45Z</time>
      </trkpt>
      <trkpt lat="46.25898" lon="10.38716">
        <ele>1367.299</ele>
        <time>2018-09-16T13:25:05Z</time>
      </trkpt>
      <trkpt lat="46.25898" lon="10.38715">
        <ele>1367.286</ele>
        <time>2018-09-16T13:25:25Z</time>
      </trkpt>
      <trkpt lat="46.25895" lon="10.38712">
        <ele>1367.167</ele>
        <time>2018-09-16T13:25:45Z</time>
      </trkpt>
      <trkpt lat="46.25893" lon="10.38709">
        <ele>1367.081</ele>
        <time>2018-09-16T13:26:05Z</time>
      </trkpt>
      <trkpt lat="46.25889" lon="10.38706">
        <ele>1366.719</ele>
        <time>2018-09-16T13:26:25Z</time>
      </trkpt>
      <trkpt lat="46.2588" lon="10.38706">
        <ele>1365.008</ele>
        <time>2018-09-16T13:26:45Z</time>
      </trkpt>
      <trkpt lat="46.25873" lon="10.38714">
        <ele>1362.448</ele>
        <time>2018-09-16T13:27:05Z</time>
      </trkpt>
      <trkpt lat="46.25861" lon="10.38726">
        <ele>1357.454</ele>
        <time>2018-09-16T13:27:25Z</time>
      </trkpt>
      <trkpt lat="46.25858" lon="10.38729">
        <ele>1356.541</ele>
        <time>2018-09-16T13:27:45Z</time>
      </trkpt>
      <trkpt lat="46.25854" lon="10.38731">
        <ele>1355.544</ele>
        <time>2018-09-16T13:28:05Z</time>
      </trkpt>
      <trkpt lat="46.25849" lon="10.38734">
        <ele>1354.247</ele>
        <time>2018-09-16T13:28:25Z</time>
      </trkpt>
      <trkpt lat="46.25848" lon="10.38735">
        <ele>1354.04</ele>
        <time>2018-09-16T13:28:45Z</time>
      </trkpt>
      <trkpt lat="46.25841" lon="10.38742">
        <ele>1352.068</ele>
        <time>2018-09-16T13:29:05Z</time>
      </trkpt>
      <trkpt lat="46.25836" lon="10.38749">
        <ele>1350.465</ele>
        <time>2018-09-16T13:29:25Z</time>
      </trkpt>
      <trkpt lat="46.25834" lon="10.38756">
        <ele>1350.018</ele>
        <time>2018-09-16T13:29:45Z</time>
      </trkpt>
      <trkpt lat="46.2583" lon="10.3876">
        <ele>1350.098</ele>
        <time>2018-09-16T13:30:05Z</time>
      </trkpt>
      <trkpt lat="46.25827" lon="10.38766">
        <ele>1350.017</ele>
        <time>2018-09-16T13:30:25Z</time>
      </trkpt>
      <trkpt lat="46.25799" lon="10.3879">
        <ele>1349.808</ele>
        <time>2018-09-16T13:30:45Z</time>
      </trkpt>
      <trkpt lat="46.25793" lon="10.38792">
        <ele>1349.723</ele>
        <time>2018-09-16T13:31:05Z</time>
      </trkpt>
      <trkpt lat="46.25776" lon="10.38804">
        <ele>1348.919</ele>
        <time>2018-09-16T13:31:25Z</time>
      </trkpt>
      <trkpt lat="46.25749" lon="10.38823">
        <ele>1345.466</ele>
        <time>2018-09-16T13:31:45Z</time>
      </trkpt>
      <trkpt lat="46.25735" lon="10.38832">
        <ele>1341.839</ele>
        <time>2018-09-16T13:32:05Z</time>
      </trkpt>
      <trkpt lat="46.25733" lon="10.38832">
        <ele>1341.412</ele>
        <time>2018-09-16T13:32:25Z</time>
      </trkpt>
      <trkpt lat="46.25731" lon="10.38833">
        <ele>1341.015</ele>
        <time>2018-09-16T13:32:45Z</time>
      </trkpt>
      <trkpt lat="46.25718" lon="10.38833">
        <ele>1338.833</ele>
        <time>2018-09-16T13:33:05Z</time>
      </trkpt>
      <trkpt lat="46.25707" lon="10.38833">
        <ele>1338.41</ele>
        <time>2018-09-16T13:33:25Z</time>
      </trkpt>
      <trkpt lat="46.25678" lon="10.38842">
        <ele>1333.491</ele>
        <time>2018-09-16T13:33:45Z</time>
      </trkpt>
      <trkpt lat="46.2567" lon="10.38844">
        <ele>1331.481</ele>
        <time>2018-09-16T13:34:05Z</time>
      </trkpt>
      <trkpt lat="46.2566" lon="10.38846">
        <ele>1328.919</ele>
        <time>2018-09-16T13:34:25Z</time>
      </trkpt>
      <trkpt lat="46.25652" lon="10.38845">
        <ele>1327.508</ele>
        <time>2018-09-16T13:34:45Z</time>
      </trkpt>
      <trkpt lat="46.25646" lon="10.38844">
        <ele>1326.171</ele>
        <time>2018-09-16T13:35:05Z</time>
      </trkpt>
      <trkpt lat="46.25629" lon="10.38852">
        <ele>1321.937</ele>
        <time>2018-09-16T13:35:25Z</time>
      </trkpt>
      <trkpt lat="46.25627" lon="10.38853">
        <ele>1321.454</ele>
        <time>2018-09-16T13:35:45Z</time>
      </trkpt>
      <trkpt lat="46.25609" lon="10.38858">
        <ele>1318.957</ele>
        <time>2018-09-16T13:36:05Z</time>
      </trkpt>
      <trkpt lat="46.25604" lon="10.38861">
        <ele>1317.94</ele>
        <time>2018-09-16T13:36:25Z</time>
      </trkpt>
      <trkpt lat="46.25603" lon="10.38862">
        <ele>1317.793</ele>
        <time>2018-09-16T13:36:45Z</time>
      </trkpt>
      <trkpt lat="46.25602" lon="10.38864">
        <ele>1317.321</ele>
        <time>2018-09-16T13:37:05Z</time>
      </trkpt>
      <trkpt lat="46.25598" lon="10.3887">
        <ele>1315.738</ele>
        <time>2018-09-16T13:37:25Z</time>
      </trkpt>
      <trkpt lat="46.25592" lon="10.38872">
        <ele>1314.861</ele>
        <time>2018-09-16T13:37:45Z</time>
      </trkpt>
      <trkpt lat="46.25574" lon="10.38873">
        <ele>1315.021</ele>
        <time>2018-09-16T13:38:05Z</time>
      </trkpt>
      <trkpt lat="46.25564" lon="10.38876">
        <ele>1314.413</ele>
        <time>2018-09-16T13:38:25Z</time>
      </trkpt>
      <trkpt lat="46.25563" lon="10.38876">
        <ele>1314.408</ele>
        <time>2018-09-16T13:38:45Z</time>
      </trkpt>
      <trkpt lat="46.25562" lon="10.38876">
        <ele>1314.318</ele>
        <time>2018-09-16T13:39:05Z</time>
      </trkpt>
      <trkpt lat="46.25559" lon="10.38877">
        <ele>1314.384</ele>
        <time>2018-09-16T13:39:25Z</time>
      </trkpt>
      <trkpt lat="46.25554" lon="10.38878">
        <ele>1314.251</ele>
        <time>2018-09-16T13:39:45Z</time>
      </trkpt>
      <trkpt lat="46.25553" lon="10.38879">
        <ele>1314.214</ele>
        <time>2018-09-16T13:40:05Z</time>
      </trkpt>
      <trkpt lat="46.25537" lon="10.38885">
        <ele>1313.757</ele>
        <time>2018-09-16T13:40:25Z</time>
      </trkpt>
      <trkpt lat="46.25523" lon="10.38896">
        <ele>1311.24</ele>
        <time>2018-09-16T13:40:45Z</time>
      </trkpt>
      <trkpt lat="46.25506" lon="10.38904">
        <ele>1310.538</ele>
        <time>2018-09-16T13:41:05Z</time>
      </trkpt>
      <trkpt lat="46.25501" lon="10.38906">
        <ele>1310.125</ele>
        <time>2018-09-16T13:41:25Z</time>
      </trkpt>
      <trkpt lat="46.25489" lon="10.38911">
        <ele>1309.328</ele>
        <time>2018-09-16T13:41:45Z</time>
      </trkpt>
      <trkpt lat="46.25466" lon="10.38922">
        <ele>1307.689</ele>
        <time>2018-09-16T13:42:05Z</time>
      </trkpt>
      <trkpt lat="46.2545" lon="10.38928">
        <ele>1305.717</ele>
        <time>2018-09-16T13:42:25Z</time>
      </trkpt>
      <trkpt lat="46.2541" lon="10.38955">
        <ele>1301.708</ele>
        <time>2018-09-16T13:42:45Z</time>
      </trkpt>
      <trkpt lat="46.25374" lon="10.38981">
        <ele>1300.094</ele>
        <time>2018-09-16T13:43:05Z</time>
      </trkpt>
      <trkpt lat="46.2534" lon="10.39003">
        <ele>1299.12</ele>
        <time>2018-09-16T13:43:25Z</time>
      </trkpt>
      <trkpt lat="46.25321" lon="10.39017">
        <ele>1297.017</ele>
        <time>2018-09-16T13:43:45Z</time>
      </trkpt>
      <trkpt lat="46.25313" lon="10.39021">
        <ele>1295.96</ele>
        <time>2018-09-16T13:44:05Z</time>
      </trkpt>
      <trkpt lat="46.25302" lon="10.39026">
        <ele>1293.583</ele>
        <time>2018-09-16T13:44:25Z</time>
      </trkpt>
      <trkpt lat="46.25282" lon="10.39027">
        <ele>1289.066</ele>
        <time>2018-09-16T13:44:45Z</time>
      </trkpt>
      <trkpt lat="46.2527" lon="10.39026">
        <ele>1285.554</ele>
        <time>2018-09-16T13:45:05Z</time>
      </trkpt>
      <trkpt lat="46.25244" lon="10.39025">
        <ele>1278.381</ele>
        <time>2018-09-16T13:45:25Z</time>
      </trkpt>
      <trkpt lat="46.25227" lon="10.39019">
        <ele>1278.359</ele>
        <time>2018-09-16T13:45:45Z</time>
      </trkpt>
      <trkpt lat="46.25224" lon="10.39018">
        <ele>1278.303</ele>
        <time>2018-09-16T13:46:05Z</time>
      </trkpt>
      <trkpt lat="46.252" lon="10.39018">
        <ele>1274.023</ele>
        <time>2018-09-16T13:46:25Z</time>
      </trkpt>
      <trkpt lat="46.25195" lon="10.39017">
        <ele>1273.608</ele>
        <time>2018-09-16T13:46:45Z</time>
      </trkpt>
      <trkpt lat="46.25171" lon="10.39012">
        <ele>1273.727</ele>
        <time>2018-09-16T13:47:05Z</time>
      </trkpt>
      <trkpt lat="46.25153" lon="10.39019">
        <ele>1270.133</ele>
        <time>2018-09-16T13:47:25Z</time>
      </trkpt>
      <trkpt lat="46.25131" lon="10.39036">
        <ele>1263.53</ele>
        <time>2018-09-16T13:47:45Z</time>
      </trkpt>
      <trkpt lat="46.25127" lon="10.39038">
        <ele>1262.943</ele>
        <time>2018-09-16T13:48:05Z</time>
      </trkpt>
      <trkpt lat="46.25107" lon="10.39051">
        <ele>1259.176</ele>
        <time>2018-09-16T13:48:25Z</time>
      </trkpt>
      <trkpt lat="46.25087" lon="10.39059">
        <ele>1253.889</ele>
        <time>2018-09-16T13:48:45Z</time>
      </trkpt>
      <trkpt lat="46.25072" lon="10.39064">
        <ele>1252.437</ele>
        <time>2018-09-16T13:49:05Z</time>
      </trkpt>
      <trkpt lat="46.25061" lon="10.39066">
        <ele>1252.074</ele>
        <time>2018-09-16T13:49:25Z</time>
      </trkpt>
      <trkpt lat="46.25041" lon="10.39074">
        <ele>1251.713</ele>
        <time>2018-09-16T13:49:45Z</time>
      </trkpt>
      <trkpt lat="46.25004" lon="10.39101">
        <ele>1246.943</ele>
        <time>2018-09-16T13:50:05Z</time>
      </trkpt>
      <trkpt lat="46.24985" lon="10.39118">
        <ele>1243.007</ele>
        <time>2018-09-16T13:50:25Z</time>
      </trkpt>
      <trkpt lat="46.24968" lon="10.39144">
        <ele>1234.108</ele>
        <time>2018-09-16T13:50:45Z</time>
      </trkpt>
      <trkpt lat="46.24927" lon="10.39168">
        <ele>1226.713</ele>
        <time>2018-09-16T13:51:05Z</time>
      </trkpt>
      <trkpt lat="46.24878" lon="10.392">
        <ele>1224.729</ele>
        <time>2018-09-16T13:51:25Z</time>
      </trkpt>
      <trkpt lat="46.24842" lon="10.39217">
        <ele>1220.476</ele>
        <time>2018-09-16T13:51:45Z</time>
      </trkpt>
      <trkpt lat="46.24827" lon="10.39221">
        <ele>1218.529</ele>
        <time>2018-09-16T13:52:05Z</time>
      </trkpt>
      <trkpt lat="46.24823" lon="10.39223">
        <ele>1217.822</ele>
        <time>2018-09-16T13:52:25Z</time>
      </trkpt>
      <trkpt lat="46.24809" lon="10.39231">
        <ele>1215.235</ele>
        <time>2018-09-16T13:52:45Z</time>
      </trkpt>
      <trkpt lat="46.24802" lon="10.39234">
        <ele>1214.343</ele>
        <time>2018-09-16T13:53:05Z</time>
      </trkpt>
      <trkpt lat="46.24801" lon="10.39235">
        <ele>1214.24</ele>
        <time>2018-09-16T13:53:25Z</time>
      </trkpt>
      <trkpt lat="46.24798" lon="10.39237">
        <ele>1213.537</ele>
        <time>2018-09-16T13:53:45Z</time>
      </trkpt>
      <trkpt lat="46.2478" lon="10.39253">
        <ele>1208.849</ele>
        <time>2018-09-16T13:54:05Z</time>
      </trkpt>
      <trkpt lat="46.24777" lon="10.39256">
        <ele>1208.113</ele>
        <time>2018-09-16T13:54:25Z</time>
      </trkpt>
      <trkpt lat="46.24745" lon="10.39281">
        <ele>1202.708</ele>
        <time>2018-09-16T13:54:45Z</time>
      </trkpt>
      <trkpt lat="46.24741" lon="10.39285">
        <ele>1202.285</ele>
        <time>2018-09-16T13:55:05Z</time>
      </trkpt>
      <trkpt lat="46.24732" lon="10.39293">
        <ele>1200.891</ele>
        <time>2018-09-16T13:55:25Z</time>
      </trkpt>
      <trkpt lat="46.24723" lon="10.393">
        <ele>1198.638</ele>
        <time>2018-09-16T13:55:45Z</time>
      </trkpt>
      <trkpt lat="46.24705" lon="10.39303">
        <ele>1199.981</ele>
        <time>2018-09-16T13:56:05Z</time>
      </trkpt>
      <trkpt lat="46.24674" lon="10.39324">
        <ele>1198.054</ele>
        <time>2018-09-16T13:56:25Z</time>
      </trkpt>
      <trkpt lat="46.24665" lon="10.3933">
        <ele>1196.487</ele>
        <time>2018-09-16T13:56:45Z</time>
      </trkpt>
      <trkpt lat="46.2466" lon="10.39334">
        <ele>1194.525</ele>
        <time>2018-09-16T13:57:05Z</time>
      </trkpt>
      <trkpt lat="46.24643" lon="10.39349">
        <ele>1188.492</ele>
        <time>2018-09-16T13:57:25Z</time>
      </trkpt>
      <trkpt lat="46.24635" lon="10.39355">
        <ele>1185.895</ele>
        <time>2018-09-16T13:57:45Z</time>
      </trkpt>
      <trkpt lat="46.24628" lon="10.39361">
        <ele>1183.749</ele>
        <time>2018-09-16T13:58:05Z</time>
      </trkpt>
      <trkpt lat="46.24604" lon="10.3938">
        <ele>1178.323</ele>
        <time>2018-09-16T13:58:25Z</time>
      </trkpt>
      <trkpt lat="46.24582" lon="10.39388">
        <ele>1175.108</ele>
        <time>2018-09-16T13:58:45Z</time>
      </trkpt>
      <trkpt lat="46.24549" lon="10.39414">
        <ele>1167.711</ele>
        <time>2018-09-16T13:59:05Z</time>
      </trkpt>
      <trkpt lat="46.2454" lon="10.39428">
        <ele>1162.177</ele>
        <time>2018-09-16T13:59:25Z</time>
      </trkpt>
      <trkpt lat="46.2454" lon="10.39428">
        <ele>1161.834</ele>
        <time>2018-09-16T13:59:45Z</time>
      </trkpt>
      <trkpt lat="46.24534" lon="10.39428">
        <ele>1160.797</ele>
        <time>2018-09-16T14:00:05Z</time>
      </trkpt>
      <trkpt lat="46.24526" lon="10.39436">
        <ele>1156.32</ele>
        <time>2018-09-16T14:00:25Z</time>
      </trkpt>
      <trkpt lat="46.2452" lon="10.39441">
        <ele>1154.543</ele>
        <time>2018-09-16T14:00:45Z</time>
      </trkpt>
      <trkpt lat="46.24515" lon="10.39447">
        <ele>1152.661</ele>
        <time>2018-09-16T14:01:05Z</time>
      </trkpt>
      <trkpt lat="46.24511" lon="10.39449">
        <ele>1152.338</ele>
        <time>2018-09-16T14:01:25Z</time>
      </trkpt>
      <trkpt lat="46.2451" lon="10.39449">
        <ele>1152.235</ele>
        <time>2018-09-16T14:01:45Z</time>
      </trkpt>
      <trkpt lat="46.24509" lon="10.3945">
        <ele>1152.186</ele>
        <time>2018-09-16T14:02:05Z</time>
      </trkpt>
      <trkpt lat="46.24508" lon="10.3945">
        <ele>1152.014</ele>
        <time>2018-09-16T14:02:25Z</time>
      </trkpt>
      <trkpt lat="46.24493" lon="10.39453">
        <ele>1151.908</ele>
        <time>2018-09-16T14:02:45Z</time>
      </trkpt>
      <trkpt lat="46.24482" lon="10.39454">
        <ele>1152.075</ele>
        <time>2018-09-16T14:03:05Z</time>
      </trkpt>
      <trkpt lat="46.24424" lon="10.3947">
        <ele>1144.021</ele>
        <time>2018-09-16T14:03:25Z</time>
      </trkpt>
      <trkpt lat="46.24417" lon="10.39474">
        <ele>1141.148</ele>
        <time>2018-09-16T14:03:45Z</time>
      </trkpt>
      <trkpt lat="46.24409" lon="10.39479">
        <ele>1139.061</ele>
        <time>2018-09-16T14:04:05Z</time>
      </trkpt>
      <trkpt lat="46.24403" lon="10.39482">
        <ele>1137.784</ele>
        <time>2018-09-16T14:04:25Z</time>
      </trkpt>
      <trkpt lat="46.24399" lon="10.39486">
        <ele>1135.897</ele>
        <time>2018-09-16T14:04:45Z</time>
      </trkpt>
      <trkpt lat="46.24396" lon="10.3949">
        <ele>1134.375</ele>
        <time>2018-09-16T14:05:05Z</time>
      </trkpt>
      <trkpt lat="46.24393" lon="10.39491">
        <ele>1134.032</ele>
        <time>2018-09-16T14:05:25Z</time>
      </trkpt>
      <trkpt lat="46.24377" lon="10.39515">
        <ele>1129.219</ele>
        <time>2018-09-16T14:05:45Z</time>
      </trkpt>
      <trkpt lat="46.24376" lon="10.39515">
        <ele>1129.009</ele>
        <time>2018-09-16T14:06:05Z</time>
      </trkpt>
      <trkpt lat="46.24376" lon="10.39517">
        <ele>1128.619</ele>
        <time>2018-09-16T14:06:25Z</time>
      </trkpt>
      <trkpt lat="46.24354" lon="10.39534">
        <ele>1126.108</ele>
        <time>2018-09-16T14:06:45Z</time>
      </trkpt>
      <trkpt lat="46.24352" lon="10.39536">
        <ele>1126.333</ele>
        <time>2018-09-16T14:07:05Z</time>
      </trkpt>
      <trkpt lat="46.24345" lon="10.39542">
        <ele>1126.479</ele>
        <time>2018-09-16T14:07:25Z</time>
      </trkpt>
      <trkpt lat="46.24335" lon="10.3955">
        <ele>1125.476</ele>
        <time>2018-09-16T14:07:45Z</time>
      </trkpt>
      <trkpt lat="46.24323" lon="10.39571">
        <ele>1123.469</ele>
        <time>2018-09-16T14:08:05Z</time>
      </trkpt>
      <trkpt lat="46.24302" lon="10.39585">
        <ele>1121.632</ele>
        <time>2018-09-16T14:08:25Z</time>
      </trkpt>
      <trkpt lat="46.24256" lon="10.39614">
        <ele>1113.325</ele>
        <time>2018-09-16T14:08:45Z</time>
      </trkpt>
      <trkpt lat="46.24233" lon="10.39631">
        <ele>1105.483</ele>
        <time>2018-09-16T14:09:05Z</time>
      </trkpt>
      <trkpt lat="46.24225" lon="10.39636">
        <ele>1102.47</ele>
        <time>2018-09-16T14:09:25Z</time>
      </trkpt>
      <trkpt lat="46.24224" lon="10.39637">
        <ele>1101.814</ele>
        <time>2018-09-16T14:09:45Z</time>
      </trkpt>
      <trkpt lat="46.24206" lon="10.39656">
        <ele>1102.154</ele>
        <time>2018-09-16T14:10:05Z</time>
      </trkpt>
      <trkpt lat="46.24188" lon="10.39665">
        <ele>1101.009</ele>
        <time>2018-09-16T14:10:25Z</time>
      </trkpt>
      <trkpt lat="46.24187" lon="10.39664">
        <ele>1101.308</ele>
        <time>2018-09-16T14:10:45Z</time>
      </trkpt>
      <trkpt lat="46.24172" lon="10.3966">
        <ele>1103.663</ele>
        <time>2018-09-16T14:11:05Z</time>
      </trkpt>
      <trkpt lat="46.24158" lon="10.39658">
        <ele>1105.339</ele>
        <time>2018-09-16T14:11:25Z</time>
      </trkpt>
      <trkpt lat="46.2415" lon="10.39661">
        <ele>1105.156</ele>
        <time>2018-09-16T14:11:45Z</time>
      </trkpt>
      <trkpt lat="46.24144" lon="10.39664">
        <ele>1104.549</ele>
        <time>2018-09-16T14:12:05Z</time>
      </trkpt>
      <trkpt lat="46.24138" lon="10.39667">
        <ele>1103.932</ele>
        <time>2018-09-16T14:12:25Z</time>
      </trkpt>
      <trkpt lat="46.2412" lon="10.39679">
        <ele>1101.425</ele>
        <time>2018-09-16T14:12:45Z</time>
      </trkpt>
      <trkpt lat="46.24113" lon="10.39684">
        <ele>1100.213</ele>
        <time>2018-09-16T14:13:05Z</time>
      </trkpt>
      <trkpt lat="46.24106" lon="10.39689">
        <ele>1098.75</ele>
        <time>2018-09-16T14:13:25Z</time>
      </trkpt>
      <trkpt lat="46.24105" lon="10.3969">
        <ele>1098.463</ele>
        <time>2018-09-16T14:13:45Z</time>
      </trkpt>
      <trkpt lat="46.24102" lon="10.39693">
        <ele>1097.744</ele>
        <time>2018-09-16T14:14:05Z</time>
      </trkpt>
      <trkpt lat="46.24099" lon="10.39695">
        <ele>1097.018</ele>
        <time>2018-09-16T14:14:25Z</time>
      </trkpt>
      <trkpt lat="46.24092" lon="10.39695">
        <ele>1096.508</ele>
        <time>2018-09-16T14:14:45Z</time>
      </trkpt>
      <trkpt lat="46.24086" lon="10.39693">
        <ele>1096.318</ele>
        <time>2018-09-16T14:15:05Z</time>
      </trkpt>
      <trkpt lat="46.24075" lon="10.39697">
        <ele>1095.334</ele>
        <time>2018-09-16T14:15:25Z</time>
      </trkpt>
      <trkpt lat="46.24071" lon="10.39698">
        <ele>1094.851</ele>
        <time>2018-09-16T14:15:45Z</time>
      </trkpt>
      <trkpt lat="46.24063" lon="10.39706">
        <ele>1093.184</ele>
        <time>2018-09-16T14:16:05Z</time>
      </trkpt>
      <trkpt lat="46.24058" lon="10.39706">
        <ele>1092.937</ele>
        <time>2018-09-16T14:16:25Z</time>
      </trkpt>
      <trkpt lat="46.24039" lon="10.39704">
        <ele>1089.91</ele>
        <time>2018-09-16T14:16:45Z</time>
      </trkpt>
      <trkpt lat="46.24029" lon="10.39709">
        <ele>1086.538</ele>
        <time>2018-09-16T14:17:05Z</time>
      </trkpt>
      <trkpt lat="46.24034" lon="10.39735">
        <ele>1081.175</ele>
        <time>2018-09-16T14:17:25Z</time>
      </trkpt>
      <trkpt lat="46.24035" lon="10.39738">
        <ele>1080.362</ele>
        <time>2018-09-16T14:17:45Z</time>
      </trkpt>
    </trkseg>
  </trk>
</gpx>